<?xml version="1.0" encoding="UTF-8" standalone="no" ?>
<gpx xmlns="http://www.topografix.com/GPX/1/1" xmlns:xsi="http://www.w3.org/2001/XMLSchema-instance" xsi:schemaLocation="http://www.topografix.com/GPX/1/1 http://www.topografix.com/GPX/1/1/gpx.xsd" version="1.1" creator="VisuGPX - https://www.visugpx.com">
  <metadata>
    <name>83 - D+  - Roquebrune sur Argens </name>
    <desc><![CDATA[83 - D+  - Roquebrune sur Argens - la Flûte]]></desc>
  </metadata>
  <trk>
    <name><![CDATA[Roquebrune - la Flûte 2025-01-19-01]]></name>
    <trkseg>
      <trkpt lat="43.43639" lon="6.65731">
        <ele>10.8</ele>
        <time>2025-01-19T08:17:39Z</time>
      </trkpt>
      <trkpt lat="43.43639" lon="6.65731">
        <ele>10.8</ele>
        <time>2025-01-19T08:17:40Z</time>
      </trkpt>
      <trkpt lat="43.4364" lon="6.65732">
        <ele>10.9</ele>
        <time>2025-01-19T08:17:41Z</time>
      </trkpt>
      <trkpt lat="43.4364" lon="6.65732">
        <ele>10.9</ele>
        <time>2025-01-19T08:17:42Z</time>
      </trkpt>
      <trkpt lat="43.4364" lon="6.65733">
        <ele>10.9</ele>
        <time>2025-01-19T08:17:43Z</time>
      </trkpt>
      <trkpt lat="43.4364" lon="6.65732">
        <ele>10.8</ele>
        <time>2025-01-19T08:17:44Z</time>
      </trkpt>
      <trkpt lat="43.4364" lon="6.65732">
        <ele>10.8</ele>
        <time>2025-01-19T08:17:45Z</time>
      </trkpt>
      <trkpt lat="43.4364" lon="6.65732">
        <ele>10.8</ele>
        <time>2025-01-19T08:17:46Z</time>
      </trkpt>
      <trkpt lat="43.43641" lon="6.65733">
        <ele>10.8</ele>
        <time>2025-01-19T08:17:47Z</time>
      </trkpt>
      <trkpt lat="43.4364" lon="6.65733">
        <ele>10.8</ele>
        <time>2025-01-19T08:17:48Z</time>
      </trkpt>
      <trkpt lat="43.4364" lon="6.65734">
        <ele>10.8</ele>
        <time>2025-01-19T08:17:49Z</time>
      </trkpt>
      <trkpt lat="43.43639" lon="6.65734">
        <ele>10.8</ele>
        <time>2025-01-19T08:17:50Z</time>
      </trkpt>
      <trkpt lat="43.43639" lon="6.65734">
        <ele>10.9</ele>
        <time>2025-01-19T08:17:51Z</time>
      </trkpt>
      <trkpt lat="43.43638" lon="6.65735">
        <ele>10.9</ele>
        <time>2025-01-19T08:17:52Z</time>
      </trkpt>
      <trkpt lat="43.43638" lon="6.65735">
        <ele>10.9</ele>
        <time>2025-01-19T08:17:53Z</time>
      </trkpt>
      <trkpt lat="43.43638" lon="6.65734">
        <ele>10.9</ele>
        <time>2025-01-19T08:17:54Z</time>
      </trkpt>
      <trkpt lat="43.43637" lon="6.65734">
        <ele>10.9</ele>
        <time>2025-01-19T08:17:55Z</time>
      </trkpt>
      <trkpt lat="43.43637" lon="6.65734">
        <ele>11</ele>
        <time>2025-01-19T08:17:56Z</time>
      </trkpt>
      <trkpt lat="43.43637" lon="6.65734">
        <ele>11.1</ele>
        <time>2025-01-19T08:17:57Z</time>
      </trkpt>
      <trkpt lat="43.43637" lon="6.65734">
        <ele>11.1</ele>
        <time>2025-01-19T08:17:58Z</time>
      </trkpt>
      <trkpt lat="43.43637" lon="6.65734">
        <ele>11.1</ele>
        <time>2025-01-19T08:17:59Z</time>
      </trkpt>
      <trkpt lat="43.43637" lon="6.65734">
        <ele>11.2</ele>
        <time>2025-01-19T08:18:00Z</time>
      </trkpt>
      <trkpt lat="43.43637" lon="6.65734">
        <ele>11.2</ele>
        <time>2025-01-19T08:18:01Z</time>
      </trkpt>
      <trkpt lat="43.43637" lon="6.65734">
        <ele>11.1</ele>
        <time>2025-01-19T08:18:02Z</time>
      </trkpt>
      <trkpt lat="43.43636" lon="6.65734">
        <ele>11</ele>
        <time>2025-01-19T08:18:03Z</time>
      </trkpt>
      <trkpt lat="43.43636" lon="6.65735">
        <ele>11</ele>
        <time>2025-01-19T08:18:04Z</time>
      </trkpt>
      <trkpt lat="43.43636" lon="6.65735">
        <ele>11</ele>
        <time>2025-01-19T08:18:05Z</time>
      </trkpt>
      <trkpt lat="43.43636" lon="6.65735">
        <ele>10.9</ele>
        <time>2025-01-19T08:18:06Z</time>
      </trkpt>
      <trkpt lat="43.43636" lon="6.65735">
        <ele>10.9</ele>
        <time>2025-01-19T08:18:07Z</time>
      </trkpt>
      <trkpt lat="43.43637" lon="6.65735">
        <ele>10.9</ele>
        <time>2025-01-19T08:18:08Z</time>
      </trkpt>
      <trkpt lat="43.43637" lon="6.65735">
        <ele>10.9</ele>
        <time>2025-01-19T08:18:09Z</time>
      </trkpt>
      <trkpt lat="43.43637" lon="6.65735">
        <ele>10.8</ele>
        <time>2025-01-19T08:18:10Z</time>
      </trkpt>
      <trkpt lat="43.43637" lon="6.65735">
        <ele>10.9</ele>
        <time>2025-01-19T08:18:11Z</time>
      </trkpt>
      <trkpt lat="43.43637" lon="6.65735">
        <ele>10.8</ele>
        <time>2025-01-19T08:18:12Z</time>
      </trkpt>
      <trkpt lat="43.43637" lon="6.65735">
        <ele>10.9</ele>
        <time>2025-01-19T08:18:13Z</time>
      </trkpt>
      <trkpt lat="43.43637" lon="6.65735">
        <ele>10.9</ele>
        <time>2025-01-19T08:18:14Z</time>
      </trkpt>
      <trkpt lat="43.43637" lon="6.65735">
        <ele>10.8</ele>
        <time>2025-01-19T08:18:15Z</time>
      </trkpt>
      <trkpt lat="43.43637" lon="6.65735">
        <ele>10.8</ele>
        <time>2025-01-19T08:18:16Z</time>
      </trkpt>
      <trkpt lat="43.43637" lon="6.65735">
        <ele>10.8</ele>
        <time>2025-01-19T08:18:17Z</time>
      </trkpt>
      <trkpt lat="43.43637" lon="6.65736">
        <ele>10.8</ele>
        <time>2025-01-19T08:18:18Z</time>
      </trkpt>
      <trkpt lat="43.43637" lon="6.65736">
        <ele>10.8</ele>
        <time>2025-01-19T08:18:19Z</time>
      </trkpt>
      <trkpt lat="43.43637" lon="6.65736">
        <ele>10.8</ele>
        <time>2025-01-19T08:18:20Z</time>
      </trkpt>
      <trkpt lat="43.43636" lon="6.65736">
        <ele>10.7</ele>
        <time>2025-01-19T08:18:21Z</time>
      </trkpt>
      <trkpt lat="43.43636" lon="6.65737">
        <ele>10.6</ele>
        <time>2025-01-19T08:18:22Z</time>
      </trkpt>
      <trkpt lat="43.43636" lon="6.65737">
        <ele>10.6</ele>
        <time>2025-01-19T08:18:23Z</time>
      </trkpt>
      <trkpt lat="43.43636" lon="6.65737">
        <ele>10.5</ele>
        <time>2025-01-19T08:18:24Z</time>
      </trkpt>
      <trkpt lat="43.43636" lon="6.65737">
        <ele>10.5</ele>
        <time>2025-01-19T08:18:25Z</time>
      </trkpt>
      <trkpt lat="43.43636" lon="6.65737">
        <ele>10.5</ele>
        <time>2025-01-19T08:18:26Z</time>
      </trkpt>
      <trkpt lat="43.43636" lon="6.65737">
        <ele>10.5</ele>
        <time>2025-01-19T08:18:27Z</time>
      </trkpt>
      <trkpt lat="43.43636" lon="6.65738">
        <ele>10.5</ele>
        <time>2025-01-19T08:18:28Z</time>
      </trkpt>
      <trkpt lat="43.43635" lon="6.65737">
        <ele>10.5</ele>
        <time>2025-01-19T08:18:29Z</time>
      </trkpt>
      <trkpt lat="43.43634" lon="6.65736">
        <ele>10.5</ele>
        <time>2025-01-19T08:18:30Z</time>
      </trkpt>
      <trkpt lat="43.43635" lon="6.65736">
        <ele>10.6</ele>
        <time>2025-01-19T08:18:31Z</time>
      </trkpt>
      <trkpt lat="43.43635" lon="6.65736">
        <ele>10.6</ele>
        <time>2025-01-19T08:18:32Z</time>
      </trkpt>
      <trkpt lat="43.43635" lon="6.65736">
        <ele>10.6</ele>
        <time>2025-01-19T08:18:33Z</time>
      </trkpt>
      <trkpt lat="43.43635" lon="6.65736">
        <ele>10.6</ele>
        <time>2025-01-19T08:18:34Z</time>
      </trkpt>
      <trkpt lat="43.43636" lon="6.65736">
        <ele>10.7</ele>
        <time>2025-01-19T08:18:35Z</time>
      </trkpt>
      <trkpt lat="43.43636" lon="6.65736">
        <ele>10.6</ele>
        <time>2025-01-19T08:18:36Z</time>
      </trkpt>
      <trkpt lat="43.43636" lon="6.65736">
        <ele>10.5</ele>
        <time>2025-01-19T08:18:37Z</time>
      </trkpt>
      <trkpt lat="43.43636" lon="6.65735">
        <ele>10.5</ele>
        <time>2025-01-19T08:18:38Z</time>
      </trkpt>
      <trkpt lat="43.43637" lon="6.65735">
        <ele>10.5</ele>
        <time>2025-01-19T08:18:39Z</time>
      </trkpt>
      <trkpt lat="43.43637" lon="6.65735">
        <ele>10.6</ele>
        <time>2025-01-19T08:18:40Z</time>
      </trkpt>
      <trkpt lat="43.43637" lon="6.65735">
        <ele>10.6</ele>
        <time>2025-01-19T08:18:41Z</time>
      </trkpt>
      <trkpt lat="43.43637" lon="6.65735">
        <ele>10.6</ele>
        <time>2025-01-19T08:18:42Z</time>
      </trkpt>
      <trkpt lat="43.43637" lon="6.65735">
        <ele>10.7</ele>
        <time>2025-01-19T08:18:43Z</time>
      </trkpt>
      <trkpt lat="43.43637" lon="6.65736">
        <ele>10.7</ele>
        <time>2025-01-19T08:18:44Z</time>
      </trkpt>
      <trkpt lat="43.43637" lon="6.65736">
        <ele>10.7</ele>
        <time>2025-01-19T08:18:45Z</time>
      </trkpt>
      <trkpt lat="43.43637" lon="6.65735">
        <ele>10.8</ele>
        <time>2025-01-19T08:18:46Z</time>
      </trkpt>
      <trkpt lat="43.43638" lon="6.65735">
        <ele>10.8</ele>
        <time>2025-01-19T08:18:47Z</time>
      </trkpt>
      <trkpt lat="43.43637" lon="6.65735">
        <ele>10.8</ele>
        <time>2025-01-19T08:18:48Z</time>
      </trkpt>
      <trkpt lat="43.43637" lon="6.65735">
        <ele>10.8</ele>
        <time>2025-01-19T08:18:49Z</time>
      </trkpt>
      <trkpt lat="43.43637" lon="6.65735">
        <ele>10.7</ele>
        <time>2025-01-19T08:18:50Z</time>
      </trkpt>
      <trkpt lat="43.43637" lon="6.65735">
        <ele>10.7</ele>
        <time>2025-01-19T08:18:51Z</time>
      </trkpt>
      <trkpt lat="43.43637" lon="6.65735">
        <ele>10.7</ele>
        <time>2025-01-19T08:18:52Z</time>
      </trkpt>
      <trkpt lat="43.43638" lon="6.65735">
        <ele>10.7</ele>
        <time>2025-01-19T08:18:53Z</time>
      </trkpt>
      <trkpt lat="43.43637" lon="6.65735">
        <ele>10.7</ele>
        <time>2025-01-19T08:18:54Z</time>
      </trkpt>
      <trkpt lat="43.43637" lon="6.65735">
        <ele>10.7</ele>
        <time>2025-01-19T08:18:55Z</time>
      </trkpt>
      <trkpt lat="43.43637" lon="6.65736">
        <ele>10.8</ele>
        <time>2025-01-19T08:18:56Z</time>
      </trkpt>
      <trkpt lat="43.43637" lon="6.65736">
        <ele>10.8</ele>
        <time>2025-01-19T08:18:57Z</time>
      </trkpt>
      <trkpt lat="43.43637" lon="6.65735">
        <ele>10.8</ele>
        <time>2025-01-19T08:18:58Z</time>
      </trkpt>
      <trkpt lat="43.43638" lon="6.65735">
        <ele>10.8</ele>
        <time>2025-01-19T08:18:59Z</time>
      </trkpt>
      <trkpt lat="43.43637" lon="6.65735">
        <ele>10.8</ele>
        <time>2025-01-19T08:19:00Z</time>
      </trkpt>
      <trkpt lat="43.43638" lon="6.65735">
        <ele>10.7</ele>
        <time>2025-01-19T08:19:01Z</time>
      </trkpt>
      <trkpt lat="43.43638" lon="6.65735">
        <ele>10.6</ele>
        <time>2025-01-19T08:19:02Z</time>
      </trkpt>
      <trkpt lat="43.43638" lon="6.65735">
        <ele>10.6</ele>
        <time>2025-01-19T08:19:03Z</time>
      </trkpt>
      <trkpt lat="43.43637" lon="6.65735">
        <ele>10.7</ele>
        <time>2025-01-19T08:19:04Z</time>
      </trkpt>
      <trkpt lat="43.43637" lon="6.65735">
        <ele>10.7</ele>
        <time>2025-01-19T08:19:05Z</time>
      </trkpt>
      <trkpt lat="43.43637" lon="6.65736">
        <ele>10.7</ele>
        <time>2025-01-19T08:19:06Z</time>
      </trkpt>
      <trkpt lat="43.43637" lon="6.65736">
        <ele>10.7</ele>
        <time>2025-01-19T08:19:07Z</time>
      </trkpt>
      <trkpt lat="43.43637" lon="6.65736">
        <ele>10.7</ele>
        <time>2025-01-19T08:19:08Z</time>
      </trkpt>
      <trkpt lat="43.43638" lon="6.65736">
        <ele>10.7</ele>
        <time>2025-01-19T08:19:09Z</time>
      </trkpt>
      <trkpt lat="43.43638" lon="6.65736">
        <ele>10.7</ele>
        <time>2025-01-19T08:19:10Z</time>
      </trkpt>
      <trkpt lat="43.43638" lon="6.65736">
        <ele>10.7</ele>
        <time>2025-01-19T08:19:11Z</time>
      </trkpt>
      <trkpt lat="43.43638" lon="6.65735">
        <ele>10.8</ele>
        <time>2025-01-19T08:19:12Z</time>
      </trkpt>
      <trkpt lat="43.43638" lon="6.65735">
        <ele>10.8</ele>
        <time>2025-01-19T08:19:13Z</time>
      </trkpt>
      <trkpt lat="43.43638" lon="6.65735">
        <ele>10.7</ele>
        <time>2025-01-19T08:19:14Z</time>
      </trkpt>
      <trkpt lat="43.43638" lon="6.65735">
        <ele>10.7</ele>
        <time>2025-01-19T08:19:15Z</time>
      </trkpt>
      <trkpt lat="43.43638" lon="6.65735">
        <ele>10.7</ele>
        <time>2025-01-19T08:19:16Z</time>
      </trkpt>
      <trkpt lat="43.43638" lon="6.65735">
        <ele>10.7</ele>
        <time>2025-01-19T08:19:17Z</time>
      </trkpt>
      <trkpt lat="43.43638" lon="6.65735">
        <ele>10.5</ele>
        <time>2025-01-19T08:19:18Z</time>
      </trkpt>
      <trkpt lat="43.43638" lon="6.65735">
        <ele>10.5</ele>
        <time>2025-01-19T08:19:19Z</time>
      </trkpt>
      <trkpt lat="43.43638" lon="6.65734">
        <ele>10.5</ele>
        <time>2025-01-19T08:19:20Z</time>
      </trkpt>
      <trkpt lat="43.43638" lon="6.65734">
        <ele>10.5</ele>
        <time>2025-01-19T08:19:21Z</time>
      </trkpt>
      <trkpt lat="43.43638" lon="6.65734">
        <ele>10.5</ele>
        <time>2025-01-19T08:19:22Z</time>
      </trkpt>
      <trkpt lat="43.43638" lon="6.65734">
        <ele>10.5</ele>
        <time>2025-01-19T08:19:23Z</time>
      </trkpt>
      <trkpt lat="43.43638" lon="6.65734">
        <ele>10.5</ele>
        <time>2025-01-19T08:19:24Z</time>
      </trkpt>
      <trkpt lat="43.43638" lon="6.65734">
        <ele>10.5</ele>
        <time>2025-01-19T08:19:25Z</time>
      </trkpt>
      <trkpt lat="43.43638" lon="6.65734">
        <ele>10.5</ele>
        <time>2025-01-19T08:19:26Z</time>
      </trkpt>
      <trkpt lat="43.43638" lon="6.65733">
        <ele>10.5</ele>
        <time>2025-01-19T08:19:27Z</time>
      </trkpt>
      <trkpt lat="43.43638" lon="6.65733">
        <ele>10.5</ele>
        <time>2025-01-19T08:19:28Z</time>
      </trkpt>
      <trkpt lat="43.43639" lon="6.65732">
        <ele>10.5</ele>
        <time>2025-01-19T08:19:29Z</time>
      </trkpt>
      <trkpt lat="43.43639" lon="6.65733">
        <ele>10.5</ele>
        <time>2025-01-19T08:19:30Z</time>
      </trkpt>
      <trkpt lat="43.43639" lon="6.65732">
        <ele>10.4</ele>
        <time>2025-01-19T08:19:32Z</time>
      </trkpt>
      <trkpt lat="43.43639" lon="6.65732">
        <ele>10.2</ele>
        <time>2025-01-19T08:19:33Z</time>
      </trkpt>
      <trkpt lat="43.43639" lon="6.65732">
        <ele>10.5</ele>
        <time>2025-01-19T08:19:34Z</time>
      </trkpt>
      <trkpt lat="43.43639" lon="6.65732">
        <ele>10.5</ele>
        <time>2025-01-19T08:19:35Z</time>
      </trkpt>
      <trkpt lat="43.43637" lon="6.65733">
        <ele>10.5</ele>
        <time>2025-01-19T08:19:36Z</time>
      </trkpt>
      <trkpt lat="43.43637" lon="6.65734">
        <ele>10.5</ele>
        <time>2025-01-19T08:19:37Z</time>
      </trkpt>
      <trkpt lat="43.43637" lon="6.65734">
        <ele>10.5</ele>
        <time>2025-01-19T08:19:38Z</time>
      </trkpt>
      <trkpt lat="43.43637" lon="6.65733">
        <ele>10.4</ele>
        <time>2025-01-19T08:19:39Z</time>
      </trkpt>
      <trkpt lat="43.43637" lon="6.65733">
        <ele>10.5</ele>
        <time>2025-01-19T08:19:40Z</time>
      </trkpt>
      <trkpt lat="43.43636" lon="6.65733">
        <ele>10.5</ele>
        <time>2025-01-19T08:19:41Z</time>
      </trkpt>
      <trkpt lat="43.43635" lon="6.65733">
        <ele>10.5</ele>
        <time>2025-01-19T08:19:42Z</time>
      </trkpt>
      <trkpt lat="43.43635" lon="6.65732">
        <ele>10.5</ele>
        <time>2025-01-19T08:19:43Z</time>
      </trkpt>
      <trkpt lat="43.43635" lon="6.65731">
        <ele>10.6</ele>
        <time>2025-01-19T08:19:44Z</time>
      </trkpt>
      <trkpt lat="43.43633" lon="6.6573">
        <ele>10.6</ele>
        <time>2025-01-19T08:19:45Z</time>
      </trkpt>
      <trkpt lat="43.43633" lon="6.65729">
        <ele>10.6</ele>
        <time>2025-01-19T08:19:46Z</time>
      </trkpt>
      <trkpt lat="43.43632" lon="6.65729">
        <ele>10.6</ele>
        <time>2025-01-19T08:19:47Z</time>
      </trkpt>
      <trkpt lat="43.43632" lon="6.65728">
        <ele>10.7</ele>
        <time>2025-01-19T08:19:48Z</time>
      </trkpt>
      <trkpt lat="43.43631" lon="6.65728">
        <ele>10.8</ele>
        <time>2025-01-19T08:19:49Z</time>
      </trkpt>
      <trkpt lat="43.43631" lon="6.65727">
        <ele>10.8</ele>
        <time>2025-01-19T08:19:50Z</time>
      </trkpt>
      <trkpt lat="43.43631" lon="6.65727">
        <ele>10.8</ele>
        <time>2025-01-19T08:19:51Z</time>
      </trkpt>
      <trkpt lat="43.4363" lon="6.65726">
        <ele>10.8</ele>
        <time>2025-01-19T08:19:52Z</time>
      </trkpt>
      <trkpt lat="43.4363" lon="6.65726">
        <ele>10.8</ele>
        <time>2025-01-19T08:19:53Z</time>
      </trkpt>
      <trkpt lat="43.4363" lon="6.65726">
        <ele>10.9</ele>
        <time>2025-01-19T08:19:54Z</time>
      </trkpt>
      <trkpt lat="43.4363" lon="6.65726">
        <ele>10.9</ele>
        <time>2025-01-19T08:19:55Z</time>
      </trkpt>
      <trkpt lat="43.4363" lon="6.65726">
        <ele>10.8</ele>
        <time>2025-01-19T08:19:56Z</time>
      </trkpt>
      <trkpt lat="43.4363" lon="6.65726">
        <ele>10.8</ele>
        <time>2025-01-19T08:19:57Z</time>
      </trkpt>
      <trkpt lat="43.4363" lon="6.65726">
        <ele>10.9</ele>
        <time>2025-01-19T08:19:58Z</time>
      </trkpt>
      <trkpt lat="43.43629" lon="6.65726">
        <ele>11</ele>
        <time>2025-01-19T08:19:59Z</time>
      </trkpt>
      <trkpt lat="43.43628" lon="6.65726">
        <ele>11.1</ele>
        <time>2025-01-19T08:20:00Z</time>
      </trkpt>
      <trkpt lat="43.43628" lon="6.65725">
        <ele>11.2</ele>
        <time>2025-01-19T08:20:01Z</time>
      </trkpt>
      <trkpt lat="43.43628" lon="6.65725">
        <ele>11.2</ele>
        <time>2025-01-19T08:20:02Z</time>
      </trkpt>
      <trkpt lat="43.43628" lon="6.65725">
        <ele>11.2</ele>
        <time>2025-01-19T08:20:03Z</time>
      </trkpt>
      <trkpt lat="43.43628" lon="6.65725">
        <ele>11.2</ele>
        <time>2025-01-19T08:20:04Z</time>
      </trkpt>
      <trkpt lat="43.43628" lon="6.65725">
        <ele>11.1</ele>
        <time>2025-01-19T08:20:05Z</time>
      </trkpt>
      <trkpt lat="43.43628" lon="6.65724">
        <ele>11.2</ele>
        <time>2025-01-19T08:20:06Z</time>
      </trkpt>
      <trkpt lat="43.43628" lon="6.65724">
        <ele>11.2</ele>
        <time>2025-01-19T08:20:07Z</time>
      </trkpt>
      <trkpt lat="43.43628" lon="6.65724">
        <ele>11.2</ele>
        <time>2025-01-19T08:20:08Z</time>
      </trkpt>
      <trkpt lat="43.43628" lon="6.65724">
        <ele>11.2</ele>
        <time>2025-01-19T08:20:09Z</time>
      </trkpt>
      <trkpt lat="43.43628" lon="6.65724">
        <ele>11</ele>
        <time>2025-01-19T08:20:10Z</time>
      </trkpt>
      <trkpt lat="43.43628" lon="6.65724">
        <ele>11</ele>
        <time>2025-01-19T08:20:11Z</time>
      </trkpt>
      <trkpt lat="43.43628" lon="6.65724">
        <ele>11</ele>
        <time>2025-01-19T08:20:12Z</time>
      </trkpt>
      <trkpt lat="43.43628" lon="6.65724">
        <ele>11</ele>
        <time>2025-01-19T08:20:13Z</time>
      </trkpt>
      <trkpt lat="43.43628" lon="6.65724">
        <ele>11</ele>
        <time>2025-01-19T08:20:14Z</time>
      </trkpt>
      <trkpt lat="43.43628" lon="6.65724">
        <ele>11</ele>
        <time>2025-01-19T08:20:15Z</time>
      </trkpt>
      <trkpt lat="43.43628" lon="6.65724">
        <ele>11</ele>
        <time>2025-01-19T08:20:16Z</time>
      </trkpt>
      <trkpt lat="43.43628" lon="6.65725">
        <ele>11</ele>
        <time>2025-01-19T08:20:17Z</time>
      </trkpt>
      <trkpt lat="43.43628" lon="6.65725">
        <ele>11</ele>
        <time>2025-01-19T08:20:18Z</time>
      </trkpt>
      <trkpt lat="43.43628" lon="6.65725">
        <ele>11.1</ele>
        <time>2025-01-19T08:20:19Z</time>
      </trkpt>
      <trkpt lat="43.43628" lon="6.65725">
        <ele>11.1</ele>
        <time>2025-01-19T08:20:20Z</time>
      </trkpt>
      <trkpt lat="43.43628" lon="6.65725">
        <ele>11.1</ele>
        <time>2025-01-19T08:20:21Z</time>
      </trkpt>
      <trkpt lat="43.43628" lon="6.65725">
        <ele>11</ele>
        <time>2025-01-19T08:20:22Z</time>
      </trkpt>
      <trkpt lat="43.43628" lon="6.65725">
        <ele>11</ele>
        <time>2025-01-19T08:20:23Z</time>
      </trkpt>
      <trkpt lat="43.43628" lon="6.65725">
        <ele>10.9</ele>
        <time>2025-01-19T08:20:24Z</time>
      </trkpt>
      <trkpt lat="43.43628" lon="6.65725">
        <ele>10.9</ele>
        <time>2025-01-19T08:20:25Z</time>
      </trkpt>
      <trkpt lat="43.43628" lon="6.65725">
        <ele>10.9</ele>
        <time>2025-01-19T08:20:26Z</time>
      </trkpt>
      <trkpt lat="43.43628" lon="6.65725">
        <ele>10.8</ele>
        <time>2025-01-19T08:20:27Z</time>
      </trkpt>
      <trkpt lat="43.43628" lon="6.65725">
        <ele>10.8</ele>
        <time>2025-01-19T08:20:28Z</time>
      </trkpt>
      <trkpt lat="43.43628" lon="6.65725">
        <ele>10.8</ele>
        <time>2025-01-19T08:20:29Z</time>
      </trkpt>
      <trkpt lat="43.43628" lon="6.65725">
        <ele>10.8</ele>
        <time>2025-01-19T08:20:30Z</time>
      </trkpt>
      <trkpt lat="43.43628" lon="6.65725">
        <ele>10.9</ele>
        <time>2025-01-19T08:20:31Z</time>
      </trkpt>
      <trkpt lat="43.43628" lon="6.65725">
        <ele>10.9</ele>
        <time>2025-01-19T08:20:32Z</time>
      </trkpt>
      <trkpt lat="43.43628" lon="6.65724">
        <ele>10.9</ele>
        <time>2025-01-19T08:20:33Z</time>
      </trkpt>
      <trkpt lat="43.43627" lon="6.65724">
        <ele>10.9</ele>
        <time>2025-01-19T08:20:34Z</time>
      </trkpt>
      <trkpt lat="43.43627" lon="6.65725">
        <ele>10.8</ele>
        <time>2025-01-19T08:20:35Z</time>
      </trkpt>
      <trkpt lat="43.43627" lon="6.65724">
        <ele>10.8</ele>
        <time>2025-01-19T08:20:36Z</time>
      </trkpt>
      <trkpt lat="43.43627" lon="6.65724">
        <ele>10.8</ele>
        <time>2025-01-19T08:20:37Z</time>
      </trkpt>
      <trkpt lat="43.43627" lon="6.65724">
        <ele>10.8</ele>
        <time>2025-01-19T08:20:38Z</time>
      </trkpt>
      <trkpt lat="43.43627" lon="6.65724">
        <ele>10.8</ele>
        <time>2025-01-19T08:20:39Z</time>
      </trkpt>
      <trkpt lat="43.43628" lon="6.65724">
        <ele>10.7</ele>
        <time>2025-01-19T08:20:40Z</time>
      </trkpt>
      <trkpt lat="43.43628" lon="6.65724">
        <ele>10.7</ele>
        <time>2025-01-19T08:20:41Z</time>
      </trkpt>
      <trkpt lat="43.43628" lon="6.65724">
        <ele>10.7</ele>
        <time>2025-01-19T08:20:42Z</time>
      </trkpt>
      <trkpt lat="43.43628" lon="6.65725">
        <ele>10.7</ele>
        <time>2025-01-19T08:20:43Z</time>
      </trkpt>
      <trkpt lat="43.43628" lon="6.65725">
        <ele>10.6</ele>
        <time>2025-01-19T08:20:44Z</time>
      </trkpt>
      <trkpt lat="43.43628" lon="6.65725">
        <ele>10.7</ele>
        <time>2025-01-19T08:20:45Z</time>
      </trkpt>
      <trkpt lat="43.43627" lon="6.65724">
        <ele>10.7</ele>
        <time>2025-01-19T08:20:46Z</time>
      </trkpt>
      <trkpt lat="43.43627" lon="6.65724">
        <ele>10.6</ele>
        <time>2025-01-19T08:20:47Z</time>
      </trkpt>
      <trkpt lat="43.43626" lon="6.65724">
        <ele>10.6</ele>
        <time>2025-01-19T08:20:48Z</time>
      </trkpt>
      <trkpt lat="43.43626" lon="6.65724">
        <ele>10.7</ele>
        <time>2025-01-19T08:20:49Z</time>
      </trkpt>
      <trkpt lat="43.43625" lon="6.65723">
        <ele>10.8</ele>
        <time>2025-01-19T08:20:50Z</time>
      </trkpt>
      <trkpt lat="43.43624" lon="6.65723">
        <ele>10.8</ele>
        <time>2025-01-19T08:20:51Z</time>
      </trkpt>
      <trkpt lat="43.43623" lon="6.65724">
        <ele>10.8</ele>
        <time>2025-01-19T08:20:52Z</time>
      </trkpt>
      <trkpt lat="43.43623" lon="6.65724">
        <ele>10.8</ele>
        <time>2025-01-19T08:20:53Z</time>
      </trkpt>
      <trkpt lat="43.43622" lon="6.65724">
        <ele>10.7</ele>
        <time>2025-01-19T08:20:54Z</time>
      </trkpt>
      <trkpt lat="43.43621" lon="6.65724">
        <ele>10.7</ele>
        <time>2025-01-19T08:20:55Z</time>
      </trkpt>
      <trkpt lat="43.43621" lon="6.65724">
        <ele>10.8</ele>
        <time>2025-01-19T08:20:56Z</time>
      </trkpt>
      <trkpt lat="43.4362" lon="6.65725">
        <ele>10.9</ele>
        <time>2025-01-19T08:20:57Z</time>
      </trkpt>
      <trkpt lat="43.43619" lon="6.65725">
        <ele>11</ele>
        <time>2025-01-19T08:20:58Z</time>
      </trkpt>
      <trkpt lat="43.43619" lon="6.65725">
        <ele>11</ele>
        <time>2025-01-19T08:20:59Z</time>
      </trkpt>
      <trkpt lat="43.43618" lon="6.65726">
        <ele>11.2</ele>
        <time>2025-01-19T08:21:00Z</time>
      </trkpt>
      <trkpt lat="43.43618" lon="6.65727">
        <ele>11.3</ele>
        <time>2025-01-19T08:21:01Z</time>
      </trkpt>
      <trkpt lat="43.43617" lon="6.65728">
        <ele>11.3</ele>
        <time>2025-01-19T08:21:02Z</time>
      </trkpt>
      <trkpt lat="43.43616" lon="6.65728">
        <ele>11.3</ele>
        <time>2025-01-19T08:21:03Z</time>
      </trkpt>
      <trkpt lat="43.43616" lon="6.65729">
        <ele>11.4</ele>
        <time>2025-01-19T08:21:04Z</time>
      </trkpt>
      <trkpt lat="43.43615" lon="6.6573">
        <ele>11.4</ele>
        <time>2025-01-19T08:21:05Z</time>
      </trkpt>
      <trkpt lat="43.43614" lon="6.65731">
        <ele>11.4</ele>
        <time>2025-01-19T08:21:06Z</time>
      </trkpt>
      <trkpt lat="43.43614" lon="6.65732">
        <ele>11.4</ele>
        <time>2025-01-19T08:21:07Z</time>
      </trkpt>
      <trkpt lat="43.43613" lon="6.65733">
        <ele>11.4</ele>
        <time>2025-01-19T08:21:08Z</time>
      </trkpt>
      <trkpt lat="43.43612" lon="6.65733">
        <ele>11.4</ele>
        <time>2025-01-19T08:21:09Z</time>
      </trkpt>
      <trkpt lat="43.43612" lon="6.65734">
        <ele>11.4</ele>
        <time>2025-01-19T08:21:10Z</time>
      </trkpt>
      <trkpt lat="43.43611" lon="6.65735">
        <ele>11.4</ele>
        <time>2025-01-19T08:21:11Z</time>
      </trkpt>
      <trkpt lat="43.4361" lon="6.65736">
        <ele>11.4</ele>
        <time>2025-01-19T08:21:12Z</time>
      </trkpt>
      <trkpt lat="43.4361" lon="6.65737">
        <ele>11.4</ele>
        <time>2025-01-19T08:21:13Z</time>
      </trkpt>
      <trkpt lat="43.43609" lon="6.65737">
        <ele>11.3</ele>
        <time>2025-01-19T08:21:14Z</time>
      </trkpt>
      <trkpt lat="43.43608" lon="6.65738">
        <ele>11.2</ele>
        <time>2025-01-19T08:21:15Z</time>
      </trkpt>
      <trkpt lat="43.43607" lon="6.65739">
        <ele>11.1</ele>
        <time>2025-01-19T08:21:16Z</time>
      </trkpt>
      <trkpt lat="43.43607" lon="6.65739">
        <ele>11.1</ele>
        <time>2025-01-19T08:21:17Z</time>
      </trkpt>
      <trkpt lat="43.43606" lon="6.65741">
        <ele>10.9</ele>
        <time>2025-01-19T08:21:18Z</time>
      </trkpt>
      <trkpt lat="43.43606" lon="6.65742">
        <ele>10.9</ele>
        <time>2025-01-19T08:21:19Z</time>
      </trkpt>
      <trkpt lat="43.43605" lon="6.65743">
        <ele>10.8</ele>
        <time>2025-01-19T08:21:20Z</time>
      </trkpt>
      <trkpt lat="43.43604" lon="6.65744">
        <ele>10.8</ele>
        <time>2025-01-19T08:21:21Z</time>
      </trkpt>
      <trkpt lat="43.43603" lon="6.65745">
        <ele>10.7</ele>
        <time>2025-01-19T08:21:22Z</time>
      </trkpt>
      <trkpt lat="43.43603" lon="6.65746">
        <ele>10.8</ele>
        <time>2025-01-19T08:21:23Z</time>
      </trkpt>
      <trkpt lat="43.43602" lon="6.65747">
        <ele>10.7</ele>
        <time>2025-01-19T08:21:24Z</time>
      </trkpt>
      <trkpt lat="43.43601" lon="6.65747">
        <ele>10.6</ele>
        <time>2025-01-19T08:21:25Z</time>
      </trkpt>
      <trkpt lat="43.436" lon="6.65749">
        <ele>10.6</ele>
        <time>2025-01-19T08:21:26Z</time>
      </trkpt>
      <trkpt lat="43.43599" lon="6.65749">
        <ele>10.6</ele>
        <time>2025-01-19T08:21:27Z</time>
      </trkpt>
      <trkpt lat="43.43598" lon="6.65751">
        <ele>10.6</ele>
        <time>2025-01-19T08:21:28Z</time>
      </trkpt>
      <trkpt lat="43.43597" lon="6.65752">
        <ele>10.4</ele>
        <time>2025-01-19T08:21:29Z</time>
      </trkpt>
      <trkpt lat="43.43596" lon="6.65753">
        <ele>10.3</ele>
        <time>2025-01-19T08:21:30Z</time>
      </trkpt>
      <trkpt lat="43.43595" lon="6.65754">
        <ele>10.2</ele>
        <time>2025-01-19T08:21:31Z</time>
      </trkpt>
      <trkpt lat="43.43595" lon="6.65756">
        <ele>10.1</ele>
        <time>2025-01-19T08:21:32Z</time>
      </trkpt>
      <trkpt lat="43.43594" lon="6.65757">
        <ele>10</ele>
        <time>2025-01-19T08:21:33Z</time>
      </trkpt>
      <trkpt lat="43.43593" lon="6.65758">
        <ele>9.9</ele>
        <time>2025-01-19T08:21:34Z</time>
      </trkpt>
      <trkpt lat="43.43593" lon="6.6576">
        <ele>9.9</ele>
        <time>2025-01-19T08:21:35Z</time>
      </trkpt>
      <trkpt lat="43.43592" lon="6.65761">
        <ele>9.8</ele>
        <time>2025-01-19T08:21:36Z</time>
      </trkpt>
      <trkpt lat="43.43592" lon="6.65762">
        <ele>9.8</ele>
        <time>2025-01-19T08:21:37Z</time>
      </trkpt>
      <trkpt lat="43.43591" lon="6.65763">
        <ele>9.8</ele>
        <time>2025-01-19T08:21:38Z</time>
      </trkpt>
      <trkpt lat="43.4359" lon="6.65764">
        <ele>9.6</ele>
        <time>2025-01-19T08:21:39Z</time>
      </trkpt>
      <trkpt lat="43.43589" lon="6.65766">
        <ele>9.5</ele>
        <time>2025-01-19T08:21:40Z</time>
      </trkpt>
      <trkpt lat="43.43589" lon="6.65767">
        <ele>9.4</ele>
        <time>2025-01-19T08:21:41Z</time>
      </trkpt>
      <trkpt lat="43.43588" lon="6.65768">
        <ele>9.2</ele>
        <time>2025-01-19T08:21:42Z</time>
      </trkpt>
      <trkpt lat="43.43588" lon="6.65768">
        <ele>9.2</ele>
        <time>2025-01-19T08:21:43Z</time>
      </trkpt>
      <trkpt lat="43.43587" lon="6.65769">
        <ele>9.1</ele>
        <time>2025-01-19T08:21:44Z</time>
      </trkpt>
      <trkpt lat="43.43586" lon="6.6577">
        <ele>9</ele>
        <time>2025-01-19T08:21:45Z</time>
      </trkpt>
      <trkpt lat="43.43585" lon="6.65771">
        <ele>9</ele>
        <time>2025-01-19T08:21:46Z</time>
      </trkpt>
      <trkpt lat="43.43585" lon="6.65771">
        <ele>8.9</ele>
        <time>2025-01-19T08:21:47Z</time>
      </trkpt>
      <trkpt lat="43.43584" lon="6.65772">
        <ele>8.8</ele>
        <time>2025-01-19T08:21:48Z</time>
      </trkpt>
      <trkpt lat="43.43583" lon="6.65772">
        <ele>8.7</ele>
        <time>2025-01-19T08:21:49Z</time>
      </trkpt>
      <trkpt lat="43.43583" lon="6.65773">
        <ele>8.6</ele>
        <time>2025-01-19T08:21:50Z</time>
      </trkpt>
      <trkpt lat="43.43582" lon="6.65775">
        <ele>8.6</ele>
        <time>2025-01-19T08:21:51Z</time>
      </trkpt>
      <trkpt lat="43.43581" lon="6.65776">
        <ele>8.5</ele>
        <time>2025-01-19T08:21:52Z</time>
      </trkpt>
      <trkpt lat="43.43581" lon="6.65777">
        <ele>8.5</ele>
        <time>2025-01-19T08:21:53Z</time>
      </trkpt>
      <trkpt lat="43.4358" lon="6.65778">
        <ele>8.5</ele>
        <time>2025-01-19T08:21:54Z</time>
      </trkpt>
      <trkpt lat="43.43579" lon="6.65779">
        <ele>8.4</ele>
        <time>2025-01-19T08:21:55Z</time>
      </trkpt>
      <trkpt lat="43.43578" lon="6.65781">
        <ele>8.4</ele>
        <time>2025-01-19T08:21:56Z</time>
      </trkpt>
      <trkpt lat="43.43577" lon="6.65782">
        <ele>8.4</ele>
        <time>2025-01-19T08:21:57Z</time>
      </trkpt>
      <trkpt lat="43.43577" lon="6.65783">
        <ele>8.3</ele>
        <time>2025-01-19T08:21:58Z</time>
      </trkpt>
      <trkpt lat="43.43576" lon="6.65784">
        <ele>8.3</ele>
        <time>2025-01-19T08:21:59Z</time>
      </trkpt>
      <trkpt lat="43.43576" lon="6.65785">
        <ele>8.3</ele>
        <time>2025-01-19T08:22:00Z</time>
      </trkpt>
      <trkpt lat="43.43576" lon="6.65786">
        <ele>8.3</ele>
        <time>2025-01-19T08:22:01Z</time>
      </trkpt>
      <trkpt lat="43.43575" lon="6.65787">
        <ele>8.2</ele>
        <time>2025-01-19T08:22:02Z</time>
      </trkpt>
      <trkpt lat="43.43575" lon="6.65788">
        <ele>8.2</ele>
        <time>2025-01-19T08:22:03Z</time>
      </trkpt>
      <trkpt lat="43.43574" lon="6.65789">
        <ele>8</ele>
        <time>2025-01-19T08:22:04Z</time>
      </trkpt>
      <trkpt lat="43.43572" lon="6.65789">
        <ele>8</ele>
        <time>2025-01-19T08:22:05Z</time>
      </trkpt>
      <trkpt lat="43.43571" lon="6.65789">
        <ele>8</ele>
        <time>2025-01-19T08:22:06Z</time>
      </trkpt>
      <trkpt lat="43.4357" lon="6.65789">
        <ele>7.8</ele>
        <time>2025-01-19T08:22:07Z</time>
      </trkpt>
      <trkpt lat="43.43569" lon="6.6579">
        <ele>7.8</ele>
        <time>2025-01-19T08:22:08Z</time>
      </trkpt>
      <trkpt lat="43.43568" lon="6.6579">
        <ele>7.8</ele>
        <time>2025-01-19T08:22:09Z</time>
      </trkpt>
      <trkpt lat="43.43567" lon="6.65791">
        <ele>7.8</ele>
        <time>2025-01-19T08:22:10Z</time>
      </trkpt>
      <trkpt lat="43.43566" lon="6.65792">
        <ele>7.9</ele>
        <time>2025-01-19T08:22:11Z</time>
      </trkpt>
      <trkpt lat="43.43565" lon="6.65793">
        <ele>8</ele>
        <time>2025-01-19T08:22:12Z</time>
      </trkpt>
      <trkpt lat="43.43564" lon="6.65794">
        <ele>8</ele>
        <time>2025-01-19T08:22:13Z</time>
      </trkpt>
      <trkpt lat="43.43563" lon="6.65795">
        <ele>8</ele>
        <time>2025-01-19T08:22:14Z</time>
      </trkpt>
      <trkpt lat="43.43562" lon="6.65796">
        <ele>8.1</ele>
        <time>2025-01-19T08:22:15Z</time>
      </trkpt>
      <trkpt lat="43.43562" lon="6.65798">
        <ele>8.2</ele>
        <time>2025-01-19T08:22:16Z</time>
      </trkpt>
      <trkpt lat="43.43561" lon="6.65799">
        <ele>8.2</ele>
        <time>2025-01-19T08:22:17Z</time>
      </trkpt>
      <trkpt lat="43.4356" lon="6.658">
        <ele>8.3</ele>
        <time>2025-01-19T08:22:18Z</time>
      </trkpt>
      <trkpt lat="43.43559" lon="6.658">
        <ele>8.3</ele>
        <time>2025-01-19T08:22:19Z</time>
      </trkpt>
      <trkpt lat="43.43558" lon="6.65801">
        <ele>8.3</ele>
        <time>2025-01-19T08:22:20Z</time>
      </trkpt>
      <trkpt lat="43.43557" lon="6.65802">
        <ele>8.4</ele>
        <time>2025-01-19T08:22:21Z</time>
      </trkpt>
      <trkpt lat="43.43557" lon="6.65803">
        <ele>8.4</ele>
        <time>2025-01-19T08:22:22Z</time>
      </trkpt>
      <trkpt lat="43.43555" lon="6.65804">
        <ele>8.4</ele>
        <time>2025-01-19T08:22:23Z</time>
      </trkpt>
      <trkpt lat="43.43554" lon="6.65804">
        <ele>8.6</ele>
        <time>2025-01-19T08:22:24Z</time>
      </trkpt>
      <trkpt lat="43.43553" lon="6.65805">
        <ele>8.7</ele>
        <time>2025-01-19T08:22:25Z</time>
      </trkpt>
      <trkpt lat="43.43553" lon="6.65805">
        <ele>8.8</ele>
        <time>2025-01-19T08:22:26Z</time>
      </trkpt>
      <trkpt lat="43.43552" lon="6.65805">
        <ele>8.9</ele>
        <time>2025-01-19T08:22:27Z</time>
      </trkpt>
      <trkpt lat="43.43551" lon="6.65806">
        <ele>9</ele>
        <time>2025-01-19T08:22:28Z</time>
      </trkpt>
      <trkpt lat="43.4355" lon="6.65806">
        <ele>9.1</ele>
        <time>2025-01-19T08:22:29Z</time>
      </trkpt>
      <trkpt lat="43.4355" lon="6.65807">
        <ele>9.2</ele>
        <time>2025-01-19T08:22:30Z</time>
      </trkpt>
      <trkpt lat="43.43549" lon="6.65807">
        <ele>9.2</ele>
        <time>2025-01-19T08:22:31Z</time>
      </trkpt>
      <trkpt lat="43.43549" lon="6.65807">
        <ele>9.3</ele>
        <time>2025-01-19T08:22:32Z</time>
      </trkpt>
      <trkpt lat="43.43549" lon="6.65807">
        <ele>9.3</ele>
        <time>2025-01-19T08:22:33Z</time>
      </trkpt>
      <trkpt lat="43.43549" lon="6.65808">
        <ele>9.4</ele>
        <time>2025-01-19T08:22:34Z</time>
      </trkpt>
      <trkpt lat="43.43549" lon="6.65808">
        <ele>9.4</ele>
        <time>2025-01-19T08:22:35Z</time>
      </trkpt>
      <trkpt lat="43.43549" lon="6.65808">
        <ele>9.5</ele>
        <time>2025-01-19T08:22:36Z</time>
      </trkpt>
      <trkpt lat="43.43549" lon="6.65808">
        <ele>9.6</ele>
        <time>2025-01-19T08:22:37Z</time>
      </trkpt>
      <trkpt lat="43.4355" lon="6.65808">
        <ele>9.6</ele>
        <time>2025-01-19T08:22:38Z</time>
      </trkpt>
      <trkpt lat="43.43549" lon="6.65808">
        <ele>9.6</ele>
        <time>2025-01-19T08:22:39Z</time>
      </trkpt>
      <trkpt lat="43.43549" lon="6.65808">
        <ele>9.5</ele>
        <time>2025-01-19T08:22:40Z</time>
      </trkpt>
      <trkpt lat="43.4355" lon="6.65808">
        <ele>9.5</ele>
        <time>2025-01-19T08:22:41Z</time>
      </trkpt>
      <trkpt lat="43.43549" lon="6.65808">
        <ele>9.4</ele>
        <time>2025-01-19T08:22:42Z</time>
      </trkpt>
      <trkpt lat="43.43549" lon="6.65808">
        <ele>9.4</ele>
        <time>2025-01-19T08:22:43Z</time>
      </trkpt>
      <trkpt lat="43.43549" lon="6.65808">
        <ele>9.4</ele>
        <time>2025-01-19T08:22:44Z</time>
      </trkpt>
      <trkpt lat="43.43549" lon="6.65808">
        <ele>9.4</ele>
        <time>2025-01-19T08:22:45Z</time>
      </trkpt>
      <trkpt lat="43.43549" lon="6.65808">
        <ele>9.4</ele>
        <time>2025-01-19T08:22:46Z</time>
      </trkpt>
      <trkpt lat="43.43549" lon="6.65808">
        <ele>9.5</ele>
        <time>2025-01-19T08:22:47Z</time>
      </trkpt>
      <trkpt lat="43.43549" lon="6.65808">
        <ele>9.5</ele>
        <time>2025-01-19T08:22:48Z</time>
      </trkpt>
      <trkpt lat="43.43549" lon="6.65808">
        <ele>9.5</ele>
        <time>2025-01-19T08:22:49Z</time>
      </trkpt>
      <trkpt lat="43.43549" lon="6.65808">
        <ele>9.6</ele>
        <time>2025-01-19T08:22:50Z</time>
      </trkpt>
      <trkpt lat="43.43549" lon="6.65808">
        <ele>9.6</ele>
        <time>2025-01-19T08:22:51Z</time>
      </trkpt>
      <trkpt lat="43.43549" lon="6.65809">
        <ele>9.5</ele>
        <time>2025-01-19T08:22:52Z</time>
      </trkpt>
      <trkpt lat="43.43549" lon="6.6581">
        <ele>9.4</ele>
        <time>2025-01-19T08:22:53Z</time>
      </trkpt>
      <trkpt lat="43.43549" lon="6.6581">
        <ele>9.4</ele>
        <time>2025-01-19T08:22:54Z</time>
      </trkpt>
      <trkpt lat="43.43549" lon="6.6581">
        <ele>9.4</ele>
        <time>2025-01-19T08:22:55Z</time>
      </trkpt>
      <trkpt lat="43.43548" lon="6.6581">
        <ele>9.4</ele>
        <time>2025-01-19T08:22:56Z</time>
      </trkpt>
      <trkpt lat="43.43548" lon="6.65811">
        <ele>9.4</ele>
        <time>2025-01-19T08:22:57Z</time>
      </trkpt>
      <trkpt lat="43.43549" lon="6.65811">
        <ele>9.4</ele>
        <time>2025-01-19T08:22:58Z</time>
      </trkpt>
      <trkpt lat="43.43549" lon="6.65812">
        <ele>9.4</ele>
        <time>2025-01-19T08:22:59Z</time>
      </trkpt>
      <trkpt lat="43.4355" lon="6.65812">
        <ele>9.4</ele>
        <time>2025-01-19T08:23:00Z</time>
      </trkpt>
      <trkpt lat="43.4355" lon="6.65811">
        <ele>9.5</ele>
        <time>2025-01-19T08:23:01Z</time>
      </trkpt>
      <trkpt lat="43.4355" lon="6.65811">
        <ele>9.5</ele>
        <time>2025-01-19T08:23:02Z</time>
      </trkpt>
      <trkpt lat="43.4355" lon="6.65811">
        <ele>9.5</ele>
        <time>2025-01-19T08:23:03Z</time>
      </trkpt>
      <trkpt lat="43.4355" lon="6.65812">
        <ele>9.5</ele>
        <time>2025-01-19T08:23:04Z</time>
      </trkpt>
      <trkpt lat="43.4355" lon="6.65812">
        <ele>9.5</ele>
        <time>2025-01-19T08:23:05Z</time>
      </trkpt>
      <trkpt lat="43.43551" lon="6.65813">
        <ele>9.4</ele>
        <time>2025-01-19T08:23:06Z</time>
      </trkpt>
      <trkpt lat="43.43551" lon="6.65814">
        <ele>9.4</ele>
        <time>2025-01-19T08:23:07Z</time>
      </trkpt>
      <trkpt lat="43.43552" lon="6.65815">
        <ele>9.4</ele>
        <time>2025-01-19T08:23:08Z</time>
      </trkpt>
      <trkpt lat="43.43553" lon="6.65817">
        <ele>9.5</ele>
        <time>2025-01-19T08:23:09Z</time>
      </trkpt>
      <trkpt lat="43.43553" lon="6.65818">
        <ele>9.4</ele>
        <time>2025-01-19T08:23:10Z</time>
      </trkpt>
      <trkpt lat="43.43554" lon="6.65818">
        <ele>9.4</ele>
        <time>2025-01-19T08:23:11Z</time>
      </trkpt>
      <trkpt lat="43.43554" lon="6.65819">
        <ele>9.4</ele>
        <time>2025-01-19T08:23:12Z</time>
      </trkpt>
      <trkpt lat="43.43554" lon="6.6582">
        <ele>9.4</ele>
        <time>2025-01-19T08:23:13Z</time>
      </trkpt>
      <trkpt lat="43.43554" lon="6.65821">
        <ele>9.3</ele>
        <time>2025-01-19T08:23:14Z</time>
      </trkpt>
      <trkpt lat="43.43555" lon="6.65822">
        <ele>9.3</ele>
        <time>2025-01-19T08:23:15Z</time>
      </trkpt>
      <trkpt lat="43.43555" lon="6.65821">
        <ele>9.3</ele>
        <time>2025-01-19T08:23:16Z</time>
      </trkpt>
      <trkpt lat="43.43555" lon="6.65822">
        <ele>9.3</ele>
        <time>2025-01-19T08:23:17Z</time>
      </trkpt>
      <trkpt lat="43.43556" lon="6.65821">
        <ele>9.3</ele>
        <time>2025-01-19T08:23:18Z</time>
      </trkpt>
      <trkpt lat="43.43556" lon="6.65821">
        <ele>9.3</ele>
        <time>2025-01-19T08:23:19Z</time>
      </trkpt>
      <trkpt lat="43.43556" lon="6.65821">
        <ele>9.3</ele>
        <time>2025-01-19T08:23:20Z</time>
      </trkpt>
      <trkpt lat="43.43556" lon="6.6582">
        <ele>9.3</ele>
        <time>2025-01-19T08:23:21Z</time>
      </trkpt>
      <trkpt lat="43.43556" lon="6.65821">
        <ele>9.3</ele>
        <time>2025-01-19T08:23:22Z</time>
      </trkpt>
      <trkpt lat="43.43556" lon="6.65822">
        <ele>9.3</ele>
        <time>2025-01-19T08:23:23Z</time>
      </trkpt>
      <trkpt lat="43.43557" lon="6.65824">
        <ele>9.4</ele>
        <time>2025-01-19T08:23:24Z</time>
      </trkpt>
      <trkpt lat="43.43557" lon="6.65825">
        <ele>9.4</ele>
        <time>2025-01-19T08:23:25Z</time>
      </trkpt>
      <trkpt lat="43.43558" lon="6.65826">
        <ele>9.4</ele>
        <time>2025-01-19T08:23:26Z</time>
      </trkpt>
      <trkpt lat="43.43559" lon="6.65827">
        <ele>9.4</ele>
        <time>2025-01-19T08:23:27Z</time>
      </trkpt>
      <trkpt lat="43.43559" lon="6.65828">
        <ele>9.4</ele>
        <time>2025-01-19T08:23:28Z</time>
      </trkpt>
      <trkpt lat="43.43559" lon="6.65829">
        <ele>9.4</ele>
        <time>2025-01-19T08:23:29Z</time>
      </trkpt>
      <trkpt lat="43.43559" lon="6.6583">
        <ele>9.4</ele>
        <time>2025-01-19T08:23:30Z</time>
      </trkpt>
      <trkpt lat="43.43559" lon="6.65831">
        <ele>9.4</ele>
        <time>2025-01-19T08:23:31Z</time>
      </trkpt>
      <trkpt lat="43.43559" lon="6.65832">
        <ele>9.4</ele>
        <time>2025-01-19T08:23:32Z</time>
      </trkpt>
      <trkpt lat="43.43559" lon="6.65832">
        <ele>9.4</ele>
        <time>2025-01-19T08:23:33Z</time>
      </trkpt>
      <trkpt lat="43.43559" lon="6.65832">
        <ele>9.4</ele>
        <time>2025-01-19T08:23:34Z</time>
      </trkpt>
      <trkpt lat="43.43559" lon="6.65833">
        <ele>9.5</ele>
        <time>2025-01-19T08:23:35Z</time>
      </trkpt>
      <trkpt lat="43.43559" lon="6.65833">
        <ele>9.5</ele>
        <time>2025-01-19T08:23:36Z</time>
      </trkpt>
      <trkpt lat="43.43559" lon="6.65832">
        <ele>9.6</ele>
        <time>2025-01-19T08:23:37Z</time>
      </trkpt>
      <trkpt lat="43.43559" lon="6.65832">
        <ele>9.6</ele>
        <time>2025-01-19T08:23:38Z</time>
      </trkpt>
      <trkpt lat="43.43559" lon="6.65831">
        <ele>9.6</ele>
        <time>2025-01-19T08:23:39Z</time>
      </trkpt>
      <trkpt lat="43.43558" lon="6.65831">
        <ele>9.6</ele>
        <time>2025-01-19T08:23:40Z</time>
      </trkpt>
      <trkpt lat="43.43558" lon="6.65831">
        <ele>9.6</ele>
        <time>2025-01-19T08:23:41Z</time>
      </trkpt>
      <trkpt lat="43.43557" lon="6.65831">
        <ele>9.7</ele>
        <time>2025-01-19T08:23:42Z</time>
      </trkpt>
      <trkpt lat="43.43557" lon="6.65832">
        <ele>9.8</ele>
        <time>2025-01-19T08:23:43Z</time>
      </trkpt>
      <trkpt lat="43.43556" lon="6.65832">
        <ele>9.9</ele>
        <time>2025-01-19T08:23:44Z</time>
      </trkpt>
      <trkpt lat="43.43555" lon="6.65831">
        <ele>9.9</ele>
        <time>2025-01-19T08:23:45Z</time>
      </trkpt>
      <trkpt lat="43.43555" lon="6.6583">
        <ele>9.9</ele>
        <time>2025-01-19T08:23:46Z</time>
      </trkpt>
      <trkpt lat="43.43555" lon="6.65829">
        <ele>9.9</ele>
        <time>2025-01-19T08:23:47Z</time>
      </trkpt>
      <trkpt lat="43.43555" lon="6.65828">
        <ele>9.9</ele>
        <time>2025-01-19T08:23:48Z</time>
      </trkpt>
      <trkpt lat="43.43555" lon="6.65827">
        <ele>9.9</ele>
        <time>2025-01-19T08:23:49Z</time>
      </trkpt>
      <trkpt lat="43.43555" lon="6.65826">
        <ele>9.8</ele>
        <time>2025-01-19T08:23:50Z</time>
      </trkpt>
      <trkpt lat="43.43555" lon="6.65825">
        <ele>9.7</ele>
        <time>2025-01-19T08:23:51Z</time>
      </trkpt>
      <trkpt lat="43.43555" lon="6.65823">
        <ele>9.6</ele>
        <time>2025-01-19T08:23:52Z</time>
      </trkpt>
      <trkpt lat="43.43555" lon="6.65822">
        <ele>9.7</ele>
        <time>2025-01-19T08:23:53Z</time>
      </trkpt>
      <trkpt lat="43.43554" lon="6.65821">
        <ele>9.7</ele>
        <time>2025-01-19T08:23:54Z</time>
      </trkpt>
      <trkpt lat="43.43554" lon="6.65819">
        <ele>9.8</ele>
        <time>2025-01-19T08:23:55Z</time>
      </trkpt>
      <trkpt lat="43.43555" lon="6.65818">
        <ele>9.7</ele>
        <time>2025-01-19T08:23:56Z</time>
      </trkpt>
      <trkpt lat="43.43555" lon="6.65817">
        <ele>9.7</ele>
        <time>2025-01-19T08:23:57Z</time>
      </trkpt>
      <trkpt lat="43.43555" lon="6.65816">
        <ele>9.7</ele>
        <time>2025-01-19T08:23:58Z</time>
      </trkpt>
      <trkpt lat="43.43554" lon="6.65815">
        <ele>9.7</ele>
        <time>2025-01-19T08:23:59Z</time>
      </trkpt>
      <trkpt lat="43.43553" lon="6.65815">
        <ele>9.7</ele>
        <time>2025-01-19T08:24:00Z</time>
      </trkpt>
      <trkpt lat="43.43552" lon="6.65815">
        <ele>9.7</ele>
        <time>2025-01-19T08:24:01Z</time>
      </trkpt>
      <trkpt lat="43.43551" lon="6.65815">
        <ele>9.7</ele>
        <time>2025-01-19T08:24:02Z</time>
      </trkpt>
      <trkpt lat="43.43551" lon="6.65815">
        <ele>9.8</ele>
        <time>2025-01-19T08:24:03Z</time>
      </trkpt>
      <trkpt lat="43.4355" lon="6.65815">
        <ele>9.9</ele>
        <time>2025-01-19T08:24:04Z</time>
      </trkpt>
      <trkpt lat="43.43549" lon="6.65814">
        <ele>9.9</ele>
        <time>2025-01-19T08:24:05Z</time>
      </trkpt>
      <trkpt lat="43.43549" lon="6.65814">
        <ele>10</ele>
        <time>2025-01-19T08:24:06Z</time>
      </trkpt>
      <trkpt lat="43.43549" lon="6.65814">
        <ele>10.1</ele>
        <time>2025-01-19T08:24:07Z</time>
      </trkpt>
      <trkpt lat="43.43548" lon="6.65814">
        <ele>10.1</ele>
        <time>2025-01-19T08:24:08Z</time>
      </trkpt>
      <trkpt lat="43.43548" lon="6.65814">
        <ele>10.1</ele>
        <time>2025-01-19T08:24:09Z</time>
      </trkpt>
      <trkpt lat="43.43547" lon="6.65814">
        <ele>10.1</ele>
        <time>2025-01-19T08:24:10Z</time>
      </trkpt>
      <trkpt lat="43.43547" lon="6.65814">
        <ele>10.1</ele>
        <time>2025-01-19T08:24:11Z</time>
      </trkpt>
      <trkpt lat="43.43547" lon="6.65813">
        <ele>10.2</ele>
        <time>2025-01-19T08:24:12Z</time>
      </trkpt>
      <trkpt lat="43.43547" lon="6.65813">
        <ele>10.2</ele>
        <time>2025-01-19T08:24:13Z</time>
      </trkpt>
      <trkpt lat="43.43547" lon="6.65812">
        <ele>10.3</ele>
        <time>2025-01-19T08:24:14Z</time>
      </trkpt>
      <trkpt lat="43.43547" lon="6.65812">
        <ele>10.2</ele>
        <time>2025-01-19T08:24:15Z</time>
      </trkpt>
      <trkpt lat="43.43547" lon="6.65811">
        <ele>10.3</ele>
        <time>2025-01-19T08:24:16Z</time>
      </trkpt>
      <trkpt lat="43.43547" lon="6.65811">
        <ele>10.3</ele>
        <time>2025-01-19T08:24:17Z</time>
      </trkpt>
      <trkpt lat="43.43546" lon="6.65811">
        <ele>10.4</ele>
        <time>2025-01-19T08:24:18Z</time>
      </trkpt>
      <trkpt lat="43.43546" lon="6.65811">
        <ele>10.3</ele>
        <time>2025-01-19T08:24:19Z</time>
      </trkpt>
      <trkpt lat="43.43546" lon="6.65811">
        <ele>10.3</ele>
        <time>2025-01-19T08:24:20Z</time>
      </trkpt>
      <trkpt lat="43.43545" lon="6.65811">
        <ele>10.3</ele>
        <time>2025-01-19T08:24:21Z</time>
      </trkpt>
      <trkpt lat="43.43545" lon="6.65811">
        <ele>10.4</ele>
        <time>2025-01-19T08:24:22Z</time>
      </trkpt>
      <trkpt lat="43.43545" lon="6.65811">
        <ele>10.4</ele>
        <time>2025-01-19T08:24:23Z</time>
      </trkpt>
      <trkpt lat="43.43545" lon="6.65811">
        <ele>10.4</ele>
        <time>2025-01-19T08:24:24Z</time>
      </trkpt>
      <trkpt lat="43.43545" lon="6.65811">
        <ele>10.5</ele>
        <time>2025-01-19T08:24:25Z</time>
      </trkpt>
      <trkpt lat="43.43546" lon="6.6581">
        <ele>10.4</ele>
        <time>2025-01-19T08:24:26Z</time>
      </trkpt>
      <trkpt lat="43.43545" lon="6.6581">
        <ele>10.4</ele>
        <time>2025-01-19T08:24:27Z</time>
      </trkpt>
      <trkpt lat="43.43545" lon="6.6581">
        <ele>10.4</ele>
        <time>2025-01-19T08:24:28Z</time>
      </trkpt>
      <trkpt lat="43.43545" lon="6.6581">
        <ele>10.5</ele>
        <time>2025-01-19T08:24:29Z</time>
      </trkpt>
      <trkpt lat="43.43545" lon="6.65811">
        <ele>10.4</ele>
        <time>2025-01-19T08:24:30Z</time>
      </trkpt>
      <trkpt lat="43.43544" lon="6.65811">
        <ele>10.5</ele>
        <time>2025-01-19T08:24:31Z</time>
      </trkpt>
      <trkpt lat="43.43544" lon="6.65811">
        <ele>10.5</ele>
        <time>2025-01-19T08:24:32Z</time>
      </trkpt>
      <trkpt lat="43.43543" lon="6.65812">
        <ele>10.4</ele>
        <time>2025-01-19T08:24:33Z</time>
      </trkpt>
      <trkpt lat="43.43542" lon="6.65813">
        <ele>10.4</ele>
        <time>2025-01-19T08:24:34Z</time>
      </trkpt>
      <trkpt lat="43.43541" lon="6.65814">
        <ele>10.4</ele>
        <time>2025-01-19T08:24:35Z</time>
      </trkpt>
      <trkpt lat="43.4354" lon="6.65814">
        <ele>10.4</ele>
        <time>2025-01-19T08:24:36Z</time>
      </trkpt>
      <trkpt lat="43.43539" lon="6.65814">
        <ele>10.5</ele>
        <time>2025-01-19T08:24:37Z</time>
      </trkpt>
      <trkpt lat="43.43539" lon="6.65815">
        <ele>10.5</ele>
        <time>2025-01-19T08:24:38Z</time>
      </trkpt>
      <trkpt lat="43.43539" lon="6.65815">
        <ele>10.5</ele>
        <time>2025-01-19T08:24:39Z</time>
      </trkpt>
      <trkpt lat="43.43538" lon="6.65816">
        <ele>10.6</ele>
        <time>2025-01-19T08:24:40Z</time>
      </trkpt>
      <trkpt lat="43.43538" lon="6.65816">
        <ele>10.7</ele>
        <time>2025-01-19T08:24:41Z</time>
      </trkpt>
      <trkpt lat="43.43537" lon="6.65817">
        <ele>10.8</ele>
        <time>2025-01-19T08:24:42Z</time>
      </trkpt>
      <trkpt lat="43.43537" lon="6.65817">
        <ele>10.9</ele>
        <time>2025-01-19T08:24:43Z</time>
      </trkpt>
      <trkpt lat="43.43536" lon="6.65818">
        <ele>10.9</ele>
        <time>2025-01-19T08:24:44Z</time>
      </trkpt>
      <trkpt lat="43.43535" lon="6.65819">
        <ele>10.9</ele>
        <time>2025-01-19T08:24:45Z</time>
      </trkpt>
      <trkpt lat="43.43535" lon="6.6582">
        <ele>11</ele>
        <time>2025-01-19T08:24:46Z</time>
      </trkpt>
      <trkpt lat="43.43534" lon="6.65821">
        <ele>11.1</ele>
        <time>2025-01-19T08:24:47Z</time>
      </trkpt>
      <trkpt lat="43.43533" lon="6.65821">
        <ele>11.2</ele>
        <time>2025-01-19T08:24:48Z</time>
      </trkpt>
      <trkpt lat="43.43532" lon="6.65822">
        <ele>11.2</ele>
        <time>2025-01-19T08:24:49Z</time>
      </trkpt>
      <trkpt lat="43.4353" lon="6.65822">
        <ele>11.3</ele>
        <time>2025-01-19T08:24:50Z</time>
      </trkpt>
      <trkpt lat="43.43529" lon="6.65823">
        <ele>11.4</ele>
        <time>2025-01-19T08:24:51Z</time>
      </trkpt>
      <trkpt lat="43.43529" lon="6.65824">
        <ele>11.5</ele>
        <time>2025-01-19T08:24:52Z</time>
      </trkpt>
      <trkpt lat="43.43527" lon="6.65825">
        <ele>11.6</ele>
        <time>2025-01-19T08:24:53Z</time>
      </trkpt>
      <trkpt lat="43.43526" lon="6.65825">
        <ele>11.7</ele>
        <time>2025-01-19T08:24:54Z</time>
      </trkpt>
      <trkpt lat="43.43526" lon="6.65825">
        <ele>11.8</ele>
        <time>2025-01-19T08:24:55Z</time>
      </trkpt>
      <trkpt lat="43.43525" lon="6.65826">
        <ele>11.9</ele>
        <time>2025-01-19T08:24:56Z</time>
      </trkpt>
      <trkpt lat="43.43525" lon="6.65826">
        <ele>12</ele>
        <time>2025-01-19T08:24:57Z</time>
      </trkpt>
      <trkpt lat="43.43525" lon="6.65827">
        <ele>12.1</ele>
        <time>2025-01-19T08:24:58Z</time>
      </trkpt>
      <trkpt lat="43.43524" lon="6.65828">
        <ele>12.2</ele>
        <time>2025-01-19T08:24:59Z</time>
      </trkpt>
      <trkpt lat="43.43524" lon="6.65828">
        <ele>12.3</ele>
        <time>2025-01-19T08:25:00Z</time>
      </trkpt>
      <trkpt lat="43.43524" lon="6.65829">
        <ele>12.5</ele>
        <time>2025-01-19T08:25:01Z</time>
      </trkpt>
      <trkpt lat="43.43523" lon="6.6583">
        <ele>12.6</ele>
        <time>2025-01-19T08:25:02Z</time>
      </trkpt>
      <trkpt lat="43.43522" lon="6.6583">
        <ele>12.7</ele>
        <time>2025-01-19T08:25:03Z</time>
      </trkpt>
      <trkpt lat="43.43521" lon="6.6583">
        <ele>12.9</ele>
        <time>2025-01-19T08:25:04Z</time>
      </trkpt>
      <trkpt lat="43.4352" lon="6.6583">
        <ele>13.1</ele>
        <time>2025-01-19T08:25:05Z</time>
      </trkpt>
      <trkpt lat="43.4352" lon="6.65831">
        <ele>13.3</ele>
        <time>2025-01-19T08:25:06Z</time>
      </trkpt>
      <trkpt lat="43.4352" lon="6.65832">
        <ele>13.5</ele>
        <time>2025-01-19T08:25:07Z</time>
      </trkpt>
      <trkpt lat="43.43517" lon="6.65833">
        <ele>13.6</ele>
        <time>2025-01-19T08:25:08Z</time>
      </trkpt>
      <trkpt lat="43.43516" lon="6.65834">
        <ele>13.7</ele>
        <time>2025-01-19T08:25:09Z</time>
      </trkpt>
      <trkpt lat="43.43515" lon="6.65835">
        <ele>13.8</ele>
        <time>2025-01-19T08:25:10Z</time>
      </trkpt>
      <trkpt lat="43.43513" lon="6.65836">
        <ele>13.8</ele>
        <time>2025-01-19T08:25:11Z</time>
      </trkpt>
      <trkpt lat="43.43512" lon="6.65837">
        <ele>14</ele>
        <time>2025-01-19T08:25:12Z</time>
      </trkpt>
      <trkpt lat="43.43511" lon="6.65837">
        <ele>14.2</ele>
        <time>2025-01-19T08:25:13Z</time>
      </trkpt>
      <trkpt lat="43.43511" lon="6.65838">
        <ele>14.3</ele>
        <time>2025-01-19T08:25:14Z</time>
      </trkpt>
      <trkpt lat="43.4351" lon="6.65838">
        <ele>14.4</ele>
        <time>2025-01-19T08:25:15Z</time>
      </trkpt>
      <trkpt lat="43.43509" lon="6.65839">
        <ele>14.5</ele>
        <time>2025-01-19T08:25:16Z</time>
      </trkpt>
      <trkpt lat="43.43507" lon="6.6584">
        <ele>14.7</ele>
        <time>2025-01-19T08:25:17Z</time>
      </trkpt>
      <trkpt lat="43.43506" lon="6.65841">
        <ele>14.8</ele>
        <time>2025-01-19T08:25:18Z</time>
      </trkpt>
      <trkpt lat="43.43504" lon="6.65841">
        <ele>14.9</ele>
        <time>2025-01-19T08:25:19Z</time>
      </trkpt>
      <trkpt lat="43.43504" lon="6.65843">
        <ele>15.2</ele>
        <time>2025-01-19T08:25:20Z</time>
      </trkpt>
      <trkpt lat="43.43503" lon="6.65844">
        <ele>15.5</ele>
        <time>2025-01-19T08:25:21Z</time>
      </trkpt>
      <trkpt lat="43.43503" lon="6.65845">
        <ele>15.5</ele>
        <time>2025-01-19T08:25:22Z</time>
      </trkpt>
      <trkpt lat="43.43502" lon="6.65846">
        <ele>15.6</ele>
        <time>2025-01-19T08:25:23Z</time>
      </trkpt>
      <trkpt lat="43.435" lon="6.65847">
        <ele>15.6</ele>
        <time>2025-01-19T08:25:24Z</time>
      </trkpt>
      <trkpt lat="43.43499" lon="6.65847">
        <ele>15.6</ele>
        <time>2025-01-19T08:25:25Z</time>
      </trkpt>
      <trkpt lat="43.43497" lon="6.65848">
        <ele>15.7</ele>
        <time>2025-01-19T08:25:26Z</time>
      </trkpt>
      <trkpt lat="43.43496" lon="6.65848">
        <ele>15.7</ele>
        <time>2025-01-19T08:25:27Z</time>
      </trkpt>
      <trkpt lat="43.43494" lon="6.65848">
        <ele>15.7</ele>
        <time>2025-01-19T08:25:28Z</time>
      </trkpt>
      <trkpt lat="43.43493" lon="6.6585">
        <ele>15.7</ele>
        <time>2025-01-19T08:25:29Z</time>
      </trkpt>
      <trkpt lat="43.43492" lon="6.65852">
        <ele>15.7</ele>
        <time>2025-01-19T08:25:30Z</time>
      </trkpt>
      <trkpt lat="43.43491" lon="6.65853">
        <ele>15.6</ele>
        <time>2025-01-19T08:25:31Z</time>
      </trkpt>
      <trkpt lat="43.43491" lon="6.65853">
        <ele>15.6</ele>
        <time>2025-01-19T08:25:32Z</time>
      </trkpt>
      <trkpt lat="43.4349" lon="6.65855">
        <ele>15.4</ele>
        <time>2025-01-19T08:25:33Z</time>
      </trkpt>
      <trkpt lat="43.43489" lon="6.65856">
        <ele>15.4</ele>
        <time>2025-01-19T08:25:34Z</time>
      </trkpt>
      <trkpt lat="43.43488" lon="6.65856">
        <ele>15.4</ele>
        <time>2025-01-19T08:25:35Z</time>
      </trkpt>
      <trkpt lat="43.43487" lon="6.65857">
        <ele>15.3</ele>
        <time>2025-01-19T08:25:36Z</time>
      </trkpt>
      <trkpt lat="43.43486" lon="6.65857">
        <ele>15.3</ele>
        <time>2025-01-19T08:25:37Z</time>
      </trkpt>
      <trkpt lat="43.43485" lon="6.65858">
        <ele>15.3</ele>
        <time>2025-01-19T08:25:38Z</time>
      </trkpt>
      <trkpt lat="43.43484" lon="6.65859">
        <ele>15.3</ele>
        <time>2025-01-19T08:25:39Z</time>
      </trkpt>
      <trkpt lat="43.43483" lon="6.65861">
        <ele>15.3</ele>
        <time>2025-01-19T08:25:40Z</time>
      </trkpt>
      <trkpt lat="43.43482" lon="6.65863">
        <ele>15.3</ele>
        <time>2025-01-19T08:25:41Z</time>
      </trkpt>
      <trkpt lat="43.43482" lon="6.65863">
        <ele>15.3</ele>
        <time>2025-01-19T08:25:42Z</time>
      </trkpt>
      <trkpt lat="43.43482" lon="6.65864">
        <ele>15.2</ele>
        <time>2025-01-19T08:25:43Z</time>
      </trkpt>
      <trkpt lat="43.43482" lon="6.65864">
        <ele>15.1</ele>
        <time>2025-01-19T08:25:44Z</time>
      </trkpt>
      <trkpt lat="43.43481" lon="6.65865">
        <ele>15.1</ele>
        <time>2025-01-19T08:25:45Z</time>
      </trkpt>
      <trkpt lat="43.43481" lon="6.65867">
        <ele>15.1</ele>
        <time>2025-01-19T08:25:46Z</time>
      </trkpt>
      <trkpt lat="43.43481" lon="6.65867">
        <ele>15.1</ele>
        <time>2025-01-19T08:25:47Z</time>
      </trkpt>
      <trkpt lat="43.4348" lon="6.65869">
        <ele>15.1</ele>
        <time>2025-01-19T08:25:48Z</time>
      </trkpt>
      <trkpt lat="43.43479" lon="6.6587">
        <ele>15.1</ele>
        <time>2025-01-19T08:25:49Z</time>
      </trkpt>
      <trkpt lat="43.43479" lon="6.65871">
        <ele>15.1</ele>
        <time>2025-01-19T08:25:50Z</time>
      </trkpt>
      <trkpt lat="43.43478" lon="6.65872">
        <ele>15.1</ele>
        <time>2025-01-19T08:25:51Z</time>
      </trkpt>
      <trkpt lat="43.43478" lon="6.65873">
        <ele>15.1</ele>
        <time>2025-01-19T08:25:52Z</time>
      </trkpt>
      <trkpt lat="43.43477" lon="6.65873">
        <ele>15.1</ele>
        <time>2025-01-19T08:25:53Z</time>
      </trkpt>
      <trkpt lat="43.43477" lon="6.65874">
        <ele>15</ele>
        <time>2025-01-19T08:25:54Z</time>
      </trkpt>
      <trkpt lat="43.43476" lon="6.65875">
        <ele>15</ele>
        <time>2025-01-19T08:25:55Z</time>
      </trkpt>
      <trkpt lat="43.43474" lon="6.65875">
        <ele>15</ele>
        <time>2025-01-19T08:25:56Z</time>
      </trkpt>
      <trkpt lat="43.43473" lon="6.65876">
        <ele>14.9</ele>
        <time>2025-01-19T08:25:57Z</time>
      </trkpt>
      <trkpt lat="43.43472" lon="6.65876">
        <ele>14.9</ele>
        <time>2025-01-19T08:25:58Z</time>
      </trkpt>
      <trkpt lat="43.43471" lon="6.65877">
        <ele>15</ele>
        <time>2025-01-19T08:25:59Z</time>
      </trkpt>
      <trkpt lat="43.43471" lon="6.65875">
        <ele>15</ele>
        <time>2025-01-19T08:26:00Z</time>
      </trkpt>
      <trkpt lat="43.43471" lon="6.65875">
        <ele>15</ele>
        <time>2025-01-19T08:26:01Z</time>
      </trkpt>
      <trkpt lat="43.4347" lon="6.65876">
        <ele>14.9</ele>
        <time>2025-01-19T08:26:02Z</time>
      </trkpt>
      <trkpt lat="43.4347" lon="6.65878">
        <ele>14.8</ele>
        <time>2025-01-19T08:26:03Z</time>
      </trkpt>
      <trkpt lat="43.4347" lon="6.65878">
        <ele>14.8</ele>
        <time>2025-01-19T08:26:04Z</time>
      </trkpt>
      <trkpt lat="43.43469" lon="6.65879">
        <ele>14.8</ele>
        <time>2025-01-19T08:26:05Z</time>
      </trkpt>
      <trkpt lat="43.43469" lon="6.65881">
        <ele>14.8</ele>
        <time>2025-01-19T08:26:06Z</time>
      </trkpt>
      <trkpt lat="43.43468" lon="6.65882">
        <ele>14.8</ele>
        <time>2025-01-19T08:26:07Z</time>
      </trkpt>
      <trkpt lat="43.43467" lon="6.65882">
        <ele>14.7</ele>
        <time>2025-01-19T08:26:08Z</time>
      </trkpt>
      <trkpt lat="43.43466" lon="6.65883">
        <ele>14.7</ele>
        <time>2025-01-19T08:26:09Z</time>
      </trkpt>
      <trkpt lat="43.43465" lon="6.65885">
        <ele>14.6</ele>
        <time>2025-01-19T08:26:10Z</time>
      </trkpt>
      <trkpt lat="43.43465" lon="6.65886">
        <ele>14.7</ele>
        <time>2025-01-19T08:26:11Z</time>
      </trkpt>
      <trkpt lat="43.43465" lon="6.65887">
        <ele>14.7</ele>
        <time>2025-01-19T08:26:12Z</time>
      </trkpt>
      <trkpt lat="43.43464" lon="6.65888">
        <ele>14.8</ele>
        <time>2025-01-19T08:26:13Z</time>
      </trkpt>
      <trkpt lat="43.43463" lon="6.65889">
        <ele>14.8</ele>
        <time>2025-01-19T08:26:14Z</time>
      </trkpt>
      <trkpt lat="43.43461" lon="6.6589">
        <ele>14.8</ele>
        <time>2025-01-19T08:26:15Z</time>
      </trkpt>
      <trkpt lat="43.43459" lon="6.6589">
        <ele>14.7</ele>
        <time>2025-01-19T08:26:16Z</time>
      </trkpt>
      <trkpt lat="43.43458" lon="6.65891">
        <ele>14.8</ele>
        <time>2025-01-19T08:26:17Z</time>
      </trkpt>
      <trkpt lat="43.43457" lon="6.65892">
        <ele>14.8</ele>
        <time>2025-01-19T08:26:18Z</time>
      </trkpt>
      <trkpt lat="43.43457" lon="6.65892">
        <ele>14.9</ele>
        <time>2025-01-19T08:26:19Z</time>
      </trkpt>
      <trkpt lat="43.43456" lon="6.65892">
        <ele>15</ele>
        <time>2025-01-19T08:26:20Z</time>
      </trkpt>
      <trkpt lat="43.43455" lon="6.65892">
        <ele>15</ele>
        <time>2025-01-19T08:26:21Z</time>
      </trkpt>
      <trkpt lat="43.43456" lon="6.65891">
        <ele>15</ele>
        <time>2025-01-19T08:26:22Z</time>
      </trkpt>
      <trkpt lat="43.43455" lon="6.65891">
        <ele>15</ele>
        <time>2025-01-19T08:26:23Z</time>
      </trkpt>
      <trkpt lat="43.43456" lon="6.6589">
        <ele>15</ele>
        <time>2025-01-19T08:26:24Z</time>
      </trkpt>
      <trkpt lat="43.43457" lon="6.6589">
        <ele>15.1</ele>
        <time>2025-01-19T08:26:25Z</time>
      </trkpt>
      <trkpt lat="43.43458" lon="6.65889">
        <ele>15.2</ele>
        <time>2025-01-19T08:26:26Z</time>
      </trkpt>
      <trkpt lat="43.43458" lon="6.65888">
        <ele>15.2</ele>
        <time>2025-01-19T08:26:27Z</time>
      </trkpt>
      <trkpt lat="43.43459" lon="6.65888">
        <ele>15.3</ele>
        <time>2025-01-19T08:26:28Z</time>
      </trkpt>
      <trkpt lat="43.43459" lon="6.65887">
        <ele>15.4</ele>
        <time>2025-01-19T08:26:29Z</time>
      </trkpt>
      <trkpt lat="43.4346" lon="6.65885">
        <ele>15.7</ele>
        <time>2025-01-19T08:26:30Z</time>
      </trkpt>
      <trkpt lat="43.4346" lon="6.65884">
        <ele>15.8</ele>
        <time>2025-01-19T08:26:31Z</time>
      </trkpt>
      <trkpt lat="43.43459" lon="6.65883">
        <ele>15.9</ele>
        <time>2025-01-19T08:26:32Z</time>
      </trkpt>
      <trkpt lat="43.43459" lon="6.65882">
        <ele>16.1</ele>
        <time>2025-01-19T08:26:33Z</time>
      </trkpt>
      <trkpt lat="43.43459" lon="6.65882">
        <ele>16.2</ele>
        <time>2025-01-19T08:26:34Z</time>
      </trkpt>
      <trkpt lat="43.43459" lon="6.65881">
        <ele>16.3</ele>
        <time>2025-01-19T08:26:35Z</time>
      </trkpt>
      <trkpt lat="43.43459" lon="6.6588">
        <ele>16.4</ele>
        <time>2025-01-19T08:26:36Z</time>
      </trkpt>
      <trkpt lat="43.43458" lon="6.65878">
        <ele>16.6</ele>
        <time>2025-01-19T08:26:37Z</time>
      </trkpt>
      <trkpt lat="43.43458" lon="6.65878">
        <ele>16.8</ele>
        <time>2025-01-19T08:26:38Z</time>
      </trkpt>
      <trkpt lat="43.43456" lon="6.65877">
        <ele>17</ele>
        <time>2025-01-19T08:26:39Z</time>
      </trkpt>
      <trkpt lat="43.43455" lon="6.65875">
        <ele>17.2</ele>
        <time>2025-01-19T08:26:40Z</time>
      </trkpt>
      <trkpt lat="43.43454" lon="6.65874">
        <ele>17.3</ele>
        <time>2025-01-19T08:26:41Z</time>
      </trkpt>
      <trkpt lat="43.43454" lon="6.65873">
        <ele>17.6</ele>
        <time>2025-01-19T08:26:42Z</time>
      </trkpt>
      <trkpt lat="43.43452" lon="6.65872">
        <ele>17.7</ele>
        <time>2025-01-19T08:26:43Z</time>
      </trkpt>
      <trkpt lat="43.43452" lon="6.6587">
        <ele>17.8</ele>
        <time>2025-01-19T08:26:44Z</time>
      </trkpt>
      <trkpt lat="43.43451" lon="6.6587">
        <ele>17.9</ele>
        <time>2025-01-19T08:26:45Z</time>
      </trkpt>
      <trkpt lat="43.4345" lon="6.65869">
        <ele>18</ele>
        <time>2025-01-19T08:26:46Z</time>
      </trkpt>
      <trkpt lat="43.4345" lon="6.65867">
        <ele>18.1</ele>
        <time>2025-01-19T08:26:47Z</time>
      </trkpt>
      <trkpt lat="43.43449" lon="6.65866">
        <ele>18.2</ele>
        <time>2025-01-19T08:26:48Z</time>
      </trkpt>
      <trkpt lat="43.43448" lon="6.65864">
        <ele>18.3</ele>
        <time>2025-01-19T08:26:49Z</time>
      </trkpt>
      <trkpt lat="43.43448" lon="6.65863">
        <ele>18.4</ele>
        <time>2025-01-19T08:26:50Z</time>
      </trkpt>
      <trkpt lat="43.43447" lon="6.65862">
        <ele>18.5</ele>
        <time>2025-01-19T08:26:51Z</time>
      </trkpt>
      <trkpt lat="43.43447" lon="6.65861">
        <ele>18.6</ele>
        <time>2025-01-19T08:26:52Z</time>
      </trkpt>
      <trkpt lat="43.43447" lon="6.65859">
        <ele>18.7</ele>
        <time>2025-01-19T08:26:53Z</time>
      </trkpt>
      <trkpt lat="43.43446" lon="6.65858">
        <ele>18.9</ele>
        <time>2025-01-19T08:26:54Z</time>
      </trkpt>
      <trkpt lat="43.43446" lon="6.65857">
        <ele>18.9</ele>
        <time>2025-01-19T08:26:55Z</time>
      </trkpt>
      <trkpt lat="43.43444" lon="6.65855">
        <ele>19</ele>
        <time>2025-01-19T08:26:56Z</time>
      </trkpt>
      <trkpt lat="43.43444" lon="6.65854">
        <ele>19.2</ele>
        <time>2025-01-19T08:26:57Z</time>
      </trkpt>
      <trkpt lat="43.43442" lon="6.65854">
        <ele>19.3</ele>
        <time>2025-01-19T08:26:58Z</time>
      </trkpt>
      <trkpt lat="43.43442" lon="6.65853">
        <ele>19.4</ele>
        <time>2025-01-19T08:26:59Z</time>
      </trkpt>
      <trkpt lat="43.43441" lon="6.65852">
        <ele>19.6</ele>
        <time>2025-01-19T08:27:00Z</time>
      </trkpt>
      <trkpt lat="43.4344" lon="6.65851">
        <ele>19.8</ele>
        <time>2025-01-19T08:27:01Z</time>
      </trkpt>
      <trkpt lat="43.43439" lon="6.6585">
        <ele>20</ele>
        <time>2025-01-19T08:27:02Z</time>
      </trkpt>
      <trkpt lat="43.43438" lon="6.6585">
        <ele>20.1</ele>
        <time>2025-01-19T08:27:03Z</time>
      </trkpt>
      <trkpt lat="43.43436" lon="6.6585">
        <ele>20.2</ele>
        <time>2025-01-19T08:27:04Z</time>
      </trkpt>
      <trkpt lat="43.43436" lon="6.6585">
        <ele>20.3</ele>
        <time>2025-01-19T08:27:05Z</time>
      </trkpt>
      <trkpt lat="43.43435" lon="6.6585">
        <ele>20.4</ele>
        <time>2025-01-19T08:27:06Z</time>
      </trkpt>
      <trkpt lat="43.43434" lon="6.6585">
        <ele>20.6</ele>
        <time>2025-01-19T08:27:07Z</time>
      </trkpt>
      <trkpt lat="43.43434" lon="6.6585">
        <ele>20.9</ele>
        <time>2025-01-19T08:27:08Z</time>
      </trkpt>
      <trkpt lat="43.43432" lon="6.65849">
        <ele>21.1</ele>
        <time>2025-01-19T08:27:09Z</time>
      </trkpt>
      <trkpt lat="43.43431" lon="6.65848">
        <ele>21.3</ele>
        <time>2025-01-19T08:27:10Z</time>
      </trkpt>
      <trkpt lat="43.43431" lon="6.65848">
        <ele>21.5</ele>
        <time>2025-01-19T08:27:11Z</time>
      </trkpt>
      <trkpt lat="43.43429" lon="6.65848">
        <ele>21.7</ele>
        <time>2025-01-19T08:27:12Z</time>
      </trkpt>
      <trkpt lat="43.43428" lon="6.65848">
        <ele>21.8</ele>
        <time>2025-01-19T08:27:13Z</time>
      </trkpt>
      <trkpt lat="43.43427" lon="6.65848">
        <ele>21.9</ele>
        <time>2025-01-19T08:27:14Z</time>
      </trkpt>
      <trkpt lat="43.43426" lon="6.65848">
        <ele>22</ele>
        <time>2025-01-19T08:27:15Z</time>
      </trkpt>
      <trkpt lat="43.43425" lon="6.65849">
        <ele>22.3</ele>
        <time>2025-01-19T08:27:16Z</time>
      </trkpt>
      <trkpt lat="43.43424" lon="6.65849">
        <ele>22.4</ele>
        <time>2025-01-19T08:27:17Z</time>
      </trkpt>
      <trkpt lat="43.43424" lon="6.65849">
        <ele>22.6</ele>
        <time>2025-01-19T08:27:18Z</time>
      </trkpt>
      <trkpt lat="43.43423" lon="6.6585">
        <ele>22.6</ele>
        <time>2025-01-19T08:27:19Z</time>
      </trkpt>
      <trkpt lat="43.43422" lon="6.65849">
        <ele>22.8</ele>
        <time>2025-01-19T08:27:20Z</time>
      </trkpt>
      <trkpt lat="43.43422" lon="6.65849">
        <ele>22.9</ele>
        <time>2025-01-19T08:27:21Z</time>
      </trkpt>
      <trkpt lat="43.43421" lon="6.6585">
        <ele>23</ele>
        <time>2025-01-19T08:27:22Z</time>
      </trkpt>
      <trkpt lat="43.43421" lon="6.6585">
        <ele>23.1</ele>
        <time>2025-01-19T08:27:23Z</time>
      </trkpt>
      <trkpt lat="43.43421" lon="6.65851">
        <ele>23.2</ele>
        <time>2025-01-19T08:27:24Z</time>
      </trkpt>
      <trkpt lat="43.4342" lon="6.65851">
        <ele>23.2</ele>
        <time>2025-01-19T08:27:25Z</time>
      </trkpt>
      <trkpt lat="43.4342" lon="6.65852">
        <ele>23.2</ele>
        <time>2025-01-19T08:27:26Z</time>
      </trkpt>
      <trkpt lat="43.4342" lon="6.65852">
        <ele>23.3</ele>
        <time>2025-01-19T08:27:27Z</time>
      </trkpt>
      <trkpt lat="43.43419" lon="6.65853">
        <ele>23.3</ele>
        <time>2025-01-19T08:27:28Z</time>
      </trkpt>
      <trkpt lat="43.43419" lon="6.65855">
        <ele>23.5</ele>
        <time>2025-01-19T08:27:29Z</time>
      </trkpt>
      <trkpt lat="43.43419" lon="6.65855">
        <ele>23.5</ele>
        <time>2025-01-19T08:27:30Z</time>
      </trkpt>
      <trkpt lat="43.43419" lon="6.65856">
        <ele>23.5</ele>
        <time>2025-01-19T08:27:31Z</time>
      </trkpt>
      <trkpt lat="43.43419" lon="6.65857">
        <ele>23.6</ele>
        <time>2025-01-19T08:27:32Z</time>
      </trkpt>
      <trkpt lat="43.43418" lon="6.65858">
        <ele>23.6</ele>
        <time>2025-01-19T08:27:33Z</time>
      </trkpt>
      <trkpt lat="43.43418" lon="6.65858">
        <ele>23.6</ele>
        <time>2025-01-19T08:27:34Z</time>
      </trkpt>
      <trkpt lat="43.43417" lon="6.65858">
        <ele>23.7</ele>
        <time>2025-01-19T08:27:35Z</time>
      </trkpt>
      <trkpt lat="43.43416" lon="6.65858">
        <ele>23.7</ele>
        <time>2025-01-19T08:27:36Z</time>
      </trkpt>
      <trkpt lat="43.43416" lon="6.65858">
        <ele>23.7</ele>
        <time>2025-01-19T08:27:37Z</time>
      </trkpt>
      <trkpt lat="43.43416" lon="6.65858">
        <ele>23.7</ele>
        <time>2025-01-19T08:27:38Z</time>
      </trkpt>
      <trkpt lat="43.43416" lon="6.65859">
        <ele>23.7</ele>
        <time>2025-01-19T08:27:39Z</time>
      </trkpt>
      <trkpt lat="43.43415" lon="6.65859">
        <ele>23.7</ele>
        <time>2025-01-19T08:27:40Z</time>
      </trkpt>
      <trkpt lat="43.43416" lon="6.65859">
        <ele>23.8</ele>
        <time>2025-01-19T08:27:41Z</time>
      </trkpt>
      <trkpt lat="43.43416" lon="6.65859">
        <ele>23.9</ele>
        <time>2025-01-19T08:27:42Z</time>
      </trkpt>
      <trkpt lat="43.43415" lon="6.65858">
        <ele>23.9</ele>
        <time>2025-01-19T08:27:43Z</time>
      </trkpt>
      <trkpt lat="43.43415" lon="6.65858">
        <ele>24</ele>
        <time>2025-01-19T08:27:44Z</time>
      </trkpt>
      <trkpt lat="43.43414" lon="6.65858">
        <ele>24.1</ele>
        <time>2025-01-19T08:27:45Z</time>
      </trkpt>
      <trkpt lat="43.43414" lon="6.65857">
        <ele>24.2</ele>
        <time>2025-01-19T08:27:46Z</time>
      </trkpt>
      <trkpt lat="43.43413" lon="6.65857">
        <ele>24.4</ele>
        <time>2025-01-19T08:27:47Z</time>
      </trkpt>
      <trkpt lat="43.43412" lon="6.65856">
        <ele>24.6</ele>
        <time>2025-01-19T08:27:48Z</time>
      </trkpt>
      <trkpt lat="43.43412" lon="6.65856">
        <ele>24.8</ele>
        <time>2025-01-19T08:27:49Z</time>
      </trkpt>
      <trkpt lat="43.43411" lon="6.65856">
        <ele>24.9</ele>
        <time>2025-01-19T08:27:50Z</time>
      </trkpt>
      <trkpt lat="43.43411" lon="6.65855">
        <ele>25</ele>
        <time>2025-01-19T08:27:51Z</time>
      </trkpt>
      <trkpt lat="43.4341" lon="6.65854">
        <ele>25.1</ele>
        <time>2025-01-19T08:27:52Z</time>
      </trkpt>
      <trkpt lat="43.4341" lon="6.65854">
        <ele>25.1</ele>
        <time>2025-01-19T08:27:53Z</time>
      </trkpt>
      <trkpt lat="43.4341" lon="6.65854">
        <ele>25.2</ele>
        <time>2025-01-19T08:27:54Z</time>
      </trkpt>
      <trkpt lat="43.43409" lon="6.65854">
        <ele>25.3</ele>
        <time>2025-01-19T08:27:55Z</time>
      </trkpt>
      <trkpt lat="43.43409" lon="6.65854">
        <ele>25.3</ele>
        <time>2025-01-19T08:27:56Z</time>
      </trkpt>
      <trkpt lat="43.43409" lon="6.65854">
        <ele>25.3</ele>
        <time>2025-01-19T08:27:57Z</time>
      </trkpt>
      <trkpt lat="43.43409" lon="6.65853">
        <ele>25.2</ele>
        <time>2025-01-19T08:27:58Z</time>
      </trkpt>
      <trkpt lat="43.43408" lon="6.65853">
        <ele>25.2</ele>
        <time>2025-01-19T08:27:59Z</time>
      </trkpt>
      <trkpt lat="43.43408" lon="6.65853">
        <ele>25.2</ele>
        <time>2025-01-19T08:28:00Z</time>
      </trkpt>
      <trkpt lat="43.43408" lon="6.65852">
        <ele>25.3</ele>
        <time>2025-01-19T08:28:01Z</time>
      </trkpt>
      <trkpt lat="43.43408" lon="6.65851">
        <ele>25.4</ele>
        <time>2025-01-19T08:28:02Z</time>
      </trkpt>
      <trkpt lat="43.43408" lon="6.6585">
        <ele>25.4</ele>
        <time>2025-01-19T08:28:03Z</time>
      </trkpt>
      <trkpt lat="43.43408" lon="6.65848">
        <ele>25.5</ele>
        <time>2025-01-19T08:28:04Z</time>
      </trkpt>
      <trkpt lat="43.43408" lon="6.65848">
        <ele>25.6</ele>
        <time>2025-01-19T08:28:05Z</time>
      </trkpt>
      <trkpt lat="43.43408" lon="6.65846">
        <ele>25.7</ele>
        <time>2025-01-19T08:28:06Z</time>
      </trkpt>
      <trkpt lat="43.43408" lon="6.65845">
        <ele>25.7</ele>
        <time>2025-01-19T08:28:07Z</time>
      </trkpt>
      <trkpt lat="43.43409" lon="6.65844">
        <ele>25.8</ele>
        <time>2025-01-19T08:28:08Z</time>
      </trkpt>
      <trkpt lat="43.43409" lon="6.65843">
        <ele>25.9</ele>
        <time>2025-01-19T08:28:09Z</time>
      </trkpt>
      <trkpt lat="43.43409" lon="6.65842">
        <ele>25.9</ele>
        <time>2025-01-19T08:28:10Z</time>
      </trkpt>
      <trkpt lat="43.43409" lon="6.65841">
        <ele>26</ele>
        <time>2025-01-19T08:28:11Z</time>
      </trkpt>
      <trkpt lat="43.43408" lon="6.6584">
        <ele>26</ele>
        <time>2025-01-19T08:28:12Z</time>
      </trkpt>
      <trkpt lat="43.43408" lon="6.65839">
        <ele>26</ele>
        <time>2025-01-19T08:28:13Z</time>
      </trkpt>
      <trkpt lat="43.43408" lon="6.65838">
        <ele>26.2</ele>
        <time>2025-01-19T08:28:14Z</time>
      </trkpt>
      <trkpt lat="43.43408" lon="6.65838">
        <ele>26.2</ele>
        <time>2025-01-19T08:28:15Z</time>
      </trkpt>
      <trkpt lat="43.43408" lon="6.65838">
        <ele>26.4</ele>
        <time>2025-01-19T08:28:16Z</time>
      </trkpt>
      <trkpt lat="43.43408" lon="6.65837">
        <ele>26.5</ele>
        <time>2025-01-19T08:28:17Z</time>
      </trkpt>
      <trkpt lat="43.43408" lon="6.65837">
        <ele>26.6</ele>
        <time>2025-01-19T08:28:18Z</time>
      </trkpt>
      <trkpt lat="43.43408" lon="6.65836">
        <ele>26.7</ele>
        <time>2025-01-19T08:28:19Z</time>
      </trkpt>
      <trkpt lat="43.43408" lon="6.65836">
        <ele>26.7</ele>
        <time>2025-01-19T08:28:20Z</time>
      </trkpt>
      <trkpt lat="43.43408" lon="6.65836">
        <ele>26.9</ele>
        <time>2025-01-19T08:28:21Z</time>
      </trkpt>
      <trkpt lat="43.43408" lon="6.65835">
        <ele>26.9</ele>
        <time>2025-01-19T08:28:22Z</time>
      </trkpt>
      <trkpt lat="43.43408" lon="6.65835">
        <ele>27</ele>
        <time>2025-01-19T08:28:23Z</time>
      </trkpt>
      <trkpt lat="43.43408" lon="6.65835">
        <ele>27</ele>
        <time>2025-01-19T08:28:24Z</time>
      </trkpt>
      <trkpt lat="43.43408" lon="6.65834">
        <ele>26.9</ele>
        <time>2025-01-19T08:28:25Z</time>
      </trkpt>
      <trkpt lat="43.43408" lon="6.65834">
        <ele>26.9</ele>
        <time>2025-01-19T08:28:26Z</time>
      </trkpt>
      <trkpt lat="43.43408" lon="6.65834">
        <ele>26.9</ele>
        <time>2025-01-19T08:28:27Z</time>
      </trkpt>
      <trkpt lat="43.43408" lon="6.65834">
        <ele>26.9</ele>
        <time>2025-01-19T08:28:28Z</time>
      </trkpt>
      <trkpt lat="43.43408" lon="6.65834">
        <ele>26.8</ele>
        <time>2025-01-19T08:28:29Z</time>
      </trkpt>
      <trkpt lat="43.43408" lon="6.65834">
        <ele>26.8</ele>
        <time>2025-01-19T08:28:30Z</time>
      </trkpt>
      <trkpt lat="43.43408" lon="6.65834">
        <ele>26.8</ele>
        <time>2025-01-19T08:28:31Z</time>
      </trkpt>
      <trkpt lat="43.43408" lon="6.65833">
        <ele>26.8</ele>
        <time>2025-01-19T08:28:32Z</time>
      </trkpt>
      <trkpt lat="43.43409" lon="6.65833">
        <ele>26.8</ele>
        <time>2025-01-19T08:28:33Z</time>
      </trkpt>
      <trkpt lat="43.4341" lon="6.65831">
        <ele>26.8</ele>
        <time>2025-01-19T08:28:34Z</time>
      </trkpt>
      <trkpt lat="43.4341" lon="6.65831">
        <ele>26.9</ele>
        <time>2025-01-19T08:28:35Z</time>
      </trkpt>
      <trkpt lat="43.43409" lon="6.65829">
        <ele>26.9</ele>
        <time>2025-01-19T08:28:36Z</time>
      </trkpt>
      <trkpt lat="43.43409" lon="6.65828">
        <ele>27</ele>
        <time>2025-01-19T08:28:37Z</time>
      </trkpt>
      <trkpt lat="43.43409" lon="6.65828">
        <ele>27.1</ele>
        <time>2025-01-19T08:28:38Z</time>
      </trkpt>
      <trkpt lat="43.43408" lon="6.65827">
        <ele>27.2</ele>
        <time>2025-01-19T08:28:39Z</time>
      </trkpt>
      <trkpt lat="43.43407" lon="6.65827">
        <ele>27.3</ele>
        <time>2025-01-19T08:28:40Z</time>
      </trkpt>
      <trkpt lat="43.43406" lon="6.65827">
        <ele>27.4</ele>
        <time>2025-01-19T08:28:41Z</time>
      </trkpt>
      <trkpt lat="43.43406" lon="6.65827">
        <ele>27.4</ele>
        <time>2025-01-19T08:28:42Z</time>
      </trkpt>
      <trkpt lat="43.43406" lon="6.65827">
        <ele>27.5</ele>
        <time>2025-01-19T08:28:43Z</time>
      </trkpt>
      <trkpt lat="43.43405" lon="6.65825">
        <ele>27.6</ele>
        <time>2025-01-19T08:28:44Z</time>
      </trkpt>
      <trkpt lat="43.43405" lon="6.65825">
        <ele>27.7</ele>
        <time>2025-01-19T08:28:45Z</time>
      </trkpt>
      <trkpt lat="43.43404" lon="6.65824">
        <ele>27.8</ele>
        <time>2025-01-19T08:28:46Z</time>
      </trkpt>
      <trkpt lat="43.43403" lon="6.65822">
        <ele>27.9</ele>
        <time>2025-01-19T08:28:47Z</time>
      </trkpt>
      <trkpt lat="43.43402" lon="6.65822">
        <ele>28</ele>
        <time>2025-01-19T08:28:48Z</time>
      </trkpt>
      <trkpt lat="43.43401" lon="6.6582">
        <ele>28.1</ele>
        <time>2025-01-19T08:28:49Z</time>
      </trkpt>
      <trkpt lat="43.434" lon="6.65819">
        <ele>28.3</ele>
        <time>2025-01-19T08:28:50Z</time>
      </trkpt>
      <trkpt lat="43.43399" lon="6.65819">
        <ele>28.4</ele>
        <time>2025-01-19T08:28:51Z</time>
      </trkpt>
      <trkpt lat="43.43397" lon="6.65819">
        <ele>28.5</ele>
        <time>2025-01-19T08:28:52Z</time>
      </trkpt>
      <trkpt lat="43.43396" lon="6.65819">
        <ele>28.6</ele>
        <time>2025-01-19T08:28:53Z</time>
      </trkpt>
      <trkpt lat="43.43395" lon="6.65819">
        <ele>28.8</ele>
        <time>2025-01-19T08:28:54Z</time>
      </trkpt>
      <trkpt lat="43.43394" lon="6.65819">
        <ele>28.8</ele>
        <time>2025-01-19T08:28:55Z</time>
      </trkpt>
      <trkpt lat="43.43393" lon="6.65818">
        <ele>28.9</ele>
        <time>2025-01-19T08:28:56Z</time>
      </trkpt>
      <trkpt lat="43.43392" lon="6.65817">
        <ele>29.1</ele>
        <time>2025-01-19T08:28:57Z</time>
      </trkpt>
      <trkpt lat="43.43391" lon="6.65817">
        <ele>29.3</ele>
        <time>2025-01-19T08:28:58Z</time>
      </trkpt>
      <trkpt lat="43.4339" lon="6.65817">
        <ele>29.6</ele>
        <time>2025-01-19T08:28:59Z</time>
      </trkpt>
      <trkpt lat="43.4339" lon="6.65816">
        <ele>29.8</ele>
        <time>2025-01-19T08:29:00Z</time>
      </trkpt>
      <trkpt lat="43.43389" lon="6.65816">
        <ele>30</ele>
        <time>2025-01-19T08:29:01Z</time>
      </trkpt>
      <trkpt lat="43.43388" lon="6.65816">
        <ele>30.1</ele>
        <time>2025-01-19T08:29:02Z</time>
      </trkpt>
      <trkpt lat="43.43388" lon="6.65816">
        <ele>30.2</ele>
        <time>2025-01-19T08:29:03Z</time>
      </trkpt>
      <trkpt lat="43.43388" lon="6.65816">
        <ele>30.2</ele>
        <time>2025-01-19T08:29:04Z</time>
      </trkpt>
      <trkpt lat="43.43387" lon="6.65816">
        <ele>30.2</ele>
        <time>2025-01-19T08:29:05Z</time>
      </trkpt>
      <trkpt lat="43.43387" lon="6.65816">
        <ele>30.2</ele>
        <time>2025-01-19T08:29:06Z</time>
      </trkpt>
      <trkpt lat="43.43386" lon="6.65815">
        <ele>30.1</ele>
        <time>2025-01-19T08:29:07Z</time>
      </trkpt>
      <trkpt lat="43.43386" lon="6.65815">
        <ele>30.1</ele>
        <time>2025-01-19T08:29:08Z</time>
      </trkpt>
      <trkpt lat="43.43386" lon="6.65814">
        <ele>30.2</ele>
        <time>2025-01-19T08:29:09Z</time>
      </trkpt>
      <trkpt lat="43.43385" lon="6.65814">
        <ele>30.2</ele>
        <time>2025-01-19T08:29:10Z</time>
      </trkpt>
      <trkpt lat="43.43384" lon="6.65813">
        <ele>30.3</ele>
        <time>2025-01-19T08:29:11Z</time>
      </trkpt>
      <trkpt lat="43.43384" lon="6.65812">
        <ele>30.5</ele>
        <time>2025-01-19T08:29:12Z</time>
      </trkpt>
      <trkpt lat="43.43383" lon="6.65811">
        <ele>30.6</ele>
        <time>2025-01-19T08:29:13Z</time>
      </trkpt>
      <trkpt lat="43.43383" lon="6.65811">
        <ele>30.7</ele>
        <time>2025-01-19T08:29:14Z</time>
      </trkpt>
      <trkpt lat="43.43383" lon="6.65809">
        <ele>30.8</ele>
        <time>2025-01-19T08:29:15Z</time>
      </trkpt>
      <trkpt lat="43.43383" lon="6.65808">
        <ele>30.8</ele>
        <time>2025-01-19T08:29:16Z</time>
      </trkpt>
      <trkpt lat="43.43382" lon="6.65807">
        <ele>30.9</ele>
        <time>2025-01-19T08:29:17Z</time>
      </trkpt>
      <trkpt lat="43.43381" lon="6.65805">
        <ele>31.1</ele>
        <time>2025-01-19T08:29:18Z</time>
      </trkpt>
      <trkpt lat="43.4338" lon="6.65805">
        <ele>31.2</ele>
        <time>2025-01-19T08:29:19Z</time>
      </trkpt>
      <trkpt lat="43.43379" lon="6.65804">
        <ele>31.3</ele>
        <time>2025-01-19T08:29:20Z</time>
      </trkpt>
      <trkpt lat="43.43379" lon="6.65804">
        <ele>31.4</ele>
        <time>2025-01-19T08:29:21Z</time>
      </trkpt>
      <trkpt lat="43.43378" lon="6.65803">
        <ele>31.5</ele>
        <time>2025-01-19T08:29:22Z</time>
      </trkpt>
      <trkpt lat="43.43377" lon="6.65803">
        <ele>31.5</ele>
        <time>2025-01-19T08:29:23Z</time>
      </trkpt>
      <trkpt lat="43.43377" lon="6.65803">
        <ele>31.7</ele>
        <time>2025-01-19T08:29:24Z</time>
      </trkpt>
      <trkpt lat="43.43376" lon="6.65803">
        <ele>31.8</ele>
        <time>2025-01-19T08:29:25Z</time>
      </trkpt>
      <trkpt lat="43.43375" lon="6.65803">
        <ele>31.8</ele>
        <time>2025-01-19T08:29:26Z</time>
      </trkpt>
      <trkpt lat="43.43374" lon="6.65803">
        <ele>31.9</ele>
        <time>2025-01-19T08:29:27Z</time>
      </trkpt>
      <trkpt lat="43.43374" lon="6.65803">
        <ele>32</ele>
        <time>2025-01-19T08:29:28Z</time>
      </trkpt>
      <trkpt lat="43.43373" lon="6.65803">
        <ele>32.2</ele>
        <time>2025-01-19T08:29:29Z</time>
      </trkpt>
      <trkpt lat="43.43372" lon="6.65803">
        <ele>32.3</ele>
        <time>2025-01-19T08:29:30Z</time>
      </trkpt>
      <trkpt lat="43.43371" lon="6.65803">
        <ele>32.4</ele>
        <time>2025-01-19T08:29:31Z</time>
      </trkpt>
      <trkpt lat="43.4337" lon="6.65802">
        <ele>32.5</ele>
        <time>2025-01-19T08:29:32Z</time>
      </trkpt>
      <trkpt lat="43.43369" lon="6.65802">
        <ele>32.7</ele>
        <time>2025-01-19T08:29:33Z</time>
      </trkpt>
      <trkpt lat="43.43368" lon="6.65803">
        <ele>32.8</ele>
        <time>2025-01-19T08:29:34Z</time>
      </trkpt>
      <trkpt lat="43.43367" lon="6.65803">
        <ele>32.9</ele>
        <time>2025-01-19T08:29:35Z</time>
      </trkpt>
      <trkpt lat="43.43366" lon="6.65803">
        <ele>33</ele>
        <time>2025-01-19T08:29:36Z</time>
      </trkpt>
      <trkpt lat="43.43364" lon="6.65803">
        <ele>33.2</ele>
        <time>2025-01-19T08:29:37Z</time>
      </trkpt>
      <trkpt lat="43.43363" lon="6.65803">
        <ele>33.3</ele>
        <time>2025-01-19T08:29:38Z</time>
      </trkpt>
      <trkpt lat="43.43361" lon="6.65803">
        <ele>33.4</ele>
        <time>2025-01-19T08:29:39Z</time>
      </trkpt>
      <trkpt lat="43.4336" lon="6.65803">
        <ele>33.4</ele>
        <time>2025-01-19T08:29:40Z</time>
      </trkpt>
      <trkpt lat="43.43359" lon="6.65803">
        <ele>33.5</ele>
        <time>2025-01-19T08:29:41Z</time>
      </trkpt>
      <trkpt lat="43.43357" lon="6.65804">
        <ele>33.4</ele>
        <time>2025-01-19T08:29:42Z</time>
      </trkpt>
      <trkpt lat="43.43355" lon="6.65804">
        <ele>33.4</ele>
        <time>2025-01-19T08:29:43Z</time>
      </trkpt>
      <trkpt lat="43.43354" lon="6.65804">
        <ele>33.5</ele>
        <time>2025-01-19T08:29:44Z</time>
      </trkpt>
      <trkpt lat="43.43353" lon="6.65804">
        <ele>33.6</ele>
        <time>2025-01-19T08:29:45Z</time>
      </trkpt>
      <trkpt lat="43.43351" lon="6.65804">
        <ele>33.7</ele>
        <time>2025-01-19T08:29:46Z</time>
      </trkpt>
      <trkpt lat="43.4335" lon="6.65805">
        <ele>33.8</ele>
        <time>2025-01-19T08:29:47Z</time>
      </trkpt>
      <trkpt lat="43.43349" lon="6.65805">
        <ele>33.8</ele>
        <time>2025-01-19T08:29:48Z</time>
      </trkpt>
      <trkpt lat="43.43348" lon="6.65804">
        <ele>33.9</ele>
        <time>2025-01-19T08:29:49Z</time>
      </trkpt>
      <trkpt lat="43.43347" lon="6.65804">
        <ele>33.9</ele>
        <time>2025-01-19T08:29:50Z</time>
      </trkpt>
      <trkpt lat="43.43345" lon="6.65803">
        <ele>34</ele>
        <time>2025-01-19T08:29:51Z</time>
      </trkpt>
      <trkpt lat="43.43345" lon="6.65803">
        <ele>34.1</ele>
        <time>2025-01-19T08:29:52Z</time>
      </trkpt>
      <trkpt lat="43.43344" lon="6.65802">
        <ele>34.2</ele>
        <time>2025-01-19T08:29:53Z</time>
      </trkpt>
      <trkpt lat="43.43342" lon="6.65801">
        <ele>34.3</ele>
        <time>2025-01-19T08:29:54Z</time>
      </trkpt>
      <trkpt lat="43.43342" lon="6.65801">
        <ele>34.4</ele>
        <time>2025-01-19T08:29:55Z</time>
      </trkpt>
      <trkpt lat="43.43341" lon="6.658">
        <ele>34.4</ele>
        <time>2025-01-19T08:29:56Z</time>
      </trkpt>
      <trkpt lat="43.4334" lon="6.65799">
        <ele>34.4</ele>
        <time>2025-01-19T08:29:57Z</time>
      </trkpt>
      <trkpt lat="43.43339" lon="6.65798">
        <ele>34.5</ele>
        <time>2025-01-19T08:29:58Z</time>
      </trkpt>
      <trkpt lat="43.43338" lon="6.65798">
        <ele>34.6</ele>
        <time>2025-01-19T08:29:59Z</time>
      </trkpt>
      <trkpt lat="43.43337" lon="6.65798">
        <ele>34.6</ele>
        <time>2025-01-19T08:30:00Z</time>
      </trkpt>
      <trkpt lat="43.43336" lon="6.65797">
        <ele>34.7</ele>
        <time>2025-01-19T08:30:01Z</time>
      </trkpt>
      <trkpt lat="43.43335" lon="6.65797">
        <ele>34.9</ele>
        <time>2025-01-19T08:30:02Z</time>
      </trkpt>
      <trkpt lat="43.43334" lon="6.65797">
        <ele>35.1</ele>
        <time>2025-01-19T08:30:03Z</time>
      </trkpt>
      <trkpt lat="43.43333" lon="6.65798">
        <ele>35.3</ele>
        <time>2025-01-19T08:30:04Z</time>
      </trkpt>
      <trkpt lat="43.43332" lon="6.65798">
        <ele>35.4</ele>
        <time>2025-01-19T08:30:05Z</time>
      </trkpt>
      <trkpt lat="43.43331" lon="6.65799">
        <ele>35.5</ele>
        <time>2025-01-19T08:30:06Z</time>
      </trkpt>
      <trkpt lat="43.4333" lon="6.65799">
        <ele>35.6</ele>
        <time>2025-01-19T08:30:07Z</time>
      </trkpt>
      <trkpt lat="43.43329" lon="6.65799">
        <ele>35.7</ele>
        <time>2025-01-19T08:30:08Z</time>
      </trkpt>
      <trkpt lat="43.43328" lon="6.65798">
        <ele>35.8</ele>
        <time>2025-01-19T08:30:09Z</time>
      </trkpt>
      <trkpt lat="43.43328" lon="6.65799">
        <ele>35.9</ele>
        <time>2025-01-19T08:30:10Z</time>
      </trkpt>
      <trkpt lat="43.43327" lon="6.65798">
        <ele>36</ele>
        <time>2025-01-19T08:30:11Z</time>
      </trkpt>
      <trkpt lat="43.43327" lon="6.65798">
        <ele>36</ele>
        <time>2025-01-19T08:30:12Z</time>
      </trkpt>
      <trkpt lat="43.43327" lon="6.65797">
        <ele>36.1</ele>
        <time>2025-01-19T08:30:13Z</time>
      </trkpt>
      <trkpt lat="43.43326" lon="6.65797">
        <ele>36.2</ele>
        <time>2025-01-19T08:30:14Z</time>
      </trkpt>
      <trkpt lat="43.43326" lon="6.65796">
        <ele>36.3</ele>
        <time>2025-01-19T08:30:15Z</time>
      </trkpt>
      <trkpt lat="43.43325" lon="6.65795">
        <ele>36.4</ele>
        <time>2025-01-19T08:30:16Z</time>
      </trkpt>
      <trkpt lat="43.43325" lon="6.65794">
        <ele>36.6</ele>
        <time>2025-01-19T08:30:17Z</time>
      </trkpt>
      <trkpt lat="43.43325" lon="6.65793">
        <ele>36.7</ele>
        <time>2025-01-19T08:30:18Z</time>
      </trkpt>
      <trkpt lat="43.43325" lon="6.65792">
        <ele>36.8</ele>
        <time>2025-01-19T08:30:19Z</time>
      </trkpt>
      <trkpt lat="43.43324" lon="6.65791">
        <ele>36.8</ele>
        <time>2025-01-19T08:30:20Z</time>
      </trkpt>
      <trkpt lat="43.43324" lon="6.6579">
        <ele>37</ele>
        <time>2025-01-19T08:30:21Z</time>
      </trkpt>
      <trkpt lat="43.43324" lon="6.65788">
        <ele>37</ele>
        <time>2025-01-19T08:30:22Z</time>
      </trkpt>
      <trkpt lat="43.43323" lon="6.65787">
        <ele>37.3</ele>
        <time>2025-01-19T08:30:23Z</time>
      </trkpt>
      <trkpt lat="43.43323" lon="6.65787">
        <ele>37.4</ele>
        <time>2025-01-19T08:30:24Z</time>
      </trkpt>
      <trkpt lat="43.43322" lon="6.65786">
        <ele>37.6</ele>
        <time>2025-01-19T08:30:25Z</time>
      </trkpt>
      <trkpt lat="43.43322" lon="6.65785">
        <ele>37.7</ele>
        <time>2025-01-19T08:30:26Z</time>
      </trkpt>
      <trkpt lat="43.43322" lon="6.65784">
        <ele>37.7</ele>
        <time>2025-01-19T08:30:27Z</time>
      </trkpt>
      <trkpt lat="43.43322" lon="6.65782">
        <ele>37.9</ele>
        <time>2025-01-19T08:30:28Z</time>
      </trkpt>
      <trkpt lat="43.43322" lon="6.6578">
        <ele>38</ele>
        <time>2025-01-19T08:30:29Z</time>
      </trkpt>
      <trkpt lat="43.43322" lon="6.65779">
        <ele>38.1</ele>
        <time>2025-01-19T08:30:30Z</time>
      </trkpt>
      <trkpt lat="43.43322" lon="6.65778">
        <ele>38.3</ele>
        <time>2025-01-19T08:30:31Z</time>
      </trkpt>
      <trkpt lat="43.43322" lon="6.65777">
        <ele>38.5</ele>
        <time>2025-01-19T08:30:32Z</time>
      </trkpt>
      <trkpt lat="43.43322" lon="6.65777">
        <ele>38.7</ele>
        <time>2025-01-19T08:30:33Z</time>
      </trkpt>
      <trkpt lat="43.43321" lon="6.65776">
        <ele>38.8</ele>
        <time>2025-01-19T08:30:34Z</time>
      </trkpt>
      <trkpt lat="43.43321" lon="6.65775">
        <ele>38.9</ele>
        <time>2025-01-19T08:30:35Z</time>
      </trkpt>
      <trkpt lat="43.4332" lon="6.65774">
        <ele>39.1</ele>
        <time>2025-01-19T08:30:36Z</time>
      </trkpt>
      <trkpt lat="43.43319" lon="6.65773">
        <ele>39.2</ele>
        <time>2025-01-19T08:30:37Z</time>
      </trkpt>
      <trkpt lat="43.43319" lon="6.65772">
        <ele>39.4</ele>
        <time>2025-01-19T08:30:38Z</time>
      </trkpt>
      <trkpt lat="43.43318" lon="6.65771">
        <ele>39.5</ele>
        <time>2025-01-19T08:30:39Z</time>
      </trkpt>
      <trkpt lat="43.43317" lon="6.65771">
        <ele>39.6</ele>
        <time>2025-01-19T08:30:40Z</time>
      </trkpt>
      <trkpt lat="43.43317" lon="6.6577">
        <ele>39.7</ele>
        <time>2025-01-19T08:30:41Z</time>
      </trkpt>
      <trkpt lat="43.43317" lon="6.65768">
        <ele>39.7</ele>
        <time>2025-01-19T08:30:42Z</time>
      </trkpt>
      <trkpt lat="43.43316" lon="6.65767">
        <ele>39.8</ele>
        <time>2025-01-19T08:30:43Z</time>
      </trkpt>
      <trkpt lat="43.43317" lon="6.65766">
        <ele>39.8</ele>
        <time>2025-01-19T08:30:44Z</time>
      </trkpt>
      <trkpt lat="43.43316" lon="6.65765">
        <ele>39.8</ele>
        <time>2025-01-19T08:30:45Z</time>
      </trkpt>
      <trkpt lat="43.43316" lon="6.65764">
        <ele>40</ele>
        <time>2025-01-19T08:30:46Z</time>
      </trkpt>
      <trkpt lat="43.43316" lon="6.65762">
        <ele>40.2</ele>
        <time>2025-01-19T08:30:47Z</time>
      </trkpt>
      <trkpt lat="43.43316" lon="6.65761">
        <ele>40.2</ele>
        <time>2025-01-19T08:30:48Z</time>
      </trkpt>
      <trkpt lat="43.43315" lon="6.65761">
        <ele>40.3</ele>
        <time>2025-01-19T08:30:49Z</time>
      </trkpt>
      <trkpt lat="43.43314" lon="6.6576">
        <ele>40.3</ele>
        <time>2025-01-19T08:30:50Z</time>
      </trkpt>
      <trkpt lat="43.43313" lon="6.65759">
        <ele>40.4</ele>
        <time>2025-01-19T08:30:51Z</time>
      </trkpt>
      <trkpt lat="43.43313" lon="6.65758">
        <ele>40.5</ele>
        <time>2025-01-19T08:30:52Z</time>
      </trkpt>
      <trkpt lat="43.43312" lon="6.65757">
        <ele>40.6</ele>
        <time>2025-01-19T08:30:53Z</time>
      </trkpt>
      <trkpt lat="43.43312" lon="6.65756">
        <ele>40.6</ele>
        <time>2025-01-19T08:30:54Z</time>
      </trkpt>
      <trkpt lat="43.43311" lon="6.65754">
        <ele>40.7</ele>
        <time>2025-01-19T08:30:55Z</time>
      </trkpt>
      <trkpt lat="43.43311" lon="6.65753">
        <ele>40.8</ele>
        <time>2025-01-19T08:30:56Z</time>
      </trkpt>
      <trkpt lat="43.4331" lon="6.65752">
        <ele>40.8</ele>
        <time>2025-01-19T08:30:57Z</time>
      </trkpt>
      <trkpt lat="43.43311" lon="6.65751">
        <ele>40.9</ele>
        <time>2025-01-19T08:30:58Z</time>
      </trkpt>
      <trkpt lat="43.4331" lon="6.6575">
        <ele>41</ele>
        <time>2025-01-19T08:30:59Z</time>
      </trkpt>
      <trkpt lat="43.4331" lon="6.65749">
        <ele>41</ele>
        <time>2025-01-19T08:31:00Z</time>
      </trkpt>
      <trkpt lat="43.43309" lon="6.65748">
        <ele>41.1</ele>
        <time>2025-01-19T08:31:01Z</time>
      </trkpt>
      <trkpt lat="43.43309" lon="6.65746">
        <ele>41.1</ele>
        <time>2025-01-19T08:31:02Z</time>
      </trkpt>
      <trkpt lat="43.43309" lon="6.65745">
        <ele>41.2</ele>
        <time>2025-01-19T08:31:03Z</time>
      </trkpt>
      <trkpt lat="43.43308" lon="6.65745">
        <ele>41.3</ele>
        <time>2025-01-19T08:31:04Z</time>
      </trkpt>
      <trkpt lat="43.43308" lon="6.65744">
        <ele>41.3</ele>
        <time>2025-01-19T08:31:05Z</time>
      </trkpt>
      <trkpt lat="43.43308" lon="6.65743">
        <ele>41.5</ele>
        <time>2025-01-19T08:31:06Z</time>
      </trkpt>
      <trkpt lat="43.43307" lon="6.65742">
        <ele>41.6</ele>
        <time>2025-01-19T08:31:07Z</time>
      </trkpt>
      <trkpt lat="43.43307" lon="6.65742">
        <ele>41.7</ele>
        <time>2025-01-19T08:31:08Z</time>
      </trkpt>
      <trkpt lat="43.43306" lon="6.65741">
        <ele>41.7</ele>
        <time>2025-01-19T08:31:09Z</time>
      </trkpt>
      <trkpt lat="43.43306" lon="6.6574">
        <ele>41.8</ele>
        <time>2025-01-19T08:31:10Z</time>
      </trkpt>
      <trkpt lat="43.43307" lon="6.65739">
        <ele>41.8</ele>
        <time>2025-01-19T08:31:11Z</time>
      </trkpt>
      <trkpt lat="43.43308" lon="6.65738">
        <ele>41.8</ele>
        <time>2025-01-19T08:31:12Z</time>
      </trkpt>
      <trkpt lat="43.43309" lon="6.65737">
        <ele>41.8</ele>
        <time>2025-01-19T08:31:13Z</time>
      </trkpt>
      <trkpt lat="43.43308" lon="6.65735">
        <ele>41.9</ele>
        <time>2025-01-19T08:31:14Z</time>
      </trkpt>
      <trkpt lat="43.43308" lon="6.65734">
        <ele>41.9</ele>
        <time>2025-01-19T08:31:15Z</time>
      </trkpt>
      <trkpt lat="43.43308" lon="6.65733">
        <ele>42</ele>
        <time>2025-01-19T08:31:16Z</time>
      </trkpt>
      <trkpt lat="43.43307" lon="6.65732">
        <ele>42.1</ele>
        <time>2025-01-19T08:31:17Z</time>
      </trkpt>
      <trkpt lat="43.43307" lon="6.65732">
        <ele>42.2</ele>
        <time>2025-01-19T08:31:18Z</time>
      </trkpt>
      <trkpt lat="43.43306" lon="6.65731">
        <ele>42.2</ele>
        <time>2025-01-19T08:31:19Z</time>
      </trkpt>
      <trkpt lat="43.43305" lon="6.65731">
        <ele>42.3</ele>
        <time>2025-01-19T08:31:20Z</time>
      </trkpt>
      <trkpt lat="43.43305" lon="6.6573">
        <ele>42.5</ele>
        <time>2025-01-19T08:31:21Z</time>
      </trkpt>
      <trkpt lat="43.43305" lon="6.65729">
        <ele>42.7</ele>
        <time>2025-01-19T08:31:22Z</time>
      </trkpt>
      <trkpt lat="43.43305" lon="6.65728">
        <ele>42.9</ele>
        <time>2025-01-19T08:31:23Z</time>
      </trkpt>
      <trkpt lat="43.43304" lon="6.65727">
        <ele>43</ele>
        <time>2025-01-19T08:31:24Z</time>
      </trkpt>
      <trkpt lat="43.43304" lon="6.65725">
        <ele>43.2</ele>
        <time>2025-01-19T08:31:25Z</time>
      </trkpt>
      <trkpt lat="43.43304" lon="6.65725">
        <ele>43.4</ele>
        <time>2025-01-19T08:31:26Z</time>
      </trkpt>
      <trkpt lat="43.43304" lon="6.65724">
        <ele>43.5</ele>
        <time>2025-01-19T08:31:27Z</time>
      </trkpt>
      <trkpt lat="43.43304" lon="6.65723">
        <ele>43.7</ele>
        <time>2025-01-19T08:31:28Z</time>
      </trkpt>
      <trkpt lat="43.43303" lon="6.65721">
        <ele>43.8</ele>
        <time>2025-01-19T08:31:29Z</time>
      </trkpt>
      <trkpt lat="43.43302" lon="6.6572">
        <ele>43.9</ele>
        <time>2025-01-19T08:31:30Z</time>
      </trkpt>
      <trkpt lat="43.43302" lon="6.65719">
        <ele>44</ele>
        <time>2025-01-19T08:31:31Z</time>
      </trkpt>
      <trkpt lat="43.43301" lon="6.65718">
        <ele>44.2</ele>
        <time>2025-01-19T08:31:32Z</time>
      </trkpt>
      <trkpt lat="43.43302" lon="6.65717">
        <ele>44.1</ele>
        <time>2025-01-19T08:31:33Z</time>
      </trkpt>
      <trkpt lat="43.43301" lon="6.65716">
        <ele>44.2</ele>
        <time>2025-01-19T08:31:34Z</time>
      </trkpt>
      <trkpt lat="43.43301" lon="6.65715">
        <ele>44.4</ele>
        <time>2025-01-19T08:31:35Z</time>
      </trkpt>
      <trkpt lat="43.433" lon="6.65715">
        <ele>44.5</ele>
        <time>2025-01-19T08:31:36Z</time>
      </trkpt>
      <trkpt lat="43.433" lon="6.65714">
        <ele>44.5</ele>
        <time>2025-01-19T08:31:37Z</time>
      </trkpt>
      <trkpt lat="43.433" lon="6.65714">
        <ele>44.7</ele>
        <time>2025-01-19T08:31:38Z</time>
      </trkpt>
      <trkpt lat="43.43299" lon="6.65712">
        <ele>44.8</ele>
        <time>2025-01-19T08:31:39Z</time>
      </trkpt>
      <trkpt lat="43.43299" lon="6.65711">
        <ele>44.8</ele>
        <time>2025-01-19T08:31:40Z</time>
      </trkpt>
      <trkpt lat="43.43298" lon="6.6571">
        <ele>44.9</ele>
        <time>2025-01-19T08:31:41Z</time>
      </trkpt>
      <trkpt lat="43.43298" lon="6.65709">
        <ele>44.9</ele>
        <time>2025-01-19T08:31:42Z</time>
      </trkpt>
      <trkpt lat="43.43298" lon="6.65708">
        <ele>44.9</ele>
        <time>2025-01-19T08:31:43Z</time>
      </trkpt>
      <trkpt lat="43.43297" lon="6.65706">
        <ele>44.8</ele>
        <time>2025-01-19T08:31:44Z</time>
      </trkpt>
      <trkpt lat="43.43296" lon="6.65705">
        <ele>44.8</ele>
        <time>2025-01-19T08:31:45Z</time>
      </trkpt>
      <trkpt lat="43.43295" lon="6.65703">
        <ele>44.9</ele>
        <time>2025-01-19T08:31:46Z</time>
      </trkpt>
      <trkpt lat="43.43295" lon="6.65702">
        <ele>45</ele>
        <time>2025-01-19T08:31:47Z</time>
      </trkpt>
      <trkpt lat="43.43294" lon="6.65701">
        <ele>45</ele>
        <time>2025-01-19T08:31:48Z</time>
      </trkpt>
      <trkpt lat="43.43293" lon="6.65699">
        <ele>45</ele>
        <time>2025-01-19T08:31:49Z</time>
      </trkpt>
      <trkpt lat="43.43292" lon="6.65698">
        <ele>45</ele>
        <time>2025-01-19T08:31:50Z</time>
      </trkpt>
      <trkpt lat="43.43291" lon="6.65697">
        <ele>45.1</ele>
        <time>2025-01-19T08:31:51Z</time>
      </trkpt>
      <trkpt lat="43.43291" lon="6.65696">
        <ele>45.1</ele>
        <time>2025-01-19T08:31:52Z</time>
      </trkpt>
      <trkpt lat="43.4329" lon="6.65695">
        <ele>45.1</ele>
        <time>2025-01-19T08:31:53Z</time>
      </trkpt>
      <trkpt lat="43.43289" lon="6.65694">
        <ele>45.1</ele>
        <time>2025-01-19T08:31:54Z</time>
      </trkpt>
      <trkpt lat="43.43288" lon="6.65693">
        <ele>45.1</ele>
        <time>2025-01-19T08:31:55Z</time>
      </trkpt>
      <trkpt lat="43.43288" lon="6.65692">
        <ele>45.1</ele>
        <time>2025-01-19T08:31:56Z</time>
      </trkpt>
      <trkpt lat="43.43287" lon="6.6569">
        <ele>45.2</ele>
        <time>2025-01-19T08:31:57Z</time>
      </trkpt>
      <trkpt lat="43.43287" lon="6.65689">
        <ele>45.2</ele>
        <time>2025-01-19T08:31:58Z</time>
      </trkpt>
      <trkpt lat="43.43286" lon="6.65687">
        <ele>45.1</ele>
        <time>2025-01-19T08:31:59Z</time>
      </trkpt>
      <trkpt lat="43.43286" lon="6.65686">
        <ele>45.1</ele>
        <time>2025-01-19T08:32:00Z</time>
      </trkpt>
      <trkpt lat="43.43285" lon="6.65684">
        <ele>45</ele>
        <time>2025-01-19T08:32:01Z</time>
      </trkpt>
      <trkpt lat="43.43284" lon="6.65683">
        <ele>44.9</ele>
        <time>2025-01-19T08:32:02Z</time>
      </trkpt>
      <trkpt lat="43.43284" lon="6.65681">
        <ele>44.8</ele>
        <time>2025-01-19T08:32:03Z</time>
      </trkpt>
      <trkpt lat="43.43283" lon="6.6568">
        <ele>44.8</ele>
        <time>2025-01-19T08:32:04Z</time>
      </trkpt>
      <trkpt lat="43.43283" lon="6.65678">
        <ele>44.8</ele>
        <time>2025-01-19T08:32:05Z</time>
      </trkpt>
      <trkpt lat="43.43282" lon="6.65676">
        <ele>44.8</ele>
        <time>2025-01-19T08:32:06Z</time>
      </trkpt>
      <trkpt lat="43.43281" lon="6.65675">
        <ele>44.8</ele>
        <time>2025-01-19T08:32:07Z</time>
      </trkpt>
      <trkpt lat="43.43281" lon="6.65673">
        <ele>44.9</ele>
        <time>2025-01-19T08:32:08Z</time>
      </trkpt>
      <trkpt lat="43.4328" lon="6.65672">
        <ele>45</ele>
        <time>2025-01-19T08:32:09Z</time>
      </trkpt>
      <trkpt lat="43.43279" lon="6.65671">
        <ele>45</ele>
        <time>2025-01-19T08:32:10Z</time>
      </trkpt>
      <trkpt lat="43.43279" lon="6.65669">
        <ele>45</ele>
        <time>2025-01-19T08:32:11Z</time>
      </trkpt>
      <trkpt lat="43.43279" lon="6.65668">
        <ele>45.1</ele>
        <time>2025-01-19T08:32:12Z</time>
      </trkpt>
      <trkpt lat="43.43278" lon="6.65667">
        <ele>45.1</ele>
        <time>2025-01-19T08:32:13Z</time>
      </trkpt>
      <trkpt lat="43.43278" lon="6.65665">
        <ele>45</ele>
        <time>2025-01-19T08:32:14Z</time>
      </trkpt>
      <trkpt lat="43.43278" lon="6.65664">
        <ele>45.1</ele>
        <time>2025-01-19T08:32:15Z</time>
      </trkpt>
      <trkpt lat="43.43278" lon="6.65662">
        <ele>45.1</ele>
        <time>2025-01-19T08:32:16Z</time>
      </trkpt>
      <trkpt lat="43.43278" lon="6.65661">
        <ele>45.2</ele>
        <time>2025-01-19T08:32:17Z</time>
      </trkpt>
      <trkpt lat="43.43278" lon="6.6566">
        <ele>45.3</ele>
        <time>2025-01-19T08:32:18Z</time>
      </trkpt>
      <trkpt lat="43.43278" lon="6.65659">
        <ele>45.3</ele>
        <time>2025-01-19T08:32:19Z</time>
      </trkpt>
      <trkpt lat="43.43278" lon="6.65657">
        <ele>45.3</ele>
        <time>2025-01-19T08:32:20Z</time>
      </trkpt>
      <trkpt lat="43.43278" lon="6.65656">
        <ele>45.3</ele>
        <time>2025-01-19T08:32:21Z</time>
      </trkpt>
      <trkpt lat="43.43279" lon="6.65655">
        <ele>45.3</ele>
        <time>2025-01-19T08:32:22Z</time>
      </trkpt>
      <trkpt lat="43.43279" lon="6.65654">
        <ele>45.4</ele>
        <time>2025-01-19T08:32:23Z</time>
      </trkpt>
      <trkpt lat="43.4328" lon="6.65652">
        <ele>45.4</ele>
        <time>2025-01-19T08:32:24Z</time>
      </trkpt>
      <trkpt lat="43.4328" lon="6.65651">
        <ele>45.4</ele>
        <time>2025-01-19T08:32:25Z</time>
      </trkpt>
      <trkpt lat="43.4328" lon="6.6565">
        <ele>45.4</ele>
        <time>2025-01-19T08:32:26Z</time>
      </trkpt>
      <trkpt lat="43.4328" lon="6.65649">
        <ele>45.4</ele>
        <time>2025-01-19T08:32:27Z</time>
      </trkpt>
      <trkpt lat="43.43281" lon="6.65647">
        <ele>45.4</ele>
        <time>2025-01-19T08:32:28Z</time>
      </trkpt>
      <trkpt lat="43.43281" lon="6.65646">
        <ele>45.5</ele>
        <time>2025-01-19T08:32:29Z</time>
      </trkpt>
      <trkpt lat="43.43281" lon="6.65645">
        <ele>45.5</ele>
        <time>2025-01-19T08:32:30Z</time>
      </trkpt>
      <trkpt lat="43.43281" lon="6.65644">
        <ele>45.6</ele>
        <time>2025-01-19T08:32:31Z</time>
      </trkpt>
      <trkpt lat="43.43282" lon="6.65643">
        <ele>45.7</ele>
        <time>2025-01-19T08:32:32Z</time>
      </trkpt>
      <trkpt lat="43.43282" lon="6.65642">
        <ele>45.8</ele>
        <time>2025-01-19T08:32:33Z</time>
      </trkpt>
      <trkpt lat="43.43282" lon="6.6564">
        <ele>46</ele>
        <time>2025-01-19T08:32:34Z</time>
      </trkpt>
      <trkpt lat="43.43282" lon="6.65639">
        <ele>46.2</ele>
        <time>2025-01-19T08:32:35Z</time>
      </trkpt>
      <trkpt lat="43.43282" lon="6.65638">
        <ele>46.3</ele>
        <time>2025-01-19T08:32:36Z</time>
      </trkpt>
      <trkpt lat="43.43282" lon="6.65636">
        <ele>46.4</ele>
        <time>2025-01-19T08:32:37Z</time>
      </trkpt>
      <trkpt lat="43.43282" lon="6.65635">
        <ele>46.5</ele>
        <time>2025-01-19T08:32:38Z</time>
      </trkpt>
      <trkpt lat="43.43282" lon="6.65633">
        <ele>46.6</ele>
        <time>2025-01-19T08:32:39Z</time>
      </trkpt>
      <trkpt lat="43.43282" lon="6.65632">
        <ele>46.7</ele>
        <time>2025-01-19T08:32:40Z</time>
      </trkpt>
      <trkpt lat="43.43282" lon="6.65631">
        <ele>46.9</ele>
        <time>2025-01-19T08:32:41Z</time>
      </trkpt>
      <trkpt lat="43.43282" lon="6.65631">
        <ele>47.1</ele>
        <time>2025-01-19T08:32:42Z</time>
      </trkpt>
      <trkpt lat="43.43282" lon="6.6563">
        <ele>47.3</ele>
        <time>2025-01-19T08:32:43Z</time>
      </trkpt>
      <trkpt lat="43.43282" lon="6.65629">
        <ele>47.5</ele>
        <time>2025-01-19T08:32:44Z</time>
      </trkpt>
      <trkpt lat="43.43282" lon="6.65628">
        <ele>47.7</ele>
        <time>2025-01-19T08:32:45Z</time>
      </trkpt>
      <trkpt lat="43.43282" lon="6.65627">
        <ele>47.8</ele>
        <time>2025-01-19T08:32:46Z</time>
      </trkpt>
      <trkpt lat="43.43283" lon="6.65626">
        <ele>48.1</ele>
        <time>2025-01-19T08:32:47Z</time>
      </trkpt>
      <trkpt lat="43.43283" lon="6.65625">
        <ele>48.2</ele>
        <time>2025-01-19T08:32:48Z</time>
      </trkpt>
      <trkpt lat="43.43283" lon="6.65623">
        <ele>48.3</ele>
        <time>2025-01-19T08:32:49Z</time>
      </trkpt>
      <trkpt lat="43.43283" lon="6.65622">
        <ele>48.4</ele>
        <time>2025-01-19T08:32:50Z</time>
      </trkpt>
      <trkpt lat="43.43284" lon="6.6562">
        <ele>48.7</ele>
        <time>2025-01-19T08:32:51Z</time>
      </trkpt>
      <trkpt lat="43.43284" lon="6.65618">
        <ele>48.9</ele>
        <time>2025-01-19T08:32:52Z</time>
      </trkpt>
      <trkpt lat="43.43284" lon="6.65617">
        <ele>49</ele>
        <time>2025-01-19T08:32:53Z</time>
      </trkpt>
      <trkpt lat="43.43283" lon="6.65616">
        <ele>49.1</ele>
        <time>2025-01-19T08:32:54Z</time>
      </trkpt>
      <trkpt lat="43.43283" lon="6.65615">
        <ele>49.1</ele>
        <time>2025-01-19T08:32:55Z</time>
      </trkpt>
      <trkpt lat="43.43283" lon="6.65613">
        <ele>49.2</ele>
        <time>2025-01-19T08:32:56Z</time>
      </trkpt>
      <trkpt lat="43.43283" lon="6.65612">
        <ele>49.3</ele>
        <time>2025-01-19T08:32:57Z</time>
      </trkpt>
      <trkpt lat="43.43283" lon="6.65611">
        <ele>49.4</ele>
        <time>2025-01-19T08:32:58Z</time>
      </trkpt>
      <trkpt lat="43.43284" lon="6.65609">
        <ele>49.6</ele>
        <time>2025-01-19T08:32:59Z</time>
      </trkpt>
      <trkpt lat="43.43283" lon="6.65607">
        <ele>49.7</ele>
        <time>2025-01-19T08:33:00Z</time>
      </trkpt>
      <trkpt lat="43.43283" lon="6.65605">
        <ele>49.8</ele>
        <time>2025-01-19T08:33:01Z</time>
      </trkpt>
      <trkpt lat="43.43283" lon="6.65604">
        <ele>49.8</ele>
        <time>2025-01-19T08:33:02Z</time>
      </trkpt>
      <trkpt lat="43.43283" lon="6.65603">
        <ele>49.8</ele>
        <time>2025-01-19T08:33:03Z</time>
      </trkpt>
      <trkpt lat="43.43283" lon="6.65602">
        <ele>49.8</ele>
        <time>2025-01-19T08:33:04Z</time>
      </trkpt>
      <trkpt lat="43.43282" lon="6.65601">
        <ele>49.7</ele>
        <time>2025-01-19T08:33:05Z</time>
      </trkpt>
      <trkpt lat="43.43282" lon="6.65599">
        <ele>49.8</ele>
        <time>2025-01-19T08:33:06Z</time>
      </trkpt>
      <trkpt lat="43.43281" lon="6.65598">
        <ele>49.9</ele>
        <time>2025-01-19T08:33:07Z</time>
      </trkpt>
      <trkpt lat="43.43281" lon="6.65597">
        <ele>50</ele>
        <time>2025-01-19T08:33:08Z</time>
      </trkpt>
      <trkpt lat="43.43281" lon="6.65596">
        <ele>50.1</ele>
        <time>2025-01-19T08:33:09Z</time>
      </trkpt>
      <trkpt lat="43.43281" lon="6.65595">
        <ele>50.3</ele>
        <time>2025-01-19T08:33:10Z</time>
      </trkpt>
      <trkpt lat="43.43282" lon="6.65594">
        <ele>50.4</ele>
        <time>2025-01-19T08:33:11Z</time>
      </trkpt>
      <trkpt lat="43.43281" lon="6.65592">
        <ele>50.5</ele>
        <time>2025-01-19T08:33:12Z</time>
      </trkpt>
      <trkpt lat="43.43281" lon="6.65592">
        <ele>50.5</ele>
        <time>2025-01-19T08:33:13Z</time>
      </trkpt>
      <trkpt lat="43.43281" lon="6.6559">
        <ele>50.7</ele>
        <time>2025-01-19T08:33:14Z</time>
      </trkpt>
      <trkpt lat="43.4328" lon="6.6559">
        <ele>50.9</ele>
        <time>2025-01-19T08:33:15Z</time>
      </trkpt>
      <trkpt lat="43.4328" lon="6.6559">
        <ele>51</ele>
        <time>2025-01-19T08:33:16Z</time>
      </trkpt>
      <trkpt lat="43.4328" lon="6.65589">
        <ele>51.1</ele>
        <time>2025-01-19T08:33:17Z</time>
      </trkpt>
      <trkpt lat="43.4328" lon="6.65587">
        <ele>51.2</ele>
        <time>2025-01-19T08:33:18Z</time>
      </trkpt>
      <trkpt lat="43.43279" lon="6.65586">
        <ele>51.3</ele>
        <time>2025-01-19T08:33:19Z</time>
      </trkpt>
      <trkpt lat="43.43279" lon="6.65585">
        <ele>51.4</ele>
        <time>2025-01-19T08:33:20Z</time>
      </trkpt>
      <trkpt lat="43.43278" lon="6.65584">
        <ele>51.5</ele>
        <time>2025-01-19T08:33:21Z</time>
      </trkpt>
      <trkpt lat="43.43277" lon="6.65583">
        <ele>51.6</ele>
        <time>2025-01-19T08:33:22Z</time>
      </trkpt>
      <trkpt lat="43.43276" lon="6.65582">
        <ele>51.7</ele>
        <time>2025-01-19T08:33:23Z</time>
      </trkpt>
      <trkpt lat="43.43274" lon="6.65581">
        <ele>51.7</ele>
        <time>2025-01-19T08:33:24Z</time>
      </trkpt>
      <trkpt lat="43.43273" lon="6.6558">
        <ele>51.8</ele>
        <time>2025-01-19T08:33:25Z</time>
      </trkpt>
      <trkpt lat="43.43272" lon="6.6558">
        <ele>52</ele>
        <time>2025-01-19T08:33:26Z</time>
      </trkpt>
      <trkpt lat="43.43271" lon="6.65579">
        <ele>52.2</ele>
        <time>2025-01-19T08:33:27Z</time>
      </trkpt>
      <trkpt lat="43.4327" lon="6.65579">
        <ele>52.3</ele>
        <time>2025-01-19T08:33:28Z</time>
      </trkpt>
      <trkpt lat="43.4327" lon="6.65578">
        <ele>52.4</ele>
        <time>2025-01-19T08:33:29Z</time>
      </trkpt>
      <trkpt lat="43.43269" lon="6.65578">
        <ele>52.4</ele>
        <time>2025-01-19T08:33:30Z</time>
      </trkpt>
      <trkpt lat="43.43268" lon="6.65577">
        <ele>52.4</ele>
        <time>2025-01-19T08:33:31Z</time>
      </trkpt>
      <trkpt lat="43.43268" lon="6.65576">
        <ele>52.5</ele>
        <time>2025-01-19T08:33:32Z</time>
      </trkpt>
      <trkpt lat="43.43267" lon="6.65574">
        <ele>52.6</ele>
        <time>2025-01-19T08:33:33Z</time>
      </trkpt>
      <trkpt lat="43.43267" lon="6.65573">
        <ele>52.7</ele>
        <time>2025-01-19T08:33:34Z</time>
      </trkpt>
      <trkpt lat="43.43266" lon="6.65573">
        <ele>52.7</ele>
        <time>2025-01-19T08:33:35Z</time>
      </trkpt>
      <trkpt lat="43.43266" lon="6.65572">
        <ele>52.9</ele>
        <time>2025-01-19T08:33:36Z</time>
      </trkpt>
      <trkpt lat="43.43266" lon="6.65571">
        <ele>53</ele>
        <time>2025-01-19T08:33:37Z</time>
      </trkpt>
      <trkpt lat="43.43265" lon="6.6557">
        <ele>53.1</ele>
        <time>2025-01-19T08:33:38Z</time>
      </trkpt>
      <trkpt lat="43.43264" lon="6.65569">
        <ele>53.2</ele>
        <time>2025-01-19T08:33:39Z</time>
      </trkpt>
      <trkpt lat="43.43264" lon="6.65568">
        <ele>53.2</ele>
        <time>2025-01-19T08:33:40Z</time>
      </trkpt>
      <trkpt lat="43.43263" lon="6.65567">
        <ele>53.4</ele>
        <time>2025-01-19T08:33:41Z</time>
      </trkpt>
      <trkpt lat="43.43262" lon="6.65567">
        <ele>53.4</ele>
        <time>2025-01-19T08:33:42Z</time>
      </trkpt>
      <trkpt lat="43.43261" lon="6.65566">
        <ele>53.5</ele>
        <time>2025-01-19T08:33:43Z</time>
      </trkpt>
      <trkpt lat="43.4326" lon="6.65565">
        <ele>53.6</ele>
        <time>2025-01-19T08:33:44Z</time>
      </trkpt>
      <trkpt lat="43.4326" lon="6.65565">
        <ele>53.7</ele>
        <time>2025-01-19T08:33:45Z</time>
      </trkpt>
      <trkpt lat="43.43259" lon="6.65564">
        <ele>53.7</ele>
        <time>2025-01-19T08:33:46Z</time>
      </trkpt>
      <trkpt lat="43.43258" lon="6.65563">
        <ele>53.7</ele>
        <time>2025-01-19T08:33:47Z</time>
      </trkpt>
      <trkpt lat="43.43257" lon="6.65562">
        <ele>53.8</ele>
        <time>2025-01-19T08:33:48Z</time>
      </trkpt>
      <trkpt lat="43.43256" lon="6.65561">
        <ele>53.8</ele>
        <time>2025-01-19T08:33:49Z</time>
      </trkpt>
      <trkpt lat="43.43255" lon="6.6556">
        <ele>53.8</ele>
        <time>2025-01-19T08:33:50Z</time>
      </trkpt>
      <trkpt lat="43.43255" lon="6.65559">
        <ele>53.8</ele>
        <time>2025-01-19T08:33:51Z</time>
      </trkpt>
      <trkpt lat="43.43254" lon="6.65558">
        <ele>53.9</ele>
        <time>2025-01-19T08:33:52Z</time>
      </trkpt>
      <trkpt lat="43.43253" lon="6.65557">
        <ele>53.9</ele>
        <time>2025-01-19T08:33:53Z</time>
      </trkpt>
      <trkpt lat="43.43252" lon="6.65556">
        <ele>54</ele>
        <time>2025-01-19T08:33:54Z</time>
      </trkpt>
      <trkpt lat="43.43252" lon="6.65555">
        <ele>54</ele>
        <time>2025-01-19T08:33:55Z</time>
      </trkpt>
      <trkpt lat="43.43252" lon="6.65554">
        <ele>54</ele>
        <time>2025-01-19T08:33:56Z</time>
      </trkpt>
      <trkpt lat="43.43251" lon="6.65553">
        <ele>54.1</ele>
        <time>2025-01-19T08:33:57Z</time>
      </trkpt>
      <trkpt lat="43.4325" lon="6.65552">
        <ele>54.2</ele>
        <time>2025-01-19T08:33:58Z</time>
      </trkpt>
      <trkpt lat="43.43249" lon="6.6555">
        <ele>54.3</ele>
        <time>2025-01-19T08:33:59Z</time>
      </trkpt>
      <trkpt lat="43.43248" lon="6.65549">
        <ele>54.4</ele>
        <time>2025-01-19T08:34:00Z</time>
      </trkpt>
      <trkpt lat="43.43247" lon="6.65549">
        <ele>54.5</ele>
        <time>2025-01-19T08:34:01Z</time>
      </trkpt>
      <trkpt lat="43.43247" lon="6.65549">
        <ele>54.7</ele>
        <time>2025-01-19T08:34:02Z</time>
      </trkpt>
      <trkpt lat="43.43247" lon="6.65548">
        <ele>54.8</ele>
        <time>2025-01-19T08:34:03Z</time>
      </trkpt>
      <trkpt lat="43.43247" lon="6.65547">
        <ele>54.8</ele>
        <time>2025-01-19T08:34:04Z</time>
      </trkpt>
      <trkpt lat="43.43247" lon="6.65547">
        <ele>54.9</ele>
        <time>2025-01-19T08:34:05Z</time>
      </trkpt>
      <trkpt lat="43.43247" lon="6.65547">
        <ele>55</ele>
        <time>2025-01-19T08:34:06Z</time>
      </trkpt>
      <trkpt lat="43.43247" lon="6.65547">
        <ele>55</ele>
        <time>2025-01-19T08:34:07Z</time>
      </trkpt>
      <trkpt lat="43.43247" lon="6.65546">
        <ele>55.1</ele>
        <time>2025-01-19T08:34:08Z</time>
      </trkpt>
      <trkpt lat="43.43247" lon="6.65546">
        <ele>55.1</ele>
        <time>2025-01-19T08:34:09Z</time>
      </trkpt>
      <trkpt lat="43.43247" lon="6.65546">
        <ele>55.2</ele>
        <time>2025-01-19T08:34:10Z</time>
      </trkpt>
      <trkpt lat="43.43246" lon="6.65545">
        <ele>55.2</ele>
        <time>2025-01-19T08:34:11Z</time>
      </trkpt>
      <trkpt lat="43.43246" lon="6.65545">
        <ele>55.2</ele>
        <time>2025-01-19T08:34:12Z</time>
      </trkpt>
      <trkpt lat="43.43246" lon="6.65545">
        <ele>55.3</ele>
        <time>2025-01-19T08:34:13Z</time>
      </trkpt>
      <trkpt lat="43.43246" lon="6.65545">
        <ele>55.3</ele>
        <time>2025-01-19T08:34:14Z</time>
      </trkpt>
      <trkpt lat="43.43246" lon="6.65544">
        <ele>55.4</ele>
        <time>2025-01-19T08:34:15Z</time>
      </trkpt>
      <trkpt lat="43.43246" lon="6.65545">
        <ele>55.3</ele>
        <time>2025-01-19T08:34:16Z</time>
      </trkpt>
      <trkpt lat="43.43246" lon="6.65544">
        <ele>55.3</ele>
        <time>2025-01-19T08:34:17Z</time>
      </trkpt>
      <trkpt lat="43.43245" lon="6.65543">
        <ele>55.3</ele>
        <time>2025-01-19T08:34:18Z</time>
      </trkpt>
      <trkpt lat="43.43244" lon="6.65542">
        <ele>55.4</ele>
        <time>2025-01-19T08:34:19Z</time>
      </trkpt>
      <trkpt lat="43.43242" lon="6.65542">
        <ele>55.5</ele>
        <time>2025-01-19T08:34:20Z</time>
      </trkpt>
      <trkpt lat="43.43241" lon="6.65541">
        <ele>55.5</ele>
        <time>2025-01-19T08:34:21Z</time>
      </trkpt>
      <trkpt lat="43.4324" lon="6.65541">
        <ele>55.7</ele>
        <time>2025-01-19T08:34:22Z</time>
      </trkpt>
      <trkpt lat="43.43238" lon="6.6554">
        <ele>55.7</ele>
        <time>2025-01-19T08:34:23Z</time>
      </trkpt>
      <trkpt lat="43.43237" lon="6.65539">
        <ele>55.7</ele>
        <time>2025-01-19T08:34:24Z</time>
      </trkpt>
      <trkpt lat="43.43236" lon="6.65538">
        <ele>55.8</ele>
        <time>2025-01-19T08:34:25Z</time>
      </trkpt>
      <trkpt lat="43.43235" lon="6.65537">
        <ele>55.9</ele>
        <time>2025-01-19T08:34:26Z</time>
      </trkpt>
      <trkpt lat="43.43233" lon="6.65536">
        <ele>56</ele>
        <time>2025-01-19T08:34:27Z</time>
      </trkpt>
      <trkpt lat="43.43232" lon="6.65535">
        <ele>56</ele>
        <time>2025-01-19T08:34:28Z</time>
      </trkpt>
      <trkpt lat="43.43231" lon="6.65533">
        <ele>56</ele>
        <time>2025-01-19T08:34:29Z</time>
      </trkpt>
      <trkpt lat="43.4323" lon="6.65533">
        <ele>56.1</ele>
        <time>2025-01-19T08:34:30Z</time>
      </trkpt>
      <trkpt lat="43.43228" lon="6.65532">
        <ele>56</ele>
        <time>2025-01-19T08:34:31Z</time>
      </trkpt>
      <trkpt lat="43.43227" lon="6.65532">
        <ele>56</ele>
        <time>2025-01-19T08:34:32Z</time>
      </trkpt>
      <trkpt lat="43.43225" lon="6.65531">
        <ele>56</ele>
        <time>2025-01-19T08:34:33Z</time>
      </trkpt>
      <trkpt lat="43.43223" lon="6.6553">
        <ele>56</ele>
        <time>2025-01-19T08:34:34Z</time>
      </trkpt>
      <trkpt lat="43.43221" lon="6.65528">
        <ele>55.9</ele>
        <time>2025-01-19T08:34:35Z</time>
      </trkpt>
      <trkpt lat="43.4322" lon="6.65527">
        <ele>55.9</ele>
        <time>2025-01-19T08:34:36Z</time>
      </trkpt>
      <trkpt lat="43.43219" lon="6.65526">
        <ele>55.9</ele>
        <time>2025-01-19T08:34:37Z</time>
      </trkpt>
      <trkpt lat="43.43217" lon="6.65525">
        <ele>55.9</ele>
        <time>2025-01-19T08:34:38Z</time>
      </trkpt>
      <trkpt lat="43.43216" lon="6.65523">
        <ele>55.9</ele>
        <time>2025-01-19T08:34:39Z</time>
      </trkpt>
      <trkpt lat="43.43215" lon="6.65522">
        <ele>55.9</ele>
        <time>2025-01-19T08:34:40Z</time>
      </trkpt>
      <trkpt lat="43.43214" lon="6.65521">
        <ele>55.9</ele>
        <time>2025-01-19T08:34:41Z</time>
      </trkpt>
      <trkpt lat="43.43213" lon="6.65519">
        <ele>55.9</ele>
        <time>2025-01-19T08:34:42Z</time>
      </trkpt>
      <trkpt lat="43.43212" lon="6.65518">
        <ele>55.9</ele>
        <time>2025-01-19T08:34:43Z</time>
      </trkpt>
      <trkpt lat="43.4321" lon="6.65517">
        <ele>55.9</ele>
        <time>2025-01-19T08:34:44Z</time>
      </trkpt>
      <trkpt lat="43.43209" lon="6.65516">
        <ele>55.9</ele>
        <time>2025-01-19T08:34:45Z</time>
      </trkpt>
      <trkpt lat="43.43208" lon="6.65515">
        <ele>56.1</ele>
        <time>2025-01-19T08:34:46Z</time>
      </trkpt>
      <trkpt lat="43.43208" lon="6.65515">
        <ele>56.3</ele>
        <time>2025-01-19T08:34:47Z</time>
      </trkpt>
      <trkpt lat="43.43207" lon="6.65515">
        <ele>56.5</ele>
        <time>2025-01-19T08:34:48Z</time>
      </trkpt>
      <trkpt lat="43.43206" lon="6.65515">
        <ele>56.6</ele>
        <time>2025-01-19T08:34:49Z</time>
      </trkpt>
      <trkpt lat="43.43205" lon="6.65514">
        <ele>56.8</ele>
        <time>2025-01-19T08:34:50Z</time>
      </trkpt>
      <trkpt lat="43.43204" lon="6.65513">
        <ele>57</ele>
        <time>2025-01-19T08:34:51Z</time>
      </trkpt>
      <trkpt lat="43.43203" lon="6.65512">
        <ele>57.3</ele>
        <time>2025-01-19T08:34:52Z</time>
      </trkpt>
      <trkpt lat="43.43203" lon="6.65512">
        <ele>57.5</ele>
        <time>2025-01-19T08:34:53Z</time>
      </trkpt>
      <trkpt lat="43.43202" lon="6.65511">
        <ele>57.7</ele>
        <time>2025-01-19T08:34:54Z</time>
      </trkpt>
      <trkpt lat="43.43202" lon="6.6551">
        <ele>58</ele>
        <time>2025-01-19T08:34:55Z</time>
      </trkpt>
      <trkpt lat="43.43201" lon="6.65509">
        <ele>58.1</ele>
        <time>2025-01-19T08:34:56Z</time>
      </trkpt>
      <trkpt lat="43.432" lon="6.65507">
        <ele>58.2</ele>
        <time>2025-01-19T08:34:57Z</time>
      </trkpt>
      <trkpt lat="43.432" lon="6.65506">
        <ele>58.3</ele>
        <time>2025-01-19T08:34:58Z</time>
      </trkpt>
      <trkpt lat="43.432" lon="6.65504">
        <ele>58.4</ele>
        <time>2025-01-19T08:34:59Z</time>
      </trkpt>
      <trkpt lat="43.43199" lon="6.65503">
        <ele>58.6</ele>
        <time>2025-01-19T08:35:00Z</time>
      </trkpt>
      <trkpt lat="43.43198" lon="6.65502">
        <ele>58.8</ele>
        <time>2025-01-19T08:35:01Z</time>
      </trkpt>
      <trkpt lat="43.43198" lon="6.655">
        <ele>58.9</ele>
        <time>2025-01-19T08:35:02Z</time>
      </trkpt>
      <trkpt lat="43.43198" lon="6.65499">
        <ele>59</ele>
        <time>2025-01-19T08:35:03Z</time>
      </trkpt>
      <trkpt lat="43.43197" lon="6.65498">
        <ele>59.2</ele>
        <time>2025-01-19T08:35:04Z</time>
      </trkpt>
      <trkpt lat="43.43196" lon="6.65496">
        <ele>59.3</ele>
        <time>2025-01-19T08:35:05Z</time>
      </trkpt>
      <trkpt lat="43.43196" lon="6.65495">
        <ele>59.5</ele>
        <time>2025-01-19T08:35:06Z</time>
      </trkpt>
      <trkpt lat="43.43195" lon="6.65493">
        <ele>59.6</ele>
        <time>2025-01-19T08:35:07Z</time>
      </trkpt>
      <trkpt lat="43.43194" lon="6.65491">
        <ele>59.7</ele>
        <time>2025-01-19T08:35:08Z</time>
      </trkpt>
      <trkpt lat="43.43193" lon="6.65489">
        <ele>59.9</ele>
        <time>2025-01-19T08:35:09Z</time>
      </trkpt>
      <trkpt lat="43.43193" lon="6.65487">
        <ele>60</ele>
        <time>2025-01-19T08:35:10Z</time>
      </trkpt>
      <trkpt lat="43.43193" lon="6.65485">
        <ele>60</ele>
        <time>2025-01-19T08:35:11Z</time>
      </trkpt>
      <trkpt lat="43.43193" lon="6.65484">
        <ele>59.9</ele>
        <time>2025-01-19T08:35:12Z</time>
      </trkpt>
      <trkpt lat="43.43193" lon="6.65483">
        <ele>59.9</ele>
        <time>2025-01-19T08:35:13Z</time>
      </trkpt>
      <trkpt lat="43.43194" lon="6.65481">
        <ele>59.8</ele>
        <time>2025-01-19T08:35:14Z</time>
      </trkpt>
      <trkpt lat="43.43194" lon="6.6548">
        <ele>59.9</ele>
        <time>2025-01-19T08:35:15Z</time>
      </trkpt>
      <trkpt lat="43.43195" lon="6.65478">
        <ele>60</ele>
        <time>2025-01-19T08:35:16Z</time>
      </trkpt>
      <trkpt lat="43.43195" lon="6.65477">
        <ele>60.2</ele>
        <time>2025-01-19T08:35:17Z</time>
      </trkpt>
      <trkpt lat="43.43195" lon="6.65475">
        <ele>60.3</ele>
        <time>2025-01-19T08:35:18Z</time>
      </trkpt>
      <trkpt lat="43.43195" lon="6.65473">
        <ele>60.4</ele>
        <time>2025-01-19T08:35:19Z</time>
      </trkpt>
      <trkpt lat="43.43195" lon="6.65472">
        <ele>60.6</ele>
        <time>2025-01-19T08:35:20Z</time>
      </trkpt>
      <trkpt lat="43.43195" lon="6.6547">
        <ele>60.8</ele>
        <time>2025-01-19T08:35:21Z</time>
      </trkpt>
      <trkpt lat="43.43194" lon="6.65468">
        <ele>61</ele>
        <time>2025-01-19T08:35:22Z</time>
      </trkpt>
      <trkpt lat="43.43194" lon="6.65467">
        <ele>61.1</ele>
        <time>2025-01-19T08:35:23Z</time>
      </trkpt>
      <trkpt lat="43.43194" lon="6.65465">
        <ele>61.4</ele>
        <time>2025-01-19T08:35:24Z</time>
      </trkpt>
      <trkpt lat="43.43193" lon="6.65463">
        <ele>61.5</ele>
        <time>2025-01-19T08:35:25Z</time>
      </trkpt>
      <trkpt lat="43.43193" lon="6.65462">
        <ele>61.7</ele>
        <time>2025-01-19T08:35:26Z</time>
      </trkpt>
      <trkpt lat="43.43193" lon="6.6546">
        <ele>61.8</ele>
        <time>2025-01-19T08:35:27Z</time>
      </trkpt>
      <trkpt lat="43.43193" lon="6.65458">
        <ele>61.9</ele>
        <time>2025-01-19T08:35:28Z</time>
      </trkpt>
      <trkpt lat="43.43192" lon="6.65456">
        <ele>62</ele>
        <time>2025-01-19T08:35:29Z</time>
      </trkpt>
      <trkpt lat="43.43192" lon="6.65454">
        <ele>62.2</ele>
        <time>2025-01-19T08:35:30Z</time>
      </trkpt>
      <trkpt lat="43.43192" lon="6.65452">
        <ele>62.4</ele>
        <time>2025-01-19T08:35:31Z</time>
      </trkpt>
      <trkpt lat="43.43192" lon="6.6545">
        <ele>62.6</ele>
        <time>2025-01-19T08:35:32Z</time>
      </trkpt>
      <trkpt lat="43.43192" lon="6.65448">
        <ele>62.8</ele>
        <time>2025-01-19T08:35:33Z</time>
      </trkpt>
      <trkpt lat="43.43191" lon="6.65446">
        <ele>62.8</ele>
        <time>2025-01-19T08:35:34Z</time>
      </trkpt>
      <trkpt lat="43.43191" lon="6.65445">
        <ele>62.9</ele>
        <time>2025-01-19T08:35:35Z</time>
      </trkpt>
      <trkpt lat="43.4319" lon="6.65443">
        <ele>63.1</ele>
        <time>2025-01-19T08:35:36Z</time>
      </trkpt>
      <trkpt lat="43.4319" lon="6.65441">
        <ele>63.2</ele>
        <time>2025-01-19T08:35:37Z</time>
      </trkpt>
      <trkpt lat="43.43189" lon="6.65439">
        <ele>63.3</ele>
        <time>2025-01-19T08:35:38Z</time>
      </trkpt>
      <trkpt lat="43.43189" lon="6.65437">
        <ele>63.3</ele>
        <time>2025-01-19T08:35:39Z</time>
      </trkpt>
      <trkpt lat="43.43189" lon="6.65435">
        <ele>63.4</ele>
        <time>2025-01-19T08:35:40Z</time>
      </trkpt>
      <trkpt lat="43.43188" lon="6.65433">
        <ele>63.5</ele>
        <time>2025-01-19T08:35:41Z</time>
      </trkpt>
      <trkpt lat="43.43188" lon="6.65431">
        <ele>63.6</ele>
        <time>2025-01-19T08:35:42Z</time>
      </trkpt>
      <trkpt lat="43.43188" lon="6.6543">
        <ele>63.6</ele>
        <time>2025-01-19T08:35:43Z</time>
      </trkpt>
      <trkpt lat="43.43187" lon="6.65428">
        <ele>63.7</ele>
        <time>2025-01-19T08:35:44Z</time>
      </trkpt>
      <trkpt lat="43.43187" lon="6.65426">
        <ele>63.8</ele>
        <time>2025-01-19T08:35:45Z</time>
      </trkpt>
      <trkpt lat="43.43187" lon="6.65424">
        <ele>64</ele>
        <time>2025-01-19T08:35:46Z</time>
      </trkpt>
      <trkpt lat="43.43186" lon="6.65422">
        <ele>64.1</ele>
        <time>2025-01-19T08:35:47Z</time>
      </trkpt>
      <trkpt lat="43.43186" lon="6.6542">
        <ele>64.1</ele>
        <time>2025-01-19T08:35:48Z</time>
      </trkpt>
      <trkpt lat="43.43185" lon="6.65419">
        <ele>64.2</ele>
        <time>2025-01-19T08:35:49Z</time>
      </trkpt>
      <trkpt lat="43.43185" lon="6.65417">
        <ele>64.3</ele>
        <time>2025-01-19T08:35:50Z</time>
      </trkpt>
      <trkpt lat="43.43184" lon="6.65415">
        <ele>64.4</ele>
        <time>2025-01-19T08:35:51Z</time>
      </trkpt>
      <trkpt lat="43.43184" lon="6.65413">
        <ele>64.5</ele>
        <time>2025-01-19T08:35:52Z</time>
      </trkpt>
      <trkpt lat="43.43184" lon="6.65411">
        <ele>64.7</ele>
        <time>2025-01-19T08:35:53Z</time>
      </trkpt>
      <trkpt lat="43.43183" lon="6.65409">
        <ele>64.9</ele>
        <time>2025-01-19T08:35:54Z</time>
      </trkpt>
      <trkpt lat="43.43182" lon="6.65407">
        <ele>65</ele>
        <time>2025-01-19T08:35:55Z</time>
      </trkpt>
      <trkpt lat="43.43182" lon="6.65406">
        <ele>65.1</ele>
        <time>2025-01-19T08:35:56Z</time>
      </trkpt>
      <trkpt lat="43.43181" lon="6.65404">
        <ele>65.2</ele>
        <time>2025-01-19T08:35:57Z</time>
      </trkpt>
      <trkpt lat="43.4318" lon="6.65403">
        <ele>65.3</ele>
        <time>2025-01-19T08:35:58Z</time>
      </trkpt>
      <trkpt lat="43.43179" lon="6.65402">
        <ele>65.5</ele>
        <time>2025-01-19T08:35:59Z</time>
      </trkpt>
      <trkpt lat="43.43179" lon="6.654">
        <ele>65.6</ele>
        <time>2025-01-19T08:36:00Z</time>
      </trkpt>
      <trkpt lat="43.43178" lon="6.65398">
        <ele>65.6</ele>
        <time>2025-01-19T08:36:01Z</time>
      </trkpt>
      <trkpt lat="43.43177" lon="6.65396">
        <ele>65.7</ele>
        <time>2025-01-19T08:36:02Z</time>
      </trkpt>
      <trkpt lat="43.43177" lon="6.65395">
        <ele>65.7</ele>
        <time>2025-01-19T08:36:03Z</time>
      </trkpt>
      <trkpt lat="43.43176" lon="6.65393">
        <ele>65.9</ele>
        <time>2025-01-19T08:36:04Z</time>
      </trkpt>
      <trkpt lat="43.43176" lon="6.65391">
        <ele>66</ele>
        <time>2025-01-19T08:36:05Z</time>
      </trkpt>
      <trkpt lat="43.43175" lon="6.6539">
        <ele>66.2</ele>
        <time>2025-01-19T08:36:06Z</time>
      </trkpt>
      <trkpt lat="43.43174" lon="6.65388">
        <ele>66.4</ele>
        <time>2025-01-19T08:36:07Z</time>
      </trkpt>
      <trkpt lat="43.43174" lon="6.65386">
        <ele>66.5</ele>
        <time>2025-01-19T08:36:08Z</time>
      </trkpt>
      <trkpt lat="43.43174" lon="6.65385">
        <ele>66.7</ele>
        <time>2025-01-19T08:36:09Z</time>
      </trkpt>
      <trkpt lat="43.43173" lon="6.65383">
        <ele>66.8</ele>
        <time>2025-01-19T08:36:10Z</time>
      </trkpt>
      <trkpt lat="43.43172" lon="6.65382">
        <ele>66.9</ele>
        <time>2025-01-19T08:36:11Z</time>
      </trkpt>
      <trkpt lat="43.43171" lon="6.65381">
        <ele>67.1</ele>
        <time>2025-01-19T08:36:12Z</time>
      </trkpt>
      <trkpt lat="43.4317" lon="6.65379">
        <ele>67.3</ele>
        <time>2025-01-19T08:36:13Z</time>
      </trkpt>
      <trkpt lat="43.43169" lon="6.65378">
        <ele>67.4</ele>
        <time>2025-01-19T08:36:14Z</time>
      </trkpt>
      <trkpt lat="43.43169" lon="6.65376">
        <ele>67.6</ele>
        <time>2025-01-19T08:36:15Z</time>
      </trkpt>
      <trkpt lat="43.43168" lon="6.65374">
        <ele>67.7</ele>
        <time>2025-01-19T08:36:16Z</time>
      </trkpt>
      <trkpt lat="43.43168" lon="6.65372">
        <ele>67.8</ele>
        <time>2025-01-19T08:36:17Z</time>
      </trkpt>
      <trkpt lat="43.43167" lon="6.65371">
        <ele>67.9</ele>
        <time>2025-01-19T08:36:18Z</time>
      </trkpt>
      <trkpt lat="43.43167" lon="6.6537">
        <ele>68</ele>
        <time>2025-01-19T08:36:19Z</time>
      </trkpt>
      <trkpt lat="43.43166" lon="6.65368">
        <ele>68.1</ele>
        <time>2025-01-19T08:36:20Z</time>
      </trkpt>
      <trkpt lat="43.43165" lon="6.65367">
        <ele>68.2</ele>
        <time>2025-01-19T08:36:21Z</time>
      </trkpt>
      <trkpt lat="43.43165" lon="6.65365">
        <ele>68.4</ele>
        <time>2025-01-19T08:36:22Z</time>
      </trkpt>
      <trkpt lat="43.43164" lon="6.65364">
        <ele>68.5</ele>
        <time>2025-01-19T08:36:23Z</time>
      </trkpt>
      <trkpt lat="43.43163" lon="6.65363">
        <ele>68.6</ele>
        <time>2025-01-19T08:36:24Z</time>
      </trkpt>
      <trkpt lat="43.43162" lon="6.65362">
        <ele>68.6</ele>
        <time>2025-01-19T08:36:25Z</time>
      </trkpt>
      <trkpt lat="43.43161" lon="6.65361">
        <ele>68.7</ele>
        <time>2025-01-19T08:36:26Z</time>
      </trkpt>
      <trkpt lat="43.4316" lon="6.6536">
        <ele>68.8</ele>
        <time>2025-01-19T08:36:27Z</time>
      </trkpt>
      <trkpt lat="43.4316" lon="6.65358">
        <ele>68.9</ele>
        <time>2025-01-19T08:36:28Z</time>
      </trkpt>
      <trkpt lat="43.43159" lon="6.65357">
        <ele>69.1</ele>
        <time>2025-01-19T08:36:29Z</time>
      </trkpt>
      <trkpt lat="43.43159" lon="6.65355">
        <ele>69.3</ele>
        <time>2025-01-19T08:36:30Z</time>
      </trkpt>
      <trkpt lat="43.43158" lon="6.65354">
        <ele>69.5</ele>
        <time>2025-01-19T08:36:31Z</time>
      </trkpt>
      <trkpt lat="43.43157" lon="6.65352">
        <ele>69.7</ele>
        <time>2025-01-19T08:36:32Z</time>
      </trkpt>
      <trkpt lat="43.43157" lon="6.65351">
        <ele>69.8</ele>
        <time>2025-01-19T08:36:33Z</time>
      </trkpt>
      <trkpt lat="43.43156" lon="6.65349">
        <ele>69.9</ele>
        <time>2025-01-19T08:36:34Z</time>
      </trkpt>
      <trkpt lat="43.43156" lon="6.65348">
        <ele>70</ele>
        <time>2025-01-19T08:36:35Z</time>
      </trkpt>
      <trkpt lat="43.43155" lon="6.65347">
        <ele>70</ele>
        <time>2025-01-19T08:36:36Z</time>
      </trkpt>
      <trkpt lat="43.43154" lon="6.65345">
        <ele>70.1</ele>
        <time>2025-01-19T08:36:37Z</time>
      </trkpt>
      <trkpt lat="43.43153" lon="6.65344">
        <ele>70.1</ele>
        <time>2025-01-19T08:36:38Z</time>
      </trkpt>
      <trkpt lat="43.43152" lon="6.65343">
        <ele>70.3</ele>
        <time>2025-01-19T08:36:39Z</time>
      </trkpt>
      <trkpt lat="43.43152" lon="6.65342">
        <ele>70.4</ele>
        <time>2025-01-19T08:36:40Z</time>
      </trkpt>
      <trkpt lat="43.43151" lon="6.65341">
        <ele>70.5</ele>
        <time>2025-01-19T08:36:41Z</time>
      </trkpt>
      <trkpt lat="43.4315" lon="6.6534">
        <ele>70.5</ele>
        <time>2025-01-19T08:36:42Z</time>
      </trkpt>
      <trkpt lat="43.43149" lon="6.65339">
        <ele>70.5</ele>
        <time>2025-01-19T08:36:43Z</time>
      </trkpt>
      <trkpt lat="43.43149" lon="6.65337">
        <ele>70.5</ele>
        <time>2025-01-19T08:36:44Z</time>
      </trkpt>
      <trkpt lat="43.43148" lon="6.65336">
        <ele>70.6</ele>
        <time>2025-01-19T08:36:45Z</time>
      </trkpt>
      <trkpt lat="43.43147" lon="6.65335">
        <ele>70.6</ele>
        <time>2025-01-19T08:36:46Z</time>
      </trkpt>
      <trkpt lat="43.43146" lon="6.65333">
        <ele>70.7</ele>
        <time>2025-01-19T08:36:47Z</time>
      </trkpt>
      <trkpt lat="43.43145" lon="6.65332">
        <ele>70.7</ele>
        <time>2025-01-19T08:36:48Z</time>
      </trkpt>
      <trkpt lat="43.43145" lon="6.65331">
        <ele>70.9</ele>
        <time>2025-01-19T08:36:49Z</time>
      </trkpt>
      <trkpt lat="43.43144" lon="6.6533">
        <ele>71</ele>
        <time>2025-01-19T08:36:50Z</time>
      </trkpt>
      <trkpt lat="43.43143" lon="6.65328">
        <ele>71.1</ele>
        <time>2025-01-19T08:36:51Z</time>
      </trkpt>
      <trkpt lat="43.43142" lon="6.65327">
        <ele>71.2</ele>
        <time>2025-01-19T08:36:52Z</time>
      </trkpt>
      <trkpt lat="43.43141" lon="6.65326">
        <ele>71.3</ele>
        <time>2025-01-19T08:36:53Z</time>
      </trkpt>
      <trkpt lat="43.4314" lon="6.65325">
        <ele>71.4</ele>
        <time>2025-01-19T08:36:54Z</time>
      </trkpt>
      <trkpt lat="43.4314" lon="6.65323">
        <ele>71.5</ele>
        <time>2025-01-19T08:36:55Z</time>
      </trkpt>
      <trkpt lat="43.4314" lon="6.65321">
        <ele>71.5</ele>
        <time>2025-01-19T08:36:56Z</time>
      </trkpt>
      <trkpt lat="43.43139" lon="6.6532">
        <ele>71.7</ele>
        <time>2025-01-19T08:36:57Z</time>
      </trkpt>
      <trkpt lat="43.43138" lon="6.65319">
        <ele>71.8</ele>
        <time>2025-01-19T08:36:58Z</time>
      </trkpt>
      <trkpt lat="43.43138" lon="6.65318">
        <ele>71.8</ele>
        <time>2025-01-19T08:36:59Z</time>
      </trkpt>
      <trkpt lat="43.43137" lon="6.65316">
        <ele>71.8</ele>
        <time>2025-01-19T08:37:00Z</time>
      </trkpt>
      <trkpt lat="43.43136" lon="6.65315">
        <ele>71.9</ele>
        <time>2025-01-19T08:37:01Z</time>
      </trkpt>
      <trkpt lat="43.43135" lon="6.65314">
        <ele>72</ele>
        <time>2025-01-19T08:37:02Z</time>
      </trkpt>
      <trkpt lat="43.43134" lon="6.65312">
        <ele>72</ele>
        <time>2025-01-19T08:37:03Z</time>
      </trkpt>
      <trkpt lat="43.43133" lon="6.65311">
        <ele>72.1</ele>
        <time>2025-01-19T08:37:04Z</time>
      </trkpt>
      <trkpt lat="43.43133" lon="6.6531">
        <ele>72.2</ele>
        <time>2025-01-19T08:37:05Z</time>
      </trkpt>
      <trkpt lat="43.43132" lon="6.65309">
        <ele>72.2</ele>
        <time>2025-01-19T08:37:06Z</time>
      </trkpt>
      <trkpt lat="43.43131" lon="6.65307">
        <ele>72.3</ele>
        <time>2025-01-19T08:37:07Z</time>
      </trkpt>
      <trkpt lat="43.4313" lon="6.65305">
        <ele>72.4</ele>
        <time>2025-01-19T08:37:08Z</time>
      </trkpt>
      <trkpt lat="43.43129" lon="6.65303">
        <ele>72.5</ele>
        <time>2025-01-19T08:37:09Z</time>
      </trkpt>
      <trkpt lat="43.43128" lon="6.65302">
        <ele>72.5</ele>
        <time>2025-01-19T08:37:10Z</time>
      </trkpt>
      <trkpt lat="43.43128" lon="6.653">
        <ele>72.6</ele>
        <time>2025-01-19T08:37:11Z</time>
      </trkpt>
      <trkpt lat="43.43127" lon="6.65298">
        <ele>72.6</ele>
        <time>2025-01-19T08:37:12Z</time>
      </trkpt>
      <trkpt lat="43.43126" lon="6.65297">
        <ele>72.7</ele>
        <time>2025-01-19T08:37:13Z</time>
      </trkpt>
      <trkpt lat="43.43126" lon="6.65296">
        <ele>72.7</ele>
        <time>2025-01-19T08:37:14Z</time>
      </trkpt>
      <trkpt lat="43.43125" lon="6.65294">
        <ele>72.8</ele>
        <time>2025-01-19T08:37:15Z</time>
      </trkpt>
      <trkpt lat="43.43124" lon="6.65293">
        <ele>72.8</ele>
        <time>2025-01-19T08:37:16Z</time>
      </trkpt>
      <trkpt lat="43.43124" lon="6.65292">
        <ele>72.9</ele>
        <time>2025-01-19T08:37:17Z</time>
      </trkpt>
      <trkpt lat="43.43123" lon="6.6529">
        <ele>72.9</ele>
        <time>2025-01-19T08:37:18Z</time>
      </trkpt>
      <trkpt lat="43.43123" lon="6.65289">
        <ele>72.9</ele>
        <time>2025-01-19T08:37:19Z</time>
      </trkpt>
      <trkpt lat="43.43122" lon="6.65288">
        <ele>73</ele>
        <time>2025-01-19T08:37:20Z</time>
      </trkpt>
      <trkpt lat="43.43122" lon="6.65287">
        <ele>73.2</ele>
        <time>2025-01-19T08:37:21Z</time>
      </trkpt>
      <trkpt lat="43.43121" lon="6.65286">
        <ele>73.3</ele>
        <time>2025-01-19T08:37:22Z</time>
      </trkpt>
      <trkpt lat="43.43121" lon="6.65285">
        <ele>73.4</ele>
        <time>2025-01-19T08:37:23Z</time>
      </trkpt>
      <trkpt lat="43.4312" lon="6.65284">
        <ele>73.5</ele>
        <time>2025-01-19T08:37:24Z</time>
      </trkpt>
      <trkpt lat="43.43119" lon="6.65284">
        <ele>73.6</ele>
        <time>2025-01-19T08:37:25Z</time>
      </trkpt>
      <trkpt lat="43.43118" lon="6.65282">
        <ele>73.6</ele>
        <time>2025-01-19T08:37:26Z</time>
      </trkpt>
      <trkpt lat="43.43117" lon="6.6528">
        <ele>73.8</ele>
        <time>2025-01-19T08:37:27Z</time>
      </trkpt>
      <trkpt lat="43.43116" lon="6.6528">
        <ele>73.9</ele>
        <time>2025-01-19T08:37:28Z</time>
      </trkpt>
      <trkpt lat="43.43115" lon="6.65279">
        <ele>74.1</ele>
        <time>2025-01-19T08:37:29Z</time>
      </trkpt>
      <trkpt lat="43.43114" lon="6.65279">
        <ele>74.2</ele>
        <time>2025-01-19T08:37:30Z</time>
      </trkpt>
      <trkpt lat="43.43114" lon="6.65278">
        <ele>74.3</ele>
        <time>2025-01-19T08:37:31Z</time>
      </trkpt>
      <trkpt lat="43.43113" lon="6.65278">
        <ele>74.3</ele>
        <time>2025-01-19T08:37:32Z</time>
      </trkpt>
      <trkpt lat="43.43112" lon="6.65277">
        <ele>74.5</ele>
        <time>2025-01-19T08:37:33Z</time>
      </trkpt>
      <trkpt lat="43.43111" lon="6.65277">
        <ele>74.6</ele>
        <time>2025-01-19T08:37:34Z</time>
      </trkpt>
      <trkpt lat="43.43111" lon="6.65276">
        <ele>74.6</ele>
        <time>2025-01-19T08:37:35Z</time>
      </trkpt>
      <trkpt lat="43.4311" lon="6.65275">
        <ele>74.7</ele>
        <time>2025-01-19T08:37:36Z</time>
      </trkpt>
      <trkpt lat="43.43109" lon="6.65274">
        <ele>74.7</ele>
        <time>2025-01-19T08:37:37Z</time>
      </trkpt>
      <trkpt lat="43.43109" lon="6.65273">
        <ele>74.8</ele>
        <time>2025-01-19T08:37:38Z</time>
      </trkpt>
      <trkpt lat="43.43108" lon="6.65273">
        <ele>75</ele>
        <time>2025-01-19T08:37:39Z</time>
      </trkpt>
      <trkpt lat="43.43107" lon="6.65273">
        <ele>75.2</ele>
        <time>2025-01-19T08:37:40Z</time>
      </trkpt>
      <trkpt lat="43.43107" lon="6.65272">
        <ele>75.3</ele>
        <time>2025-01-19T08:37:41Z</time>
      </trkpt>
      <trkpt lat="43.43107" lon="6.65272">
        <ele>75.4</ele>
        <time>2025-01-19T08:37:42Z</time>
      </trkpt>
      <trkpt lat="43.43106" lon="6.65272">
        <ele>75.5</ele>
        <time>2025-01-19T08:37:43Z</time>
      </trkpt>
      <trkpt lat="43.43105" lon="6.65272">
        <ele>75.6</ele>
        <time>2025-01-19T08:37:44Z</time>
      </trkpt>
      <trkpt lat="43.43105" lon="6.65273">
        <ele>75.5</ele>
        <time>2025-01-19T08:37:45Z</time>
      </trkpt>
      <trkpt lat="43.43104" lon="6.65273">
        <ele>75.5</ele>
        <time>2025-01-19T08:37:46Z</time>
      </trkpt>
      <trkpt lat="43.43104" lon="6.65274">
        <ele>75.6</ele>
        <time>2025-01-19T08:37:47Z</time>
      </trkpt>
      <trkpt lat="43.43103" lon="6.65275">
        <ele>75.6</ele>
        <time>2025-01-19T08:37:48Z</time>
      </trkpt>
      <trkpt lat="43.43102" lon="6.65276">
        <ele>75.7</ele>
        <time>2025-01-19T08:37:49Z</time>
      </trkpt>
      <trkpt lat="43.43101" lon="6.65277">
        <ele>75.7</ele>
        <time>2025-01-19T08:37:50Z</time>
      </trkpt>
      <trkpt lat="43.43101" lon="6.65277">
        <ele>75.7</ele>
        <time>2025-01-19T08:37:51Z</time>
      </trkpt>
      <trkpt lat="43.431" lon="6.65278">
        <ele>75.7</ele>
        <time>2025-01-19T08:37:52Z</time>
      </trkpt>
      <trkpt lat="43.43099" lon="6.65279">
        <ele>75.8</ele>
        <time>2025-01-19T08:37:53Z</time>
      </trkpt>
      <trkpt lat="43.43098" lon="6.6528">
        <ele>75.8</ele>
        <time>2025-01-19T08:37:54Z</time>
      </trkpt>
      <trkpt lat="43.43097" lon="6.65281">
        <ele>75.8</ele>
        <time>2025-01-19T08:37:55Z</time>
      </trkpt>
      <trkpt lat="43.43096" lon="6.65282">
        <ele>75.8</ele>
        <time>2025-01-19T08:37:56Z</time>
      </trkpt>
      <trkpt lat="43.43095" lon="6.65282">
        <ele>75.9</ele>
        <time>2025-01-19T08:37:57Z</time>
      </trkpt>
      <trkpt lat="43.43094" lon="6.65282">
        <ele>75.9</ele>
        <time>2025-01-19T08:37:58Z</time>
      </trkpt>
      <trkpt lat="43.43093" lon="6.65281">
        <ele>76</ele>
        <time>2025-01-19T08:37:59Z</time>
      </trkpt>
      <trkpt lat="43.43092" lon="6.65281">
        <ele>76</ele>
        <time>2025-01-19T08:38:00Z</time>
      </trkpt>
      <trkpt lat="43.43092" lon="6.65281">
        <ele>76</ele>
        <time>2025-01-19T08:38:01Z</time>
      </trkpt>
      <trkpt lat="43.4309" lon="6.65281">
        <ele>76</ele>
        <time>2025-01-19T08:38:02Z</time>
      </trkpt>
      <trkpt lat="43.43089" lon="6.65282">
        <ele>76.1</ele>
        <time>2025-01-19T08:38:03Z</time>
      </trkpt>
      <trkpt lat="43.43088" lon="6.65282">
        <ele>76.2</ele>
        <time>2025-01-19T08:38:04Z</time>
      </trkpt>
      <trkpt lat="43.43088" lon="6.65282">
        <ele>76.3</ele>
        <time>2025-01-19T08:38:05Z</time>
      </trkpt>
      <trkpt lat="43.43087" lon="6.65281">
        <ele>76.4</ele>
        <time>2025-01-19T08:38:06Z</time>
      </trkpt>
      <trkpt lat="43.43087" lon="6.6528">
        <ele>76.5</ele>
        <time>2025-01-19T08:38:07Z</time>
      </trkpt>
      <trkpt lat="43.43086" lon="6.6528">
        <ele>76.6</ele>
        <time>2025-01-19T08:38:08Z</time>
      </trkpt>
      <trkpt lat="43.43085" lon="6.65279">
        <ele>76.8</ele>
        <time>2025-01-19T08:38:09Z</time>
      </trkpt>
      <trkpt lat="43.43085" lon="6.65278">
        <ele>76.9</ele>
        <time>2025-01-19T08:38:10Z</time>
      </trkpt>
      <trkpt lat="43.43084" lon="6.65277">
        <ele>77.1</ele>
        <time>2025-01-19T08:38:11Z</time>
      </trkpt>
      <trkpt lat="43.43083" lon="6.65277">
        <ele>77.1</ele>
        <time>2025-01-19T08:38:12Z</time>
      </trkpt>
      <trkpt lat="43.43082" lon="6.65276">
        <ele>77.2</ele>
        <time>2025-01-19T08:38:13Z</time>
      </trkpt>
      <trkpt lat="43.43081" lon="6.65275">
        <ele>77.3</ele>
        <time>2025-01-19T08:38:14Z</time>
      </trkpt>
      <trkpt lat="43.4308" lon="6.65274">
        <ele>77.4</ele>
        <time>2025-01-19T08:38:15Z</time>
      </trkpt>
      <trkpt lat="43.4308" lon="6.65274">
        <ele>77.5</ele>
        <time>2025-01-19T08:38:16Z</time>
      </trkpt>
      <trkpt lat="43.4308" lon="6.65275">
        <ele>77.6</ele>
        <time>2025-01-19T08:38:17Z</time>
      </trkpt>
      <trkpt lat="43.43079" lon="6.65275">
        <ele>77.7</ele>
        <time>2025-01-19T08:38:18Z</time>
      </trkpt>
      <trkpt lat="43.43079" lon="6.65275">
        <ele>77.7</ele>
        <time>2025-01-19T08:38:19Z</time>
      </trkpt>
      <trkpt lat="43.43078" lon="6.65275">
        <ele>77.8</ele>
        <time>2025-01-19T08:38:20Z</time>
      </trkpt>
      <trkpt lat="43.43078" lon="6.65275">
        <ele>77.8</ele>
        <time>2025-01-19T08:38:21Z</time>
      </trkpt>
      <trkpt lat="43.43078" lon="6.65274">
        <ele>77.8</ele>
        <time>2025-01-19T08:38:22Z</time>
      </trkpt>
      <trkpt lat="43.43078" lon="6.65274">
        <ele>77.8</ele>
        <time>2025-01-19T08:38:23Z</time>
      </trkpt>
      <trkpt lat="43.43078" lon="6.65274">
        <ele>77.8</ele>
        <time>2025-01-19T08:38:24Z</time>
      </trkpt>
      <trkpt lat="43.43078" lon="6.65274">
        <ele>77.8</ele>
        <time>2025-01-19T08:38:25Z</time>
      </trkpt>
      <trkpt lat="43.43078" lon="6.65274">
        <ele>77.9</ele>
        <time>2025-01-19T08:38:26Z</time>
      </trkpt>
      <trkpt lat="43.43078" lon="6.65274">
        <ele>77.9</ele>
        <time>2025-01-19T08:38:27Z</time>
      </trkpt>
      <trkpt lat="43.43078" lon="6.65274">
        <ele>77.9</ele>
        <time>2025-01-19T08:38:28Z</time>
      </trkpt>
      <trkpt lat="43.43078" lon="6.65274">
        <ele>77.8</ele>
        <time>2025-01-19T08:38:29Z</time>
      </trkpt>
      <trkpt lat="43.43077" lon="6.65274">
        <ele>77.8</ele>
        <time>2025-01-19T08:38:30Z</time>
      </trkpt>
      <trkpt lat="43.43077" lon="6.65274">
        <ele>77.9</ele>
        <time>2025-01-19T08:38:31Z</time>
      </trkpt>
      <trkpt lat="43.43077" lon="6.65275">
        <ele>78</ele>
        <time>2025-01-19T08:38:32Z</time>
      </trkpt>
      <trkpt lat="43.43077" lon="6.65276">
        <ele>78</ele>
        <time>2025-01-19T08:38:33Z</time>
      </trkpt>
      <trkpt lat="43.43078" lon="6.65278">
        <ele>78.1</ele>
        <time>2025-01-19T08:38:34Z</time>
      </trkpt>
      <trkpt lat="43.43078" lon="6.6528">
        <ele>78</ele>
        <time>2025-01-19T08:38:35Z</time>
      </trkpt>
      <trkpt lat="43.43078" lon="6.65281">
        <ele>78</ele>
        <time>2025-01-19T08:38:36Z</time>
      </trkpt>
      <trkpt lat="43.43079" lon="6.65283">
        <ele>77.9</ele>
        <time>2025-01-19T08:38:37Z</time>
      </trkpt>
      <trkpt lat="43.43079" lon="6.65284">
        <ele>77.8</ele>
        <time>2025-01-19T08:38:38Z</time>
      </trkpt>
      <trkpt lat="43.43078" lon="6.65286">
        <ele>77.6</ele>
        <time>2025-01-19T08:38:39Z</time>
      </trkpt>
      <trkpt lat="43.43078" lon="6.65288">
        <ele>77.5</ele>
        <time>2025-01-19T08:38:40Z</time>
      </trkpt>
      <trkpt lat="43.43078" lon="6.6529">
        <ele>77.4</ele>
        <time>2025-01-19T08:38:41Z</time>
      </trkpt>
      <trkpt lat="43.43078" lon="6.65291">
        <ele>77.2</ele>
        <time>2025-01-19T08:38:42Z</time>
      </trkpt>
      <trkpt lat="43.43078" lon="6.65293">
        <ele>77.1</ele>
        <time>2025-01-19T08:38:43Z</time>
      </trkpt>
      <trkpt lat="43.43078" lon="6.65294">
        <ele>77</ele>
        <time>2025-01-19T08:38:44Z</time>
      </trkpt>
      <trkpt lat="43.43078" lon="6.65295">
        <ele>76.9</ele>
        <time>2025-01-19T08:38:45Z</time>
      </trkpt>
      <trkpt lat="43.43079" lon="6.65296">
        <ele>76.8</ele>
        <time>2025-01-19T08:38:46Z</time>
      </trkpt>
      <trkpt lat="43.43079" lon="6.65297">
        <ele>76.6</ele>
        <time>2025-01-19T08:38:47Z</time>
      </trkpt>
      <trkpt lat="43.43079" lon="6.65299">
        <ele>76.4</ele>
        <time>2025-01-19T08:38:48Z</time>
      </trkpt>
      <trkpt lat="43.4308" lon="6.653">
        <ele>76.4</ele>
        <time>2025-01-19T08:38:49Z</time>
      </trkpt>
      <trkpt lat="43.4308" lon="6.65301">
        <ele>76.2</ele>
        <time>2025-01-19T08:38:50Z</time>
      </trkpt>
      <trkpt lat="43.4308" lon="6.65302">
        <ele>76.1</ele>
        <time>2025-01-19T08:38:51Z</time>
      </trkpt>
      <trkpt lat="43.4308" lon="6.65302">
        <ele>76.1</ele>
        <time>2025-01-19T08:38:52Z</time>
      </trkpt>
      <trkpt lat="43.4308" lon="6.65302">
        <ele>76</ele>
        <time>2025-01-19T08:38:53Z</time>
      </trkpt>
      <trkpt lat="43.4308" lon="6.65302">
        <ele>75.9</ele>
        <time>2025-01-19T08:38:54Z</time>
      </trkpt>
      <trkpt lat="43.43079" lon="6.65302">
        <ele>75.9</ele>
        <time>2025-01-19T08:38:55Z</time>
      </trkpt>
      <trkpt lat="43.4308" lon="6.65302">
        <ele>75.8</ele>
        <time>2025-01-19T08:38:56Z</time>
      </trkpt>
      <trkpt lat="43.43079" lon="6.65301">
        <ele>75.7</ele>
        <time>2025-01-19T08:38:57Z</time>
      </trkpt>
      <trkpt lat="43.4308" lon="6.65301">
        <ele>75.7</ele>
        <time>2025-01-19T08:38:58Z</time>
      </trkpt>
      <trkpt lat="43.4308" lon="6.65301">
        <ele>75.6</ele>
        <time>2025-01-19T08:38:59Z</time>
      </trkpt>
      <trkpt lat="43.4308" lon="6.65301">
        <ele>75.6</ele>
        <time>2025-01-19T08:39:00Z</time>
      </trkpt>
      <trkpt lat="43.4308" lon="6.65301">
        <ele>75.6</ele>
        <time>2025-01-19T08:39:01Z</time>
      </trkpt>
      <trkpt lat="43.4308" lon="6.65301">
        <ele>75.6</ele>
        <time>2025-01-19T08:39:02Z</time>
      </trkpt>
      <trkpt lat="43.4308" lon="6.65301">
        <ele>75.5</ele>
        <time>2025-01-19T08:39:03Z</time>
      </trkpt>
      <trkpt lat="43.43079" lon="6.653">
        <ele>75.6</ele>
        <time>2025-01-19T08:39:04Z</time>
      </trkpt>
      <trkpt lat="43.43079" lon="6.653">
        <ele>75.7</ele>
        <time>2025-01-19T08:39:05Z</time>
      </trkpt>
      <trkpt lat="43.43078" lon="6.65301">
        <ele>75.6</ele>
        <time>2025-01-19T08:39:06Z</time>
      </trkpt>
      <trkpt lat="43.43078" lon="6.65301">
        <ele>75.5</ele>
        <time>2025-01-19T08:39:07Z</time>
      </trkpt>
      <trkpt lat="43.43077" lon="6.65301">
        <ele>75.2</ele>
        <time>2025-01-19T08:39:08Z</time>
      </trkpt>
      <trkpt lat="43.43076" lon="6.65302">
        <ele>75.1</ele>
        <time>2025-01-19T08:39:09Z</time>
      </trkpt>
      <trkpt lat="43.43076" lon="6.65302">
        <ele>75</ele>
        <time>2025-01-19T08:39:10Z</time>
      </trkpt>
      <trkpt lat="43.43076" lon="6.65302">
        <ele>74.9</ele>
        <time>2025-01-19T08:39:11Z</time>
      </trkpt>
      <trkpt lat="43.43076" lon="6.65302">
        <ele>74.8</ele>
        <time>2025-01-19T08:39:12Z</time>
      </trkpt>
      <trkpt lat="43.43076" lon="6.65302">
        <ele>74.8</ele>
        <time>2025-01-19T08:39:13Z</time>
      </trkpt>
      <trkpt lat="43.43076" lon="6.65301">
        <ele>74.6</ele>
        <time>2025-01-19T08:39:14Z</time>
      </trkpt>
      <trkpt lat="43.43076" lon="6.65301">
        <ele>74.5</ele>
        <time>2025-01-19T08:39:15Z</time>
      </trkpt>
      <trkpt lat="43.43075" lon="6.65302">
        <ele>74.5</ele>
        <time>2025-01-19T08:39:16Z</time>
      </trkpt>
      <trkpt lat="43.43076" lon="6.65302">
        <ele>74.6</ele>
        <time>2025-01-19T08:39:17Z</time>
      </trkpt>
      <trkpt lat="43.43076" lon="6.65302">
        <ele>74.6</ele>
        <time>2025-01-19T08:39:18Z</time>
      </trkpt>
      <trkpt lat="43.43076" lon="6.65303">
        <ele>74.6</ele>
        <time>2025-01-19T08:39:19Z</time>
      </trkpt>
      <trkpt lat="43.43076" lon="6.65303">
        <ele>74.6</ele>
        <time>2025-01-19T08:39:20Z</time>
      </trkpt>
      <trkpt lat="43.43076" lon="6.65304">
        <ele>74.6</ele>
        <time>2025-01-19T08:39:21Z</time>
      </trkpt>
      <trkpt lat="43.43076" lon="6.65304">
        <ele>74.6</ele>
        <time>2025-01-19T08:39:22Z</time>
      </trkpt>
      <trkpt lat="43.43076" lon="6.65304">
        <ele>74.6</ele>
        <time>2025-01-19T08:39:23Z</time>
      </trkpt>
      <trkpt lat="43.43076" lon="6.65305">
        <ele>74.6</ele>
        <time>2025-01-19T08:39:24Z</time>
      </trkpt>
      <trkpt lat="43.43077" lon="6.65305">
        <ele>74.5</ele>
        <time>2025-01-19T08:39:25Z</time>
      </trkpt>
      <trkpt lat="43.43077" lon="6.65305">
        <ele>74.5</ele>
        <time>2025-01-19T08:39:26Z</time>
      </trkpt>
      <trkpt lat="43.43077" lon="6.65306">
        <ele>74.4</ele>
        <time>2025-01-19T08:39:27Z</time>
      </trkpt>
      <trkpt lat="43.43077" lon="6.65306">
        <ele>74.4</ele>
        <time>2025-01-19T08:39:28Z</time>
      </trkpt>
      <trkpt lat="43.43077" lon="6.65306">
        <ele>74.3</ele>
        <time>2025-01-19T08:39:29Z</time>
      </trkpt>
      <trkpt lat="43.43077" lon="6.65306">
        <ele>74.3</ele>
        <time>2025-01-19T08:39:30Z</time>
      </trkpt>
      <trkpt lat="43.43077" lon="6.65306">
        <ele>74.3</ele>
        <time>2025-01-19T08:39:31Z</time>
      </trkpt>
      <trkpt lat="43.43077" lon="6.65306">
        <ele>74.3</ele>
        <time>2025-01-19T08:39:32Z</time>
      </trkpt>
      <trkpt lat="43.43077" lon="6.65307">
        <ele>74.4</ele>
        <time>2025-01-19T08:39:33Z</time>
      </trkpt>
      <trkpt lat="43.43077" lon="6.65307">
        <ele>74.4</ele>
        <time>2025-01-19T08:39:34Z</time>
      </trkpt>
      <trkpt lat="43.43077" lon="6.65307">
        <ele>74.4</ele>
        <time>2025-01-19T08:39:35Z</time>
      </trkpt>
      <trkpt lat="43.43077" lon="6.65307">
        <ele>74.4</ele>
        <time>2025-01-19T08:39:36Z</time>
      </trkpt>
      <trkpt lat="43.43077" lon="6.65307">
        <ele>74.4</ele>
        <time>2025-01-19T08:39:37Z</time>
      </trkpt>
      <trkpt lat="43.43077" lon="6.65307">
        <ele>74.4</ele>
        <time>2025-01-19T08:39:38Z</time>
      </trkpt>
      <trkpt lat="43.43077" lon="6.65307">
        <ele>74.3</ele>
        <time>2025-01-19T08:39:39Z</time>
      </trkpt>
      <trkpt lat="43.43077" lon="6.65307">
        <ele>74.3</ele>
        <time>2025-01-19T08:39:40Z</time>
      </trkpt>
      <trkpt lat="43.43077" lon="6.65307">
        <ele>74.3</ele>
        <time>2025-01-19T08:39:41Z</time>
      </trkpt>
      <trkpt lat="43.43077" lon="6.65307">
        <ele>74.3</ele>
        <time>2025-01-19T08:39:42Z</time>
      </trkpt>
      <trkpt lat="43.43077" lon="6.65307">
        <ele>74.3</ele>
        <time>2025-01-19T08:39:43Z</time>
      </trkpt>
      <trkpt lat="43.43078" lon="6.65307">
        <ele>74.3</ele>
        <time>2025-01-19T08:39:44Z</time>
      </trkpt>
      <trkpt lat="43.43078" lon="6.65307">
        <ele>74.3</ele>
        <time>2025-01-19T08:39:45Z</time>
      </trkpt>
      <trkpt lat="43.43078" lon="6.65307">
        <ele>74.3</ele>
        <time>2025-01-19T08:39:46Z</time>
      </trkpt>
      <trkpt lat="43.43077" lon="6.65307">
        <ele>74.3</ele>
        <time>2025-01-19T08:39:47Z</time>
      </trkpt>
      <trkpt lat="43.43077" lon="6.65307">
        <ele>74.3</ele>
        <time>2025-01-19T08:39:48Z</time>
      </trkpt>
      <trkpt lat="43.43077" lon="6.65307">
        <ele>74.4</ele>
        <time>2025-01-19T08:39:49Z</time>
      </trkpt>
      <trkpt lat="43.43077" lon="6.65307">
        <ele>74.3</ele>
        <time>2025-01-19T08:39:50Z</time>
      </trkpt>
      <trkpt lat="43.43077" lon="6.65307">
        <ele>74.3</ele>
        <time>2025-01-19T08:39:51Z</time>
      </trkpt>
      <trkpt lat="43.43077" lon="6.65306">
        <ele>74.3</ele>
        <time>2025-01-19T08:39:52Z</time>
      </trkpt>
      <trkpt lat="43.43077" lon="6.65306">
        <ele>74.4</ele>
        <time>2025-01-19T08:39:53Z</time>
      </trkpt>
      <trkpt lat="43.43077" lon="6.65306">
        <ele>74.4</ele>
        <time>2025-01-19T08:39:54Z</time>
      </trkpt>
      <trkpt lat="43.43077" lon="6.65307">
        <ele>74.4</ele>
        <time>2025-01-19T08:39:55Z</time>
      </trkpt>
      <trkpt lat="43.43077" lon="6.65307">
        <ele>74.4</ele>
        <time>2025-01-19T08:39:56Z</time>
      </trkpt>
      <trkpt lat="43.43077" lon="6.65307">
        <ele>74.3</ele>
        <time>2025-01-19T08:39:57Z</time>
      </trkpt>
      <trkpt lat="43.43077" lon="6.65307">
        <ele>74.3</ele>
        <time>2025-01-19T08:39:58Z</time>
      </trkpt>
      <trkpt lat="43.43077" lon="6.65307">
        <ele>74.3</ele>
        <time>2025-01-19T08:39:59Z</time>
      </trkpt>
      <trkpt lat="43.43077" lon="6.65307">
        <ele>74.2</ele>
        <time>2025-01-19T08:40:00Z</time>
      </trkpt>
      <trkpt lat="43.43076" lon="6.65308">
        <ele>74.2</ele>
        <time>2025-01-19T08:40:01Z</time>
      </trkpt>
      <trkpt lat="43.43076" lon="6.65308">
        <ele>74.3</ele>
        <time>2025-01-19T08:40:02Z</time>
      </trkpt>
      <trkpt lat="43.43076" lon="6.65308">
        <ele>74.3</ele>
        <time>2025-01-19T08:40:03Z</time>
      </trkpt>
      <trkpt lat="43.43076" lon="6.65308">
        <ele>74.3</ele>
        <time>2025-01-19T08:40:04Z</time>
      </trkpt>
      <trkpt lat="43.43076" lon="6.65309">
        <ele>74.3</ele>
        <time>2025-01-19T08:40:05Z</time>
      </trkpt>
      <trkpt lat="43.43076" lon="6.65309">
        <ele>74.4</ele>
        <time>2025-01-19T08:40:06Z</time>
      </trkpt>
      <trkpt lat="43.43076" lon="6.65309">
        <ele>74.4</ele>
        <time>2025-01-19T08:40:07Z</time>
      </trkpt>
      <trkpt lat="43.43076" lon="6.65309">
        <ele>74.4</ele>
        <time>2025-01-19T08:40:08Z</time>
      </trkpt>
      <trkpt lat="43.43076" lon="6.65309">
        <ele>74.4</ele>
        <time>2025-01-19T08:40:09Z</time>
      </trkpt>
      <trkpt lat="43.43076" lon="6.65309">
        <ele>74.3</ele>
        <time>2025-01-19T08:40:10Z</time>
      </trkpt>
      <trkpt lat="43.43076" lon="6.65308">
        <ele>74.3</ele>
        <time>2025-01-19T08:40:11Z</time>
      </trkpt>
      <trkpt lat="43.43075" lon="6.65308">
        <ele>74.3</ele>
        <time>2025-01-19T08:40:12Z</time>
      </trkpt>
      <trkpt lat="43.43075" lon="6.65308">
        <ele>74.3</ele>
        <time>2025-01-19T08:40:13Z</time>
      </trkpt>
      <trkpt lat="43.43075" lon="6.65308">
        <ele>74.2</ele>
        <time>2025-01-19T08:40:14Z</time>
      </trkpt>
      <trkpt lat="43.43074" lon="6.65308">
        <ele>74.2</ele>
        <time>2025-01-19T08:40:15Z</time>
      </trkpt>
      <trkpt lat="43.43074" lon="6.65308">
        <ele>74.1</ele>
        <time>2025-01-19T08:40:16Z</time>
      </trkpt>
      <trkpt lat="43.43074" lon="6.65307">
        <ele>74.1</ele>
        <time>2025-01-19T08:40:17Z</time>
      </trkpt>
      <trkpt lat="43.43073" lon="6.65307">
        <ele>74</ele>
        <time>2025-01-19T08:40:18Z</time>
      </trkpt>
      <trkpt lat="43.43073" lon="6.65307">
        <ele>73.9</ele>
        <time>2025-01-19T08:40:19Z</time>
      </trkpt>
      <trkpt lat="43.43072" lon="6.65307">
        <ele>73.8</ele>
        <time>2025-01-19T08:40:20Z</time>
      </trkpt>
      <trkpt lat="43.43072" lon="6.65307">
        <ele>73.7</ele>
        <time>2025-01-19T08:40:21Z</time>
      </trkpt>
      <trkpt lat="43.43072" lon="6.65307">
        <ele>73.7</ele>
        <time>2025-01-19T08:40:22Z</time>
      </trkpt>
      <trkpt lat="43.43072" lon="6.65307">
        <ele>73.6</ele>
        <time>2025-01-19T08:40:23Z</time>
      </trkpt>
      <trkpt lat="43.43072" lon="6.65307">
        <ele>73.7</ele>
        <time>2025-01-19T08:40:24Z</time>
      </trkpt>
      <trkpt lat="43.43072" lon="6.65307">
        <ele>73.7</ele>
        <time>2025-01-19T08:40:25Z</time>
      </trkpt>
      <trkpt lat="43.43072" lon="6.65307">
        <ele>73.7</ele>
        <time>2025-01-19T08:40:26Z</time>
      </trkpt>
      <trkpt lat="43.43072" lon="6.65307">
        <ele>73.7</ele>
        <time>2025-01-19T08:40:27Z</time>
      </trkpt>
      <trkpt lat="43.43071" lon="6.65307">
        <ele>73.7</ele>
        <time>2025-01-19T08:40:28Z</time>
      </trkpt>
      <trkpt lat="43.43071" lon="6.65307">
        <ele>73.6</ele>
        <time>2025-01-19T08:40:29Z</time>
      </trkpt>
      <trkpt lat="43.4307" lon="6.65307">
        <ele>73.5</ele>
        <time>2025-01-19T08:40:30Z</time>
      </trkpt>
      <trkpt lat="43.43069" lon="6.65307">
        <ele>73.4</ele>
        <time>2025-01-19T08:40:31Z</time>
      </trkpt>
      <trkpt lat="43.43069" lon="6.65307">
        <ele>73.3</ele>
        <time>2025-01-19T08:40:32Z</time>
      </trkpt>
      <trkpt lat="43.43068" lon="6.65307">
        <ele>73.2</ele>
        <time>2025-01-19T08:40:33Z</time>
      </trkpt>
      <trkpt lat="43.43067" lon="6.65307">
        <ele>73</ele>
        <time>2025-01-19T08:40:34Z</time>
      </trkpt>
      <trkpt lat="43.43067" lon="6.65306">
        <ele>72.8</ele>
        <time>2025-01-19T08:40:35Z</time>
      </trkpt>
      <trkpt lat="43.43066" lon="6.65306">
        <ele>72.7</ele>
        <time>2025-01-19T08:40:36Z</time>
      </trkpt>
      <trkpt lat="43.43065" lon="6.65306">
        <ele>72.5</ele>
        <time>2025-01-19T08:40:37Z</time>
      </trkpt>
      <trkpt lat="43.43065" lon="6.65306">
        <ele>72.3</ele>
        <time>2025-01-19T08:40:38Z</time>
      </trkpt>
      <trkpt lat="43.43064" lon="6.65306">
        <ele>72.1</ele>
        <time>2025-01-19T08:40:39Z</time>
      </trkpt>
      <trkpt lat="43.43064" lon="6.65306">
        <ele>71.9</ele>
        <time>2025-01-19T08:40:40Z</time>
      </trkpt>
      <trkpt lat="43.43064" lon="6.65305">
        <ele>71.8</ele>
        <time>2025-01-19T08:40:41Z</time>
      </trkpt>
      <trkpt lat="43.43064" lon="6.65305">
        <ele>71.7</ele>
        <time>2025-01-19T08:40:42Z</time>
      </trkpt>
      <trkpt lat="43.43065" lon="6.65306">
        <ele>71.7</ele>
        <time>2025-01-19T08:40:43Z</time>
      </trkpt>
      <trkpt lat="43.43064" lon="6.65306">
        <ele>71.6</ele>
        <time>2025-01-19T08:40:44Z</time>
      </trkpt>
      <trkpt lat="43.43064" lon="6.65306">
        <ele>71.5</ele>
        <time>2025-01-19T08:40:45Z</time>
      </trkpt>
      <trkpt lat="43.43064" lon="6.65307">
        <ele>71.4</ele>
        <time>2025-01-19T08:40:46Z</time>
      </trkpt>
      <trkpt lat="43.43063" lon="6.65307">
        <ele>71.3</ele>
        <time>2025-01-19T08:40:47Z</time>
      </trkpt>
      <trkpt lat="43.43062" lon="6.65307">
        <ele>71.2</ele>
        <time>2025-01-19T08:40:48Z</time>
      </trkpt>
      <trkpt lat="43.43061" lon="6.65306">
        <ele>71.1</ele>
        <time>2025-01-19T08:40:49Z</time>
      </trkpt>
      <trkpt lat="43.4306" lon="6.65306">
        <ele>71</ele>
        <time>2025-01-19T08:40:50Z</time>
      </trkpt>
      <trkpt lat="43.43059" lon="6.65306">
        <ele>71</ele>
        <time>2025-01-19T08:40:51Z</time>
      </trkpt>
      <trkpt lat="43.43058" lon="6.65305">
        <ele>70.8</ele>
        <time>2025-01-19T08:40:52Z</time>
      </trkpt>
      <trkpt lat="43.43057" lon="6.65305">
        <ele>70.7</ele>
        <time>2025-01-19T08:40:53Z</time>
      </trkpt>
      <trkpt lat="43.43057" lon="6.65305">
        <ele>70.5</ele>
        <time>2025-01-19T08:40:54Z</time>
      </trkpt>
      <trkpt lat="43.43056" lon="6.65304">
        <ele>70.3</ele>
        <time>2025-01-19T08:40:55Z</time>
      </trkpt>
      <trkpt lat="43.43054" lon="6.65304">
        <ele>70.2</ele>
        <time>2025-01-19T08:40:56Z</time>
      </trkpt>
      <trkpt lat="43.43053" lon="6.65304">
        <ele>70</ele>
        <time>2025-01-19T08:40:57Z</time>
      </trkpt>
      <trkpt lat="43.43052" lon="6.65303">
        <ele>69.8</ele>
        <time>2025-01-19T08:40:58Z</time>
      </trkpt>
      <trkpt lat="43.43052" lon="6.65303">
        <ele>69.6</ele>
        <time>2025-01-19T08:40:59Z</time>
      </trkpt>
      <trkpt lat="43.4305" lon="6.65303">
        <ele>69.5</ele>
        <time>2025-01-19T08:41:00Z</time>
      </trkpt>
      <trkpt lat="43.43049" lon="6.65302">
        <ele>69.4</ele>
        <time>2025-01-19T08:41:01Z</time>
      </trkpt>
      <trkpt lat="43.43048" lon="6.65302">
        <ele>69.2</ele>
        <time>2025-01-19T08:41:02Z</time>
      </trkpt>
      <trkpt lat="43.43047" lon="6.65302">
        <ele>69.1</ele>
        <time>2025-01-19T08:41:03Z</time>
      </trkpt>
      <trkpt lat="43.43046" lon="6.65301">
        <ele>69</ele>
        <time>2025-01-19T08:41:04Z</time>
      </trkpt>
      <trkpt lat="43.43045" lon="6.653">
        <ele>68.9</ele>
        <time>2025-01-19T08:41:05Z</time>
      </trkpt>
      <trkpt lat="43.43044" lon="6.653">
        <ele>68.9</ele>
        <time>2025-01-19T08:41:06Z</time>
      </trkpt>
      <trkpt lat="43.43043" lon="6.65299">
        <ele>68.9</ele>
        <time>2025-01-19T08:41:07Z</time>
      </trkpt>
      <trkpt lat="43.43041" lon="6.65299">
        <ele>68.8</ele>
        <time>2025-01-19T08:41:08Z</time>
      </trkpt>
      <trkpt lat="43.43041" lon="6.65298">
        <ele>68.6</ele>
        <time>2025-01-19T08:41:09Z</time>
      </trkpt>
      <trkpt lat="43.4304" lon="6.65299">
        <ele>68.4</ele>
        <time>2025-01-19T08:41:10Z</time>
      </trkpt>
      <trkpt lat="43.43039" lon="6.65299">
        <ele>68.3</ele>
        <time>2025-01-19T08:41:11Z</time>
      </trkpt>
      <trkpt lat="43.43039" lon="6.65299">
        <ele>68.3</ele>
        <time>2025-01-19T08:41:12Z</time>
      </trkpt>
      <trkpt lat="43.43038" lon="6.65299">
        <ele>68.3</ele>
        <time>2025-01-19T08:41:13Z</time>
      </trkpt>
      <trkpt lat="43.43037" lon="6.65299">
        <ele>68.3</ele>
        <time>2025-01-19T08:41:14Z</time>
      </trkpt>
      <trkpt lat="43.43037" lon="6.653">
        <ele>68.3</ele>
        <time>2025-01-19T08:41:15Z</time>
      </trkpt>
      <trkpt lat="43.43036" lon="6.653">
        <ele>68.4</ele>
        <time>2025-01-19T08:41:16Z</time>
      </trkpt>
      <trkpt lat="43.43036" lon="6.65301">
        <ele>68.5</ele>
        <time>2025-01-19T08:41:17Z</time>
      </trkpt>
      <trkpt lat="43.43035" lon="6.65302">
        <ele>68.6</ele>
        <time>2025-01-19T08:41:18Z</time>
      </trkpt>
      <trkpt lat="43.43034" lon="6.65303">
        <ele>68.7</ele>
        <time>2025-01-19T08:41:19Z</time>
      </trkpt>
      <trkpt lat="43.43033" lon="6.65304">
        <ele>68.8</ele>
        <time>2025-01-19T08:41:20Z</time>
      </trkpt>
      <trkpt lat="43.43033" lon="6.65305">
        <ele>68.9</ele>
        <time>2025-01-19T08:41:21Z</time>
      </trkpt>
      <trkpt lat="43.43032" lon="6.65306">
        <ele>69</ele>
        <time>2025-01-19T08:41:22Z</time>
      </trkpt>
      <trkpt lat="43.43031" lon="6.65307">
        <ele>69.1</ele>
        <time>2025-01-19T08:41:23Z</time>
      </trkpt>
      <trkpt lat="43.4303" lon="6.65308">
        <ele>69.2</ele>
        <time>2025-01-19T08:41:24Z</time>
      </trkpt>
      <trkpt lat="43.43028" lon="6.65308">
        <ele>69.3</ele>
        <time>2025-01-19T08:41:25Z</time>
      </trkpt>
      <trkpt lat="43.43027" lon="6.65309">
        <ele>69.4</ele>
        <time>2025-01-19T08:41:26Z</time>
      </trkpt>
      <trkpt lat="43.43026" lon="6.65309">
        <ele>69.4</ele>
        <time>2025-01-19T08:41:27Z</time>
      </trkpt>
      <trkpt lat="43.43025" lon="6.6531">
        <ele>69.5</ele>
        <time>2025-01-19T08:41:28Z</time>
      </trkpt>
      <trkpt lat="43.43023" lon="6.6531">
        <ele>69.6</ele>
        <time>2025-01-19T08:41:29Z</time>
      </trkpt>
      <trkpt lat="43.43022" lon="6.6531">
        <ele>69.6</ele>
        <time>2025-01-19T08:41:30Z</time>
      </trkpt>
      <trkpt lat="43.43021" lon="6.65311">
        <ele>69.6</ele>
        <time>2025-01-19T08:41:31Z</time>
      </trkpt>
      <trkpt lat="43.4302" lon="6.65311">
        <ele>69.7</ele>
        <time>2025-01-19T08:41:32Z</time>
      </trkpt>
      <trkpt lat="43.43019" lon="6.65312">
        <ele>69.8</ele>
        <time>2025-01-19T08:41:33Z</time>
      </trkpt>
      <trkpt lat="43.43018" lon="6.65312">
        <ele>69.8</ele>
        <time>2025-01-19T08:41:34Z</time>
      </trkpt>
      <trkpt lat="43.43018" lon="6.65312">
        <ele>69.8</ele>
        <time>2025-01-19T08:41:35Z</time>
      </trkpt>
      <trkpt lat="43.43017" lon="6.65312">
        <ele>69.9</ele>
        <time>2025-01-19T08:41:36Z</time>
      </trkpt>
      <trkpt lat="43.43016" lon="6.65312">
        <ele>69.9</ele>
        <time>2025-01-19T08:41:37Z</time>
      </trkpt>
      <trkpt lat="43.43016" lon="6.65313">
        <ele>70</ele>
        <time>2025-01-19T08:41:38Z</time>
      </trkpt>
      <trkpt lat="43.43015" lon="6.65313">
        <ele>70</ele>
        <time>2025-01-19T08:41:39Z</time>
      </trkpt>
      <trkpt lat="43.43015" lon="6.65314">
        <ele>70</ele>
        <time>2025-01-19T08:41:40Z</time>
      </trkpt>
      <trkpt lat="43.43015" lon="6.65314">
        <ele>70</ele>
        <time>2025-01-19T08:41:41Z</time>
      </trkpt>
      <trkpt lat="43.43015" lon="6.65314">
        <ele>70</ele>
        <time>2025-01-19T08:41:42Z</time>
      </trkpt>
      <trkpt lat="43.43014" lon="6.65313">
        <ele>70</ele>
        <time>2025-01-19T08:41:43Z</time>
      </trkpt>
      <trkpt lat="43.43013" lon="6.65313">
        <ele>69.9</ele>
        <time>2025-01-19T08:41:44Z</time>
      </trkpt>
      <trkpt lat="43.43012" lon="6.65313">
        <ele>70</ele>
        <time>2025-01-19T08:41:45Z</time>
      </trkpt>
      <trkpt lat="43.43011" lon="6.65313">
        <ele>70</ele>
        <time>2025-01-19T08:41:46Z</time>
      </trkpt>
      <trkpt lat="43.43011" lon="6.65312">
        <ele>70.1</ele>
        <time>2025-01-19T08:41:47Z</time>
      </trkpt>
      <trkpt lat="43.4301" lon="6.65312">
        <ele>70.1</ele>
        <time>2025-01-19T08:41:48Z</time>
      </trkpt>
      <trkpt lat="43.4301" lon="6.65312">
        <ele>70.1</ele>
        <time>2025-01-19T08:41:49Z</time>
      </trkpt>
      <trkpt lat="43.4301" lon="6.65312">
        <ele>70.1</ele>
        <time>2025-01-19T08:41:50Z</time>
      </trkpt>
      <trkpt lat="43.4301" lon="6.65312">
        <ele>70</ele>
        <time>2025-01-19T08:41:51Z</time>
      </trkpt>
      <trkpt lat="43.4301" lon="6.65313">
        <ele>69.9</ele>
        <time>2025-01-19T08:41:52Z</time>
      </trkpt>
      <trkpt lat="43.4301" lon="6.65313">
        <ele>69.9</ele>
        <time>2025-01-19T08:41:53Z</time>
      </trkpt>
      <trkpt lat="43.4301" lon="6.65313">
        <ele>70</ele>
        <time>2025-01-19T08:41:54Z</time>
      </trkpt>
      <trkpt lat="43.4301" lon="6.65313">
        <ele>70</ele>
        <time>2025-01-19T08:41:55Z</time>
      </trkpt>
      <trkpt lat="43.4301" lon="6.65314">
        <ele>70</ele>
        <time>2025-01-19T08:41:56Z</time>
      </trkpt>
      <trkpt lat="43.4301" lon="6.65314">
        <ele>70</ele>
        <time>2025-01-19T08:41:57Z</time>
      </trkpt>
      <trkpt lat="43.4301" lon="6.65314">
        <ele>69.9</ele>
        <time>2025-01-19T08:41:58Z</time>
      </trkpt>
      <trkpt lat="43.4301" lon="6.65314">
        <ele>69.9</ele>
        <time>2025-01-19T08:41:59Z</time>
      </trkpt>
      <trkpt lat="43.4301" lon="6.65314">
        <ele>69.9</ele>
        <time>2025-01-19T08:42:00Z</time>
      </trkpt>
      <trkpt lat="43.4301" lon="6.65314">
        <ele>69.9</ele>
        <time>2025-01-19T08:42:01Z</time>
      </trkpt>
      <trkpt lat="43.4301" lon="6.65314">
        <ele>69.9</ele>
        <time>2025-01-19T08:42:02Z</time>
      </trkpt>
      <trkpt lat="43.4301" lon="6.65314">
        <ele>69.8</ele>
        <time>2025-01-19T08:42:03Z</time>
      </trkpt>
      <trkpt lat="43.4301" lon="6.65314">
        <ele>69.8</ele>
        <time>2025-01-19T08:42:04Z</time>
      </trkpt>
      <trkpt lat="43.4301" lon="6.65314">
        <ele>69.8</ele>
        <time>2025-01-19T08:42:05Z</time>
      </trkpt>
      <trkpt lat="43.4301" lon="6.65314">
        <ele>69.8</ele>
        <time>2025-01-19T08:42:06Z</time>
      </trkpt>
      <trkpt lat="43.4301" lon="6.65314">
        <ele>69.9</ele>
        <time>2025-01-19T08:42:07Z</time>
      </trkpt>
      <trkpt lat="43.4301" lon="6.65314">
        <ele>69.9</ele>
        <time>2025-01-19T08:42:08Z</time>
      </trkpt>
      <trkpt lat="43.4301" lon="6.65314">
        <ele>69.9</ele>
        <time>2025-01-19T08:42:09Z</time>
      </trkpt>
      <trkpt lat="43.4301" lon="6.65314">
        <ele>69.9</ele>
        <time>2025-01-19T08:42:10Z</time>
      </trkpt>
      <trkpt lat="43.4301" lon="6.65315">
        <ele>69.8</ele>
        <time>2025-01-19T08:42:11Z</time>
      </trkpt>
      <trkpt lat="43.4301" lon="6.65315">
        <ele>69.8</ele>
        <time>2025-01-19T08:42:12Z</time>
      </trkpt>
      <trkpt lat="43.4301" lon="6.65315">
        <ele>69.7</ele>
        <time>2025-01-19T08:42:13Z</time>
      </trkpt>
      <trkpt lat="43.4301" lon="6.65315">
        <ele>69.7</ele>
        <time>2025-01-19T08:42:14Z</time>
      </trkpt>
      <trkpt lat="43.4301" lon="6.65315">
        <ele>69.7</ele>
        <time>2025-01-19T08:42:15Z</time>
      </trkpt>
      <trkpt lat="43.43009" lon="6.65315">
        <ele>69.8</ele>
        <time>2025-01-19T08:42:16Z</time>
      </trkpt>
      <trkpt lat="43.4301" lon="6.65315">
        <ele>69.8</ele>
        <time>2025-01-19T08:42:17Z</time>
      </trkpt>
      <trkpt lat="43.4301" lon="6.65314">
        <ele>69.9</ele>
        <time>2025-01-19T08:42:18Z</time>
      </trkpt>
      <trkpt lat="43.4301" lon="6.65314">
        <ele>69.9</ele>
        <time>2025-01-19T08:42:19Z</time>
      </trkpt>
      <trkpt lat="43.4301" lon="6.65314">
        <ele>69.9</ele>
        <time>2025-01-19T08:42:20Z</time>
      </trkpt>
      <trkpt lat="43.4301" lon="6.65314">
        <ele>69.9</ele>
        <time>2025-01-19T08:42:21Z</time>
      </trkpt>
      <trkpt lat="43.4301" lon="6.65314">
        <ele>70</ele>
        <time>2025-01-19T08:42:22Z</time>
      </trkpt>
      <trkpt lat="43.4301" lon="6.65314">
        <ele>70.1</ele>
        <time>2025-01-19T08:42:23Z</time>
      </trkpt>
      <trkpt lat="43.4301" lon="6.65314">
        <ele>70.1</ele>
        <time>2025-01-19T08:42:24Z</time>
      </trkpt>
      <trkpt lat="43.4301" lon="6.65314">
        <ele>70.1</ele>
        <time>2025-01-19T08:42:25Z</time>
      </trkpt>
      <trkpt lat="43.4301" lon="6.65313">
        <ele>70.2</ele>
        <time>2025-01-19T08:42:26Z</time>
      </trkpt>
      <trkpt lat="43.43011" lon="6.65313">
        <ele>70.3</ele>
        <time>2025-01-19T08:42:27Z</time>
      </trkpt>
      <trkpt lat="43.43011" lon="6.65313">
        <ele>70.3</ele>
        <time>2025-01-19T08:42:28Z</time>
      </trkpt>
      <trkpt lat="43.43011" lon="6.65313">
        <ele>70.3</ele>
        <time>2025-01-19T08:42:29Z</time>
      </trkpt>
      <trkpt lat="43.43011" lon="6.65313">
        <ele>70.3</ele>
        <time>2025-01-19T08:42:30Z</time>
      </trkpt>
      <trkpt lat="43.43011" lon="6.65313">
        <ele>70.3</ele>
        <time>2025-01-19T08:42:31Z</time>
      </trkpt>
      <trkpt lat="43.43011" lon="6.65313">
        <ele>70.3</ele>
        <time>2025-01-19T08:42:32Z</time>
      </trkpt>
      <trkpt lat="43.4301" lon="6.65313">
        <ele>70.3</ele>
        <time>2025-01-19T08:42:33Z</time>
      </trkpt>
      <trkpt lat="43.4301" lon="6.65313">
        <ele>70.3</ele>
        <time>2025-01-19T08:42:34Z</time>
      </trkpt>
      <trkpt lat="43.4301" lon="6.65313">
        <ele>70.2</ele>
        <time>2025-01-19T08:42:35Z</time>
      </trkpt>
      <trkpt lat="43.4301" lon="6.65313">
        <ele>70.2</ele>
        <time>2025-01-19T08:42:36Z</time>
      </trkpt>
      <trkpt lat="43.4301" lon="6.65313">
        <ele>70.1</ele>
        <time>2025-01-19T08:42:37Z</time>
      </trkpt>
      <trkpt lat="43.4301" lon="6.65313">
        <ele>70.1</ele>
        <time>2025-01-19T08:42:38Z</time>
      </trkpt>
      <trkpt lat="43.4301" lon="6.65313">
        <ele>70.1</ele>
        <time>2025-01-19T08:42:39Z</time>
      </trkpt>
      <trkpt lat="43.4301" lon="6.65313">
        <ele>70.1</ele>
        <time>2025-01-19T08:42:40Z</time>
      </trkpt>
      <trkpt lat="43.4301" lon="6.65313">
        <ele>70.1</ele>
        <time>2025-01-19T08:42:41Z</time>
      </trkpt>
      <trkpt lat="43.4301" lon="6.65313">
        <ele>70.1</ele>
        <time>2025-01-19T08:42:42Z</time>
      </trkpt>
      <trkpt lat="43.4301" lon="6.65313">
        <ele>70.1</ele>
        <time>2025-01-19T08:42:43Z</time>
      </trkpt>
      <trkpt lat="43.4301" lon="6.65313">
        <ele>70.1</ele>
        <time>2025-01-19T08:42:44Z</time>
      </trkpt>
      <trkpt lat="43.4301" lon="6.65313">
        <ele>70.1</ele>
        <time>2025-01-19T08:42:45Z</time>
      </trkpt>
      <trkpt lat="43.43009" lon="6.65313">
        <ele>70.2</ele>
        <time>2025-01-19T08:42:46Z</time>
      </trkpt>
      <trkpt lat="43.43009" lon="6.65312">
        <ele>70.2</ele>
        <time>2025-01-19T08:42:47Z</time>
      </trkpt>
      <trkpt lat="43.43008" lon="6.65311">
        <ele>70.2</ele>
        <time>2025-01-19T08:42:48Z</time>
      </trkpt>
      <trkpt lat="43.43007" lon="6.65311">
        <ele>70.2</ele>
        <time>2025-01-19T08:42:49Z</time>
      </trkpt>
      <trkpt lat="43.43007" lon="6.6531">
        <ele>70.2</ele>
        <time>2025-01-19T08:42:50Z</time>
      </trkpt>
      <trkpt lat="43.43006" lon="6.6531">
        <ele>70.2</ele>
        <time>2025-01-19T08:42:51Z</time>
      </trkpt>
      <trkpt lat="43.43006" lon="6.65309">
        <ele>70.2</ele>
        <time>2025-01-19T08:42:52Z</time>
      </trkpt>
      <trkpt lat="43.43005" lon="6.65308">
        <ele>70.2</ele>
        <time>2025-01-19T08:42:53Z</time>
      </trkpt>
      <trkpt lat="43.43004" lon="6.65308">
        <ele>70.2</ele>
        <time>2025-01-19T08:42:54Z</time>
      </trkpt>
      <trkpt lat="43.43003" lon="6.65307">
        <ele>70.3</ele>
        <time>2025-01-19T08:42:55Z</time>
      </trkpt>
      <trkpt lat="43.43002" lon="6.65306">
        <ele>70.3</ele>
        <time>2025-01-19T08:42:56Z</time>
      </trkpt>
      <trkpt lat="43.43001" lon="6.65305">
        <ele>70.4</ele>
        <time>2025-01-19T08:42:57Z</time>
      </trkpt>
      <trkpt lat="43.43001" lon="6.65305">
        <ele>70.4</ele>
        <time>2025-01-19T08:42:58Z</time>
      </trkpt>
      <trkpt lat="43.43" lon="6.65304">
        <ele>70.5</ele>
        <time>2025-01-19T08:42:59Z</time>
      </trkpt>
      <trkpt lat="43.42999" lon="6.65303">
        <ele>70.5</ele>
        <time>2025-01-19T08:43:00Z</time>
      </trkpt>
      <trkpt lat="43.42998" lon="6.65302">
        <ele>70.5</ele>
        <time>2025-01-19T08:43:01Z</time>
      </trkpt>
      <trkpt lat="43.42997" lon="6.65301">
        <ele>70.5</ele>
        <time>2025-01-19T08:43:02Z</time>
      </trkpt>
      <trkpt lat="43.42996" lon="6.653">
        <ele>70.5</ele>
        <time>2025-01-19T08:43:03Z</time>
      </trkpt>
      <trkpt lat="43.42994" lon="6.65299">
        <ele>70.5</ele>
        <time>2025-01-19T08:43:04Z</time>
      </trkpt>
      <trkpt lat="43.42993" lon="6.65298">
        <ele>70.5</ele>
        <time>2025-01-19T08:43:05Z</time>
      </trkpt>
      <trkpt lat="43.42992" lon="6.65298">
        <ele>70.5</ele>
        <time>2025-01-19T08:43:06Z</time>
      </trkpt>
      <trkpt lat="43.42991" lon="6.65297">
        <ele>70.4</ele>
        <time>2025-01-19T08:43:07Z</time>
      </trkpt>
      <trkpt lat="43.42989" lon="6.65297">
        <ele>70.4</ele>
        <time>2025-01-19T08:43:08Z</time>
      </trkpt>
      <trkpt lat="43.42988" lon="6.65296">
        <ele>70.4</ele>
        <time>2025-01-19T08:43:09Z</time>
      </trkpt>
      <trkpt lat="43.42987" lon="6.65296">
        <ele>70.4</ele>
        <time>2025-01-19T08:43:10Z</time>
      </trkpt>
      <trkpt lat="43.42986" lon="6.65296">
        <ele>70.3</ele>
        <time>2025-01-19T08:43:11Z</time>
      </trkpt>
      <trkpt lat="43.42984" lon="6.65296">
        <ele>70.3</ele>
        <time>2025-01-19T08:43:12Z</time>
      </trkpt>
      <trkpt lat="43.42983" lon="6.65296">
        <ele>70.3</ele>
        <time>2025-01-19T08:43:13Z</time>
      </trkpt>
      <trkpt lat="43.42981" lon="6.65296">
        <ele>70.3</ele>
        <time>2025-01-19T08:43:14Z</time>
      </trkpt>
      <trkpt lat="43.42981" lon="6.65296">
        <ele>70.4</ele>
        <time>2025-01-19T08:43:15Z</time>
      </trkpt>
      <trkpt lat="43.42979" lon="6.65296">
        <ele>70.4</ele>
        <time>2025-01-19T08:43:16Z</time>
      </trkpt>
      <trkpt lat="43.42978" lon="6.65296">
        <ele>70.4</ele>
        <time>2025-01-19T08:43:17Z</time>
      </trkpt>
      <trkpt lat="43.42977" lon="6.65296">
        <ele>70.5</ele>
        <time>2025-01-19T08:43:18Z</time>
      </trkpt>
      <trkpt lat="43.42976" lon="6.65296">
        <ele>70.6</ele>
        <time>2025-01-19T08:43:19Z</time>
      </trkpt>
      <trkpt lat="43.42975" lon="6.65297">
        <ele>70.7</ele>
        <time>2025-01-19T08:43:20Z</time>
      </trkpt>
      <trkpt lat="43.42974" lon="6.65296">
        <ele>70.8</ele>
        <time>2025-01-19T08:43:21Z</time>
      </trkpt>
      <trkpt lat="43.42973" lon="6.65296">
        <ele>70.9</ele>
        <time>2025-01-19T08:43:22Z</time>
      </trkpt>
      <trkpt lat="43.42972" lon="6.65296">
        <ele>71</ele>
        <time>2025-01-19T08:43:23Z</time>
      </trkpt>
      <trkpt lat="43.42971" lon="6.65296">
        <ele>71.1</ele>
        <time>2025-01-19T08:43:24Z</time>
      </trkpt>
      <trkpt lat="43.42969" lon="6.65295">
        <ele>71.2</ele>
        <time>2025-01-19T08:43:25Z</time>
      </trkpt>
      <trkpt lat="43.42968" lon="6.65295">
        <ele>71.3</ele>
        <time>2025-01-19T08:43:26Z</time>
      </trkpt>
      <trkpt lat="43.42967" lon="6.65295">
        <ele>71.4</ele>
        <time>2025-01-19T08:43:27Z</time>
      </trkpt>
      <trkpt lat="43.42966" lon="6.65294">
        <ele>71.4</ele>
        <time>2025-01-19T08:43:28Z</time>
      </trkpt>
      <trkpt lat="43.42965" lon="6.65294">
        <ele>71.5</ele>
        <time>2025-01-19T08:43:29Z</time>
      </trkpt>
      <trkpt lat="43.42964" lon="6.65293">
        <ele>71.6</ele>
        <time>2025-01-19T08:43:30Z</time>
      </trkpt>
      <trkpt lat="43.42963" lon="6.65293">
        <ele>71.7</ele>
        <time>2025-01-19T08:43:31Z</time>
      </trkpt>
      <trkpt lat="43.42962" lon="6.65292">
        <ele>71.7</ele>
        <time>2025-01-19T08:43:32Z</time>
      </trkpt>
      <trkpt lat="43.42961" lon="6.65291">
        <ele>71.7</ele>
        <time>2025-01-19T08:43:33Z</time>
      </trkpt>
      <trkpt lat="43.4296" lon="6.65291">
        <ele>71.8</ele>
        <time>2025-01-19T08:43:34Z</time>
      </trkpt>
      <trkpt lat="43.42959" lon="6.6529">
        <ele>71.8</ele>
        <time>2025-01-19T08:43:35Z</time>
      </trkpt>
      <trkpt lat="43.42958" lon="6.65289">
        <ele>71.9</ele>
        <time>2025-01-19T08:43:36Z</time>
      </trkpt>
      <trkpt lat="43.42957" lon="6.65288">
        <ele>72</ele>
        <time>2025-01-19T08:43:37Z</time>
      </trkpt>
      <trkpt lat="43.42956" lon="6.65287">
        <ele>72.1</ele>
        <time>2025-01-19T08:43:38Z</time>
      </trkpt>
      <trkpt lat="43.42954" lon="6.65286">
        <ele>72.1</ele>
        <time>2025-01-19T08:43:39Z</time>
      </trkpt>
      <trkpt lat="43.42953" lon="6.65285">
        <ele>72.1</ele>
        <time>2025-01-19T08:43:40Z</time>
      </trkpt>
      <trkpt lat="43.42952" lon="6.65284">
        <ele>72.1</ele>
        <time>2025-01-19T08:43:41Z</time>
      </trkpt>
      <trkpt lat="43.42951" lon="6.65283">
        <ele>72.1</ele>
        <time>2025-01-19T08:43:42Z</time>
      </trkpt>
      <trkpt lat="43.42951" lon="6.65282">
        <ele>72.2</ele>
        <time>2025-01-19T08:43:43Z</time>
      </trkpt>
      <trkpt lat="43.4295" lon="6.65281">
        <ele>72.2</ele>
        <time>2025-01-19T08:43:44Z</time>
      </trkpt>
      <trkpt lat="43.42949" lon="6.6528">
        <ele>72.2</ele>
        <time>2025-01-19T08:43:45Z</time>
      </trkpt>
      <trkpt lat="43.42948" lon="6.65279">
        <ele>72.3</ele>
        <time>2025-01-19T08:43:46Z</time>
      </trkpt>
      <trkpt lat="43.42947" lon="6.65278">
        <ele>72.3</ele>
        <time>2025-01-19T08:43:47Z</time>
      </trkpt>
      <trkpt lat="43.42946" lon="6.65277">
        <ele>72.4</ele>
        <time>2025-01-19T08:43:48Z</time>
      </trkpt>
      <trkpt lat="43.42945" lon="6.65276">
        <ele>72.4</ele>
        <time>2025-01-19T08:43:49Z</time>
      </trkpt>
      <trkpt lat="43.42944" lon="6.65274">
        <ele>72.5</ele>
        <time>2025-01-19T08:43:50Z</time>
      </trkpt>
      <trkpt lat="43.42943" lon="6.65273">
        <ele>72.5</ele>
        <time>2025-01-19T08:43:51Z</time>
      </trkpt>
      <trkpt lat="43.42942" lon="6.65272">
        <ele>72.5</ele>
        <time>2025-01-19T08:43:52Z</time>
      </trkpt>
      <trkpt lat="43.42941" lon="6.65272">
        <ele>72.6</ele>
        <time>2025-01-19T08:43:53Z</time>
      </trkpt>
      <trkpt lat="43.4294" lon="6.65271">
        <ele>72.6</ele>
        <time>2025-01-19T08:43:54Z</time>
      </trkpt>
      <trkpt lat="43.42939" lon="6.6527">
        <ele>72.6</ele>
        <time>2025-01-19T08:43:55Z</time>
      </trkpt>
      <trkpt lat="43.42938" lon="6.6527">
        <ele>72.6</ele>
        <time>2025-01-19T08:43:56Z</time>
      </trkpt>
      <trkpt lat="43.42937" lon="6.65269">
        <ele>72.7</ele>
        <time>2025-01-19T08:43:57Z</time>
      </trkpt>
      <trkpt lat="43.42936" lon="6.65268">
        <ele>72.7</ele>
        <time>2025-01-19T08:43:58Z</time>
      </trkpt>
      <trkpt lat="43.42935" lon="6.65267">
        <ele>72.8</ele>
        <time>2025-01-19T08:43:59Z</time>
      </trkpt>
      <trkpt lat="43.42934" lon="6.65265">
        <ele>72.9</ele>
        <time>2025-01-19T08:44:00Z</time>
      </trkpt>
      <trkpt lat="43.42932" lon="6.65265">
        <ele>73.1</ele>
        <time>2025-01-19T08:44:01Z</time>
      </trkpt>
      <trkpt lat="43.42931" lon="6.65264">
        <ele>73.2</ele>
        <time>2025-01-19T08:44:02Z</time>
      </trkpt>
      <trkpt lat="43.4293" lon="6.65263">
        <ele>73.3</ele>
        <time>2025-01-19T08:44:03Z</time>
      </trkpt>
      <trkpt lat="43.42929" lon="6.65263">
        <ele>73.4</ele>
        <time>2025-01-19T08:44:04Z</time>
      </trkpt>
      <trkpt lat="43.42927" lon="6.65262">
        <ele>73.6</ele>
        <time>2025-01-19T08:44:05Z</time>
      </trkpt>
      <trkpt lat="43.42926" lon="6.65261">
        <ele>73.7</ele>
        <time>2025-01-19T08:44:06Z</time>
      </trkpt>
      <trkpt lat="43.42926" lon="6.6526">
        <ele>73.8</ele>
        <time>2025-01-19T08:44:07Z</time>
      </trkpt>
      <trkpt lat="43.42925" lon="6.6526">
        <ele>73.9</ele>
        <time>2025-01-19T08:44:08Z</time>
      </trkpt>
      <trkpt lat="43.42924" lon="6.65259">
        <ele>74.1</ele>
        <time>2025-01-19T08:44:09Z</time>
      </trkpt>
      <trkpt lat="43.42923" lon="6.65258">
        <ele>74.3</ele>
        <time>2025-01-19T08:44:10Z</time>
      </trkpt>
      <trkpt lat="43.42921" lon="6.65257">
        <ele>74.4</ele>
        <time>2025-01-19T08:44:11Z</time>
      </trkpt>
      <trkpt lat="43.4292" lon="6.65256">
        <ele>74.5</ele>
        <time>2025-01-19T08:44:12Z</time>
      </trkpt>
      <trkpt lat="43.42919" lon="6.65256">
        <ele>74.6</ele>
        <time>2025-01-19T08:44:13Z</time>
      </trkpt>
      <trkpt lat="43.42918" lon="6.65255">
        <ele>74.7</ele>
        <time>2025-01-19T08:44:14Z</time>
      </trkpt>
      <trkpt lat="43.42917" lon="6.65254">
        <ele>74.7</ele>
        <time>2025-01-19T08:44:15Z</time>
      </trkpt>
      <trkpt lat="43.42916" lon="6.65252">
        <ele>74.8</ele>
        <time>2025-01-19T08:44:16Z</time>
      </trkpt>
      <trkpt lat="43.42915" lon="6.65252">
        <ele>74.8</ele>
        <time>2025-01-19T08:44:17Z</time>
      </trkpt>
      <trkpt lat="43.42915" lon="6.65251">
        <ele>74.9</ele>
        <time>2025-01-19T08:44:18Z</time>
      </trkpt>
      <trkpt lat="43.42914" lon="6.6525">
        <ele>74.9</ele>
        <time>2025-01-19T08:44:19Z</time>
      </trkpt>
      <trkpt lat="43.42913" lon="6.65249">
        <ele>75</ele>
        <time>2025-01-19T08:44:20Z</time>
      </trkpt>
      <trkpt lat="43.42913" lon="6.65248">
        <ele>75.1</ele>
        <time>2025-01-19T08:44:21Z</time>
      </trkpt>
      <trkpt lat="43.42912" lon="6.65248">
        <ele>75.2</ele>
        <time>2025-01-19T08:44:22Z</time>
      </trkpt>
      <trkpt lat="43.42912" lon="6.65247">
        <ele>75.2</ele>
        <time>2025-01-19T08:44:23Z</time>
      </trkpt>
      <trkpt lat="43.42911" lon="6.65246">
        <ele>75.4</ele>
        <time>2025-01-19T08:44:24Z</time>
      </trkpt>
      <trkpt lat="43.4291" lon="6.65245">
        <ele>75.5</ele>
        <time>2025-01-19T08:44:25Z</time>
      </trkpt>
      <trkpt lat="43.42909" lon="6.65244">
        <ele>75.6</ele>
        <time>2025-01-19T08:44:26Z</time>
      </trkpt>
      <trkpt lat="43.42908" lon="6.65243">
        <ele>75.8</ele>
        <time>2025-01-19T08:44:27Z</time>
      </trkpt>
      <trkpt lat="43.42908" lon="6.65242">
        <ele>75.8</ele>
        <time>2025-01-19T08:44:28Z</time>
      </trkpt>
      <trkpt lat="43.42907" lon="6.65241">
        <ele>75.9</ele>
        <time>2025-01-19T08:44:29Z</time>
      </trkpt>
      <trkpt lat="43.42906" lon="6.6524">
        <ele>76</ele>
        <time>2025-01-19T08:44:30Z</time>
      </trkpt>
      <trkpt lat="43.42905" lon="6.6524">
        <ele>76</ele>
        <time>2025-01-19T08:44:31Z</time>
      </trkpt>
      <trkpt lat="43.42905" lon="6.65239">
        <ele>76.1</ele>
        <time>2025-01-19T08:44:32Z</time>
      </trkpt>
      <trkpt lat="43.42903" lon="6.65238">
        <ele>76.1</ele>
        <time>2025-01-19T08:44:33Z</time>
      </trkpt>
      <trkpt lat="43.42903" lon="6.65238">
        <ele>76.2</ele>
        <time>2025-01-19T08:44:34Z</time>
      </trkpt>
      <trkpt lat="43.42902" lon="6.65237">
        <ele>76.1</ele>
        <time>2025-01-19T08:44:35Z</time>
      </trkpt>
      <trkpt lat="43.42902" lon="6.65237">
        <ele>76</ele>
        <time>2025-01-19T08:44:36Z</time>
      </trkpt>
      <trkpt lat="43.42901" lon="6.65236">
        <ele>76</ele>
        <time>2025-01-19T08:44:37Z</time>
      </trkpt>
      <trkpt lat="43.429" lon="6.65236">
        <ele>76.1</ele>
        <time>2025-01-19T08:44:38Z</time>
      </trkpt>
      <trkpt lat="43.429" lon="6.65236">
        <ele>76.1</ele>
        <time>2025-01-19T08:44:39Z</time>
      </trkpt>
      <trkpt lat="43.429" lon="6.65236">
        <ele>76.1</ele>
        <time>2025-01-19T08:44:40Z</time>
      </trkpt>
      <trkpt lat="43.429" lon="6.65235">
        <ele>76.1</ele>
        <time>2025-01-19T08:44:41Z</time>
      </trkpt>
      <trkpt lat="43.429" lon="6.65235">
        <ele>76.1</ele>
        <time>2025-01-19T08:44:42Z</time>
      </trkpt>
      <trkpt lat="43.429" lon="6.65235">
        <ele>76.1</ele>
        <time>2025-01-19T08:44:43Z</time>
      </trkpt>
      <trkpt lat="43.429" lon="6.65235">
        <ele>76.1</ele>
        <time>2025-01-19T08:44:44Z</time>
      </trkpt>
      <trkpt lat="43.429" lon="6.65235">
        <ele>76.2</ele>
        <time>2025-01-19T08:44:45Z</time>
      </trkpt>
      <trkpt lat="43.429" lon="6.65235">
        <ele>76.1</ele>
        <time>2025-01-19T08:44:46Z</time>
      </trkpt>
      <trkpt lat="43.429" lon="6.65235">
        <ele>76.2</ele>
        <time>2025-01-19T08:44:47Z</time>
      </trkpt>
      <trkpt lat="43.429" lon="6.65235">
        <ele>76.3</ele>
        <time>2025-01-19T08:44:48Z</time>
      </trkpt>
      <trkpt lat="43.429" lon="6.65235">
        <ele>76.2</ele>
        <time>2025-01-19T08:44:49Z</time>
      </trkpt>
      <trkpt lat="43.42899" lon="6.65235">
        <ele>76.2</ele>
        <time>2025-01-19T08:44:50Z</time>
      </trkpt>
      <trkpt lat="43.42899" lon="6.65235">
        <ele>76.2</ele>
        <time>2025-01-19T08:44:51Z</time>
      </trkpt>
      <trkpt lat="43.42898" lon="6.65234">
        <ele>76.2</ele>
        <time>2025-01-19T08:44:52Z</time>
      </trkpt>
      <trkpt lat="43.42897" lon="6.65234">
        <ele>76.2</ele>
        <time>2025-01-19T08:44:53Z</time>
      </trkpt>
      <trkpt lat="43.42896" lon="6.65233">
        <ele>76.2</ele>
        <time>2025-01-19T08:44:54Z</time>
      </trkpt>
      <trkpt lat="43.42896" lon="6.65233">
        <ele>76.1</ele>
        <time>2025-01-19T08:44:55Z</time>
      </trkpt>
      <trkpt lat="43.42895" lon="6.65233">
        <ele>76.1</ele>
        <time>2025-01-19T08:44:56Z</time>
      </trkpt>
      <trkpt lat="43.42894" lon="6.65232">
        <ele>76.1</ele>
        <time>2025-01-19T08:44:57Z</time>
      </trkpt>
      <trkpt lat="43.42893" lon="6.65232">
        <ele>76.1</ele>
        <time>2025-01-19T08:44:58Z</time>
      </trkpt>
      <trkpt lat="43.42892" lon="6.65232">
        <ele>76</ele>
        <time>2025-01-19T08:44:59Z</time>
      </trkpt>
      <trkpt lat="43.42891" lon="6.65232">
        <ele>75.9</ele>
        <time>2025-01-19T08:45:00Z</time>
      </trkpt>
      <trkpt lat="43.4289" lon="6.65232">
        <ele>75.9</ele>
        <time>2025-01-19T08:45:01Z</time>
      </trkpt>
      <trkpt lat="43.4289" lon="6.65232">
        <ele>75.9</ele>
        <time>2025-01-19T08:45:02Z</time>
      </trkpt>
      <trkpt lat="43.42889" lon="6.65231">
        <ele>76</ele>
        <time>2025-01-19T08:45:03Z</time>
      </trkpt>
      <trkpt lat="43.42888" lon="6.65231">
        <ele>76.1</ele>
        <time>2025-01-19T08:45:04Z</time>
      </trkpt>
      <trkpt lat="43.42888" lon="6.65231">
        <ele>76.1</ele>
        <time>2025-01-19T08:45:05Z</time>
      </trkpt>
      <trkpt lat="43.42887" lon="6.6523">
        <ele>76.1</ele>
        <time>2025-01-19T08:45:06Z</time>
      </trkpt>
      <trkpt lat="43.42886" lon="6.6523">
        <ele>76.2</ele>
        <time>2025-01-19T08:45:07Z</time>
      </trkpt>
      <trkpt lat="43.42886" lon="6.6523">
        <ele>76.2</ele>
        <time>2025-01-19T08:45:08Z</time>
      </trkpt>
      <trkpt lat="43.42885" lon="6.6523">
        <ele>76.3</ele>
        <time>2025-01-19T08:45:09Z</time>
      </trkpt>
      <trkpt lat="43.42885" lon="6.6523">
        <ele>76.3</ele>
        <time>2025-01-19T08:45:10Z</time>
      </trkpt>
      <trkpt lat="43.42884" lon="6.65229">
        <ele>76.2</ele>
        <time>2025-01-19T08:45:11Z</time>
      </trkpt>
      <trkpt lat="43.42883" lon="6.65228">
        <ele>76.2</ele>
        <time>2025-01-19T08:45:12Z</time>
      </trkpt>
      <trkpt lat="43.42883" lon="6.65228">
        <ele>76.2</ele>
        <time>2025-01-19T08:45:13Z</time>
      </trkpt>
      <trkpt lat="43.42883" lon="6.65227">
        <ele>76.2</ele>
        <time>2025-01-19T08:45:14Z</time>
      </trkpt>
      <trkpt lat="43.42882" lon="6.65227">
        <ele>76.1</ele>
        <time>2025-01-19T08:45:15Z</time>
      </trkpt>
      <trkpt lat="43.42881" lon="6.65226">
        <ele>76.2</ele>
        <time>2025-01-19T08:45:16Z</time>
      </trkpt>
      <trkpt lat="43.42881" lon="6.65225">
        <ele>76.2</ele>
        <time>2025-01-19T08:45:17Z</time>
      </trkpt>
      <trkpt lat="43.4288" lon="6.65225">
        <ele>76.2</ele>
        <time>2025-01-19T08:45:18Z</time>
      </trkpt>
      <trkpt lat="43.4288" lon="6.65224">
        <ele>76.3</ele>
        <time>2025-01-19T08:45:19Z</time>
      </trkpt>
      <trkpt lat="43.42879" lon="6.65223">
        <ele>76.3</ele>
        <time>2025-01-19T08:45:20Z</time>
      </trkpt>
      <trkpt lat="43.42878" lon="6.65222">
        <ele>76.3</ele>
        <time>2025-01-19T08:45:21Z</time>
      </trkpt>
      <trkpt lat="43.42878" lon="6.65222">
        <ele>76.3</ele>
        <time>2025-01-19T08:45:22Z</time>
      </trkpt>
      <trkpt lat="43.42878" lon="6.65221">
        <ele>76.4</ele>
        <time>2025-01-19T08:45:23Z</time>
      </trkpt>
      <trkpt lat="43.42877" lon="6.6522">
        <ele>76.4</ele>
        <time>2025-01-19T08:45:24Z</time>
      </trkpt>
      <trkpt lat="43.42877" lon="6.65219">
        <ele>76.4</ele>
        <time>2025-01-19T08:45:25Z</time>
      </trkpt>
      <trkpt lat="43.42876" lon="6.65218">
        <ele>76.4</ele>
        <time>2025-01-19T08:45:26Z</time>
      </trkpt>
      <trkpt lat="43.42875" lon="6.65217">
        <ele>76.5</ele>
        <time>2025-01-19T08:45:27Z</time>
      </trkpt>
      <trkpt lat="43.42875" lon="6.65216">
        <ele>76.5</ele>
        <time>2025-01-19T08:45:28Z</time>
      </trkpt>
      <trkpt lat="43.42874" lon="6.65215">
        <ele>76.5</ele>
        <time>2025-01-19T08:45:29Z</time>
      </trkpt>
      <trkpt lat="43.42874" lon="6.65214">
        <ele>76.5</ele>
        <time>2025-01-19T08:45:30Z</time>
      </trkpt>
      <trkpt lat="43.42874" lon="6.65213">
        <ele>76.5</ele>
        <time>2025-01-19T08:45:31Z</time>
      </trkpt>
      <trkpt lat="43.42873" lon="6.65212">
        <ele>76.6</ele>
        <time>2025-01-19T08:45:32Z</time>
      </trkpt>
      <trkpt lat="43.42872" lon="6.65212">
        <ele>76.7</ele>
        <time>2025-01-19T08:45:33Z</time>
      </trkpt>
      <trkpt lat="43.42872" lon="6.65212">
        <ele>76.8</ele>
        <time>2025-01-19T08:45:34Z</time>
      </trkpt>
      <trkpt lat="43.42872" lon="6.65212">
        <ele>76.9</ele>
        <time>2025-01-19T08:45:35Z</time>
      </trkpt>
      <trkpt lat="43.42872" lon="6.65212">
        <ele>76.9</ele>
        <time>2025-01-19T08:45:36Z</time>
      </trkpt>
      <trkpt lat="43.42872" lon="6.65211">
        <ele>76.9</ele>
        <time>2025-01-19T08:45:37Z</time>
      </trkpt>
      <trkpt lat="43.42872" lon="6.65211">
        <ele>76.9</ele>
        <time>2025-01-19T08:45:38Z</time>
      </trkpt>
      <trkpt lat="43.42871" lon="6.6521">
        <ele>76.9</ele>
        <time>2025-01-19T08:45:39Z</time>
      </trkpt>
      <trkpt lat="43.42871" lon="6.65209">
        <ele>77</ele>
        <time>2025-01-19T08:45:40Z</time>
      </trkpt>
      <trkpt lat="43.42871" lon="6.65209">
        <ele>77</ele>
        <time>2025-01-19T08:45:41Z</time>
      </trkpt>
      <trkpt lat="43.42871" lon="6.65209">
        <ele>77.1</ele>
        <time>2025-01-19T08:45:42Z</time>
      </trkpt>
      <trkpt lat="43.4287" lon="6.65209">
        <ele>77.1</ele>
        <time>2025-01-19T08:45:43Z</time>
      </trkpt>
      <trkpt lat="43.4287" lon="6.65209">
        <ele>77.1</ele>
        <time>2025-01-19T08:45:44Z</time>
      </trkpt>
      <trkpt lat="43.4287" lon="6.65209">
        <ele>77.2</ele>
        <time>2025-01-19T08:45:45Z</time>
      </trkpt>
      <trkpt lat="43.42871" lon="6.65209">
        <ele>77.3</ele>
        <time>2025-01-19T08:45:46Z</time>
      </trkpt>
      <trkpt lat="43.42871" lon="6.65209">
        <ele>77.4</ele>
        <time>2025-01-19T08:45:47Z</time>
      </trkpt>
      <trkpt lat="43.4287" lon="6.65209">
        <ele>77.4</ele>
        <time>2025-01-19T08:45:48Z</time>
      </trkpt>
      <trkpt lat="43.4287" lon="6.65208">
        <ele>77.4</ele>
        <time>2025-01-19T08:45:49Z</time>
      </trkpt>
      <trkpt lat="43.4287" lon="6.65208">
        <ele>77.4</ele>
        <time>2025-01-19T08:45:50Z</time>
      </trkpt>
      <trkpt lat="43.42871" lon="6.65208">
        <ele>77.3</ele>
        <time>2025-01-19T08:45:51Z</time>
      </trkpt>
      <trkpt lat="43.42871" lon="6.65208">
        <ele>77.3</ele>
        <time>2025-01-19T08:45:52Z</time>
      </trkpt>
      <trkpt lat="43.42871" lon="6.65208">
        <ele>77.3</ele>
        <time>2025-01-19T08:45:53Z</time>
      </trkpt>
      <trkpt lat="43.42871" lon="6.65208">
        <ele>77.3</ele>
        <time>2025-01-19T08:45:54Z</time>
      </trkpt>
      <trkpt lat="43.42871" lon="6.65208">
        <ele>77.4</ele>
        <time>2025-01-19T08:45:55Z</time>
      </trkpt>
      <trkpt lat="43.42871" lon="6.65208">
        <ele>77.4</ele>
        <time>2025-01-19T08:45:56Z</time>
      </trkpt>
      <trkpt lat="43.42871" lon="6.65208">
        <ele>77.3</ele>
        <time>2025-01-19T08:45:57Z</time>
      </trkpt>
      <trkpt lat="43.42871" lon="6.65208">
        <ele>77.2</ele>
        <time>2025-01-19T08:45:58Z</time>
      </trkpt>
      <trkpt lat="43.42871" lon="6.65208">
        <ele>77.1</ele>
        <time>2025-01-19T08:45:59Z</time>
      </trkpt>
      <trkpt lat="43.42871" lon="6.65208">
        <ele>77.1</ele>
        <time>2025-01-19T08:46:00Z</time>
      </trkpt>
      <trkpt lat="43.42871" lon="6.65208">
        <ele>77</ele>
        <time>2025-01-19T08:46:01Z</time>
      </trkpt>
      <trkpt lat="43.42871" lon="6.65209">
        <ele>77</ele>
        <time>2025-01-19T08:46:02Z</time>
      </trkpt>
      <trkpt lat="43.42871" lon="6.65209">
        <ele>77</ele>
        <time>2025-01-19T08:46:03Z</time>
      </trkpt>
      <trkpt lat="43.42871" lon="6.65209">
        <ele>77</ele>
        <time>2025-01-19T08:46:04Z</time>
      </trkpt>
      <trkpt lat="43.42872" lon="6.65209">
        <ele>77</ele>
        <time>2025-01-19T08:46:05Z</time>
      </trkpt>
      <trkpt lat="43.42872" lon="6.65209">
        <ele>77.1</ele>
        <time>2025-01-19T08:46:06Z</time>
      </trkpt>
      <trkpt lat="43.42872" lon="6.65208">
        <ele>77.1</ele>
        <time>2025-01-19T08:46:07Z</time>
      </trkpt>
      <trkpt lat="43.42871" lon="6.65209">
        <ele>77.1</ele>
        <time>2025-01-19T08:46:08Z</time>
      </trkpt>
      <trkpt lat="43.42871" lon="6.65209">
        <ele>77.1</ele>
        <time>2025-01-19T08:46:09Z</time>
      </trkpt>
      <trkpt lat="43.42871" lon="6.65209">
        <ele>77.1</ele>
        <time>2025-01-19T08:46:10Z</time>
      </trkpt>
      <trkpt lat="43.42871" lon="6.65209">
        <ele>77.1</ele>
        <time>2025-01-19T08:46:11Z</time>
      </trkpt>
      <trkpt lat="43.42871" lon="6.6521">
        <ele>77.1</ele>
        <time>2025-01-19T08:46:12Z</time>
      </trkpt>
      <trkpt lat="43.42871" lon="6.6521">
        <ele>77.1</ele>
        <time>2025-01-19T08:46:13Z</time>
      </trkpt>
      <trkpt lat="43.42871" lon="6.6521">
        <ele>77.1</ele>
        <time>2025-01-19T08:46:14Z</time>
      </trkpt>
      <trkpt lat="43.42871" lon="6.6521">
        <ele>77</ele>
        <time>2025-01-19T08:46:15Z</time>
      </trkpt>
      <trkpt lat="43.42871" lon="6.6521">
        <ele>77</ele>
        <time>2025-01-19T08:46:16Z</time>
      </trkpt>
      <trkpt lat="43.42871" lon="6.6521">
        <ele>77</ele>
        <time>2025-01-19T08:46:17Z</time>
      </trkpt>
      <trkpt lat="43.42871" lon="6.6521">
        <ele>77.1</ele>
        <time>2025-01-19T08:46:18Z</time>
      </trkpt>
      <trkpt lat="43.42871" lon="6.6521">
        <ele>77.1</ele>
        <time>2025-01-19T08:46:19Z</time>
      </trkpt>
      <trkpt lat="43.42871" lon="6.6521">
        <ele>77.1</ele>
        <time>2025-01-19T08:46:20Z</time>
      </trkpt>
      <trkpt lat="43.42871" lon="6.6521">
        <ele>77.1</ele>
        <time>2025-01-19T08:46:21Z</time>
      </trkpt>
      <trkpt lat="43.42871" lon="6.6521">
        <ele>77</ele>
        <time>2025-01-19T08:46:22Z</time>
      </trkpt>
      <trkpt lat="43.42871" lon="6.6521">
        <ele>77.1</ele>
        <time>2025-01-19T08:46:23Z</time>
      </trkpt>
      <trkpt lat="43.42871" lon="6.6521">
        <ele>77.1</ele>
        <time>2025-01-19T08:46:24Z</time>
      </trkpt>
      <trkpt lat="43.42871" lon="6.6521">
        <ele>77.1</ele>
        <time>2025-01-19T08:46:25Z</time>
      </trkpt>
      <trkpt lat="43.42871" lon="6.6521">
        <ele>77.1</ele>
        <time>2025-01-19T08:46:26Z</time>
      </trkpt>
      <trkpt lat="43.42871" lon="6.6521">
        <ele>77.1</ele>
        <time>2025-01-19T08:46:27Z</time>
      </trkpt>
      <trkpt lat="43.42871" lon="6.65211">
        <ele>77.2</ele>
        <time>2025-01-19T08:46:28Z</time>
      </trkpt>
      <trkpt lat="43.42871" lon="6.65211">
        <ele>77.2</ele>
        <time>2025-01-19T08:46:29Z</time>
      </trkpt>
      <trkpt lat="43.42871" lon="6.65211">
        <ele>77.2</ele>
        <time>2025-01-19T08:46:30Z</time>
      </trkpt>
      <trkpt lat="43.42871" lon="6.65211">
        <ele>77.2</ele>
        <time>2025-01-19T08:46:31Z</time>
      </trkpt>
      <trkpt lat="43.42872" lon="6.65211">
        <ele>77.1</ele>
        <time>2025-01-19T08:46:32Z</time>
      </trkpt>
      <trkpt lat="43.42872" lon="6.65211">
        <ele>77.1</ele>
        <time>2025-01-19T08:46:33Z</time>
      </trkpt>
      <trkpt lat="43.42872" lon="6.65211">
        <ele>77.1</ele>
        <time>2025-01-19T08:46:34Z</time>
      </trkpt>
      <trkpt lat="43.42872" lon="6.65211">
        <ele>77</ele>
        <time>2025-01-19T08:46:35Z</time>
      </trkpt>
      <trkpt lat="43.42872" lon="6.65211">
        <ele>77</ele>
        <time>2025-01-19T08:46:36Z</time>
      </trkpt>
      <trkpt lat="43.42872" lon="6.65211">
        <ele>77</ele>
        <time>2025-01-19T08:46:37Z</time>
      </trkpt>
      <trkpt lat="43.42872" lon="6.65211">
        <ele>76.9</ele>
        <time>2025-01-19T08:46:38Z</time>
      </trkpt>
      <trkpt lat="43.42872" lon="6.65211">
        <ele>77</ele>
        <time>2025-01-19T08:46:39Z</time>
      </trkpt>
      <trkpt lat="43.42872" lon="6.65211">
        <ele>77</ele>
        <time>2025-01-19T08:46:40Z</time>
      </trkpt>
      <trkpt lat="43.42872" lon="6.65211">
        <ele>77</ele>
        <time>2025-01-19T08:46:41Z</time>
      </trkpt>
      <trkpt lat="43.42872" lon="6.65211">
        <ele>77</ele>
        <time>2025-01-19T08:46:42Z</time>
      </trkpt>
      <trkpt lat="43.42872" lon="6.65211">
        <ele>77.1</ele>
        <time>2025-01-19T08:46:43Z</time>
      </trkpt>
      <trkpt lat="43.42872" lon="6.65211">
        <ele>77.1</ele>
        <time>2025-01-19T08:46:44Z</time>
      </trkpt>
      <trkpt lat="43.42872" lon="6.65211">
        <ele>77.2</ele>
        <time>2025-01-19T08:46:45Z</time>
      </trkpt>
      <trkpt lat="43.42872" lon="6.65211">
        <ele>77.2</ele>
        <time>2025-01-19T08:46:46Z</time>
      </trkpt>
      <trkpt lat="43.42872" lon="6.65211">
        <ele>77.1</ele>
        <time>2025-01-19T08:46:47Z</time>
      </trkpt>
      <trkpt lat="43.42872" lon="6.65211">
        <ele>77.1</ele>
        <time>2025-01-19T08:46:48Z</time>
      </trkpt>
      <trkpt lat="43.42872" lon="6.65211">
        <ele>77.1</ele>
        <time>2025-01-19T08:46:49Z</time>
      </trkpt>
      <trkpt lat="43.42872" lon="6.65211">
        <ele>77.1</ele>
        <time>2025-01-19T08:46:50Z</time>
      </trkpt>
      <trkpt lat="43.42872" lon="6.65211">
        <ele>77</ele>
        <time>2025-01-19T08:46:51Z</time>
      </trkpt>
      <trkpt lat="43.42872" lon="6.65211">
        <ele>76.9</ele>
        <time>2025-01-19T08:46:52Z</time>
      </trkpt>
      <trkpt lat="43.42872" lon="6.65211">
        <ele>76.9</ele>
        <time>2025-01-19T08:46:53Z</time>
      </trkpt>
      <trkpt lat="43.42872" lon="6.65211">
        <ele>76.9</ele>
        <time>2025-01-19T08:46:54Z</time>
      </trkpt>
      <trkpt lat="43.42872" lon="6.65211">
        <ele>76.8</ele>
        <time>2025-01-19T08:46:55Z</time>
      </trkpt>
      <trkpt lat="43.42871" lon="6.65211">
        <ele>76.8</ele>
        <time>2025-01-19T08:46:56Z</time>
      </trkpt>
      <trkpt lat="43.42871" lon="6.65211">
        <ele>76.8</ele>
        <time>2025-01-19T08:46:57Z</time>
      </trkpt>
      <trkpt lat="43.42871" lon="6.65211">
        <ele>76.8</ele>
        <time>2025-01-19T08:46:58Z</time>
      </trkpt>
      <trkpt lat="43.42871" lon="6.65211">
        <ele>76.9</ele>
        <time>2025-01-19T08:46:59Z</time>
      </trkpt>
      <trkpt lat="43.42871" lon="6.65211">
        <ele>76.9</ele>
        <time>2025-01-19T08:47:00Z</time>
      </trkpt>
      <trkpt lat="43.4287" lon="6.65211">
        <ele>76.9</ele>
        <time>2025-01-19T08:47:01Z</time>
      </trkpt>
      <trkpt lat="43.4287" lon="6.65211">
        <ele>76.8</ele>
        <time>2025-01-19T08:47:02Z</time>
      </trkpt>
      <trkpt lat="43.4287" lon="6.65211">
        <ele>76.6</ele>
        <time>2025-01-19T08:47:03Z</time>
      </trkpt>
      <trkpt lat="43.4287" lon="6.6521">
        <ele>76.6</ele>
        <time>2025-01-19T08:47:04Z</time>
      </trkpt>
      <trkpt lat="43.4287" lon="6.6521">
        <ele>76.6</ele>
        <time>2025-01-19T08:47:05Z</time>
      </trkpt>
      <trkpt lat="43.4287" lon="6.65211">
        <ele>76.6</ele>
        <time>2025-01-19T08:47:06Z</time>
      </trkpt>
      <trkpt lat="43.42871" lon="6.65211">
        <ele>76.7</ele>
        <time>2025-01-19T08:47:07Z</time>
      </trkpt>
      <trkpt lat="43.42871" lon="6.65211">
        <ele>76.8</ele>
        <time>2025-01-19T08:47:08Z</time>
      </trkpt>
      <trkpt lat="43.42871" lon="6.65211">
        <ele>76.8</ele>
        <time>2025-01-19T08:47:09Z</time>
      </trkpt>
      <trkpt lat="43.42871" lon="6.65211">
        <ele>76.7</ele>
        <time>2025-01-19T08:47:10Z</time>
      </trkpt>
      <trkpt lat="43.42871" lon="6.65211">
        <ele>76.6</ele>
        <time>2025-01-19T08:47:11Z</time>
      </trkpt>
      <trkpt lat="43.42871" lon="6.65211">
        <ele>76.6</ele>
        <time>2025-01-19T08:47:12Z</time>
      </trkpt>
      <trkpt lat="43.42871" lon="6.65211">
        <ele>76.5</ele>
        <time>2025-01-19T08:47:13Z</time>
      </trkpt>
      <trkpt lat="43.42871" lon="6.65211">
        <ele>76.5</ele>
        <time>2025-01-19T08:47:14Z</time>
      </trkpt>
      <trkpt lat="43.42871" lon="6.65211">
        <ele>76.4</ele>
        <time>2025-01-19T08:47:15Z</time>
      </trkpt>
      <trkpt lat="43.42871" lon="6.65211">
        <ele>76.5</ele>
        <time>2025-01-19T08:47:16Z</time>
      </trkpt>
      <trkpt lat="43.42871" lon="6.65211">
        <ele>76.5</ele>
        <time>2025-01-19T08:47:17Z</time>
      </trkpt>
      <trkpt lat="43.42871" lon="6.65211">
        <ele>76.5</ele>
        <time>2025-01-19T08:47:18Z</time>
      </trkpt>
      <trkpt lat="43.42871" lon="6.65211">
        <ele>76.4</ele>
        <time>2025-01-19T08:47:19Z</time>
      </trkpt>
      <trkpt lat="43.42871" lon="6.65211">
        <ele>76.5</ele>
        <time>2025-01-19T08:47:20Z</time>
      </trkpt>
      <trkpt lat="43.42871" lon="6.65211">
        <ele>76.7</ele>
        <time>2025-01-19T08:47:21Z</time>
      </trkpt>
      <trkpt lat="43.42871" lon="6.65211">
        <ele>76.7</ele>
        <time>2025-01-19T08:47:22Z</time>
      </trkpt>
      <trkpt lat="43.42871" lon="6.65212">
        <ele>76.7</ele>
        <time>2025-01-19T08:47:23Z</time>
      </trkpt>
      <trkpt lat="43.42871" lon="6.65212">
        <ele>76.8</ele>
        <time>2025-01-19T08:47:24Z</time>
      </trkpt>
      <trkpt lat="43.42871" lon="6.65212">
        <ele>76.8</ele>
        <time>2025-01-19T08:47:25Z</time>
      </trkpt>
      <trkpt lat="43.42871" lon="6.65211">
        <ele>76.8</ele>
        <time>2025-01-19T08:47:26Z</time>
      </trkpt>
      <trkpt lat="43.42871" lon="6.65211">
        <ele>76.8</ele>
        <time>2025-01-19T08:47:27Z</time>
      </trkpt>
      <trkpt lat="43.42871" lon="6.65211">
        <ele>76.7</ele>
        <time>2025-01-19T08:47:28Z</time>
      </trkpt>
      <trkpt lat="43.42871" lon="6.65211">
        <ele>76.7</ele>
        <time>2025-01-19T08:47:29Z</time>
      </trkpt>
      <trkpt lat="43.4287" lon="6.6521">
        <ele>76.7</ele>
        <time>2025-01-19T08:47:30Z</time>
      </trkpt>
      <trkpt lat="43.4287" lon="6.65209">
        <ele>76.7</ele>
        <time>2025-01-19T08:47:31Z</time>
      </trkpt>
      <trkpt lat="43.4287" lon="6.65208">
        <ele>76.7</ele>
        <time>2025-01-19T08:47:32Z</time>
      </trkpt>
      <trkpt lat="43.42869" lon="6.65207">
        <ele>76.7</ele>
        <time>2025-01-19T08:47:33Z</time>
      </trkpt>
      <trkpt lat="43.42869" lon="6.65206">
        <ele>76.7</ele>
        <time>2025-01-19T08:47:34Z</time>
      </trkpt>
      <trkpt lat="43.42869" lon="6.65206">
        <ele>76.7</ele>
        <time>2025-01-19T08:47:35Z</time>
      </trkpt>
      <trkpt lat="43.42869" lon="6.65206">
        <ele>76.8</ele>
        <time>2025-01-19T08:47:36Z</time>
      </trkpt>
      <trkpt lat="43.42869" lon="6.65205">
        <ele>76.9</ele>
        <time>2025-01-19T08:47:37Z</time>
      </trkpt>
      <trkpt lat="43.42869" lon="6.65205">
        <ele>76.8</ele>
        <time>2025-01-19T08:47:38Z</time>
      </trkpt>
      <trkpt lat="43.42868" lon="6.65204">
        <ele>76.8</ele>
        <time>2025-01-19T08:47:39Z</time>
      </trkpt>
      <trkpt lat="43.42868" lon="6.65204">
        <ele>76.8</ele>
        <time>2025-01-19T08:47:40Z</time>
      </trkpt>
      <trkpt lat="43.42868" lon="6.65203">
        <ele>76.9</ele>
        <time>2025-01-19T08:47:41Z</time>
      </trkpt>
      <trkpt lat="43.42868" lon="6.65203">
        <ele>77</ele>
        <time>2025-01-19T08:47:42Z</time>
      </trkpt>
      <trkpt lat="43.42868" lon="6.65203">
        <ele>77</ele>
        <time>2025-01-19T08:47:43Z</time>
      </trkpt>
      <trkpt lat="43.42868" lon="6.65203">
        <ele>77</ele>
        <time>2025-01-19T08:47:44Z</time>
      </trkpt>
      <trkpt lat="43.42868" lon="6.65203">
        <ele>77.1</ele>
        <time>2025-01-19T08:47:45Z</time>
      </trkpt>
      <trkpt lat="43.42868" lon="6.65202">
        <ele>77.2</ele>
        <time>2025-01-19T08:47:46Z</time>
      </trkpt>
      <trkpt lat="43.42867" lon="6.65202">
        <ele>77.2</ele>
        <time>2025-01-19T08:47:47Z</time>
      </trkpt>
      <trkpt lat="43.42867" lon="6.65202">
        <ele>77.3</ele>
        <time>2025-01-19T08:47:48Z</time>
      </trkpt>
      <trkpt lat="43.42867" lon="6.65202">
        <ele>77.4</ele>
        <time>2025-01-19T08:47:49Z</time>
      </trkpt>
      <trkpt lat="43.42867" lon="6.65202">
        <ele>77.4</ele>
        <time>2025-01-19T08:47:50Z</time>
      </trkpt>
      <trkpt lat="43.42867" lon="6.65202">
        <ele>77.3</ele>
        <time>2025-01-19T08:47:51Z</time>
      </trkpt>
      <trkpt lat="43.42867" lon="6.65201">
        <ele>77.3</ele>
        <time>2025-01-19T08:47:52Z</time>
      </trkpt>
      <trkpt lat="43.42867" lon="6.65201">
        <ele>77.3</ele>
        <time>2025-01-19T08:47:53Z</time>
      </trkpt>
      <trkpt lat="43.42867" lon="6.65201">
        <ele>77.3</ele>
        <time>2025-01-19T08:47:54Z</time>
      </trkpt>
      <trkpt lat="43.42867" lon="6.65201">
        <ele>77.3</ele>
        <time>2025-01-19T08:47:55Z</time>
      </trkpt>
      <trkpt lat="43.42867" lon="6.65201">
        <ele>77.3</ele>
        <time>2025-01-19T08:47:56Z</time>
      </trkpt>
      <trkpt lat="43.42867" lon="6.65201">
        <ele>77.3</ele>
        <time>2025-01-19T08:47:57Z</time>
      </trkpt>
      <trkpt lat="43.42867" lon="6.65201">
        <ele>77.3</ele>
        <time>2025-01-19T08:47:58Z</time>
      </trkpt>
      <trkpt lat="43.42868" lon="6.65201">
        <ele>77.3</ele>
        <time>2025-01-19T08:47:59Z</time>
      </trkpt>
      <trkpt lat="43.42867" lon="6.65201">
        <ele>77.3</ele>
        <time>2025-01-19T08:48:00Z</time>
      </trkpt>
      <trkpt lat="43.42867" lon="6.65201">
        <ele>77.3</ele>
        <time>2025-01-19T08:48:01Z</time>
      </trkpt>
      <trkpt lat="43.42867" lon="6.652">
        <ele>77.3</ele>
        <time>2025-01-19T08:48:02Z</time>
      </trkpt>
      <trkpt lat="43.42867" lon="6.65199">
        <ele>77.2</ele>
        <time>2025-01-19T08:48:03Z</time>
      </trkpt>
      <trkpt lat="43.42867" lon="6.65199">
        <ele>77.2</ele>
        <time>2025-01-19T08:48:04Z</time>
      </trkpt>
      <trkpt lat="43.42867" lon="6.65199">
        <ele>77.2</ele>
        <time>2025-01-19T08:48:05Z</time>
      </trkpt>
      <trkpt lat="43.42867" lon="6.65199">
        <ele>77.2</ele>
        <time>2025-01-19T08:48:06Z</time>
      </trkpt>
      <trkpt lat="43.42867" lon="6.65199">
        <ele>77.2</ele>
        <time>2025-01-19T08:48:07Z</time>
      </trkpt>
      <trkpt lat="43.42867" lon="6.65199">
        <ele>77.2</ele>
        <time>2025-01-19T08:48:08Z</time>
      </trkpt>
      <trkpt lat="43.42867" lon="6.65199">
        <ele>77.2</ele>
        <time>2025-01-19T08:48:09Z</time>
      </trkpt>
      <trkpt lat="43.42867" lon="6.65199">
        <ele>77.2</ele>
        <time>2025-01-19T08:48:10Z</time>
      </trkpt>
      <trkpt lat="43.42867" lon="6.65199">
        <ele>77.3</ele>
        <time>2025-01-19T08:48:11Z</time>
      </trkpt>
      <trkpt lat="43.42867" lon="6.65199">
        <ele>77.3</ele>
        <time>2025-01-19T08:48:12Z</time>
      </trkpt>
      <trkpt lat="43.42867" lon="6.65199">
        <ele>77.2</ele>
        <time>2025-01-19T08:48:13Z</time>
      </trkpt>
      <trkpt lat="43.42867" lon="6.65198">
        <ele>77.2</ele>
        <time>2025-01-19T08:48:14Z</time>
      </trkpt>
      <trkpt lat="43.42867" lon="6.65197">
        <ele>77.2</ele>
        <time>2025-01-19T08:48:15Z</time>
      </trkpt>
      <trkpt lat="43.42867" lon="6.65196">
        <ele>77.1</ele>
        <time>2025-01-19T08:48:16Z</time>
      </trkpt>
      <trkpt lat="43.42867" lon="6.65195">
        <ele>77.2</ele>
        <time>2025-01-19T08:48:17Z</time>
      </trkpt>
      <trkpt lat="43.42867" lon="6.65193">
        <ele>77.2</ele>
        <time>2025-01-19T08:48:18Z</time>
      </trkpt>
      <trkpt lat="43.42867" lon="6.65192">
        <ele>77.2</ele>
        <time>2025-01-19T08:48:19Z</time>
      </trkpt>
      <trkpt lat="43.42867" lon="6.65191">
        <ele>77.1</ele>
        <time>2025-01-19T08:48:20Z</time>
      </trkpt>
      <trkpt lat="43.42867" lon="6.65189">
        <ele>77.3</ele>
        <time>2025-01-19T08:48:21Z</time>
      </trkpt>
      <trkpt lat="43.42867" lon="6.65188">
        <ele>77.3</ele>
        <time>2025-01-19T08:48:22Z</time>
      </trkpt>
      <trkpt lat="43.42868" lon="6.65186">
        <ele>77.3</ele>
        <time>2025-01-19T08:48:23Z</time>
      </trkpt>
      <trkpt lat="43.42868" lon="6.65185">
        <ele>77.3</ele>
        <time>2025-01-19T08:48:24Z</time>
      </trkpt>
      <trkpt lat="43.42868" lon="6.65183">
        <ele>77.3</ele>
        <time>2025-01-19T08:48:25Z</time>
      </trkpt>
      <trkpt lat="43.42867" lon="6.65182">
        <ele>77.3</ele>
        <time>2025-01-19T08:48:26Z</time>
      </trkpt>
      <trkpt lat="43.42867" lon="6.6518">
        <ele>77.4</ele>
        <time>2025-01-19T08:48:27Z</time>
      </trkpt>
      <trkpt lat="43.42867" lon="6.65178">
        <ele>77.4</ele>
        <time>2025-01-19T08:48:28Z</time>
      </trkpt>
      <trkpt lat="43.42867" lon="6.65177">
        <ele>77.4</ele>
        <time>2025-01-19T08:48:29Z</time>
      </trkpt>
      <trkpt lat="43.42866" lon="6.65176">
        <ele>77.4</ele>
        <time>2025-01-19T08:48:30Z</time>
      </trkpt>
      <trkpt lat="43.42866" lon="6.65174">
        <ele>77.4</ele>
        <time>2025-01-19T08:48:31Z</time>
      </trkpt>
      <trkpt lat="43.42866" lon="6.65172">
        <ele>77.2</ele>
        <time>2025-01-19T08:48:32Z</time>
      </trkpt>
      <trkpt lat="43.42865" lon="6.65171">
        <ele>77.2</ele>
        <time>2025-01-19T08:48:33Z</time>
      </trkpt>
      <trkpt lat="43.42864" lon="6.6517">
        <ele>77.1</ele>
        <time>2025-01-19T08:48:34Z</time>
      </trkpt>
      <trkpt lat="43.42864" lon="6.65169">
        <ele>77</ele>
        <time>2025-01-19T08:48:35Z</time>
      </trkpt>
      <trkpt lat="43.42863" lon="6.65168">
        <ele>77</ele>
        <time>2025-01-19T08:48:36Z</time>
      </trkpt>
      <trkpt lat="43.42862" lon="6.65167">
        <ele>77.1</ele>
        <time>2025-01-19T08:48:37Z</time>
      </trkpt>
      <trkpt lat="43.42861" lon="6.65166">
        <ele>77.1</ele>
        <time>2025-01-19T08:48:38Z</time>
      </trkpt>
      <trkpt lat="43.4286" lon="6.65165">
        <ele>77.2</ele>
        <time>2025-01-19T08:48:39Z</time>
      </trkpt>
      <trkpt lat="43.42859" lon="6.65164">
        <ele>77.4</ele>
        <time>2025-01-19T08:48:40Z</time>
      </trkpt>
      <trkpt lat="43.42859" lon="6.65163">
        <ele>77.5</ele>
        <time>2025-01-19T08:48:41Z</time>
      </trkpt>
      <trkpt lat="43.42858" lon="6.65162">
        <ele>77.6</ele>
        <time>2025-01-19T08:48:42Z</time>
      </trkpt>
      <trkpt lat="43.42858" lon="6.65161">
        <ele>77.6</ele>
        <time>2025-01-19T08:48:43Z</time>
      </trkpt>
      <trkpt lat="43.42857" lon="6.6516">
        <ele>77.7</ele>
        <time>2025-01-19T08:48:44Z</time>
      </trkpt>
      <trkpt lat="43.42856" lon="6.65159">
        <ele>77.8</ele>
        <time>2025-01-19T08:48:45Z</time>
      </trkpt>
      <trkpt lat="43.42855" lon="6.65158">
        <ele>77.9</ele>
        <time>2025-01-19T08:48:46Z</time>
      </trkpt>
      <trkpt lat="43.42854" lon="6.65158">
        <ele>78.1</ele>
        <time>2025-01-19T08:48:47Z</time>
      </trkpt>
      <trkpt lat="43.42854" lon="6.65157">
        <ele>78.2</ele>
        <time>2025-01-19T08:48:48Z</time>
      </trkpt>
      <trkpt lat="43.42853" lon="6.65156">
        <ele>78.3</ele>
        <time>2025-01-19T08:48:49Z</time>
      </trkpt>
      <trkpt lat="43.42852" lon="6.65155">
        <ele>78.4</ele>
        <time>2025-01-19T08:48:50Z</time>
      </trkpt>
      <trkpt lat="43.42851" lon="6.65153">
        <ele>78.4</ele>
        <time>2025-01-19T08:48:51Z</time>
      </trkpt>
      <trkpt lat="43.42851" lon="6.65152">
        <ele>78.5</ele>
        <time>2025-01-19T08:48:52Z</time>
      </trkpt>
      <trkpt lat="43.4285" lon="6.65151">
        <ele>78.6</ele>
        <time>2025-01-19T08:48:53Z</time>
      </trkpt>
      <trkpt lat="43.42849" lon="6.6515">
        <ele>78.7</ele>
        <time>2025-01-19T08:48:54Z</time>
      </trkpt>
      <trkpt lat="43.42848" lon="6.65149">
        <ele>78.8</ele>
        <time>2025-01-19T08:48:55Z</time>
      </trkpt>
      <trkpt lat="43.42848" lon="6.65148">
        <ele>78.8</ele>
        <time>2025-01-19T08:48:56Z</time>
      </trkpt>
      <trkpt lat="43.42847" lon="6.65147">
        <ele>79</ele>
        <time>2025-01-19T08:48:57Z</time>
      </trkpt>
      <trkpt lat="43.42846" lon="6.65145">
        <ele>79.1</ele>
        <time>2025-01-19T08:48:58Z</time>
      </trkpt>
      <trkpt lat="43.42845" lon="6.65144">
        <ele>79.1</ele>
        <time>2025-01-19T08:48:59Z</time>
      </trkpt>
      <trkpt lat="43.42845" lon="6.65143">
        <ele>79.2</ele>
        <time>2025-01-19T08:49:00Z</time>
      </trkpt>
      <trkpt lat="43.42844" lon="6.65141">
        <ele>79.2</ele>
        <time>2025-01-19T08:49:01Z</time>
      </trkpt>
      <trkpt lat="43.42844" lon="6.6514">
        <ele>79.3</ele>
        <time>2025-01-19T08:49:02Z</time>
      </trkpt>
      <trkpt lat="43.42843" lon="6.65138">
        <ele>79.4</ele>
        <time>2025-01-19T08:49:03Z</time>
      </trkpt>
      <trkpt lat="43.42843" lon="6.65137">
        <ele>79.3</ele>
        <time>2025-01-19T08:49:04Z</time>
      </trkpt>
      <trkpt lat="43.42842" lon="6.65136">
        <ele>79.4</ele>
        <time>2025-01-19T08:49:05Z</time>
      </trkpt>
      <trkpt lat="43.42841" lon="6.65134">
        <ele>79.3</ele>
        <time>2025-01-19T08:49:06Z</time>
      </trkpt>
      <trkpt lat="43.42841" lon="6.65133">
        <ele>79.2</ele>
        <time>2025-01-19T08:49:07Z</time>
      </trkpt>
      <trkpt lat="43.42841" lon="6.65132">
        <ele>79.2</ele>
        <time>2025-01-19T08:49:08Z</time>
      </trkpt>
      <trkpt lat="43.4284" lon="6.6513">
        <ele>79.1</ele>
        <time>2025-01-19T08:49:09Z</time>
      </trkpt>
      <trkpt lat="43.4284" lon="6.65129">
        <ele>79.1</ele>
        <time>2025-01-19T08:49:10Z</time>
      </trkpt>
      <trkpt lat="43.42839" lon="6.65128">
        <ele>79.1</ele>
        <time>2025-01-19T08:49:11Z</time>
      </trkpt>
      <trkpt lat="43.42839" lon="6.65126">
        <ele>79.1</ele>
        <time>2025-01-19T08:49:12Z</time>
      </trkpt>
      <trkpt lat="43.42838" lon="6.65125">
        <ele>79.1</ele>
        <time>2025-01-19T08:49:13Z</time>
      </trkpt>
      <trkpt lat="43.42838" lon="6.65123">
        <ele>79.2</ele>
        <time>2025-01-19T08:49:14Z</time>
      </trkpt>
      <trkpt lat="43.42838" lon="6.65122">
        <ele>79.2</ele>
        <time>2025-01-19T08:49:15Z</time>
      </trkpt>
      <trkpt lat="43.42837" lon="6.6512">
        <ele>79.3</ele>
        <time>2025-01-19T08:49:16Z</time>
      </trkpt>
      <trkpt lat="43.42837" lon="6.6512">
        <ele>79.3</ele>
        <time>2025-01-19T08:49:17Z</time>
      </trkpt>
      <trkpt lat="43.42837" lon="6.65118">
        <ele>79.4</ele>
        <time>2025-01-19T08:49:18Z</time>
      </trkpt>
      <trkpt lat="43.42837" lon="6.65116">
        <ele>79.5</ele>
        <time>2025-01-19T08:49:19Z</time>
      </trkpt>
      <trkpt lat="43.42837" lon="6.65115">
        <ele>79.6</ele>
        <time>2025-01-19T08:49:20Z</time>
      </trkpt>
      <trkpt lat="43.42837" lon="6.65114">
        <ele>79.6</ele>
        <time>2025-01-19T08:49:21Z</time>
      </trkpt>
      <trkpt lat="43.42837" lon="6.65112">
        <ele>79.7</ele>
        <time>2025-01-19T08:49:22Z</time>
      </trkpt>
      <trkpt lat="43.42836" lon="6.6511">
        <ele>79.8</ele>
        <time>2025-01-19T08:49:23Z</time>
      </trkpt>
      <trkpt lat="43.42836" lon="6.65109">
        <ele>79.9</ele>
        <time>2025-01-19T08:49:24Z</time>
      </trkpt>
      <trkpt lat="43.42836" lon="6.65107">
        <ele>79.9</ele>
        <time>2025-01-19T08:49:25Z</time>
      </trkpt>
      <trkpt lat="43.42835" lon="6.65106">
        <ele>80</ele>
        <time>2025-01-19T08:49:26Z</time>
      </trkpt>
      <trkpt lat="43.42835" lon="6.65104">
        <ele>80.1</ele>
        <time>2025-01-19T08:49:27Z</time>
      </trkpt>
      <trkpt lat="43.42835" lon="6.65102">
        <ele>80.3</ele>
        <time>2025-01-19T08:49:28Z</time>
      </trkpt>
      <trkpt lat="43.42834" lon="6.65101">
        <ele>80.3</ele>
        <time>2025-01-19T08:49:29Z</time>
      </trkpt>
      <trkpt lat="43.42834" lon="6.651">
        <ele>80.2</ele>
        <time>2025-01-19T08:49:30Z</time>
      </trkpt>
      <trkpt lat="43.42834" lon="6.65098">
        <ele>80.2</ele>
        <time>2025-01-19T08:49:31Z</time>
      </trkpt>
      <trkpt lat="43.42833" lon="6.65097">
        <ele>80.2</ele>
        <time>2025-01-19T08:49:32Z</time>
      </trkpt>
      <trkpt lat="43.42833" lon="6.65095">
        <ele>80.3</ele>
        <time>2025-01-19T08:49:33Z</time>
      </trkpt>
      <trkpt lat="43.42833" lon="6.65094">
        <ele>80.2</ele>
        <time>2025-01-19T08:49:34Z</time>
      </trkpt>
      <trkpt lat="43.42833" lon="6.65092">
        <ele>80.3</ele>
        <time>2025-01-19T08:49:35Z</time>
      </trkpt>
      <trkpt lat="43.42832" lon="6.65091">
        <ele>80.3</ele>
        <time>2025-01-19T08:49:36Z</time>
      </trkpt>
      <trkpt lat="43.42832" lon="6.65089">
        <ele>80.3</ele>
        <time>2025-01-19T08:49:37Z</time>
      </trkpt>
      <trkpt lat="43.42831" lon="6.65088">
        <ele>80.3</ele>
        <time>2025-01-19T08:49:38Z</time>
      </trkpt>
      <trkpt lat="43.42831" lon="6.65086">
        <ele>80.3</ele>
        <time>2025-01-19T08:49:39Z</time>
      </trkpt>
      <trkpt lat="43.42831" lon="6.65085">
        <ele>80.4</ele>
        <time>2025-01-19T08:49:40Z</time>
      </trkpt>
      <trkpt lat="43.4283" lon="6.65083">
        <ele>80.4</ele>
        <time>2025-01-19T08:49:41Z</time>
      </trkpt>
      <trkpt lat="43.4283" lon="6.65082">
        <ele>80.4</ele>
        <time>2025-01-19T08:49:42Z</time>
      </trkpt>
      <trkpt lat="43.4283" lon="6.6508">
        <ele>80.5</ele>
        <time>2025-01-19T08:49:43Z</time>
      </trkpt>
      <trkpt lat="43.4283" lon="6.65079">
        <ele>80.6</ele>
        <time>2025-01-19T08:49:44Z</time>
      </trkpt>
      <trkpt lat="43.4283" lon="6.65078">
        <ele>80.6</ele>
        <time>2025-01-19T08:49:45Z</time>
      </trkpt>
      <trkpt lat="43.42829" lon="6.65076">
        <ele>80.6</ele>
        <time>2025-01-19T08:49:46Z</time>
      </trkpt>
      <trkpt lat="43.42829" lon="6.65075">
        <ele>80.6</ele>
        <time>2025-01-19T08:49:47Z</time>
      </trkpt>
      <trkpt lat="43.42829" lon="6.65073">
        <ele>80.7</ele>
        <time>2025-01-19T08:49:48Z</time>
      </trkpt>
      <trkpt lat="43.42828" lon="6.65071">
        <ele>80.7</ele>
        <time>2025-01-19T08:49:49Z</time>
      </trkpt>
      <trkpt lat="43.42828" lon="6.65069">
        <ele>80.7</ele>
        <time>2025-01-19T08:49:50Z</time>
      </trkpt>
      <trkpt lat="43.42828" lon="6.65068">
        <ele>80.7</ele>
        <time>2025-01-19T08:49:51Z</time>
      </trkpt>
      <trkpt lat="43.42828" lon="6.65066">
        <ele>80.7</ele>
        <time>2025-01-19T08:49:52Z</time>
      </trkpt>
      <trkpt lat="43.42828" lon="6.65064">
        <ele>80.6</ele>
        <time>2025-01-19T08:49:53Z</time>
      </trkpt>
      <trkpt lat="43.42827" lon="6.65063">
        <ele>80.6</ele>
        <time>2025-01-19T08:49:54Z</time>
      </trkpt>
      <trkpt lat="43.42826" lon="6.65061">
        <ele>80.6</ele>
        <time>2025-01-19T08:49:55Z</time>
      </trkpt>
      <trkpt lat="43.42826" lon="6.6506">
        <ele>80.6</ele>
        <time>2025-01-19T08:49:56Z</time>
      </trkpt>
      <trkpt lat="43.42825" lon="6.65059">
        <ele>80.5</ele>
        <time>2025-01-19T08:49:57Z</time>
      </trkpt>
      <trkpt lat="43.42825" lon="6.65057">
        <ele>80.4</ele>
        <time>2025-01-19T08:49:58Z</time>
      </trkpt>
      <trkpt lat="43.42824" lon="6.65056">
        <ele>80.4</ele>
        <time>2025-01-19T08:49:59Z</time>
      </trkpt>
      <trkpt lat="43.42823" lon="6.65055">
        <ele>80.4</ele>
        <time>2025-01-19T08:50:00Z</time>
      </trkpt>
      <trkpt lat="43.42822" lon="6.65054">
        <ele>80.4</ele>
        <time>2025-01-19T08:50:01Z</time>
      </trkpt>
      <trkpt lat="43.42822" lon="6.65053">
        <ele>80.4</ele>
        <time>2025-01-19T08:50:02Z</time>
      </trkpt>
      <trkpt lat="43.42821" lon="6.65053">
        <ele>80.4</ele>
        <time>2025-01-19T08:50:03Z</time>
      </trkpt>
      <trkpt lat="43.4282" lon="6.65052">
        <ele>80.4</ele>
        <time>2025-01-19T08:50:04Z</time>
      </trkpt>
      <trkpt lat="43.42819" lon="6.65052">
        <ele>80.5</ele>
        <time>2025-01-19T08:50:05Z</time>
      </trkpt>
      <trkpt lat="43.42818" lon="6.65052">
        <ele>80.5</ele>
        <time>2025-01-19T08:50:06Z</time>
      </trkpt>
      <trkpt lat="43.42818" lon="6.65052">
        <ele>80.6</ele>
        <time>2025-01-19T08:50:07Z</time>
      </trkpt>
      <trkpt lat="43.42817" lon="6.65053">
        <ele>80.6</ele>
        <time>2025-01-19T08:50:08Z</time>
      </trkpt>
      <trkpt lat="43.42817" lon="6.65053">
        <ele>80.6</ele>
        <time>2025-01-19T08:50:09Z</time>
      </trkpt>
      <trkpt lat="43.42816" lon="6.65053">
        <ele>80.7</ele>
        <time>2025-01-19T08:50:10Z</time>
      </trkpt>
      <trkpt lat="43.42815" lon="6.65054">
        <ele>80.8</ele>
        <time>2025-01-19T08:50:11Z</time>
      </trkpt>
      <trkpt lat="43.42814" lon="6.65055">
        <ele>80.9</ele>
        <time>2025-01-19T08:50:12Z</time>
      </trkpt>
      <trkpt lat="43.42813" lon="6.65056">
        <ele>80.9</ele>
        <time>2025-01-19T08:50:13Z</time>
      </trkpt>
      <trkpt lat="43.42812" lon="6.65056">
        <ele>81.1</ele>
        <time>2025-01-19T08:50:14Z</time>
      </trkpt>
      <trkpt lat="43.42811" lon="6.65058">
        <ele>81.1</ele>
        <time>2025-01-19T08:50:15Z</time>
      </trkpt>
      <trkpt lat="43.4281" lon="6.65058">
        <ele>81.2</ele>
        <time>2025-01-19T08:50:16Z</time>
      </trkpt>
      <trkpt lat="43.42808" lon="6.65059">
        <ele>81.3</ele>
        <time>2025-01-19T08:50:17Z</time>
      </trkpt>
      <trkpt lat="43.42808" lon="6.65061">
        <ele>81.4</ele>
        <time>2025-01-19T08:50:18Z</time>
      </trkpt>
      <trkpt lat="43.42807" lon="6.65062">
        <ele>81.5</ele>
        <time>2025-01-19T08:50:19Z</time>
      </trkpt>
      <trkpt lat="43.42806" lon="6.65063">
        <ele>81.6</ele>
        <time>2025-01-19T08:50:20Z</time>
      </trkpt>
      <trkpt lat="43.42805" lon="6.65064">
        <ele>81.7</ele>
        <time>2025-01-19T08:50:21Z</time>
      </trkpt>
      <trkpt lat="43.42805" lon="6.65065">
        <ele>81.7</ele>
        <time>2025-01-19T08:50:22Z</time>
      </trkpt>
      <trkpt lat="43.42804" lon="6.65066">
        <ele>81.8</ele>
        <time>2025-01-19T08:50:23Z</time>
      </trkpt>
      <trkpt lat="43.42803" lon="6.65067">
        <ele>81.9</ele>
        <time>2025-01-19T08:50:24Z</time>
      </trkpt>
      <trkpt lat="43.42802" lon="6.65068">
        <ele>81.9</ele>
        <time>2025-01-19T08:50:25Z</time>
      </trkpt>
      <trkpt lat="43.42801" lon="6.65068">
        <ele>82</ele>
        <time>2025-01-19T08:50:26Z</time>
      </trkpt>
      <trkpt lat="43.428" lon="6.65069">
        <ele>82</ele>
        <time>2025-01-19T08:50:27Z</time>
      </trkpt>
      <trkpt lat="43.42798" lon="6.65069">
        <ele>82.1</ele>
        <time>2025-01-19T08:50:28Z</time>
      </trkpt>
      <trkpt lat="43.42797" lon="6.65069">
        <ele>82.1</ele>
        <time>2025-01-19T08:50:29Z</time>
      </trkpt>
      <trkpt lat="43.42796" lon="6.65069">
        <ele>82.1</ele>
        <time>2025-01-19T08:50:30Z</time>
      </trkpt>
      <trkpt lat="43.42794" lon="6.6507">
        <ele>82.1</ele>
        <time>2025-01-19T08:50:31Z</time>
      </trkpt>
      <trkpt lat="43.42792" lon="6.6507">
        <ele>82.1</ele>
        <time>2025-01-19T08:50:32Z</time>
      </trkpt>
      <trkpt lat="43.42791" lon="6.6507">
        <ele>82.1</ele>
        <time>2025-01-19T08:50:33Z</time>
      </trkpt>
      <trkpt lat="43.4279" lon="6.65069">
        <ele>82.2</ele>
        <time>2025-01-19T08:50:34Z</time>
      </trkpt>
      <trkpt lat="43.42789" lon="6.65069">
        <ele>82.2</ele>
        <time>2025-01-19T08:50:35Z</time>
      </trkpt>
      <trkpt lat="43.42788" lon="6.65068">
        <ele>82.3</ele>
        <time>2025-01-19T08:50:36Z</time>
      </trkpt>
      <trkpt lat="43.42787" lon="6.65067">
        <ele>82.4</ele>
        <time>2025-01-19T08:50:37Z</time>
      </trkpt>
      <trkpt lat="43.42785" lon="6.65066">
        <ele>82.5</ele>
        <time>2025-01-19T08:50:38Z</time>
      </trkpt>
      <trkpt lat="43.42784" lon="6.65065">
        <ele>82.6</ele>
        <time>2025-01-19T08:50:39Z</time>
      </trkpt>
      <trkpt lat="43.42784" lon="6.65064">
        <ele>82.6</ele>
        <time>2025-01-19T08:50:40Z</time>
      </trkpt>
      <trkpt lat="43.42783" lon="6.65063">
        <ele>82.6</ele>
        <time>2025-01-19T08:50:41Z</time>
      </trkpt>
      <trkpt lat="43.42783" lon="6.65063">
        <ele>82.6</ele>
        <time>2025-01-19T08:50:42Z</time>
      </trkpt>
      <trkpt lat="43.42782" lon="6.65061">
        <ele>82.6</ele>
        <time>2025-01-19T08:50:43Z</time>
      </trkpt>
      <trkpt lat="43.42781" lon="6.6506">
        <ele>82.6</ele>
        <time>2025-01-19T08:50:44Z</time>
      </trkpt>
      <trkpt lat="43.4278" lon="6.65059">
        <ele>82.6</ele>
        <time>2025-01-19T08:50:45Z</time>
      </trkpt>
      <trkpt lat="43.42779" lon="6.65058">
        <ele>82.6</ele>
        <time>2025-01-19T08:50:46Z</time>
      </trkpt>
      <trkpt lat="43.42778" lon="6.65058">
        <ele>82.5</ele>
        <time>2025-01-19T08:50:47Z</time>
      </trkpt>
      <trkpt lat="43.42778" lon="6.65057">
        <ele>82.4</ele>
        <time>2025-01-19T08:50:48Z</time>
      </trkpt>
      <trkpt lat="43.42778" lon="6.65056">
        <ele>82.3</ele>
        <time>2025-01-19T08:50:49Z</time>
      </trkpt>
      <trkpt lat="43.42777" lon="6.65055">
        <ele>82.3</ele>
        <time>2025-01-19T08:50:50Z</time>
      </trkpt>
      <trkpt lat="43.42776" lon="6.65054">
        <ele>82.3</ele>
        <time>2025-01-19T08:50:51Z</time>
      </trkpt>
      <trkpt lat="43.42775" lon="6.65053">
        <ele>82.4</ele>
        <time>2025-01-19T08:50:52Z</time>
      </trkpt>
      <trkpt lat="43.42774" lon="6.65052">
        <ele>82.4</ele>
        <time>2025-01-19T08:50:53Z</time>
      </trkpt>
      <trkpt lat="43.42773" lon="6.65051">
        <ele>82.4</ele>
        <time>2025-01-19T08:50:54Z</time>
      </trkpt>
      <trkpt lat="43.42772" lon="6.6505">
        <ele>82.4</ele>
        <time>2025-01-19T08:50:55Z</time>
      </trkpt>
      <trkpt lat="43.42771" lon="6.65049">
        <ele>82.5</ele>
        <time>2025-01-19T08:50:56Z</time>
      </trkpt>
      <trkpt lat="43.42771" lon="6.65047">
        <ele>82.5</ele>
        <time>2025-01-19T08:50:57Z</time>
      </trkpt>
      <trkpt lat="43.4277" lon="6.65047">
        <ele>82.5</ele>
        <time>2025-01-19T08:50:58Z</time>
      </trkpt>
      <trkpt lat="43.4277" lon="6.65045">
        <ele>82.6</ele>
        <time>2025-01-19T08:50:59Z</time>
      </trkpt>
      <trkpt lat="43.42769" lon="6.65044">
        <ele>82.7</ele>
        <time>2025-01-19T08:51:00Z</time>
      </trkpt>
      <trkpt lat="43.42768" lon="6.65044">
        <ele>82.8</ele>
        <time>2025-01-19T08:51:01Z</time>
      </trkpt>
      <trkpt lat="43.42768" lon="6.65043">
        <ele>82.8</ele>
        <time>2025-01-19T08:51:02Z</time>
      </trkpt>
      <trkpt lat="43.42766" lon="6.65042">
        <ele>82.9</ele>
        <time>2025-01-19T08:51:03Z</time>
      </trkpt>
      <trkpt lat="43.42765" lon="6.65041">
        <ele>83</ele>
        <time>2025-01-19T08:51:04Z</time>
      </trkpt>
      <trkpt lat="43.42764" lon="6.6504">
        <ele>83.1</ele>
        <time>2025-01-19T08:51:05Z</time>
      </trkpt>
      <trkpt lat="43.42762" lon="6.65039">
        <ele>83.1</ele>
        <time>2025-01-19T08:51:06Z</time>
      </trkpt>
      <trkpt lat="43.42761" lon="6.65039">
        <ele>83.1</ele>
        <time>2025-01-19T08:51:07Z</time>
      </trkpt>
      <trkpt lat="43.4276" lon="6.65038">
        <ele>83.2</ele>
        <time>2025-01-19T08:51:08Z</time>
      </trkpt>
      <trkpt lat="43.42758" lon="6.65038">
        <ele>83.2</ele>
        <time>2025-01-19T08:51:09Z</time>
      </trkpt>
      <trkpt lat="43.42758" lon="6.65036">
        <ele>83.1</ele>
        <time>2025-01-19T08:51:10Z</time>
      </trkpt>
      <trkpt lat="43.42757" lon="6.65036">
        <ele>83.2</ele>
        <time>2025-01-19T08:51:11Z</time>
      </trkpt>
      <trkpt lat="43.42756" lon="6.65036">
        <ele>83.2</ele>
        <time>2025-01-19T08:51:12Z</time>
      </trkpt>
      <trkpt lat="43.42754" lon="6.65036">
        <ele>83.1</ele>
        <time>2025-01-19T08:51:13Z</time>
      </trkpt>
      <trkpt lat="43.42753" lon="6.65036">
        <ele>83.1</ele>
        <time>2025-01-19T08:51:14Z</time>
      </trkpt>
      <trkpt lat="43.42752" lon="6.65036">
        <ele>83.2</ele>
        <time>2025-01-19T08:51:15Z</time>
      </trkpt>
      <trkpt lat="43.42752" lon="6.65035">
        <ele>83.3</ele>
        <time>2025-01-19T08:51:16Z</time>
      </trkpt>
      <trkpt lat="43.42751" lon="6.65035">
        <ele>83.5</ele>
        <time>2025-01-19T08:51:17Z</time>
      </trkpt>
      <trkpt lat="43.42751" lon="6.65036">
        <ele>83.6</ele>
        <time>2025-01-19T08:51:18Z</time>
      </trkpt>
      <trkpt lat="43.4275" lon="6.65036">
        <ele>83.7</ele>
        <time>2025-01-19T08:51:19Z</time>
      </trkpt>
      <trkpt lat="43.42749" lon="6.65036">
        <ele>83.7</ele>
        <time>2025-01-19T08:51:20Z</time>
      </trkpt>
      <trkpt lat="43.42747" lon="6.65037">
        <ele>83.7</ele>
        <time>2025-01-19T08:51:21Z</time>
      </trkpt>
      <trkpt lat="43.42746" lon="6.65038">
        <ele>83.8</ele>
        <time>2025-01-19T08:51:22Z</time>
      </trkpt>
      <trkpt lat="43.42746" lon="6.65038">
        <ele>83.9</ele>
        <time>2025-01-19T08:51:23Z</time>
      </trkpt>
      <trkpt lat="43.42745" lon="6.65039">
        <ele>84</ele>
        <time>2025-01-19T08:51:24Z</time>
      </trkpt>
      <trkpt lat="43.42743" lon="6.65039">
        <ele>84.1</ele>
        <time>2025-01-19T08:51:25Z</time>
      </trkpt>
      <trkpt lat="43.42742" lon="6.6504">
        <ele>84.1</ele>
        <time>2025-01-19T08:51:26Z</time>
      </trkpt>
      <trkpt lat="43.42741" lon="6.6504">
        <ele>84.2</ele>
        <time>2025-01-19T08:51:27Z</time>
      </trkpt>
      <trkpt lat="43.42739" lon="6.6504">
        <ele>84.3</ele>
        <time>2025-01-19T08:51:28Z</time>
      </trkpt>
      <trkpt lat="43.42738" lon="6.6504">
        <ele>84.4</ele>
        <time>2025-01-19T08:51:29Z</time>
      </trkpt>
      <trkpt lat="43.42737" lon="6.65041">
        <ele>84.4</ele>
        <time>2025-01-19T08:51:30Z</time>
      </trkpt>
      <trkpt lat="43.42736" lon="6.65041">
        <ele>84.4</ele>
        <time>2025-01-19T08:51:31Z</time>
      </trkpt>
      <trkpt lat="43.42734" lon="6.65041">
        <ele>84.4</ele>
        <time>2025-01-19T08:51:32Z</time>
      </trkpt>
      <trkpt lat="43.42733" lon="6.65042">
        <ele>84.4</ele>
        <time>2025-01-19T08:51:33Z</time>
      </trkpt>
      <trkpt lat="43.42732" lon="6.65042">
        <ele>84.4</ele>
        <time>2025-01-19T08:51:34Z</time>
      </trkpt>
      <trkpt lat="43.42731" lon="6.65043">
        <ele>84.3</ele>
        <time>2025-01-19T08:51:35Z</time>
      </trkpt>
      <trkpt lat="43.4273" lon="6.65043">
        <ele>84.3</ele>
        <time>2025-01-19T08:51:36Z</time>
      </trkpt>
      <trkpt lat="43.42728" lon="6.65044">
        <ele>84.3</ele>
        <time>2025-01-19T08:51:37Z</time>
      </trkpt>
      <trkpt lat="43.42727" lon="6.65045">
        <ele>84.3</ele>
        <time>2025-01-19T08:51:38Z</time>
      </trkpt>
      <trkpt lat="43.42726" lon="6.65045">
        <ele>84.3</ele>
        <time>2025-01-19T08:51:39Z</time>
      </trkpt>
      <trkpt lat="43.42725" lon="6.65046">
        <ele>84.3</ele>
        <time>2025-01-19T08:51:40Z</time>
      </trkpt>
      <trkpt lat="43.42724" lon="6.65046">
        <ele>84.3</ele>
        <time>2025-01-19T08:51:41Z</time>
      </trkpt>
      <trkpt lat="43.42723" lon="6.65047">
        <ele>84.3</ele>
        <time>2025-01-19T08:51:42Z</time>
      </trkpt>
      <trkpt lat="43.42721" lon="6.65048">
        <ele>84.2</ele>
        <time>2025-01-19T08:51:43Z</time>
      </trkpt>
      <trkpt lat="43.4272" lon="6.65048">
        <ele>84.2</ele>
        <time>2025-01-19T08:51:44Z</time>
      </trkpt>
      <trkpt lat="43.42719" lon="6.65049">
        <ele>84.1</ele>
        <time>2025-01-19T08:51:45Z</time>
      </trkpt>
      <trkpt lat="43.42718" lon="6.6505">
        <ele>84.1</ele>
        <time>2025-01-19T08:51:46Z</time>
      </trkpt>
      <trkpt lat="43.42717" lon="6.65051">
        <ele>84</ele>
        <time>2025-01-19T08:51:47Z</time>
      </trkpt>
      <trkpt lat="43.42716" lon="6.65053">
        <ele>84.1</ele>
        <time>2025-01-19T08:51:48Z</time>
      </trkpt>
      <trkpt lat="43.42716" lon="6.65054">
        <ele>84</ele>
        <time>2025-01-19T08:51:49Z</time>
      </trkpt>
      <trkpt lat="43.42716" lon="6.65055">
        <ele>84</ele>
        <time>2025-01-19T08:51:50Z</time>
      </trkpt>
      <trkpt lat="43.42716" lon="6.65057">
        <ele>84</ele>
        <time>2025-01-19T08:51:51Z</time>
      </trkpt>
      <trkpt lat="43.42716" lon="6.65059">
        <ele>84.1</ele>
        <time>2025-01-19T08:51:52Z</time>
      </trkpt>
      <trkpt lat="43.42716" lon="6.6506">
        <ele>84.2</ele>
        <time>2025-01-19T08:51:53Z</time>
      </trkpt>
      <trkpt lat="43.42716" lon="6.65062">
        <ele>84.2</ele>
        <time>2025-01-19T08:51:54Z</time>
      </trkpt>
      <trkpt lat="43.42716" lon="6.65063">
        <ele>84.4</ele>
        <time>2025-01-19T08:51:55Z</time>
      </trkpt>
      <trkpt lat="43.42716" lon="6.65065">
        <ele>84.5</ele>
        <time>2025-01-19T08:51:56Z</time>
      </trkpt>
      <trkpt lat="43.42717" lon="6.65066">
        <ele>84.5</ele>
        <time>2025-01-19T08:51:57Z</time>
      </trkpt>
      <trkpt lat="43.42717" lon="6.65068">
        <ele>84.6</ele>
        <time>2025-01-19T08:51:58Z</time>
      </trkpt>
      <trkpt lat="43.42718" lon="6.65069">
        <ele>84.6</ele>
        <time>2025-01-19T08:51:59Z</time>
      </trkpt>
      <trkpt lat="43.42718" lon="6.65071">
        <ele>84.7</ele>
        <time>2025-01-19T08:52:00Z</time>
      </trkpt>
      <trkpt lat="43.42719" lon="6.65072">
        <ele>84.7</ele>
        <time>2025-01-19T08:52:01Z</time>
      </trkpt>
      <trkpt lat="43.42719" lon="6.65073">
        <ele>84.8</ele>
        <time>2025-01-19T08:52:02Z</time>
      </trkpt>
      <trkpt lat="43.4272" lon="6.65074">
        <ele>84.8</ele>
        <time>2025-01-19T08:52:03Z</time>
      </trkpt>
      <trkpt lat="43.4272" lon="6.65076">
        <ele>84.9</ele>
        <time>2025-01-19T08:52:04Z</time>
      </trkpt>
      <trkpt lat="43.42721" lon="6.65077">
        <ele>84.9</ele>
        <time>2025-01-19T08:52:05Z</time>
      </trkpt>
      <trkpt lat="43.42721" lon="6.65079">
        <ele>84.9</ele>
        <time>2025-01-19T08:52:06Z</time>
      </trkpt>
      <trkpt lat="43.42722" lon="6.6508">
        <ele>85</ele>
        <time>2025-01-19T08:52:07Z</time>
      </trkpt>
      <trkpt lat="43.42722" lon="6.65082">
        <ele>85.1</ele>
        <time>2025-01-19T08:52:08Z</time>
      </trkpt>
      <trkpt lat="43.42723" lon="6.65083">
        <ele>85</ele>
        <time>2025-01-19T08:52:09Z</time>
      </trkpt>
      <trkpt lat="43.42723" lon="6.65085">
        <ele>85.1</ele>
        <time>2025-01-19T08:52:10Z</time>
      </trkpt>
      <trkpt lat="43.42723" lon="6.65086">
        <ele>85.1</ele>
        <time>2025-01-19T08:52:11Z</time>
      </trkpt>
      <trkpt lat="43.42724" lon="6.65088">
        <ele>85.1</ele>
        <time>2025-01-19T08:52:12Z</time>
      </trkpt>
      <trkpt lat="43.42724" lon="6.65089">
        <ele>85.1</ele>
        <time>2025-01-19T08:52:13Z</time>
      </trkpt>
      <trkpt lat="43.42725" lon="6.65091">
        <ele>85.1</ele>
        <time>2025-01-19T08:52:14Z</time>
      </trkpt>
      <trkpt lat="43.42725" lon="6.65093">
        <ele>85.2</ele>
        <time>2025-01-19T08:52:15Z</time>
      </trkpt>
      <trkpt lat="43.42725" lon="6.65094">
        <ele>85.3</ele>
        <time>2025-01-19T08:52:16Z</time>
      </trkpt>
      <trkpt lat="43.42725" lon="6.65096">
        <ele>85.4</ele>
        <time>2025-01-19T08:52:17Z</time>
      </trkpt>
      <trkpt lat="43.42725" lon="6.65098">
        <ele>85.3</ele>
        <time>2025-01-19T08:52:18Z</time>
      </trkpt>
      <trkpt lat="43.42725" lon="6.65099">
        <ele>85.4</ele>
        <time>2025-01-19T08:52:19Z</time>
      </trkpt>
      <trkpt lat="43.42726" lon="6.65101">
        <ele>85.4</ele>
        <time>2025-01-19T08:52:20Z</time>
      </trkpt>
      <trkpt lat="43.42725" lon="6.65103">
        <ele>85.4</ele>
        <time>2025-01-19T08:52:21Z</time>
      </trkpt>
      <trkpt lat="43.42725" lon="6.65104">
        <ele>85.4</ele>
        <time>2025-01-19T08:52:22Z</time>
      </trkpt>
      <trkpt lat="43.42726" lon="6.65106">
        <ele>85.3</ele>
        <time>2025-01-19T08:52:23Z</time>
      </trkpt>
      <trkpt lat="43.42726" lon="6.65108">
        <ele>85.4</ele>
        <time>2025-01-19T08:52:24Z</time>
      </trkpt>
      <trkpt lat="43.42726" lon="6.65109">
        <ele>85.4</ele>
        <time>2025-01-19T08:52:25Z</time>
      </trkpt>
      <trkpt lat="43.42726" lon="6.65111">
        <ele>85.4</ele>
        <time>2025-01-19T08:52:26Z</time>
      </trkpt>
      <trkpt lat="43.42726" lon="6.65112">
        <ele>85.3</ele>
        <time>2025-01-19T08:52:27Z</time>
      </trkpt>
      <trkpt lat="43.42726" lon="6.65114">
        <ele>85.3</ele>
        <time>2025-01-19T08:52:28Z</time>
      </trkpt>
      <trkpt lat="43.42726" lon="6.65116">
        <ele>85.3</ele>
        <time>2025-01-19T08:52:29Z</time>
      </trkpt>
      <trkpt lat="43.42726" lon="6.65118">
        <ele>85.2</ele>
        <time>2025-01-19T08:52:30Z</time>
      </trkpt>
      <trkpt lat="43.42726" lon="6.6512">
        <ele>85.2</ele>
        <time>2025-01-19T08:52:31Z</time>
      </trkpt>
      <trkpt lat="43.42726" lon="6.65121">
        <ele>85.2</ele>
        <time>2025-01-19T08:52:32Z</time>
      </trkpt>
      <trkpt lat="43.42726" lon="6.65123">
        <ele>85.2</ele>
        <time>2025-01-19T08:52:33Z</time>
      </trkpt>
      <trkpt lat="43.42726" lon="6.65124">
        <ele>85.2</ele>
        <time>2025-01-19T08:52:34Z</time>
      </trkpt>
      <trkpt lat="43.42727" lon="6.65126">
        <ele>85.2</ele>
        <time>2025-01-19T08:52:35Z</time>
      </trkpt>
      <trkpt lat="43.42727" lon="6.65128">
        <ele>85.2</ele>
        <time>2025-01-19T08:52:36Z</time>
      </trkpt>
      <trkpt lat="43.42726" lon="6.6513">
        <ele>85.1</ele>
        <time>2025-01-19T08:52:37Z</time>
      </trkpt>
      <trkpt lat="43.42726" lon="6.65131">
        <ele>85.2</ele>
        <time>2025-01-19T08:52:38Z</time>
      </trkpt>
      <trkpt lat="43.42726" lon="6.65133">
        <ele>85.2</ele>
        <time>2025-01-19T08:52:39Z</time>
      </trkpt>
      <trkpt lat="43.42726" lon="6.65135">
        <ele>85.2</ele>
        <time>2025-01-19T08:52:40Z</time>
      </trkpt>
      <trkpt lat="43.42726" lon="6.65137">
        <ele>85.3</ele>
        <time>2025-01-19T08:52:41Z</time>
      </trkpt>
      <trkpt lat="43.42725" lon="6.65138">
        <ele>85.3</ele>
        <time>2025-01-19T08:52:42Z</time>
      </trkpt>
      <trkpt lat="43.42725" lon="6.6514">
        <ele>85.3</ele>
        <time>2025-01-19T08:52:43Z</time>
      </trkpt>
      <trkpt lat="43.42725" lon="6.65142">
        <ele>85.3</ele>
        <time>2025-01-19T08:52:44Z</time>
      </trkpt>
      <trkpt lat="43.42724" lon="6.65143">
        <ele>85.3</ele>
        <time>2025-01-19T08:52:45Z</time>
      </trkpt>
      <trkpt lat="43.42724" lon="6.65145">
        <ele>85.4</ele>
        <time>2025-01-19T08:52:46Z</time>
      </trkpt>
      <trkpt lat="43.42723" lon="6.65147">
        <ele>85.4</ele>
        <time>2025-01-19T08:52:47Z</time>
      </trkpt>
      <trkpt lat="43.42722" lon="6.65148">
        <ele>85.5</ele>
        <time>2025-01-19T08:52:48Z</time>
      </trkpt>
      <trkpt lat="43.42722" lon="6.6515">
        <ele>85.5</ele>
        <time>2025-01-19T08:52:49Z</time>
      </trkpt>
      <trkpt lat="43.42721" lon="6.65151">
        <ele>85.6</ele>
        <time>2025-01-19T08:52:50Z</time>
      </trkpt>
      <trkpt lat="43.42719" lon="6.65153">
        <ele>85.6</ele>
        <time>2025-01-19T08:52:51Z</time>
      </trkpt>
      <trkpt lat="43.42718" lon="6.65154">
        <ele>85.6</ele>
        <time>2025-01-19T08:52:52Z</time>
      </trkpt>
      <trkpt lat="43.42718" lon="6.65155">
        <ele>85.6</ele>
        <time>2025-01-19T08:52:53Z</time>
      </trkpt>
      <trkpt lat="43.42716" lon="6.65157">
        <ele>85.7</ele>
        <time>2025-01-19T08:52:54Z</time>
      </trkpt>
      <trkpt lat="43.42715" lon="6.65158">
        <ele>85.7</ele>
        <time>2025-01-19T08:52:55Z</time>
      </trkpt>
      <trkpt lat="43.42714" lon="6.65159">
        <ele>85.7</ele>
        <time>2025-01-19T08:52:56Z</time>
      </trkpt>
      <trkpt lat="43.42713" lon="6.6516">
        <ele>85.7</ele>
        <time>2025-01-19T08:52:57Z</time>
      </trkpt>
      <trkpt lat="43.42712" lon="6.65161">
        <ele>85.9</ele>
        <time>2025-01-19T08:52:58Z</time>
      </trkpt>
      <trkpt lat="43.42711" lon="6.65162">
        <ele>85.9</ele>
        <time>2025-01-19T08:52:59Z</time>
      </trkpt>
      <trkpt lat="43.4271" lon="6.65162">
        <ele>85.9</ele>
        <time>2025-01-19T08:53:00Z</time>
      </trkpt>
      <trkpt lat="43.42709" lon="6.65163">
        <ele>86</ele>
        <time>2025-01-19T08:53:01Z</time>
      </trkpt>
      <trkpt lat="43.42708" lon="6.65163">
        <ele>86</ele>
        <time>2025-01-19T08:53:02Z</time>
      </trkpt>
      <trkpt lat="43.42707" lon="6.65164">
        <ele>86</ele>
        <time>2025-01-19T08:53:03Z</time>
      </trkpt>
      <trkpt lat="43.42706" lon="6.65165">
        <ele>86</ele>
        <time>2025-01-19T08:53:04Z</time>
      </trkpt>
      <trkpt lat="43.42705" lon="6.65165">
        <ele>86</ele>
        <time>2025-01-19T08:53:05Z</time>
      </trkpt>
      <trkpt lat="43.42704" lon="6.65166">
        <ele>86</ele>
        <time>2025-01-19T08:53:06Z</time>
      </trkpt>
      <trkpt lat="43.42702" lon="6.65166">
        <ele>86</ele>
        <time>2025-01-19T08:53:07Z</time>
      </trkpt>
      <trkpt lat="43.42701" lon="6.65166">
        <ele>86</ele>
        <time>2025-01-19T08:53:08Z</time>
      </trkpt>
      <trkpt lat="43.427" lon="6.65166">
        <ele>85.9</ele>
        <time>2025-01-19T08:53:09Z</time>
      </trkpt>
      <trkpt lat="43.42699" lon="6.65166">
        <ele>86</ele>
        <time>2025-01-19T08:53:10Z</time>
      </trkpt>
      <trkpt lat="43.42698" lon="6.65166">
        <ele>86.1</ele>
        <time>2025-01-19T08:53:11Z</time>
      </trkpt>
      <trkpt lat="43.42697" lon="6.65166">
        <ele>86.1</ele>
        <time>2025-01-19T08:53:12Z</time>
      </trkpt>
      <trkpt lat="43.42696" lon="6.65167">
        <ele>86.2</ele>
        <time>2025-01-19T08:53:13Z</time>
      </trkpt>
      <trkpt lat="43.42695" lon="6.65166">
        <ele>86.1</ele>
        <time>2025-01-19T08:53:14Z</time>
      </trkpt>
      <trkpt lat="43.42694" lon="6.65166">
        <ele>86.1</ele>
        <time>2025-01-19T08:53:15Z</time>
      </trkpt>
      <trkpt lat="43.42693" lon="6.65166">
        <ele>86</ele>
        <time>2025-01-19T08:53:16Z</time>
      </trkpt>
      <trkpt lat="43.42692" lon="6.65166">
        <ele>86.1</ele>
        <time>2025-01-19T08:53:17Z</time>
      </trkpt>
      <trkpt lat="43.42691" lon="6.65167">
        <ele>86.2</ele>
        <time>2025-01-19T08:53:18Z</time>
      </trkpt>
      <trkpt lat="43.42689" lon="6.65167">
        <ele>86.2</ele>
        <time>2025-01-19T08:53:19Z</time>
      </trkpt>
      <trkpt lat="43.42688" lon="6.65167">
        <ele>86.2</ele>
        <time>2025-01-19T08:53:20Z</time>
      </trkpt>
      <trkpt lat="43.42687" lon="6.65167">
        <ele>86.2</ele>
        <time>2025-01-19T08:53:21Z</time>
      </trkpt>
      <trkpt lat="43.42686" lon="6.65168">
        <ele>86.2</ele>
        <time>2025-01-19T08:53:22Z</time>
      </trkpt>
      <trkpt lat="43.42684" lon="6.65168">
        <ele>86.2</ele>
        <time>2025-01-19T08:53:23Z</time>
      </trkpt>
      <trkpt lat="43.42684" lon="6.65168">
        <ele>86.2</ele>
        <time>2025-01-19T08:53:24Z</time>
      </trkpt>
      <trkpt lat="43.42682" lon="6.65168">
        <ele>86.2</ele>
        <time>2025-01-19T08:53:25Z</time>
      </trkpt>
      <trkpt lat="43.42681" lon="6.65168">
        <ele>86.2</ele>
        <time>2025-01-19T08:53:26Z</time>
      </trkpt>
      <trkpt lat="43.42681" lon="6.65169">
        <ele>86.3</ele>
        <time>2025-01-19T08:53:27Z</time>
      </trkpt>
      <trkpt lat="43.4268" lon="6.65169">
        <ele>86.4</ele>
        <time>2025-01-19T08:53:28Z</time>
      </trkpt>
      <trkpt lat="43.42679" lon="6.6517">
        <ele>86.4</ele>
        <time>2025-01-19T08:53:29Z</time>
      </trkpt>
      <trkpt lat="43.42677" lon="6.65171">
        <ele>86.5</ele>
        <time>2025-01-19T08:53:30Z</time>
      </trkpt>
      <trkpt lat="43.42676" lon="6.65171">
        <ele>86.5</ele>
        <time>2025-01-19T08:53:31Z</time>
      </trkpt>
      <trkpt lat="43.42675" lon="6.65172">
        <ele>86.6</ele>
        <time>2025-01-19T08:53:32Z</time>
      </trkpt>
      <trkpt lat="43.42673" lon="6.65171">
        <ele>86.7</ele>
        <time>2025-01-19T08:53:33Z</time>
      </trkpt>
      <trkpt lat="43.42673" lon="6.65172">
        <ele>86.7</ele>
        <time>2025-01-19T08:53:34Z</time>
      </trkpt>
      <trkpt lat="43.42671" lon="6.65172">
        <ele>86.8</ele>
        <time>2025-01-19T08:53:35Z</time>
      </trkpt>
      <trkpt lat="43.4267" lon="6.65173">
        <ele>86.9</ele>
        <time>2025-01-19T08:53:36Z</time>
      </trkpt>
      <trkpt lat="43.42669" lon="6.65173">
        <ele>87</ele>
        <time>2025-01-19T08:53:37Z</time>
      </trkpt>
      <trkpt lat="43.42667" lon="6.65173">
        <ele>87</ele>
        <time>2025-01-19T08:53:38Z</time>
      </trkpt>
      <trkpt lat="43.42666" lon="6.65173">
        <ele>87.1</ele>
        <time>2025-01-19T08:53:39Z</time>
      </trkpt>
      <trkpt lat="43.42665" lon="6.65174">
        <ele>87.2</ele>
        <time>2025-01-19T08:53:40Z</time>
      </trkpt>
      <trkpt lat="43.42664" lon="6.65174">
        <ele>87.2</ele>
        <time>2025-01-19T08:53:41Z</time>
      </trkpt>
      <trkpt lat="43.42663" lon="6.65175">
        <ele>87.2</ele>
        <time>2025-01-19T08:53:42Z</time>
      </trkpt>
      <trkpt lat="43.42663" lon="6.65176">
        <ele>87.1</ele>
        <time>2025-01-19T08:53:43Z</time>
      </trkpt>
      <trkpt lat="43.42662" lon="6.65177">
        <ele>87.1</ele>
        <time>2025-01-19T08:53:44Z</time>
      </trkpt>
      <trkpt lat="43.42662" lon="6.65178">
        <ele>87.1</ele>
        <time>2025-01-19T08:53:45Z</time>
      </trkpt>
      <trkpt lat="43.42662" lon="6.65179">
        <ele>87.1</ele>
        <time>2025-01-19T08:53:46Z</time>
      </trkpt>
      <trkpt lat="43.42662" lon="6.65179">
        <ele>87</ele>
        <time>2025-01-19T08:53:47Z</time>
      </trkpt>
      <trkpt lat="43.42662" lon="6.65179">
        <ele>87.1</ele>
        <time>2025-01-19T08:53:48Z</time>
      </trkpt>
      <trkpt lat="43.42662" lon="6.65179">
        <ele>87.1</ele>
        <time>2025-01-19T08:53:49Z</time>
      </trkpt>
      <trkpt lat="43.42661" lon="6.65179">
        <ele>87.2</ele>
        <time>2025-01-19T08:53:50Z</time>
      </trkpt>
      <trkpt lat="43.4266" lon="6.65178">
        <ele>87.2</ele>
        <time>2025-01-19T08:53:51Z</time>
      </trkpt>
      <trkpt lat="43.42659" lon="6.65178">
        <ele>87.3</ele>
        <time>2025-01-19T08:53:52Z</time>
      </trkpt>
      <trkpt lat="43.42658" lon="6.65178">
        <ele>87.4</ele>
        <time>2025-01-19T08:53:53Z</time>
      </trkpt>
      <trkpt lat="43.42656" lon="6.65178">
        <ele>87.4</ele>
        <time>2025-01-19T08:53:54Z</time>
      </trkpt>
      <trkpt lat="43.42655" lon="6.65178">
        <ele>87.5</ele>
        <time>2025-01-19T08:53:55Z</time>
      </trkpt>
      <trkpt lat="43.42654" lon="6.65178">
        <ele>87.5</ele>
        <time>2025-01-19T08:53:56Z</time>
      </trkpt>
      <trkpt lat="43.42652" lon="6.65177">
        <ele>87.7</ele>
        <time>2025-01-19T08:53:57Z</time>
      </trkpt>
      <trkpt lat="43.42651" lon="6.65177">
        <ele>87.8</ele>
        <time>2025-01-19T08:53:58Z</time>
      </trkpt>
      <trkpt lat="43.42649" lon="6.65177">
        <ele>87.8</ele>
        <time>2025-01-19T08:53:59Z</time>
      </trkpt>
      <trkpt lat="43.42648" lon="6.65177">
        <ele>87.8</ele>
        <time>2025-01-19T08:54:00Z</time>
      </trkpt>
      <trkpt lat="43.42646" lon="6.65177">
        <ele>87.8</ele>
        <time>2025-01-19T08:54:01Z</time>
      </trkpt>
      <trkpt lat="43.42645" lon="6.65176">
        <ele>87.8</ele>
        <time>2025-01-19T08:54:02Z</time>
      </trkpt>
      <trkpt lat="43.42644" lon="6.65176">
        <ele>87.8</ele>
        <time>2025-01-19T08:54:03Z</time>
      </trkpt>
      <trkpt lat="43.42642" lon="6.65175">
        <ele>87.8</ele>
        <time>2025-01-19T08:54:04Z</time>
      </trkpt>
      <trkpt lat="43.42641" lon="6.65174">
        <ele>87.9</ele>
        <time>2025-01-19T08:54:05Z</time>
      </trkpt>
      <trkpt lat="43.4264" lon="6.65174">
        <ele>87.9</ele>
        <time>2025-01-19T08:54:06Z</time>
      </trkpt>
      <trkpt lat="43.42639" lon="6.65173">
        <ele>87.9</ele>
        <time>2025-01-19T08:54:07Z</time>
      </trkpt>
      <trkpt lat="43.42637" lon="6.65173">
        <ele>87.9</ele>
        <time>2025-01-19T08:54:08Z</time>
      </trkpt>
      <trkpt lat="43.42636" lon="6.65172">
        <ele>87.9</ele>
        <time>2025-01-19T08:54:09Z</time>
      </trkpt>
      <trkpt lat="43.42635" lon="6.65172">
        <ele>87.8</ele>
        <time>2025-01-19T08:54:10Z</time>
      </trkpt>
      <trkpt lat="43.42634" lon="6.65171">
        <ele>88</ele>
        <time>2025-01-19T08:54:11Z</time>
      </trkpt>
      <trkpt lat="43.42633" lon="6.6517">
        <ele>88</ele>
        <time>2025-01-19T08:54:12Z</time>
      </trkpt>
      <trkpt lat="43.42632" lon="6.65169">
        <ele>88</ele>
        <time>2025-01-19T08:54:13Z</time>
      </trkpt>
      <trkpt lat="43.42631" lon="6.65169">
        <ele>88.1</ele>
        <time>2025-01-19T08:54:14Z</time>
      </trkpt>
      <trkpt lat="43.4263" lon="6.65168">
        <ele>88.1</ele>
        <time>2025-01-19T08:54:15Z</time>
      </trkpt>
      <trkpt lat="43.42628" lon="6.65167">
        <ele>88.1</ele>
        <time>2025-01-19T08:54:16Z</time>
      </trkpt>
      <trkpt lat="43.42627" lon="6.65166">
        <ele>88.3</ele>
        <time>2025-01-19T08:54:17Z</time>
      </trkpt>
      <trkpt lat="43.42625" lon="6.65165">
        <ele>88.3</ele>
        <time>2025-01-19T08:54:18Z</time>
      </trkpt>
      <trkpt lat="43.42624" lon="6.65164">
        <ele>88.4</ele>
        <time>2025-01-19T08:54:19Z</time>
      </trkpt>
      <trkpt lat="43.42623" lon="6.65164">
        <ele>88.4</ele>
        <time>2025-01-19T08:54:20Z</time>
      </trkpt>
      <trkpt lat="43.42622" lon="6.65163">
        <ele>88.4</ele>
        <time>2025-01-19T08:54:21Z</time>
      </trkpt>
      <trkpt lat="43.42621" lon="6.65162">
        <ele>88.5</ele>
        <time>2025-01-19T08:54:22Z</time>
      </trkpt>
      <trkpt lat="43.4262" lon="6.65162">
        <ele>88.6</ele>
        <time>2025-01-19T08:54:23Z</time>
      </trkpt>
      <trkpt lat="43.42619" lon="6.65161">
        <ele>88.6</ele>
        <time>2025-01-19T08:54:24Z</time>
      </trkpt>
      <trkpt lat="43.42618" lon="6.6516">
        <ele>88.6</ele>
        <time>2025-01-19T08:54:25Z</time>
      </trkpt>
      <trkpt lat="43.42617" lon="6.6516">
        <ele>88.7</ele>
        <time>2025-01-19T08:54:26Z</time>
      </trkpt>
      <trkpt lat="43.42616" lon="6.65159">
        <ele>88.6</ele>
        <time>2025-01-19T08:54:27Z</time>
      </trkpt>
      <trkpt lat="43.42615" lon="6.65158">
        <ele>88.6</ele>
        <time>2025-01-19T08:54:28Z</time>
      </trkpt>
      <trkpt lat="43.42613" lon="6.65157">
        <ele>88.6</ele>
        <time>2025-01-19T08:54:29Z</time>
      </trkpt>
      <trkpt lat="43.42612" lon="6.65155">
        <ele>88.6</ele>
        <time>2025-01-19T08:54:30Z</time>
      </trkpt>
      <trkpt lat="43.42611" lon="6.65154">
        <ele>88.5</ele>
        <time>2025-01-19T08:54:31Z</time>
      </trkpt>
      <trkpt lat="43.4261" lon="6.65153">
        <ele>88.5</ele>
        <time>2025-01-19T08:54:32Z</time>
      </trkpt>
      <trkpt lat="43.42609" lon="6.65153">
        <ele>88.5</ele>
        <time>2025-01-19T08:54:33Z</time>
      </trkpt>
      <trkpt lat="43.42608" lon="6.65152">
        <ele>88.5</ele>
        <time>2025-01-19T08:54:34Z</time>
      </trkpt>
      <trkpt lat="43.42607" lon="6.65151">
        <ele>88.5</ele>
        <time>2025-01-19T08:54:35Z</time>
      </trkpt>
      <trkpt lat="43.42605" lon="6.6515">
        <ele>88.6</ele>
        <time>2025-01-19T08:54:36Z</time>
      </trkpt>
      <trkpt lat="43.42604" lon="6.65149">
        <ele>88.6</ele>
        <time>2025-01-19T08:54:37Z</time>
      </trkpt>
      <trkpt lat="43.42603" lon="6.65148">
        <ele>88.6</ele>
        <time>2025-01-19T08:54:38Z</time>
      </trkpt>
      <trkpt lat="43.42602" lon="6.65148">
        <ele>88.5</ele>
        <time>2025-01-19T08:54:39Z</time>
      </trkpt>
      <trkpt lat="43.42601" lon="6.65146">
        <ele>88.6</ele>
        <time>2025-01-19T08:54:40Z</time>
      </trkpt>
      <trkpt lat="43.426" lon="6.65146">
        <ele>88.5</ele>
        <time>2025-01-19T08:54:41Z</time>
      </trkpt>
      <trkpt lat="43.42598" lon="6.65145">
        <ele>88.5</ele>
        <time>2025-01-19T08:54:42Z</time>
      </trkpt>
      <trkpt lat="43.42597" lon="6.65143">
        <ele>88.5</ele>
        <time>2025-01-19T08:54:43Z</time>
      </trkpt>
      <trkpt lat="43.42596" lon="6.65142">
        <ele>88.6</ele>
        <time>2025-01-19T08:54:44Z</time>
      </trkpt>
      <trkpt lat="43.42595" lon="6.65141">
        <ele>88.6</ele>
        <time>2025-01-19T08:54:45Z</time>
      </trkpt>
      <trkpt lat="43.42594" lon="6.6514">
        <ele>88.6</ele>
        <time>2025-01-19T08:54:46Z</time>
      </trkpt>
      <trkpt lat="43.42593" lon="6.65139">
        <ele>88.6</ele>
        <time>2025-01-19T08:54:47Z</time>
      </trkpt>
      <trkpt lat="43.42592" lon="6.65138">
        <ele>88.5</ele>
        <time>2025-01-19T08:54:48Z</time>
      </trkpt>
      <trkpt lat="43.42591" lon="6.65137">
        <ele>88.5</ele>
        <time>2025-01-19T08:54:49Z</time>
      </trkpt>
      <trkpt lat="43.4259" lon="6.65136">
        <ele>88.4</ele>
        <time>2025-01-19T08:54:50Z</time>
      </trkpt>
      <trkpt lat="43.42589" lon="6.65135">
        <ele>88.5</ele>
        <time>2025-01-19T08:54:51Z</time>
      </trkpt>
      <trkpt lat="43.42588" lon="6.65134">
        <ele>88.6</ele>
        <time>2025-01-19T08:54:52Z</time>
      </trkpt>
      <trkpt lat="43.42587" lon="6.65133">
        <ele>88.6</ele>
        <time>2025-01-19T08:54:53Z</time>
      </trkpt>
      <trkpt lat="43.42586" lon="6.65132">
        <ele>88.6</ele>
        <time>2025-01-19T08:54:54Z</time>
      </trkpt>
      <trkpt lat="43.42585" lon="6.65131">
        <ele>88.7</ele>
        <time>2025-01-19T08:54:55Z</time>
      </trkpt>
      <trkpt lat="43.42584" lon="6.6513">
        <ele>88.8</ele>
        <time>2025-01-19T08:54:56Z</time>
      </trkpt>
      <trkpt lat="43.42583" lon="6.65129">
        <ele>88.8</ele>
        <time>2025-01-19T08:54:57Z</time>
      </trkpt>
      <trkpt lat="43.42582" lon="6.65127">
        <ele>88.9</ele>
        <time>2025-01-19T08:54:58Z</time>
      </trkpt>
      <trkpt lat="43.42581" lon="6.65126">
        <ele>89</ele>
        <time>2025-01-19T08:54:59Z</time>
      </trkpt>
      <trkpt lat="43.4258" lon="6.65125">
        <ele>89</ele>
        <time>2025-01-19T08:55:00Z</time>
      </trkpt>
      <trkpt lat="43.42579" lon="6.65124">
        <ele>89.1</ele>
        <time>2025-01-19T08:55:01Z</time>
      </trkpt>
      <trkpt lat="43.42578" lon="6.65123">
        <ele>89.1</ele>
        <time>2025-01-19T08:55:02Z</time>
      </trkpt>
      <trkpt lat="43.42577" lon="6.65122">
        <ele>89.1</ele>
        <time>2025-01-19T08:55:03Z</time>
      </trkpt>
      <trkpt lat="43.42576" lon="6.65121">
        <ele>89.2</ele>
        <time>2025-01-19T08:55:04Z</time>
      </trkpt>
      <trkpt lat="43.42575" lon="6.6512">
        <ele>89.2</ele>
        <time>2025-01-19T08:55:05Z</time>
      </trkpt>
      <trkpt lat="43.42574" lon="6.65119">
        <ele>89.2</ele>
        <time>2025-01-19T08:55:06Z</time>
      </trkpt>
      <trkpt lat="43.42573" lon="6.65118">
        <ele>89.2</ele>
        <time>2025-01-19T08:55:07Z</time>
      </trkpt>
      <trkpt lat="43.42571" lon="6.65117">
        <ele>89.2</ele>
        <time>2025-01-19T08:55:08Z</time>
      </trkpt>
      <trkpt lat="43.4257" lon="6.65116">
        <ele>89.2</ele>
        <time>2025-01-19T08:55:09Z</time>
      </trkpt>
      <trkpt lat="43.42569" lon="6.65115">
        <ele>89.4</ele>
        <time>2025-01-19T08:55:10Z</time>
      </trkpt>
      <trkpt lat="43.42568" lon="6.65114">
        <ele>89.6</ele>
        <time>2025-01-19T08:55:11Z</time>
      </trkpt>
      <trkpt lat="43.42567" lon="6.65114">
        <ele>89.6</ele>
        <time>2025-01-19T08:55:12Z</time>
      </trkpt>
      <trkpt lat="43.42566" lon="6.65113">
        <ele>89.5</ele>
        <time>2025-01-19T08:55:13Z</time>
      </trkpt>
      <trkpt lat="43.42564" lon="6.65112">
        <ele>89.5</ele>
        <time>2025-01-19T08:55:14Z</time>
      </trkpt>
      <trkpt lat="43.42563" lon="6.65111">
        <ele>89.5</ele>
        <time>2025-01-19T08:55:15Z</time>
      </trkpt>
      <trkpt lat="43.42562" lon="6.6511">
        <ele>89.5</ele>
        <time>2025-01-19T08:55:16Z</time>
      </trkpt>
      <trkpt lat="43.42561" lon="6.65109">
        <ele>89.7</ele>
        <time>2025-01-19T08:55:17Z</time>
      </trkpt>
      <trkpt lat="43.4256" lon="6.65109">
        <ele>89.7</ele>
        <time>2025-01-19T08:55:18Z</time>
      </trkpt>
      <trkpt lat="43.42559" lon="6.65108">
        <ele>89.8</ele>
        <time>2025-01-19T08:55:19Z</time>
      </trkpt>
      <trkpt lat="43.42557" lon="6.65107">
        <ele>89.8</ele>
        <time>2025-01-19T08:55:20Z</time>
      </trkpt>
      <trkpt lat="43.42556" lon="6.65106">
        <ele>89.8</ele>
        <time>2025-01-19T08:55:21Z</time>
      </trkpt>
      <trkpt lat="43.42555" lon="6.65106">
        <ele>89.8</ele>
        <time>2025-01-19T08:55:22Z</time>
      </trkpt>
      <trkpt lat="43.42554" lon="6.65105">
        <ele>89.9</ele>
        <time>2025-01-19T08:55:23Z</time>
      </trkpt>
      <trkpt lat="43.42553" lon="6.65104">
        <ele>89.9</ele>
        <time>2025-01-19T08:55:24Z</time>
      </trkpt>
      <trkpt lat="43.42552" lon="6.65103">
        <ele>89.9</ele>
        <time>2025-01-19T08:55:25Z</time>
      </trkpt>
      <trkpt lat="43.42551" lon="6.65102">
        <ele>89.8</ele>
        <time>2025-01-19T08:55:26Z</time>
      </trkpt>
      <trkpt lat="43.4255" lon="6.65101">
        <ele>89.8</ele>
        <time>2025-01-19T08:55:27Z</time>
      </trkpt>
      <trkpt lat="43.42549" lon="6.651">
        <ele>89.8</ele>
        <time>2025-01-19T08:55:28Z</time>
      </trkpt>
      <trkpt lat="43.42549" lon="6.65099">
        <ele>89.8</ele>
        <time>2025-01-19T08:55:29Z</time>
      </trkpt>
      <trkpt lat="43.42548" lon="6.65098">
        <ele>89.9</ele>
        <time>2025-01-19T08:55:30Z</time>
      </trkpt>
      <trkpt lat="43.42547" lon="6.65096">
        <ele>89.9</ele>
        <time>2025-01-19T08:55:31Z</time>
      </trkpt>
      <trkpt lat="43.42546" lon="6.65094">
        <ele>90</ele>
        <time>2025-01-19T08:55:32Z</time>
      </trkpt>
      <trkpt lat="43.42545" lon="6.65093">
        <ele>90.1</ele>
        <time>2025-01-19T08:55:33Z</time>
      </trkpt>
      <trkpt lat="43.42544" lon="6.65092">
        <ele>90.1</ele>
        <time>2025-01-19T08:55:34Z</time>
      </trkpt>
      <trkpt lat="43.42543" lon="6.65091">
        <ele>90.1</ele>
        <time>2025-01-19T08:55:35Z</time>
      </trkpt>
      <trkpt lat="43.42542" lon="6.6509">
        <ele>90.1</ele>
        <time>2025-01-19T08:55:36Z</time>
      </trkpt>
      <trkpt lat="43.42542" lon="6.65089">
        <ele>90.1</ele>
        <time>2025-01-19T08:55:37Z</time>
      </trkpt>
      <trkpt lat="43.4254" lon="6.65088">
        <ele>90.3</ele>
        <time>2025-01-19T08:55:38Z</time>
      </trkpt>
      <trkpt lat="43.42539" lon="6.65087">
        <ele>90.4</ele>
        <time>2025-01-19T08:55:39Z</time>
      </trkpt>
      <trkpt lat="43.42539" lon="6.65086">
        <ele>90.5</ele>
        <time>2025-01-19T08:55:40Z</time>
      </trkpt>
      <trkpt lat="43.42538" lon="6.65084">
        <ele>90.5</ele>
        <time>2025-01-19T08:55:41Z</time>
      </trkpt>
      <trkpt lat="43.42537" lon="6.65083">
        <ele>90.6</ele>
        <time>2025-01-19T08:55:42Z</time>
      </trkpt>
      <trkpt lat="43.42537" lon="6.65082">
        <ele>90.6</ele>
        <time>2025-01-19T08:55:43Z</time>
      </trkpt>
      <trkpt lat="43.42536" lon="6.65081">
        <ele>90.5</ele>
        <time>2025-01-19T08:55:44Z</time>
      </trkpt>
      <trkpt lat="43.42535" lon="6.65079">
        <ele>90.5</ele>
        <time>2025-01-19T08:55:45Z</time>
      </trkpt>
      <trkpt lat="43.42535" lon="6.65078">
        <ele>90.5</ele>
        <time>2025-01-19T08:55:46Z</time>
      </trkpt>
      <trkpt lat="43.42534" lon="6.65077">
        <ele>90.5</ele>
        <time>2025-01-19T08:55:47Z</time>
      </trkpt>
      <trkpt lat="43.42533" lon="6.65076">
        <ele>90.4</ele>
        <time>2025-01-19T08:55:48Z</time>
      </trkpt>
      <trkpt lat="43.42531" lon="6.65075">
        <ele>90.4</ele>
        <time>2025-01-19T08:55:49Z</time>
      </trkpt>
      <trkpt lat="43.4253" lon="6.65074">
        <ele>90.4</ele>
        <time>2025-01-19T08:55:50Z</time>
      </trkpt>
      <trkpt lat="43.4253" lon="6.65073">
        <ele>90.4</ele>
        <time>2025-01-19T08:55:51Z</time>
      </trkpt>
      <trkpt lat="43.42529" lon="6.65072">
        <ele>90.3</ele>
        <time>2025-01-19T08:55:52Z</time>
      </trkpt>
      <trkpt lat="43.42528" lon="6.65071">
        <ele>90.4</ele>
        <time>2025-01-19T08:55:53Z</time>
      </trkpt>
      <trkpt lat="43.42527" lon="6.6507">
        <ele>90.4</ele>
        <time>2025-01-19T08:55:54Z</time>
      </trkpt>
      <trkpt lat="43.42526" lon="6.65069">
        <ele>90.5</ele>
        <time>2025-01-19T08:55:55Z</time>
      </trkpt>
      <trkpt lat="43.42525" lon="6.65068">
        <ele>90.5</ele>
        <time>2025-01-19T08:55:56Z</time>
      </trkpt>
      <trkpt lat="43.42524" lon="6.65066">
        <ele>90.6</ele>
        <time>2025-01-19T08:55:57Z</time>
      </trkpt>
      <trkpt lat="43.42523" lon="6.65065">
        <ele>90.7</ele>
        <time>2025-01-19T08:55:58Z</time>
      </trkpt>
      <trkpt lat="43.42522" lon="6.65064">
        <ele>90.8</ele>
        <time>2025-01-19T08:55:59Z</time>
      </trkpt>
      <trkpt lat="43.42521" lon="6.65063">
        <ele>90.8</ele>
        <time>2025-01-19T08:56:00Z</time>
      </trkpt>
      <trkpt lat="43.4252" lon="6.65061">
        <ele>90.7</ele>
        <time>2025-01-19T08:56:01Z</time>
      </trkpt>
      <trkpt lat="43.42519" lon="6.6506">
        <ele>90.7</ele>
        <time>2025-01-19T08:56:02Z</time>
      </trkpt>
      <trkpt lat="43.42519" lon="6.65059">
        <ele>90.7</ele>
        <time>2025-01-19T08:56:03Z</time>
      </trkpt>
      <trkpt lat="43.42518" lon="6.65057">
        <ele>90.8</ele>
        <time>2025-01-19T08:56:04Z</time>
      </trkpt>
      <trkpt lat="43.42517" lon="6.65055">
        <ele>90.9</ele>
        <time>2025-01-19T08:56:05Z</time>
      </trkpt>
      <trkpt lat="43.42516" lon="6.65054">
        <ele>90.9</ele>
        <time>2025-01-19T08:56:06Z</time>
      </trkpt>
      <trkpt lat="43.42516" lon="6.65053">
        <ele>91</ele>
        <time>2025-01-19T08:56:07Z</time>
      </trkpt>
      <trkpt lat="43.42515" lon="6.65051">
        <ele>91</ele>
        <time>2025-01-19T08:56:08Z</time>
      </trkpt>
      <trkpt lat="43.42515" lon="6.6505">
        <ele>91</ele>
        <time>2025-01-19T08:56:09Z</time>
      </trkpt>
      <trkpt lat="43.42514" lon="6.65048">
        <ele>91</ele>
        <time>2025-01-19T08:56:10Z</time>
      </trkpt>
      <trkpt lat="43.42513" lon="6.65046">
        <ele>91</ele>
        <time>2025-01-19T08:56:11Z</time>
      </trkpt>
      <trkpt lat="43.42513" lon="6.65045">
        <ele>91</ele>
        <time>2025-01-19T08:56:12Z</time>
      </trkpt>
      <trkpt lat="43.42512" lon="6.65044">
        <ele>91</ele>
        <time>2025-01-19T08:56:13Z</time>
      </trkpt>
      <trkpt lat="43.42511" lon="6.65043">
        <ele>90.9</ele>
        <time>2025-01-19T08:56:14Z</time>
      </trkpt>
      <trkpt lat="43.42511" lon="6.65041">
        <ele>90.9</ele>
        <time>2025-01-19T08:56:15Z</time>
      </trkpt>
      <trkpt lat="43.4251" lon="6.6504">
        <ele>91.1</ele>
        <time>2025-01-19T08:56:16Z</time>
      </trkpt>
      <trkpt lat="43.42509" lon="6.65039">
        <ele>91</ele>
        <time>2025-01-19T08:56:17Z</time>
      </trkpt>
      <trkpt lat="43.42509" lon="6.65037">
        <ele>91</ele>
        <time>2025-01-19T08:56:18Z</time>
      </trkpt>
      <trkpt lat="43.42508" lon="6.65036">
        <ele>91</ele>
        <time>2025-01-19T08:56:19Z</time>
      </trkpt>
      <trkpt lat="43.42507" lon="6.65034">
        <ele>91</ele>
        <time>2025-01-19T08:56:20Z</time>
      </trkpt>
      <trkpt lat="43.42506" lon="6.65032">
        <ele>91.1</ele>
        <time>2025-01-19T08:56:21Z</time>
      </trkpt>
      <trkpt lat="43.42506" lon="6.65031">
        <ele>91.2</ele>
        <time>2025-01-19T08:56:22Z</time>
      </trkpt>
      <trkpt lat="43.42505" lon="6.6503">
        <ele>91.3</ele>
        <time>2025-01-19T08:56:23Z</time>
      </trkpt>
      <trkpt lat="43.42505" lon="6.65029">
        <ele>91.4</ele>
        <time>2025-01-19T08:56:24Z</time>
      </trkpt>
      <trkpt lat="43.42504" lon="6.65027">
        <ele>91.4</ele>
        <time>2025-01-19T08:56:25Z</time>
      </trkpt>
      <trkpt lat="43.42504" lon="6.65026">
        <ele>91.5</ele>
        <time>2025-01-19T08:56:26Z</time>
      </trkpt>
      <trkpt lat="43.42504" lon="6.65024">
        <ele>91.5</ele>
        <time>2025-01-19T08:56:27Z</time>
      </trkpt>
      <trkpt lat="43.42504" lon="6.65022">
        <ele>91.6</ele>
        <time>2025-01-19T08:56:28Z</time>
      </trkpt>
      <trkpt lat="43.42503" lon="6.65021">
        <ele>91.6</ele>
        <time>2025-01-19T08:56:29Z</time>
      </trkpt>
      <trkpt lat="43.42503" lon="6.65019">
        <ele>91.6</ele>
        <time>2025-01-19T08:56:30Z</time>
      </trkpt>
      <trkpt lat="43.42503" lon="6.65017">
        <ele>91.7</ele>
        <time>2025-01-19T08:56:31Z</time>
      </trkpt>
      <trkpt lat="43.42503" lon="6.65016">
        <ele>91.7</ele>
        <time>2025-01-19T08:56:32Z</time>
      </trkpt>
      <trkpt lat="43.42503" lon="6.65014">
        <ele>91.8</ele>
        <time>2025-01-19T08:56:33Z</time>
      </trkpt>
      <trkpt lat="43.42503" lon="6.65013">
        <ele>91.8</ele>
        <time>2025-01-19T08:56:34Z</time>
      </trkpt>
      <trkpt lat="43.42502" lon="6.65011">
        <ele>91.8</ele>
        <time>2025-01-19T08:56:35Z</time>
      </trkpt>
      <trkpt lat="43.42502" lon="6.6501">
        <ele>91.8</ele>
        <time>2025-01-19T08:56:36Z</time>
      </trkpt>
      <trkpt lat="43.42502" lon="6.65008">
        <ele>91.8</ele>
        <time>2025-01-19T08:56:37Z</time>
      </trkpt>
      <trkpt lat="43.42502" lon="6.65007">
        <ele>91.8</ele>
        <time>2025-01-19T08:56:38Z</time>
      </trkpt>
      <trkpt lat="43.42502" lon="6.65005">
        <ele>91.7</ele>
        <time>2025-01-19T08:56:39Z</time>
      </trkpt>
      <trkpt lat="43.42501" lon="6.65003">
        <ele>91.7</ele>
        <time>2025-01-19T08:56:40Z</time>
      </trkpt>
      <trkpt lat="43.42501" lon="6.65002">
        <ele>91.7</ele>
        <time>2025-01-19T08:56:41Z</time>
      </trkpt>
      <trkpt lat="43.425" lon="6.65001">
        <ele>91.7</ele>
        <time>2025-01-19T08:56:42Z</time>
      </trkpt>
      <trkpt lat="43.425" lon="6.64999">
        <ele>91.8</ele>
        <time>2025-01-19T08:56:43Z</time>
      </trkpt>
      <trkpt lat="43.425" lon="6.64998">
        <ele>91.8</ele>
        <time>2025-01-19T08:56:44Z</time>
      </trkpt>
      <trkpt lat="43.42499" lon="6.64997">
        <ele>91.8</ele>
        <time>2025-01-19T08:56:45Z</time>
      </trkpt>
      <trkpt lat="43.42499" lon="6.64995">
        <ele>91.8</ele>
        <time>2025-01-19T08:56:46Z</time>
      </trkpt>
      <trkpt lat="43.42499" lon="6.64994">
        <ele>91.8</ele>
        <time>2025-01-19T08:56:47Z</time>
      </trkpt>
      <trkpt lat="43.42499" lon="6.64992">
        <ele>91.9</ele>
        <time>2025-01-19T08:56:48Z</time>
      </trkpt>
      <trkpt lat="43.42499" lon="6.64991">
        <ele>91.9</ele>
        <time>2025-01-19T08:56:49Z</time>
      </trkpt>
      <trkpt lat="43.42499" lon="6.6499">
        <ele>92</ele>
        <time>2025-01-19T08:56:50Z</time>
      </trkpt>
      <trkpt lat="43.42498" lon="6.64988">
        <ele>92.1</ele>
        <time>2025-01-19T08:56:51Z</time>
      </trkpt>
      <trkpt lat="43.42498" lon="6.64987">
        <ele>92.2</ele>
        <time>2025-01-19T08:56:52Z</time>
      </trkpt>
      <trkpt lat="43.42497" lon="6.64986">
        <ele>92.2</ele>
        <time>2025-01-19T08:56:53Z</time>
      </trkpt>
      <trkpt lat="43.42497" lon="6.64985">
        <ele>92.3</ele>
        <time>2025-01-19T08:56:54Z</time>
      </trkpt>
      <trkpt lat="43.42496" lon="6.64983">
        <ele>92.3</ele>
        <time>2025-01-19T08:56:55Z</time>
      </trkpt>
      <trkpt lat="43.42495" lon="6.64983">
        <ele>92.3</ele>
        <time>2025-01-19T08:56:56Z</time>
      </trkpt>
      <trkpt lat="43.42495" lon="6.64981">
        <ele>92.4</ele>
        <time>2025-01-19T08:56:57Z</time>
      </trkpt>
      <trkpt lat="43.42494" lon="6.6498">
        <ele>92.4</ele>
        <time>2025-01-19T08:56:58Z</time>
      </trkpt>
      <trkpt lat="43.42493" lon="6.64979">
        <ele>92.5</ele>
        <time>2025-01-19T08:56:59Z</time>
      </trkpt>
      <trkpt lat="43.42493" lon="6.64978">
        <ele>92.5</ele>
        <time>2025-01-19T08:57:00Z</time>
      </trkpt>
      <trkpt lat="43.42491" lon="6.64977">
        <ele>92.5</ele>
        <time>2025-01-19T08:57:01Z</time>
      </trkpt>
      <trkpt lat="43.42491" lon="6.64976">
        <ele>92.4</ele>
        <time>2025-01-19T08:57:02Z</time>
      </trkpt>
      <trkpt lat="43.42489" lon="6.64976">
        <ele>92.4</ele>
        <time>2025-01-19T08:57:03Z</time>
      </trkpt>
      <trkpt lat="43.42489" lon="6.64977">
        <ele>92.4</ele>
        <time>2025-01-19T08:57:04Z</time>
      </trkpt>
      <trkpt lat="43.42488" lon="6.64977">
        <ele>92.3</ele>
        <time>2025-01-19T08:57:05Z</time>
      </trkpt>
      <trkpt lat="43.42487" lon="6.64977">
        <ele>92.2</ele>
        <time>2025-01-19T08:57:06Z</time>
      </trkpt>
      <trkpt lat="43.42485" lon="6.64978">
        <ele>92.1</ele>
        <time>2025-01-19T08:57:07Z</time>
      </trkpt>
      <trkpt lat="43.42484" lon="6.64979">
        <ele>92.2</ele>
        <time>2025-01-19T08:57:08Z</time>
      </trkpt>
      <trkpt lat="43.42483" lon="6.6498">
        <ele>92.2</ele>
        <time>2025-01-19T08:57:09Z</time>
      </trkpt>
      <trkpt lat="43.42483" lon="6.64982">
        <ele>92.2</ele>
        <time>2025-01-19T08:57:10Z</time>
      </trkpt>
      <trkpt lat="43.42482" lon="6.64983">
        <ele>92.2</ele>
        <time>2025-01-19T08:57:11Z</time>
      </trkpt>
      <trkpt lat="43.42482" lon="6.64984">
        <ele>92.3</ele>
        <time>2025-01-19T08:57:12Z</time>
      </trkpt>
      <trkpt lat="43.42481" lon="6.64985">
        <ele>92.4</ele>
        <time>2025-01-19T08:57:13Z</time>
      </trkpt>
      <trkpt lat="43.42481" lon="6.64986">
        <ele>92.4</ele>
        <time>2025-01-19T08:57:14Z</time>
      </trkpt>
      <trkpt lat="43.42481" lon="6.64987">
        <ele>92.4</ele>
        <time>2025-01-19T08:57:15Z</time>
      </trkpt>
      <trkpt lat="43.4248" lon="6.64987">
        <ele>92.5</ele>
        <time>2025-01-19T08:57:16Z</time>
      </trkpt>
      <trkpt lat="43.42479" lon="6.64988">
        <ele>92.6</ele>
        <time>2025-01-19T08:57:17Z</time>
      </trkpt>
      <trkpt lat="43.42478" lon="6.64988">
        <ele>92.7</ele>
        <time>2025-01-19T08:57:18Z</time>
      </trkpt>
      <trkpt lat="43.42477" lon="6.6499">
        <ele>92.9</ele>
        <time>2025-01-19T08:57:19Z</time>
      </trkpt>
      <trkpt lat="43.42476" lon="6.64991">
        <ele>93</ele>
        <time>2025-01-19T08:57:20Z</time>
      </trkpt>
      <trkpt lat="43.42475" lon="6.64992">
        <ele>93.1</ele>
        <time>2025-01-19T08:57:21Z</time>
      </trkpt>
      <trkpt lat="43.42474" lon="6.64992">
        <ele>93.2</ele>
        <time>2025-01-19T08:57:22Z</time>
      </trkpt>
      <trkpt lat="43.42473" lon="6.64993">
        <ele>93.2</ele>
        <time>2025-01-19T08:57:23Z</time>
      </trkpt>
      <trkpt lat="43.42472" lon="6.64995">
        <ele>93.3</ele>
        <time>2025-01-19T08:57:24Z</time>
      </trkpt>
      <trkpt lat="43.42471" lon="6.64996">
        <ele>93.4</ele>
        <time>2025-01-19T08:57:25Z</time>
      </trkpt>
      <trkpt lat="43.4247" lon="6.64997">
        <ele>93.4</ele>
        <time>2025-01-19T08:57:26Z</time>
      </trkpt>
      <trkpt lat="43.42469" lon="6.64997">
        <ele>93.4</ele>
        <time>2025-01-19T08:57:27Z</time>
      </trkpt>
      <trkpt lat="43.42468" lon="6.64998">
        <ele>93.5</ele>
        <time>2025-01-19T08:57:28Z</time>
      </trkpt>
      <trkpt lat="43.42468" lon="6.64999">
        <ele>93.5</ele>
        <time>2025-01-19T08:57:29Z</time>
      </trkpt>
      <trkpt lat="43.42467" lon="6.65">
        <ele>93.6</ele>
        <time>2025-01-19T08:57:30Z</time>
      </trkpt>
      <trkpt lat="43.42466" lon="6.65001">
        <ele>93.6</ele>
        <time>2025-01-19T08:57:31Z</time>
      </trkpt>
      <trkpt lat="43.42465" lon="6.65001">
        <ele>93.7</ele>
        <time>2025-01-19T08:57:32Z</time>
      </trkpt>
      <trkpt lat="43.42464" lon="6.65002">
        <ele>93.6</ele>
        <time>2025-01-19T08:57:33Z</time>
      </trkpt>
      <trkpt lat="43.42463" lon="6.65003">
        <ele>93.7</ele>
        <time>2025-01-19T08:57:34Z</time>
      </trkpt>
      <trkpt lat="43.42463" lon="6.65004">
        <ele>93.7</ele>
        <time>2025-01-19T08:57:35Z</time>
      </trkpt>
      <trkpt lat="43.42462" lon="6.65005">
        <ele>93.7</ele>
        <time>2025-01-19T08:57:36Z</time>
      </trkpt>
      <trkpt lat="43.42462" lon="6.65006">
        <ele>93.6</ele>
        <time>2025-01-19T08:57:37Z</time>
      </trkpt>
      <trkpt lat="43.42461" lon="6.65006">
        <ele>93.5</ele>
        <time>2025-01-19T08:57:38Z</time>
      </trkpt>
      <trkpt lat="43.42461" lon="6.65007">
        <ele>93.5</ele>
        <time>2025-01-19T08:57:39Z</time>
      </trkpt>
      <trkpt lat="43.42461" lon="6.65008">
        <ele>93.6</ele>
        <time>2025-01-19T08:57:40Z</time>
      </trkpt>
      <trkpt lat="43.4246" lon="6.65009">
        <ele>93.5</ele>
        <time>2025-01-19T08:57:41Z</time>
      </trkpt>
      <trkpt lat="43.42459" lon="6.65009">
        <ele>93.4</ele>
        <time>2025-01-19T08:57:42Z</time>
      </trkpt>
      <trkpt lat="43.42459" lon="6.6501">
        <ele>93.3</ele>
        <time>2025-01-19T08:57:43Z</time>
      </trkpt>
      <trkpt lat="43.42458" lon="6.6501">
        <ele>93.3</ele>
        <time>2025-01-19T08:57:44Z</time>
      </trkpt>
      <trkpt lat="43.42457" lon="6.6501">
        <ele>93.3</ele>
        <time>2025-01-19T08:57:45Z</time>
      </trkpt>
      <trkpt lat="43.42457" lon="6.65011">
        <ele>93.4</ele>
        <time>2025-01-19T08:57:46Z</time>
      </trkpt>
      <trkpt lat="43.42456" lon="6.65011">
        <ele>93.4</ele>
        <time>2025-01-19T08:57:47Z</time>
      </trkpt>
      <trkpt lat="43.42455" lon="6.65011">
        <ele>93.5</ele>
        <time>2025-01-19T08:57:48Z</time>
      </trkpt>
      <trkpt lat="43.42453" lon="6.65011">
        <ele>93.5</ele>
        <time>2025-01-19T08:57:49Z</time>
      </trkpt>
      <trkpt lat="43.42453" lon="6.6501">
        <ele>93.5</ele>
        <time>2025-01-19T08:57:50Z</time>
      </trkpt>
      <trkpt lat="43.42452" lon="6.6501">
        <ele>93.5</ele>
        <time>2025-01-19T08:57:51Z</time>
      </trkpt>
      <trkpt lat="43.42451" lon="6.6501">
        <ele>93.5</ele>
        <time>2025-01-19T08:57:52Z</time>
      </trkpt>
      <trkpt lat="43.4245" lon="6.6501">
        <ele>93.5</ele>
        <time>2025-01-19T08:57:53Z</time>
      </trkpt>
      <trkpt lat="43.42449" lon="6.6501">
        <ele>93.6</ele>
        <time>2025-01-19T08:57:54Z</time>
      </trkpt>
      <trkpt lat="43.42448" lon="6.6501">
        <ele>93.6</ele>
        <time>2025-01-19T08:57:55Z</time>
      </trkpt>
      <trkpt lat="43.42447" lon="6.6501">
        <ele>93.6</ele>
        <time>2025-01-19T08:57:56Z</time>
      </trkpt>
      <trkpt lat="43.42445" lon="6.6501">
        <ele>93.6</ele>
        <time>2025-01-19T08:57:57Z</time>
      </trkpt>
      <trkpt lat="43.42444" lon="6.65009">
        <ele>93.7</ele>
        <time>2025-01-19T08:57:58Z</time>
      </trkpt>
      <trkpt lat="43.42443" lon="6.65009">
        <ele>93.7</ele>
        <time>2025-01-19T08:57:59Z</time>
      </trkpt>
      <trkpt lat="43.42443" lon="6.65008">
        <ele>93.7</ele>
        <time>2025-01-19T08:58:00Z</time>
      </trkpt>
      <trkpt lat="43.42441" lon="6.65008">
        <ele>93.7</ele>
        <time>2025-01-19T08:58:01Z</time>
      </trkpt>
      <trkpt lat="43.42441" lon="6.65008">
        <ele>93.8</ele>
        <time>2025-01-19T08:58:02Z</time>
      </trkpt>
      <trkpt lat="43.4244" lon="6.65007">
        <ele>93.8</ele>
        <time>2025-01-19T08:58:03Z</time>
      </trkpt>
      <trkpt lat="43.42439" lon="6.65007">
        <ele>93.9</ele>
        <time>2025-01-19T08:58:04Z</time>
      </trkpt>
      <trkpt lat="43.42438" lon="6.65006">
        <ele>93.8</ele>
        <time>2025-01-19T08:58:05Z</time>
      </trkpt>
      <trkpt lat="43.42437" lon="6.65005">
        <ele>93.8</ele>
        <time>2025-01-19T08:58:06Z</time>
      </trkpt>
      <trkpt lat="43.42436" lon="6.65005">
        <ele>93.7</ele>
        <time>2025-01-19T08:58:07Z</time>
      </trkpt>
      <trkpt lat="43.42435" lon="6.65005">
        <ele>93.7</ele>
        <time>2025-01-19T08:58:08Z</time>
      </trkpt>
      <trkpt lat="43.42434" lon="6.65005">
        <ele>93.7</ele>
        <time>2025-01-19T08:58:09Z</time>
      </trkpt>
      <trkpt lat="43.42433" lon="6.65004">
        <ele>93.7</ele>
        <time>2025-01-19T08:58:10Z</time>
      </trkpt>
      <trkpt lat="43.42432" lon="6.65004">
        <ele>93.7</ele>
        <time>2025-01-19T08:58:11Z</time>
      </trkpt>
      <trkpt lat="43.42431" lon="6.65003">
        <ele>93.8</ele>
        <time>2025-01-19T08:58:12Z</time>
      </trkpt>
      <trkpt lat="43.4243" lon="6.65003">
        <ele>93.8</ele>
        <time>2025-01-19T08:58:13Z</time>
      </trkpt>
      <trkpt lat="43.42429" lon="6.65003">
        <ele>93.9</ele>
        <time>2025-01-19T08:58:14Z</time>
      </trkpt>
      <trkpt lat="43.42429" lon="6.65002">
        <ele>94</ele>
        <time>2025-01-19T08:58:15Z</time>
      </trkpt>
      <trkpt lat="43.42428" lon="6.65002">
        <ele>94</ele>
        <time>2025-01-19T08:58:16Z</time>
      </trkpt>
      <trkpt lat="43.42427" lon="6.65001">
        <ele>94.1</ele>
        <time>2025-01-19T08:58:17Z</time>
      </trkpt>
      <trkpt lat="43.42426" lon="6.65">
        <ele>94.2</ele>
        <time>2025-01-19T08:58:18Z</time>
      </trkpt>
      <trkpt lat="43.42425" lon="6.65">
        <ele>94.2</ele>
        <time>2025-01-19T08:58:19Z</time>
      </trkpt>
      <trkpt lat="43.42425" lon="6.65">
        <ele>94.2</ele>
        <time>2025-01-19T08:58:20Z</time>
      </trkpt>
      <trkpt lat="43.42424" lon="6.65">
        <ele>94.2</ele>
        <time>2025-01-19T08:58:21Z</time>
      </trkpt>
      <trkpt lat="43.42425" lon="6.65">
        <ele>94.2</ele>
        <time>2025-01-19T08:58:22Z</time>
      </trkpt>
      <trkpt lat="43.42424" lon="6.65">
        <ele>94.3</ele>
        <time>2025-01-19T08:58:23Z</time>
      </trkpt>
      <trkpt lat="43.42424" lon="6.65001">
        <ele>94.3</ele>
        <time>2025-01-19T08:58:24Z</time>
      </trkpt>
      <trkpt lat="43.42424" lon="6.65001">
        <ele>94.3</ele>
        <time>2025-01-19T08:58:25Z</time>
      </trkpt>
      <trkpt lat="43.42425" lon="6.65002">
        <ele>94.3</ele>
        <time>2025-01-19T08:58:26Z</time>
      </trkpt>
      <trkpt lat="43.42425" lon="6.65002">
        <ele>94.3</ele>
        <time>2025-01-19T08:58:27Z</time>
      </trkpt>
      <trkpt lat="43.42425" lon="6.65002">
        <ele>94.3</ele>
        <time>2025-01-19T08:58:28Z</time>
      </trkpt>
      <trkpt lat="43.42425" lon="6.65002">
        <ele>94.3</ele>
        <time>2025-01-19T08:58:29Z</time>
      </trkpt>
      <trkpt lat="43.42424" lon="6.65002">
        <ele>94.3</ele>
        <time>2025-01-19T08:58:30Z</time>
      </trkpt>
      <trkpt lat="43.42424" lon="6.65002">
        <ele>94.3</ele>
        <time>2025-01-19T08:58:31Z</time>
      </trkpt>
      <trkpt lat="43.42424" lon="6.65002">
        <ele>94.3</ele>
        <time>2025-01-19T08:58:32Z</time>
      </trkpt>
      <trkpt lat="43.42424" lon="6.65001">
        <ele>94.2</ele>
        <time>2025-01-19T08:58:33Z</time>
      </trkpt>
      <trkpt lat="43.42424" lon="6.65001">
        <ele>94.2</ele>
        <time>2025-01-19T08:58:34Z</time>
      </trkpt>
      <trkpt lat="43.42424" lon="6.65001">
        <ele>94.2</ele>
        <time>2025-01-19T08:58:35Z</time>
      </trkpt>
      <trkpt lat="43.42424" lon="6.65001">
        <ele>94.3</ele>
        <time>2025-01-19T08:58:36Z</time>
      </trkpt>
      <trkpt lat="43.42424" lon="6.65001">
        <ele>94.3</ele>
        <time>2025-01-19T08:58:37Z</time>
      </trkpt>
      <trkpt lat="43.42424" lon="6.65001">
        <ele>94.3</ele>
        <time>2025-01-19T08:58:38Z</time>
      </trkpt>
      <trkpt lat="43.42424" lon="6.65001">
        <ele>94.3</ele>
        <time>2025-01-19T08:58:39Z</time>
      </trkpt>
      <trkpt lat="43.42424" lon="6.65001">
        <ele>94.4</ele>
        <time>2025-01-19T08:58:40Z</time>
      </trkpt>
      <trkpt lat="43.42424" lon="6.65001">
        <ele>94.4</ele>
        <time>2025-01-19T08:58:41Z</time>
      </trkpt>
      <trkpt lat="43.42424" lon="6.65001">
        <ele>94.3</ele>
        <time>2025-01-19T08:58:42Z</time>
      </trkpt>
      <trkpt lat="43.42424" lon="6.65001">
        <ele>94.2</ele>
        <time>2025-01-19T08:58:43Z</time>
      </trkpt>
      <trkpt lat="43.42424" lon="6.65001">
        <ele>94.3</ele>
        <time>2025-01-19T08:58:44Z</time>
      </trkpt>
      <trkpt lat="43.42424" lon="6.65001">
        <ele>94.2</ele>
        <time>2025-01-19T08:58:45Z</time>
      </trkpt>
      <trkpt lat="43.42424" lon="6.65001">
        <ele>94.3</ele>
        <time>2025-01-19T08:58:46Z</time>
      </trkpt>
      <trkpt lat="43.42425" lon="6.65001">
        <ele>94.3</ele>
        <time>2025-01-19T08:58:47Z</time>
      </trkpt>
      <trkpt lat="43.42425" lon="6.65001">
        <ele>94.2</ele>
        <time>2025-01-19T08:58:48Z</time>
      </trkpt>
      <trkpt lat="43.42425" lon="6.65001">
        <ele>94.2</ele>
        <time>2025-01-19T08:58:49Z</time>
      </trkpt>
      <trkpt lat="43.42424" lon="6.65001">
        <ele>94.2</ele>
        <time>2025-01-19T08:58:50Z</time>
      </trkpt>
      <trkpt lat="43.42424" lon="6.65001">
        <ele>94.3</ele>
        <time>2025-01-19T08:58:51Z</time>
      </trkpt>
      <trkpt lat="43.42424" lon="6.65001">
        <ele>94.3</ele>
        <time>2025-01-19T08:58:52Z</time>
      </trkpt>
      <trkpt lat="43.42424" lon="6.65001">
        <ele>94.4</ele>
        <time>2025-01-19T08:58:53Z</time>
      </trkpt>
      <trkpt lat="43.42424" lon="6.65001">
        <ele>94.4</ele>
        <time>2025-01-19T08:58:54Z</time>
      </trkpt>
      <trkpt lat="43.42424" lon="6.65001">
        <ele>94.4</ele>
        <time>2025-01-19T08:58:55Z</time>
      </trkpt>
      <trkpt lat="43.42424" lon="6.65002">
        <ele>94.5</ele>
        <time>2025-01-19T08:58:56Z</time>
      </trkpt>
      <trkpt lat="43.42424" lon="6.65002">
        <ele>94.5</ele>
        <time>2025-01-19T08:58:57Z</time>
      </trkpt>
      <trkpt lat="43.42423" lon="6.65002">
        <ele>94.5</ele>
        <time>2025-01-19T08:58:58Z</time>
      </trkpt>
      <trkpt lat="43.42423" lon="6.65002">
        <ele>94.6</ele>
        <time>2025-01-19T08:58:59Z</time>
      </trkpt>
      <trkpt lat="43.42423" lon="6.65003">
        <ele>94.7</ele>
        <time>2025-01-19T08:59:00Z</time>
      </trkpt>
      <trkpt lat="43.42422" lon="6.65003">
        <ele>94.7</ele>
        <time>2025-01-19T08:59:01Z</time>
      </trkpt>
      <trkpt lat="43.42422" lon="6.65003">
        <ele>94.7</ele>
        <time>2025-01-19T08:59:02Z</time>
      </trkpt>
      <trkpt lat="43.42422" lon="6.65003">
        <ele>94.8</ele>
        <time>2025-01-19T08:59:03Z</time>
      </trkpt>
      <trkpt lat="43.42421" lon="6.65004">
        <ele>94.8</ele>
        <time>2025-01-19T08:59:04Z</time>
      </trkpt>
      <trkpt lat="43.42421" lon="6.65004">
        <ele>94.8</ele>
        <time>2025-01-19T08:59:05Z</time>
      </trkpt>
      <trkpt lat="43.42421" lon="6.65004">
        <ele>94.9</ele>
        <time>2025-01-19T08:59:06Z</time>
      </trkpt>
      <trkpt lat="43.42421" lon="6.65004">
        <ele>94.9</ele>
        <time>2025-01-19T08:59:07Z</time>
      </trkpt>
      <trkpt lat="43.42421" lon="6.65004">
        <ele>94.8</ele>
        <time>2025-01-19T08:59:08Z</time>
      </trkpt>
      <trkpt lat="43.42421" lon="6.65005">
        <ele>94.8</ele>
        <time>2025-01-19T08:59:09Z</time>
      </trkpt>
      <trkpt lat="43.42421" lon="6.65005">
        <ele>94.8</ele>
        <time>2025-01-19T08:59:10Z</time>
      </trkpt>
      <trkpt lat="43.42421" lon="6.65005">
        <ele>94.7</ele>
        <time>2025-01-19T08:59:11Z</time>
      </trkpt>
      <trkpt lat="43.42421" lon="6.65005">
        <ele>94.7</ele>
        <time>2025-01-19T08:59:12Z</time>
      </trkpt>
      <trkpt lat="43.42421" lon="6.65005">
        <ele>94.6</ele>
        <time>2025-01-19T08:59:13Z</time>
      </trkpt>
      <trkpt lat="43.42421" lon="6.65005">
        <ele>94.6</ele>
        <time>2025-01-19T08:59:14Z</time>
      </trkpt>
      <trkpt lat="43.42421" lon="6.65005">
        <ele>94.5</ele>
        <time>2025-01-19T08:59:15Z</time>
      </trkpt>
      <trkpt lat="43.42421" lon="6.65005">
        <ele>94.5</ele>
        <time>2025-01-19T08:59:16Z</time>
      </trkpt>
      <trkpt lat="43.42421" lon="6.65005">
        <ele>94.4</ele>
        <time>2025-01-19T08:59:17Z</time>
      </trkpt>
      <trkpt lat="43.42421" lon="6.65005">
        <ele>94.4</ele>
        <time>2025-01-19T08:59:18Z</time>
      </trkpt>
      <trkpt lat="43.42421" lon="6.65005">
        <ele>94.3</ele>
        <time>2025-01-19T08:59:19Z</time>
      </trkpt>
      <trkpt lat="43.42421" lon="6.65005">
        <ele>94.2</ele>
        <time>2025-01-19T08:59:20Z</time>
      </trkpt>
      <trkpt lat="43.42421" lon="6.65005">
        <ele>94.2</ele>
        <time>2025-01-19T08:59:21Z</time>
      </trkpt>
      <trkpt lat="43.42421" lon="6.65005">
        <ele>94.2</ele>
        <time>2025-01-19T08:59:22Z</time>
      </trkpt>
      <trkpt lat="43.42421" lon="6.65005">
        <ele>94.2</ele>
        <time>2025-01-19T08:59:23Z</time>
      </trkpt>
      <trkpt lat="43.42421" lon="6.65005">
        <ele>94.2</ele>
        <time>2025-01-19T08:59:24Z</time>
      </trkpt>
      <trkpt lat="43.42421" lon="6.65005">
        <ele>94.1</ele>
        <time>2025-01-19T08:59:25Z</time>
      </trkpt>
      <trkpt lat="43.42421" lon="6.65005">
        <ele>94.1</ele>
        <time>2025-01-19T08:59:26Z</time>
      </trkpt>
      <trkpt lat="43.42421" lon="6.65005">
        <ele>94</ele>
        <time>2025-01-19T08:59:27Z</time>
      </trkpt>
      <trkpt lat="43.42421" lon="6.65005">
        <ele>94</ele>
        <time>2025-01-19T08:59:28Z</time>
      </trkpt>
      <trkpt lat="43.42421" lon="6.65005">
        <ele>93.9</ele>
        <time>2025-01-19T08:59:29Z</time>
      </trkpt>
      <trkpt lat="43.42421" lon="6.65005">
        <ele>93.9</ele>
        <time>2025-01-19T08:59:30Z</time>
      </trkpt>
      <trkpt lat="43.42421" lon="6.65005">
        <ele>93.9</ele>
        <time>2025-01-19T08:59:31Z</time>
      </trkpt>
      <trkpt lat="43.42421" lon="6.65005">
        <ele>94</ele>
        <time>2025-01-19T08:59:32Z</time>
      </trkpt>
      <trkpt lat="43.42421" lon="6.65005">
        <ele>94</ele>
        <time>2025-01-19T08:59:33Z</time>
      </trkpt>
      <trkpt lat="43.42421" lon="6.65005">
        <ele>94.1</ele>
        <time>2025-01-19T08:59:34Z</time>
      </trkpt>
      <trkpt lat="43.42421" lon="6.65005">
        <ele>94</ele>
        <time>2025-01-19T08:59:35Z</time>
      </trkpt>
      <trkpt lat="43.42421" lon="6.65005">
        <ele>94</ele>
        <time>2025-01-19T08:59:36Z</time>
      </trkpt>
      <trkpt lat="43.42421" lon="6.65005">
        <ele>93.9</ele>
        <time>2025-01-19T08:59:37Z</time>
      </trkpt>
      <trkpt lat="43.42421" lon="6.65005">
        <ele>93.9</ele>
        <time>2025-01-19T08:59:38Z</time>
      </trkpt>
      <trkpt lat="43.42421" lon="6.65005">
        <ele>93.9</ele>
        <time>2025-01-19T08:59:39Z</time>
      </trkpt>
      <trkpt lat="43.42421" lon="6.65006">
        <ele>93.9</ele>
        <time>2025-01-19T08:59:40Z</time>
      </trkpt>
      <trkpt lat="43.42421" lon="6.65006">
        <ele>93.9</ele>
        <time>2025-01-19T08:59:41Z</time>
      </trkpt>
      <trkpt lat="43.42421" lon="6.65005">
        <ele>94</ele>
        <time>2025-01-19T08:59:42Z</time>
      </trkpt>
      <trkpt lat="43.42421" lon="6.65006">
        <ele>94</ele>
        <time>2025-01-19T08:59:43Z</time>
      </trkpt>
      <trkpt lat="43.42421" lon="6.65006">
        <ele>94</ele>
        <time>2025-01-19T08:59:44Z</time>
      </trkpt>
      <trkpt lat="43.42421" lon="6.65006">
        <ele>94.1</ele>
        <time>2025-01-19T08:59:45Z</time>
      </trkpt>
      <trkpt lat="43.42421" lon="6.65006">
        <ele>94.2</ele>
        <time>2025-01-19T08:59:46Z</time>
      </trkpt>
      <trkpt lat="43.42421" lon="6.65006">
        <ele>94.3</ele>
        <time>2025-01-19T08:59:47Z</time>
      </trkpt>
      <trkpt lat="43.42421" lon="6.65006">
        <ele>94.4</ele>
        <time>2025-01-19T08:59:48Z</time>
      </trkpt>
      <trkpt lat="43.42421" lon="6.65006">
        <ele>94.5</ele>
        <time>2025-01-19T08:59:49Z</time>
      </trkpt>
      <trkpt lat="43.42421" lon="6.65006">
        <ele>94.6</ele>
        <time>2025-01-19T08:59:50Z</time>
      </trkpt>
      <trkpt lat="43.42421" lon="6.65006">
        <ele>94.5</ele>
        <time>2025-01-19T08:59:51Z</time>
      </trkpt>
      <trkpt lat="43.42421" lon="6.65006">
        <ele>94.4</ele>
        <time>2025-01-19T08:59:52Z</time>
      </trkpt>
      <trkpt lat="43.42421" lon="6.65006">
        <ele>94.5</ele>
        <time>2025-01-19T08:59:53Z</time>
      </trkpt>
      <trkpt lat="43.42421" lon="6.65006">
        <ele>94.5</ele>
        <time>2025-01-19T08:59:54Z</time>
      </trkpt>
      <trkpt lat="43.42421" lon="6.65006">
        <ele>94.5</ele>
        <time>2025-01-19T08:59:55Z</time>
      </trkpt>
      <trkpt lat="43.4242" lon="6.65006">
        <ele>94.6</ele>
        <time>2025-01-19T08:59:56Z</time>
      </trkpt>
      <trkpt lat="43.4242" lon="6.65006">
        <ele>94.6</ele>
        <time>2025-01-19T08:59:57Z</time>
      </trkpt>
      <trkpt lat="43.4242" lon="6.65007">
        <ele>94.6</ele>
        <time>2025-01-19T08:59:58Z</time>
      </trkpt>
      <trkpt lat="43.4242" lon="6.65007">
        <ele>94.5</ele>
        <time>2025-01-19T08:59:59Z</time>
      </trkpt>
      <trkpt lat="43.4242" lon="6.65007">
        <ele>94.5</ele>
        <time>2025-01-19T09:00:00Z</time>
      </trkpt>
      <trkpt lat="43.4242" lon="6.65007">
        <ele>94.5</ele>
        <time>2025-01-19T09:00:01Z</time>
      </trkpt>
      <trkpt lat="43.4242" lon="6.65007">
        <ele>94.5</ele>
        <time>2025-01-19T09:00:02Z</time>
      </trkpt>
      <trkpt lat="43.4242" lon="6.65007">
        <ele>94.4</ele>
        <time>2025-01-19T09:00:03Z</time>
      </trkpt>
      <trkpt lat="43.4242" lon="6.65007">
        <ele>94.4</ele>
        <time>2025-01-19T09:00:04Z</time>
      </trkpt>
      <trkpt lat="43.4242" lon="6.65007">
        <ele>94.4</ele>
        <time>2025-01-19T09:00:05Z</time>
      </trkpt>
      <trkpt lat="43.4242" lon="6.65007">
        <ele>94.2</ele>
        <time>2025-01-19T09:00:06Z</time>
      </trkpt>
      <trkpt lat="43.4242" lon="6.65008">
        <ele>94.3</ele>
        <time>2025-01-19T09:00:07Z</time>
      </trkpt>
      <trkpt lat="43.4242" lon="6.65007">
        <ele>94.3</ele>
        <time>2025-01-19T09:00:08Z</time>
      </trkpt>
      <trkpt lat="43.4242" lon="6.65007">
        <ele>94.3</ele>
        <time>2025-01-19T09:00:09Z</time>
      </trkpt>
      <trkpt lat="43.4242" lon="6.65007">
        <ele>94.3</ele>
        <time>2025-01-19T09:00:10Z</time>
      </trkpt>
      <trkpt lat="43.4242" lon="6.65008">
        <ele>94.3</ele>
        <time>2025-01-19T09:00:11Z</time>
      </trkpt>
      <trkpt lat="43.42419" lon="6.65008">
        <ele>94.3</ele>
        <time>2025-01-19T09:00:12Z</time>
      </trkpt>
      <trkpt lat="43.4242" lon="6.65008">
        <ele>94.3</ele>
        <time>2025-01-19T09:00:13Z</time>
      </trkpt>
      <trkpt lat="43.42419" lon="6.65008">
        <ele>94.3</ele>
        <time>2025-01-19T09:00:14Z</time>
      </trkpt>
      <trkpt lat="43.42419" lon="6.65008">
        <ele>94.3</ele>
        <time>2025-01-19T09:00:15Z</time>
      </trkpt>
      <trkpt lat="43.42419" lon="6.65008">
        <ele>94.3</ele>
        <time>2025-01-19T09:00:16Z</time>
      </trkpt>
      <trkpt lat="43.42419" lon="6.65008">
        <ele>94.2</ele>
        <time>2025-01-19T09:00:17Z</time>
      </trkpt>
      <trkpt lat="43.42419" lon="6.65008">
        <ele>94.2</ele>
        <time>2025-01-19T09:00:18Z</time>
      </trkpt>
      <trkpt lat="43.42419" lon="6.65008">
        <ele>94.3</ele>
        <time>2025-01-19T09:00:19Z</time>
      </trkpt>
      <trkpt lat="43.42419" lon="6.65008">
        <ele>94.3</ele>
        <time>2025-01-19T09:00:20Z</time>
      </trkpt>
      <trkpt lat="43.42419" lon="6.65008">
        <ele>94.4</ele>
        <time>2025-01-19T09:00:21Z</time>
      </trkpt>
      <trkpt lat="43.4242" lon="6.65008">
        <ele>94.4</ele>
        <time>2025-01-19T09:00:22Z</time>
      </trkpt>
      <trkpt lat="43.4242" lon="6.65007">
        <ele>94.4</ele>
        <time>2025-01-19T09:00:23Z</time>
      </trkpt>
      <trkpt lat="43.4242" lon="6.65007">
        <ele>94.3</ele>
        <time>2025-01-19T09:00:24Z</time>
      </trkpt>
      <trkpt lat="43.4242" lon="6.65007">
        <ele>94.3</ele>
        <time>2025-01-19T09:00:25Z</time>
      </trkpt>
      <trkpt lat="43.4242" lon="6.65007">
        <ele>94.3</ele>
        <time>2025-01-19T09:00:26Z</time>
      </trkpt>
      <trkpt lat="43.4242" lon="6.65007">
        <ele>94.3</ele>
        <time>2025-01-19T09:00:27Z</time>
      </trkpt>
      <trkpt lat="43.42421" lon="6.65007">
        <ele>94.3</ele>
        <time>2025-01-19T09:00:28Z</time>
      </trkpt>
      <trkpt lat="43.42421" lon="6.65007">
        <ele>94.3</ele>
        <time>2025-01-19T09:00:29Z</time>
      </trkpt>
      <trkpt lat="43.42421" lon="6.65007">
        <ele>94.3</ele>
        <time>2025-01-19T09:00:30Z</time>
      </trkpt>
      <trkpt lat="43.42421" lon="6.65007">
        <ele>94.3</ele>
        <time>2025-01-19T09:00:31Z</time>
      </trkpt>
      <trkpt lat="43.4242" lon="6.65007">
        <ele>94.3</ele>
        <time>2025-01-19T09:00:32Z</time>
      </trkpt>
      <trkpt lat="43.4242" lon="6.65007">
        <ele>94.4</ele>
        <time>2025-01-19T09:00:33Z</time>
      </trkpt>
      <trkpt lat="43.42421" lon="6.65007">
        <ele>94.4</ele>
        <time>2025-01-19T09:00:34Z</time>
      </trkpt>
      <trkpt lat="43.42421" lon="6.65007">
        <ele>94.4</ele>
        <time>2025-01-19T09:00:35Z</time>
      </trkpt>
      <trkpt lat="43.4242" lon="6.65007">
        <ele>94.4</ele>
        <time>2025-01-19T09:00:36Z</time>
      </trkpt>
      <trkpt lat="43.4242" lon="6.65007">
        <ele>94.5</ele>
        <time>2025-01-19T09:00:37Z</time>
      </trkpt>
      <trkpt lat="43.42421" lon="6.65007">
        <ele>94.6</ele>
        <time>2025-01-19T09:00:38Z</time>
      </trkpt>
      <trkpt lat="43.42421" lon="6.65007">
        <ele>94.6</ele>
        <time>2025-01-19T09:00:39Z</time>
      </trkpt>
      <trkpt lat="43.42421" lon="6.65007">
        <ele>94.6</ele>
        <time>2025-01-19T09:00:40Z</time>
      </trkpt>
      <trkpt lat="43.42422" lon="6.65006">
        <ele>94.6</ele>
        <time>2025-01-19T09:00:41Z</time>
      </trkpt>
      <trkpt lat="43.42422" lon="6.65006">
        <ele>94.6</ele>
        <time>2025-01-19T09:00:42Z</time>
      </trkpt>
      <trkpt lat="43.42423" lon="6.65006">
        <ele>94.6</ele>
        <time>2025-01-19T09:00:43Z</time>
      </trkpt>
      <trkpt lat="43.42423" lon="6.65006">
        <ele>94.6</ele>
        <time>2025-01-19T09:00:44Z</time>
      </trkpt>
      <trkpt lat="43.42423" lon="6.65006">
        <ele>94.6</ele>
        <time>2025-01-19T09:00:45Z</time>
      </trkpt>
      <trkpt lat="43.42423" lon="6.65006">
        <ele>94.6</ele>
        <time>2025-01-19T09:00:46Z</time>
      </trkpt>
      <trkpt lat="43.42424" lon="6.65006">
        <ele>94.6</ele>
        <time>2025-01-19T09:00:47Z</time>
      </trkpt>
      <trkpt lat="43.42424" lon="6.65006">
        <ele>94.5</ele>
        <time>2025-01-19T09:00:48Z</time>
      </trkpt>
      <trkpt lat="43.42424" lon="6.65006">
        <ele>94.5</ele>
        <time>2025-01-19T09:00:49Z</time>
      </trkpt>
      <trkpt lat="43.42424" lon="6.65006">
        <ele>94.5</ele>
        <time>2025-01-19T09:00:50Z</time>
      </trkpt>
      <trkpt lat="43.42424" lon="6.65006">
        <ele>94.6</ele>
        <time>2025-01-19T09:00:51Z</time>
      </trkpt>
      <trkpt lat="43.42424" lon="6.65006">
        <ele>94.7</ele>
        <time>2025-01-19T09:00:52Z</time>
      </trkpt>
      <trkpt lat="43.42424" lon="6.65006">
        <ele>94.6</ele>
        <time>2025-01-19T09:00:53Z</time>
      </trkpt>
      <trkpt lat="43.42424" lon="6.65007">
        <ele>94.5</ele>
        <time>2025-01-19T09:00:54Z</time>
      </trkpt>
      <trkpt lat="43.42424" lon="6.65007">
        <ele>94.5</ele>
        <time>2025-01-19T09:00:55Z</time>
      </trkpt>
      <trkpt lat="43.42424" lon="6.65006">
        <ele>94.5</ele>
        <time>2025-01-19T09:00:56Z</time>
      </trkpt>
      <trkpt lat="43.42424" lon="6.65006">
        <ele>94.5</ele>
        <time>2025-01-19T09:00:57Z</time>
      </trkpt>
      <trkpt lat="43.42424" lon="6.65006">
        <ele>94.5</ele>
        <time>2025-01-19T09:00:58Z</time>
      </trkpt>
      <trkpt lat="43.42423" lon="6.65006">
        <ele>94.4</ele>
        <time>2025-01-19T09:00:59Z</time>
      </trkpt>
      <trkpt lat="43.42423" lon="6.65006">
        <ele>94.4</ele>
        <time>2025-01-19T09:01:00Z</time>
      </trkpt>
      <trkpt lat="43.42423" lon="6.65007">
        <ele>94.4</ele>
        <time>2025-01-19T09:01:01Z</time>
      </trkpt>
      <trkpt lat="43.42422" lon="6.65007">
        <ele>94.4</ele>
        <time>2025-01-19T09:01:02Z</time>
      </trkpt>
      <trkpt lat="43.42422" lon="6.65007">
        <ele>94.4</ele>
        <time>2025-01-19T09:01:03Z</time>
      </trkpt>
      <trkpt lat="43.42422" lon="6.65007">
        <ele>94.5</ele>
        <time>2025-01-19T09:01:04Z</time>
      </trkpt>
      <trkpt lat="43.42422" lon="6.65007">
        <ele>94.6</ele>
        <time>2025-01-19T09:01:05Z</time>
      </trkpt>
      <trkpt lat="43.42422" lon="6.65007">
        <ele>94.6</ele>
        <time>2025-01-19T09:01:06Z</time>
      </trkpt>
      <trkpt lat="43.42422" lon="6.65006">
        <ele>94.7</ele>
        <time>2025-01-19T09:01:07Z</time>
      </trkpt>
      <trkpt lat="43.42422" lon="6.65007">
        <ele>94.7</ele>
        <time>2025-01-19T09:01:08Z</time>
      </trkpt>
      <trkpt lat="43.42421" lon="6.65007">
        <ele>94.6</ele>
        <time>2025-01-19T09:01:09Z</time>
      </trkpt>
      <trkpt lat="43.42421" lon="6.65007">
        <ele>94.6</ele>
        <time>2025-01-19T09:01:10Z</time>
      </trkpt>
      <trkpt lat="43.42421" lon="6.65007">
        <ele>94.5</ele>
        <time>2025-01-19T09:01:11Z</time>
      </trkpt>
      <trkpt lat="43.42421" lon="6.65007">
        <ele>94.5</ele>
        <time>2025-01-19T09:01:12Z</time>
      </trkpt>
      <trkpt lat="43.42421" lon="6.65007">
        <ele>94.5</ele>
        <time>2025-01-19T09:01:13Z</time>
      </trkpt>
      <trkpt lat="43.42421" lon="6.65007">
        <ele>94.5</ele>
        <time>2025-01-19T09:01:14Z</time>
      </trkpt>
      <trkpt lat="43.42421" lon="6.65007">
        <ele>94.6</ele>
        <time>2025-01-19T09:01:15Z</time>
      </trkpt>
      <trkpt lat="43.42421" lon="6.65007">
        <ele>94.6</ele>
        <time>2025-01-19T09:01:16Z</time>
      </trkpt>
      <trkpt lat="43.42421" lon="6.65007">
        <ele>94.7</ele>
        <time>2025-01-19T09:01:17Z</time>
      </trkpt>
      <trkpt lat="43.42421" lon="6.65007">
        <ele>94.6</ele>
        <time>2025-01-19T09:01:18Z</time>
      </trkpt>
      <trkpt lat="43.42421" lon="6.65007">
        <ele>94.6</ele>
        <time>2025-01-19T09:01:19Z</time>
      </trkpt>
      <trkpt lat="43.42421" lon="6.65007">
        <ele>94.6</ele>
        <time>2025-01-19T09:01:20Z</time>
      </trkpt>
      <trkpt lat="43.42421" lon="6.65007">
        <ele>94.6</ele>
        <time>2025-01-19T09:01:21Z</time>
      </trkpt>
      <trkpt lat="43.42421" lon="6.65007">
        <ele>94.7</ele>
        <time>2025-01-19T09:01:22Z</time>
      </trkpt>
      <trkpt lat="43.42421" lon="6.65006">
        <ele>94.7</ele>
        <time>2025-01-19T09:01:23Z</time>
      </trkpt>
      <trkpt lat="43.42421" lon="6.65006">
        <ele>94.8</ele>
        <time>2025-01-19T09:01:24Z</time>
      </trkpt>
      <trkpt lat="43.42422" lon="6.65006">
        <ele>94.8</ele>
        <time>2025-01-19T09:01:25Z</time>
      </trkpt>
      <trkpt lat="43.42422" lon="6.65006">
        <ele>94.8</ele>
        <time>2025-01-19T09:01:26Z</time>
      </trkpt>
      <trkpt lat="43.42422" lon="6.65006">
        <ele>94.7</ele>
        <time>2025-01-19T09:01:27Z</time>
      </trkpt>
      <trkpt lat="43.42422" lon="6.65007">
        <ele>94.7</ele>
        <time>2025-01-19T09:01:28Z</time>
      </trkpt>
      <trkpt lat="43.42422" lon="6.65007">
        <ele>94.7</ele>
        <time>2025-01-19T09:01:29Z</time>
      </trkpt>
      <trkpt lat="43.42422" lon="6.65007">
        <ele>94.6</ele>
        <time>2025-01-19T09:01:30Z</time>
      </trkpt>
      <trkpt lat="43.42421" lon="6.65007">
        <ele>94.7</ele>
        <time>2025-01-19T09:01:31Z</time>
      </trkpt>
      <trkpt lat="43.42421" lon="6.65007">
        <ele>94.8</ele>
        <time>2025-01-19T09:01:32Z</time>
      </trkpt>
      <trkpt lat="43.42421" lon="6.65007">
        <ele>94.8</ele>
        <time>2025-01-19T09:01:33Z</time>
      </trkpt>
      <trkpt lat="43.42421" lon="6.65007">
        <ele>94.7</ele>
        <time>2025-01-19T09:01:34Z</time>
      </trkpt>
      <trkpt lat="43.42421" lon="6.65007">
        <ele>94.7</ele>
        <time>2025-01-19T09:01:35Z</time>
      </trkpt>
      <trkpt lat="43.42421" lon="6.65007">
        <ele>94.6</ele>
        <time>2025-01-19T09:01:36Z</time>
      </trkpt>
      <trkpt lat="43.42421" lon="6.65007">
        <ele>94.6</ele>
        <time>2025-01-19T09:01:37Z</time>
      </trkpt>
      <trkpt lat="43.42421" lon="6.65007">
        <ele>94.7</ele>
        <time>2025-01-19T09:01:38Z</time>
      </trkpt>
      <trkpt lat="43.42421" lon="6.65007">
        <ele>94.7</ele>
        <time>2025-01-19T09:01:39Z</time>
      </trkpt>
      <trkpt lat="43.42421" lon="6.65007">
        <ele>94.7</ele>
        <time>2025-01-19T09:01:40Z</time>
      </trkpt>
      <trkpt lat="43.42421" lon="6.65007">
        <ele>94.7</ele>
        <time>2025-01-19T09:01:41Z</time>
      </trkpt>
      <trkpt lat="43.42421" lon="6.65007">
        <ele>94.7</ele>
        <time>2025-01-19T09:01:42Z</time>
      </trkpt>
      <trkpt lat="43.42421" lon="6.65007">
        <ele>94.6</ele>
        <time>2025-01-19T09:01:43Z</time>
      </trkpt>
      <trkpt lat="43.42421" lon="6.65007">
        <ele>94.7</ele>
        <time>2025-01-19T09:01:44Z</time>
      </trkpt>
      <trkpt lat="43.4242" lon="6.65008">
        <ele>94.6</ele>
        <time>2025-01-19T09:01:45Z</time>
      </trkpt>
      <trkpt lat="43.4242" lon="6.65008">
        <ele>94.6</ele>
        <time>2025-01-19T09:01:46Z</time>
      </trkpt>
      <trkpt lat="43.4242" lon="6.65008">
        <ele>94.5</ele>
        <time>2025-01-19T09:01:47Z</time>
      </trkpt>
      <trkpt lat="43.4242" lon="6.65008">
        <ele>94.5</ele>
        <time>2025-01-19T09:01:48Z</time>
      </trkpt>
      <trkpt lat="43.4242" lon="6.65008">
        <ele>94.5</ele>
        <time>2025-01-19T09:01:49Z</time>
      </trkpt>
      <trkpt lat="43.4242" lon="6.65008">
        <ele>94.4</ele>
        <time>2025-01-19T09:01:50Z</time>
      </trkpt>
      <trkpt lat="43.4242" lon="6.65008">
        <ele>94.3</ele>
        <time>2025-01-19T09:01:51Z</time>
      </trkpt>
      <trkpt lat="43.4242" lon="6.65008">
        <ele>94.3</ele>
        <time>2025-01-19T09:01:52Z</time>
      </trkpt>
      <trkpt lat="43.4242" lon="6.65009">
        <ele>94.3</ele>
        <time>2025-01-19T09:01:53Z</time>
      </trkpt>
      <trkpt lat="43.4242" lon="6.65009">
        <ele>94.3</ele>
        <time>2025-01-19T09:01:54Z</time>
      </trkpt>
      <trkpt lat="43.4242" lon="6.65009">
        <ele>94.3</ele>
        <time>2025-01-19T09:01:55Z</time>
      </trkpt>
      <trkpt lat="43.4242" lon="6.65009">
        <ele>94.3</ele>
        <time>2025-01-19T09:01:56Z</time>
      </trkpt>
      <trkpt lat="43.4242" lon="6.65009">
        <ele>94.3</ele>
        <time>2025-01-19T09:01:57Z</time>
      </trkpt>
      <trkpt lat="43.4242" lon="6.65009">
        <ele>94.4</ele>
        <time>2025-01-19T09:01:58Z</time>
      </trkpt>
      <trkpt lat="43.4242" lon="6.65009">
        <ele>94.3</ele>
        <time>2025-01-19T09:01:59Z</time>
      </trkpt>
      <trkpt lat="43.4242" lon="6.65009">
        <ele>94.2</ele>
        <time>2025-01-19T09:02:00Z</time>
      </trkpt>
      <trkpt lat="43.4242" lon="6.65009">
        <ele>94.1</ele>
        <time>2025-01-19T09:02:01Z</time>
      </trkpt>
      <trkpt lat="43.4242" lon="6.65009">
        <ele>94.1</ele>
        <time>2025-01-19T09:02:02Z</time>
      </trkpt>
      <trkpt lat="43.4242" lon="6.65009">
        <ele>94.1</ele>
        <time>2025-01-19T09:02:03Z</time>
      </trkpt>
      <trkpt lat="43.4242" lon="6.65008">
        <ele>94.1</ele>
        <time>2025-01-19T09:02:04Z</time>
      </trkpt>
      <trkpt lat="43.4242" lon="6.65009">
        <ele>94.1</ele>
        <time>2025-01-19T09:02:05Z</time>
      </trkpt>
      <trkpt lat="43.4242" lon="6.65009">
        <ele>94.1</ele>
        <time>2025-01-19T09:02:06Z</time>
      </trkpt>
      <trkpt lat="43.4242" lon="6.65009">
        <ele>94.2</ele>
        <time>2025-01-19T09:02:07Z</time>
      </trkpt>
      <trkpt lat="43.4242" lon="6.65009">
        <ele>94.3</ele>
        <time>2025-01-19T09:02:08Z</time>
      </trkpt>
      <trkpt lat="43.4242" lon="6.65009">
        <ele>94.3</ele>
        <time>2025-01-19T09:02:09Z</time>
      </trkpt>
      <trkpt lat="43.4242" lon="6.65009">
        <ele>94.4</ele>
        <time>2025-01-19T09:02:10Z</time>
      </trkpt>
      <trkpt lat="43.42421" lon="6.65009">
        <ele>94.4</ele>
        <time>2025-01-19T09:02:11Z</time>
      </trkpt>
      <trkpt lat="43.42421" lon="6.65009">
        <ele>94.4</ele>
        <time>2025-01-19T09:02:12Z</time>
      </trkpt>
      <trkpt lat="43.42421" lon="6.65009">
        <ele>94.5</ele>
        <time>2025-01-19T09:02:13Z</time>
      </trkpt>
      <trkpt lat="43.42421" lon="6.65009">
        <ele>94.5</ele>
        <time>2025-01-19T09:02:14Z</time>
      </trkpt>
      <trkpt lat="43.42421" lon="6.65008">
        <ele>94.5</ele>
        <time>2025-01-19T09:02:15Z</time>
      </trkpt>
      <trkpt lat="43.42421" lon="6.65008">
        <ele>94.5</ele>
        <time>2025-01-19T09:02:16Z</time>
      </trkpt>
      <trkpt lat="43.42421" lon="6.65008">
        <ele>94.5</ele>
        <time>2025-01-19T09:02:17Z</time>
      </trkpt>
      <trkpt lat="43.42421" lon="6.65008">
        <ele>94.5</ele>
        <time>2025-01-19T09:02:18Z</time>
      </trkpt>
      <trkpt lat="43.42421" lon="6.65008">
        <ele>94.6</ele>
        <time>2025-01-19T09:02:19Z</time>
      </trkpt>
      <trkpt lat="43.42421" lon="6.65008">
        <ele>94.5</ele>
        <time>2025-01-19T09:02:20Z</time>
      </trkpt>
      <trkpt lat="43.42421" lon="6.65008">
        <ele>94.5</ele>
        <time>2025-01-19T09:02:21Z</time>
      </trkpt>
      <trkpt lat="43.42421" lon="6.65008">
        <ele>94.6</ele>
        <time>2025-01-19T09:02:22Z</time>
      </trkpt>
      <trkpt lat="43.42421" lon="6.65008">
        <ele>94.6</ele>
        <time>2025-01-19T09:02:23Z</time>
      </trkpt>
      <trkpt lat="43.42421" lon="6.65008">
        <ele>94.7</ele>
        <time>2025-01-19T09:02:24Z</time>
      </trkpt>
      <trkpt lat="43.42421" lon="6.65008">
        <ele>94.6</ele>
        <time>2025-01-19T09:02:25Z</time>
      </trkpt>
      <trkpt lat="43.4242" lon="6.65008">
        <ele>94.6</ele>
        <time>2025-01-19T09:02:26Z</time>
      </trkpt>
      <trkpt lat="43.4242" lon="6.65008">
        <ele>94.6</ele>
        <time>2025-01-19T09:02:27Z</time>
      </trkpt>
      <trkpt lat="43.4242" lon="6.65008">
        <ele>94.5</ele>
        <time>2025-01-19T09:02:28Z</time>
      </trkpt>
      <trkpt lat="43.4242" lon="6.65009">
        <ele>94.6</ele>
        <time>2025-01-19T09:02:29Z</time>
      </trkpt>
      <trkpt lat="43.4242" lon="6.65009">
        <ele>94.6</ele>
        <time>2025-01-19T09:02:30Z</time>
      </trkpt>
      <trkpt lat="43.4242" lon="6.65008">
        <ele>94.6</ele>
        <time>2025-01-19T09:02:31Z</time>
      </trkpt>
      <trkpt lat="43.4242" lon="6.65008">
        <ele>94.6</ele>
        <time>2025-01-19T09:02:32Z</time>
      </trkpt>
      <trkpt lat="43.4242" lon="6.65008">
        <ele>94.6</ele>
        <time>2025-01-19T09:02:33Z</time>
      </trkpt>
      <trkpt lat="43.4242" lon="6.65008">
        <ele>94.6</ele>
        <time>2025-01-19T09:02:34Z</time>
      </trkpt>
      <trkpt lat="43.4242" lon="6.65008">
        <ele>94.6</ele>
        <time>2025-01-19T09:02:35Z</time>
      </trkpt>
      <trkpt lat="43.4242" lon="6.65008">
        <ele>94.6</ele>
        <time>2025-01-19T09:02:36Z</time>
      </trkpt>
      <trkpt lat="43.4242" lon="6.65008">
        <ele>94.6</ele>
        <time>2025-01-19T09:02:37Z</time>
      </trkpt>
      <trkpt lat="43.4242" lon="6.65008">
        <ele>94.6</ele>
        <time>2025-01-19T09:02:38Z</time>
      </trkpt>
      <trkpt lat="43.4242" lon="6.65008">
        <ele>94.6</ele>
        <time>2025-01-19T09:02:39Z</time>
      </trkpt>
      <trkpt lat="43.4242" lon="6.65008">
        <ele>94.6</ele>
        <time>2025-01-19T09:02:40Z</time>
      </trkpt>
      <trkpt lat="43.4242" lon="6.65008">
        <ele>94.6</ele>
        <time>2025-01-19T09:02:41Z</time>
      </trkpt>
      <trkpt lat="43.4242" lon="6.65009">
        <ele>94.6</ele>
        <time>2025-01-19T09:02:42Z</time>
      </trkpt>
      <trkpt lat="43.4242" lon="6.65009">
        <ele>94.6</ele>
        <time>2025-01-19T09:02:43Z</time>
      </trkpt>
      <trkpt lat="43.4242" lon="6.65009">
        <ele>94.6</ele>
        <time>2025-01-19T09:02:44Z</time>
      </trkpt>
      <trkpt lat="43.4242" lon="6.65009">
        <ele>94.6</ele>
        <time>2025-01-19T09:02:45Z</time>
      </trkpt>
      <trkpt lat="43.4242" lon="6.65009">
        <ele>94.6</ele>
        <time>2025-01-19T09:02:46Z</time>
      </trkpt>
      <trkpt lat="43.4242" lon="6.65009">
        <ele>94.6</ele>
        <time>2025-01-19T09:02:47Z</time>
      </trkpt>
      <trkpt lat="43.4242" lon="6.65009">
        <ele>94.4</ele>
        <time>2025-01-19T09:02:48Z</time>
      </trkpt>
      <trkpt lat="43.4242" lon="6.65009">
        <ele>94.4</ele>
        <time>2025-01-19T09:02:49Z</time>
      </trkpt>
      <trkpt lat="43.4242" lon="6.65009">
        <ele>94.5</ele>
        <time>2025-01-19T09:02:50Z</time>
      </trkpt>
      <trkpt lat="43.4242" lon="6.65009">
        <ele>94.6</ele>
        <time>2025-01-19T09:02:51Z</time>
      </trkpt>
      <trkpt lat="43.4242" lon="6.65009">
        <ele>94.6</ele>
        <time>2025-01-19T09:02:52Z</time>
      </trkpt>
      <trkpt lat="43.4242" lon="6.65009">
        <ele>94.6</ele>
        <time>2025-01-19T09:02:53Z</time>
      </trkpt>
      <trkpt lat="43.4242" lon="6.65009">
        <ele>94.7</ele>
        <time>2025-01-19T09:02:54Z</time>
      </trkpt>
      <trkpt lat="43.4242" lon="6.65009">
        <ele>94.8</ele>
        <time>2025-01-19T09:02:55Z</time>
      </trkpt>
      <trkpt lat="43.4242" lon="6.65009">
        <ele>94.7</ele>
        <time>2025-01-19T09:02:56Z</time>
      </trkpt>
      <trkpt lat="43.4242" lon="6.65009">
        <ele>94.6</ele>
        <time>2025-01-19T09:02:57Z</time>
      </trkpt>
      <trkpt lat="43.4242" lon="6.65009">
        <ele>94.7</ele>
        <time>2025-01-19T09:02:58Z</time>
      </trkpt>
      <trkpt lat="43.4242" lon="6.65009">
        <ele>94.7</ele>
        <time>2025-01-19T09:02:59Z</time>
      </trkpt>
      <trkpt lat="43.4242" lon="6.65009">
        <ele>94.7</ele>
        <time>2025-01-19T09:03:00Z</time>
      </trkpt>
      <trkpt lat="43.4242" lon="6.65009">
        <ele>94.7</ele>
        <time>2025-01-19T09:03:01Z</time>
      </trkpt>
      <trkpt lat="43.4242" lon="6.65009">
        <ele>94.7</ele>
        <time>2025-01-19T09:03:02Z</time>
      </trkpt>
      <trkpt lat="43.4242" lon="6.65009">
        <ele>94.7</ele>
        <time>2025-01-19T09:03:03Z</time>
      </trkpt>
      <trkpt lat="43.4242" lon="6.65009">
        <ele>94.7</ele>
        <time>2025-01-19T09:03:04Z</time>
      </trkpt>
      <trkpt lat="43.4242" lon="6.65009">
        <ele>94.7</ele>
        <time>2025-01-19T09:03:05Z</time>
      </trkpt>
      <trkpt lat="43.4242" lon="6.65009">
        <ele>94.7</ele>
        <time>2025-01-19T09:03:06Z</time>
      </trkpt>
      <trkpt lat="43.4242" lon="6.65009">
        <ele>94.7</ele>
        <time>2025-01-19T09:03:07Z</time>
      </trkpt>
      <trkpt lat="43.4242" lon="6.65009">
        <ele>94.6</ele>
        <time>2025-01-19T09:03:08Z</time>
      </trkpt>
      <trkpt lat="43.4242" lon="6.65009">
        <ele>94.6</ele>
        <time>2025-01-19T09:03:09Z</time>
      </trkpt>
      <trkpt lat="43.4242" lon="6.65009">
        <ele>94.6</ele>
        <time>2025-01-19T09:03:10Z</time>
      </trkpt>
      <trkpt lat="43.4242" lon="6.65009">
        <ele>94.6</ele>
        <time>2025-01-19T09:03:11Z</time>
      </trkpt>
      <trkpt lat="43.42419" lon="6.6501">
        <ele>94.6</ele>
        <time>2025-01-19T09:03:12Z</time>
      </trkpt>
      <trkpt lat="43.42419" lon="6.6501">
        <ele>94.6</ele>
        <time>2025-01-19T09:03:13Z</time>
      </trkpt>
      <trkpt lat="43.42419" lon="6.6501">
        <ele>94.6</ele>
        <time>2025-01-19T09:03:14Z</time>
      </trkpt>
      <trkpt lat="43.42419" lon="6.6501">
        <ele>94.6</ele>
        <time>2025-01-19T09:03:15Z</time>
      </trkpt>
      <trkpt lat="43.42419" lon="6.6501">
        <ele>94.6</ele>
        <time>2025-01-19T09:03:16Z</time>
      </trkpt>
      <trkpt lat="43.42419" lon="6.6501">
        <ele>94.6</ele>
        <time>2025-01-19T09:03:17Z</time>
      </trkpt>
      <trkpt lat="43.42419" lon="6.6501">
        <ele>94.6</ele>
        <time>2025-01-19T09:03:18Z</time>
      </trkpt>
      <trkpt lat="43.42419" lon="6.6501">
        <ele>94.6</ele>
        <time>2025-01-19T09:03:19Z</time>
      </trkpt>
      <trkpt lat="43.4242" lon="6.65009">
        <ele>94.6</ele>
        <time>2025-01-19T09:03:20Z</time>
      </trkpt>
      <trkpt lat="43.4242" lon="6.65009">
        <ele>94.7</ele>
        <time>2025-01-19T09:03:21Z</time>
      </trkpt>
      <trkpt lat="43.4242" lon="6.65008">
        <ele>94.7</ele>
        <time>2025-01-19T09:03:22Z</time>
      </trkpt>
      <trkpt lat="43.4242" lon="6.65008">
        <ele>94.7</ele>
        <time>2025-01-19T09:03:23Z</time>
      </trkpt>
      <trkpt lat="43.4242" lon="6.65009">
        <ele>94.7</ele>
        <time>2025-01-19T09:03:24Z</time>
      </trkpt>
      <trkpt lat="43.42419" lon="6.65008">
        <ele>94.6</ele>
        <time>2025-01-19T09:03:25Z</time>
      </trkpt>
      <trkpt lat="43.42419" lon="6.65007">
        <ele>94.6</ele>
        <time>2025-01-19T09:03:26Z</time>
      </trkpt>
      <trkpt lat="43.42418" lon="6.65006">
        <ele>94.7</ele>
        <time>2025-01-19T09:03:27Z</time>
      </trkpt>
      <trkpt lat="43.42418" lon="6.65005">
        <ele>94.7</ele>
        <time>2025-01-19T09:03:28Z</time>
      </trkpt>
      <trkpt lat="43.42417" lon="6.65004">
        <ele>94.7</ele>
        <time>2025-01-19T09:03:29Z</time>
      </trkpt>
      <trkpt lat="43.42417" lon="6.65003">
        <ele>94.7</ele>
        <time>2025-01-19T09:03:30Z</time>
      </trkpt>
      <trkpt lat="43.42416" lon="6.65001">
        <ele>94.7</ele>
        <time>2025-01-19T09:03:31Z</time>
      </trkpt>
      <trkpt lat="43.42415" lon="6.65">
        <ele>94.7</ele>
        <time>2025-01-19T09:03:32Z</time>
      </trkpt>
      <trkpt lat="43.42415" lon="6.65">
        <ele>94.5</ele>
        <time>2025-01-19T09:03:33Z</time>
      </trkpt>
      <trkpt lat="43.42414" lon="6.64999">
        <ele>94.4</ele>
        <time>2025-01-19T09:03:34Z</time>
      </trkpt>
      <trkpt lat="43.42413" lon="6.64998">
        <ele>94.3</ele>
        <time>2025-01-19T09:03:35Z</time>
      </trkpt>
      <trkpt lat="43.42412" lon="6.64997">
        <ele>94.2</ele>
        <time>2025-01-19T09:03:36Z</time>
      </trkpt>
      <trkpt lat="43.42412" lon="6.64996">
        <ele>94.2</ele>
        <time>2025-01-19T09:03:37Z</time>
      </trkpt>
      <trkpt lat="43.42412" lon="6.64995">
        <ele>94.2</ele>
        <time>2025-01-19T09:03:38Z</time>
      </trkpt>
      <trkpt lat="43.42412" lon="6.64995">
        <ele>94.2</ele>
        <time>2025-01-19T09:03:39Z</time>
      </trkpt>
      <trkpt lat="43.42411" lon="6.64994">
        <ele>94.1</ele>
        <time>2025-01-19T09:03:40Z</time>
      </trkpt>
      <trkpt lat="43.42411" lon="6.64993">
        <ele>94.1</ele>
        <time>2025-01-19T09:03:41Z</time>
      </trkpt>
      <trkpt lat="43.4241" lon="6.64992">
        <ele>94</ele>
        <time>2025-01-19T09:03:42Z</time>
      </trkpt>
      <trkpt lat="43.42409" lon="6.64991">
        <ele>94</ele>
        <time>2025-01-19T09:03:43Z</time>
      </trkpt>
      <trkpt lat="43.42408" lon="6.6499">
        <ele>94</ele>
        <time>2025-01-19T09:03:44Z</time>
      </trkpt>
      <trkpt lat="43.42407" lon="6.64989">
        <ele>94</ele>
        <time>2025-01-19T09:03:45Z</time>
      </trkpt>
      <trkpt lat="43.42407" lon="6.64988">
        <ele>94</ele>
        <time>2025-01-19T09:03:46Z</time>
      </trkpt>
      <trkpt lat="43.42406" lon="6.64987">
        <ele>94.1</ele>
        <time>2025-01-19T09:03:47Z</time>
      </trkpt>
      <trkpt lat="43.42406" lon="6.64986">
        <ele>94.1</ele>
        <time>2025-01-19T09:03:48Z</time>
      </trkpt>
      <trkpt lat="43.42405" lon="6.64985">
        <ele>94.2</ele>
        <time>2025-01-19T09:03:49Z</time>
      </trkpt>
      <trkpt lat="43.42404" lon="6.64984">
        <ele>94.3</ele>
        <time>2025-01-19T09:03:50Z</time>
      </trkpt>
      <trkpt lat="43.42403" lon="6.64983">
        <ele>94.3</ele>
        <time>2025-01-19T09:03:51Z</time>
      </trkpt>
      <trkpt lat="43.42403" lon="6.64982">
        <ele>94.4</ele>
        <time>2025-01-19T09:03:52Z</time>
      </trkpt>
      <trkpt lat="43.42402" lon="6.64981">
        <ele>94.5</ele>
        <time>2025-01-19T09:03:53Z</time>
      </trkpt>
      <trkpt lat="43.42401" lon="6.6498">
        <ele>94.6</ele>
        <time>2025-01-19T09:03:54Z</time>
      </trkpt>
      <trkpt lat="43.42401" lon="6.64979">
        <ele>94.7</ele>
        <time>2025-01-19T09:03:55Z</time>
      </trkpt>
      <trkpt lat="43.424" lon="6.64978">
        <ele>94.8</ele>
        <time>2025-01-19T09:03:56Z</time>
      </trkpt>
      <trkpt lat="43.424" lon="6.64977">
        <ele>94.8</ele>
        <time>2025-01-19T09:03:57Z</time>
      </trkpt>
      <trkpt lat="43.42399" lon="6.64976">
        <ele>94.7</ele>
        <time>2025-01-19T09:03:58Z</time>
      </trkpt>
      <trkpt lat="43.42399" lon="6.64975">
        <ele>94.7</ele>
        <time>2025-01-19T09:03:59Z</time>
      </trkpt>
      <trkpt lat="43.42398" lon="6.64974">
        <ele>94.8</ele>
        <time>2025-01-19T09:04:00Z</time>
      </trkpt>
      <trkpt lat="43.42397" lon="6.64973">
        <ele>94.9</ele>
        <time>2025-01-19T09:04:01Z</time>
      </trkpt>
      <trkpt lat="43.42397" lon="6.64972">
        <ele>95</ele>
        <time>2025-01-19T09:04:02Z</time>
      </trkpt>
      <trkpt lat="43.42396" lon="6.64971">
        <ele>95</ele>
        <time>2025-01-19T09:04:03Z</time>
      </trkpt>
      <trkpt lat="43.42396" lon="6.64969">
        <ele>95.1</ele>
        <time>2025-01-19T09:04:04Z</time>
      </trkpt>
      <trkpt lat="43.42395" lon="6.64969">
        <ele>95.2</ele>
        <time>2025-01-19T09:04:05Z</time>
      </trkpt>
      <trkpt lat="43.42395" lon="6.64967">
        <ele>95.3</ele>
        <time>2025-01-19T09:04:06Z</time>
      </trkpt>
      <trkpt lat="43.42395" lon="6.64966">
        <ele>95.4</ele>
        <time>2025-01-19T09:04:07Z</time>
      </trkpt>
      <trkpt lat="43.42394" lon="6.64965">
        <ele>95.5</ele>
        <time>2025-01-19T09:04:08Z</time>
      </trkpt>
      <trkpt lat="43.42394" lon="6.64964">
        <ele>95.5</ele>
        <time>2025-01-19T09:04:09Z</time>
      </trkpt>
      <trkpt lat="43.42393" lon="6.64963">
        <ele>95.5</ele>
        <time>2025-01-19T09:04:10Z</time>
      </trkpt>
      <trkpt lat="43.42393" lon="6.64962">
        <ele>95.6</ele>
        <time>2025-01-19T09:04:11Z</time>
      </trkpt>
      <trkpt lat="43.42393" lon="6.6496">
        <ele>95.6</ele>
        <time>2025-01-19T09:04:12Z</time>
      </trkpt>
      <trkpt lat="43.42392" lon="6.64959">
        <ele>95.7</ele>
        <time>2025-01-19T09:04:13Z</time>
      </trkpt>
      <trkpt lat="43.42392" lon="6.64958">
        <ele>95.7</ele>
        <time>2025-01-19T09:04:14Z</time>
      </trkpt>
      <trkpt lat="43.42391" lon="6.64956">
        <ele>95.7</ele>
        <time>2025-01-19T09:04:15Z</time>
      </trkpt>
      <trkpt lat="43.42391" lon="6.64956">
        <ele>95.8</ele>
        <time>2025-01-19T09:04:16Z</time>
      </trkpt>
      <trkpt lat="43.42391" lon="6.64955">
        <ele>95.9</ele>
        <time>2025-01-19T09:04:17Z</time>
      </trkpt>
      <trkpt lat="43.42391" lon="6.64954">
        <ele>95.9</ele>
        <time>2025-01-19T09:04:18Z</time>
      </trkpt>
      <trkpt lat="43.4239" lon="6.64953">
        <ele>96</ele>
        <time>2025-01-19T09:04:19Z</time>
      </trkpt>
      <trkpt lat="43.4239" lon="6.64952">
        <ele>96</ele>
        <time>2025-01-19T09:04:20Z</time>
      </trkpt>
      <trkpt lat="43.4239" lon="6.64951">
        <ele>96</ele>
        <time>2025-01-19T09:04:21Z</time>
      </trkpt>
      <trkpt lat="43.42389" lon="6.64949">
        <ele>96.1</ele>
        <time>2025-01-19T09:04:22Z</time>
      </trkpt>
      <trkpt lat="43.42389" lon="6.64948">
        <ele>96.2</ele>
        <time>2025-01-19T09:04:23Z</time>
      </trkpt>
      <trkpt lat="43.42388" lon="6.64947">
        <ele>96.2</ele>
        <time>2025-01-19T09:04:24Z</time>
      </trkpt>
      <trkpt lat="43.42388" lon="6.64946">
        <ele>96.3</ele>
        <time>2025-01-19T09:04:25Z</time>
      </trkpt>
      <trkpt lat="43.42387" lon="6.64944">
        <ele>96.4</ele>
        <time>2025-01-19T09:04:26Z</time>
      </trkpt>
      <trkpt lat="43.42387" lon="6.64943">
        <ele>96.4</ele>
        <time>2025-01-19T09:04:27Z</time>
      </trkpt>
      <trkpt lat="43.42386" lon="6.64942">
        <ele>96.5</ele>
        <time>2025-01-19T09:04:28Z</time>
      </trkpt>
      <trkpt lat="43.42386" lon="6.64941">
        <ele>96.5</ele>
        <time>2025-01-19T09:04:29Z</time>
      </trkpt>
      <trkpt lat="43.42385" lon="6.64939">
        <ele>96.5</ele>
        <time>2025-01-19T09:04:30Z</time>
      </trkpt>
      <trkpt lat="43.42385" lon="6.64938">
        <ele>96.6</ele>
        <time>2025-01-19T09:04:31Z</time>
      </trkpt>
      <trkpt lat="43.42384" lon="6.64937">
        <ele>96.7</ele>
        <time>2025-01-19T09:04:32Z</time>
      </trkpt>
      <trkpt lat="43.42384" lon="6.64936">
        <ele>96.7</ele>
        <time>2025-01-19T09:04:33Z</time>
      </trkpt>
      <trkpt lat="43.42383" lon="6.64934">
        <ele>96.8</ele>
        <time>2025-01-19T09:04:34Z</time>
      </trkpt>
      <trkpt lat="43.42382" lon="6.64933">
        <ele>96.7</ele>
        <time>2025-01-19T09:04:35Z</time>
      </trkpt>
      <trkpt lat="43.42381" lon="6.64932">
        <ele>96.7</ele>
        <time>2025-01-19T09:04:36Z</time>
      </trkpt>
      <trkpt lat="43.42381" lon="6.64932">
        <ele>96.7</ele>
        <time>2025-01-19T09:04:37Z</time>
      </trkpt>
      <trkpt lat="43.4238" lon="6.64931">
        <ele>96.7</ele>
        <time>2025-01-19T09:04:38Z</time>
      </trkpt>
      <trkpt lat="43.42379" lon="6.6493">
        <ele>96.7</ele>
        <time>2025-01-19T09:04:39Z</time>
      </trkpt>
      <trkpt lat="43.42378" lon="6.6493">
        <ele>96.7</ele>
        <time>2025-01-19T09:04:40Z</time>
      </trkpt>
      <trkpt lat="43.42377" lon="6.64931">
        <ele>96.7</ele>
        <time>2025-01-19T09:04:41Z</time>
      </trkpt>
      <trkpt lat="43.42376" lon="6.64931">
        <ele>96.6</ele>
        <time>2025-01-19T09:04:42Z</time>
      </trkpt>
      <trkpt lat="43.42376" lon="6.64932">
        <ele>96.6</ele>
        <time>2025-01-19T09:04:43Z</time>
      </trkpt>
      <trkpt lat="43.42375" lon="6.64932">
        <ele>96.7</ele>
        <time>2025-01-19T09:04:44Z</time>
      </trkpt>
      <trkpt lat="43.42375" lon="6.64933">
        <ele>96.7</ele>
        <time>2025-01-19T09:04:45Z</time>
      </trkpt>
      <trkpt lat="43.42374" lon="6.64934">
        <ele>96.7</ele>
        <time>2025-01-19T09:04:46Z</time>
      </trkpt>
      <trkpt lat="43.42373" lon="6.64935">
        <ele>96.8</ele>
        <time>2025-01-19T09:04:47Z</time>
      </trkpt>
      <trkpt lat="43.42373" lon="6.64936">
        <ele>96.8</ele>
        <time>2025-01-19T09:04:48Z</time>
      </trkpt>
      <trkpt lat="43.42373" lon="6.64937">
        <ele>96.9</ele>
        <time>2025-01-19T09:04:49Z</time>
      </trkpt>
      <trkpt lat="43.42372" lon="6.64938">
        <ele>96.9</ele>
        <time>2025-01-19T09:04:50Z</time>
      </trkpt>
      <trkpt lat="43.42372" lon="6.6494">
        <ele>97.1</ele>
        <time>2025-01-19T09:04:51Z</time>
      </trkpt>
      <trkpt lat="43.42372" lon="6.64941">
        <ele>97.1</ele>
        <time>2025-01-19T09:04:52Z</time>
      </trkpt>
      <trkpt lat="43.42371" lon="6.64943">
        <ele>97.1</ele>
        <time>2025-01-19T09:04:53Z</time>
      </trkpt>
      <trkpt lat="43.42371" lon="6.64944">
        <ele>97.2</ele>
        <time>2025-01-19T09:04:54Z</time>
      </trkpt>
      <trkpt lat="43.42371" lon="6.64946">
        <ele>97.1</ele>
        <time>2025-01-19T09:04:55Z</time>
      </trkpt>
      <trkpt lat="43.4237" lon="6.64947">
        <ele>97.1</ele>
        <time>2025-01-19T09:04:56Z</time>
      </trkpt>
      <trkpt lat="43.4237" lon="6.64949">
        <ele>97.1</ele>
        <time>2025-01-19T09:04:57Z</time>
      </trkpt>
      <trkpt lat="43.42369" lon="6.64951">
        <ele>97.2</ele>
        <time>2025-01-19T09:04:58Z</time>
      </trkpt>
      <trkpt lat="43.42369" lon="6.64952">
        <ele>97.3</ele>
        <time>2025-01-19T09:04:59Z</time>
      </trkpt>
      <trkpt lat="43.42369" lon="6.64954">
        <ele>97.3</ele>
        <time>2025-01-19T09:05:00Z</time>
      </trkpt>
      <trkpt lat="43.42368" lon="6.64954">
        <ele>97.4</ele>
        <time>2025-01-19T09:05:01Z</time>
      </trkpt>
      <trkpt lat="43.42367" lon="6.64956">
        <ele>97.3</ele>
        <time>2025-01-19T09:05:02Z</time>
      </trkpt>
      <trkpt lat="43.42367" lon="6.64957">
        <ele>97.3</ele>
        <time>2025-01-19T09:05:03Z</time>
      </trkpt>
      <trkpt lat="43.42367" lon="6.64959">
        <ele>97.3</ele>
        <time>2025-01-19T09:05:04Z</time>
      </trkpt>
      <trkpt lat="43.42366" lon="6.6496">
        <ele>97.3</ele>
        <time>2025-01-19T09:05:05Z</time>
      </trkpt>
      <trkpt lat="43.42366" lon="6.64962">
        <ele>97.4</ele>
        <time>2025-01-19T09:05:06Z</time>
      </trkpt>
      <trkpt lat="43.42365" lon="6.64963">
        <ele>97.4</ele>
        <time>2025-01-19T09:05:07Z</time>
      </trkpt>
      <trkpt lat="43.42365" lon="6.64965">
        <ele>97.5</ele>
        <time>2025-01-19T09:05:08Z</time>
      </trkpt>
      <trkpt lat="43.42364" lon="6.64965">
        <ele>97.5</ele>
        <time>2025-01-19T09:05:09Z</time>
      </trkpt>
      <trkpt lat="43.42363" lon="6.64966">
        <ele>97.5</ele>
        <time>2025-01-19T09:05:10Z</time>
      </trkpt>
      <trkpt lat="43.42363" lon="6.64968">
        <ele>97.5</ele>
        <time>2025-01-19T09:05:11Z</time>
      </trkpt>
      <trkpt lat="43.42362" lon="6.64969">
        <ele>97.5</ele>
        <time>2025-01-19T09:05:12Z</time>
      </trkpt>
      <trkpt lat="43.42362" lon="6.6497">
        <ele>97.5</ele>
        <time>2025-01-19T09:05:13Z</time>
      </trkpt>
      <trkpt lat="43.42361" lon="6.64971">
        <ele>97.6</ele>
        <time>2025-01-19T09:05:14Z</time>
      </trkpt>
      <trkpt lat="43.4236" lon="6.64972">
        <ele>97.6</ele>
        <time>2025-01-19T09:05:15Z</time>
      </trkpt>
      <trkpt lat="43.42359" lon="6.64972">
        <ele>97.7</ele>
        <time>2025-01-19T09:05:16Z</time>
      </trkpt>
      <trkpt lat="43.42358" lon="6.64972">
        <ele>97.8</ele>
        <time>2025-01-19T09:05:17Z</time>
      </trkpt>
      <trkpt lat="43.42357" lon="6.64973">
        <ele>97.9</ele>
        <time>2025-01-19T09:05:18Z</time>
      </trkpt>
      <trkpt lat="43.42356" lon="6.64973">
        <ele>98</ele>
        <time>2025-01-19T09:05:19Z</time>
      </trkpt>
      <trkpt lat="43.42355" lon="6.64974">
        <ele>98.1</ele>
        <time>2025-01-19T09:05:20Z</time>
      </trkpt>
      <trkpt lat="43.42354" lon="6.64974">
        <ele>98.3</ele>
        <time>2025-01-19T09:05:21Z</time>
      </trkpt>
      <trkpt lat="43.42353" lon="6.64975">
        <ele>98.5</ele>
        <time>2025-01-19T09:05:22Z</time>
      </trkpt>
      <trkpt lat="43.42353" lon="6.64975">
        <ele>98.6</ele>
        <time>2025-01-19T09:05:23Z</time>
      </trkpt>
      <trkpt lat="43.42352" lon="6.64975">
        <ele>98.6</ele>
        <time>2025-01-19T09:05:24Z</time>
      </trkpt>
      <trkpt lat="43.4235" lon="6.64976">
        <ele>98.8</ele>
        <time>2025-01-19T09:05:25Z</time>
      </trkpt>
      <trkpt lat="43.42349" lon="6.64976">
        <ele>98.8</ele>
        <time>2025-01-19T09:05:26Z</time>
      </trkpt>
      <trkpt lat="43.42348" lon="6.64976">
        <ele>98.9</ele>
        <time>2025-01-19T09:05:27Z</time>
      </trkpt>
      <trkpt lat="43.42347" lon="6.64976">
        <ele>99.1</ele>
        <time>2025-01-19T09:05:28Z</time>
      </trkpt>
      <trkpt lat="43.42346" lon="6.64975">
        <ele>99.2</ele>
        <time>2025-01-19T09:05:29Z</time>
      </trkpt>
      <trkpt lat="43.42345" lon="6.64975">
        <ele>99.4</ele>
        <time>2025-01-19T09:05:30Z</time>
      </trkpt>
      <trkpt lat="43.42344" lon="6.64976">
        <ele>99.6</ele>
        <time>2025-01-19T09:05:31Z</time>
      </trkpt>
      <trkpt lat="43.42343" lon="6.64975">
        <ele>99.8</ele>
        <time>2025-01-19T09:05:32Z</time>
      </trkpt>
      <trkpt lat="43.42342" lon="6.64975">
        <ele>99.9</ele>
        <time>2025-01-19T09:05:33Z</time>
      </trkpt>
      <trkpt lat="43.42341" lon="6.64975">
        <ele>100</ele>
        <time>2025-01-19T09:05:34Z</time>
      </trkpt>
      <trkpt lat="43.4234" lon="6.64975">
        <ele>100.2</ele>
        <time>2025-01-19T09:05:35Z</time>
      </trkpt>
      <trkpt lat="43.42339" lon="6.64976">
        <ele>100.4</ele>
        <time>2025-01-19T09:05:36Z</time>
      </trkpt>
      <trkpt lat="43.42339" lon="6.64977">
        <ele>100.5</ele>
        <time>2025-01-19T09:05:37Z</time>
      </trkpt>
      <trkpt lat="43.42338" lon="6.64976">
        <ele>100.7</ele>
        <time>2025-01-19T09:05:38Z</time>
      </trkpt>
      <trkpt lat="43.42337" lon="6.64976">
        <ele>100.9</ele>
        <time>2025-01-19T09:05:39Z</time>
      </trkpt>
      <trkpt lat="43.42336" lon="6.64976">
        <ele>101</ele>
        <time>2025-01-19T09:05:40Z</time>
      </trkpt>
      <trkpt lat="43.42335" lon="6.64976">
        <ele>101.2</ele>
        <time>2025-01-19T09:05:41Z</time>
      </trkpt>
      <trkpt lat="43.42334" lon="6.64975">
        <ele>101.4</ele>
        <time>2025-01-19T09:05:42Z</time>
      </trkpt>
      <trkpt lat="43.42333" lon="6.64975">
        <ele>101.5</ele>
        <time>2025-01-19T09:05:43Z</time>
      </trkpt>
      <trkpt lat="43.42332" lon="6.64975">
        <ele>101.6</ele>
        <time>2025-01-19T09:05:44Z</time>
      </trkpt>
      <trkpt lat="43.42331" lon="6.64974">
        <ele>101.8</ele>
        <time>2025-01-19T09:05:45Z</time>
      </trkpt>
      <trkpt lat="43.42331" lon="6.64974">
        <ele>101.8</ele>
        <time>2025-01-19T09:05:46Z</time>
      </trkpt>
      <trkpt lat="43.42329" lon="6.64973">
        <ele>102</ele>
        <time>2025-01-19T09:05:47Z</time>
      </trkpt>
      <trkpt lat="43.42328" lon="6.64973">
        <ele>102.1</ele>
        <time>2025-01-19T09:05:48Z</time>
      </trkpt>
      <trkpt lat="43.42327" lon="6.64973">
        <ele>102.2</ele>
        <time>2025-01-19T09:05:49Z</time>
      </trkpt>
      <trkpt lat="43.42326" lon="6.64973">
        <ele>102.2</ele>
        <time>2025-01-19T09:05:50Z</time>
      </trkpt>
      <trkpt lat="43.42325" lon="6.64972">
        <ele>102.4</ele>
        <time>2025-01-19T09:05:51Z</time>
      </trkpt>
      <trkpt lat="43.42324" lon="6.64972">
        <ele>102.5</ele>
        <time>2025-01-19T09:05:52Z</time>
      </trkpt>
      <trkpt lat="43.42323" lon="6.64972">
        <ele>102.7</ele>
        <time>2025-01-19T09:05:53Z</time>
      </trkpt>
      <trkpt lat="43.42322" lon="6.64971">
        <ele>102.9</ele>
        <time>2025-01-19T09:05:54Z</time>
      </trkpt>
      <trkpt lat="43.42321" lon="6.64971">
        <ele>103</ele>
        <time>2025-01-19T09:05:55Z</time>
      </trkpt>
      <trkpt lat="43.4232" lon="6.6497">
        <ele>103.1</ele>
        <time>2025-01-19T09:05:56Z</time>
      </trkpt>
      <trkpt lat="43.42319" lon="6.64969">
        <ele>103.2</ele>
        <time>2025-01-19T09:05:57Z</time>
      </trkpt>
      <trkpt lat="43.42318" lon="6.64968">
        <ele>103.3</ele>
        <time>2025-01-19T09:05:58Z</time>
      </trkpt>
      <trkpt lat="43.42317" lon="6.64967">
        <ele>103.4</ele>
        <time>2025-01-19T09:05:59Z</time>
      </trkpt>
      <trkpt lat="43.42316" lon="6.64967">
        <ele>103.5</ele>
        <time>2025-01-19T09:06:00Z</time>
      </trkpt>
      <trkpt lat="43.42315" lon="6.64967">
        <ele>103.5</ele>
        <time>2025-01-19T09:06:01Z</time>
      </trkpt>
      <trkpt lat="43.42314" lon="6.64966">
        <ele>103.5</ele>
        <time>2025-01-19T09:06:02Z</time>
      </trkpt>
      <trkpt lat="43.42313" lon="6.64966">
        <ele>103.5</ele>
        <time>2025-01-19T09:06:03Z</time>
      </trkpt>
      <trkpt lat="43.42312" lon="6.64966">
        <ele>103.5</ele>
        <time>2025-01-19T09:06:04Z</time>
      </trkpt>
      <trkpt lat="43.42311" lon="6.64965">
        <ele>103.6</ele>
        <time>2025-01-19T09:06:05Z</time>
      </trkpt>
      <trkpt lat="43.42311" lon="6.64965">
        <ele>103.6</ele>
        <time>2025-01-19T09:06:06Z</time>
      </trkpt>
      <trkpt lat="43.4231" lon="6.64965">
        <ele>103.7</ele>
        <time>2025-01-19T09:06:07Z</time>
      </trkpt>
      <trkpt lat="43.42308" lon="6.64964">
        <ele>103.7</ele>
        <time>2025-01-19T09:06:08Z</time>
      </trkpt>
      <trkpt lat="43.42307" lon="6.64964">
        <ele>103.8</ele>
        <time>2025-01-19T09:06:09Z</time>
      </trkpt>
      <trkpt lat="43.42306" lon="6.64964">
        <ele>103.9</ele>
        <time>2025-01-19T09:06:10Z</time>
      </trkpt>
      <trkpt lat="43.42305" lon="6.64963">
        <ele>104</ele>
        <time>2025-01-19T09:06:11Z</time>
      </trkpt>
      <trkpt lat="43.42304" lon="6.64963">
        <ele>103.9</ele>
        <time>2025-01-19T09:06:12Z</time>
      </trkpt>
      <trkpt lat="43.42303" lon="6.64962">
        <ele>104</ele>
        <time>2025-01-19T09:06:13Z</time>
      </trkpt>
      <trkpt lat="43.42302" lon="6.64962">
        <ele>103.9</ele>
        <time>2025-01-19T09:06:14Z</time>
      </trkpt>
      <trkpt lat="43.423" lon="6.64962">
        <ele>103.9</ele>
        <time>2025-01-19T09:06:15Z</time>
      </trkpt>
      <trkpt lat="43.42299" lon="6.64961">
        <ele>104</ele>
        <time>2025-01-19T09:06:16Z</time>
      </trkpt>
      <trkpt lat="43.42299" lon="6.64961">
        <ele>104.1</ele>
        <time>2025-01-19T09:06:17Z</time>
      </trkpt>
      <trkpt lat="43.42297" lon="6.6496">
        <ele>104.1</ele>
        <time>2025-01-19T09:06:18Z</time>
      </trkpt>
      <trkpt lat="43.42296" lon="6.64959">
        <ele>104.2</ele>
        <time>2025-01-19T09:06:19Z</time>
      </trkpt>
      <trkpt lat="43.42294" lon="6.64958">
        <ele>104.2</ele>
        <time>2025-01-19T09:06:20Z</time>
      </trkpt>
      <trkpt lat="43.42294" lon="6.64958">
        <ele>104.2</ele>
        <time>2025-01-19T09:06:21Z</time>
      </trkpt>
      <trkpt lat="43.42293" lon="6.64958">
        <ele>104.4</ele>
        <time>2025-01-19T09:06:22Z</time>
      </trkpt>
      <trkpt lat="43.42291" lon="6.64957">
        <ele>104.4</ele>
        <time>2025-01-19T09:06:23Z</time>
      </trkpt>
      <trkpt lat="43.4229" lon="6.64957">
        <ele>104.4</ele>
        <time>2025-01-19T09:06:24Z</time>
      </trkpt>
      <trkpt lat="43.42289" lon="6.64957">
        <ele>104.4</ele>
        <time>2025-01-19T09:06:25Z</time>
      </trkpt>
      <trkpt lat="43.42288" lon="6.64957">
        <ele>104.4</ele>
        <time>2025-01-19T09:06:26Z</time>
      </trkpt>
      <trkpt lat="43.42287" lon="6.64957">
        <ele>104.4</ele>
        <time>2025-01-19T09:06:27Z</time>
      </trkpt>
      <trkpt lat="43.42287" lon="6.64957">
        <ele>104.4</ele>
        <time>2025-01-19T09:06:28Z</time>
      </trkpt>
      <trkpt lat="43.42285" lon="6.64956">
        <ele>104.4</ele>
        <time>2025-01-19T09:06:29Z</time>
      </trkpt>
      <trkpt lat="43.42284" lon="6.64956">
        <ele>104.5</ele>
        <time>2025-01-19T09:06:30Z</time>
      </trkpt>
      <trkpt lat="43.42283" lon="6.64955">
        <ele>104.5</ele>
        <time>2025-01-19T09:06:31Z</time>
      </trkpt>
      <trkpt lat="43.42282" lon="6.64954">
        <ele>104.4</ele>
        <time>2025-01-19T09:06:32Z</time>
      </trkpt>
      <trkpt lat="43.42282" lon="6.64954">
        <ele>104.4</ele>
        <time>2025-01-19T09:06:33Z</time>
      </trkpt>
      <trkpt lat="43.42281" lon="6.64953">
        <ele>104.3</ele>
        <time>2025-01-19T09:06:34Z</time>
      </trkpt>
      <trkpt lat="43.4228" lon="6.64952">
        <ele>104.3</ele>
        <time>2025-01-19T09:06:35Z</time>
      </trkpt>
      <trkpt lat="43.42278" lon="6.64951">
        <ele>104.2</ele>
        <time>2025-01-19T09:06:36Z</time>
      </trkpt>
      <trkpt lat="43.42277" lon="6.64951">
        <ele>104.2</ele>
        <time>2025-01-19T09:06:37Z</time>
      </trkpt>
      <trkpt lat="43.42277" lon="6.6495">
        <ele>104.2</ele>
        <time>2025-01-19T09:06:38Z</time>
      </trkpt>
      <trkpt lat="43.42275" lon="6.64949">
        <ele>104.2</ele>
        <time>2025-01-19T09:06:39Z</time>
      </trkpt>
      <trkpt lat="43.42273" lon="6.64948">
        <ele>104.2</ele>
        <time>2025-01-19T09:06:40Z</time>
      </trkpt>
      <trkpt lat="43.42273" lon="6.64947">
        <ele>104.2</ele>
        <time>2025-01-19T09:06:41Z</time>
      </trkpt>
      <trkpt lat="43.42272" lon="6.64947">
        <ele>104.3</ele>
        <time>2025-01-19T09:06:42Z</time>
      </trkpt>
      <trkpt lat="43.42271" lon="6.64947">
        <ele>104.3</ele>
        <time>2025-01-19T09:06:43Z</time>
      </trkpt>
      <trkpt lat="43.4227" lon="6.64946">
        <ele>104.3</ele>
        <time>2025-01-19T09:06:44Z</time>
      </trkpt>
      <trkpt lat="43.42269" lon="6.64946">
        <ele>104.3</ele>
        <time>2025-01-19T09:06:45Z</time>
      </trkpt>
      <trkpt lat="43.42269" lon="6.64946">
        <ele>104.2</ele>
        <time>2025-01-19T09:06:46Z</time>
      </trkpt>
      <trkpt lat="43.42267" lon="6.64945">
        <ele>104.2</ele>
        <time>2025-01-19T09:06:47Z</time>
      </trkpt>
      <trkpt lat="43.42266" lon="6.64944">
        <ele>104.2</ele>
        <time>2025-01-19T09:06:48Z</time>
      </trkpt>
      <trkpt lat="43.42265" lon="6.64944">
        <ele>104.1</ele>
        <time>2025-01-19T09:06:49Z</time>
      </trkpt>
      <trkpt lat="43.42264" lon="6.64944">
        <ele>104</ele>
        <time>2025-01-19T09:06:50Z</time>
      </trkpt>
      <trkpt lat="43.42262" lon="6.64943">
        <ele>104</ele>
        <time>2025-01-19T09:06:51Z</time>
      </trkpt>
      <trkpt lat="43.42261" lon="6.64943">
        <ele>103.9</ele>
        <time>2025-01-19T09:06:52Z</time>
      </trkpt>
      <trkpt lat="43.4226" lon="6.64943">
        <ele>103.9</ele>
        <time>2025-01-19T09:06:53Z</time>
      </trkpt>
      <trkpt lat="43.42259" lon="6.64942">
        <ele>103.9</ele>
        <time>2025-01-19T09:06:54Z</time>
      </trkpt>
      <trkpt lat="43.42258" lon="6.64942">
        <ele>104</ele>
        <time>2025-01-19T09:06:55Z</time>
      </trkpt>
      <trkpt lat="43.42257" lon="6.64943">
        <ele>104</ele>
        <time>2025-01-19T09:06:56Z</time>
      </trkpt>
      <trkpt lat="43.42256" lon="6.64943">
        <ele>104</ele>
        <time>2025-01-19T09:06:57Z</time>
      </trkpt>
      <trkpt lat="43.42254" lon="6.64943">
        <ele>104.1</ele>
        <time>2025-01-19T09:06:58Z</time>
      </trkpt>
      <trkpt lat="43.42253" lon="6.64943">
        <ele>104.1</ele>
        <time>2025-01-19T09:06:59Z</time>
      </trkpt>
      <trkpt lat="43.42252" lon="6.64943">
        <ele>104.2</ele>
        <time>2025-01-19T09:07:00Z</time>
      </trkpt>
      <trkpt lat="43.42251" lon="6.64943">
        <ele>104.2</ele>
        <time>2025-01-19T09:07:01Z</time>
      </trkpt>
      <trkpt lat="43.4225" lon="6.64943">
        <ele>104.2</ele>
        <time>2025-01-19T09:07:02Z</time>
      </trkpt>
      <trkpt lat="43.4225" lon="6.64944">
        <ele>104.3</ele>
        <time>2025-01-19T09:07:03Z</time>
      </trkpt>
      <trkpt lat="43.42249" lon="6.64944">
        <ele>104.4</ele>
        <time>2025-01-19T09:07:04Z</time>
      </trkpt>
      <trkpt lat="43.42248" lon="6.64945">
        <ele>104.6</ele>
        <time>2025-01-19T09:07:05Z</time>
      </trkpt>
      <trkpt lat="43.42247" lon="6.64945">
        <ele>104.7</ele>
        <time>2025-01-19T09:07:06Z</time>
      </trkpt>
      <trkpt lat="43.42246" lon="6.64946">
        <ele>104.8</ele>
        <time>2025-01-19T09:07:07Z</time>
      </trkpt>
      <trkpt lat="43.42245" lon="6.64946">
        <ele>104.9</ele>
        <time>2025-01-19T09:07:08Z</time>
      </trkpt>
      <trkpt lat="43.42244" lon="6.64947">
        <ele>105</ele>
        <time>2025-01-19T09:07:09Z</time>
      </trkpt>
      <trkpt lat="43.42243" lon="6.64948">
        <ele>105.1</ele>
        <time>2025-01-19T09:07:10Z</time>
      </trkpt>
      <trkpt lat="43.42242" lon="6.64949">
        <ele>105.3</ele>
        <time>2025-01-19T09:07:11Z</time>
      </trkpt>
      <trkpt lat="43.42242" lon="6.6495">
        <ele>105.4</ele>
        <time>2025-01-19T09:07:12Z</time>
      </trkpt>
      <trkpt lat="43.42241" lon="6.64951">
        <ele>105.4</ele>
        <time>2025-01-19T09:07:13Z</time>
      </trkpt>
      <trkpt lat="43.4224" lon="6.64952">
        <ele>105.4</ele>
        <time>2025-01-19T09:07:14Z</time>
      </trkpt>
      <trkpt lat="43.42239" lon="6.64953">
        <ele>105.5</ele>
        <time>2025-01-19T09:07:15Z</time>
      </trkpt>
      <trkpt lat="43.42239" lon="6.64953">
        <ele>105.6</ele>
        <time>2025-01-19T09:07:16Z</time>
      </trkpt>
      <trkpt lat="43.42238" lon="6.64955">
        <ele>105.8</ele>
        <time>2025-01-19T09:07:17Z</time>
      </trkpt>
      <trkpt lat="43.42236" lon="6.64955">
        <ele>105.9</ele>
        <time>2025-01-19T09:07:18Z</time>
      </trkpt>
      <trkpt lat="43.42235" lon="6.64957">
        <ele>106</ele>
        <time>2025-01-19T09:07:19Z</time>
      </trkpt>
      <trkpt lat="43.42234" lon="6.64957">
        <ele>106</ele>
        <time>2025-01-19T09:07:20Z</time>
      </trkpt>
      <trkpt lat="43.42234" lon="6.64958">
        <ele>106.1</ele>
        <time>2025-01-19T09:07:21Z</time>
      </trkpt>
      <trkpt lat="43.42233" lon="6.64959">
        <ele>106.1</ele>
        <time>2025-01-19T09:07:22Z</time>
      </trkpt>
      <trkpt lat="43.42232" lon="6.6496">
        <ele>106.3</ele>
        <time>2025-01-19T09:07:23Z</time>
      </trkpt>
      <trkpt lat="43.42231" lon="6.64961">
        <ele>106.3</ele>
        <time>2025-01-19T09:07:24Z</time>
      </trkpt>
      <trkpt lat="43.4223" lon="6.64962">
        <ele>106.3</ele>
        <time>2025-01-19T09:07:25Z</time>
      </trkpt>
      <trkpt lat="43.42229" lon="6.64963">
        <ele>106.3</ele>
        <time>2025-01-19T09:07:26Z</time>
      </trkpt>
      <trkpt lat="43.42228" lon="6.64964">
        <ele>106.4</ele>
        <time>2025-01-19T09:07:27Z</time>
      </trkpt>
      <trkpt lat="43.42227" lon="6.64965">
        <ele>106.4</ele>
        <time>2025-01-19T09:07:28Z</time>
      </trkpt>
      <trkpt lat="43.42226" lon="6.64966">
        <ele>106.5</ele>
        <time>2025-01-19T09:07:29Z</time>
      </trkpt>
      <trkpt lat="43.42225" lon="6.64966">
        <ele>106.5</ele>
        <time>2025-01-19T09:07:30Z</time>
      </trkpt>
      <trkpt lat="43.42223" lon="6.64967">
        <ele>106.5</ele>
        <time>2025-01-19T09:07:31Z</time>
      </trkpt>
      <trkpt lat="43.42222" lon="6.64968">
        <ele>106.5</ele>
        <time>2025-01-19T09:07:32Z</time>
      </trkpt>
      <trkpt lat="43.42221" lon="6.64968">
        <ele>106.5</ele>
        <time>2025-01-19T09:07:33Z</time>
      </trkpt>
      <trkpt lat="43.4222" lon="6.64969">
        <ele>106.5</ele>
        <time>2025-01-19T09:07:34Z</time>
      </trkpt>
      <trkpt lat="43.42219" lon="6.6497">
        <ele>106.5</ele>
        <time>2025-01-19T09:07:35Z</time>
      </trkpt>
      <trkpt lat="43.42218" lon="6.64971">
        <ele>106.5</ele>
        <time>2025-01-19T09:07:36Z</time>
      </trkpt>
      <trkpt lat="43.42217" lon="6.64972">
        <ele>106.5</ele>
        <time>2025-01-19T09:07:37Z</time>
      </trkpt>
      <trkpt lat="43.42216" lon="6.64972">
        <ele>106.5</ele>
        <time>2025-01-19T09:07:38Z</time>
      </trkpt>
      <trkpt lat="43.42215" lon="6.64973">
        <ele>106.6</ele>
        <time>2025-01-19T09:07:39Z</time>
      </trkpt>
      <trkpt lat="43.42215" lon="6.64974">
        <ele>106.7</ele>
        <time>2025-01-19T09:07:40Z</time>
      </trkpt>
      <trkpt lat="43.42214" lon="6.64975">
        <ele>106.7</ele>
        <time>2025-01-19T09:07:41Z</time>
      </trkpt>
      <trkpt lat="43.42213" lon="6.64976">
        <ele>106.7</ele>
        <time>2025-01-19T09:07:42Z</time>
      </trkpt>
      <trkpt lat="43.42212" lon="6.64977">
        <ele>106.7</ele>
        <time>2025-01-19T09:07:43Z</time>
      </trkpt>
      <trkpt lat="43.42211" lon="6.64978">
        <ele>106.7</ele>
        <time>2025-01-19T09:07:44Z</time>
      </trkpt>
      <trkpt lat="43.42211" lon="6.64979">
        <ele>106.7</ele>
        <time>2025-01-19T09:07:45Z</time>
      </trkpt>
      <trkpt lat="43.4221" lon="6.6498">
        <ele>106.7</ele>
        <time>2025-01-19T09:07:46Z</time>
      </trkpt>
      <trkpt lat="43.42209" lon="6.64981">
        <ele>106.8</ele>
        <time>2025-01-19T09:07:47Z</time>
      </trkpt>
      <trkpt lat="43.42208" lon="6.64983">
        <ele>107</ele>
        <time>2025-01-19T09:07:48Z</time>
      </trkpt>
      <trkpt lat="43.42208" lon="6.64984">
        <ele>107.1</ele>
        <time>2025-01-19T09:07:49Z</time>
      </trkpt>
      <trkpt lat="43.42208" lon="6.64985">
        <ele>107.1</ele>
        <time>2025-01-19T09:07:50Z</time>
      </trkpt>
      <trkpt lat="43.42207" lon="6.64987">
        <ele>107.1</ele>
        <time>2025-01-19T09:07:51Z</time>
      </trkpt>
      <trkpt lat="43.42207" lon="6.64988">
        <ele>107.1</ele>
        <time>2025-01-19T09:07:52Z</time>
      </trkpt>
      <trkpt lat="43.42206" lon="6.64989">
        <ele>107.1</ele>
        <time>2025-01-19T09:07:53Z</time>
      </trkpt>
      <trkpt lat="43.42206" lon="6.6499">
        <ele>107.2</ele>
        <time>2025-01-19T09:07:54Z</time>
      </trkpt>
      <trkpt lat="43.42205" lon="6.64991">
        <ele>107.2</ele>
        <time>2025-01-19T09:07:55Z</time>
      </trkpt>
      <trkpt lat="43.42204" lon="6.64992">
        <ele>107.2</ele>
        <time>2025-01-19T09:07:56Z</time>
      </trkpt>
      <trkpt lat="43.42204" lon="6.64993">
        <ele>107.2</ele>
        <time>2025-01-19T09:07:57Z</time>
      </trkpt>
      <trkpt lat="43.42203" lon="6.64994">
        <ele>107.2</ele>
        <time>2025-01-19T09:07:58Z</time>
      </trkpt>
      <trkpt lat="43.42202" lon="6.64995">
        <ele>107.2</ele>
        <time>2025-01-19T09:07:59Z</time>
      </trkpt>
      <trkpt lat="43.42201" lon="6.64996">
        <ele>107.1</ele>
        <time>2025-01-19T09:08:00Z</time>
      </trkpt>
      <trkpt lat="43.422" lon="6.64997">
        <ele>107</ele>
        <time>2025-01-19T09:08:01Z</time>
      </trkpt>
      <trkpt lat="43.42198" lon="6.64997">
        <ele>107</ele>
        <time>2025-01-19T09:08:02Z</time>
      </trkpt>
      <trkpt lat="43.42197" lon="6.64998">
        <ele>107</ele>
        <time>2025-01-19T09:08:03Z</time>
      </trkpt>
      <trkpt lat="43.42197" lon="6.64998">
        <ele>106.9</ele>
        <time>2025-01-19T09:08:04Z</time>
      </trkpt>
      <trkpt lat="43.42196" lon="6.64998">
        <ele>106.8</ele>
        <time>2025-01-19T09:08:05Z</time>
      </trkpt>
      <trkpt lat="43.42195" lon="6.64998">
        <ele>106.8</ele>
        <time>2025-01-19T09:08:06Z</time>
      </trkpt>
      <trkpt lat="43.42195" lon="6.64999">
        <ele>106.9</ele>
        <time>2025-01-19T09:08:07Z</time>
      </trkpt>
      <trkpt lat="43.42194" lon="6.64999">
        <ele>106.9</ele>
        <time>2025-01-19T09:08:08Z</time>
      </trkpt>
      <trkpt lat="43.42194" lon="6.64999">
        <ele>107</ele>
        <time>2025-01-19T09:08:09Z</time>
      </trkpt>
      <trkpt lat="43.42192" lon="6.64999">
        <ele>107.1</ele>
        <time>2025-01-19T09:08:10Z</time>
      </trkpt>
      <trkpt lat="43.42191" lon="6.64999">
        <ele>107.2</ele>
        <time>2025-01-19T09:08:11Z</time>
      </trkpt>
      <trkpt lat="43.4219" lon="6.65">
        <ele>107.3</ele>
        <time>2025-01-19T09:08:12Z</time>
      </trkpt>
      <trkpt lat="43.42189" lon="6.65">
        <ele>107.2</ele>
        <time>2025-01-19T09:08:13Z</time>
      </trkpt>
      <trkpt lat="43.42188" lon="6.65">
        <ele>107.1</ele>
        <time>2025-01-19T09:08:14Z</time>
      </trkpt>
      <trkpt lat="43.42187" lon="6.64999">
        <ele>107.1</ele>
        <time>2025-01-19T09:08:15Z</time>
      </trkpt>
      <trkpt lat="43.42186" lon="6.64999">
        <ele>107.1</ele>
        <time>2025-01-19T09:08:16Z</time>
      </trkpt>
      <trkpt lat="43.42185" lon="6.64998">
        <ele>107.2</ele>
        <time>2025-01-19T09:08:17Z</time>
      </trkpt>
      <trkpt lat="43.42185" lon="6.64998">
        <ele>107.2</ele>
        <time>2025-01-19T09:08:18Z</time>
      </trkpt>
      <trkpt lat="43.42184" lon="6.64997">
        <ele>107.2</ele>
        <time>2025-01-19T09:08:19Z</time>
      </trkpt>
      <trkpt lat="43.42183" lon="6.64996">
        <ele>107.2</ele>
        <time>2025-01-19T09:08:20Z</time>
      </trkpt>
      <trkpt lat="43.42182" lon="6.64995">
        <ele>107.2</ele>
        <time>2025-01-19T09:08:21Z</time>
      </trkpt>
      <trkpt lat="43.42181" lon="6.64994">
        <ele>107.2</ele>
        <time>2025-01-19T09:08:22Z</time>
      </trkpt>
      <trkpt lat="43.4218" lon="6.64993">
        <ele>107.1</ele>
        <time>2025-01-19T09:08:23Z</time>
      </trkpt>
      <trkpt lat="43.42179" lon="6.64992">
        <ele>107</ele>
        <time>2025-01-19T09:08:24Z</time>
      </trkpt>
      <trkpt lat="43.42178" lon="6.64991">
        <ele>107</ele>
        <time>2025-01-19T09:08:25Z</time>
      </trkpt>
      <trkpt lat="43.42177" lon="6.6499">
        <ele>107</ele>
        <time>2025-01-19T09:08:26Z</time>
      </trkpt>
      <trkpt lat="43.42177" lon="6.64989">
        <ele>107</ele>
        <time>2025-01-19T09:08:27Z</time>
      </trkpt>
      <trkpt lat="43.42176" lon="6.64988">
        <ele>107</ele>
        <time>2025-01-19T09:08:28Z</time>
      </trkpt>
      <trkpt lat="43.42175" lon="6.64987">
        <ele>107</ele>
        <time>2025-01-19T09:08:29Z</time>
      </trkpt>
      <trkpt lat="43.42174" lon="6.64986">
        <ele>106.9</ele>
        <time>2025-01-19T09:08:30Z</time>
      </trkpt>
      <trkpt lat="43.42173" lon="6.64984">
        <ele>106.9</ele>
        <time>2025-01-19T09:08:31Z</time>
      </trkpt>
      <trkpt lat="43.42172" lon="6.64984">
        <ele>106.9</ele>
        <time>2025-01-19T09:08:32Z</time>
      </trkpt>
      <trkpt lat="43.42171" lon="6.64983">
        <ele>106.8</ele>
        <time>2025-01-19T09:08:33Z</time>
      </trkpt>
      <trkpt lat="43.42171" lon="6.64982">
        <ele>106.8</ele>
        <time>2025-01-19T09:08:34Z</time>
      </trkpt>
      <trkpt lat="43.4217" lon="6.64981">
        <ele>106.8</ele>
        <time>2025-01-19T09:08:35Z</time>
      </trkpt>
      <trkpt lat="43.42169" lon="6.6498">
        <ele>106.9</ele>
        <time>2025-01-19T09:08:36Z</time>
      </trkpt>
      <trkpt lat="43.42168" lon="6.6498">
        <ele>106.9</ele>
        <time>2025-01-19T09:08:37Z</time>
      </trkpt>
      <trkpt lat="43.42167" lon="6.64979">
        <ele>106.9</ele>
        <time>2025-01-19T09:08:38Z</time>
      </trkpt>
      <trkpt lat="43.42166" lon="6.64978">
        <ele>106.9</ele>
        <time>2025-01-19T09:08:39Z</time>
      </trkpt>
      <trkpt lat="43.42165" lon="6.64977">
        <ele>106.9</ele>
        <time>2025-01-19T09:08:40Z</time>
      </trkpt>
      <trkpt lat="43.42164" lon="6.64976">
        <ele>106.9</ele>
        <time>2025-01-19T09:08:41Z</time>
      </trkpt>
      <trkpt lat="43.42164" lon="6.64975">
        <ele>107</ele>
        <time>2025-01-19T09:08:42Z</time>
      </trkpt>
      <trkpt lat="43.42163" lon="6.64974">
        <ele>106.9</ele>
        <time>2025-01-19T09:08:43Z</time>
      </trkpt>
      <trkpt lat="43.42162" lon="6.64973">
        <ele>107</ele>
        <time>2025-01-19T09:08:44Z</time>
      </trkpt>
      <trkpt lat="43.42161" lon="6.64973">
        <ele>107</ele>
        <time>2025-01-19T09:08:45Z</time>
      </trkpt>
      <trkpt lat="43.42161" lon="6.64972">
        <ele>107</ele>
        <time>2025-01-19T09:08:46Z</time>
      </trkpt>
      <trkpt lat="43.4216" lon="6.64971">
        <ele>107</ele>
        <time>2025-01-19T09:08:47Z</time>
      </trkpt>
      <trkpt lat="43.42159" lon="6.6497">
        <ele>107</ele>
        <time>2025-01-19T09:08:48Z</time>
      </trkpt>
      <trkpt lat="43.42159" lon="6.64969">
        <ele>107</ele>
        <time>2025-01-19T09:08:49Z</time>
      </trkpt>
      <trkpt lat="43.42158" lon="6.64968">
        <ele>107</ele>
        <time>2025-01-19T09:08:50Z</time>
      </trkpt>
      <trkpt lat="43.42157" lon="6.64967">
        <ele>107</ele>
        <time>2025-01-19T09:08:51Z</time>
      </trkpt>
      <trkpt lat="43.42157" lon="6.64967">
        <ele>107</ele>
        <time>2025-01-19T09:08:52Z</time>
      </trkpt>
      <trkpt lat="43.42156" lon="6.64966">
        <ele>106.9</ele>
        <time>2025-01-19T09:08:53Z</time>
      </trkpt>
      <trkpt lat="43.42156" lon="6.64966">
        <ele>106.8</ele>
        <time>2025-01-19T09:08:54Z</time>
      </trkpt>
      <trkpt lat="43.42156" lon="6.64965">
        <ele>106.8</ele>
        <time>2025-01-19T09:08:55Z</time>
      </trkpt>
      <trkpt lat="43.42155" lon="6.64965">
        <ele>106.8</ele>
        <time>2025-01-19T09:08:56Z</time>
      </trkpt>
      <trkpt lat="43.42155" lon="6.64964">
        <ele>106.8</ele>
        <time>2025-01-19T09:08:57Z</time>
      </trkpt>
      <trkpt lat="43.42155" lon="6.64964">
        <ele>106.8</ele>
        <time>2025-01-19T09:08:58Z</time>
      </trkpt>
      <trkpt lat="43.42154" lon="6.64963">
        <ele>106.7</ele>
        <time>2025-01-19T09:08:59Z</time>
      </trkpt>
      <trkpt lat="43.42154" lon="6.64962">
        <ele>106.7</ele>
        <time>2025-01-19T09:09:00Z</time>
      </trkpt>
      <trkpt lat="43.42153" lon="6.64961">
        <ele>106.6</ele>
        <time>2025-01-19T09:09:01Z</time>
      </trkpt>
      <trkpt lat="43.42153" lon="6.6496">
        <ele>106.6</ele>
        <time>2025-01-19T09:09:02Z</time>
      </trkpt>
      <trkpt lat="43.42152" lon="6.64959">
        <ele>106.6</ele>
        <time>2025-01-19T09:09:03Z</time>
      </trkpt>
      <trkpt lat="43.42152" lon="6.64958">
        <ele>106.6</ele>
        <time>2025-01-19T09:09:04Z</time>
      </trkpt>
      <trkpt lat="43.42151" lon="6.64957">
        <ele>106.6</ele>
        <time>2025-01-19T09:09:05Z</time>
      </trkpt>
      <trkpt lat="43.42151" lon="6.64957">
        <ele>106.7</ele>
        <time>2025-01-19T09:09:06Z</time>
      </trkpt>
      <trkpt lat="43.42151" lon="6.64956">
        <ele>106.8</ele>
        <time>2025-01-19T09:09:07Z</time>
      </trkpt>
      <trkpt lat="43.42151" lon="6.64956">
        <ele>106.9</ele>
        <time>2025-01-19T09:09:08Z</time>
      </trkpt>
      <trkpt lat="43.42151" lon="6.64956">
        <ele>106.9</ele>
        <time>2025-01-19T09:09:09Z</time>
      </trkpt>
      <trkpt lat="43.42151" lon="6.64955">
        <ele>107</ele>
        <time>2025-01-19T09:09:10Z</time>
      </trkpt>
      <trkpt lat="43.42151" lon="6.64955">
        <ele>107.1</ele>
        <time>2025-01-19T09:09:11Z</time>
      </trkpt>
      <trkpt lat="43.42151" lon="6.64955">
        <ele>107.1</ele>
        <time>2025-01-19T09:09:12Z</time>
      </trkpt>
      <trkpt lat="43.42151" lon="6.64955">
        <ele>107.2</ele>
        <time>2025-01-19T09:09:13Z</time>
      </trkpt>
      <trkpt lat="43.42151" lon="6.64955">
        <ele>107.2</ele>
        <time>2025-01-19T09:09:14Z</time>
      </trkpt>
      <trkpt lat="43.4215" lon="6.64955">
        <ele>107.2</ele>
        <time>2025-01-19T09:09:15Z</time>
      </trkpt>
      <trkpt lat="43.42151" lon="6.64955">
        <ele>107.2</ele>
        <time>2025-01-19T09:09:16Z</time>
      </trkpt>
      <trkpt lat="43.4215" lon="6.64954">
        <ele>107.2</ele>
        <time>2025-01-19T09:09:17Z</time>
      </trkpt>
      <trkpt lat="43.4215" lon="6.64954">
        <ele>107.2</ele>
        <time>2025-01-19T09:09:18Z</time>
      </trkpt>
      <trkpt lat="43.42151" lon="6.64954">
        <ele>107.1</ele>
        <time>2025-01-19T09:09:19Z</time>
      </trkpt>
      <trkpt lat="43.42151" lon="6.64954">
        <ele>107.1</ele>
        <time>2025-01-19T09:09:20Z</time>
      </trkpt>
      <trkpt lat="43.42151" lon="6.64954">
        <ele>107</ele>
        <time>2025-01-19T09:09:21Z</time>
      </trkpt>
      <trkpt lat="43.42151" lon="6.64953">
        <ele>107.1</ele>
        <time>2025-01-19T09:09:22Z</time>
      </trkpt>
      <trkpt lat="43.4215" lon="6.64953">
        <ele>107.1</ele>
        <time>2025-01-19T09:09:23Z</time>
      </trkpt>
      <trkpt lat="43.42149" lon="6.64952">
        <ele>107.1</ele>
        <time>2025-01-19T09:09:24Z</time>
      </trkpt>
      <trkpt lat="43.42148" lon="6.64951">
        <ele>107.1</ele>
        <time>2025-01-19T09:09:25Z</time>
      </trkpt>
      <trkpt lat="43.42147" lon="6.64949">
        <ele>107.1</ele>
        <time>2025-01-19T09:09:26Z</time>
      </trkpt>
      <trkpt lat="43.42147" lon="6.64947">
        <ele>107.1</ele>
        <time>2025-01-19T09:09:27Z</time>
      </trkpt>
      <trkpt lat="43.42146" lon="6.64946">
        <ele>107</ele>
        <time>2025-01-19T09:09:28Z</time>
      </trkpt>
      <trkpt lat="43.42145" lon="6.64944">
        <ele>107</ele>
        <time>2025-01-19T09:09:29Z</time>
      </trkpt>
      <trkpt lat="43.42145" lon="6.64942">
        <ele>107</ele>
        <time>2025-01-19T09:09:30Z</time>
      </trkpt>
      <trkpt lat="43.42144" lon="6.6494">
        <ele>107</ele>
        <time>2025-01-19T09:09:31Z</time>
      </trkpt>
      <trkpt lat="43.42143" lon="6.64939">
        <ele>107</ele>
        <time>2025-01-19T09:09:32Z</time>
      </trkpt>
      <trkpt lat="43.42142" lon="6.64937">
        <ele>107</ele>
        <time>2025-01-19T09:09:33Z</time>
      </trkpt>
      <trkpt lat="43.42141" lon="6.64936">
        <ele>107</ele>
        <time>2025-01-19T09:09:34Z</time>
      </trkpt>
      <trkpt lat="43.4214" lon="6.64934">
        <ele>106.9</ele>
        <time>2025-01-19T09:09:35Z</time>
      </trkpt>
      <trkpt lat="43.42139" lon="6.64933">
        <ele>106.9</ele>
        <time>2025-01-19T09:09:36Z</time>
      </trkpt>
      <trkpt lat="43.42137" lon="6.64932">
        <ele>106.8</ele>
        <time>2025-01-19T09:09:37Z</time>
      </trkpt>
      <trkpt lat="43.42137" lon="6.6493">
        <ele>106.9</ele>
        <time>2025-01-19T09:09:38Z</time>
      </trkpt>
      <trkpt lat="43.42136" lon="6.64929">
        <ele>106.8</ele>
        <time>2025-01-19T09:09:39Z</time>
      </trkpt>
      <trkpt lat="43.42135" lon="6.64927">
        <ele>106.9</ele>
        <time>2025-01-19T09:09:40Z</time>
      </trkpt>
      <trkpt lat="43.42134" lon="6.64925">
        <ele>107</ele>
        <time>2025-01-19T09:09:41Z</time>
      </trkpt>
      <trkpt lat="43.42133" lon="6.64923">
        <ele>107</ele>
        <time>2025-01-19T09:09:42Z</time>
      </trkpt>
      <trkpt lat="43.42132" lon="6.64921">
        <ele>107.1</ele>
        <time>2025-01-19T09:09:43Z</time>
      </trkpt>
      <trkpt lat="43.42131" lon="6.64919">
        <ele>107.1</ele>
        <time>2025-01-19T09:09:44Z</time>
      </trkpt>
      <trkpt lat="43.42131" lon="6.64918">
        <ele>107.2</ele>
        <time>2025-01-19T09:09:45Z</time>
      </trkpt>
      <trkpt lat="43.4213" lon="6.64917">
        <ele>107.3</ele>
        <time>2025-01-19T09:09:46Z</time>
      </trkpt>
      <trkpt lat="43.4213" lon="6.64916">
        <ele>107.3</ele>
        <time>2025-01-19T09:09:47Z</time>
      </trkpt>
      <trkpt lat="43.42129" lon="6.64914">
        <ele>107.4</ele>
        <time>2025-01-19T09:09:48Z</time>
      </trkpt>
      <trkpt lat="43.42129" lon="6.64912">
        <ele>107.3</ele>
        <time>2025-01-19T09:09:49Z</time>
      </trkpt>
      <trkpt lat="43.42128" lon="6.6491">
        <ele>107.3</ele>
        <time>2025-01-19T09:09:50Z</time>
      </trkpt>
      <trkpt lat="43.42128" lon="6.64908">
        <ele>107.4</ele>
        <time>2025-01-19T09:09:51Z</time>
      </trkpt>
      <trkpt lat="43.42128" lon="6.64907">
        <ele>107.5</ele>
        <time>2025-01-19T09:09:52Z</time>
      </trkpt>
      <trkpt lat="43.42127" lon="6.64905">
        <ele>107.4</ele>
        <time>2025-01-19T09:09:53Z</time>
      </trkpt>
      <trkpt lat="43.42127" lon="6.64903">
        <ele>107.3</ele>
        <time>2025-01-19T09:09:54Z</time>
      </trkpt>
      <trkpt lat="43.42127" lon="6.64902">
        <ele>107.3</ele>
        <time>2025-01-19T09:09:55Z</time>
      </trkpt>
      <trkpt lat="43.42127" lon="6.649">
        <ele>107.3</ele>
        <time>2025-01-19T09:09:56Z</time>
      </trkpt>
      <trkpt lat="43.42127" lon="6.64899">
        <ele>107.3</ele>
        <time>2025-01-19T09:09:57Z</time>
      </trkpt>
      <trkpt lat="43.42127" lon="6.64897">
        <ele>107.2</ele>
        <time>2025-01-19T09:09:58Z</time>
      </trkpt>
      <trkpt lat="43.42127" lon="6.64895">
        <ele>107.1</ele>
        <time>2025-01-19T09:09:59Z</time>
      </trkpt>
      <trkpt lat="43.42127" lon="6.64893">
        <ele>107.1</ele>
        <time>2025-01-19T09:10:00Z</time>
      </trkpt>
      <trkpt lat="43.42125" lon="6.64892">
        <ele>107</ele>
        <time>2025-01-19T09:10:01Z</time>
      </trkpt>
      <trkpt lat="43.42125" lon="6.64891">
        <ele>107</ele>
        <time>2025-01-19T09:10:02Z</time>
      </trkpt>
      <trkpt lat="43.42124" lon="6.6489">
        <ele>107</ele>
        <time>2025-01-19T09:10:03Z</time>
      </trkpt>
      <trkpt lat="43.42123" lon="6.6489">
        <ele>107</ele>
        <time>2025-01-19T09:10:04Z</time>
      </trkpt>
      <trkpt lat="43.42122" lon="6.6489">
        <ele>107</ele>
        <time>2025-01-19T09:10:05Z</time>
      </trkpt>
      <trkpt lat="43.42121" lon="6.64889">
        <ele>107</ele>
        <time>2025-01-19T09:10:06Z</time>
      </trkpt>
      <trkpt lat="43.42121" lon="6.64889">
        <ele>106.9</ele>
        <time>2025-01-19T09:10:07Z</time>
      </trkpt>
      <trkpt lat="43.4212" lon="6.64888">
        <ele>106.9</ele>
        <time>2025-01-19T09:10:08Z</time>
      </trkpt>
      <trkpt lat="43.42119" lon="6.64888">
        <ele>107</ele>
        <time>2025-01-19T09:10:09Z</time>
      </trkpt>
      <trkpt lat="43.42118" lon="6.64889">
        <ele>107</ele>
        <time>2025-01-19T09:10:10Z</time>
      </trkpt>
      <trkpt lat="43.42117" lon="6.64889">
        <ele>107</ele>
        <time>2025-01-19T09:10:11Z</time>
      </trkpt>
      <trkpt lat="43.42116" lon="6.64889">
        <ele>107</ele>
        <time>2025-01-19T09:10:12Z</time>
      </trkpt>
      <trkpt lat="43.42115" lon="6.64889">
        <ele>107.1</ele>
        <time>2025-01-19T09:10:13Z</time>
      </trkpt>
      <trkpt lat="43.42114" lon="6.6489">
        <ele>107.1</ele>
        <time>2025-01-19T09:10:14Z</time>
      </trkpt>
      <trkpt lat="43.42113" lon="6.6489">
        <ele>107.1</ele>
        <time>2025-01-19T09:10:15Z</time>
      </trkpt>
      <trkpt lat="43.42112" lon="6.6489">
        <ele>107.1</ele>
        <time>2025-01-19T09:10:16Z</time>
      </trkpt>
      <trkpt lat="43.4211" lon="6.6489">
        <ele>107.2</ele>
        <time>2025-01-19T09:10:17Z</time>
      </trkpt>
      <trkpt lat="43.42109" lon="6.6489">
        <ele>107.2</ele>
        <time>2025-01-19T09:10:18Z</time>
      </trkpt>
      <trkpt lat="43.42108" lon="6.6489">
        <ele>107.2</ele>
        <time>2025-01-19T09:10:19Z</time>
      </trkpt>
      <trkpt lat="43.42107" lon="6.6489">
        <ele>107.1</ele>
        <time>2025-01-19T09:10:20Z</time>
      </trkpt>
      <trkpt lat="43.42106" lon="6.64891">
        <ele>107.3</ele>
        <time>2025-01-19T09:10:21Z</time>
      </trkpt>
      <trkpt lat="43.42105" lon="6.64891">
        <ele>107.4</ele>
        <time>2025-01-19T09:10:22Z</time>
      </trkpt>
      <trkpt lat="43.42104" lon="6.64892">
        <ele>107.5</ele>
        <time>2025-01-19T09:10:23Z</time>
      </trkpt>
      <trkpt lat="43.42104" lon="6.64892">
        <ele>107.5</ele>
        <time>2025-01-19T09:10:24Z</time>
      </trkpt>
      <trkpt lat="43.42103" lon="6.64893">
        <ele>107.5</ele>
        <time>2025-01-19T09:10:25Z</time>
      </trkpt>
      <trkpt lat="43.42102" lon="6.64893">
        <ele>107.5</ele>
        <time>2025-01-19T09:10:26Z</time>
      </trkpt>
      <trkpt lat="43.42101" lon="6.64894">
        <ele>107.5</ele>
        <time>2025-01-19T09:10:27Z</time>
      </trkpt>
      <trkpt lat="43.421" lon="6.64895">
        <ele>107.6</ele>
        <time>2025-01-19T09:10:28Z</time>
      </trkpt>
      <trkpt lat="43.42099" lon="6.64896">
        <ele>107.6</ele>
        <time>2025-01-19T09:10:29Z</time>
      </trkpt>
      <trkpt lat="43.42098" lon="6.64897">
        <ele>107.6</ele>
        <time>2025-01-19T09:10:30Z</time>
      </trkpt>
      <trkpt lat="43.42097" lon="6.64898">
        <ele>107.5</ele>
        <time>2025-01-19T09:10:31Z</time>
      </trkpt>
      <trkpt lat="43.42097" lon="6.64898">
        <ele>107.5</ele>
        <time>2025-01-19T09:10:32Z</time>
      </trkpt>
      <trkpt lat="43.42095" lon="6.64898">
        <ele>107.5</ele>
        <time>2025-01-19T09:10:33Z</time>
      </trkpt>
      <trkpt lat="43.42094" lon="6.64899">
        <ele>107.5</ele>
        <time>2025-01-19T09:10:34Z</time>
      </trkpt>
      <trkpt lat="43.42093" lon="6.64899">
        <ele>107.5</ele>
        <time>2025-01-19T09:10:35Z</time>
      </trkpt>
      <trkpt lat="43.42092" lon="6.649">
        <ele>107.6</ele>
        <time>2025-01-19T09:10:36Z</time>
      </trkpt>
      <trkpt lat="43.42091" lon="6.649">
        <ele>107.7</ele>
        <time>2025-01-19T09:10:37Z</time>
      </trkpt>
      <trkpt lat="43.4209" lon="6.64901">
        <ele>107.7</ele>
        <time>2025-01-19T09:10:38Z</time>
      </trkpt>
      <trkpt lat="43.42089" lon="6.64902">
        <ele>107.7</ele>
        <time>2025-01-19T09:10:39Z</time>
      </trkpt>
      <trkpt lat="43.42088" lon="6.64902">
        <ele>107.7</ele>
        <time>2025-01-19T09:10:40Z</time>
      </trkpt>
      <trkpt lat="43.42086" lon="6.64903">
        <ele>107.8</ele>
        <time>2025-01-19T09:10:41Z</time>
      </trkpt>
      <trkpt lat="43.42085" lon="6.64904">
        <ele>107.9</ele>
        <time>2025-01-19T09:10:42Z</time>
      </trkpt>
      <trkpt lat="43.42084" lon="6.64905">
        <ele>107.9</ele>
        <time>2025-01-19T09:10:43Z</time>
      </trkpt>
      <trkpt lat="43.42084" lon="6.64906">
        <ele>108</ele>
        <time>2025-01-19T09:10:44Z</time>
      </trkpt>
      <trkpt lat="43.42082" lon="6.64907">
        <ele>108</ele>
        <time>2025-01-19T09:10:45Z</time>
      </trkpt>
      <trkpt lat="43.42081" lon="6.64908">
        <ele>108.1</ele>
        <time>2025-01-19T09:10:46Z</time>
      </trkpt>
      <trkpt lat="43.42081" lon="6.64909">
        <ele>108.2</ele>
        <time>2025-01-19T09:10:47Z</time>
      </trkpt>
      <trkpt lat="43.4208" lon="6.64909">
        <ele>108.2</ele>
        <time>2025-01-19T09:10:48Z</time>
      </trkpt>
      <trkpt lat="43.42079" lon="6.6491">
        <ele>108.3</ele>
        <time>2025-01-19T09:10:49Z</time>
      </trkpt>
      <trkpt lat="43.42077" lon="6.64911">
        <ele>108.2</ele>
        <time>2025-01-19T09:10:50Z</time>
      </trkpt>
      <trkpt lat="43.42077" lon="6.64911">
        <ele>108.1</ele>
        <time>2025-01-19T09:10:51Z</time>
      </trkpt>
      <trkpt lat="43.42076" lon="6.64912">
        <ele>108.1</ele>
        <time>2025-01-19T09:10:52Z</time>
      </trkpt>
      <trkpt lat="43.42075" lon="6.64912">
        <ele>108.1</ele>
        <time>2025-01-19T09:10:53Z</time>
      </trkpt>
      <trkpt lat="43.42074" lon="6.64913">
        <ele>108.1</ele>
        <time>2025-01-19T09:10:54Z</time>
      </trkpt>
      <trkpt lat="43.42072" lon="6.64913">
        <ele>108</ele>
        <time>2025-01-19T09:10:55Z</time>
      </trkpt>
      <trkpt lat="43.42072" lon="6.64913">
        <ele>107.9</ele>
        <time>2025-01-19T09:10:56Z</time>
      </trkpt>
      <trkpt lat="43.42071" lon="6.64913">
        <ele>107.8</ele>
        <time>2025-01-19T09:10:57Z</time>
      </trkpt>
      <trkpt lat="43.4207" lon="6.64913">
        <ele>107.9</ele>
        <time>2025-01-19T09:10:58Z</time>
      </trkpt>
      <trkpt lat="43.42069" lon="6.64913">
        <ele>107.9</ele>
        <time>2025-01-19T09:10:59Z</time>
      </trkpt>
      <trkpt lat="43.42068" lon="6.64913">
        <ele>107.9</ele>
        <time>2025-01-19T09:11:00Z</time>
      </trkpt>
      <trkpt lat="43.42067" lon="6.64913">
        <ele>107.9</ele>
        <time>2025-01-19T09:11:01Z</time>
      </trkpt>
      <trkpt lat="43.42066" lon="6.64912">
        <ele>108</ele>
        <time>2025-01-19T09:11:02Z</time>
      </trkpt>
      <trkpt lat="43.42065" lon="6.64912">
        <ele>108</ele>
        <time>2025-01-19T09:11:03Z</time>
      </trkpt>
      <trkpt lat="43.42064" lon="6.64912">
        <ele>108.1</ele>
        <time>2025-01-19T09:11:04Z</time>
      </trkpt>
      <trkpt lat="43.42062" lon="6.64911">
        <ele>108.2</ele>
        <time>2025-01-19T09:11:05Z</time>
      </trkpt>
      <trkpt lat="43.42061" lon="6.6491">
        <ele>108.2</ele>
        <time>2025-01-19T09:11:06Z</time>
      </trkpt>
      <trkpt lat="43.4206" lon="6.6491">
        <ele>108.2</ele>
        <time>2025-01-19T09:11:07Z</time>
      </trkpt>
      <trkpt lat="43.42059" lon="6.64909">
        <ele>108.2</ele>
        <time>2025-01-19T09:11:08Z</time>
      </trkpt>
      <trkpt lat="43.42058" lon="6.64908">
        <ele>108.2</ele>
        <time>2025-01-19T09:11:09Z</time>
      </trkpt>
      <trkpt lat="43.42057" lon="6.64907">
        <ele>108.3</ele>
        <time>2025-01-19T09:11:10Z</time>
      </trkpt>
      <trkpt lat="43.42056" lon="6.64906">
        <ele>108.3</ele>
        <time>2025-01-19T09:11:11Z</time>
      </trkpt>
      <trkpt lat="43.42056" lon="6.64906">
        <ele>108.3</ele>
        <time>2025-01-19T09:11:12Z</time>
      </trkpt>
      <trkpt lat="43.42055" lon="6.64904">
        <ele>108.3</ele>
        <time>2025-01-19T09:11:13Z</time>
      </trkpt>
      <trkpt lat="43.42054" lon="6.64903">
        <ele>108.2</ele>
        <time>2025-01-19T09:11:14Z</time>
      </trkpt>
      <trkpt lat="43.42053" lon="6.64902">
        <ele>108.2</ele>
        <time>2025-01-19T09:11:15Z</time>
      </trkpt>
      <trkpt lat="43.42052" lon="6.649">
        <ele>108.2</ele>
        <time>2025-01-19T09:11:16Z</time>
      </trkpt>
      <trkpt lat="43.42051" lon="6.649">
        <ele>108.2</ele>
        <time>2025-01-19T09:11:17Z</time>
      </trkpt>
      <trkpt lat="43.4205" lon="6.64899">
        <ele>108.1</ele>
        <time>2025-01-19T09:11:18Z</time>
      </trkpt>
      <trkpt lat="43.42049" lon="6.64898">
        <ele>108</ele>
        <time>2025-01-19T09:11:19Z</time>
      </trkpt>
      <trkpt lat="43.42049" lon="6.64897">
        <ele>107.9</ele>
        <time>2025-01-19T09:11:20Z</time>
      </trkpt>
      <trkpt lat="43.42048" lon="6.64897">
        <ele>107.8</ele>
        <time>2025-01-19T09:11:21Z</time>
      </trkpt>
      <trkpt lat="43.42047" lon="6.64896">
        <ele>107.9</ele>
        <time>2025-01-19T09:11:22Z</time>
      </trkpt>
      <trkpt lat="43.42047" lon="6.64895">
        <ele>107.8</ele>
        <time>2025-01-19T09:11:23Z</time>
      </trkpt>
      <trkpt lat="43.42046" lon="6.64894">
        <ele>107.8</ele>
        <time>2025-01-19T09:11:24Z</time>
      </trkpt>
      <trkpt lat="43.42045" lon="6.64893">
        <ele>107.8</ele>
        <time>2025-01-19T09:11:25Z</time>
      </trkpt>
      <trkpt lat="43.42044" lon="6.64892">
        <ele>107.8</ele>
        <time>2025-01-19T09:11:26Z</time>
      </trkpt>
      <trkpt lat="43.42044" lon="6.64892">
        <ele>107.7</ele>
        <time>2025-01-19T09:11:27Z</time>
      </trkpt>
      <trkpt lat="43.42043" lon="6.64891">
        <ele>107.6</ele>
        <time>2025-01-19T09:11:28Z</time>
      </trkpt>
      <trkpt lat="43.42042" lon="6.64891">
        <ele>107.6</ele>
        <time>2025-01-19T09:11:29Z</time>
      </trkpt>
      <trkpt lat="43.42041" lon="6.6489">
        <ele>107.5</ele>
        <time>2025-01-19T09:11:30Z</time>
      </trkpt>
      <trkpt lat="43.42041" lon="6.64889">
        <ele>107.5</ele>
        <time>2025-01-19T09:11:31Z</time>
      </trkpt>
      <trkpt lat="43.4204" lon="6.64889">
        <ele>107.4</ele>
        <time>2025-01-19T09:11:32Z</time>
      </trkpt>
      <trkpt lat="43.4204" lon="6.64889">
        <ele>107.4</ele>
        <time>2025-01-19T09:11:33Z</time>
      </trkpt>
      <trkpt lat="43.4204" lon="6.64889">
        <ele>107.3</ele>
        <time>2025-01-19T09:11:34Z</time>
      </trkpt>
      <trkpt lat="43.42039" lon="6.64889">
        <ele>107.3</ele>
        <time>2025-01-19T09:11:35Z</time>
      </trkpt>
      <trkpt lat="43.42039" lon="6.64888">
        <ele>107.2</ele>
        <time>2025-01-19T09:11:36Z</time>
      </trkpt>
      <trkpt lat="43.42038" lon="6.64888">
        <ele>107.2</ele>
        <time>2025-01-19T09:11:37Z</time>
      </trkpt>
      <trkpt lat="43.42038" lon="6.64888">
        <ele>107.1</ele>
        <time>2025-01-19T09:11:38Z</time>
      </trkpt>
      <trkpt lat="43.42037" lon="6.64888">
        <ele>107.1</ele>
        <time>2025-01-19T09:11:39Z</time>
      </trkpt>
      <trkpt lat="43.42037" lon="6.64888">
        <ele>107.2</ele>
        <time>2025-01-19T09:11:40Z</time>
      </trkpt>
      <trkpt lat="43.42037" lon="6.64888">
        <ele>107.2</ele>
        <time>2025-01-19T09:11:41Z</time>
      </trkpt>
      <trkpt lat="43.42037" lon="6.64888">
        <ele>107.2</ele>
        <time>2025-01-19T09:11:42Z</time>
      </trkpt>
      <trkpt lat="43.42036" lon="6.64887">
        <ele>107.2</ele>
        <time>2025-01-19T09:11:43Z</time>
      </trkpt>
      <trkpt lat="43.42035" lon="6.64887">
        <ele>107.1</ele>
        <time>2025-01-19T09:11:44Z</time>
      </trkpt>
      <trkpt lat="43.42035" lon="6.64887">
        <ele>107.1</ele>
        <time>2025-01-19T09:11:45Z</time>
      </trkpt>
      <trkpt lat="43.42035" lon="6.64887">
        <ele>107.1</ele>
        <time>2025-01-19T09:11:46Z</time>
      </trkpt>
      <trkpt lat="43.42034" lon="6.64887">
        <ele>107.1</ele>
        <time>2025-01-19T09:11:47Z</time>
      </trkpt>
      <trkpt lat="43.42034" lon="6.64887">
        <ele>107.1</ele>
        <time>2025-01-19T09:11:48Z</time>
      </trkpt>
      <trkpt lat="43.42034" lon="6.64887">
        <ele>107.1</ele>
        <time>2025-01-19T09:11:49Z</time>
      </trkpt>
      <trkpt lat="43.42034" lon="6.64888">
        <ele>107.1</ele>
        <time>2025-01-19T09:11:50Z</time>
      </trkpt>
      <trkpt lat="43.42034" lon="6.64888">
        <ele>107.1</ele>
        <time>2025-01-19T09:11:51Z</time>
      </trkpt>
      <trkpt lat="43.42034" lon="6.64888">
        <ele>107.1</ele>
        <time>2025-01-19T09:11:52Z</time>
      </trkpt>
      <trkpt lat="43.42034" lon="6.64888">
        <ele>107.2</ele>
        <time>2025-01-19T09:11:53Z</time>
      </trkpt>
      <trkpt lat="43.42034" lon="6.64888">
        <ele>107.2</ele>
        <time>2025-01-19T09:11:54Z</time>
      </trkpt>
      <trkpt lat="43.42034" lon="6.64888">
        <ele>107.2</ele>
        <time>2025-01-19T09:11:55Z</time>
      </trkpt>
      <trkpt lat="43.42034" lon="6.64888">
        <ele>107.2</ele>
        <time>2025-01-19T09:11:56Z</time>
      </trkpt>
      <trkpt lat="43.42034" lon="6.64888">
        <ele>107.3</ele>
        <time>2025-01-19T09:11:57Z</time>
      </trkpt>
      <trkpt lat="43.42034" lon="6.64889">
        <ele>107.2</ele>
        <time>2025-01-19T09:11:58Z</time>
      </trkpt>
      <trkpt lat="43.42034" lon="6.64889">
        <ele>107.3</ele>
        <time>2025-01-19T09:11:59Z</time>
      </trkpt>
      <trkpt lat="43.42035" lon="6.64889">
        <ele>107.2</ele>
        <time>2025-01-19T09:12:00Z</time>
      </trkpt>
      <trkpt lat="43.42034" lon="6.64889">
        <ele>107.2</ele>
        <time>2025-01-19T09:12:01Z</time>
      </trkpt>
      <trkpt lat="43.42034" lon="6.64889">
        <ele>107.3</ele>
        <time>2025-01-19T09:12:02Z</time>
      </trkpt>
      <trkpt lat="43.42034" lon="6.64889">
        <ele>107.3</ele>
        <time>2025-01-19T09:12:03Z</time>
      </trkpt>
      <trkpt lat="43.42034" lon="6.64889">
        <ele>107.2</ele>
        <time>2025-01-19T09:12:04Z</time>
      </trkpt>
      <trkpt lat="43.42034" lon="6.64889">
        <ele>107.2</ele>
        <time>2025-01-19T09:12:05Z</time>
      </trkpt>
      <trkpt lat="43.42035" lon="6.64889">
        <ele>107.2</ele>
        <time>2025-01-19T09:12:06Z</time>
      </trkpt>
      <trkpt lat="43.42035" lon="6.64889">
        <ele>107.1</ele>
        <time>2025-01-19T09:12:07Z</time>
      </trkpt>
      <trkpt lat="43.42035" lon="6.64889">
        <ele>107.2</ele>
        <time>2025-01-19T09:12:08Z</time>
      </trkpt>
      <trkpt lat="43.42035" lon="6.64889">
        <ele>107.2</ele>
        <time>2025-01-19T09:12:09Z</time>
      </trkpt>
      <trkpt lat="43.42035" lon="6.64889">
        <ele>107.2</ele>
        <time>2025-01-19T09:12:10Z</time>
      </trkpt>
      <trkpt lat="43.42035" lon="6.64889">
        <ele>107.1</ele>
        <time>2025-01-19T09:12:11Z</time>
      </trkpt>
      <trkpt lat="43.42035" lon="6.64889">
        <ele>107.1</ele>
        <time>2025-01-19T09:12:12Z</time>
      </trkpt>
      <trkpt lat="43.42035" lon="6.64889">
        <ele>107.1</ele>
        <time>2025-01-19T09:12:13Z</time>
      </trkpt>
      <trkpt lat="43.42035" lon="6.64889">
        <ele>107.1</ele>
        <time>2025-01-19T09:12:14Z</time>
      </trkpt>
      <trkpt lat="43.42035" lon="6.64889">
        <ele>107.1</ele>
        <time>2025-01-19T09:12:15Z</time>
      </trkpt>
      <trkpt lat="43.42035" lon="6.64889">
        <ele>107.1</ele>
        <time>2025-01-19T09:12:16Z</time>
      </trkpt>
      <trkpt lat="43.42035" lon="6.64889">
        <ele>107.1</ele>
        <time>2025-01-19T09:12:17Z</time>
      </trkpt>
      <trkpt lat="43.42035" lon="6.64889">
        <ele>107.1</ele>
        <time>2025-01-19T09:12:18Z</time>
      </trkpt>
      <trkpt lat="43.42035" lon="6.64889">
        <ele>107.2</ele>
        <time>2025-01-19T09:12:19Z</time>
      </trkpt>
      <trkpt lat="43.42035" lon="6.64889">
        <ele>107.2</ele>
        <time>2025-01-19T09:12:20Z</time>
      </trkpt>
      <trkpt lat="43.42035" lon="6.64889">
        <ele>107.2</ele>
        <time>2025-01-19T09:12:21Z</time>
      </trkpt>
      <trkpt lat="43.42034" lon="6.64889">
        <ele>107.1</ele>
        <time>2025-01-19T09:12:22Z</time>
      </trkpt>
      <trkpt lat="43.42034" lon="6.64889">
        <ele>107.1</ele>
        <time>2025-01-19T09:12:23Z</time>
      </trkpt>
      <trkpt lat="43.42035" lon="6.64889">
        <ele>107.1</ele>
        <time>2025-01-19T09:12:24Z</time>
      </trkpt>
      <trkpt lat="43.42035" lon="6.64889">
        <ele>107.1</ele>
        <time>2025-01-19T09:12:25Z</time>
      </trkpt>
      <trkpt lat="43.42035" lon="6.64888">
        <ele>107.1</ele>
        <time>2025-01-19T09:12:26Z</time>
      </trkpt>
      <trkpt lat="43.42035" lon="6.64887">
        <ele>107.1</ele>
        <time>2025-01-19T09:12:27Z</time>
      </trkpt>
      <trkpt lat="43.42035" lon="6.64886">
        <ele>107.1</ele>
        <time>2025-01-19T09:12:28Z</time>
      </trkpt>
      <trkpt lat="43.42035" lon="6.64885">
        <ele>107.1</ele>
        <time>2025-01-19T09:12:29Z</time>
      </trkpt>
      <trkpt lat="43.42035" lon="6.64885">
        <ele>107.1</ele>
        <time>2025-01-19T09:12:30Z</time>
      </trkpt>
      <trkpt lat="43.42035" lon="6.64885">
        <ele>107.1</ele>
        <time>2025-01-19T09:12:31Z</time>
      </trkpt>
      <trkpt lat="43.42034" lon="6.64884">
        <ele>107.1</ele>
        <time>2025-01-19T09:12:32Z</time>
      </trkpt>
      <trkpt lat="43.42034" lon="6.64884">
        <ele>107.1</ele>
        <time>2025-01-19T09:12:33Z</time>
      </trkpt>
      <trkpt lat="43.42034" lon="6.64883">
        <ele>107.2</ele>
        <time>2025-01-19T09:12:34Z</time>
      </trkpt>
      <trkpt lat="43.42033" lon="6.64883">
        <ele>107.4</ele>
        <time>2025-01-19T09:12:35Z</time>
      </trkpt>
      <trkpt lat="43.42034" lon="6.64883">
        <ele>107.5</ele>
        <time>2025-01-19T09:12:36Z</time>
      </trkpt>
      <trkpt lat="43.42034" lon="6.64883">
        <ele>107.6</ele>
        <time>2025-01-19T09:12:37Z</time>
      </trkpt>
      <trkpt lat="43.42034" lon="6.64883">
        <ele>107.7</ele>
        <time>2025-01-19T09:12:38Z</time>
      </trkpt>
      <trkpt lat="43.42034" lon="6.64883">
        <ele>107.7</ele>
        <time>2025-01-19T09:12:39Z</time>
      </trkpt>
      <trkpt lat="43.42034" lon="6.64883">
        <ele>107.8</ele>
        <time>2025-01-19T09:12:40Z</time>
      </trkpt>
      <trkpt lat="43.42034" lon="6.64883">
        <ele>107.7</ele>
        <time>2025-01-19T09:12:41Z</time>
      </trkpt>
      <trkpt lat="43.42033" lon="6.64882">
        <ele>107.7</ele>
        <time>2025-01-19T09:12:42Z</time>
      </trkpt>
      <trkpt lat="43.42033" lon="6.64882">
        <ele>107.7</ele>
        <time>2025-01-19T09:12:43Z</time>
      </trkpt>
      <trkpt lat="43.42032" lon="6.64881">
        <ele>107.7</ele>
        <time>2025-01-19T09:12:44Z</time>
      </trkpt>
      <trkpt lat="43.42032" lon="6.6488">
        <ele>107.6</ele>
        <time>2025-01-19T09:12:45Z</time>
      </trkpt>
      <trkpt lat="43.42031" lon="6.64879">
        <ele>107.6</ele>
        <time>2025-01-19T09:12:46Z</time>
      </trkpt>
      <trkpt lat="43.4203" lon="6.64878">
        <ele>107.6</ele>
        <time>2025-01-19T09:12:47Z</time>
      </trkpt>
      <trkpt lat="43.4203" lon="6.64877">
        <ele>107.6</ele>
        <time>2025-01-19T09:12:48Z</time>
      </trkpt>
      <trkpt lat="43.42029" lon="6.64877">
        <ele>107.7</ele>
        <time>2025-01-19T09:12:49Z</time>
      </trkpt>
      <trkpt lat="43.42029" lon="6.64876">
        <ele>107.7</ele>
        <time>2025-01-19T09:12:50Z</time>
      </trkpt>
      <trkpt lat="43.42029" lon="6.64876">
        <ele>107.8</ele>
        <time>2025-01-19T09:12:51Z</time>
      </trkpt>
      <trkpt lat="43.42029" lon="6.64876">
        <ele>107.8</ele>
        <time>2025-01-19T09:12:52Z</time>
      </trkpt>
      <trkpt lat="43.42029" lon="6.64876">
        <ele>107.9</ele>
        <time>2025-01-19T09:12:53Z</time>
      </trkpt>
      <trkpt lat="43.42029" lon="6.64876">
        <ele>107.9</ele>
        <time>2025-01-19T09:12:54Z</time>
      </trkpt>
      <trkpt lat="43.42029" lon="6.64876">
        <ele>107.9</ele>
        <time>2025-01-19T09:12:55Z</time>
      </trkpt>
      <trkpt lat="43.42029" lon="6.64875">
        <ele>107.9</ele>
        <time>2025-01-19T09:12:56Z</time>
      </trkpt>
      <trkpt lat="43.42029" lon="6.64875">
        <ele>107.8</ele>
        <time>2025-01-19T09:12:57Z</time>
      </trkpt>
      <trkpt lat="43.42029" lon="6.64875">
        <ele>107.8</ele>
        <time>2025-01-19T09:12:58Z</time>
      </trkpt>
      <trkpt lat="43.42029" lon="6.64875">
        <ele>107.7</ele>
        <time>2025-01-19T09:12:59Z</time>
      </trkpt>
      <trkpt lat="43.42029" lon="6.64875">
        <ele>107.6</ele>
        <time>2025-01-19T09:13:00Z</time>
      </trkpt>
      <trkpt lat="43.42029" lon="6.64875">
        <ele>107.8</ele>
        <time>2025-01-19T09:13:01Z</time>
      </trkpt>
      <trkpt lat="43.42029" lon="6.64875">
        <ele>107.8</ele>
        <time>2025-01-19T09:13:02Z</time>
      </trkpt>
      <trkpt lat="43.42029" lon="6.64875">
        <ele>107.8</ele>
        <time>2025-01-19T09:13:03Z</time>
      </trkpt>
      <trkpt lat="43.42029" lon="6.64875">
        <ele>107.8</ele>
        <time>2025-01-19T09:13:04Z</time>
      </trkpt>
      <trkpt lat="43.42029" lon="6.64875">
        <ele>107.7</ele>
        <time>2025-01-19T09:13:05Z</time>
      </trkpt>
      <trkpt lat="43.42029" lon="6.64875">
        <ele>107.7</ele>
        <time>2025-01-19T09:13:06Z</time>
      </trkpt>
      <trkpt lat="43.42029" lon="6.64875">
        <ele>107.8</ele>
        <time>2025-01-19T09:13:07Z</time>
      </trkpt>
      <trkpt lat="43.42029" lon="6.64874">
        <ele>107.9</ele>
        <time>2025-01-19T09:13:08Z</time>
      </trkpt>
      <trkpt lat="43.42029" lon="6.64874">
        <ele>108</ele>
        <time>2025-01-19T09:13:09Z</time>
      </trkpt>
      <trkpt lat="43.42029" lon="6.64874">
        <ele>108</ele>
        <time>2025-01-19T09:13:10Z</time>
      </trkpt>
      <trkpt lat="43.42029" lon="6.64874">
        <ele>108</ele>
        <time>2025-01-19T09:13:11Z</time>
      </trkpt>
      <trkpt lat="43.42029" lon="6.64874">
        <ele>108</ele>
        <time>2025-01-19T09:13:12Z</time>
      </trkpt>
      <trkpt lat="43.42029" lon="6.64874">
        <ele>108</ele>
        <time>2025-01-19T09:13:13Z</time>
      </trkpt>
      <trkpt lat="43.42029" lon="6.64874">
        <ele>107.9</ele>
        <time>2025-01-19T09:13:14Z</time>
      </trkpt>
      <trkpt lat="43.42029" lon="6.64874">
        <ele>107.9</ele>
        <time>2025-01-19T09:13:15Z</time>
      </trkpt>
      <trkpt lat="43.42029" lon="6.64874">
        <ele>107.9</ele>
        <time>2025-01-19T09:13:16Z</time>
      </trkpt>
      <trkpt lat="43.42029" lon="6.64874">
        <ele>107.9</ele>
        <time>2025-01-19T09:13:17Z</time>
      </trkpt>
      <trkpt lat="43.42029" lon="6.64874">
        <ele>107.9</ele>
        <time>2025-01-19T09:13:18Z</time>
      </trkpt>
      <trkpt lat="43.42029" lon="6.64874">
        <ele>108</ele>
        <time>2025-01-19T09:13:19Z</time>
      </trkpt>
      <trkpt lat="43.42029" lon="6.64875">
        <ele>108</ele>
        <time>2025-01-19T09:13:20Z</time>
      </trkpt>
      <trkpt lat="43.42029" lon="6.64875">
        <ele>108</ele>
        <time>2025-01-19T09:13:21Z</time>
      </trkpt>
      <trkpt lat="43.42029" lon="6.64874">
        <ele>107.9</ele>
        <time>2025-01-19T09:13:22Z</time>
      </trkpt>
      <trkpt lat="43.42029" lon="6.64874">
        <ele>107.9</ele>
        <time>2025-01-19T09:13:23Z</time>
      </trkpt>
      <trkpt lat="43.42028" lon="6.64874">
        <ele>107.9</ele>
        <time>2025-01-19T09:13:24Z</time>
      </trkpt>
      <trkpt lat="43.42028" lon="6.64874">
        <ele>107.9</ele>
        <time>2025-01-19T09:13:25Z</time>
      </trkpt>
      <trkpt lat="43.42028" lon="6.64873">
        <ele>107.9</ele>
        <time>2025-01-19T09:13:26Z</time>
      </trkpt>
      <trkpt lat="43.42028" lon="6.64873">
        <ele>108</ele>
        <time>2025-01-19T09:13:27Z</time>
      </trkpt>
      <trkpt lat="43.42028" lon="6.64873">
        <ele>108</ele>
        <time>2025-01-19T09:13:28Z</time>
      </trkpt>
      <trkpt lat="43.42028" lon="6.64873">
        <ele>108</ele>
        <time>2025-01-19T09:13:29Z</time>
      </trkpt>
      <trkpt lat="43.42027" lon="6.64873">
        <ele>107.9</ele>
        <time>2025-01-19T09:13:30Z</time>
      </trkpt>
      <trkpt lat="43.42026" lon="6.64873">
        <ele>107.9</ele>
        <time>2025-01-19T09:13:31Z</time>
      </trkpt>
      <trkpt lat="43.42026" lon="6.64873">
        <ele>107.9</ele>
        <time>2025-01-19T09:13:32Z</time>
      </trkpt>
      <trkpt lat="43.42026" lon="6.64872">
        <ele>108</ele>
        <time>2025-01-19T09:13:33Z</time>
      </trkpt>
      <trkpt lat="43.42026" lon="6.64871">
        <ele>108</ele>
        <time>2025-01-19T09:13:34Z</time>
      </trkpt>
      <trkpt lat="43.42025" lon="6.6487">
        <ele>108</ele>
        <time>2025-01-19T09:13:35Z</time>
      </trkpt>
      <trkpt lat="43.42025" lon="6.6487">
        <ele>108</ele>
        <time>2025-01-19T09:13:36Z</time>
      </trkpt>
      <trkpt lat="43.42024" lon="6.6487">
        <ele>108</ele>
        <time>2025-01-19T09:13:37Z</time>
      </trkpt>
      <trkpt lat="43.42024" lon="6.64869">
        <ele>108</ele>
        <time>2025-01-19T09:13:38Z</time>
      </trkpt>
      <trkpt lat="43.42023" lon="6.64868">
        <ele>108.1</ele>
        <time>2025-01-19T09:13:39Z</time>
      </trkpt>
      <trkpt lat="43.42023" lon="6.64867">
        <ele>108</ele>
        <time>2025-01-19T09:13:40Z</time>
      </trkpt>
      <trkpt lat="43.42021" lon="6.64866">
        <ele>108</ele>
        <time>2025-01-19T09:13:41Z</time>
      </trkpt>
      <trkpt lat="43.4202" lon="6.64864">
        <ele>108</ele>
        <time>2025-01-19T09:13:42Z</time>
      </trkpt>
      <trkpt lat="43.42019" lon="6.64863">
        <ele>107.9</ele>
        <time>2025-01-19T09:13:43Z</time>
      </trkpt>
      <trkpt lat="43.42017" lon="6.64861">
        <ele>107.9</ele>
        <time>2025-01-19T09:13:44Z</time>
      </trkpt>
      <trkpt lat="43.42016" lon="6.6486">
        <ele>107.9</ele>
        <time>2025-01-19T09:13:45Z</time>
      </trkpt>
      <trkpt lat="43.42015" lon="6.64859">
        <ele>107.9</ele>
        <time>2025-01-19T09:13:46Z</time>
      </trkpt>
      <trkpt lat="43.42015" lon="6.64859">
        <ele>107.9</ele>
        <time>2025-01-19T09:13:47Z</time>
      </trkpt>
      <trkpt lat="43.42015" lon="6.64859">
        <ele>107.9</ele>
        <time>2025-01-19T09:13:48Z</time>
      </trkpt>
      <trkpt lat="43.42015" lon="6.64859">
        <ele>107.9</ele>
        <time>2025-01-19T09:13:49Z</time>
      </trkpt>
      <trkpt lat="43.42015" lon="6.64859">
        <ele>107.9</ele>
        <time>2025-01-19T09:13:50Z</time>
      </trkpt>
      <trkpt lat="43.42014" lon="6.64859">
        <ele>107.9</ele>
        <time>2025-01-19T09:13:51Z</time>
      </trkpt>
      <trkpt lat="43.42014" lon="6.64859">
        <ele>107.9</ele>
        <time>2025-01-19T09:13:52Z</time>
      </trkpt>
      <trkpt lat="43.42014" lon="6.64859">
        <ele>108</ele>
        <time>2025-01-19T09:13:53Z</time>
      </trkpt>
      <trkpt lat="43.42014" lon="6.64859">
        <ele>107.9</ele>
        <time>2025-01-19T09:13:54Z</time>
      </trkpt>
      <trkpt lat="43.42014" lon="6.64859">
        <ele>107.9</ele>
        <time>2025-01-19T09:13:55Z</time>
      </trkpt>
      <trkpt lat="43.42014" lon="6.64859">
        <ele>107.8</ele>
        <time>2025-01-19T09:13:56Z</time>
      </trkpt>
      <trkpt lat="43.42014" lon="6.64858">
        <ele>107.7</ele>
        <time>2025-01-19T09:13:57Z</time>
      </trkpt>
      <trkpt lat="43.42013" lon="6.64858">
        <ele>107.7</ele>
        <time>2025-01-19T09:13:58Z</time>
      </trkpt>
      <trkpt lat="43.42013" lon="6.64857">
        <ele>107.7</ele>
        <time>2025-01-19T09:13:59Z</time>
      </trkpt>
      <trkpt lat="43.42013" lon="6.64856">
        <ele>107.7</ele>
        <time>2025-01-19T09:14:00Z</time>
      </trkpt>
      <trkpt lat="43.42011" lon="6.64855">
        <ele>107.8</ele>
        <time>2025-01-19T09:14:01Z</time>
      </trkpt>
      <trkpt lat="43.42011" lon="6.64854">
        <ele>107.9</ele>
        <time>2025-01-19T09:14:02Z</time>
      </trkpt>
      <trkpt lat="43.4201" lon="6.64853">
        <ele>108</ele>
        <time>2025-01-19T09:14:03Z</time>
      </trkpt>
      <trkpt lat="43.42009" lon="6.64852">
        <ele>108</ele>
        <time>2025-01-19T09:14:04Z</time>
      </trkpt>
      <trkpt lat="43.42008" lon="6.64852">
        <ele>108.1</ele>
        <time>2025-01-19T09:14:05Z</time>
      </trkpt>
      <trkpt lat="43.42007" lon="6.64851">
        <ele>108</ele>
        <time>2025-01-19T09:14:06Z</time>
      </trkpt>
      <trkpt lat="43.42006" lon="6.64851">
        <ele>108.1</ele>
        <time>2025-01-19T09:14:07Z</time>
      </trkpt>
      <trkpt lat="43.42005" lon="6.6485">
        <ele>108</ele>
        <time>2025-01-19T09:14:08Z</time>
      </trkpt>
      <trkpt lat="43.42004" lon="6.64849">
        <ele>108.1</ele>
        <time>2025-01-19T09:14:09Z</time>
      </trkpt>
      <trkpt lat="43.42003" lon="6.64849">
        <ele>108.1</ele>
        <time>2025-01-19T09:14:10Z</time>
      </trkpt>
      <trkpt lat="43.42002" lon="6.64848">
        <ele>108.1</ele>
        <time>2025-01-19T09:14:11Z</time>
      </trkpt>
      <trkpt lat="43.42001" lon="6.64847">
        <ele>108.1</ele>
        <time>2025-01-19T09:14:12Z</time>
      </trkpt>
      <trkpt lat="43.42" lon="6.64847">
        <ele>108.1</ele>
        <time>2025-01-19T09:14:13Z</time>
      </trkpt>
      <trkpt lat="43.41999" lon="6.64846">
        <ele>108.1</ele>
        <time>2025-01-19T09:14:14Z</time>
      </trkpt>
      <trkpt lat="43.41998" lon="6.64845">
        <ele>108.1</ele>
        <time>2025-01-19T09:14:15Z</time>
      </trkpt>
      <trkpt lat="43.41997" lon="6.64844">
        <ele>108.1</ele>
        <time>2025-01-19T09:14:16Z</time>
      </trkpt>
      <trkpt lat="43.41996" lon="6.64844">
        <ele>108.1</ele>
        <time>2025-01-19T09:14:17Z</time>
      </trkpt>
      <trkpt lat="43.41994" lon="6.64843">
        <ele>108.1</ele>
        <time>2025-01-19T09:14:18Z</time>
      </trkpt>
      <trkpt lat="43.41993" lon="6.64842">
        <ele>108</ele>
        <time>2025-01-19T09:14:19Z</time>
      </trkpt>
      <trkpt lat="43.41993" lon="6.64841">
        <ele>108</ele>
        <time>2025-01-19T09:14:20Z</time>
      </trkpt>
      <trkpt lat="43.41992" lon="6.64841">
        <ele>108</ele>
        <time>2025-01-19T09:14:21Z</time>
      </trkpt>
      <trkpt lat="43.41992" lon="6.6484">
        <ele>108</ele>
        <time>2025-01-19T09:14:22Z</time>
      </trkpt>
      <trkpt lat="43.41991" lon="6.6484">
        <ele>108</ele>
        <time>2025-01-19T09:14:23Z</time>
      </trkpt>
      <trkpt lat="43.41991" lon="6.6484">
        <ele>107.9</ele>
        <time>2025-01-19T09:14:24Z</time>
      </trkpt>
      <trkpt lat="43.41991" lon="6.6484">
        <ele>107.9</ele>
        <time>2025-01-19T09:14:25Z</time>
      </trkpt>
      <trkpt lat="43.41991" lon="6.6484">
        <ele>107.8</ele>
        <time>2025-01-19T09:14:26Z</time>
      </trkpt>
      <trkpt lat="43.41991" lon="6.6484">
        <ele>107.7</ele>
        <time>2025-01-19T09:14:27Z</time>
      </trkpt>
      <trkpt lat="43.41991" lon="6.6484">
        <ele>107.8</ele>
        <time>2025-01-19T09:14:28Z</time>
      </trkpt>
      <trkpt lat="43.41991" lon="6.6484">
        <ele>107.8</ele>
        <time>2025-01-19T09:14:29Z</time>
      </trkpt>
      <trkpt lat="43.41992" lon="6.6484">
        <ele>107.8</ele>
        <time>2025-01-19T09:14:30Z</time>
      </trkpt>
      <trkpt lat="43.41992" lon="6.6484">
        <ele>107.8</ele>
        <time>2025-01-19T09:14:31Z</time>
      </trkpt>
      <trkpt lat="43.41992" lon="6.6484">
        <ele>107.9</ele>
        <time>2025-01-19T09:14:32Z</time>
      </trkpt>
      <trkpt lat="43.41992" lon="6.6484">
        <ele>107.9</ele>
        <time>2025-01-19T09:14:33Z</time>
      </trkpt>
      <trkpt lat="43.41992" lon="6.6484">
        <ele>107.9</ele>
        <time>2025-01-19T09:14:34Z</time>
      </trkpt>
      <trkpt lat="43.41992" lon="6.6484">
        <ele>107.9</ele>
        <time>2025-01-19T09:14:35Z</time>
      </trkpt>
      <trkpt lat="43.41992" lon="6.6484">
        <ele>108</ele>
        <time>2025-01-19T09:14:36Z</time>
      </trkpt>
      <trkpt lat="43.41991" lon="6.6484">
        <ele>107.9</ele>
        <time>2025-01-19T09:14:37Z</time>
      </trkpt>
      <trkpt lat="43.41992" lon="6.6484">
        <ele>107.9</ele>
        <time>2025-01-19T09:14:38Z</time>
      </trkpt>
      <trkpt lat="43.41992" lon="6.6484">
        <ele>107.9</ele>
        <time>2025-01-19T09:14:39Z</time>
      </trkpt>
      <trkpt lat="43.41992" lon="6.6484">
        <ele>107.8</ele>
        <time>2025-01-19T09:14:40Z</time>
      </trkpt>
      <trkpt lat="43.41991" lon="6.6484">
        <ele>107.7</ele>
        <time>2025-01-19T09:14:41Z</time>
      </trkpt>
      <trkpt lat="43.41992" lon="6.6484">
        <ele>107.6</ele>
        <time>2025-01-19T09:14:42Z</time>
      </trkpt>
      <trkpt lat="43.41992" lon="6.6484">
        <ele>107.5</ele>
        <time>2025-01-19T09:14:43Z</time>
      </trkpt>
      <trkpt lat="43.41992" lon="6.6484">
        <ele>107.5</ele>
        <time>2025-01-19T09:14:44Z</time>
      </trkpt>
      <trkpt lat="43.41992" lon="6.6484">
        <ele>107.5</ele>
        <time>2025-01-19T09:14:45Z</time>
      </trkpt>
      <trkpt lat="43.41992" lon="6.64839">
        <ele>107.5</ele>
        <time>2025-01-19T09:14:46Z</time>
      </trkpt>
      <trkpt lat="43.41992" lon="6.6484">
        <ele>107.5</ele>
        <time>2025-01-19T09:14:47Z</time>
      </trkpt>
      <trkpt lat="43.41992" lon="6.6484">
        <ele>107.5</ele>
        <time>2025-01-19T09:14:48Z</time>
      </trkpt>
      <trkpt lat="43.41992" lon="6.6484">
        <ele>107.5</ele>
        <time>2025-01-19T09:14:49Z</time>
      </trkpt>
      <trkpt lat="43.41992" lon="6.6484">
        <ele>107.5</ele>
        <time>2025-01-19T09:14:50Z</time>
      </trkpt>
      <trkpt lat="43.41992" lon="6.6484">
        <ele>107.6</ele>
        <time>2025-01-19T09:14:51Z</time>
      </trkpt>
      <trkpt lat="43.41992" lon="6.6484">
        <ele>107.5</ele>
        <time>2025-01-19T09:14:52Z</time>
      </trkpt>
      <trkpt lat="43.41992" lon="6.6484">
        <ele>107.6</ele>
        <time>2025-01-19T09:14:53Z</time>
      </trkpt>
      <trkpt lat="43.41992" lon="6.6484">
        <ele>107.6</ele>
        <time>2025-01-19T09:14:54Z</time>
      </trkpt>
      <trkpt lat="43.41992" lon="6.6484">
        <ele>107.6</ele>
        <time>2025-01-19T09:14:55Z</time>
      </trkpt>
      <trkpt lat="43.41992" lon="6.6484">
        <ele>107.6</ele>
        <time>2025-01-19T09:14:56Z</time>
      </trkpt>
      <trkpt lat="43.41992" lon="6.6484">
        <ele>107.6</ele>
        <time>2025-01-19T09:14:57Z</time>
      </trkpt>
      <trkpt lat="43.41993" lon="6.6484">
        <ele>107.6</ele>
        <time>2025-01-19T09:14:58Z</time>
      </trkpt>
      <trkpt lat="43.41993" lon="6.6484">
        <ele>107.6</ele>
        <time>2025-01-19T09:14:59Z</time>
      </trkpt>
      <trkpt lat="43.41993" lon="6.6484">
        <ele>107.7</ele>
        <time>2025-01-19T09:15:00Z</time>
      </trkpt>
      <trkpt lat="43.41993" lon="6.6484">
        <ele>107.7</ele>
        <time>2025-01-19T09:15:01Z</time>
      </trkpt>
      <trkpt lat="43.41993" lon="6.6484">
        <ele>107.8</ele>
        <time>2025-01-19T09:15:02Z</time>
      </trkpt>
      <trkpt lat="43.41993" lon="6.6484">
        <ele>107.8</ele>
        <time>2025-01-19T09:15:03Z</time>
      </trkpt>
      <trkpt lat="43.41993" lon="6.6484">
        <ele>107.8</ele>
        <time>2025-01-19T09:15:04Z</time>
      </trkpt>
      <trkpt lat="43.41993" lon="6.6484">
        <ele>107.8</ele>
        <time>2025-01-19T09:15:05Z</time>
      </trkpt>
      <trkpt lat="43.41993" lon="6.6484">
        <ele>107.7</ele>
        <time>2025-01-19T09:15:06Z</time>
      </trkpt>
      <trkpt lat="43.41993" lon="6.6484">
        <ele>107.7</ele>
        <time>2025-01-19T09:15:07Z</time>
      </trkpt>
      <trkpt lat="43.41993" lon="6.6484">
        <ele>107.7</ele>
        <time>2025-01-19T09:15:08Z</time>
      </trkpt>
      <trkpt lat="43.41994" lon="6.6484">
        <ele>107.7</ele>
        <time>2025-01-19T09:15:09Z</time>
      </trkpt>
      <trkpt lat="43.41994" lon="6.6484">
        <ele>107.6</ele>
        <time>2025-01-19T09:15:10Z</time>
      </trkpt>
      <trkpt lat="43.41994" lon="6.64839">
        <ele>107.6</ele>
        <time>2025-01-19T09:15:11Z</time>
      </trkpt>
      <trkpt lat="43.41994" lon="6.64839">
        <ele>107.6</ele>
        <time>2025-01-19T09:15:12Z</time>
      </trkpt>
      <trkpt lat="43.41994" lon="6.64839">
        <ele>107.5</ele>
        <time>2025-01-19T09:15:13Z</time>
      </trkpt>
      <trkpt lat="43.41994" lon="6.64839">
        <ele>107.5</ele>
        <time>2025-01-19T09:15:14Z</time>
      </trkpt>
      <trkpt lat="43.41994" lon="6.64839">
        <ele>107.4</ele>
        <time>2025-01-19T09:15:15Z</time>
      </trkpt>
      <trkpt lat="43.41994" lon="6.64839">
        <ele>107.5</ele>
        <time>2025-01-19T09:15:16Z</time>
      </trkpt>
      <trkpt lat="43.41994" lon="6.64839">
        <ele>107.5</ele>
        <time>2025-01-19T09:15:17Z</time>
      </trkpt>
      <trkpt lat="43.41994" lon="6.64839">
        <ele>107.6</ele>
        <time>2025-01-19T09:15:18Z</time>
      </trkpt>
      <trkpt lat="43.41994" lon="6.64839">
        <ele>107.5</ele>
        <time>2025-01-19T09:15:19Z</time>
      </trkpt>
      <trkpt lat="43.41994" lon="6.64839">
        <ele>107.4</ele>
        <time>2025-01-19T09:15:20Z</time>
      </trkpt>
      <trkpt lat="43.41995" lon="6.64839">
        <ele>107.3</ele>
        <time>2025-01-19T09:15:21Z</time>
      </trkpt>
      <trkpt lat="43.41995" lon="6.64839">
        <ele>107.3</ele>
        <time>2025-01-19T09:15:22Z</time>
      </trkpt>
      <trkpt lat="43.41995" lon="6.64839">
        <ele>107.3</ele>
        <time>2025-01-19T09:15:23Z</time>
      </trkpt>
      <trkpt lat="43.41995" lon="6.64839">
        <ele>107.4</ele>
        <time>2025-01-19T09:15:24Z</time>
      </trkpt>
      <trkpt lat="43.41995" lon="6.64839">
        <ele>107.5</ele>
        <time>2025-01-19T09:15:25Z</time>
      </trkpt>
      <trkpt lat="43.41995" lon="6.64839">
        <ele>107.7</ele>
        <time>2025-01-19T09:15:26Z</time>
      </trkpt>
      <trkpt lat="43.41995" lon="6.64839">
        <ele>107.8</ele>
        <time>2025-01-19T09:15:27Z</time>
      </trkpt>
      <trkpt lat="43.41995" lon="6.64839">
        <ele>107.8</ele>
        <time>2025-01-19T09:15:28Z</time>
      </trkpt>
      <trkpt lat="43.41995" lon="6.64839">
        <ele>107.9</ele>
        <time>2025-01-19T09:15:29Z</time>
      </trkpt>
      <trkpt lat="43.41995" lon="6.64839">
        <ele>107.9</ele>
        <time>2025-01-19T09:15:30Z</time>
      </trkpt>
      <trkpt lat="43.41995" lon="6.64839">
        <ele>107.9</ele>
        <time>2025-01-19T09:15:31Z</time>
      </trkpt>
      <trkpt lat="43.41995" lon="6.64839">
        <ele>107.9</ele>
        <time>2025-01-19T09:15:32Z</time>
      </trkpt>
      <trkpt lat="43.41995" lon="6.64839">
        <ele>107.9</ele>
        <time>2025-01-19T09:15:33Z</time>
      </trkpt>
      <trkpt lat="43.41995" lon="6.64839">
        <ele>108</ele>
        <time>2025-01-19T09:15:34Z</time>
      </trkpt>
      <trkpt lat="43.41995" lon="6.64839">
        <ele>107.9</ele>
        <time>2025-01-19T09:15:35Z</time>
      </trkpt>
      <trkpt lat="43.41994" lon="6.64839">
        <ele>107.9</ele>
        <time>2025-01-19T09:15:36Z</time>
      </trkpt>
      <trkpt lat="43.41994" lon="6.64839">
        <ele>107.9</ele>
        <time>2025-01-19T09:15:37Z</time>
      </trkpt>
      <trkpt lat="43.41994" lon="6.64839">
        <ele>107.8</ele>
        <time>2025-01-19T09:15:38Z</time>
      </trkpt>
      <trkpt lat="43.41994" lon="6.64839">
        <ele>107.8</ele>
        <time>2025-01-19T09:15:39Z</time>
      </trkpt>
      <trkpt lat="43.41994" lon="6.64839">
        <ele>107.8</ele>
        <time>2025-01-19T09:15:40Z</time>
      </trkpt>
      <trkpt lat="43.41994" lon="6.64838">
        <ele>107.8</ele>
        <time>2025-01-19T09:15:41Z</time>
      </trkpt>
      <trkpt lat="43.41994" lon="6.64838">
        <ele>107.8</ele>
        <time>2025-01-19T09:15:42Z</time>
      </trkpt>
      <trkpt lat="43.41994" lon="6.64838">
        <ele>107.7</ele>
        <time>2025-01-19T09:15:43Z</time>
      </trkpt>
      <trkpt lat="43.41994" lon="6.64838">
        <ele>107.7</ele>
        <time>2025-01-19T09:15:44Z</time>
      </trkpt>
      <trkpt lat="43.41994" lon="6.64838">
        <ele>107.7</ele>
        <time>2025-01-19T09:15:45Z</time>
      </trkpt>
      <trkpt lat="43.41994" lon="6.64838">
        <ele>107.6</ele>
        <time>2025-01-19T09:15:46Z</time>
      </trkpt>
      <trkpt lat="43.41994" lon="6.64838">
        <ele>107.6</ele>
        <time>2025-01-19T09:15:47Z</time>
      </trkpt>
      <trkpt lat="43.41994" lon="6.64838">
        <ele>107.7</ele>
        <time>2025-01-19T09:15:48Z</time>
      </trkpt>
      <trkpt lat="43.41994" lon="6.64838">
        <ele>107.7</ele>
        <time>2025-01-19T09:15:49Z</time>
      </trkpt>
      <trkpt lat="43.41994" lon="6.64838">
        <ele>107.7</ele>
        <time>2025-01-19T09:15:50Z</time>
      </trkpt>
      <trkpt lat="43.41994" lon="6.64838">
        <ele>107.7</ele>
        <time>2025-01-19T09:15:51Z</time>
      </trkpt>
      <trkpt lat="43.41994" lon="6.64838">
        <ele>107.7</ele>
        <time>2025-01-19T09:15:52Z</time>
      </trkpt>
      <trkpt lat="43.41994" lon="6.64838">
        <ele>107.7</ele>
        <time>2025-01-19T09:15:53Z</time>
      </trkpt>
      <trkpt lat="43.41994" lon="6.64838">
        <ele>107.6</ele>
        <time>2025-01-19T09:15:54Z</time>
      </trkpt>
      <trkpt lat="43.41994" lon="6.64838">
        <ele>107.6</ele>
        <time>2025-01-19T09:15:55Z</time>
      </trkpt>
      <trkpt lat="43.41994" lon="6.64838">
        <ele>107.6</ele>
        <time>2025-01-19T09:15:56Z</time>
      </trkpt>
      <trkpt lat="43.41994" lon="6.64838">
        <ele>107.6</ele>
        <time>2025-01-19T09:15:57Z</time>
      </trkpt>
      <trkpt lat="43.41994" lon="6.64838">
        <ele>107.7</ele>
        <time>2025-01-19T09:15:58Z</time>
      </trkpt>
      <trkpt lat="43.41994" lon="6.64838">
        <ele>107.7</ele>
        <time>2025-01-19T09:15:59Z</time>
      </trkpt>
      <trkpt lat="43.41994" lon="6.64838">
        <ele>107.6</ele>
        <time>2025-01-19T09:16:00Z</time>
      </trkpt>
      <trkpt lat="43.41994" lon="6.64838">
        <ele>107.5</ele>
        <time>2025-01-19T09:16:01Z</time>
      </trkpt>
      <trkpt lat="43.41994" lon="6.64838">
        <ele>107.5</ele>
        <time>2025-01-19T09:16:02Z</time>
      </trkpt>
      <trkpt lat="43.41994" lon="6.64838">
        <ele>107.5</ele>
        <time>2025-01-19T09:16:03Z</time>
      </trkpt>
      <trkpt lat="43.41994" lon="6.64838">
        <ele>107.5</ele>
        <time>2025-01-19T09:16:04Z</time>
      </trkpt>
      <trkpt lat="43.41994" lon="6.64838">
        <ele>107.6</ele>
        <time>2025-01-19T09:16:05Z</time>
      </trkpt>
      <trkpt lat="43.41994" lon="6.64838">
        <ele>107.6</ele>
        <time>2025-01-19T09:16:06Z</time>
      </trkpt>
      <trkpt lat="43.41994" lon="6.64838">
        <ele>107.7</ele>
        <time>2025-01-19T09:16:07Z</time>
      </trkpt>
      <trkpt lat="43.41993" lon="6.64838">
        <ele>107.7</ele>
        <time>2025-01-19T09:16:08Z</time>
      </trkpt>
      <trkpt lat="43.41993" lon="6.64838">
        <ele>107.7</ele>
        <time>2025-01-19T09:16:09Z</time>
      </trkpt>
      <trkpt lat="43.41993" lon="6.64838">
        <ele>107.7</ele>
        <time>2025-01-19T09:16:10Z</time>
      </trkpt>
      <trkpt lat="43.41993" lon="6.64838">
        <ele>107.7</ele>
        <time>2025-01-19T09:16:11Z</time>
      </trkpt>
      <trkpt lat="43.41993" lon="6.64838">
        <ele>107.7</ele>
        <time>2025-01-19T09:16:12Z</time>
      </trkpt>
      <trkpt lat="43.41993" lon="6.64838">
        <ele>107.7</ele>
        <time>2025-01-19T09:16:13Z</time>
      </trkpt>
      <trkpt lat="43.41993" lon="6.64838">
        <ele>107.7</ele>
        <time>2025-01-19T09:16:14Z</time>
      </trkpt>
      <trkpt lat="43.41993" lon="6.64837">
        <ele>107.6</ele>
        <time>2025-01-19T09:16:15Z</time>
      </trkpt>
      <trkpt lat="43.41993" lon="6.64838">
        <ele>107.6</ele>
        <time>2025-01-19T09:16:16Z</time>
      </trkpt>
      <trkpt lat="43.41993" lon="6.64838">
        <ele>107.6</ele>
        <time>2025-01-19T09:16:17Z</time>
      </trkpt>
      <trkpt lat="43.41993" lon="6.64838">
        <ele>107.5</ele>
        <time>2025-01-19T09:16:18Z</time>
      </trkpt>
      <trkpt lat="43.41993" lon="6.64837">
        <ele>107.5</ele>
        <time>2025-01-19T09:16:19Z</time>
      </trkpt>
      <trkpt lat="43.41993" lon="6.64838">
        <ele>107.5</ele>
        <time>2025-01-19T09:16:20Z</time>
      </trkpt>
      <trkpt lat="43.41993" lon="6.64838">
        <ele>107.7</ele>
        <time>2025-01-19T09:16:21Z</time>
      </trkpt>
      <trkpt lat="43.41992" lon="6.64838">
        <ele>107.7</ele>
        <time>2025-01-19T09:16:22Z</time>
      </trkpt>
      <trkpt lat="43.41992" lon="6.64838">
        <ele>107.7</ele>
        <time>2025-01-19T09:16:23Z</time>
      </trkpt>
      <trkpt lat="43.41991" lon="6.64839">
        <ele>107.6</ele>
        <time>2025-01-19T09:16:24Z</time>
      </trkpt>
      <trkpt lat="43.41992" lon="6.64838">
        <ele>107.6</ele>
        <time>2025-01-19T09:16:25Z</time>
      </trkpt>
      <trkpt lat="43.41992" lon="6.64839">
        <ele>107.6</ele>
        <time>2025-01-19T09:16:26Z</time>
      </trkpt>
      <trkpt lat="43.41991" lon="6.64839">
        <ele>107.6</ele>
        <time>2025-01-19T09:16:27Z</time>
      </trkpt>
      <trkpt lat="43.41991" lon="6.64839">
        <ele>107.6</ele>
        <time>2025-01-19T09:16:28Z</time>
      </trkpt>
      <trkpt lat="43.41991" lon="6.64839">
        <ele>107.7</ele>
        <time>2025-01-19T09:16:29Z</time>
      </trkpt>
      <trkpt lat="43.41991" lon="6.64839">
        <ele>107.8</ele>
        <time>2025-01-19T09:16:30Z</time>
      </trkpt>
      <trkpt lat="43.41991" lon="6.64839">
        <ele>107.9</ele>
        <time>2025-01-19T09:16:31Z</time>
      </trkpt>
      <trkpt lat="43.41991" lon="6.64839">
        <ele>108</ele>
        <time>2025-01-19T09:16:32Z</time>
      </trkpt>
      <trkpt lat="43.41991" lon="6.6484">
        <ele>108</ele>
        <time>2025-01-19T09:16:33Z</time>
      </trkpt>
      <trkpt lat="43.41991" lon="6.6484">
        <ele>107.9</ele>
        <time>2025-01-19T09:16:34Z</time>
      </trkpt>
      <trkpt lat="43.41991" lon="6.6484">
        <ele>107.8</ele>
        <time>2025-01-19T09:16:35Z</time>
      </trkpt>
      <trkpt lat="43.4199" lon="6.6484">
        <ele>107.8</ele>
        <time>2025-01-19T09:16:36Z</time>
      </trkpt>
      <trkpt lat="43.41991" lon="6.6484">
        <ele>107.7</ele>
        <time>2025-01-19T09:16:37Z</time>
      </trkpt>
      <trkpt lat="43.4199" lon="6.6484">
        <ele>107.6</ele>
        <time>2025-01-19T09:16:38Z</time>
      </trkpt>
      <trkpt lat="43.4199" lon="6.6484">
        <ele>107.6</ele>
        <time>2025-01-19T09:16:39Z</time>
      </trkpt>
      <trkpt lat="43.4199" lon="6.6484">
        <ele>107.6</ele>
        <time>2025-01-19T09:16:40Z</time>
      </trkpt>
      <trkpt lat="43.4199" lon="6.6484">
        <ele>107.6</ele>
        <time>2025-01-19T09:16:41Z</time>
      </trkpt>
      <trkpt lat="43.4199" lon="6.6484">
        <ele>107.7</ele>
        <time>2025-01-19T09:16:42Z</time>
      </trkpt>
      <trkpt lat="43.41991" lon="6.6484">
        <ele>107.7</ele>
        <time>2025-01-19T09:16:43Z</time>
      </trkpt>
      <trkpt lat="43.4199" lon="6.6484">
        <ele>107.7</ele>
        <time>2025-01-19T09:16:44Z</time>
      </trkpt>
      <trkpt lat="43.4199" lon="6.64841">
        <ele>107.7</ele>
        <time>2025-01-19T09:16:45Z</time>
      </trkpt>
      <trkpt lat="43.4199" lon="6.6484">
        <ele>107.7</ele>
        <time>2025-01-19T09:16:46Z</time>
      </trkpt>
      <trkpt lat="43.4199" lon="6.64841">
        <ele>107.8</ele>
        <time>2025-01-19T09:16:47Z</time>
      </trkpt>
      <trkpt lat="43.4199" lon="6.64841">
        <ele>107.8</ele>
        <time>2025-01-19T09:16:48Z</time>
      </trkpt>
      <trkpt lat="43.4199" lon="6.64841">
        <ele>107.8</ele>
        <time>2025-01-19T09:16:49Z</time>
      </trkpt>
      <trkpt lat="43.4199" lon="6.64841">
        <ele>107.9</ele>
        <time>2025-01-19T09:16:50Z</time>
      </trkpt>
      <trkpt lat="43.4199" lon="6.64841">
        <ele>107.9</ele>
        <time>2025-01-19T09:16:51Z</time>
      </trkpt>
      <trkpt lat="43.4199" lon="6.64841">
        <ele>107.8</ele>
        <time>2025-01-19T09:16:52Z</time>
      </trkpt>
      <trkpt lat="43.4199" lon="6.64841">
        <ele>108</ele>
        <time>2025-01-19T09:16:53Z</time>
      </trkpt>
      <trkpt lat="43.4199" lon="6.64841">
        <ele>108.1</ele>
        <time>2025-01-19T09:16:54Z</time>
      </trkpt>
      <trkpt lat="43.4199" lon="6.6484">
        <ele>108.1</ele>
        <time>2025-01-19T09:16:55Z</time>
      </trkpt>
      <trkpt lat="43.4199" lon="6.6484">
        <ele>108.1</ele>
        <time>2025-01-19T09:16:56Z</time>
      </trkpt>
      <trkpt lat="43.4199" lon="6.6484">
        <ele>108.1</ele>
        <time>2025-01-19T09:16:57Z</time>
      </trkpt>
      <trkpt lat="43.4199" lon="6.6484">
        <ele>108.1</ele>
        <time>2025-01-19T09:16:58Z</time>
      </trkpt>
      <trkpt lat="43.4199" lon="6.6484">
        <ele>108.1</ele>
        <time>2025-01-19T09:16:59Z</time>
      </trkpt>
      <trkpt lat="43.4199" lon="6.6484">
        <ele>108.1</ele>
        <time>2025-01-19T09:17:00Z</time>
      </trkpt>
      <trkpt lat="43.4199" lon="6.6484">
        <ele>108.1</ele>
        <time>2025-01-19T09:17:01Z</time>
      </trkpt>
      <trkpt lat="43.4199" lon="6.6484">
        <ele>108</ele>
        <time>2025-01-19T09:17:02Z</time>
      </trkpt>
      <trkpt lat="43.4199" lon="6.6484">
        <ele>108</ele>
        <time>2025-01-19T09:17:03Z</time>
      </trkpt>
      <trkpt lat="43.41989" lon="6.6484">
        <ele>108</ele>
        <time>2025-01-19T09:17:04Z</time>
      </trkpt>
      <trkpt lat="43.41989" lon="6.6484">
        <ele>107.9</ele>
        <time>2025-01-19T09:17:05Z</time>
      </trkpt>
      <trkpt lat="43.41989" lon="6.6484">
        <ele>108</ele>
        <time>2025-01-19T09:17:06Z</time>
      </trkpt>
      <trkpt lat="43.41989" lon="6.6484">
        <ele>108</ele>
        <time>2025-01-19T09:17:07Z</time>
      </trkpt>
      <trkpt lat="43.41989" lon="6.6484">
        <ele>108</ele>
        <time>2025-01-19T09:17:08Z</time>
      </trkpt>
      <trkpt lat="43.4199" lon="6.6484">
        <ele>108</ele>
        <time>2025-01-19T09:17:09Z</time>
      </trkpt>
      <trkpt lat="43.41989" lon="6.6484">
        <ele>108</ele>
        <time>2025-01-19T09:17:10Z</time>
      </trkpt>
      <trkpt lat="43.41989" lon="6.6484">
        <ele>108.1</ele>
        <time>2025-01-19T09:17:11Z</time>
      </trkpt>
      <trkpt lat="43.41989" lon="6.64841">
        <ele>108.1</ele>
        <time>2025-01-19T09:17:12Z</time>
      </trkpt>
      <trkpt lat="43.41989" lon="6.64841">
        <ele>108</ele>
        <time>2025-01-19T09:17:13Z</time>
      </trkpt>
      <trkpt lat="43.41989" lon="6.64841">
        <ele>107.9</ele>
        <time>2025-01-19T09:17:14Z</time>
      </trkpt>
      <trkpt lat="43.41989" lon="6.6484">
        <ele>108</ele>
        <time>2025-01-19T09:17:15Z</time>
      </trkpt>
      <trkpt lat="43.41989" lon="6.6484">
        <ele>107.9</ele>
        <time>2025-01-19T09:17:16Z</time>
      </trkpt>
      <trkpt lat="43.41989" lon="6.64841">
        <ele>107.9</ele>
        <time>2025-01-19T09:17:17Z</time>
      </trkpt>
      <trkpt lat="43.41989" lon="6.64841">
        <ele>107.9</ele>
        <time>2025-01-19T09:17:18Z</time>
      </trkpt>
      <trkpt lat="43.41989" lon="6.64841">
        <ele>107.9</ele>
        <time>2025-01-19T09:17:19Z</time>
      </trkpt>
      <trkpt lat="43.41989" lon="6.64841">
        <ele>107.8</ele>
        <time>2025-01-19T09:17:20Z</time>
      </trkpt>
      <trkpt lat="43.41989" lon="6.64841">
        <ele>107.8</ele>
        <time>2025-01-19T09:17:21Z</time>
      </trkpt>
      <trkpt lat="43.41989" lon="6.64841">
        <ele>107.7</ele>
        <time>2025-01-19T09:17:22Z</time>
      </trkpt>
      <trkpt lat="43.41989" lon="6.64841">
        <ele>107.7</ele>
        <time>2025-01-19T09:17:23Z</time>
      </trkpt>
      <trkpt lat="43.4199" lon="6.64841">
        <ele>107.9</ele>
        <time>2025-01-19T09:17:24Z</time>
      </trkpt>
      <trkpt lat="43.4199" lon="6.64842">
        <ele>107.8</ele>
        <time>2025-01-19T09:17:25Z</time>
      </trkpt>
      <trkpt lat="43.4199" lon="6.64842">
        <ele>107.8</ele>
        <time>2025-01-19T09:17:26Z</time>
      </trkpt>
      <trkpt lat="43.4199" lon="6.64842">
        <ele>107.8</ele>
        <time>2025-01-19T09:17:27Z</time>
      </trkpt>
      <trkpt lat="43.4199" lon="6.64842">
        <ele>107.8</ele>
        <time>2025-01-19T09:17:28Z</time>
      </trkpt>
      <trkpt lat="43.4199" lon="6.64842">
        <ele>107.8</ele>
        <time>2025-01-19T09:17:29Z</time>
      </trkpt>
      <trkpt lat="43.41989" lon="6.64842">
        <ele>107.8</ele>
        <time>2025-01-19T09:17:30Z</time>
      </trkpt>
      <trkpt lat="43.41989" lon="6.64842">
        <ele>107.8</ele>
        <time>2025-01-19T09:17:31Z</time>
      </trkpt>
      <trkpt lat="43.4199" lon="6.64842">
        <ele>107.8</ele>
        <time>2025-01-19T09:17:32Z</time>
      </trkpt>
      <trkpt lat="43.4199" lon="6.64842">
        <ele>107.7</ele>
        <time>2025-01-19T09:17:33Z</time>
      </trkpt>
      <trkpt lat="43.4199" lon="6.64842">
        <ele>107.7</ele>
        <time>2025-01-19T09:17:34Z</time>
      </trkpt>
      <trkpt lat="43.4199" lon="6.64842">
        <ele>107.7</ele>
        <time>2025-01-19T09:17:35Z</time>
      </trkpt>
      <trkpt lat="43.4199" lon="6.64842">
        <ele>107.7</ele>
        <time>2025-01-19T09:17:36Z</time>
      </trkpt>
      <trkpt lat="43.4199" lon="6.64842">
        <ele>107.6</ele>
        <time>2025-01-19T09:17:37Z</time>
      </trkpt>
      <trkpt lat="43.41991" lon="6.64842">
        <ele>107.5</ele>
        <time>2025-01-19T09:17:38Z</time>
      </trkpt>
      <trkpt lat="43.4199" lon="6.64842">
        <ele>107.4</ele>
        <time>2025-01-19T09:17:39Z</time>
      </trkpt>
      <trkpt lat="43.4199" lon="6.64842">
        <ele>107.3</ele>
        <time>2025-01-19T09:17:40Z</time>
      </trkpt>
      <trkpt lat="43.4199" lon="6.64843">
        <ele>107.3</ele>
        <time>2025-01-19T09:17:41Z</time>
      </trkpt>
      <trkpt lat="43.41991" lon="6.64844">
        <ele>107.3</ele>
        <time>2025-01-19T09:17:42Z</time>
      </trkpt>
      <trkpt lat="43.41991" lon="6.64844">
        <ele>107.3</ele>
        <time>2025-01-19T09:17:43Z</time>
      </trkpt>
      <trkpt lat="43.41992" lon="6.64845">
        <ele>107.2</ele>
        <time>2025-01-19T09:17:44Z</time>
      </trkpt>
      <trkpt lat="43.41992" lon="6.64845">
        <ele>107.2</ele>
        <time>2025-01-19T09:17:45Z</time>
      </trkpt>
      <trkpt lat="43.41992" lon="6.64846">
        <ele>107.2</ele>
        <time>2025-01-19T09:17:46Z</time>
      </trkpt>
      <trkpt lat="43.41993" lon="6.64846">
        <ele>107</ele>
        <time>2025-01-19T09:17:47Z</time>
      </trkpt>
      <trkpt lat="43.41993" lon="6.64845">
        <ele>108</ele>
        <time>2025-01-19T09:17:48Z</time>
      </trkpt>
      <trkpt lat="43.41994" lon="6.64845">
        <ele>108</ele>
        <time>2025-01-19T09:17:49Z</time>
      </trkpt>
      <trkpt lat="43.41995" lon="6.64845">
        <ele>107.8</ele>
        <time>2025-01-19T09:17:50Z</time>
      </trkpt>
      <trkpt lat="43.41995" lon="6.64844">
        <ele>107.7</ele>
        <time>2025-01-19T09:17:51Z</time>
      </trkpt>
      <trkpt lat="43.41996" lon="6.64844">
        <ele>107.6</ele>
        <time>2025-01-19T09:17:52Z</time>
      </trkpt>
      <trkpt lat="43.41997" lon="6.64844">
        <ele>107.6</ele>
        <time>2025-01-19T09:17:53Z</time>
      </trkpt>
      <trkpt lat="43.41997" lon="6.64844">
        <ele>107.5</ele>
        <time>2025-01-19T09:17:54Z</time>
      </trkpt>
      <trkpt lat="43.41998" lon="6.64845">
        <ele>107.5</ele>
        <time>2025-01-19T09:17:55Z</time>
      </trkpt>
      <trkpt lat="43.41999" lon="6.64846">
        <ele>107.5</ele>
        <time>2025-01-19T09:17:56Z</time>
      </trkpt>
      <trkpt lat="43.42" lon="6.64846">
        <ele>107.5</ele>
        <time>2025-01-19T09:17:57Z</time>
      </trkpt>
      <trkpt lat="43.42001" lon="6.64846">
        <ele>107.6</ele>
        <time>2025-01-19T09:17:58Z</time>
      </trkpt>
      <trkpt lat="43.42001" lon="6.64847">
        <ele>107.6</ele>
        <time>2025-01-19T09:17:59Z</time>
      </trkpt>
      <trkpt lat="43.42002" lon="6.64847">
        <ele>107.7</ele>
        <time>2025-01-19T09:18:00Z</time>
      </trkpt>
      <trkpt lat="43.42002" lon="6.64848">
        <ele>107.7</ele>
        <time>2025-01-19T09:18:01Z</time>
      </trkpt>
      <trkpt lat="43.42003" lon="6.64849">
        <ele>107.7</ele>
        <time>2025-01-19T09:18:02Z</time>
      </trkpt>
      <trkpt lat="43.42004" lon="6.64849">
        <ele>107.7</ele>
        <time>2025-01-19T09:18:03Z</time>
      </trkpt>
      <trkpt lat="43.42004" lon="6.64849">
        <ele>107.7</ele>
        <time>2025-01-19T09:18:04Z</time>
      </trkpt>
      <trkpt lat="43.42005" lon="6.6485">
        <ele>107.7</ele>
        <time>2025-01-19T09:18:05Z</time>
      </trkpt>
      <trkpt lat="43.42005" lon="6.6485">
        <ele>107.6</ele>
        <time>2025-01-19T09:18:06Z</time>
      </trkpt>
      <trkpt lat="43.42006" lon="6.64851">
        <ele>107.6</ele>
        <time>2025-01-19T09:18:07Z</time>
      </trkpt>
      <trkpt lat="43.42007" lon="6.64851">
        <ele>107.7</ele>
        <time>2025-01-19T09:18:08Z</time>
      </trkpt>
      <trkpt lat="43.42008" lon="6.64852">
        <ele>107.7</ele>
        <time>2025-01-19T09:18:09Z</time>
      </trkpt>
      <trkpt lat="43.42009" lon="6.64853">
        <ele>107.6</ele>
        <time>2025-01-19T09:18:10Z</time>
      </trkpt>
      <trkpt lat="43.42009" lon="6.64854">
        <ele>107.6</ele>
        <time>2025-01-19T09:18:11Z</time>
      </trkpt>
      <trkpt lat="43.4201" lon="6.64855">
        <ele>107.6</ele>
        <time>2025-01-19T09:18:12Z</time>
      </trkpt>
      <trkpt lat="43.4201" lon="6.64855">
        <ele>107.6</ele>
        <time>2025-01-19T09:18:13Z</time>
      </trkpt>
      <trkpt lat="43.42011" lon="6.64856">
        <ele>107.7</ele>
        <time>2025-01-19T09:18:14Z</time>
      </trkpt>
      <trkpt lat="43.42012" lon="6.64857">
        <ele>107.7</ele>
        <time>2025-01-19T09:18:15Z</time>
      </trkpt>
      <trkpt lat="43.42012" lon="6.64858">
        <ele>107.8</ele>
        <time>2025-01-19T09:18:16Z</time>
      </trkpt>
      <trkpt lat="43.42014" lon="6.64859">
        <ele>107.8</ele>
        <time>2025-01-19T09:18:17Z</time>
      </trkpt>
      <trkpt lat="43.42015" lon="6.6486">
        <ele>107.7</ele>
        <time>2025-01-19T09:18:18Z</time>
      </trkpt>
      <trkpt lat="43.42015" lon="6.64861">
        <ele>107.7</ele>
        <time>2025-01-19T09:18:19Z</time>
      </trkpt>
      <trkpt lat="43.42016" lon="6.64862">
        <ele>107.7</ele>
        <time>2025-01-19T09:18:20Z</time>
      </trkpt>
      <trkpt lat="43.42016" lon="6.64863">
        <ele>107.7</ele>
        <time>2025-01-19T09:18:21Z</time>
      </trkpt>
      <trkpt lat="43.42016" lon="6.64864">
        <ele>107.7</ele>
        <time>2025-01-19T09:18:22Z</time>
      </trkpt>
      <trkpt lat="43.42017" lon="6.64865">
        <ele>107.7</ele>
        <time>2025-01-19T09:18:23Z</time>
      </trkpt>
      <trkpt lat="43.42018" lon="6.64865">
        <ele>107.7</ele>
        <time>2025-01-19T09:18:24Z</time>
      </trkpt>
      <trkpt lat="43.42018" lon="6.64866">
        <ele>107.8</ele>
        <time>2025-01-19T09:18:25Z</time>
      </trkpt>
      <trkpt lat="43.42018" lon="6.64866">
        <ele>107.9</ele>
        <time>2025-01-19T09:18:26Z</time>
      </trkpt>
      <trkpt lat="43.42019" lon="6.64866">
        <ele>107.9</ele>
        <time>2025-01-19T09:18:27Z</time>
      </trkpt>
      <trkpt lat="43.42019" lon="6.64867">
        <ele>107.9</ele>
        <time>2025-01-19T09:18:28Z</time>
      </trkpt>
      <trkpt lat="43.4202" lon="6.64868">
        <ele>108</ele>
        <time>2025-01-19T09:18:29Z</time>
      </trkpt>
      <trkpt lat="43.42021" lon="6.64869">
        <ele>108</ele>
        <time>2025-01-19T09:18:30Z</time>
      </trkpt>
      <trkpt lat="43.42021" lon="6.64869">
        <ele>108</ele>
        <time>2025-01-19T09:18:31Z</time>
      </trkpt>
      <trkpt lat="43.42022" lon="6.6487">
        <ele>108</ele>
        <time>2025-01-19T09:18:32Z</time>
      </trkpt>
      <trkpt lat="43.42022" lon="6.64871">
        <ele>108</ele>
        <time>2025-01-19T09:18:33Z</time>
      </trkpt>
      <trkpt lat="43.42023" lon="6.64872">
        <ele>108</ele>
        <time>2025-01-19T09:18:34Z</time>
      </trkpt>
      <trkpt lat="43.42024" lon="6.64873">
        <ele>108.1</ele>
        <time>2025-01-19T09:18:35Z</time>
      </trkpt>
      <trkpt lat="43.42025" lon="6.64874">
        <ele>108.1</ele>
        <time>2025-01-19T09:18:36Z</time>
      </trkpt>
      <trkpt lat="43.42025" lon="6.64875">
        <ele>108.2</ele>
        <time>2025-01-19T09:18:37Z</time>
      </trkpt>
      <trkpt lat="43.42026" lon="6.64876">
        <ele>108.2</ele>
        <time>2025-01-19T09:18:38Z</time>
      </trkpt>
      <trkpt lat="43.42027" lon="6.64877">
        <ele>108.2</ele>
        <time>2025-01-19T09:18:39Z</time>
      </trkpt>
      <trkpt lat="43.42028" lon="6.64878">
        <ele>108.2</ele>
        <time>2025-01-19T09:18:40Z</time>
      </trkpt>
      <trkpt lat="43.42028" lon="6.64879">
        <ele>108.2</ele>
        <time>2025-01-19T09:18:41Z</time>
      </trkpt>
      <trkpt lat="43.42029" lon="6.6488">
        <ele>108.2</ele>
        <time>2025-01-19T09:18:42Z</time>
      </trkpt>
      <trkpt lat="43.4203" lon="6.64882">
        <ele>108.1</ele>
        <time>2025-01-19T09:18:43Z</time>
      </trkpt>
      <trkpt lat="43.42031" lon="6.64883">
        <ele>108</ele>
        <time>2025-01-19T09:18:44Z</time>
      </trkpt>
      <trkpt lat="43.42032" lon="6.64883">
        <ele>108</ele>
        <time>2025-01-19T09:18:45Z</time>
      </trkpt>
      <trkpt lat="43.42032" lon="6.64883">
        <ele>108</ele>
        <time>2025-01-19T09:18:46Z</time>
      </trkpt>
      <trkpt lat="43.42031" lon="6.64883">
        <ele>107.9</ele>
        <time>2025-01-19T09:18:47Z</time>
      </trkpt>
      <trkpt lat="43.42031" lon="6.64883">
        <ele>107.9</ele>
        <time>2025-01-19T09:18:48Z</time>
      </trkpt>
      <trkpt lat="43.42031" lon="6.64883">
        <ele>107.8</ele>
        <time>2025-01-19T09:18:49Z</time>
      </trkpt>
      <trkpt lat="43.42031" lon="6.64883">
        <ele>107.8</ele>
        <time>2025-01-19T09:18:50Z</time>
      </trkpt>
      <trkpt lat="43.42031" lon="6.64883">
        <ele>107.8</ele>
        <time>2025-01-19T09:18:51Z</time>
      </trkpt>
      <trkpt lat="43.42031" lon="6.64883">
        <ele>107.7</ele>
        <time>2025-01-19T09:18:52Z</time>
      </trkpt>
      <trkpt lat="43.42031" lon="6.64883">
        <ele>107.7</ele>
        <time>2025-01-19T09:18:53Z</time>
      </trkpt>
      <trkpt lat="43.42032" lon="6.64883">
        <ele>107.7</ele>
        <time>2025-01-19T09:18:54Z</time>
      </trkpt>
      <trkpt lat="43.42032" lon="6.64883">
        <ele>107.7</ele>
        <time>2025-01-19T09:18:55Z</time>
      </trkpt>
      <trkpt lat="43.42032" lon="6.64883">
        <ele>107.7</ele>
        <time>2025-01-19T09:18:56Z</time>
      </trkpt>
      <trkpt lat="43.42032" lon="6.64883">
        <ele>107.6</ele>
        <time>2025-01-19T09:18:57Z</time>
      </trkpt>
      <trkpt lat="43.42032" lon="6.64883">
        <ele>107.7</ele>
        <time>2025-01-19T09:18:58Z</time>
      </trkpt>
      <trkpt lat="43.42032" lon="6.64883">
        <ele>107.7</ele>
        <time>2025-01-19T09:18:59Z</time>
      </trkpt>
      <trkpt lat="43.42033" lon="6.64883">
        <ele>107.6</ele>
        <time>2025-01-19T09:19:00Z</time>
      </trkpt>
      <trkpt lat="43.42033" lon="6.64883">
        <ele>107.6</ele>
        <time>2025-01-19T09:19:01Z</time>
      </trkpt>
      <trkpt lat="43.42033" lon="6.64884">
        <ele>107.6</ele>
        <time>2025-01-19T09:19:02Z</time>
      </trkpt>
      <trkpt lat="43.42034" lon="6.64883">
        <ele>107.6</ele>
        <time>2025-01-19T09:19:03Z</time>
      </trkpt>
      <trkpt lat="43.42034" lon="6.64884">
        <ele>107.5</ele>
        <time>2025-01-19T09:19:04Z</time>
      </trkpt>
      <trkpt lat="43.42034" lon="6.64884">
        <ele>107.5</ele>
        <time>2025-01-19T09:19:05Z</time>
      </trkpt>
      <trkpt lat="43.42035" lon="6.64884">
        <ele>107.5</ele>
        <time>2025-01-19T09:19:06Z</time>
      </trkpt>
      <trkpt lat="43.42036" lon="6.64884">
        <ele>107.4</ele>
        <time>2025-01-19T09:19:07Z</time>
      </trkpt>
      <trkpt lat="43.42036" lon="6.64884">
        <ele>107.4</ele>
        <time>2025-01-19T09:19:08Z</time>
      </trkpt>
      <trkpt lat="43.42036" lon="6.64884">
        <ele>107.4</ele>
        <time>2025-01-19T09:19:09Z</time>
      </trkpt>
      <trkpt lat="43.42037" lon="6.64883">
        <ele>107.4</ele>
        <time>2025-01-19T09:19:10Z</time>
      </trkpt>
      <trkpt lat="43.42037" lon="6.64883">
        <ele>107.4</ele>
        <time>2025-01-19T09:19:11Z</time>
      </trkpt>
      <trkpt lat="43.42037" lon="6.64882">
        <ele>107.5</ele>
        <time>2025-01-19T09:19:12Z</time>
      </trkpt>
      <trkpt lat="43.42036" lon="6.64882">
        <ele>107.5</ele>
        <time>2025-01-19T09:19:13Z</time>
      </trkpt>
      <trkpt lat="43.42036" lon="6.64881">
        <ele>107.6</ele>
        <time>2025-01-19T09:19:14Z</time>
      </trkpt>
      <trkpt lat="43.42037" lon="6.64879">
        <ele>107.6</ele>
        <time>2025-01-19T09:19:15Z</time>
      </trkpt>
      <trkpt lat="43.42037" lon="6.64878">
        <ele>107.7</ele>
        <time>2025-01-19T09:19:16Z</time>
      </trkpt>
      <trkpt lat="43.42037" lon="6.64877">
        <ele>107.9</ele>
        <time>2025-01-19T09:19:17Z</time>
      </trkpt>
      <trkpt lat="43.42038" lon="6.64876">
        <ele>108</ele>
        <time>2025-01-19T09:19:18Z</time>
      </trkpt>
      <trkpt lat="43.42038" lon="6.64874">
        <ele>108.1</ele>
        <time>2025-01-19T09:19:19Z</time>
      </trkpt>
      <trkpt lat="43.42037" lon="6.64873">
        <ele>108.2</ele>
        <time>2025-01-19T09:19:20Z</time>
      </trkpt>
      <trkpt lat="43.42037" lon="6.64871">
        <ele>108.4</ele>
        <time>2025-01-19T09:19:21Z</time>
      </trkpt>
      <trkpt lat="43.42037" lon="6.64869">
        <ele>108.6</ele>
        <time>2025-01-19T09:19:22Z</time>
      </trkpt>
      <trkpt lat="43.42036" lon="6.64868">
        <ele>108.8</ele>
        <time>2025-01-19T09:19:23Z</time>
      </trkpt>
      <trkpt lat="43.42036" lon="6.64868">
        <ele>109</ele>
        <time>2025-01-19T09:19:24Z</time>
      </trkpt>
      <trkpt lat="43.42036" lon="6.64868">
        <ele>109.2</ele>
        <time>2025-01-19T09:19:25Z</time>
      </trkpt>
      <trkpt lat="43.42035" lon="6.64868">
        <ele>109.3</ele>
        <time>2025-01-19T09:19:26Z</time>
      </trkpt>
      <trkpt lat="43.42035" lon="6.64868">
        <ele>109.5</ele>
        <time>2025-01-19T09:19:27Z</time>
      </trkpt>
      <trkpt lat="43.42036" lon="6.64867">
        <ele>109.6</ele>
        <time>2025-01-19T09:19:28Z</time>
      </trkpt>
      <trkpt lat="43.42036" lon="6.64865">
        <ele>109.7</ele>
        <time>2025-01-19T09:19:29Z</time>
      </trkpt>
      <trkpt lat="43.42036" lon="6.64863">
        <ele>109.8</ele>
        <time>2025-01-19T09:19:30Z</time>
      </trkpt>
      <trkpt lat="43.42036" lon="6.64862">
        <ele>110</ele>
        <time>2025-01-19T09:19:31Z</time>
      </trkpt>
      <trkpt lat="43.42035" lon="6.6486">
        <ele>110.1</ele>
        <time>2025-01-19T09:19:32Z</time>
      </trkpt>
      <trkpt lat="43.42035" lon="6.64859">
        <ele>110.2</ele>
        <time>2025-01-19T09:19:33Z</time>
      </trkpt>
      <trkpt lat="43.42034" lon="6.64857">
        <ele>110.3</ele>
        <time>2025-01-19T09:19:34Z</time>
      </trkpt>
      <trkpt lat="43.42034" lon="6.64855">
        <ele>110.5</ele>
        <time>2025-01-19T09:19:35Z</time>
      </trkpt>
      <trkpt lat="43.42034" lon="6.64853">
        <ele>110.8</ele>
        <time>2025-01-19T09:19:36Z</time>
      </trkpt>
      <trkpt lat="43.42034" lon="6.64852">
        <ele>111</ele>
        <time>2025-01-19T09:19:37Z</time>
      </trkpt>
      <trkpt lat="43.42033" lon="6.64851">
        <ele>111.2</ele>
        <time>2025-01-19T09:19:38Z</time>
      </trkpt>
      <trkpt lat="43.42033" lon="6.6485">
        <ele>111.4</ele>
        <time>2025-01-19T09:19:39Z</time>
      </trkpt>
      <trkpt lat="43.42033" lon="6.64849">
        <ele>111.5</ele>
        <time>2025-01-19T09:19:40Z</time>
      </trkpt>
      <trkpt lat="43.42032" lon="6.64847">
        <ele>111.6</ele>
        <time>2025-01-19T09:19:41Z</time>
      </trkpt>
      <trkpt lat="43.42032" lon="6.64846">
        <ele>111.8</ele>
        <time>2025-01-19T09:19:42Z</time>
      </trkpt>
      <trkpt lat="43.42032" lon="6.64844">
        <ele>112</ele>
        <time>2025-01-19T09:19:43Z</time>
      </trkpt>
      <trkpt lat="43.42032" lon="6.64842">
        <ele>112.1</ele>
        <time>2025-01-19T09:19:44Z</time>
      </trkpt>
      <trkpt lat="43.42032" lon="6.64841">
        <ele>112.2</ele>
        <time>2025-01-19T09:19:45Z</time>
      </trkpt>
      <trkpt lat="43.42032" lon="6.64839">
        <ele>112.2</ele>
        <time>2025-01-19T09:19:46Z</time>
      </trkpt>
      <trkpt lat="43.42032" lon="6.64838">
        <ele>112.3</ele>
        <time>2025-01-19T09:19:47Z</time>
      </trkpt>
      <trkpt lat="43.42032" lon="6.64836">
        <ele>112.4</ele>
        <time>2025-01-19T09:19:48Z</time>
      </trkpt>
      <trkpt lat="43.42032" lon="6.64835">
        <ele>112.5</ele>
        <time>2025-01-19T09:19:49Z</time>
      </trkpt>
      <trkpt lat="43.42033" lon="6.64833">
        <ele>112.7</ele>
        <time>2025-01-19T09:19:50Z</time>
      </trkpt>
      <trkpt lat="43.42032" lon="6.64831">
        <ele>112.8</ele>
        <time>2025-01-19T09:19:51Z</time>
      </trkpt>
      <trkpt lat="43.42032" lon="6.64829">
        <ele>112.9</ele>
        <time>2025-01-19T09:19:52Z</time>
      </trkpt>
      <trkpt lat="43.42031" lon="6.64828">
        <ele>113</ele>
        <time>2025-01-19T09:19:53Z</time>
      </trkpt>
      <trkpt lat="43.4203" lon="6.64827">
        <ele>113.1</ele>
        <time>2025-01-19T09:19:54Z</time>
      </trkpt>
      <trkpt lat="43.42029" lon="6.64826">
        <ele>113.3</ele>
        <time>2025-01-19T09:19:55Z</time>
      </trkpt>
      <trkpt lat="43.42029" lon="6.64824">
        <ele>113.5</ele>
        <time>2025-01-19T09:19:56Z</time>
      </trkpt>
      <trkpt lat="43.42028" lon="6.64823">
        <ele>113.7</ele>
        <time>2025-01-19T09:19:57Z</time>
      </trkpt>
      <trkpt lat="43.42027" lon="6.64823">
        <ele>113.9</ele>
        <time>2025-01-19T09:19:58Z</time>
      </trkpt>
      <trkpt lat="43.42027" lon="6.64822">
        <ele>114.1</ele>
        <time>2025-01-19T09:19:59Z</time>
      </trkpt>
      <trkpt lat="43.42026" lon="6.6482">
        <ele>114.2</ele>
        <time>2025-01-19T09:20:00Z</time>
      </trkpt>
      <trkpt lat="43.42025" lon="6.64819">
        <ele>114.4</ele>
        <time>2025-01-19T09:20:01Z</time>
      </trkpt>
      <trkpt lat="43.42025" lon="6.64818">
        <ele>114.5</ele>
        <time>2025-01-19T09:20:02Z</time>
      </trkpt>
      <trkpt lat="43.42024" lon="6.64817">
        <ele>114.6</ele>
        <time>2025-01-19T09:20:03Z</time>
      </trkpt>
      <trkpt lat="43.42023" lon="6.64815">
        <ele>114.8</ele>
        <time>2025-01-19T09:20:04Z</time>
      </trkpt>
      <trkpt lat="43.42023" lon="6.64813">
        <ele>115</ele>
        <time>2025-01-19T09:20:05Z</time>
      </trkpt>
      <trkpt lat="43.42022" lon="6.64812">
        <ele>115.2</ele>
        <time>2025-01-19T09:20:06Z</time>
      </trkpt>
      <trkpt lat="43.42023" lon="6.6481">
        <ele>115.4</ele>
        <time>2025-01-19T09:20:07Z</time>
      </trkpt>
      <trkpt lat="43.42022" lon="6.64809">
        <ele>115.6</ele>
        <time>2025-01-19T09:20:08Z</time>
      </trkpt>
      <trkpt lat="43.42021" lon="6.64808">
        <ele>115.8</ele>
        <time>2025-01-19T09:20:09Z</time>
      </trkpt>
      <trkpt lat="43.42021" lon="6.64807">
        <ele>115.9</ele>
        <time>2025-01-19T09:20:10Z</time>
      </trkpt>
      <trkpt lat="43.42021" lon="6.64806">
        <ele>116.2</ele>
        <time>2025-01-19T09:20:11Z</time>
      </trkpt>
      <trkpt lat="43.42021" lon="6.64804">
        <ele>116.4</ele>
        <time>2025-01-19T09:20:12Z</time>
      </trkpt>
      <trkpt lat="43.42021" lon="6.64803">
        <ele>116.6</ele>
        <time>2025-01-19T09:20:13Z</time>
      </trkpt>
      <trkpt lat="43.42022" lon="6.64802">
        <ele>116.7</ele>
        <time>2025-01-19T09:20:14Z</time>
      </trkpt>
      <trkpt lat="43.42022" lon="6.64801">
        <ele>116.8</ele>
        <time>2025-01-19T09:20:15Z</time>
      </trkpt>
      <trkpt lat="43.42023" lon="6.648">
        <ele>117</ele>
        <time>2025-01-19T09:20:16Z</time>
      </trkpt>
      <trkpt lat="43.42023" lon="6.64799">
        <ele>117.1</ele>
        <time>2025-01-19T09:20:17Z</time>
      </trkpt>
      <trkpt lat="43.42024" lon="6.64799">
        <ele>117.2</ele>
        <time>2025-01-19T09:20:18Z</time>
      </trkpt>
      <trkpt lat="43.42025" lon="6.64798">
        <ele>117.2</ele>
        <time>2025-01-19T09:20:19Z</time>
      </trkpt>
      <trkpt lat="43.42025" lon="6.64799">
        <ele>117.3</ele>
        <time>2025-01-19T09:20:20Z</time>
      </trkpt>
      <trkpt lat="43.42026" lon="6.64799">
        <ele>117.4</ele>
        <time>2025-01-19T09:20:21Z</time>
      </trkpt>
      <trkpt lat="43.42026" lon="6.64799">
        <ele>117.5</ele>
        <time>2025-01-19T09:20:22Z</time>
      </trkpt>
      <trkpt lat="43.42027" lon="6.648">
        <ele>117.7</ele>
        <time>2025-01-19T09:20:23Z</time>
      </trkpt>
      <trkpt lat="43.42028" lon="6.648">
        <ele>117.8</ele>
        <time>2025-01-19T09:20:24Z</time>
      </trkpt>
      <trkpt lat="43.42029" lon="6.64801">
        <ele>118</ele>
        <time>2025-01-19T09:20:25Z</time>
      </trkpt>
      <trkpt lat="43.4203" lon="6.64801">
        <ele>118.1</ele>
        <time>2025-01-19T09:20:26Z</time>
      </trkpt>
      <trkpt lat="43.4203" lon="6.64801">
        <ele>118.2</ele>
        <time>2025-01-19T09:20:27Z</time>
      </trkpt>
      <trkpt lat="43.42031" lon="6.64802">
        <ele>118.3</ele>
        <time>2025-01-19T09:20:28Z</time>
      </trkpt>
      <trkpt lat="43.42032" lon="6.64803">
        <ele>118.4</ele>
        <time>2025-01-19T09:20:29Z</time>
      </trkpt>
      <trkpt lat="43.42032" lon="6.64804">
        <ele>118.6</ele>
        <time>2025-01-19T09:20:30Z</time>
      </trkpt>
      <trkpt lat="43.42033" lon="6.64805">
        <ele>118.7</ele>
        <time>2025-01-19T09:20:31Z</time>
      </trkpt>
      <trkpt lat="43.42033" lon="6.64805">
        <ele>118.8</ele>
        <time>2025-01-19T09:20:32Z</time>
      </trkpt>
      <trkpt lat="43.42034" lon="6.64806">
        <ele>119</ele>
        <time>2025-01-19T09:20:33Z</time>
      </trkpt>
      <trkpt lat="43.42035" lon="6.64807">
        <ele>119</ele>
        <time>2025-01-19T09:20:34Z</time>
      </trkpt>
      <trkpt lat="43.42036" lon="6.64808">
        <ele>119.2</ele>
        <time>2025-01-19T09:20:35Z</time>
      </trkpt>
      <trkpt lat="43.42037" lon="6.64808">
        <ele>119.3</ele>
        <time>2025-01-19T09:20:36Z</time>
      </trkpt>
      <trkpt lat="43.42038" lon="6.64809">
        <ele>119.4</ele>
        <time>2025-01-19T09:20:37Z</time>
      </trkpt>
      <trkpt lat="43.42038" lon="6.6481">
        <ele>119.5</ele>
        <time>2025-01-19T09:20:38Z</time>
      </trkpt>
      <trkpt lat="43.42039" lon="6.64811">
        <ele>119.7</ele>
        <time>2025-01-19T09:20:39Z</time>
      </trkpt>
      <trkpt lat="43.42039" lon="6.64811">
        <ele>119.8</ele>
        <time>2025-01-19T09:20:40Z</time>
      </trkpt>
      <trkpt lat="43.4204" lon="6.64812">
        <ele>120</ele>
        <time>2025-01-19T09:20:41Z</time>
      </trkpt>
      <trkpt lat="43.42041" lon="6.64812">
        <ele>120.2</ele>
        <time>2025-01-19T09:20:42Z</time>
      </trkpt>
      <trkpt lat="43.42042" lon="6.64813">
        <ele>120.3</ele>
        <time>2025-01-19T09:20:43Z</time>
      </trkpt>
      <trkpt lat="43.42043" lon="6.64814">
        <ele>120.6</ele>
        <time>2025-01-19T09:20:44Z</time>
      </trkpt>
      <trkpt lat="43.42044" lon="6.64814">
        <ele>120.8</ele>
        <time>2025-01-19T09:20:45Z</time>
      </trkpt>
      <trkpt lat="43.42044" lon="6.64815">
        <ele>121</ele>
        <time>2025-01-19T09:20:46Z</time>
      </trkpt>
      <trkpt lat="43.42045" lon="6.64815">
        <ele>121.2</ele>
        <time>2025-01-19T09:20:47Z</time>
      </trkpt>
      <trkpt lat="43.42046" lon="6.64816">
        <ele>121.4</ele>
        <time>2025-01-19T09:20:48Z</time>
      </trkpt>
      <trkpt lat="43.42047" lon="6.64817">
        <ele>121.5</ele>
        <time>2025-01-19T09:20:49Z</time>
      </trkpt>
      <trkpt lat="43.42048" lon="6.64817">
        <ele>121.6</ele>
        <time>2025-01-19T09:20:50Z</time>
      </trkpt>
      <trkpt lat="43.42049" lon="6.64817">
        <ele>121.8</ele>
        <time>2025-01-19T09:20:51Z</time>
      </trkpt>
      <trkpt lat="43.4205" lon="6.64817">
        <ele>122</ele>
        <time>2025-01-19T09:20:52Z</time>
      </trkpt>
      <trkpt lat="43.4205" lon="6.64817">
        <ele>122.2</ele>
        <time>2025-01-19T09:20:53Z</time>
      </trkpt>
      <trkpt lat="43.42051" lon="6.64817">
        <ele>122.3</ele>
        <time>2025-01-19T09:20:54Z</time>
      </trkpt>
      <trkpt lat="43.42052" lon="6.64816">
        <ele>122.5</ele>
        <time>2025-01-19T09:20:55Z</time>
      </trkpt>
      <trkpt lat="43.42053" lon="6.64816">
        <ele>122.6</ele>
        <time>2025-01-19T09:20:56Z</time>
      </trkpt>
      <trkpt lat="43.42054" lon="6.64816">
        <ele>122.8</ele>
        <time>2025-01-19T09:20:57Z</time>
      </trkpt>
      <trkpt lat="43.42055" lon="6.64816">
        <ele>123</ele>
        <time>2025-01-19T09:20:58Z</time>
      </trkpt>
      <trkpt lat="43.42056" lon="6.64817">
        <ele>123.1</ele>
        <time>2025-01-19T09:20:59Z</time>
      </trkpt>
      <trkpt lat="43.42057" lon="6.64817">
        <ele>123.2</ele>
        <time>2025-01-19T09:21:00Z</time>
      </trkpt>
      <trkpt lat="43.42058" lon="6.64817">
        <ele>123.4</ele>
        <time>2025-01-19T09:21:01Z</time>
      </trkpt>
      <trkpt lat="43.42058" lon="6.64817">
        <ele>123.5</ele>
        <time>2025-01-19T09:21:02Z</time>
      </trkpt>
      <trkpt lat="43.4206" lon="6.64816">
        <ele>123.5</ele>
        <time>2025-01-19T09:21:03Z</time>
      </trkpt>
      <trkpt lat="43.4206" lon="6.64816">
        <ele>123.6</ele>
        <time>2025-01-19T09:21:04Z</time>
      </trkpt>
      <trkpt lat="43.42062" lon="6.64816">
        <ele>123.8</ele>
        <time>2025-01-19T09:21:05Z</time>
      </trkpt>
      <trkpt lat="43.42062" lon="6.64816">
        <ele>124</ele>
        <time>2025-01-19T09:21:06Z</time>
      </trkpt>
      <trkpt lat="43.42064" lon="6.64816">
        <ele>124.2</ele>
        <time>2025-01-19T09:21:07Z</time>
      </trkpt>
      <trkpt lat="43.42065" lon="6.64816">
        <ele>124.3</ele>
        <time>2025-01-19T09:21:08Z</time>
      </trkpt>
      <trkpt lat="43.42065" lon="6.64815">
        <ele>124.6</ele>
        <time>2025-01-19T09:21:09Z</time>
      </trkpt>
      <trkpt lat="43.42066" lon="6.64815">
        <ele>124.7</ele>
        <time>2025-01-19T09:21:10Z</time>
      </trkpt>
      <trkpt lat="43.42067" lon="6.64815">
        <ele>124.9</ele>
        <time>2025-01-19T09:21:11Z</time>
      </trkpt>
      <trkpt lat="43.42068" lon="6.64815">
        <ele>125.1</ele>
        <time>2025-01-19T09:21:12Z</time>
      </trkpt>
      <trkpt lat="43.42069" lon="6.64814">
        <ele>125.3</ele>
        <time>2025-01-19T09:21:13Z</time>
      </trkpt>
      <trkpt lat="43.4207" lon="6.64814">
        <ele>125.4</ele>
        <time>2025-01-19T09:21:14Z</time>
      </trkpt>
      <trkpt lat="43.42071" lon="6.64813">
        <ele>125.6</ele>
        <time>2025-01-19T09:21:15Z</time>
      </trkpt>
      <trkpt lat="43.42072" lon="6.64813">
        <ele>125.8</ele>
        <time>2025-01-19T09:21:16Z</time>
      </trkpt>
      <trkpt lat="43.42074" lon="6.64813">
        <ele>126</ele>
        <time>2025-01-19T09:21:17Z</time>
      </trkpt>
      <trkpt lat="43.42074" lon="6.64812">
        <ele>126.2</ele>
        <time>2025-01-19T09:21:18Z</time>
      </trkpt>
      <trkpt lat="43.42076" lon="6.64811">
        <ele>126.3</ele>
        <time>2025-01-19T09:21:19Z</time>
      </trkpt>
      <trkpt lat="43.42076" lon="6.6481">
        <ele>126.4</ele>
        <time>2025-01-19T09:21:20Z</time>
      </trkpt>
      <trkpt lat="43.42076" lon="6.64809">
        <ele>126.7</ele>
        <time>2025-01-19T09:21:21Z</time>
      </trkpt>
      <trkpt lat="43.42077" lon="6.64808">
        <ele>127</ele>
        <time>2025-01-19T09:21:22Z</time>
      </trkpt>
      <trkpt lat="43.42077" lon="6.64806">
        <ele>127.2</ele>
        <time>2025-01-19T09:21:23Z</time>
      </trkpt>
      <trkpt lat="43.42078" lon="6.64805">
        <ele>127.4</ele>
        <time>2025-01-19T09:21:24Z</time>
      </trkpt>
      <trkpt lat="43.42079" lon="6.64804">
        <ele>127.6</ele>
        <time>2025-01-19T09:21:25Z</time>
      </trkpt>
      <trkpt lat="43.42079" lon="6.64803">
        <ele>127.8</ele>
        <time>2025-01-19T09:21:26Z</time>
      </trkpt>
      <trkpt lat="43.4208" lon="6.64802">
        <ele>128</ele>
        <time>2025-01-19T09:21:27Z</time>
      </trkpt>
      <trkpt lat="43.4208" lon="6.64801">
        <ele>128.2</ele>
        <time>2025-01-19T09:21:28Z</time>
      </trkpt>
      <trkpt lat="43.42081" lon="6.648">
        <ele>128.4</ele>
        <time>2025-01-19T09:21:29Z</time>
      </trkpt>
      <trkpt lat="43.42081" lon="6.64798">
        <ele>128.6</ele>
        <time>2025-01-19T09:21:30Z</time>
      </trkpt>
      <trkpt lat="43.42082" lon="6.64796">
        <ele>128.8</ele>
        <time>2025-01-19T09:21:31Z</time>
      </trkpt>
      <trkpt lat="43.42082" lon="6.64795">
        <ele>128.9</ele>
        <time>2025-01-19T09:21:32Z</time>
      </trkpt>
      <trkpt lat="43.42083" lon="6.64794">
        <ele>129.1</ele>
        <time>2025-01-19T09:21:33Z</time>
      </trkpt>
      <trkpt lat="43.42083" lon="6.64793">
        <ele>129.2</ele>
        <time>2025-01-19T09:21:34Z</time>
      </trkpt>
      <trkpt lat="43.42083" lon="6.64792">
        <ele>129.3</ele>
        <time>2025-01-19T09:21:35Z</time>
      </trkpt>
      <trkpt lat="43.42083" lon="6.64791">
        <ele>129.3</ele>
        <time>2025-01-19T09:21:36Z</time>
      </trkpt>
      <trkpt lat="43.42084" lon="6.64789">
        <ele>129.4</ele>
        <time>2025-01-19T09:21:37Z</time>
      </trkpt>
      <trkpt lat="43.42085" lon="6.64788">
        <ele>129.4</ele>
        <time>2025-01-19T09:21:38Z</time>
      </trkpt>
      <trkpt lat="43.42085" lon="6.64787">
        <ele>129.5</ele>
        <time>2025-01-19T09:21:39Z</time>
      </trkpt>
      <trkpt lat="43.42085" lon="6.64785">
        <ele>129.6</ele>
        <time>2025-01-19T09:21:40Z</time>
      </trkpt>
      <trkpt lat="43.42085" lon="6.64784">
        <ele>129.8</ele>
        <time>2025-01-19T09:21:41Z</time>
      </trkpt>
      <trkpt lat="43.42085" lon="6.64782">
        <ele>129.9</ele>
        <time>2025-01-19T09:21:42Z</time>
      </trkpt>
      <trkpt lat="43.42085" lon="6.64781">
        <ele>130</ele>
        <time>2025-01-19T09:21:43Z</time>
      </trkpt>
      <trkpt lat="43.42086" lon="6.64779">
        <ele>130.1</ele>
        <time>2025-01-19T09:21:44Z</time>
      </trkpt>
      <trkpt lat="43.42086" lon="6.64778">
        <ele>130.1</ele>
        <time>2025-01-19T09:21:45Z</time>
      </trkpt>
      <trkpt lat="43.42087" lon="6.64776">
        <ele>130.3</ele>
        <time>2025-01-19T09:21:46Z</time>
      </trkpt>
      <trkpt lat="43.42087" lon="6.64774">
        <ele>130.6</ele>
        <time>2025-01-19T09:21:47Z</time>
      </trkpt>
      <trkpt lat="43.42087" lon="6.64773">
        <ele>130.8</ele>
        <time>2025-01-19T09:21:48Z</time>
      </trkpt>
      <trkpt lat="43.42088" lon="6.64771">
        <ele>131</ele>
        <time>2025-01-19T09:21:49Z</time>
      </trkpt>
      <trkpt lat="43.42088" lon="6.64769">
        <ele>131.1</ele>
        <time>2025-01-19T09:21:50Z</time>
      </trkpt>
      <trkpt lat="43.42088" lon="6.64768">
        <ele>131.1</ele>
        <time>2025-01-19T09:21:51Z</time>
      </trkpt>
      <trkpt lat="43.42088" lon="6.64766">
        <ele>131.1</ele>
        <time>2025-01-19T09:21:52Z</time>
      </trkpt>
      <trkpt lat="43.42089" lon="6.64765">
        <ele>131.3</ele>
        <time>2025-01-19T09:21:53Z</time>
      </trkpt>
      <trkpt lat="43.42089" lon="6.64764">
        <ele>131.4</ele>
        <time>2025-01-19T09:21:54Z</time>
      </trkpt>
      <trkpt lat="43.42089" lon="6.64762">
        <ele>131.5</ele>
        <time>2025-01-19T09:21:55Z</time>
      </trkpt>
      <trkpt lat="43.42088" lon="6.64761">
        <ele>131.7</ele>
        <time>2025-01-19T09:21:56Z</time>
      </trkpt>
      <trkpt lat="43.42088" lon="6.64759">
        <ele>131.9</ele>
        <time>2025-01-19T09:21:57Z</time>
      </trkpt>
      <trkpt lat="43.42089" lon="6.64757">
        <ele>132</ele>
        <time>2025-01-19T09:21:58Z</time>
      </trkpt>
      <trkpt lat="43.42088" lon="6.64756">
        <ele>132</ele>
        <time>2025-01-19T09:21:59Z</time>
      </trkpt>
      <trkpt lat="43.42088" lon="6.64755">
        <ele>132.1</ele>
        <time>2025-01-19T09:22:00Z</time>
      </trkpt>
      <trkpt lat="43.42088" lon="6.64753">
        <ele>132.2</ele>
        <time>2025-01-19T09:22:01Z</time>
      </trkpt>
      <trkpt lat="43.42087" lon="6.64752">
        <ele>132.3</ele>
        <time>2025-01-19T09:22:02Z</time>
      </trkpt>
      <trkpt lat="43.42087" lon="6.64751">
        <ele>132.3</ele>
        <time>2025-01-19T09:22:03Z</time>
      </trkpt>
      <trkpt lat="43.42087" lon="6.6475">
        <ele>132.5</ele>
        <time>2025-01-19T09:22:04Z</time>
      </trkpt>
      <trkpt lat="43.42086" lon="6.64749">
        <ele>132.5</ele>
        <time>2025-01-19T09:22:05Z</time>
      </trkpt>
      <trkpt lat="43.42086" lon="6.64747">
        <ele>132.6</ele>
        <time>2025-01-19T09:22:06Z</time>
      </trkpt>
      <trkpt lat="43.42086" lon="6.64746">
        <ele>132.7</ele>
        <time>2025-01-19T09:22:07Z</time>
      </trkpt>
      <trkpt lat="43.42086" lon="6.64744">
        <ele>132.8</ele>
        <time>2025-01-19T09:22:08Z</time>
      </trkpt>
      <trkpt lat="43.42086" lon="6.64742">
        <ele>132.9</ele>
        <time>2025-01-19T09:22:09Z</time>
      </trkpt>
      <trkpt lat="43.42087" lon="6.64741">
        <ele>133.1</ele>
        <time>2025-01-19T09:22:10Z</time>
      </trkpt>
      <trkpt lat="43.42087" lon="6.6474">
        <ele>133.3</ele>
        <time>2025-01-19T09:22:11Z</time>
      </trkpt>
      <trkpt lat="43.42087" lon="6.64738">
        <ele>133.5</ele>
        <time>2025-01-19T09:22:12Z</time>
      </trkpt>
      <trkpt lat="43.42087" lon="6.64736">
        <ele>133.7</ele>
        <time>2025-01-19T09:22:13Z</time>
      </trkpt>
      <trkpt lat="43.42088" lon="6.64735">
        <ele>133.9</ele>
        <time>2025-01-19T09:22:14Z</time>
      </trkpt>
      <trkpt lat="43.42088" lon="6.64734">
        <ele>134</ele>
        <time>2025-01-19T09:22:15Z</time>
      </trkpt>
      <trkpt lat="43.42089" lon="6.64733">
        <ele>134.1</ele>
        <time>2025-01-19T09:22:16Z</time>
      </trkpt>
      <trkpt lat="43.42089" lon="6.64732">
        <ele>134.2</ele>
        <time>2025-01-19T09:22:17Z</time>
      </trkpt>
      <trkpt lat="43.42089" lon="6.64731">
        <ele>134.3</ele>
        <time>2025-01-19T09:22:18Z</time>
      </trkpt>
      <trkpt lat="43.42088" lon="6.6473">
        <ele>134.4</ele>
        <time>2025-01-19T09:22:19Z</time>
      </trkpt>
      <trkpt lat="43.42088" lon="6.64729">
        <ele>134.5</ele>
        <time>2025-01-19T09:22:20Z</time>
      </trkpt>
      <trkpt lat="43.42088" lon="6.64728">
        <ele>134.6</ele>
        <time>2025-01-19T09:22:21Z</time>
      </trkpt>
      <trkpt lat="43.42088" lon="6.64727">
        <ele>134.6</ele>
        <time>2025-01-19T09:22:22Z</time>
      </trkpt>
      <trkpt lat="43.42088" lon="6.64728">
        <ele>134.8</ele>
        <time>2025-01-19T09:22:23Z</time>
      </trkpt>
      <trkpt lat="43.42088" lon="6.64728">
        <ele>134.9</ele>
        <time>2025-01-19T09:22:24Z</time>
      </trkpt>
      <trkpt lat="43.42088" lon="6.64728">
        <ele>134.9</ele>
        <time>2025-01-19T09:22:25Z</time>
      </trkpt>
      <trkpt lat="43.42087" lon="6.64728">
        <ele>135</ele>
        <time>2025-01-19T09:22:26Z</time>
      </trkpt>
      <trkpt lat="43.42087" lon="6.64727">
        <ele>135.1</ele>
        <time>2025-01-19T09:22:27Z</time>
      </trkpt>
      <trkpt lat="43.42087" lon="6.64728">
        <ele>135.1</ele>
        <time>2025-01-19T09:22:28Z</time>
      </trkpt>
      <trkpt lat="43.42087" lon="6.64727">
        <ele>135.2</ele>
        <time>2025-01-19T09:22:29Z</time>
      </trkpt>
      <trkpt lat="43.42087" lon="6.64727">
        <ele>135.2</ele>
        <time>2025-01-19T09:22:30Z</time>
      </trkpt>
      <trkpt lat="43.42087" lon="6.64727">
        <ele>135.2</ele>
        <time>2025-01-19T09:22:31Z</time>
      </trkpt>
      <trkpt lat="43.42087" lon="6.64727">
        <ele>135.1</ele>
        <time>2025-01-19T09:22:32Z</time>
      </trkpt>
      <trkpt lat="43.42087" lon="6.64727">
        <ele>135.1</ele>
        <time>2025-01-19T09:22:33Z</time>
      </trkpt>
      <trkpt lat="43.42087" lon="6.64727">
        <ele>135</ele>
        <time>2025-01-19T09:22:34Z</time>
      </trkpt>
      <trkpt lat="43.42086" lon="6.64727">
        <ele>135.1</ele>
        <time>2025-01-19T09:22:35Z</time>
      </trkpt>
      <trkpt lat="43.42086" lon="6.64727">
        <ele>135.1</ele>
        <time>2025-01-19T09:22:36Z</time>
      </trkpt>
      <trkpt lat="43.42086" lon="6.64727">
        <ele>135.1</ele>
        <time>2025-01-19T09:22:37Z</time>
      </trkpt>
      <trkpt lat="43.42087" lon="6.64726">
        <ele>135.1</ele>
        <time>2025-01-19T09:22:38Z</time>
      </trkpt>
      <trkpt lat="43.42087" lon="6.64726">
        <ele>135.1</ele>
        <time>2025-01-19T09:22:39Z</time>
      </trkpt>
      <trkpt lat="43.42087" lon="6.64726">
        <ele>135.1</ele>
        <time>2025-01-19T09:22:40Z</time>
      </trkpt>
      <trkpt lat="43.42087" lon="6.64726">
        <ele>135.1</ele>
        <time>2025-01-19T09:22:41Z</time>
      </trkpt>
      <trkpt lat="43.42087" lon="6.64726">
        <ele>135.2</ele>
        <time>2025-01-19T09:22:42Z</time>
      </trkpt>
      <trkpt lat="43.42087" lon="6.64726">
        <ele>135.2</ele>
        <time>2025-01-19T09:22:43Z</time>
      </trkpt>
      <trkpt lat="43.42087" lon="6.64726">
        <ele>135.2</ele>
        <time>2025-01-19T09:22:44Z</time>
      </trkpt>
      <trkpt lat="43.42087" lon="6.64726">
        <ele>135.2</ele>
        <time>2025-01-19T09:22:45Z</time>
      </trkpt>
      <trkpt lat="43.42087" lon="6.64726">
        <ele>135.2</ele>
        <time>2025-01-19T09:22:46Z</time>
      </trkpt>
      <trkpt lat="43.42087" lon="6.64726">
        <ele>135.2</ele>
        <time>2025-01-19T09:22:47Z</time>
      </trkpt>
      <trkpt lat="43.42086" lon="6.64726">
        <ele>135.2</ele>
        <time>2025-01-19T09:22:48Z</time>
      </trkpt>
      <trkpt lat="43.42086" lon="6.64726">
        <ele>135.1</ele>
        <time>2025-01-19T09:22:49Z</time>
      </trkpt>
      <trkpt lat="43.42086" lon="6.64726">
        <ele>135.1</ele>
        <time>2025-01-19T09:22:50Z</time>
      </trkpt>
      <trkpt lat="43.42086" lon="6.64726">
        <ele>135.1</ele>
        <time>2025-01-19T09:22:51Z</time>
      </trkpt>
      <trkpt lat="43.42086" lon="6.64726">
        <ele>135.1</ele>
        <time>2025-01-19T09:22:52Z</time>
      </trkpt>
      <trkpt lat="43.42086" lon="6.64726">
        <ele>135.1</ele>
        <time>2025-01-19T09:22:53Z</time>
      </trkpt>
      <trkpt lat="43.42086" lon="6.64726">
        <ele>135</ele>
        <time>2025-01-19T09:22:54Z</time>
      </trkpt>
      <trkpt lat="43.42086" lon="6.64726">
        <ele>135</ele>
        <time>2025-01-19T09:22:55Z</time>
      </trkpt>
      <trkpt lat="43.42085" lon="6.64726">
        <ele>135</ele>
        <time>2025-01-19T09:22:56Z</time>
      </trkpt>
      <trkpt lat="43.42086" lon="6.64726">
        <ele>135.1</ele>
        <time>2025-01-19T09:22:57Z</time>
      </trkpt>
      <trkpt lat="43.42085" lon="6.64726">
        <ele>135.1</ele>
        <time>2025-01-19T09:22:58Z</time>
      </trkpt>
      <trkpt lat="43.42085" lon="6.64726">
        <ele>135.1</ele>
        <time>2025-01-19T09:22:59Z</time>
      </trkpt>
      <trkpt lat="43.42086" lon="6.64726">
        <ele>135.1</ele>
        <time>2025-01-19T09:23:00Z</time>
      </trkpt>
      <trkpt lat="43.42086" lon="6.64726">
        <ele>135.1</ele>
        <time>2025-01-19T09:23:01Z</time>
      </trkpt>
      <trkpt lat="43.42086" lon="6.64726">
        <ele>135</ele>
        <time>2025-01-19T09:23:02Z</time>
      </trkpt>
      <trkpt lat="43.42086" lon="6.64726">
        <ele>134.9</ele>
        <time>2025-01-19T09:23:03Z</time>
      </trkpt>
      <trkpt lat="43.42086" lon="6.64726">
        <ele>134.9</ele>
        <time>2025-01-19T09:23:04Z</time>
      </trkpt>
      <trkpt lat="43.42085" lon="6.64726">
        <ele>134.9</ele>
        <time>2025-01-19T09:23:05Z</time>
      </trkpt>
      <trkpt lat="43.42085" lon="6.64726">
        <ele>134.9</ele>
        <time>2025-01-19T09:23:06Z</time>
      </trkpt>
      <trkpt lat="43.42085" lon="6.64726">
        <ele>134.9</ele>
        <time>2025-01-19T09:23:07Z</time>
      </trkpt>
      <trkpt lat="43.42086" lon="6.64726">
        <ele>134.9</ele>
        <time>2025-01-19T09:23:08Z</time>
      </trkpt>
      <trkpt lat="43.42086" lon="6.64726">
        <ele>134.9</ele>
        <time>2025-01-19T09:23:09Z</time>
      </trkpt>
      <trkpt lat="43.42086" lon="6.64726">
        <ele>134.9</ele>
        <time>2025-01-19T09:23:10Z</time>
      </trkpt>
      <trkpt lat="43.42086" lon="6.64726">
        <ele>135</ele>
        <time>2025-01-19T09:23:11Z</time>
      </trkpt>
      <trkpt lat="43.42086" lon="6.64726">
        <ele>135</ele>
        <time>2025-01-19T09:23:12Z</time>
      </trkpt>
      <trkpt lat="43.42086" lon="6.64726">
        <ele>135.1</ele>
        <time>2025-01-19T09:23:13Z</time>
      </trkpt>
      <trkpt lat="43.42086" lon="6.64726">
        <ele>135.1</ele>
        <time>2025-01-19T09:23:14Z</time>
      </trkpt>
      <trkpt lat="43.42086" lon="6.64726">
        <ele>135.1</ele>
        <time>2025-01-19T09:23:15Z</time>
      </trkpt>
      <trkpt lat="43.42086" lon="6.64726">
        <ele>135.1</ele>
        <time>2025-01-19T09:23:16Z</time>
      </trkpt>
      <trkpt lat="43.42086" lon="6.64726">
        <ele>135.1</ele>
        <time>2025-01-19T09:23:17Z</time>
      </trkpt>
      <trkpt lat="43.42086" lon="6.64726">
        <ele>135.1</ele>
        <time>2025-01-19T09:23:18Z</time>
      </trkpt>
      <trkpt lat="43.42086" lon="6.64726">
        <ele>135.1</ele>
        <time>2025-01-19T09:23:19Z</time>
      </trkpt>
      <trkpt lat="43.42086" lon="6.64726">
        <ele>135.2</ele>
        <time>2025-01-19T09:23:20Z</time>
      </trkpt>
      <trkpt lat="43.42086" lon="6.64726">
        <ele>135.2</ele>
        <time>2025-01-19T09:23:21Z</time>
      </trkpt>
      <trkpt lat="43.42086" lon="6.64726">
        <ele>135.2</ele>
        <time>2025-01-19T09:23:22Z</time>
      </trkpt>
      <trkpt lat="43.42086" lon="6.64726">
        <ele>135.2</ele>
        <time>2025-01-19T09:23:23Z</time>
      </trkpt>
      <trkpt lat="43.42085" lon="6.64726">
        <ele>135.2</ele>
        <time>2025-01-19T09:23:24Z</time>
      </trkpt>
      <trkpt lat="43.42085" lon="6.64726">
        <ele>135.2</ele>
        <time>2025-01-19T09:23:25Z</time>
      </trkpt>
      <trkpt lat="43.42085" lon="6.64726">
        <ele>135.3</ele>
        <time>2025-01-19T09:23:26Z</time>
      </trkpt>
      <trkpt lat="43.42086" lon="6.64726">
        <ele>135.4</ele>
        <time>2025-01-19T09:23:27Z</time>
      </trkpt>
      <trkpt lat="43.42086" lon="6.64726">
        <ele>135.4</ele>
        <time>2025-01-19T09:23:28Z</time>
      </trkpt>
      <trkpt lat="43.42086" lon="6.64726">
        <ele>135.6</ele>
        <time>2025-01-19T09:23:29Z</time>
      </trkpt>
      <trkpt lat="43.42086" lon="6.64726">
        <ele>135.5</ele>
        <time>2025-01-19T09:23:30Z</time>
      </trkpt>
      <trkpt lat="43.42086" lon="6.64726">
        <ele>135.5</ele>
        <time>2025-01-19T09:23:31Z</time>
      </trkpt>
      <trkpt lat="43.42086" lon="6.64726">
        <ele>135.4</ele>
        <time>2025-01-19T09:23:32Z</time>
      </trkpt>
      <trkpt lat="43.42086" lon="6.64726">
        <ele>135.4</ele>
        <time>2025-01-19T09:23:33Z</time>
      </trkpt>
      <trkpt lat="43.42086" lon="6.64726">
        <ele>135.3</ele>
        <time>2025-01-19T09:23:34Z</time>
      </trkpt>
      <trkpt lat="43.42086" lon="6.64726">
        <ele>135.3</ele>
        <time>2025-01-19T09:23:35Z</time>
      </trkpt>
      <trkpt lat="43.42086" lon="6.64726">
        <ele>135.3</ele>
        <time>2025-01-19T09:23:36Z</time>
      </trkpt>
      <trkpt lat="43.42086" lon="6.64726">
        <ele>135.3</ele>
        <time>2025-01-19T09:23:37Z</time>
      </trkpt>
      <trkpt lat="43.42086" lon="6.64726">
        <ele>135.2</ele>
        <time>2025-01-19T09:23:38Z</time>
      </trkpt>
      <trkpt lat="43.42086" lon="6.64726">
        <ele>135.1</ele>
        <time>2025-01-19T09:23:39Z</time>
      </trkpt>
      <trkpt lat="43.42086" lon="6.64726">
        <ele>135.1</ele>
        <time>2025-01-19T09:23:40Z</time>
      </trkpt>
      <trkpt lat="43.42086" lon="6.64726">
        <ele>135.1</ele>
        <time>2025-01-19T09:23:41Z</time>
      </trkpt>
      <trkpt lat="43.42086" lon="6.64726">
        <ele>135.1</ele>
        <time>2025-01-19T09:23:42Z</time>
      </trkpt>
      <trkpt lat="43.42086" lon="6.64726">
        <ele>135.1</ele>
        <time>2025-01-19T09:23:43Z</time>
      </trkpt>
      <trkpt lat="43.42086" lon="6.64725">
        <ele>135.1</ele>
        <time>2025-01-19T09:23:44Z</time>
      </trkpt>
      <trkpt lat="43.42086" lon="6.64726">
        <ele>135</ele>
        <time>2025-01-19T09:23:45Z</time>
      </trkpt>
      <trkpt lat="43.42086" lon="6.64725">
        <ele>135</ele>
        <time>2025-01-19T09:23:46Z</time>
      </trkpt>
      <trkpt lat="43.42086" lon="6.64725">
        <ele>135</ele>
        <time>2025-01-19T09:23:47Z</time>
      </trkpt>
      <trkpt lat="43.42086" lon="6.64725">
        <ele>134.9</ele>
        <time>2025-01-19T09:23:48Z</time>
      </trkpt>
      <trkpt lat="43.42086" lon="6.64725">
        <ele>134.9</ele>
        <time>2025-01-19T09:23:49Z</time>
      </trkpt>
      <trkpt lat="43.42086" lon="6.64725">
        <ele>134.9</ele>
        <time>2025-01-19T09:23:50Z</time>
      </trkpt>
      <trkpt lat="43.42086" lon="6.64725">
        <ele>135</ele>
        <time>2025-01-19T09:23:51Z</time>
      </trkpt>
      <trkpt lat="43.42086" lon="6.64725">
        <ele>135</ele>
        <time>2025-01-19T09:23:52Z</time>
      </trkpt>
      <trkpt lat="43.42086" lon="6.64725">
        <ele>134.9</ele>
        <time>2025-01-19T09:23:53Z</time>
      </trkpt>
      <trkpt lat="43.42086" lon="6.64725">
        <ele>134.9</ele>
        <time>2025-01-19T09:23:54Z</time>
      </trkpt>
      <trkpt lat="43.42086" lon="6.64725">
        <ele>134.9</ele>
        <time>2025-01-19T09:23:55Z</time>
      </trkpt>
      <trkpt lat="43.42086" lon="6.64725">
        <ele>135</ele>
        <time>2025-01-19T09:23:56Z</time>
      </trkpt>
      <trkpt lat="43.42086" lon="6.64725">
        <ele>135</ele>
        <time>2025-01-19T09:23:57Z</time>
      </trkpt>
      <trkpt lat="43.42086" lon="6.64725">
        <ele>135</ele>
        <time>2025-01-19T09:23:58Z</time>
      </trkpt>
      <trkpt lat="43.42086" lon="6.64725">
        <ele>135</ele>
        <time>2025-01-19T09:23:59Z</time>
      </trkpt>
      <trkpt lat="43.42086" lon="6.64725">
        <ele>135</ele>
        <time>2025-01-19T09:24:00Z</time>
      </trkpt>
      <trkpt lat="43.42086" lon="6.64725">
        <ele>135</ele>
        <time>2025-01-19T09:24:01Z</time>
      </trkpt>
      <trkpt lat="43.42086" lon="6.64725">
        <ele>135</ele>
        <time>2025-01-19T09:24:02Z</time>
      </trkpt>
      <trkpt lat="43.42086" lon="6.64725">
        <ele>135</ele>
        <time>2025-01-19T09:24:03Z</time>
      </trkpt>
      <trkpt lat="43.42086" lon="6.64725">
        <ele>134.9</ele>
        <time>2025-01-19T09:24:04Z</time>
      </trkpt>
      <trkpt lat="43.42086" lon="6.64725">
        <ele>134.8</ele>
        <time>2025-01-19T09:24:05Z</time>
      </trkpt>
      <trkpt lat="43.42086" lon="6.64725">
        <ele>134.7</ele>
        <time>2025-01-19T09:24:06Z</time>
      </trkpt>
      <trkpt lat="43.42086" lon="6.64725">
        <ele>134.6</ele>
        <time>2025-01-19T09:24:07Z</time>
      </trkpt>
      <trkpt lat="43.42086" lon="6.64725">
        <ele>134.6</ele>
        <time>2025-01-19T09:24:08Z</time>
      </trkpt>
      <trkpt lat="43.42086" lon="6.64725">
        <ele>134.6</ele>
        <time>2025-01-19T09:24:09Z</time>
      </trkpt>
      <trkpt lat="43.42086" lon="6.64725">
        <ele>134.6</ele>
        <time>2025-01-19T09:24:10Z</time>
      </trkpt>
      <trkpt lat="43.42086" lon="6.64725">
        <ele>134.7</ele>
        <time>2025-01-19T09:24:11Z</time>
      </trkpt>
      <trkpt lat="43.42086" lon="6.64725">
        <ele>134.7</ele>
        <time>2025-01-19T09:24:12Z</time>
      </trkpt>
      <trkpt lat="43.42086" lon="6.64725">
        <ele>134.7</ele>
        <time>2025-01-19T09:24:13Z</time>
      </trkpt>
      <trkpt lat="43.42086" lon="6.64725">
        <ele>134.7</ele>
        <time>2025-01-19T09:24:14Z</time>
      </trkpt>
      <trkpt lat="43.42086" lon="6.64725">
        <ele>134.7</ele>
        <time>2025-01-19T09:24:15Z</time>
      </trkpt>
      <trkpt lat="43.42086" lon="6.64725">
        <ele>134.7</ele>
        <time>2025-01-19T09:24:16Z</time>
      </trkpt>
      <trkpt lat="43.42086" lon="6.64725">
        <ele>134.7</ele>
        <time>2025-01-19T09:24:17Z</time>
      </trkpt>
      <trkpt lat="43.42086" lon="6.64725">
        <ele>134.7</ele>
        <time>2025-01-19T09:24:18Z</time>
      </trkpt>
      <trkpt lat="43.42086" lon="6.64724">
        <ele>134.8</ele>
        <time>2025-01-19T09:24:19Z</time>
      </trkpt>
      <trkpt lat="43.42086" lon="6.64724">
        <ele>134.9</ele>
        <time>2025-01-19T09:24:20Z</time>
      </trkpt>
      <trkpt lat="43.42086" lon="6.64724">
        <ele>134.9</ele>
        <time>2025-01-19T09:24:21Z</time>
      </trkpt>
      <trkpt lat="43.42086" lon="6.64724">
        <ele>134.8</ele>
        <time>2025-01-19T09:24:22Z</time>
      </trkpt>
      <trkpt lat="43.42086" lon="6.64725">
        <ele>134.7</ele>
        <time>2025-01-19T09:24:23Z</time>
      </trkpt>
      <trkpt lat="43.42086" lon="6.64725">
        <ele>134.7</ele>
        <time>2025-01-19T09:24:24Z</time>
      </trkpt>
      <trkpt lat="43.42086" lon="6.64725">
        <ele>134.7</ele>
        <time>2025-01-19T09:24:25Z</time>
      </trkpt>
      <trkpt lat="43.42086" lon="6.64725">
        <ele>134.6</ele>
        <time>2025-01-19T09:24:26Z</time>
      </trkpt>
      <trkpt lat="43.42086" lon="6.64725">
        <ele>134.7</ele>
        <time>2025-01-19T09:24:27Z</time>
      </trkpt>
      <trkpt lat="43.42086" lon="6.64724">
        <ele>134.7</ele>
        <time>2025-01-19T09:24:28Z</time>
      </trkpt>
      <trkpt lat="43.42086" lon="6.64725">
        <ele>134.8</ele>
        <time>2025-01-19T09:24:29Z</time>
      </trkpt>
      <trkpt lat="43.42086" lon="6.64725">
        <ele>134.8</ele>
        <time>2025-01-19T09:24:30Z</time>
      </trkpt>
      <trkpt lat="43.42086" lon="6.64725">
        <ele>134.8</ele>
        <time>2025-01-19T09:24:31Z</time>
      </trkpt>
      <trkpt lat="43.42086" lon="6.64725">
        <ele>134.8</ele>
        <time>2025-01-19T09:24:32Z</time>
      </trkpt>
      <trkpt lat="43.42086" lon="6.64725">
        <ele>134.7</ele>
        <time>2025-01-19T09:24:33Z</time>
      </trkpt>
      <trkpt lat="43.42086" lon="6.64725">
        <ele>134.7</ele>
        <time>2025-01-19T09:24:34Z</time>
      </trkpt>
      <trkpt lat="43.42086" lon="6.64725">
        <ele>134.8</ele>
        <time>2025-01-19T09:24:35Z</time>
      </trkpt>
      <trkpt lat="43.42086" lon="6.64725">
        <ele>134.8</ele>
        <time>2025-01-19T09:24:36Z</time>
      </trkpt>
      <trkpt lat="43.42086" lon="6.64725">
        <ele>134.9</ele>
        <time>2025-01-19T09:24:37Z</time>
      </trkpt>
      <trkpt lat="43.42086" lon="6.64724">
        <ele>134.9</ele>
        <time>2025-01-19T09:24:38Z</time>
      </trkpt>
      <trkpt lat="43.42086" lon="6.64724">
        <ele>134.9</ele>
        <time>2025-01-19T09:24:39Z</time>
      </trkpt>
      <trkpt lat="43.42086" lon="6.64724">
        <ele>134.9</ele>
        <time>2025-01-19T09:24:40Z</time>
      </trkpt>
      <trkpt lat="43.42086" lon="6.64724">
        <ele>135</ele>
        <time>2025-01-19T09:24:41Z</time>
      </trkpt>
      <trkpt lat="43.42086" lon="6.64724">
        <ele>135</ele>
        <time>2025-01-19T09:24:42Z</time>
      </trkpt>
      <trkpt lat="43.42086" lon="6.64724">
        <ele>135</ele>
        <time>2025-01-19T09:24:43Z</time>
      </trkpt>
      <trkpt lat="43.42086" lon="6.64724">
        <ele>135</ele>
        <time>2025-01-19T09:24:44Z</time>
      </trkpt>
      <trkpt lat="43.42086" lon="6.64724">
        <ele>135</ele>
        <time>2025-01-19T09:24:45Z</time>
      </trkpt>
      <trkpt lat="43.42086" lon="6.64724">
        <ele>135</ele>
        <time>2025-01-19T09:24:46Z</time>
      </trkpt>
      <trkpt lat="43.42086" lon="6.64724">
        <ele>134.9</ele>
        <time>2025-01-19T09:24:47Z</time>
      </trkpt>
      <trkpt lat="43.42086" lon="6.64725">
        <ele>134.9</ele>
        <time>2025-01-19T09:24:48Z</time>
      </trkpt>
      <trkpt lat="43.42087" lon="6.64724">
        <ele>134.9</ele>
        <time>2025-01-19T09:24:49Z</time>
      </trkpt>
      <trkpt lat="43.42087" lon="6.64724">
        <ele>134.9</ele>
        <time>2025-01-19T09:24:50Z</time>
      </trkpt>
      <trkpt lat="43.42087" lon="6.64725">
        <ele>134.9</ele>
        <time>2025-01-19T09:24:51Z</time>
      </trkpt>
      <trkpt lat="43.42087" lon="6.64725">
        <ele>134.9</ele>
        <time>2025-01-19T09:24:52Z</time>
      </trkpt>
      <trkpt lat="43.42087" lon="6.64725">
        <ele>134.9</ele>
        <time>2025-01-19T09:24:53Z</time>
      </trkpt>
      <trkpt lat="43.42087" lon="6.64725">
        <ele>134.8</ele>
        <time>2025-01-19T09:24:54Z</time>
      </trkpt>
      <trkpt lat="43.42087" lon="6.64724">
        <ele>134.8</ele>
        <time>2025-01-19T09:24:55Z</time>
      </trkpt>
      <trkpt lat="43.42087" lon="6.64725">
        <ele>134.9</ele>
        <time>2025-01-19T09:24:56Z</time>
      </trkpt>
      <trkpt lat="43.42087" lon="6.64725">
        <ele>134.9</ele>
        <time>2025-01-19T09:24:57Z</time>
      </trkpt>
      <trkpt lat="43.42087" lon="6.64725">
        <ele>134.9</ele>
        <time>2025-01-19T09:24:58Z</time>
      </trkpt>
      <trkpt lat="43.42088" lon="6.64724">
        <ele>134.9</ele>
        <time>2025-01-19T09:24:59Z</time>
      </trkpt>
      <trkpt lat="43.42088" lon="6.64725">
        <ele>135</ele>
        <time>2025-01-19T09:25:00Z</time>
      </trkpt>
      <trkpt lat="43.42087" lon="6.64725">
        <ele>135.1</ele>
        <time>2025-01-19T09:25:01Z</time>
      </trkpt>
      <trkpt lat="43.42087" lon="6.64725">
        <ele>135.1</ele>
        <time>2025-01-19T09:25:02Z</time>
      </trkpt>
      <trkpt lat="43.42087" lon="6.64725">
        <ele>135</ele>
        <time>2025-01-19T09:25:03Z</time>
      </trkpt>
      <trkpt lat="43.42087" lon="6.64724">
        <ele>135</ele>
        <time>2025-01-19T09:25:04Z</time>
      </trkpt>
      <trkpt lat="43.42087" lon="6.64725">
        <ele>135</ele>
        <time>2025-01-19T09:25:05Z</time>
      </trkpt>
      <trkpt lat="43.42087" lon="6.64725">
        <ele>135</ele>
        <time>2025-01-19T09:25:06Z</time>
      </trkpt>
      <trkpt lat="43.42087" lon="6.64725">
        <ele>135</ele>
        <time>2025-01-19T09:25:07Z</time>
      </trkpt>
      <trkpt lat="43.42087" lon="6.64725">
        <ele>135</ele>
        <time>2025-01-19T09:25:08Z</time>
      </trkpt>
      <trkpt lat="43.42088" lon="6.64725">
        <ele>135</ele>
        <time>2025-01-19T09:25:09Z</time>
      </trkpt>
      <trkpt lat="43.42088" lon="6.64725">
        <ele>135</ele>
        <time>2025-01-19T09:25:10Z</time>
      </trkpt>
      <trkpt lat="43.42088" lon="6.64725">
        <ele>135.1</ele>
        <time>2025-01-19T09:25:11Z</time>
      </trkpt>
      <trkpt lat="43.42088" lon="6.64725">
        <ele>135.2</ele>
        <time>2025-01-19T09:25:12Z</time>
      </trkpt>
      <trkpt lat="43.42088" lon="6.64725">
        <ele>135.3</ele>
        <time>2025-01-19T09:25:13Z</time>
      </trkpt>
      <trkpt lat="43.42088" lon="6.64725">
        <ele>135.4</ele>
        <time>2025-01-19T09:25:14Z</time>
      </trkpt>
      <trkpt lat="43.42088" lon="6.64725">
        <ele>135.4</ele>
        <time>2025-01-19T09:25:15Z</time>
      </trkpt>
      <trkpt lat="43.42088" lon="6.64725">
        <ele>135.5</ele>
        <time>2025-01-19T09:25:16Z</time>
      </trkpt>
      <trkpt lat="43.42087" lon="6.64725">
        <ele>135.5</ele>
        <time>2025-01-19T09:25:17Z</time>
      </trkpt>
      <trkpt lat="43.42087" lon="6.64725">
        <ele>135.5</ele>
        <time>2025-01-19T09:25:18Z</time>
      </trkpt>
      <trkpt lat="43.42087" lon="6.64725">
        <ele>135.5</ele>
        <time>2025-01-19T09:25:19Z</time>
      </trkpt>
      <trkpt lat="43.42086" lon="6.64725">
        <ele>135.4</ele>
        <time>2025-01-19T09:25:20Z</time>
      </trkpt>
      <trkpt lat="43.42086" lon="6.64725">
        <ele>135.4</ele>
        <time>2025-01-19T09:25:21Z</time>
      </trkpt>
      <trkpt lat="43.42086" lon="6.64725">
        <ele>135.4</ele>
        <time>2025-01-19T09:25:22Z</time>
      </trkpt>
      <trkpt lat="43.42087" lon="6.64725">
        <ele>135.4</ele>
        <time>2025-01-19T09:25:23Z</time>
      </trkpt>
      <trkpt lat="43.42086" lon="6.64726">
        <ele>135.4</ele>
        <time>2025-01-19T09:25:24Z</time>
      </trkpt>
      <trkpt lat="43.42086" lon="6.64726">
        <ele>135.3</ele>
        <time>2025-01-19T09:25:25Z</time>
      </trkpt>
      <trkpt lat="43.42086" lon="6.64726">
        <ele>135.3</ele>
        <time>2025-01-19T09:25:26Z</time>
      </trkpt>
      <trkpt lat="43.42087" lon="6.64726">
        <ele>135.3</ele>
        <time>2025-01-19T09:25:27Z</time>
      </trkpt>
      <trkpt lat="43.42087" lon="6.64726">
        <ele>135.3</ele>
        <time>2025-01-19T09:25:28Z</time>
      </trkpt>
      <trkpt lat="43.42087" lon="6.64726">
        <ele>135.3</ele>
        <time>2025-01-19T09:25:29Z</time>
      </trkpt>
      <trkpt lat="43.42087" lon="6.64725">
        <ele>135.2</ele>
        <time>2025-01-19T09:25:30Z</time>
      </trkpt>
      <trkpt lat="43.42087" lon="6.64726">
        <ele>135.2</ele>
        <time>2025-01-19T09:25:31Z</time>
      </trkpt>
      <trkpt lat="43.42087" lon="6.64726">
        <ele>135.1</ele>
        <time>2025-01-19T09:25:32Z</time>
      </trkpt>
      <trkpt lat="43.42086" lon="6.64726">
        <ele>135.1</ele>
        <time>2025-01-19T09:25:33Z</time>
      </trkpt>
      <trkpt lat="43.42086" lon="6.64725">
        <ele>135</ele>
        <time>2025-01-19T09:25:34Z</time>
      </trkpt>
      <trkpt lat="43.42086" lon="6.64725">
        <ele>135</ele>
        <time>2025-01-19T09:25:35Z</time>
      </trkpt>
      <trkpt lat="43.42086" lon="6.64726">
        <ele>134.9</ele>
        <time>2025-01-19T09:25:36Z</time>
      </trkpt>
      <trkpt lat="43.42086" lon="6.64726">
        <ele>135</ele>
        <time>2025-01-19T09:25:37Z</time>
      </trkpt>
      <trkpt lat="43.42086" lon="6.64726">
        <ele>134.9</ele>
        <time>2025-01-19T09:25:38Z</time>
      </trkpt>
      <trkpt lat="43.42086" lon="6.64726">
        <ele>135</ele>
        <time>2025-01-19T09:25:39Z</time>
      </trkpt>
      <trkpt lat="43.42086" lon="6.64726">
        <ele>135</ele>
        <time>2025-01-19T09:25:40Z</time>
      </trkpt>
      <trkpt lat="43.42086" lon="6.64726">
        <ele>135</ele>
        <time>2025-01-19T09:25:41Z</time>
      </trkpt>
      <trkpt lat="43.42086" lon="6.64726">
        <ele>135</ele>
        <time>2025-01-19T09:25:42Z</time>
      </trkpt>
      <trkpt lat="43.42086" lon="6.64726">
        <ele>135.1</ele>
        <time>2025-01-19T09:25:43Z</time>
      </trkpt>
      <trkpt lat="43.42086" lon="6.64725">
        <ele>135.1</ele>
        <time>2025-01-19T09:25:44Z</time>
      </trkpt>
      <trkpt lat="43.42086" lon="6.64725">
        <ele>135.1</ele>
        <time>2025-01-19T09:25:45Z</time>
      </trkpt>
      <trkpt lat="43.42086" lon="6.64724">
        <ele>135</ele>
        <time>2025-01-19T09:25:46Z</time>
      </trkpt>
      <trkpt lat="43.42087" lon="6.64723">
        <ele>135</ele>
        <time>2025-01-19T09:25:47Z</time>
      </trkpt>
      <trkpt lat="43.42088" lon="6.64722">
        <ele>135</ele>
        <time>2025-01-19T09:25:48Z</time>
      </trkpt>
      <trkpt lat="43.42088" lon="6.64721">
        <ele>135</ele>
        <time>2025-01-19T09:25:49Z</time>
      </trkpt>
      <trkpt lat="43.42088" lon="6.6472">
        <ele>134.9</ele>
        <time>2025-01-19T09:25:50Z</time>
      </trkpt>
      <trkpt lat="43.42089" lon="6.64719">
        <ele>134.9</ele>
        <time>2025-01-19T09:25:51Z</time>
      </trkpt>
      <trkpt lat="43.4209" lon="6.64718">
        <ele>134.9</ele>
        <time>2025-01-19T09:25:52Z</time>
      </trkpt>
      <trkpt lat="43.4209" lon="6.64718">
        <ele>134.9</ele>
        <time>2025-01-19T09:25:53Z</time>
      </trkpt>
      <trkpt lat="43.42091" lon="6.64717">
        <ele>134.9</ele>
        <time>2025-01-19T09:25:54Z</time>
      </trkpt>
      <trkpt lat="43.42091" lon="6.64716">
        <ele>134.9</ele>
        <time>2025-01-19T09:25:55Z</time>
      </trkpt>
      <trkpt lat="43.42092" lon="6.64715">
        <ele>135</ele>
        <time>2025-01-19T09:25:56Z</time>
      </trkpt>
      <trkpt lat="43.42092" lon="6.64713">
        <ele>135</ele>
        <time>2025-01-19T09:25:57Z</time>
      </trkpt>
      <trkpt lat="43.42093" lon="6.64712">
        <ele>135</ele>
        <time>2025-01-19T09:25:58Z</time>
      </trkpt>
      <trkpt lat="43.42093" lon="6.64711">
        <ele>135.1</ele>
        <time>2025-01-19T09:25:59Z</time>
      </trkpt>
      <trkpt lat="43.42094" lon="6.6471">
        <ele>135.1</ele>
        <time>2025-01-19T09:26:00Z</time>
      </trkpt>
      <trkpt lat="43.42094" lon="6.64709">
        <ele>135.3</ele>
        <time>2025-01-19T09:26:01Z</time>
      </trkpt>
      <trkpt lat="43.42094" lon="6.64707">
        <ele>135.3</ele>
        <time>2025-01-19T09:26:02Z</time>
      </trkpt>
      <trkpt lat="43.42095" lon="6.64706">
        <ele>135.4</ele>
        <time>2025-01-19T09:26:03Z</time>
      </trkpt>
      <trkpt lat="43.42095" lon="6.64705">
        <ele>135.4</ele>
        <time>2025-01-19T09:26:04Z</time>
      </trkpt>
      <trkpt lat="43.42096" lon="6.64703">
        <ele>135.4</ele>
        <time>2025-01-19T09:26:05Z</time>
      </trkpt>
      <trkpt lat="43.42097" lon="6.64702">
        <ele>135.4</ele>
        <time>2025-01-19T09:26:06Z</time>
      </trkpt>
      <trkpt lat="43.42097" lon="6.64701">
        <ele>135.4</ele>
        <time>2025-01-19T09:26:07Z</time>
      </trkpt>
      <trkpt lat="43.42097" lon="6.647">
        <ele>135.5</ele>
        <time>2025-01-19T09:26:08Z</time>
      </trkpt>
      <trkpt lat="43.42096" lon="6.64699">
        <ele>135.6</ele>
        <time>2025-01-19T09:26:09Z</time>
      </trkpt>
      <trkpt lat="43.42097" lon="6.64698">
        <ele>135.6</ele>
        <time>2025-01-19T09:26:10Z</time>
      </trkpt>
      <trkpt lat="43.42097" lon="6.64697">
        <ele>135.7</ele>
        <time>2025-01-19T09:26:11Z</time>
      </trkpt>
      <trkpt lat="43.42097" lon="6.64695">
        <ele>135.8</ele>
        <time>2025-01-19T09:26:12Z</time>
      </trkpt>
      <trkpt lat="43.42098" lon="6.64694">
        <ele>135.9</ele>
        <time>2025-01-19T09:26:13Z</time>
      </trkpt>
      <trkpt lat="43.42098" lon="6.64693">
        <ele>136.1</ele>
        <time>2025-01-19T09:26:14Z</time>
      </trkpt>
      <trkpt lat="43.42098" lon="6.64692">
        <ele>136</ele>
        <time>2025-01-19T09:26:15Z</time>
      </trkpt>
      <trkpt lat="43.42098" lon="6.6469">
        <ele>136.2</ele>
        <time>2025-01-19T09:26:16Z</time>
      </trkpt>
      <trkpt lat="43.42098" lon="6.64689">
        <ele>136.5</ele>
        <time>2025-01-19T09:26:17Z</time>
      </trkpt>
      <trkpt lat="43.42099" lon="6.64689">
        <ele>136.6</ele>
        <time>2025-01-19T09:26:18Z</time>
      </trkpt>
      <trkpt lat="43.421" lon="6.64688">
        <ele>136.8</ele>
        <time>2025-01-19T09:26:19Z</time>
      </trkpt>
      <trkpt lat="43.421" lon="6.64687">
        <ele>136.9</ele>
        <time>2025-01-19T09:26:20Z</time>
      </trkpt>
      <trkpt lat="43.42101" lon="6.64686">
        <ele>137</ele>
        <time>2025-01-19T09:26:21Z</time>
      </trkpt>
      <trkpt lat="43.42101" lon="6.64685">
        <ele>137.1</ele>
        <time>2025-01-19T09:26:22Z</time>
      </trkpt>
      <trkpt lat="43.42102" lon="6.64684">
        <ele>137.3</ele>
        <time>2025-01-19T09:26:23Z</time>
      </trkpt>
      <trkpt lat="43.42103" lon="6.64683">
        <ele>137.4</ele>
        <time>2025-01-19T09:26:24Z</time>
      </trkpt>
      <trkpt lat="43.42104" lon="6.64683">
        <ele>137.6</ele>
        <time>2025-01-19T09:26:25Z</time>
      </trkpt>
      <trkpt lat="43.42104" lon="6.64682">
        <ele>137.8</ele>
        <time>2025-01-19T09:26:26Z</time>
      </trkpt>
      <trkpt lat="43.42105" lon="6.64681">
        <ele>138.1</ele>
        <time>2025-01-19T09:26:27Z</time>
      </trkpt>
      <trkpt lat="43.42105" lon="6.6468">
        <ele>138.3</ele>
        <time>2025-01-19T09:26:28Z</time>
      </trkpt>
      <trkpt lat="43.42105" lon="6.64679">
        <ele>138.5</ele>
        <time>2025-01-19T09:26:29Z</time>
      </trkpt>
      <trkpt lat="43.42105" lon="6.64678">
        <ele>138.6</ele>
        <time>2025-01-19T09:26:30Z</time>
      </trkpt>
      <trkpt lat="43.42106" lon="6.64678">
        <ele>138.8</ele>
        <time>2025-01-19T09:26:31Z</time>
      </trkpt>
      <trkpt lat="43.42106" lon="6.64677">
        <ele>138.8</ele>
        <time>2025-01-19T09:26:32Z</time>
      </trkpt>
      <trkpt lat="43.42107" lon="6.64676">
        <ele>139</ele>
        <time>2025-01-19T09:26:33Z</time>
      </trkpt>
      <trkpt lat="43.42108" lon="6.64675">
        <ele>139.1</ele>
        <time>2025-01-19T09:26:34Z</time>
      </trkpt>
      <trkpt lat="43.42109" lon="6.64674">
        <ele>139.2</ele>
        <time>2025-01-19T09:26:35Z</time>
      </trkpt>
      <trkpt lat="43.42109" lon="6.64673">
        <ele>139.4</ele>
        <time>2025-01-19T09:26:36Z</time>
      </trkpt>
      <trkpt lat="43.4211" lon="6.64672">
        <ele>139.6</ele>
        <time>2025-01-19T09:26:37Z</time>
      </trkpt>
      <trkpt lat="43.4211" lon="6.64671">
        <ele>139.8</ele>
        <time>2025-01-19T09:26:38Z</time>
      </trkpt>
      <trkpt lat="43.42111" lon="6.6467">
        <ele>140</ele>
        <time>2025-01-19T09:26:39Z</time>
      </trkpt>
      <trkpt lat="43.42112" lon="6.64669">
        <ele>140.1</ele>
        <time>2025-01-19T09:26:40Z</time>
      </trkpt>
      <trkpt lat="43.42112" lon="6.64668">
        <ele>140.2</ele>
        <time>2025-01-19T09:26:41Z</time>
      </trkpt>
      <trkpt lat="43.42113" lon="6.64668">
        <ele>140.3</ele>
        <time>2025-01-19T09:26:42Z</time>
      </trkpt>
      <trkpt lat="43.42114" lon="6.64667">
        <ele>140.5</ele>
        <time>2025-01-19T09:26:43Z</time>
      </trkpt>
      <trkpt lat="43.42114" lon="6.64667">
        <ele>140.6</ele>
        <time>2025-01-19T09:26:44Z</time>
      </trkpt>
      <trkpt lat="43.42115" lon="6.64666">
        <ele>140.7</ele>
        <time>2025-01-19T09:26:45Z</time>
      </trkpt>
      <trkpt lat="43.42115" lon="6.64665">
        <ele>140.9</ele>
        <time>2025-01-19T09:26:46Z</time>
      </trkpt>
      <trkpt lat="43.42116" lon="6.64665">
        <ele>141</ele>
        <time>2025-01-19T09:26:47Z</time>
      </trkpt>
      <trkpt lat="43.42116" lon="6.64664">
        <ele>141.1</ele>
        <time>2025-01-19T09:26:48Z</time>
      </trkpt>
      <trkpt lat="43.42116" lon="6.64663">
        <ele>141.4</ele>
        <time>2025-01-19T09:26:49Z</time>
      </trkpt>
      <trkpt lat="43.42116" lon="6.64663">
        <ele>141.6</ele>
        <time>2025-01-19T09:26:50Z</time>
      </trkpt>
      <trkpt lat="43.42116" lon="6.64663">
        <ele>141.8</ele>
        <time>2025-01-19T09:26:51Z</time>
      </trkpt>
      <trkpt lat="43.42116" lon="6.64663">
        <ele>141.9</ele>
        <time>2025-01-19T09:26:52Z</time>
      </trkpt>
      <trkpt lat="43.42117" lon="6.64663">
        <ele>141.9</ele>
        <time>2025-01-19T09:26:53Z</time>
      </trkpt>
      <trkpt lat="43.42118" lon="6.64663">
        <ele>142</ele>
        <time>2025-01-19T09:26:54Z</time>
      </trkpt>
      <trkpt lat="43.42118" lon="6.64662">
        <ele>142.3</ele>
        <time>2025-01-19T09:26:55Z</time>
      </trkpt>
      <trkpt lat="43.42119" lon="6.64661">
        <ele>142.5</ele>
        <time>2025-01-19T09:26:56Z</time>
      </trkpt>
      <trkpt lat="43.42121" lon="6.6466">
        <ele>142.6</ele>
        <time>2025-01-19T09:26:57Z</time>
      </trkpt>
      <trkpt lat="43.42121" lon="6.64661">
        <ele>142.8</ele>
        <time>2025-01-19T09:26:58Z</time>
      </trkpt>
      <trkpt lat="43.42122" lon="6.6466">
        <ele>143</ele>
        <time>2025-01-19T09:26:59Z</time>
      </trkpt>
      <trkpt lat="43.42123" lon="6.64659">
        <ele>143.2</ele>
        <time>2025-01-19T09:27:00Z</time>
      </trkpt>
      <trkpt lat="43.42124" lon="6.64659">
        <ele>143.4</ele>
        <time>2025-01-19T09:27:01Z</time>
      </trkpt>
      <trkpt lat="43.42125" lon="6.64658">
        <ele>143.7</ele>
        <time>2025-01-19T09:27:02Z</time>
      </trkpt>
      <trkpt lat="43.42126" lon="6.64658">
        <ele>143.8</ele>
        <time>2025-01-19T09:27:03Z</time>
      </trkpt>
      <trkpt lat="43.42127" lon="6.64657">
        <ele>144</ele>
        <time>2025-01-19T09:27:04Z</time>
      </trkpt>
      <trkpt lat="43.42128" lon="6.64657">
        <ele>144.3</ele>
        <time>2025-01-19T09:27:05Z</time>
      </trkpt>
      <trkpt lat="43.42129" lon="6.64657">
        <ele>144.4</ele>
        <time>2025-01-19T09:27:06Z</time>
      </trkpt>
      <trkpt lat="43.4213" lon="6.64656">
        <ele>144.7</ele>
        <time>2025-01-19T09:27:07Z</time>
      </trkpt>
      <trkpt lat="43.4213" lon="6.64656">
        <ele>145</ele>
        <time>2025-01-19T09:27:08Z</time>
      </trkpt>
      <trkpt lat="43.42131" lon="6.64656">
        <ele>145.2</ele>
        <time>2025-01-19T09:27:09Z</time>
      </trkpt>
      <trkpt lat="43.42132" lon="6.64656">
        <ele>145.3</ele>
        <time>2025-01-19T09:27:10Z</time>
      </trkpt>
      <trkpt lat="43.42133" lon="6.64656">
        <ele>145.5</ele>
        <time>2025-01-19T09:27:11Z</time>
      </trkpt>
      <trkpt lat="43.42133" lon="6.64655">
        <ele>145.9</ele>
        <time>2025-01-19T09:27:12Z</time>
      </trkpt>
      <trkpt lat="43.42134" lon="6.64655">
        <ele>146.1</ele>
        <time>2025-01-19T09:27:13Z</time>
      </trkpt>
      <trkpt lat="43.42134" lon="6.64654">
        <ele>146.3</ele>
        <time>2025-01-19T09:27:14Z</time>
      </trkpt>
      <trkpt lat="43.42135" lon="6.64654">
        <ele>146.5</ele>
        <time>2025-01-19T09:27:15Z</time>
      </trkpt>
      <trkpt lat="43.42135" lon="6.64653">
        <ele>146.6</ele>
        <time>2025-01-19T09:27:16Z</time>
      </trkpt>
      <trkpt lat="43.42136" lon="6.64653">
        <ele>146.6</ele>
        <time>2025-01-19T09:27:17Z</time>
      </trkpt>
      <trkpt lat="43.42137" lon="6.64652">
        <ele>146.8</ele>
        <time>2025-01-19T09:27:18Z</time>
      </trkpt>
      <trkpt lat="43.42137" lon="6.64651">
        <ele>146.9</ele>
        <time>2025-01-19T09:27:19Z</time>
      </trkpt>
      <trkpt lat="43.42138" lon="6.64651">
        <ele>146.9</ele>
        <time>2025-01-19T09:27:20Z</time>
      </trkpt>
      <trkpt lat="43.42138" lon="6.6465">
        <ele>147.2</ele>
        <time>2025-01-19T09:27:21Z</time>
      </trkpt>
      <trkpt lat="43.42138" lon="6.64649">
        <ele>147.3</ele>
        <time>2025-01-19T09:27:22Z</time>
      </trkpt>
      <trkpt lat="43.42139" lon="6.64649">
        <ele>147.4</ele>
        <time>2025-01-19T09:27:23Z</time>
      </trkpt>
      <trkpt lat="43.4214" lon="6.64648">
        <ele>147.6</ele>
        <time>2025-01-19T09:27:24Z</time>
      </trkpt>
      <trkpt lat="43.4214" lon="6.64648">
        <ele>147.6</ele>
        <time>2025-01-19T09:27:25Z</time>
      </trkpt>
      <trkpt lat="43.42141" lon="6.64648">
        <ele>147.6</ele>
        <time>2025-01-19T09:27:26Z</time>
      </trkpt>
      <trkpt lat="43.42141" lon="6.64647">
        <ele>147.6</ele>
        <time>2025-01-19T09:27:27Z</time>
      </trkpt>
      <trkpt lat="43.42141" lon="6.64647">
        <ele>147.8</ele>
        <time>2025-01-19T09:27:28Z</time>
      </trkpt>
      <trkpt lat="43.42142" lon="6.64646">
        <ele>147.9</ele>
        <time>2025-01-19T09:27:29Z</time>
      </trkpt>
      <trkpt lat="43.42142" lon="6.64645">
        <ele>148</ele>
        <time>2025-01-19T09:27:30Z</time>
      </trkpt>
      <trkpt lat="43.42143" lon="6.64645">
        <ele>148</ele>
        <time>2025-01-19T09:27:31Z</time>
      </trkpt>
      <trkpt lat="43.42143" lon="6.64644">
        <ele>148.2</ele>
        <time>2025-01-19T09:27:32Z</time>
      </trkpt>
      <trkpt lat="43.42144" lon="6.64644">
        <ele>148.4</ele>
        <time>2025-01-19T09:27:33Z</time>
      </trkpt>
      <trkpt lat="43.42144" lon="6.64642">
        <ele>148.5</ele>
        <time>2025-01-19T09:27:34Z</time>
      </trkpt>
      <trkpt lat="43.42145" lon="6.64641">
        <ele>148.6</ele>
        <time>2025-01-19T09:27:35Z</time>
      </trkpt>
      <trkpt lat="43.42145" lon="6.6464">
        <ele>148.8</ele>
        <time>2025-01-19T09:27:36Z</time>
      </trkpt>
      <trkpt lat="43.42146" lon="6.64639">
        <ele>149</ele>
        <time>2025-01-19T09:27:37Z</time>
      </trkpt>
      <trkpt lat="43.42146" lon="6.64638">
        <ele>149.2</ele>
        <time>2025-01-19T09:27:38Z</time>
      </trkpt>
      <trkpt lat="43.42146" lon="6.64637">
        <ele>149.4</ele>
        <time>2025-01-19T09:27:39Z</time>
      </trkpt>
      <trkpt lat="43.42146" lon="6.64637">
        <ele>149.6</ele>
        <time>2025-01-19T09:27:40Z</time>
      </trkpt>
      <trkpt lat="43.42147" lon="6.64636">
        <ele>149.7</ele>
        <time>2025-01-19T09:27:41Z</time>
      </trkpt>
      <trkpt lat="43.42146" lon="6.64635">
        <ele>150</ele>
        <time>2025-01-19T09:27:42Z</time>
      </trkpt>
      <trkpt lat="43.42146" lon="6.64634">
        <ele>150.2</ele>
        <time>2025-01-19T09:27:43Z</time>
      </trkpt>
      <trkpt lat="43.42146" lon="6.64635">
        <ele>150.3</ele>
        <time>2025-01-19T09:27:44Z</time>
      </trkpt>
      <trkpt lat="43.42147" lon="6.64634">
        <ele>150.5</ele>
        <time>2025-01-19T09:27:45Z</time>
      </trkpt>
      <trkpt lat="43.42147" lon="6.64633">
        <ele>150.6</ele>
        <time>2025-01-19T09:27:46Z</time>
      </trkpt>
      <trkpt lat="43.42147" lon="6.64631">
        <ele>150.7</ele>
        <time>2025-01-19T09:27:47Z</time>
      </trkpt>
      <trkpt lat="43.42148" lon="6.6463">
        <ele>150.9</ele>
        <time>2025-01-19T09:27:48Z</time>
      </trkpt>
      <trkpt lat="43.42148" lon="6.64629">
        <ele>151.1</ele>
        <time>2025-01-19T09:27:49Z</time>
      </trkpt>
      <trkpt lat="43.42148" lon="6.64628">
        <ele>151.3</ele>
        <time>2025-01-19T09:27:50Z</time>
      </trkpt>
      <trkpt lat="43.42149" lon="6.64626">
        <ele>151.5</ele>
        <time>2025-01-19T09:27:51Z</time>
      </trkpt>
      <trkpt lat="43.42149" lon="6.64625">
        <ele>151.6</ele>
        <time>2025-01-19T09:27:52Z</time>
      </trkpt>
      <trkpt lat="43.42149" lon="6.64624">
        <ele>151.8</ele>
        <time>2025-01-19T09:27:53Z</time>
      </trkpt>
      <trkpt lat="43.42149" lon="6.64623">
        <ele>152</ele>
        <time>2025-01-19T09:27:54Z</time>
      </trkpt>
      <trkpt lat="43.42149" lon="6.64622">
        <ele>152.2</ele>
        <time>2025-01-19T09:27:55Z</time>
      </trkpt>
      <trkpt lat="43.42149" lon="6.64621">
        <ele>152.3</ele>
        <time>2025-01-19T09:27:56Z</time>
      </trkpt>
      <trkpt lat="43.42149" lon="6.6462">
        <ele>152.4</ele>
        <time>2025-01-19T09:27:57Z</time>
      </trkpt>
      <trkpt lat="43.42149" lon="6.6462">
        <ele>152.7</ele>
        <time>2025-01-19T09:27:58Z</time>
      </trkpt>
      <trkpt lat="43.42149" lon="6.64619">
        <ele>152.8</ele>
        <time>2025-01-19T09:27:59Z</time>
      </trkpt>
      <trkpt lat="43.42149" lon="6.64618">
        <ele>152.9</ele>
        <time>2025-01-19T09:28:00Z</time>
      </trkpt>
      <trkpt lat="43.42149" lon="6.64617">
        <ele>153.1</ele>
        <time>2025-01-19T09:28:01Z</time>
      </trkpt>
      <trkpt lat="43.42149" lon="6.64616">
        <ele>153.2</ele>
        <time>2025-01-19T09:28:02Z</time>
      </trkpt>
      <trkpt lat="43.42149" lon="6.64616">
        <ele>153.3</ele>
        <time>2025-01-19T09:28:03Z</time>
      </trkpt>
      <trkpt lat="43.42149" lon="6.64615">
        <ele>153.4</ele>
        <time>2025-01-19T09:28:04Z</time>
      </trkpt>
      <trkpt lat="43.42149" lon="6.64614">
        <ele>153.4</ele>
        <time>2025-01-19T09:28:05Z</time>
      </trkpt>
      <trkpt lat="43.42149" lon="6.64613">
        <ele>153.5</ele>
        <time>2025-01-19T09:28:06Z</time>
      </trkpt>
      <trkpt lat="43.42149" lon="6.64612">
        <ele>153.7</ele>
        <time>2025-01-19T09:28:07Z</time>
      </trkpt>
      <trkpt lat="43.42149" lon="6.64611">
        <ele>153.8</ele>
        <time>2025-01-19T09:28:08Z</time>
      </trkpt>
      <trkpt lat="43.42149" lon="6.6461">
        <ele>154</ele>
        <time>2025-01-19T09:28:09Z</time>
      </trkpt>
      <trkpt lat="43.42149" lon="6.64608">
        <ele>154.1</ele>
        <time>2025-01-19T09:28:10Z</time>
      </trkpt>
      <trkpt lat="43.42149" lon="6.64607">
        <ele>154.3</ele>
        <time>2025-01-19T09:28:11Z</time>
      </trkpt>
      <trkpt lat="43.42149" lon="6.64606">
        <ele>154.5</ele>
        <time>2025-01-19T09:28:12Z</time>
      </trkpt>
      <trkpt lat="43.42149" lon="6.64605">
        <ele>154.7</ele>
        <time>2025-01-19T09:28:13Z</time>
      </trkpt>
      <trkpt lat="43.4215" lon="6.64604">
        <ele>154.8</ele>
        <time>2025-01-19T09:28:14Z</time>
      </trkpt>
      <trkpt lat="43.4215" lon="6.64602">
        <ele>155</ele>
        <time>2025-01-19T09:28:15Z</time>
      </trkpt>
      <trkpt lat="43.4215" lon="6.64601">
        <ele>155.2</ele>
        <time>2025-01-19T09:28:16Z</time>
      </trkpt>
      <trkpt lat="43.4215" lon="6.64599">
        <ele>155.3</ele>
        <time>2025-01-19T09:28:17Z</time>
      </trkpt>
      <trkpt lat="43.4215" lon="6.64598">
        <ele>155.5</ele>
        <time>2025-01-19T09:28:18Z</time>
      </trkpt>
      <trkpt lat="43.42151" lon="6.64597">
        <ele>155.6</ele>
        <time>2025-01-19T09:28:19Z</time>
      </trkpt>
      <trkpt lat="43.4215" lon="6.64596">
        <ele>155.8</ele>
        <time>2025-01-19T09:28:20Z</time>
      </trkpt>
      <trkpt lat="43.4215" lon="6.64595">
        <ele>155.9</ele>
        <time>2025-01-19T09:28:21Z</time>
      </trkpt>
      <trkpt lat="43.42149" lon="6.64593">
        <ele>156.1</ele>
        <time>2025-01-19T09:28:22Z</time>
      </trkpt>
      <trkpt lat="43.42149" lon="6.64592">
        <ele>156.2</ele>
        <time>2025-01-19T09:28:23Z</time>
      </trkpt>
      <trkpt lat="43.42149" lon="6.64591">
        <ele>156.4</ele>
        <time>2025-01-19T09:28:24Z</time>
      </trkpt>
      <trkpt lat="43.42148" lon="6.64589">
        <ele>156.5</ele>
        <time>2025-01-19T09:28:25Z</time>
      </trkpt>
      <trkpt lat="43.42148" lon="6.64588">
        <ele>156.7</ele>
        <time>2025-01-19T09:28:26Z</time>
      </trkpt>
      <trkpt lat="43.42148" lon="6.64586">
        <ele>156.7</ele>
        <time>2025-01-19T09:28:27Z</time>
      </trkpt>
      <trkpt lat="43.42148" lon="6.64585">
        <ele>156.8</ele>
        <time>2025-01-19T09:28:28Z</time>
      </trkpt>
      <trkpt lat="43.42148" lon="6.64584">
        <ele>156.8</ele>
        <time>2025-01-19T09:28:29Z</time>
      </trkpt>
      <trkpt lat="43.42149" lon="6.64583">
        <ele>156.9</ele>
        <time>2025-01-19T09:28:30Z</time>
      </trkpt>
      <trkpt lat="43.42149" lon="6.64581">
        <ele>157</ele>
        <time>2025-01-19T09:28:31Z</time>
      </trkpt>
      <trkpt lat="43.42149" lon="6.6458">
        <ele>157.1</ele>
        <time>2025-01-19T09:28:32Z</time>
      </trkpt>
      <trkpt lat="43.42149" lon="6.64579">
        <ele>157.2</ele>
        <time>2025-01-19T09:28:33Z</time>
      </trkpt>
      <trkpt lat="43.4215" lon="6.64577">
        <ele>157.4</ele>
        <time>2025-01-19T09:28:34Z</time>
      </trkpt>
      <trkpt lat="43.4215" lon="6.64576">
        <ele>157.5</ele>
        <time>2025-01-19T09:28:35Z</time>
      </trkpt>
      <trkpt lat="43.4215" lon="6.64575">
        <ele>157.6</ele>
        <time>2025-01-19T09:28:36Z</time>
      </trkpt>
      <trkpt lat="43.4215" lon="6.64574">
        <ele>157.8</ele>
        <time>2025-01-19T09:28:37Z</time>
      </trkpt>
      <trkpt lat="43.4215" lon="6.64572">
        <ele>157.9</ele>
        <time>2025-01-19T09:28:38Z</time>
      </trkpt>
      <trkpt lat="43.4215" lon="6.64571">
        <ele>157.9</ele>
        <time>2025-01-19T09:28:39Z</time>
      </trkpt>
      <trkpt lat="43.42151" lon="6.6457">
        <ele>158.1</ele>
        <time>2025-01-19T09:28:40Z</time>
      </trkpt>
      <trkpt lat="43.42151" lon="6.64569">
        <ele>158.2</ele>
        <time>2025-01-19T09:28:41Z</time>
      </trkpt>
      <trkpt lat="43.42151" lon="6.64567">
        <ele>158.2</ele>
        <time>2025-01-19T09:28:42Z</time>
      </trkpt>
      <trkpt lat="43.42152" lon="6.64566">
        <ele>158.2</ele>
        <time>2025-01-19T09:28:43Z</time>
      </trkpt>
      <trkpt lat="43.42152" lon="6.64564">
        <ele>158.4</ele>
        <time>2025-01-19T09:28:44Z</time>
      </trkpt>
      <trkpt lat="43.42152" lon="6.64563">
        <ele>158.6</ele>
        <time>2025-01-19T09:28:45Z</time>
      </trkpt>
      <trkpt lat="43.42152" lon="6.64562">
        <ele>158.8</ele>
        <time>2025-01-19T09:28:46Z</time>
      </trkpt>
      <trkpt lat="43.42152" lon="6.6456">
        <ele>159.1</ele>
        <time>2025-01-19T09:28:47Z</time>
      </trkpt>
      <trkpt lat="43.42152" lon="6.64559">
        <ele>159.3</ele>
        <time>2025-01-19T09:28:48Z</time>
      </trkpt>
      <trkpt lat="43.42153" lon="6.64558">
        <ele>159.4</ele>
        <time>2025-01-19T09:28:49Z</time>
      </trkpt>
      <trkpt lat="43.42153" lon="6.64557">
        <ele>159.5</ele>
        <time>2025-01-19T09:28:50Z</time>
      </trkpt>
      <trkpt lat="43.42153" lon="6.64555">
        <ele>159.6</ele>
        <time>2025-01-19T09:28:51Z</time>
      </trkpt>
      <trkpt lat="43.42153" lon="6.64554">
        <ele>159.7</ele>
        <time>2025-01-19T09:28:52Z</time>
      </trkpt>
      <trkpt lat="43.42154" lon="6.64552">
        <ele>159.9</ele>
        <time>2025-01-19T09:28:53Z</time>
      </trkpt>
      <trkpt lat="43.42154" lon="6.64551">
        <ele>160</ele>
        <time>2025-01-19T09:28:54Z</time>
      </trkpt>
      <trkpt lat="43.42154" lon="6.6455">
        <ele>160.2</ele>
        <time>2025-01-19T09:28:55Z</time>
      </trkpt>
      <trkpt lat="43.42154" lon="6.64549">
        <ele>160.3</ele>
        <time>2025-01-19T09:28:56Z</time>
      </trkpt>
      <trkpt lat="43.42154" lon="6.64548">
        <ele>160.5</ele>
        <time>2025-01-19T09:28:57Z</time>
      </trkpt>
      <trkpt lat="43.42154" lon="6.64546">
        <ele>160.6</ele>
        <time>2025-01-19T09:28:58Z</time>
      </trkpt>
      <trkpt lat="43.42154" lon="6.64545">
        <ele>160.7</ele>
        <time>2025-01-19T09:28:59Z</time>
      </trkpt>
      <trkpt lat="43.42154" lon="6.64544">
        <ele>160.9</ele>
        <time>2025-01-19T09:29:00Z</time>
      </trkpt>
      <trkpt lat="43.42155" lon="6.64543">
        <ele>161</ele>
        <time>2025-01-19T09:29:01Z</time>
      </trkpt>
      <trkpt lat="43.42155" lon="6.64542">
        <ele>161.1</ele>
        <time>2025-01-19T09:29:02Z</time>
      </trkpt>
      <trkpt lat="43.42156" lon="6.6454">
        <ele>161.2</ele>
        <time>2025-01-19T09:29:03Z</time>
      </trkpt>
      <trkpt lat="43.42156" lon="6.64539">
        <ele>161.4</ele>
        <time>2025-01-19T09:29:04Z</time>
      </trkpt>
      <trkpt lat="43.42156" lon="6.64538">
        <ele>161.5</ele>
        <time>2025-01-19T09:29:05Z</time>
      </trkpt>
      <trkpt lat="43.42157" lon="6.64538">
        <ele>161.7</ele>
        <time>2025-01-19T09:29:06Z</time>
      </trkpt>
      <trkpt lat="43.42157" lon="6.64537">
        <ele>161.8</ele>
        <time>2025-01-19T09:29:07Z</time>
      </trkpt>
      <trkpt lat="43.42158" lon="6.64535">
        <ele>161.9</ele>
        <time>2025-01-19T09:29:08Z</time>
      </trkpt>
      <trkpt lat="43.42158" lon="6.64534">
        <ele>162</ele>
        <time>2025-01-19T09:29:09Z</time>
      </trkpt>
      <trkpt lat="43.42158" lon="6.64533">
        <ele>162.1</ele>
        <time>2025-01-19T09:29:10Z</time>
      </trkpt>
      <trkpt lat="43.42158" lon="6.64531">
        <ele>162.3</ele>
        <time>2025-01-19T09:29:11Z</time>
      </trkpt>
      <trkpt lat="43.42159" lon="6.64531">
        <ele>162.4</ele>
        <time>2025-01-19T09:29:12Z</time>
      </trkpt>
      <trkpt lat="43.4216" lon="6.6453">
        <ele>162.5</ele>
        <time>2025-01-19T09:29:13Z</time>
      </trkpt>
      <trkpt lat="43.42161" lon="6.64528">
        <ele>162.6</ele>
        <time>2025-01-19T09:29:14Z</time>
      </trkpt>
      <trkpt lat="43.42161" lon="6.64527">
        <ele>162.7</ele>
        <time>2025-01-19T09:29:15Z</time>
      </trkpt>
      <trkpt lat="43.42161" lon="6.64525">
        <ele>163</ele>
        <time>2025-01-19T09:29:16Z</time>
      </trkpt>
      <trkpt lat="43.42161" lon="6.64524">
        <ele>163.2</ele>
        <time>2025-01-19T09:29:17Z</time>
      </trkpt>
      <trkpt lat="43.42162" lon="6.64523">
        <ele>163.2</ele>
        <time>2025-01-19T09:29:18Z</time>
      </trkpt>
      <trkpt lat="43.42162" lon="6.64522">
        <ele>163.4</ele>
        <time>2025-01-19T09:29:19Z</time>
      </trkpt>
      <trkpt lat="43.42163" lon="6.64521">
        <ele>163.7</ele>
        <time>2025-01-19T09:29:20Z</time>
      </trkpt>
      <trkpt lat="43.42163" lon="6.6452">
        <ele>164</ele>
        <time>2025-01-19T09:29:21Z</time>
      </trkpt>
      <trkpt lat="43.42163" lon="6.64518">
        <ele>164.1</ele>
        <time>2025-01-19T09:29:22Z</time>
      </trkpt>
      <trkpt lat="43.42163" lon="6.64517">
        <ele>164.2</ele>
        <time>2025-01-19T09:29:23Z</time>
      </trkpt>
      <trkpt lat="43.42164" lon="6.64515">
        <ele>164.3</ele>
        <time>2025-01-19T09:29:24Z</time>
      </trkpt>
      <trkpt lat="43.42164" lon="6.64514">
        <ele>164.3</ele>
        <time>2025-01-19T09:29:25Z</time>
      </trkpt>
      <trkpt lat="43.42164" lon="6.64513">
        <ele>164.4</ele>
        <time>2025-01-19T09:29:26Z</time>
      </trkpt>
      <trkpt lat="43.42164" lon="6.64512">
        <ele>164.4</ele>
        <time>2025-01-19T09:29:27Z</time>
      </trkpt>
      <trkpt lat="43.42164" lon="6.6451">
        <ele>164.6</ele>
        <time>2025-01-19T09:29:28Z</time>
      </trkpt>
      <trkpt lat="43.42165" lon="6.64509">
        <ele>164.7</ele>
        <time>2025-01-19T09:29:29Z</time>
      </trkpt>
      <trkpt lat="43.42165" lon="6.64507">
        <ele>164.9</ele>
        <time>2025-01-19T09:29:30Z</time>
      </trkpt>
      <trkpt lat="43.42165" lon="6.64506">
        <ele>165</ele>
        <time>2025-01-19T09:29:31Z</time>
      </trkpt>
      <trkpt lat="43.42165" lon="6.64504">
        <ele>165</ele>
        <time>2025-01-19T09:29:32Z</time>
      </trkpt>
      <trkpt lat="43.42166" lon="6.64503">
        <ele>165.1</ele>
        <time>2025-01-19T09:29:33Z</time>
      </trkpt>
      <trkpt lat="43.42166" lon="6.64502">
        <ele>165.3</ele>
        <time>2025-01-19T09:29:34Z</time>
      </trkpt>
      <trkpt lat="43.42167" lon="6.64501">
        <ele>165.4</ele>
        <time>2025-01-19T09:29:35Z</time>
      </trkpt>
      <trkpt lat="43.42167" lon="6.645">
        <ele>165.7</ele>
        <time>2025-01-19T09:29:36Z</time>
      </trkpt>
      <trkpt lat="43.42167" lon="6.64498">
        <ele>165.8</ele>
        <time>2025-01-19T09:29:37Z</time>
      </trkpt>
      <trkpt lat="43.42167" lon="6.64497">
        <ele>165.8</ele>
        <time>2025-01-19T09:29:38Z</time>
      </trkpt>
      <trkpt lat="43.42167" lon="6.64496">
        <ele>165.8</ele>
        <time>2025-01-19T09:29:39Z</time>
      </trkpt>
      <trkpt lat="43.42167" lon="6.64494">
        <ele>165.8</ele>
        <time>2025-01-19T09:29:40Z</time>
      </trkpt>
      <trkpt lat="43.42167" lon="6.64493">
        <ele>165.9</ele>
        <time>2025-01-19T09:29:41Z</time>
      </trkpt>
      <trkpt lat="43.42168" lon="6.64491">
        <ele>165.9</ele>
        <time>2025-01-19T09:29:42Z</time>
      </trkpt>
      <trkpt lat="43.42168" lon="6.6449">
        <ele>166.1</ele>
        <time>2025-01-19T09:29:43Z</time>
      </trkpt>
      <trkpt lat="43.42168" lon="6.64489">
        <ele>166.3</ele>
        <time>2025-01-19T09:29:44Z</time>
      </trkpt>
      <trkpt lat="43.42168" lon="6.64487">
        <ele>166.5</ele>
        <time>2025-01-19T09:29:45Z</time>
      </trkpt>
      <trkpt lat="43.42169" lon="6.64486">
        <ele>166.6</ele>
        <time>2025-01-19T09:29:46Z</time>
      </trkpt>
      <trkpt lat="43.42169" lon="6.64484">
        <ele>166.7</ele>
        <time>2025-01-19T09:29:47Z</time>
      </trkpt>
      <trkpt lat="43.42169" lon="6.64483">
        <ele>166.9</ele>
        <time>2025-01-19T09:29:48Z</time>
      </trkpt>
      <trkpt lat="43.42169" lon="6.64482">
        <ele>167.1</ele>
        <time>2025-01-19T09:29:49Z</time>
      </trkpt>
      <trkpt lat="43.4217" lon="6.64481">
        <ele>167.2</ele>
        <time>2025-01-19T09:29:50Z</time>
      </trkpt>
      <trkpt lat="43.4217" lon="6.64479">
        <ele>167.3</ele>
        <time>2025-01-19T09:29:51Z</time>
      </trkpt>
      <trkpt lat="43.42171" lon="6.64478">
        <ele>167.3</ele>
        <time>2025-01-19T09:29:52Z</time>
      </trkpt>
      <trkpt lat="43.42172" lon="6.64477">
        <ele>167.4</ele>
        <time>2025-01-19T09:29:53Z</time>
      </trkpt>
      <trkpt lat="43.42173" lon="6.64476">
        <ele>167.5</ele>
        <time>2025-01-19T09:29:54Z</time>
      </trkpt>
      <trkpt lat="43.42173" lon="6.64474">
        <ele>167.7</ele>
        <time>2025-01-19T09:29:55Z</time>
      </trkpt>
      <trkpt lat="43.42173" lon="6.64473">
        <ele>167.9</ele>
        <time>2025-01-19T09:29:56Z</time>
      </trkpt>
      <trkpt lat="43.42174" lon="6.64471">
        <ele>168</ele>
        <time>2025-01-19T09:29:57Z</time>
      </trkpt>
      <trkpt lat="43.42175" lon="6.6447">
        <ele>168.2</ele>
        <time>2025-01-19T09:29:58Z</time>
      </trkpt>
      <trkpt lat="43.42174" lon="6.64468">
        <ele>168.3</ele>
        <time>2025-01-19T09:29:59Z</time>
      </trkpt>
      <trkpt lat="43.42175" lon="6.64467">
        <ele>168.4</ele>
        <time>2025-01-19T09:30:00Z</time>
      </trkpt>
      <trkpt lat="43.42175" lon="6.64465">
        <ele>168.4</ele>
        <time>2025-01-19T09:30:01Z</time>
      </trkpt>
      <trkpt lat="43.42175" lon="6.64464">
        <ele>168.4</ele>
        <time>2025-01-19T09:30:02Z</time>
      </trkpt>
      <trkpt lat="43.42175" lon="6.64462">
        <ele>168.4</ele>
        <time>2025-01-19T09:30:03Z</time>
      </trkpt>
      <trkpt lat="43.42175" lon="6.64461">
        <ele>168.5</ele>
        <time>2025-01-19T09:30:04Z</time>
      </trkpt>
      <trkpt lat="43.42175" lon="6.6446">
        <ele>168.6</ele>
        <time>2025-01-19T09:30:05Z</time>
      </trkpt>
      <trkpt lat="43.42175" lon="6.64459">
        <ele>168.8</ele>
        <time>2025-01-19T09:30:06Z</time>
      </trkpt>
      <trkpt lat="43.42175" lon="6.64457">
        <ele>168.8</ele>
        <time>2025-01-19T09:30:07Z</time>
      </trkpt>
      <trkpt lat="43.42175" lon="6.64456">
        <ele>168.9</ele>
        <time>2025-01-19T09:30:08Z</time>
      </trkpt>
      <trkpt lat="43.42176" lon="6.64455">
        <ele>169.1</ele>
        <time>2025-01-19T09:30:09Z</time>
      </trkpt>
      <trkpt lat="43.42175" lon="6.64454">
        <ele>169.2</ele>
        <time>2025-01-19T09:30:10Z</time>
      </trkpt>
      <trkpt lat="43.42176" lon="6.64453">
        <ele>169.4</ele>
        <time>2025-01-19T09:30:11Z</time>
      </trkpt>
      <trkpt lat="43.42176" lon="6.64451">
        <ele>169.5</ele>
        <time>2025-01-19T09:30:12Z</time>
      </trkpt>
      <trkpt lat="43.42176" lon="6.6445">
        <ele>169.5</ele>
        <time>2025-01-19T09:30:13Z</time>
      </trkpt>
      <trkpt lat="43.42176" lon="6.64449">
        <ele>169.6</ele>
        <time>2025-01-19T09:30:14Z</time>
      </trkpt>
      <trkpt lat="43.42177" lon="6.64448">
        <ele>169.7</ele>
        <time>2025-01-19T09:30:15Z</time>
      </trkpt>
      <trkpt lat="43.42177" lon="6.64447">
        <ele>169.8</ele>
        <time>2025-01-19T09:30:16Z</time>
      </trkpt>
      <trkpt lat="43.42178" lon="6.64445">
        <ele>170</ele>
        <time>2025-01-19T09:30:17Z</time>
      </trkpt>
      <trkpt lat="43.42178" lon="6.64444">
        <ele>170.1</ele>
        <time>2025-01-19T09:30:18Z</time>
      </trkpt>
      <trkpt lat="43.42179" lon="6.64443">
        <ele>170.3</ele>
        <time>2025-01-19T09:30:19Z</time>
      </trkpt>
      <trkpt lat="43.4218" lon="6.64442">
        <ele>170.4</ele>
        <time>2025-01-19T09:30:20Z</time>
      </trkpt>
      <trkpt lat="43.4218" lon="6.64441">
        <ele>170.6</ele>
        <time>2025-01-19T09:30:21Z</time>
      </trkpt>
      <trkpt lat="43.4218" lon="6.6444">
        <ele>170.8</ele>
        <time>2025-01-19T09:30:22Z</time>
      </trkpt>
      <trkpt lat="43.4218" lon="6.64438">
        <ele>171</ele>
        <time>2025-01-19T09:30:23Z</time>
      </trkpt>
      <trkpt lat="43.4218" lon="6.64437">
        <ele>171.2</ele>
        <time>2025-01-19T09:30:24Z</time>
      </trkpt>
      <trkpt lat="43.42181" lon="6.64436">
        <ele>171.3</ele>
        <time>2025-01-19T09:30:25Z</time>
      </trkpt>
      <trkpt lat="43.42181" lon="6.64434">
        <ele>171.5</ele>
        <time>2025-01-19T09:30:26Z</time>
      </trkpt>
      <trkpt lat="43.42181" lon="6.64433">
        <ele>171.6</ele>
        <time>2025-01-19T09:30:27Z</time>
      </trkpt>
      <trkpt lat="43.42181" lon="6.64433">
        <ele>171.7</ele>
        <time>2025-01-19T09:30:28Z</time>
      </trkpt>
      <trkpt lat="43.42181" lon="6.64432">
        <ele>171.8</ele>
        <time>2025-01-19T09:30:29Z</time>
      </trkpt>
      <trkpt lat="43.42181" lon="6.64431">
        <ele>172</ele>
        <time>2025-01-19T09:30:30Z</time>
      </trkpt>
      <trkpt lat="43.42181" lon="6.6443">
        <ele>172.1</ele>
        <time>2025-01-19T09:30:31Z</time>
      </trkpt>
      <trkpt lat="43.42182" lon="6.64429">
        <ele>172.2</ele>
        <time>2025-01-19T09:30:32Z</time>
      </trkpt>
      <trkpt lat="43.42182" lon="6.64428">
        <ele>172.5</ele>
        <time>2025-01-19T09:30:33Z</time>
      </trkpt>
      <trkpt lat="43.42183" lon="6.64427">
        <ele>172.7</ele>
        <time>2025-01-19T09:30:34Z</time>
      </trkpt>
      <trkpt lat="43.42183" lon="6.64426">
        <ele>172.9</ele>
        <time>2025-01-19T09:30:35Z</time>
      </trkpt>
      <trkpt lat="43.42183" lon="6.64425">
        <ele>173</ele>
        <time>2025-01-19T09:30:36Z</time>
      </trkpt>
      <trkpt lat="43.42183" lon="6.64424">
        <ele>173.1</ele>
        <time>2025-01-19T09:30:37Z</time>
      </trkpt>
      <trkpt lat="43.42184" lon="6.64423">
        <ele>173.3</ele>
        <time>2025-01-19T09:30:38Z</time>
      </trkpt>
      <trkpt lat="43.42184" lon="6.64422">
        <ele>173.4</ele>
        <time>2025-01-19T09:30:39Z</time>
      </trkpt>
      <trkpt lat="43.42184" lon="6.64421">
        <ele>173.5</ele>
        <time>2025-01-19T09:30:40Z</time>
      </trkpt>
      <trkpt lat="43.42184" lon="6.6442">
        <ele>173.7</ele>
        <time>2025-01-19T09:30:41Z</time>
      </trkpt>
      <trkpt lat="43.42184" lon="6.64419">
        <ele>173.8</ele>
        <time>2025-01-19T09:30:42Z</time>
      </trkpt>
      <trkpt lat="43.42184" lon="6.64417">
        <ele>174</ele>
        <time>2025-01-19T09:30:43Z</time>
      </trkpt>
      <trkpt lat="43.42185" lon="6.64416">
        <ele>174.1</ele>
        <time>2025-01-19T09:30:44Z</time>
      </trkpt>
      <trkpt lat="43.42185" lon="6.64415">
        <ele>174.3</ele>
        <time>2025-01-19T09:30:45Z</time>
      </trkpt>
      <trkpt lat="43.42185" lon="6.64414">
        <ele>174.5</ele>
        <time>2025-01-19T09:30:46Z</time>
      </trkpt>
      <trkpt lat="43.42185" lon="6.64412">
        <ele>174.6</ele>
        <time>2025-01-19T09:30:47Z</time>
      </trkpt>
      <trkpt lat="43.42185" lon="6.64411">
        <ele>174.8</ele>
        <time>2025-01-19T09:30:48Z</time>
      </trkpt>
      <trkpt lat="43.42185" lon="6.6441">
        <ele>175.1</ele>
        <time>2025-01-19T09:30:49Z</time>
      </trkpt>
      <trkpt lat="43.42185" lon="6.64409">
        <ele>175.3</ele>
        <time>2025-01-19T09:30:50Z</time>
      </trkpt>
      <trkpt lat="43.42185" lon="6.64408">
        <ele>175.4</ele>
        <time>2025-01-19T09:30:51Z</time>
      </trkpt>
      <trkpt lat="43.42185" lon="6.64406">
        <ele>175.6</ele>
        <time>2025-01-19T09:30:52Z</time>
      </trkpt>
      <trkpt lat="43.42185" lon="6.64405">
        <ele>175.7</ele>
        <time>2025-01-19T09:30:53Z</time>
      </trkpt>
      <trkpt lat="43.42185" lon="6.64403">
        <ele>175.8</ele>
        <time>2025-01-19T09:30:54Z</time>
      </trkpt>
      <trkpt lat="43.42185" lon="6.64402">
        <ele>175.8</ele>
        <time>2025-01-19T09:30:55Z</time>
      </trkpt>
      <trkpt lat="43.42185" lon="6.64401">
        <ele>175.9</ele>
        <time>2025-01-19T09:30:56Z</time>
      </trkpt>
      <trkpt lat="43.42185" lon="6.64399">
        <ele>175.9</ele>
        <time>2025-01-19T09:30:57Z</time>
      </trkpt>
      <trkpt lat="43.42184" lon="6.64397">
        <ele>176</ele>
        <time>2025-01-19T09:30:58Z</time>
      </trkpt>
      <trkpt lat="43.42185" lon="6.64396">
        <ele>176.1</ele>
        <time>2025-01-19T09:30:59Z</time>
      </trkpt>
      <trkpt lat="43.42185" lon="6.64394">
        <ele>176.3</ele>
        <time>2025-01-19T09:31:00Z</time>
      </trkpt>
      <trkpt lat="43.42185" lon="6.64393">
        <ele>176.3</ele>
        <time>2025-01-19T09:31:01Z</time>
      </trkpt>
      <trkpt lat="43.42184" lon="6.64391">
        <ele>176.5</ele>
        <time>2025-01-19T09:31:02Z</time>
      </trkpt>
      <trkpt lat="43.42185" lon="6.64389">
        <ele>176.6</ele>
        <time>2025-01-19T09:31:03Z</time>
      </trkpt>
      <trkpt lat="43.42184" lon="6.64388">
        <ele>176.7</ele>
        <time>2025-01-19T09:31:04Z</time>
      </trkpt>
      <trkpt lat="43.42184" lon="6.64386">
        <ele>176.8</ele>
        <time>2025-01-19T09:31:05Z</time>
      </trkpt>
      <trkpt lat="43.42183" lon="6.64384">
        <ele>176.8</ele>
        <time>2025-01-19T09:31:06Z</time>
      </trkpt>
      <trkpt lat="43.42181" lon="6.64383">
        <ele>176.8</ele>
        <time>2025-01-19T09:31:07Z</time>
      </trkpt>
      <trkpt lat="43.4218" lon="6.64382">
        <ele>176.8</ele>
        <time>2025-01-19T09:31:08Z</time>
      </trkpt>
      <trkpt lat="43.4218" lon="6.64381">
        <ele>176.8</ele>
        <time>2025-01-19T09:31:09Z</time>
      </trkpt>
      <trkpt lat="43.42179" lon="6.6438">
        <ele>176.8</ele>
        <time>2025-01-19T09:31:10Z</time>
      </trkpt>
      <trkpt lat="43.42179" lon="6.64379">
        <ele>176.8</ele>
        <time>2025-01-19T09:31:11Z</time>
      </trkpt>
      <trkpt lat="43.42179" lon="6.64378">
        <ele>176.9</ele>
        <time>2025-01-19T09:31:12Z</time>
      </trkpt>
      <trkpt lat="43.42177" lon="6.64376">
        <ele>176.9</ele>
        <time>2025-01-19T09:31:13Z</time>
      </trkpt>
      <trkpt lat="43.42176" lon="6.64375">
        <ele>176.9</ele>
        <time>2025-01-19T09:31:14Z</time>
      </trkpt>
      <trkpt lat="43.42175" lon="6.64374">
        <ele>176.8</ele>
        <time>2025-01-19T09:31:15Z</time>
      </trkpt>
      <trkpt lat="43.42174" lon="6.64373">
        <ele>176.8</ele>
        <time>2025-01-19T09:31:16Z</time>
      </trkpt>
      <trkpt lat="43.42173" lon="6.64372">
        <ele>176.7</ele>
        <time>2025-01-19T09:31:17Z</time>
      </trkpt>
      <trkpt lat="43.42172" lon="6.6437">
        <ele>176.7</ele>
        <time>2025-01-19T09:31:18Z</time>
      </trkpt>
      <trkpt lat="43.42172" lon="6.64369">
        <ele>176.7</ele>
        <time>2025-01-19T09:31:19Z</time>
      </trkpt>
      <trkpt lat="43.42171" lon="6.64368">
        <ele>176.7</ele>
        <time>2025-01-19T09:31:20Z</time>
      </trkpt>
      <trkpt lat="43.4217" lon="6.64366">
        <ele>176.7</ele>
        <time>2025-01-19T09:31:21Z</time>
      </trkpt>
      <trkpt lat="43.42169" lon="6.64365">
        <ele>176.7</ele>
        <time>2025-01-19T09:31:22Z</time>
      </trkpt>
      <trkpt lat="43.42168" lon="6.64363">
        <ele>176.8</ele>
        <time>2025-01-19T09:31:23Z</time>
      </trkpt>
      <trkpt lat="43.42168" lon="6.64362">
        <ele>176.8</ele>
        <time>2025-01-19T09:31:24Z</time>
      </trkpt>
      <trkpt lat="43.42167" lon="6.6436">
        <ele>176.8</ele>
        <time>2025-01-19T09:31:25Z</time>
      </trkpt>
      <trkpt lat="43.42165" lon="6.64359">
        <ele>176.8</ele>
        <time>2025-01-19T09:31:26Z</time>
      </trkpt>
      <trkpt lat="43.42164" lon="6.64358">
        <ele>176.8</ele>
        <time>2025-01-19T09:31:27Z</time>
      </trkpt>
      <trkpt lat="43.42163" lon="6.64356">
        <ele>176.9</ele>
        <time>2025-01-19T09:31:28Z</time>
      </trkpt>
      <trkpt lat="43.42163" lon="6.64354">
        <ele>177</ele>
        <time>2025-01-19T09:31:29Z</time>
      </trkpt>
      <trkpt lat="43.42162" lon="6.64353">
        <ele>177</ele>
        <time>2025-01-19T09:31:30Z</time>
      </trkpt>
      <trkpt lat="43.42162" lon="6.64352">
        <ele>176.9</ele>
        <time>2025-01-19T09:31:31Z</time>
      </trkpt>
      <trkpt lat="43.4216" lon="6.64351">
        <ele>176.9</ele>
        <time>2025-01-19T09:31:32Z</time>
      </trkpt>
      <trkpt lat="43.4216" lon="6.6435">
        <ele>177.1</ele>
        <time>2025-01-19T09:31:33Z</time>
      </trkpt>
      <trkpt lat="43.42159" lon="6.64348">
        <ele>177.2</ele>
        <time>2025-01-19T09:31:34Z</time>
      </trkpt>
      <trkpt lat="43.42159" lon="6.64347">
        <ele>177.3</ele>
        <time>2025-01-19T09:31:35Z</time>
      </trkpt>
      <trkpt lat="43.42158" lon="6.64345">
        <ele>177.3</ele>
        <time>2025-01-19T09:31:36Z</time>
      </trkpt>
      <trkpt lat="43.42158" lon="6.64344">
        <ele>177.4</ele>
        <time>2025-01-19T09:31:37Z</time>
      </trkpt>
      <trkpt lat="43.42157" lon="6.64342">
        <ele>177.4</ele>
        <time>2025-01-19T09:31:38Z</time>
      </trkpt>
      <trkpt lat="43.42156" lon="6.64341">
        <ele>177.5</ele>
        <time>2025-01-19T09:31:39Z</time>
      </trkpt>
      <trkpt lat="43.42155" lon="6.6434">
        <ele>177.4</ele>
        <time>2025-01-19T09:31:40Z</time>
      </trkpt>
      <trkpt lat="43.42154" lon="6.64339">
        <ele>177.4</ele>
        <time>2025-01-19T09:31:41Z</time>
      </trkpt>
      <trkpt lat="43.42154" lon="6.64338">
        <ele>177.4</ele>
        <time>2025-01-19T09:31:42Z</time>
      </trkpt>
      <trkpt lat="43.42153" lon="6.64337">
        <ele>177.5</ele>
        <time>2025-01-19T09:31:43Z</time>
      </trkpt>
      <trkpt lat="43.42152" lon="6.64335">
        <ele>177.5</ele>
        <time>2025-01-19T09:31:44Z</time>
      </trkpt>
      <trkpt lat="43.42152" lon="6.64334">
        <ele>177.6</ele>
        <time>2025-01-19T09:31:45Z</time>
      </trkpt>
      <trkpt lat="43.4215" lon="6.64332">
        <ele>177.6</ele>
        <time>2025-01-19T09:31:46Z</time>
      </trkpt>
      <trkpt lat="43.42149" lon="6.64331">
        <ele>177.6</ele>
        <time>2025-01-19T09:31:47Z</time>
      </trkpt>
      <trkpt lat="43.42148" lon="6.6433">
        <ele>177.7</ele>
        <time>2025-01-19T09:31:48Z</time>
      </trkpt>
      <trkpt lat="43.42148" lon="6.64329">
        <ele>177.6</ele>
        <time>2025-01-19T09:31:49Z</time>
      </trkpt>
      <trkpt lat="43.42147" lon="6.64328">
        <ele>177.8</ele>
        <time>2025-01-19T09:31:50Z</time>
      </trkpt>
      <trkpt lat="43.42146" lon="6.64326">
        <ele>177.9</ele>
        <time>2025-01-19T09:31:51Z</time>
      </trkpt>
      <trkpt lat="43.42145" lon="6.64325">
        <ele>177.9</ele>
        <time>2025-01-19T09:31:52Z</time>
      </trkpt>
      <trkpt lat="43.42144" lon="6.64324">
        <ele>178</ele>
        <time>2025-01-19T09:31:53Z</time>
      </trkpt>
      <trkpt lat="43.42143" lon="6.64323">
        <ele>178</ele>
        <time>2025-01-19T09:31:54Z</time>
      </trkpt>
      <trkpt lat="43.42143" lon="6.64322">
        <ele>178.2</ele>
        <time>2025-01-19T09:31:55Z</time>
      </trkpt>
      <trkpt lat="43.42142" lon="6.6432">
        <ele>178.3</ele>
        <time>2025-01-19T09:31:56Z</time>
      </trkpt>
      <trkpt lat="43.4214" lon="6.64319">
        <ele>178.3</ele>
        <time>2025-01-19T09:31:57Z</time>
      </trkpt>
      <trkpt lat="43.42139" lon="6.64318">
        <ele>178.3</ele>
        <time>2025-01-19T09:31:58Z</time>
      </trkpt>
      <trkpt lat="43.42138" lon="6.64317">
        <ele>178.4</ele>
        <time>2025-01-19T09:31:59Z</time>
      </trkpt>
      <trkpt lat="43.42138" lon="6.64316">
        <ele>178.4</ele>
        <time>2025-01-19T09:32:00Z</time>
      </trkpt>
      <trkpt lat="43.42137" lon="6.64315">
        <ele>178.3</ele>
        <time>2025-01-19T09:32:01Z</time>
      </trkpt>
      <trkpt lat="43.42136" lon="6.64314">
        <ele>178.4</ele>
        <time>2025-01-19T09:32:02Z</time>
      </trkpt>
      <trkpt lat="43.42135" lon="6.64312">
        <ele>178.4</ele>
        <time>2025-01-19T09:32:03Z</time>
      </trkpt>
      <trkpt lat="43.42134" lon="6.64311">
        <ele>178.4</ele>
        <time>2025-01-19T09:32:04Z</time>
      </trkpt>
      <trkpt lat="43.42134" lon="6.6431">
        <ele>178.4</ele>
        <time>2025-01-19T09:32:05Z</time>
      </trkpt>
      <trkpt lat="43.42133" lon="6.64309">
        <ele>178.5</ele>
        <time>2025-01-19T09:32:06Z</time>
      </trkpt>
      <trkpt lat="43.42132" lon="6.64308">
        <ele>178.5</ele>
        <time>2025-01-19T09:32:07Z</time>
      </trkpt>
      <trkpt lat="43.42131" lon="6.64307">
        <ele>178.5</ele>
        <time>2025-01-19T09:32:08Z</time>
      </trkpt>
      <trkpt lat="43.4213" lon="6.64306">
        <ele>178.5</ele>
        <time>2025-01-19T09:32:09Z</time>
      </trkpt>
      <trkpt lat="43.42129" lon="6.64305">
        <ele>178.5</ele>
        <time>2025-01-19T09:32:10Z</time>
      </trkpt>
      <trkpt lat="43.42128" lon="6.64304">
        <ele>178.5</ele>
        <time>2025-01-19T09:32:11Z</time>
      </trkpt>
      <trkpt lat="43.42127" lon="6.64302">
        <ele>178.5</ele>
        <time>2025-01-19T09:32:12Z</time>
      </trkpt>
      <trkpt lat="43.42127" lon="6.64301">
        <ele>178.5</ele>
        <time>2025-01-19T09:32:13Z</time>
      </trkpt>
      <trkpt lat="43.42126" lon="6.64301">
        <ele>178.6</ele>
        <time>2025-01-19T09:32:14Z</time>
      </trkpt>
      <trkpt lat="43.42125" lon="6.64299">
        <ele>178.6</ele>
        <time>2025-01-19T09:32:15Z</time>
      </trkpt>
      <trkpt lat="43.42124" lon="6.64298">
        <ele>178.6</ele>
        <time>2025-01-19T09:32:16Z</time>
      </trkpt>
      <trkpt lat="43.42123" lon="6.64297">
        <ele>178.6</ele>
        <time>2025-01-19T09:32:17Z</time>
      </trkpt>
      <trkpt lat="43.42122" lon="6.64296">
        <ele>178.6</ele>
        <time>2025-01-19T09:32:18Z</time>
      </trkpt>
      <trkpt lat="43.42121" lon="6.64295">
        <ele>178.6</ele>
        <time>2025-01-19T09:32:19Z</time>
      </trkpt>
      <trkpt lat="43.42119" lon="6.64294">
        <ele>178.6</ele>
        <time>2025-01-19T09:32:20Z</time>
      </trkpt>
      <trkpt lat="43.42118" lon="6.64294">
        <ele>178.6</ele>
        <time>2025-01-19T09:32:21Z</time>
      </trkpt>
      <trkpt lat="43.42117" lon="6.64293">
        <ele>178.6</ele>
        <time>2025-01-19T09:32:22Z</time>
      </trkpt>
      <trkpt lat="43.42116" lon="6.64292">
        <ele>178.5</ele>
        <time>2025-01-19T09:32:23Z</time>
      </trkpt>
      <trkpt lat="43.42115" lon="6.64292">
        <ele>178.5</ele>
        <time>2025-01-19T09:32:24Z</time>
      </trkpt>
      <trkpt lat="43.42115" lon="6.64291">
        <ele>178.5</ele>
        <time>2025-01-19T09:32:25Z</time>
      </trkpt>
      <trkpt lat="43.42114" lon="6.64291">
        <ele>178.4</ele>
        <time>2025-01-19T09:32:26Z</time>
      </trkpt>
      <trkpt lat="43.42113" lon="6.64291">
        <ele>178.3</ele>
        <time>2025-01-19T09:32:27Z</time>
      </trkpt>
      <trkpt lat="43.42113" lon="6.6429">
        <ele>178.2</ele>
        <time>2025-01-19T09:32:28Z</time>
      </trkpt>
      <trkpt lat="43.42112" lon="6.64289">
        <ele>178.2</ele>
        <time>2025-01-19T09:32:29Z</time>
      </trkpt>
      <trkpt lat="43.42111" lon="6.64288">
        <ele>178.2</ele>
        <time>2025-01-19T09:32:30Z</time>
      </trkpt>
      <trkpt lat="43.42109" lon="6.64286">
        <ele>178.3</ele>
        <time>2025-01-19T09:32:31Z</time>
      </trkpt>
      <trkpt lat="43.42107" lon="6.64285">
        <ele>178.3</ele>
        <time>2025-01-19T09:32:32Z</time>
      </trkpt>
      <trkpt lat="43.42107" lon="6.64284">
        <ele>178.3</ele>
        <time>2025-01-19T09:32:33Z</time>
      </trkpt>
      <trkpt lat="43.42105" lon="6.64283">
        <ele>178.3</ele>
        <time>2025-01-19T09:32:34Z</time>
      </trkpt>
      <trkpt lat="43.42104" lon="6.64283">
        <ele>178.4</ele>
        <time>2025-01-19T09:32:35Z</time>
      </trkpt>
      <trkpt lat="43.42102" lon="6.64282">
        <ele>178.4</ele>
        <time>2025-01-19T09:32:36Z</time>
      </trkpt>
      <trkpt lat="43.42101" lon="6.64281">
        <ele>178.4</ele>
        <time>2025-01-19T09:32:37Z</time>
      </trkpt>
      <trkpt lat="43.421" lon="6.6428">
        <ele>178.5</ele>
        <time>2025-01-19T09:32:38Z</time>
      </trkpt>
      <trkpt lat="43.42099" lon="6.6428">
        <ele>178.5</ele>
        <time>2025-01-19T09:32:39Z</time>
      </trkpt>
      <trkpt lat="43.42098" lon="6.64279">
        <ele>178.5</ele>
        <time>2025-01-19T09:32:40Z</time>
      </trkpt>
      <trkpt lat="43.42096" lon="6.64278">
        <ele>178.5</ele>
        <time>2025-01-19T09:32:41Z</time>
      </trkpt>
      <trkpt lat="43.42095" lon="6.64277">
        <ele>178.6</ele>
        <time>2025-01-19T09:32:42Z</time>
      </trkpt>
      <trkpt lat="43.42094" lon="6.64276">
        <ele>178.5</ele>
        <time>2025-01-19T09:32:43Z</time>
      </trkpt>
      <trkpt lat="43.42092" lon="6.64275">
        <ele>178.5</ele>
        <time>2025-01-19T09:32:44Z</time>
      </trkpt>
      <trkpt lat="43.42091" lon="6.64275">
        <ele>178.6</ele>
        <time>2025-01-19T09:32:45Z</time>
      </trkpt>
      <trkpt lat="43.4209" lon="6.64274">
        <ele>178.6</ele>
        <time>2025-01-19T09:32:46Z</time>
      </trkpt>
      <trkpt lat="43.42089" lon="6.64273">
        <ele>178.7</ele>
        <time>2025-01-19T09:32:47Z</time>
      </trkpt>
      <trkpt lat="43.42089" lon="6.64272">
        <ele>178.7</ele>
        <time>2025-01-19T09:32:48Z</time>
      </trkpt>
      <trkpt lat="43.42088" lon="6.64271">
        <ele>178.8</ele>
        <time>2025-01-19T09:32:49Z</time>
      </trkpt>
      <trkpt lat="43.42087" lon="6.64271">
        <ele>178.8</ele>
        <time>2025-01-19T09:32:50Z</time>
      </trkpt>
      <trkpt lat="43.42086" lon="6.6427">
        <ele>178.9</ele>
        <time>2025-01-19T09:32:51Z</time>
      </trkpt>
      <trkpt lat="43.42085" lon="6.64269">
        <ele>179</ele>
        <time>2025-01-19T09:32:52Z</time>
      </trkpt>
      <trkpt lat="43.42084" lon="6.64268">
        <ele>179</ele>
        <time>2025-01-19T09:32:53Z</time>
      </trkpt>
      <trkpt lat="43.42082" lon="6.64267">
        <ele>179</ele>
        <time>2025-01-19T09:32:54Z</time>
      </trkpt>
      <trkpt lat="43.42081" lon="6.64266">
        <ele>179.1</ele>
        <time>2025-01-19T09:32:55Z</time>
      </trkpt>
      <trkpt lat="43.4208" lon="6.64265">
        <ele>179.1</ele>
        <time>2025-01-19T09:32:56Z</time>
      </trkpt>
      <trkpt lat="43.4208" lon="6.64264">
        <ele>179</ele>
        <time>2025-01-19T09:32:57Z</time>
      </trkpt>
      <trkpt lat="43.42079" lon="6.64263">
        <ele>179</ele>
        <time>2025-01-19T09:32:58Z</time>
      </trkpt>
      <trkpt lat="43.42078" lon="6.64262">
        <ele>179</ele>
        <time>2025-01-19T09:32:59Z</time>
      </trkpt>
      <trkpt lat="43.42077" lon="6.64261">
        <ele>179</ele>
        <time>2025-01-19T09:33:00Z</time>
      </trkpt>
      <trkpt lat="43.42076" lon="6.64259">
        <ele>179.1</ele>
        <time>2025-01-19T09:33:01Z</time>
      </trkpt>
      <trkpt lat="43.42075" lon="6.64258">
        <ele>179.1</ele>
        <time>2025-01-19T09:33:02Z</time>
      </trkpt>
      <trkpt lat="43.42075" lon="6.64257">
        <ele>179.2</ele>
        <time>2025-01-19T09:33:03Z</time>
      </trkpt>
      <trkpt lat="43.42074" lon="6.64256">
        <ele>179.2</ele>
        <time>2025-01-19T09:33:04Z</time>
      </trkpt>
      <trkpt lat="43.42073" lon="6.64255">
        <ele>179.3</ele>
        <time>2025-01-19T09:33:05Z</time>
      </trkpt>
      <trkpt lat="43.42072" lon="6.64254">
        <ele>179.3</ele>
        <time>2025-01-19T09:33:06Z</time>
      </trkpt>
      <trkpt lat="43.42071" lon="6.64253">
        <ele>179.4</ele>
        <time>2025-01-19T09:33:07Z</time>
      </trkpt>
      <trkpt lat="43.4207" lon="6.64252">
        <ele>179.3</ele>
        <time>2025-01-19T09:33:08Z</time>
      </trkpt>
      <trkpt lat="43.42069" lon="6.64252">
        <ele>179.4</ele>
        <time>2025-01-19T09:33:09Z</time>
      </trkpt>
      <trkpt lat="43.42068" lon="6.64251">
        <ele>179.5</ele>
        <time>2025-01-19T09:33:10Z</time>
      </trkpt>
      <trkpt lat="43.42067" lon="6.64249">
        <ele>179.6</ele>
        <time>2025-01-19T09:33:11Z</time>
      </trkpt>
      <trkpt lat="43.42065" lon="6.64248">
        <ele>179.7</ele>
        <time>2025-01-19T09:33:12Z</time>
      </trkpt>
      <trkpt lat="43.42065" lon="6.64247">
        <ele>179.7</ele>
        <time>2025-01-19T09:33:13Z</time>
      </trkpt>
      <trkpt lat="43.42064" lon="6.64246">
        <ele>179.8</ele>
        <time>2025-01-19T09:33:14Z</time>
      </trkpt>
      <trkpt lat="43.42063" lon="6.64245">
        <ele>179.8</ele>
        <time>2025-01-19T09:33:15Z</time>
      </trkpt>
      <trkpt lat="43.42062" lon="6.64244">
        <ele>179.8</ele>
        <time>2025-01-19T09:33:16Z</time>
      </trkpt>
      <trkpt lat="43.42061" lon="6.64243">
        <ele>179.9</ele>
        <time>2025-01-19T09:33:17Z</time>
      </trkpt>
      <trkpt lat="43.4206" lon="6.64241">
        <ele>179.9</ele>
        <time>2025-01-19T09:33:18Z</time>
      </trkpt>
      <trkpt lat="43.42059" lon="6.6424">
        <ele>180</ele>
        <time>2025-01-19T09:33:19Z</time>
      </trkpt>
      <trkpt lat="43.42058" lon="6.64239">
        <ele>180.1</ele>
        <time>2025-01-19T09:33:20Z</time>
      </trkpt>
      <trkpt lat="43.42058" lon="6.64238">
        <ele>180.2</ele>
        <time>2025-01-19T09:33:21Z</time>
      </trkpt>
      <trkpt lat="43.42057" lon="6.64237">
        <ele>180.3</ele>
        <time>2025-01-19T09:33:22Z</time>
      </trkpt>
      <trkpt lat="43.42057" lon="6.64236">
        <ele>180.4</ele>
        <time>2025-01-19T09:33:23Z</time>
      </trkpt>
      <trkpt lat="43.42056" lon="6.64235">
        <ele>180.4</ele>
        <time>2025-01-19T09:33:24Z</time>
      </trkpt>
      <trkpt lat="43.42056" lon="6.64234">
        <ele>180.4</ele>
        <time>2025-01-19T09:33:25Z</time>
      </trkpt>
      <trkpt lat="43.42055" lon="6.64233">
        <ele>180.4</ele>
        <time>2025-01-19T09:33:26Z</time>
      </trkpt>
      <trkpt lat="43.42055" lon="6.64231">
        <ele>180.4</ele>
        <time>2025-01-19T09:33:27Z</time>
      </trkpt>
      <trkpt lat="43.42054" lon="6.6423">
        <ele>180.4</ele>
        <time>2025-01-19T09:33:28Z</time>
      </trkpt>
      <trkpt lat="43.42053" lon="6.64229">
        <ele>180.5</ele>
        <time>2025-01-19T09:33:29Z</time>
      </trkpt>
      <trkpt lat="43.42052" lon="6.64228">
        <ele>180.6</ele>
        <time>2025-01-19T09:33:30Z</time>
      </trkpt>
      <trkpt lat="43.42052" lon="6.64227">
        <ele>180.7</ele>
        <time>2025-01-19T09:33:31Z</time>
      </trkpt>
      <trkpt lat="43.42051" lon="6.64226">
        <ele>180.8</ele>
        <time>2025-01-19T09:33:32Z</time>
      </trkpt>
      <trkpt lat="43.42051" lon="6.64224">
        <ele>180.9</ele>
        <time>2025-01-19T09:33:33Z</time>
      </trkpt>
      <trkpt lat="43.4205" lon="6.64223">
        <ele>181</ele>
        <time>2025-01-19T09:33:34Z</time>
      </trkpt>
      <trkpt lat="43.4205" lon="6.64222">
        <ele>181</ele>
        <time>2025-01-19T09:33:35Z</time>
      </trkpt>
      <trkpt lat="43.42049" lon="6.6422">
        <ele>181.1</ele>
        <time>2025-01-19T09:33:36Z</time>
      </trkpt>
      <trkpt lat="43.42049" lon="6.64219">
        <ele>181.1</ele>
        <time>2025-01-19T09:33:37Z</time>
      </trkpt>
      <trkpt lat="43.42049" lon="6.64218">
        <ele>181.2</ele>
        <time>2025-01-19T09:33:38Z</time>
      </trkpt>
      <trkpt lat="43.42048" lon="6.64217">
        <ele>181.3</ele>
        <time>2025-01-19T09:33:39Z</time>
      </trkpt>
      <trkpt lat="43.42048" lon="6.64215">
        <ele>181.3</ele>
        <time>2025-01-19T09:33:40Z</time>
      </trkpt>
      <trkpt lat="43.42047" lon="6.64214">
        <ele>181.4</ele>
        <time>2025-01-19T09:33:41Z</time>
      </trkpt>
      <trkpt lat="43.42046" lon="6.64213">
        <ele>181.7</ele>
        <time>2025-01-19T09:33:42Z</time>
      </trkpt>
      <trkpt lat="43.42045" lon="6.64211">
        <ele>181.8</ele>
        <time>2025-01-19T09:33:43Z</time>
      </trkpt>
      <trkpt lat="43.42045" lon="6.64211">
        <ele>181.9</ele>
        <time>2025-01-19T09:33:44Z</time>
      </trkpt>
      <trkpt lat="43.42045" lon="6.64209">
        <ele>182</ele>
        <time>2025-01-19T09:33:45Z</time>
      </trkpt>
      <trkpt lat="43.42044" lon="6.64208">
        <ele>182</ele>
        <time>2025-01-19T09:33:46Z</time>
      </trkpt>
      <trkpt lat="43.42043" lon="6.64207">
        <ele>182.2</ele>
        <time>2025-01-19T09:33:47Z</time>
      </trkpt>
      <trkpt lat="43.42042" lon="6.64206">
        <ele>182.2</ele>
        <time>2025-01-19T09:33:48Z</time>
      </trkpt>
      <trkpt lat="43.42041" lon="6.64205">
        <ele>182.3</ele>
        <time>2025-01-19T09:33:49Z</time>
      </trkpt>
      <trkpt lat="43.42041" lon="6.64204">
        <ele>182.4</ele>
        <time>2025-01-19T09:33:50Z</time>
      </trkpt>
      <trkpt lat="43.4204" lon="6.64203">
        <ele>182.5</ele>
        <time>2025-01-19T09:33:51Z</time>
      </trkpt>
      <trkpt lat="43.42039" lon="6.64202">
        <ele>182.7</ele>
        <time>2025-01-19T09:33:52Z</time>
      </trkpt>
      <trkpt lat="43.42038" lon="6.64201">
        <ele>182.8</ele>
        <time>2025-01-19T09:33:53Z</time>
      </trkpt>
      <trkpt lat="43.42038" lon="6.642">
        <ele>182.9</ele>
        <time>2025-01-19T09:33:54Z</time>
      </trkpt>
      <trkpt lat="43.42037" lon="6.64199">
        <ele>183</ele>
        <time>2025-01-19T09:33:55Z</time>
      </trkpt>
      <trkpt lat="43.42036" lon="6.64198">
        <ele>183.1</ele>
        <time>2025-01-19T09:33:56Z</time>
      </trkpt>
      <trkpt lat="43.42035" lon="6.64197">
        <ele>183.1</ele>
        <time>2025-01-19T09:33:57Z</time>
      </trkpt>
      <trkpt lat="43.42034" lon="6.64196">
        <ele>183.2</ele>
        <time>2025-01-19T09:33:58Z</time>
      </trkpt>
      <trkpt lat="43.42033" lon="6.64195">
        <ele>183.2</ele>
        <time>2025-01-19T09:33:59Z</time>
      </trkpt>
      <trkpt lat="43.42032" lon="6.64194">
        <ele>183.2</ele>
        <time>2025-01-19T09:34:00Z</time>
      </trkpt>
      <trkpt lat="43.42032" lon="6.64193">
        <ele>183.2</ele>
        <time>2025-01-19T09:34:01Z</time>
      </trkpt>
      <trkpt lat="43.42031" lon="6.64192">
        <ele>183.2</ele>
        <time>2025-01-19T09:34:02Z</time>
      </trkpt>
      <trkpt lat="43.42031" lon="6.6419">
        <ele>183.2</ele>
        <time>2025-01-19T09:34:03Z</time>
      </trkpt>
      <trkpt lat="43.4203" lon="6.64189">
        <ele>183.2</ele>
        <time>2025-01-19T09:34:04Z</time>
      </trkpt>
      <trkpt lat="43.42029" lon="6.64188">
        <ele>183.3</ele>
        <time>2025-01-19T09:34:05Z</time>
      </trkpt>
      <trkpt lat="43.42029" lon="6.64187">
        <ele>183.4</ele>
        <time>2025-01-19T09:34:06Z</time>
      </trkpt>
      <trkpt lat="43.42029" lon="6.64186">
        <ele>183.4</ele>
        <time>2025-01-19T09:34:07Z</time>
      </trkpt>
      <trkpt lat="43.42028" lon="6.64187">
        <ele>183.5</ele>
        <time>2025-01-19T09:34:08Z</time>
      </trkpt>
      <trkpt lat="43.42028" lon="6.64186">
        <ele>183.6</ele>
        <time>2025-01-19T09:34:09Z</time>
      </trkpt>
      <trkpt lat="43.42029" lon="6.64186">
        <ele>183.6</ele>
        <time>2025-01-19T09:34:10Z</time>
      </trkpt>
      <trkpt lat="43.42028" lon="6.64186">
        <ele>183.7</ele>
        <time>2025-01-19T09:34:11Z</time>
      </trkpt>
      <trkpt lat="43.42028" lon="6.64186">
        <ele>183.8</ele>
        <time>2025-01-19T09:34:12Z</time>
      </trkpt>
      <trkpt lat="43.42028" lon="6.64187">
        <ele>183.7</ele>
        <time>2025-01-19T09:34:13Z</time>
      </trkpt>
      <trkpt lat="43.42028" lon="6.64187">
        <ele>183.7</ele>
        <time>2025-01-19T09:34:14Z</time>
      </trkpt>
      <trkpt lat="43.42029" lon="6.64187">
        <ele>183.6</ele>
        <time>2025-01-19T09:34:15Z</time>
      </trkpt>
      <trkpt lat="43.42029" lon="6.64187">
        <ele>183.6</ele>
        <time>2025-01-19T09:34:16Z</time>
      </trkpt>
      <trkpt lat="43.42029" lon="6.64187">
        <ele>183.6</ele>
        <time>2025-01-19T09:34:17Z</time>
      </trkpt>
      <trkpt lat="43.42029" lon="6.64187">
        <ele>183.7</ele>
        <time>2025-01-19T09:34:18Z</time>
      </trkpt>
      <trkpt lat="43.42029" lon="6.64187">
        <ele>183.7</ele>
        <time>2025-01-19T09:34:19Z</time>
      </trkpt>
      <trkpt lat="43.42028" lon="6.64187">
        <ele>183.7</ele>
        <time>2025-01-19T09:34:20Z</time>
      </trkpt>
      <trkpt lat="43.42028" lon="6.64187">
        <ele>183.8</ele>
        <time>2025-01-19T09:34:21Z</time>
      </trkpt>
      <trkpt lat="43.42028" lon="6.64187">
        <ele>183.8</ele>
        <time>2025-01-19T09:34:22Z</time>
      </trkpt>
      <trkpt lat="43.42028" lon="6.64187">
        <ele>183.8</ele>
        <time>2025-01-19T09:34:23Z</time>
      </trkpt>
      <trkpt lat="43.42028" lon="6.64186">
        <ele>183.8</ele>
        <time>2025-01-19T09:34:24Z</time>
      </trkpt>
      <trkpt lat="43.42028" lon="6.64186">
        <ele>183.8</ele>
        <time>2025-01-19T09:34:25Z</time>
      </trkpt>
      <trkpt lat="43.42028" lon="6.64186">
        <ele>183.8</ele>
        <time>2025-01-19T09:34:26Z</time>
      </trkpt>
      <trkpt lat="43.42028" lon="6.64185">
        <ele>183.7</ele>
        <time>2025-01-19T09:34:27Z</time>
      </trkpt>
      <trkpt lat="43.42027" lon="6.64185">
        <ele>183.7</ele>
        <time>2025-01-19T09:34:28Z</time>
      </trkpt>
      <trkpt lat="43.42027" lon="6.64184">
        <ele>183.7</ele>
        <time>2025-01-19T09:34:29Z</time>
      </trkpt>
      <trkpt lat="43.42026" lon="6.64183">
        <ele>183.7</ele>
        <time>2025-01-19T09:34:30Z</time>
      </trkpt>
      <trkpt lat="43.42025" lon="6.64183">
        <ele>183.7</ele>
        <time>2025-01-19T09:34:31Z</time>
      </trkpt>
      <trkpt lat="43.42025" lon="6.64182">
        <ele>183.8</ele>
        <time>2025-01-19T09:34:32Z</time>
      </trkpt>
      <trkpt lat="43.42024" lon="6.64181">
        <ele>183.7</ele>
        <time>2025-01-19T09:34:33Z</time>
      </trkpt>
      <trkpt lat="43.42024" lon="6.64181">
        <ele>183.8</ele>
        <time>2025-01-19T09:34:34Z</time>
      </trkpt>
      <trkpt lat="43.42024" lon="6.6418">
        <ele>183.8</ele>
        <time>2025-01-19T09:34:35Z</time>
      </trkpt>
      <trkpt lat="43.42023" lon="6.6418">
        <ele>183.9</ele>
        <time>2025-01-19T09:34:36Z</time>
      </trkpt>
      <trkpt lat="43.42023" lon="6.64179">
        <ele>183.9</ele>
        <time>2025-01-19T09:34:37Z</time>
      </trkpt>
      <trkpt lat="43.42022" lon="6.64178">
        <ele>183.9</ele>
        <time>2025-01-19T09:34:38Z</time>
      </trkpt>
      <trkpt lat="43.42022" lon="6.64177">
        <ele>183.9</ele>
        <time>2025-01-19T09:34:39Z</time>
      </trkpt>
      <trkpt lat="43.42021" lon="6.64176">
        <ele>183.9</ele>
        <time>2025-01-19T09:34:40Z</time>
      </trkpt>
      <trkpt lat="43.4202" lon="6.64175">
        <ele>183.8</ele>
        <time>2025-01-19T09:34:41Z</time>
      </trkpt>
      <trkpt lat="43.42019" lon="6.64174">
        <ele>183.8</ele>
        <time>2025-01-19T09:34:42Z</time>
      </trkpt>
      <trkpt lat="43.42019" lon="6.64173">
        <ele>183.8</ele>
        <time>2025-01-19T09:34:43Z</time>
      </trkpt>
      <trkpt lat="43.42018" lon="6.64173">
        <ele>183.8</ele>
        <time>2025-01-19T09:34:44Z</time>
      </trkpt>
      <trkpt lat="43.42018" lon="6.64172">
        <ele>183.9</ele>
        <time>2025-01-19T09:34:45Z</time>
      </trkpt>
      <trkpt lat="43.42018" lon="6.64172">
        <ele>183.9</ele>
        <time>2025-01-19T09:34:46Z</time>
      </trkpt>
      <trkpt lat="43.42017" lon="6.64171">
        <ele>183.9</ele>
        <time>2025-01-19T09:34:47Z</time>
      </trkpt>
      <trkpt lat="43.42016" lon="6.6417">
        <ele>183.9</ele>
        <time>2025-01-19T09:34:48Z</time>
      </trkpt>
      <trkpt lat="43.42015" lon="6.64169">
        <ele>183.9</ele>
        <time>2025-01-19T09:34:49Z</time>
      </trkpt>
      <trkpt lat="43.42015" lon="6.64168">
        <ele>183.9</ele>
        <time>2025-01-19T09:34:50Z</time>
      </trkpt>
      <trkpt lat="43.42014" lon="6.64167">
        <ele>183.9</ele>
        <time>2025-01-19T09:34:51Z</time>
      </trkpt>
      <trkpt lat="43.42013" lon="6.64166">
        <ele>183.8</ele>
        <time>2025-01-19T09:34:52Z</time>
      </trkpt>
      <trkpt lat="43.42013" lon="6.64165">
        <ele>183.8</ele>
        <time>2025-01-19T09:34:53Z</time>
      </trkpt>
      <trkpt lat="43.42012" lon="6.64164">
        <ele>183.9</ele>
        <time>2025-01-19T09:34:54Z</time>
      </trkpt>
      <trkpt lat="43.42011" lon="6.64163">
        <ele>184</ele>
        <time>2025-01-19T09:34:55Z</time>
      </trkpt>
      <trkpt lat="43.42011" lon="6.64162">
        <ele>184</ele>
        <time>2025-01-19T09:34:56Z</time>
      </trkpt>
      <trkpt lat="43.4201" lon="6.64161">
        <ele>184.1</ele>
        <time>2025-01-19T09:34:57Z</time>
      </trkpt>
      <trkpt lat="43.42009" lon="6.6416">
        <ele>184.1</ele>
        <time>2025-01-19T09:34:58Z</time>
      </trkpt>
      <trkpt lat="43.42009" lon="6.64159">
        <ele>184.1</ele>
        <time>2025-01-19T09:34:59Z</time>
      </trkpt>
      <trkpt lat="43.42008" lon="6.64158">
        <ele>184.1</ele>
        <time>2025-01-19T09:35:00Z</time>
      </trkpt>
      <trkpt lat="43.42007" lon="6.64157">
        <ele>184.1</ele>
        <time>2025-01-19T09:35:01Z</time>
      </trkpt>
      <trkpt lat="43.42006" lon="6.64156">
        <ele>184.1</ele>
        <time>2025-01-19T09:35:02Z</time>
      </trkpt>
      <trkpt lat="43.42005" lon="6.64156">
        <ele>184.1</ele>
        <time>2025-01-19T09:35:03Z</time>
      </trkpt>
      <trkpt lat="43.42004" lon="6.64154">
        <ele>184.1</ele>
        <time>2025-01-19T09:35:04Z</time>
      </trkpt>
      <trkpt lat="43.42004" lon="6.64153">
        <ele>184.1</ele>
        <time>2025-01-19T09:35:05Z</time>
      </trkpt>
      <trkpt lat="43.42003" lon="6.64152">
        <ele>184.1</ele>
        <time>2025-01-19T09:35:06Z</time>
      </trkpt>
      <trkpt lat="43.42003" lon="6.64151">
        <ele>184.2</ele>
        <time>2025-01-19T09:35:07Z</time>
      </trkpt>
      <trkpt lat="43.42002" lon="6.6415">
        <ele>184.3</ele>
        <time>2025-01-19T09:35:08Z</time>
      </trkpt>
      <trkpt lat="43.42001" lon="6.64149">
        <ele>184.3</ele>
        <time>2025-01-19T09:35:09Z</time>
      </trkpt>
      <trkpt lat="43.42001" lon="6.64148">
        <ele>184.4</ele>
        <time>2025-01-19T09:35:10Z</time>
      </trkpt>
      <trkpt lat="43.42" lon="6.64147">
        <ele>184.6</ele>
        <time>2025-01-19T09:35:11Z</time>
      </trkpt>
      <trkpt lat="43.41999" lon="6.64145">
        <ele>184.7</ele>
        <time>2025-01-19T09:35:12Z</time>
      </trkpt>
      <trkpt lat="43.41999" lon="6.64145">
        <ele>184.8</ele>
        <time>2025-01-19T09:35:13Z</time>
      </trkpt>
      <trkpt lat="43.41998" lon="6.64143">
        <ele>185</ele>
        <time>2025-01-19T09:35:14Z</time>
      </trkpt>
      <trkpt lat="43.41997" lon="6.64142">
        <ele>185</ele>
        <time>2025-01-19T09:35:15Z</time>
      </trkpt>
      <trkpt lat="43.41997" lon="6.64141">
        <ele>185.1</ele>
        <time>2025-01-19T09:35:16Z</time>
      </trkpt>
      <trkpt lat="43.41996" lon="6.6414">
        <ele>185.1</ele>
        <time>2025-01-19T09:35:17Z</time>
      </trkpt>
      <trkpt lat="43.41995" lon="6.64139">
        <ele>185.3</ele>
        <time>2025-01-19T09:35:18Z</time>
      </trkpt>
      <trkpt lat="43.41995" lon="6.64138">
        <ele>185.4</ele>
        <time>2025-01-19T09:35:19Z</time>
      </trkpt>
      <trkpt lat="43.41994" lon="6.64137">
        <ele>185.5</ele>
        <time>2025-01-19T09:35:20Z</time>
      </trkpt>
      <trkpt lat="43.41993" lon="6.64136">
        <ele>185.6</ele>
        <time>2025-01-19T09:35:21Z</time>
      </trkpt>
      <trkpt lat="43.41993" lon="6.64135">
        <ele>185.6</ele>
        <time>2025-01-19T09:35:22Z</time>
      </trkpt>
      <trkpt lat="43.41992" lon="6.64134">
        <ele>185.7</ele>
        <time>2025-01-19T09:35:23Z</time>
      </trkpt>
      <trkpt lat="43.41991" lon="6.64133">
        <ele>185.8</ele>
        <time>2025-01-19T09:35:24Z</time>
      </trkpt>
      <trkpt lat="43.41991" lon="6.64132">
        <ele>185.8</ele>
        <time>2025-01-19T09:35:25Z</time>
      </trkpt>
      <trkpt lat="43.4199" lon="6.64131">
        <ele>185.8</ele>
        <time>2025-01-19T09:35:26Z</time>
      </trkpt>
      <trkpt lat="43.41989" lon="6.6413">
        <ele>185.9</ele>
        <time>2025-01-19T09:35:27Z</time>
      </trkpt>
      <trkpt lat="43.41988" lon="6.64129">
        <ele>185.9</ele>
        <time>2025-01-19T09:35:28Z</time>
      </trkpt>
      <trkpt lat="43.41987" lon="6.64127">
        <ele>186</ele>
        <time>2025-01-19T09:35:29Z</time>
      </trkpt>
      <trkpt lat="43.41987" lon="6.64126">
        <ele>186</ele>
        <time>2025-01-19T09:35:30Z</time>
      </trkpt>
      <trkpt lat="43.41987" lon="6.64125">
        <ele>186.1</ele>
        <time>2025-01-19T09:35:31Z</time>
      </trkpt>
      <trkpt lat="43.41986" lon="6.64124">
        <ele>186.1</ele>
        <time>2025-01-19T09:35:32Z</time>
      </trkpt>
      <trkpt lat="43.41985" lon="6.64123">
        <ele>186.2</ele>
        <time>2025-01-19T09:35:33Z</time>
      </trkpt>
      <trkpt lat="43.41984" lon="6.64122">
        <ele>186.2</ele>
        <time>2025-01-19T09:35:34Z</time>
      </trkpt>
      <trkpt lat="43.41983" lon="6.64121">
        <ele>186.4</ele>
        <time>2025-01-19T09:35:35Z</time>
      </trkpt>
      <trkpt lat="43.41983" lon="6.6412">
        <ele>186.5</ele>
        <time>2025-01-19T09:35:36Z</time>
      </trkpt>
      <trkpt lat="43.41982" lon="6.64119">
        <ele>186.4</ele>
        <time>2025-01-19T09:35:37Z</time>
      </trkpt>
      <trkpt lat="43.41982" lon="6.64117">
        <ele>186.5</ele>
        <time>2025-01-19T09:35:38Z</time>
      </trkpt>
      <trkpt lat="43.41981" lon="6.64116">
        <ele>186.6</ele>
        <time>2025-01-19T09:35:39Z</time>
      </trkpt>
      <trkpt lat="43.41981" lon="6.64115">
        <ele>186.6</ele>
        <time>2025-01-19T09:35:40Z</time>
      </trkpt>
      <trkpt lat="43.4198" lon="6.64114">
        <ele>186.6</ele>
        <time>2025-01-19T09:35:41Z</time>
      </trkpt>
      <trkpt lat="43.41979" lon="6.64113">
        <ele>186.6</ele>
        <time>2025-01-19T09:35:42Z</time>
      </trkpt>
      <trkpt lat="43.41978" lon="6.64112">
        <ele>186.7</ele>
        <time>2025-01-19T09:35:43Z</time>
      </trkpt>
      <trkpt lat="43.41978" lon="6.6411">
        <ele>186.8</ele>
        <time>2025-01-19T09:35:44Z</time>
      </trkpt>
      <trkpt lat="43.41977" lon="6.64109">
        <ele>186.8</ele>
        <time>2025-01-19T09:35:45Z</time>
      </trkpt>
      <trkpt lat="43.41976" lon="6.64108">
        <ele>186.9</ele>
        <time>2025-01-19T09:35:46Z</time>
      </trkpt>
      <trkpt lat="43.41976" lon="6.64106">
        <ele>187</ele>
        <time>2025-01-19T09:35:47Z</time>
      </trkpt>
      <trkpt lat="43.41976" lon="6.64106">
        <ele>187</ele>
        <time>2025-01-19T09:35:48Z</time>
      </trkpt>
      <trkpt lat="43.41975" lon="6.64104">
        <ele>187.1</ele>
        <time>2025-01-19T09:35:49Z</time>
      </trkpt>
      <trkpt lat="43.41974" lon="6.64103">
        <ele>187.1</ele>
        <time>2025-01-19T09:35:50Z</time>
      </trkpt>
      <trkpt lat="43.41973" lon="6.64102">
        <ele>187.1</ele>
        <time>2025-01-19T09:35:51Z</time>
      </trkpt>
      <trkpt lat="43.41972" lon="6.64101">
        <ele>187.1</ele>
        <time>2025-01-19T09:35:52Z</time>
      </trkpt>
      <trkpt lat="43.41971" lon="6.641">
        <ele>187.1</ele>
        <time>2025-01-19T09:35:53Z</time>
      </trkpt>
      <trkpt lat="43.41972" lon="6.64098">
        <ele>187.1</ele>
        <time>2025-01-19T09:35:54Z</time>
      </trkpt>
      <trkpt lat="43.41971" lon="6.64097">
        <ele>187.1</ele>
        <time>2025-01-19T09:35:55Z</time>
      </trkpt>
      <trkpt lat="43.4197" lon="6.64095">
        <ele>187.1</ele>
        <time>2025-01-19T09:35:56Z</time>
      </trkpt>
      <trkpt lat="43.41969" lon="6.64094">
        <ele>187.1</ele>
        <time>2025-01-19T09:35:57Z</time>
      </trkpt>
      <trkpt lat="43.41969" lon="6.64093">
        <ele>187.1</ele>
        <time>2025-01-19T09:35:58Z</time>
      </trkpt>
      <trkpt lat="43.41968" lon="6.64092">
        <ele>187.1</ele>
        <time>2025-01-19T09:35:59Z</time>
      </trkpt>
      <trkpt lat="43.41967" lon="6.64091">
        <ele>187.1</ele>
        <time>2025-01-19T09:36:00Z</time>
      </trkpt>
      <trkpt lat="43.41967" lon="6.6409">
        <ele>187.1</ele>
        <time>2025-01-19T09:36:01Z</time>
      </trkpt>
      <trkpt lat="43.41967" lon="6.64089">
        <ele>187.1</ele>
        <time>2025-01-19T09:36:02Z</time>
      </trkpt>
      <trkpt lat="43.41966" lon="6.64088">
        <ele>187.1</ele>
        <time>2025-01-19T09:36:03Z</time>
      </trkpt>
      <trkpt lat="43.41966" lon="6.64087">
        <ele>187.1</ele>
        <time>2025-01-19T09:36:04Z</time>
      </trkpt>
      <trkpt lat="43.41966" lon="6.64085">
        <ele>187.1</ele>
        <time>2025-01-19T09:36:05Z</time>
      </trkpt>
      <trkpt lat="43.41965" lon="6.64084">
        <ele>187.1</ele>
        <time>2025-01-19T09:36:06Z</time>
      </trkpt>
      <trkpt lat="43.41965" lon="6.64083">
        <ele>187.1</ele>
        <time>2025-01-19T09:36:07Z</time>
      </trkpt>
      <trkpt lat="43.41965" lon="6.64081">
        <ele>187.1</ele>
        <time>2025-01-19T09:36:08Z</time>
      </trkpt>
      <trkpt lat="43.41964" lon="6.6408">
        <ele>187</ele>
        <time>2025-01-19T09:36:09Z</time>
      </trkpt>
      <trkpt lat="43.41964" lon="6.64079">
        <ele>186.9</ele>
        <time>2025-01-19T09:36:10Z</time>
      </trkpt>
      <trkpt lat="43.41962" lon="6.64078">
        <ele>187</ele>
        <time>2025-01-19T09:36:11Z</time>
      </trkpt>
      <trkpt lat="43.41961" lon="6.64077">
        <ele>186.9</ele>
        <time>2025-01-19T09:36:12Z</time>
      </trkpt>
      <trkpt lat="43.41961" lon="6.64075">
        <ele>186.9</ele>
        <time>2025-01-19T09:36:13Z</time>
      </trkpt>
      <trkpt lat="43.4196" lon="6.64074">
        <ele>186.9</ele>
        <time>2025-01-19T09:36:14Z</time>
      </trkpt>
      <trkpt lat="43.41959" lon="6.64072">
        <ele>186.8</ele>
        <time>2025-01-19T09:36:15Z</time>
      </trkpt>
      <trkpt lat="43.41959" lon="6.64072">
        <ele>186.8</ele>
        <time>2025-01-19T09:36:16Z</time>
      </trkpt>
      <trkpt lat="43.41958" lon="6.64071">
        <ele>186.8</ele>
        <time>2025-01-19T09:36:17Z</time>
      </trkpt>
      <trkpt lat="43.41958" lon="6.6407">
        <ele>186.8</ele>
        <time>2025-01-19T09:36:18Z</time>
      </trkpt>
      <trkpt lat="43.41957" lon="6.64069">
        <ele>186.8</ele>
        <time>2025-01-19T09:36:19Z</time>
      </trkpt>
      <trkpt lat="43.41956" lon="6.64067">
        <ele>186.7</ele>
        <time>2025-01-19T09:36:20Z</time>
      </trkpt>
      <trkpt lat="43.41956" lon="6.64066">
        <ele>186.6</ele>
        <time>2025-01-19T09:36:21Z</time>
      </trkpt>
      <trkpt lat="43.41955" lon="6.64065">
        <ele>186.5</ele>
        <time>2025-01-19T09:36:22Z</time>
      </trkpt>
      <trkpt lat="43.41954" lon="6.64064">
        <ele>186.4</ele>
        <time>2025-01-19T09:36:23Z</time>
      </trkpt>
      <trkpt lat="43.41954" lon="6.64062">
        <ele>186.3</ele>
        <time>2025-01-19T09:36:24Z</time>
      </trkpt>
      <trkpt lat="43.41953" lon="6.64062">
        <ele>186.2</ele>
        <time>2025-01-19T09:36:25Z</time>
      </trkpt>
      <trkpt lat="43.41953" lon="6.64061">
        <ele>186.1</ele>
        <time>2025-01-19T09:36:26Z</time>
      </trkpt>
      <trkpt lat="43.41952" lon="6.6406">
        <ele>186</ele>
        <time>2025-01-19T09:36:27Z</time>
      </trkpt>
      <trkpt lat="43.41951" lon="6.64058">
        <ele>185.9</ele>
        <time>2025-01-19T09:36:28Z</time>
      </trkpt>
      <trkpt lat="43.4195" lon="6.64057">
        <ele>185.9</ele>
        <time>2025-01-19T09:36:29Z</time>
      </trkpt>
      <trkpt lat="43.41949" lon="6.64055">
        <ele>185.7</ele>
        <time>2025-01-19T09:36:30Z</time>
      </trkpt>
      <trkpt lat="43.41948" lon="6.64054">
        <ele>185.5</ele>
        <time>2025-01-19T09:36:31Z</time>
      </trkpt>
      <trkpt lat="43.41948" lon="6.64053">
        <ele>185.4</ele>
        <time>2025-01-19T09:36:32Z</time>
      </trkpt>
      <trkpt lat="43.41947" lon="6.64052">
        <ele>185.3</ele>
        <time>2025-01-19T09:36:33Z</time>
      </trkpt>
      <trkpt lat="43.41946" lon="6.64051">
        <ele>185.2</ele>
        <time>2025-01-19T09:36:34Z</time>
      </trkpt>
      <trkpt lat="43.41945" lon="6.6405">
        <ele>185.1</ele>
        <time>2025-01-19T09:36:35Z</time>
      </trkpt>
      <trkpt lat="43.41945" lon="6.64048">
        <ele>185.1</ele>
        <time>2025-01-19T09:36:36Z</time>
      </trkpt>
      <trkpt lat="43.41944" lon="6.64048">
        <ele>185.1</ele>
        <time>2025-01-19T09:36:37Z</time>
      </trkpt>
      <trkpt lat="43.41943" lon="6.64047">
        <ele>185</ele>
        <time>2025-01-19T09:36:38Z</time>
      </trkpt>
      <trkpt lat="43.41943" lon="6.64046">
        <ele>184.9</ele>
        <time>2025-01-19T09:36:39Z</time>
      </trkpt>
      <trkpt lat="43.41942" lon="6.64045">
        <ele>184.8</ele>
        <time>2025-01-19T09:36:40Z</time>
      </trkpt>
      <trkpt lat="43.41941" lon="6.64044">
        <ele>184.8</ele>
        <time>2025-01-19T09:36:41Z</time>
      </trkpt>
      <trkpt lat="43.4194" lon="6.64043">
        <ele>184.7</ele>
        <time>2025-01-19T09:36:42Z</time>
      </trkpt>
      <trkpt lat="43.41939" lon="6.64042">
        <ele>184.7</ele>
        <time>2025-01-19T09:36:43Z</time>
      </trkpt>
      <trkpt lat="43.41938" lon="6.6404">
        <ele>184.6</ele>
        <time>2025-01-19T09:36:44Z</time>
      </trkpt>
      <trkpt lat="43.41937" lon="6.6404">
        <ele>184.6</ele>
        <time>2025-01-19T09:36:45Z</time>
      </trkpt>
      <trkpt lat="43.41937" lon="6.64039">
        <ele>184.5</ele>
        <time>2025-01-19T09:36:46Z</time>
      </trkpt>
      <trkpt lat="43.41936" lon="6.64039">
        <ele>184.6</ele>
        <time>2025-01-19T09:36:47Z</time>
      </trkpt>
      <trkpt lat="43.41935" lon="6.64038">
        <ele>184.6</ele>
        <time>2025-01-19T09:36:48Z</time>
      </trkpt>
      <trkpt lat="43.41934" lon="6.64037">
        <ele>184.6</ele>
        <time>2025-01-19T09:36:49Z</time>
      </trkpt>
      <trkpt lat="43.41933" lon="6.64036">
        <ele>184.6</ele>
        <time>2025-01-19T09:36:50Z</time>
      </trkpt>
      <trkpt lat="43.41933" lon="6.64035">
        <ele>184.6</ele>
        <time>2025-01-19T09:36:51Z</time>
      </trkpt>
      <trkpt lat="43.41931" lon="6.64034">
        <ele>184.6</ele>
        <time>2025-01-19T09:36:52Z</time>
      </trkpt>
      <trkpt lat="43.4193" lon="6.64032">
        <ele>184.6</ele>
        <time>2025-01-19T09:36:53Z</time>
      </trkpt>
      <trkpt lat="43.41929" lon="6.64031">
        <ele>184.5</ele>
        <time>2025-01-19T09:36:54Z</time>
      </trkpt>
      <trkpt lat="43.41928" lon="6.6403">
        <ele>184.4</ele>
        <time>2025-01-19T09:36:55Z</time>
      </trkpt>
      <trkpt lat="43.41927" lon="6.64029">
        <ele>184.5</ele>
        <time>2025-01-19T09:36:56Z</time>
      </trkpt>
      <trkpt lat="43.41926" lon="6.64028">
        <ele>184.4</ele>
        <time>2025-01-19T09:36:57Z</time>
      </trkpt>
      <trkpt lat="43.41925" lon="6.64027">
        <ele>184.4</ele>
        <time>2025-01-19T09:36:58Z</time>
      </trkpt>
      <trkpt lat="43.41924" lon="6.64026">
        <ele>184.4</ele>
        <time>2025-01-19T09:36:59Z</time>
      </trkpt>
      <trkpt lat="43.41924" lon="6.64026">
        <ele>184.4</ele>
        <time>2025-01-19T09:37:00Z</time>
      </trkpt>
      <trkpt lat="43.41923" lon="6.64025">
        <ele>184.4</ele>
        <time>2025-01-19T09:37:01Z</time>
      </trkpt>
      <trkpt lat="43.41923" lon="6.64025">
        <ele>184.4</ele>
        <time>2025-01-19T09:37:02Z</time>
      </trkpt>
      <trkpt lat="43.41922" lon="6.64024">
        <ele>184.5</ele>
        <time>2025-01-19T09:37:03Z</time>
      </trkpt>
      <trkpt lat="43.41921" lon="6.64023">
        <ele>184.5</ele>
        <time>2025-01-19T09:37:04Z</time>
      </trkpt>
      <trkpt lat="43.4192" lon="6.64022">
        <ele>184.5</ele>
        <time>2025-01-19T09:37:05Z</time>
      </trkpt>
      <trkpt lat="43.41919" lon="6.64022">
        <ele>184.6</ele>
        <time>2025-01-19T09:37:06Z</time>
      </trkpt>
      <trkpt lat="43.41918" lon="6.64021">
        <ele>184.6</ele>
        <time>2025-01-19T09:37:07Z</time>
      </trkpt>
      <trkpt lat="43.41917" lon="6.6402">
        <ele>184.6</ele>
        <time>2025-01-19T09:37:08Z</time>
      </trkpt>
      <trkpt lat="43.41917" lon="6.64019">
        <ele>184.6</ele>
        <time>2025-01-19T09:37:09Z</time>
      </trkpt>
      <trkpt lat="43.41916" lon="6.64018">
        <ele>184.6</ele>
        <time>2025-01-19T09:37:10Z</time>
      </trkpt>
      <trkpt lat="43.41915" lon="6.64017">
        <ele>184.6</ele>
        <time>2025-01-19T09:37:11Z</time>
      </trkpt>
      <trkpt lat="43.41913" lon="6.64016">
        <ele>184.5</ele>
        <time>2025-01-19T09:37:12Z</time>
      </trkpt>
      <trkpt lat="43.41913" lon="6.64016">
        <ele>184.5</ele>
        <time>2025-01-19T09:37:13Z</time>
      </trkpt>
      <trkpt lat="43.41911" lon="6.64015">
        <ele>184.5</ele>
        <time>2025-01-19T09:37:14Z</time>
      </trkpt>
      <trkpt lat="43.41911" lon="6.64014">
        <ele>184.5</ele>
        <time>2025-01-19T09:37:15Z</time>
      </trkpt>
      <trkpt lat="43.4191" lon="6.64013">
        <ele>184.5</ele>
        <time>2025-01-19T09:37:16Z</time>
      </trkpt>
      <trkpt lat="43.41909" lon="6.64012">
        <ele>184.6</ele>
        <time>2025-01-19T09:37:17Z</time>
      </trkpt>
      <trkpt lat="43.41908" lon="6.64012">
        <ele>184.6</ele>
        <time>2025-01-19T09:37:18Z</time>
      </trkpt>
      <trkpt lat="43.41907" lon="6.64011">
        <ele>184.6</ele>
        <time>2025-01-19T09:37:19Z</time>
      </trkpt>
      <trkpt lat="43.41906" lon="6.6401">
        <ele>184.7</ele>
        <time>2025-01-19T09:37:20Z</time>
      </trkpt>
      <trkpt lat="43.41905" lon="6.64009">
        <ele>184.6</ele>
        <time>2025-01-19T09:37:21Z</time>
      </trkpt>
      <trkpt lat="43.41905" lon="6.64009">
        <ele>184.7</ele>
        <time>2025-01-19T09:37:22Z</time>
      </trkpt>
      <trkpt lat="43.41904" lon="6.64008">
        <ele>184.7</ele>
        <time>2025-01-19T09:37:23Z</time>
      </trkpt>
      <trkpt lat="43.41904" lon="6.64007">
        <ele>184.7</ele>
        <time>2025-01-19T09:37:24Z</time>
      </trkpt>
      <trkpt lat="43.41903" lon="6.64006">
        <ele>184.7</ele>
        <time>2025-01-19T09:37:25Z</time>
      </trkpt>
      <trkpt lat="43.41902" lon="6.64005">
        <ele>184.8</ele>
        <time>2025-01-19T09:37:26Z</time>
      </trkpt>
      <trkpt lat="43.41901" lon="6.64003">
        <ele>184.9</ele>
        <time>2025-01-19T09:37:27Z</time>
      </trkpt>
      <trkpt lat="43.419" lon="6.64002">
        <ele>184.9</ele>
        <time>2025-01-19T09:37:28Z</time>
      </trkpt>
      <trkpt lat="43.41899" lon="6.64001">
        <ele>185</ele>
        <time>2025-01-19T09:37:29Z</time>
      </trkpt>
      <trkpt lat="43.41898" lon="6.64">
        <ele>185.1</ele>
        <time>2025-01-19T09:37:30Z</time>
      </trkpt>
      <trkpt lat="43.41897" lon="6.64">
        <ele>185.2</ele>
        <time>2025-01-19T09:37:31Z</time>
      </trkpt>
      <trkpt lat="43.41896" lon="6.63999">
        <ele>185.2</ele>
        <time>2025-01-19T09:37:32Z</time>
      </trkpt>
      <trkpt lat="43.41895" lon="6.63998">
        <ele>185.1</ele>
        <time>2025-01-19T09:37:33Z</time>
      </trkpt>
      <trkpt lat="43.41894" lon="6.63997">
        <ele>185.2</ele>
        <time>2025-01-19T09:37:34Z</time>
      </trkpt>
      <trkpt lat="43.41893" lon="6.63996">
        <ele>185.2</ele>
        <time>2025-01-19T09:37:35Z</time>
      </trkpt>
      <trkpt lat="43.41892" lon="6.63995">
        <ele>185.3</ele>
        <time>2025-01-19T09:37:36Z</time>
      </trkpt>
      <trkpt lat="43.41892" lon="6.63993">
        <ele>185.4</ele>
        <time>2025-01-19T09:37:37Z</time>
      </trkpt>
      <trkpt lat="43.4189" lon="6.63991">
        <ele>185.5</ele>
        <time>2025-01-19T09:37:38Z</time>
      </trkpt>
      <trkpt lat="43.4189" lon="6.6399">
        <ele>185.5</ele>
        <time>2025-01-19T09:37:39Z</time>
      </trkpt>
      <trkpt lat="43.41889" lon="6.63989">
        <ele>185.6</ele>
        <time>2025-01-19T09:37:40Z</time>
      </trkpt>
      <trkpt lat="43.41889" lon="6.63987">
        <ele>185.6</ele>
        <time>2025-01-19T09:37:41Z</time>
      </trkpt>
      <trkpt lat="43.41887" lon="6.63986">
        <ele>185.6</ele>
        <time>2025-01-19T09:37:42Z</time>
      </trkpt>
      <trkpt lat="43.41886" lon="6.63985">
        <ele>185.7</ele>
        <time>2025-01-19T09:37:43Z</time>
      </trkpt>
      <trkpt lat="43.41885" lon="6.63985">
        <ele>185.7</ele>
        <time>2025-01-19T09:37:44Z</time>
      </trkpt>
      <trkpt lat="43.41885" lon="6.63983">
        <ele>185.7</ele>
        <time>2025-01-19T09:37:45Z</time>
      </trkpt>
      <trkpt lat="43.41883" lon="6.63983">
        <ele>185.6</ele>
        <time>2025-01-19T09:37:46Z</time>
      </trkpt>
      <trkpt lat="43.41882" lon="6.63982">
        <ele>185.8</ele>
        <time>2025-01-19T09:37:47Z</time>
      </trkpt>
      <trkpt lat="43.41881" lon="6.63981">
        <ele>185.8</ele>
        <time>2025-01-19T09:37:48Z</time>
      </trkpt>
      <trkpt lat="43.4188" lon="6.6398">
        <ele>185.8</ele>
        <time>2025-01-19T09:37:49Z</time>
      </trkpt>
      <trkpt lat="43.41879" lon="6.63979">
        <ele>185.8</ele>
        <time>2025-01-19T09:37:50Z</time>
      </trkpt>
      <trkpt lat="43.41878" lon="6.63978">
        <ele>185.8</ele>
        <time>2025-01-19T09:37:51Z</time>
      </trkpt>
      <trkpt lat="43.41877" lon="6.63977">
        <ele>185.8</ele>
        <time>2025-01-19T09:37:52Z</time>
      </trkpt>
      <trkpt lat="43.41877" lon="6.63975">
        <ele>185.8</ele>
        <time>2025-01-19T09:37:53Z</time>
      </trkpt>
      <trkpt lat="43.41876" lon="6.63974">
        <ele>185.7</ele>
        <time>2025-01-19T09:37:54Z</time>
      </trkpt>
      <trkpt lat="43.41875" lon="6.63973">
        <ele>185.8</ele>
        <time>2025-01-19T09:37:55Z</time>
      </trkpt>
      <trkpt lat="43.41874" lon="6.63972">
        <ele>185.8</ele>
        <time>2025-01-19T09:37:56Z</time>
      </trkpt>
      <trkpt lat="43.41873" lon="6.63971">
        <ele>185.8</ele>
        <time>2025-01-19T09:37:57Z</time>
      </trkpt>
      <trkpt lat="43.41872" lon="6.6397">
        <ele>185.8</ele>
        <time>2025-01-19T09:37:58Z</time>
      </trkpt>
      <trkpt lat="43.41872" lon="6.63968">
        <ele>185.9</ele>
        <time>2025-01-19T09:37:59Z</time>
      </trkpt>
      <trkpt lat="43.41871" lon="6.63967">
        <ele>186</ele>
        <time>2025-01-19T09:38:00Z</time>
      </trkpt>
      <trkpt lat="43.4187" lon="6.63966">
        <ele>186.1</ele>
        <time>2025-01-19T09:38:01Z</time>
      </trkpt>
      <trkpt lat="43.41869" lon="6.63965">
        <ele>186.1</ele>
        <time>2025-01-19T09:38:02Z</time>
      </trkpt>
      <trkpt lat="43.41868" lon="6.63964">
        <ele>186.2</ele>
        <time>2025-01-19T09:38:03Z</time>
      </trkpt>
      <trkpt lat="43.41867" lon="6.63962">
        <ele>186.2</ele>
        <time>2025-01-19T09:38:04Z</time>
      </trkpt>
      <trkpt lat="43.41866" lon="6.63961">
        <ele>186.3</ele>
        <time>2025-01-19T09:38:05Z</time>
      </trkpt>
      <trkpt lat="43.41865" lon="6.6396">
        <ele>186.3</ele>
        <time>2025-01-19T09:38:06Z</time>
      </trkpt>
      <trkpt lat="43.41865" lon="6.63958">
        <ele>186.4</ele>
        <time>2025-01-19T09:38:07Z</time>
      </trkpt>
      <trkpt lat="43.41864" lon="6.63957">
        <ele>186.4</ele>
        <time>2025-01-19T09:38:08Z</time>
      </trkpt>
      <trkpt lat="43.41864" lon="6.63956">
        <ele>186.5</ele>
        <time>2025-01-19T09:38:09Z</time>
      </trkpt>
      <trkpt lat="43.41863" lon="6.63956">
        <ele>186.7</ele>
        <time>2025-01-19T09:38:10Z</time>
      </trkpt>
      <trkpt lat="43.41862" lon="6.63954">
        <ele>186.7</ele>
        <time>2025-01-19T09:38:11Z</time>
      </trkpt>
      <trkpt lat="43.41861" lon="6.63953">
        <ele>186.8</ele>
        <time>2025-01-19T09:38:12Z</time>
      </trkpt>
      <trkpt lat="43.41861" lon="6.63952">
        <ele>186.8</ele>
        <time>2025-01-19T09:38:13Z</time>
      </trkpt>
      <trkpt lat="43.4186" lon="6.63951">
        <ele>186.9</ele>
        <time>2025-01-19T09:38:14Z</time>
      </trkpt>
      <trkpt lat="43.41859" lon="6.6395">
        <ele>187.1</ele>
        <time>2025-01-19T09:38:15Z</time>
      </trkpt>
      <trkpt lat="43.41858" lon="6.63949">
        <ele>187.2</ele>
        <time>2025-01-19T09:38:16Z</time>
      </trkpt>
      <trkpt lat="43.41857" lon="6.63949">
        <ele>187.3</ele>
        <time>2025-01-19T09:38:17Z</time>
      </trkpt>
      <trkpt lat="43.41857" lon="6.63949">
        <ele>187.4</ele>
        <time>2025-01-19T09:38:18Z</time>
      </trkpt>
      <trkpt lat="43.41857" lon="6.63948">
        <ele>187.5</ele>
        <time>2025-01-19T09:38:19Z</time>
      </trkpt>
      <trkpt lat="43.41856" lon="6.63949">
        <ele>187.6</ele>
        <time>2025-01-19T09:38:20Z</time>
      </trkpt>
      <trkpt lat="43.41856" lon="6.63948">
        <ele>187.6</ele>
        <time>2025-01-19T09:38:21Z</time>
      </trkpt>
      <trkpt lat="43.41856" lon="6.63948">
        <ele>187.7</ele>
        <time>2025-01-19T09:38:22Z</time>
      </trkpt>
      <trkpt lat="43.41855" lon="6.63947">
        <ele>187.8</ele>
        <time>2025-01-19T09:38:23Z</time>
      </trkpt>
      <trkpt lat="43.41855" lon="6.63946">
        <ele>187.9</ele>
        <time>2025-01-19T09:38:24Z</time>
      </trkpt>
      <trkpt lat="43.41854" lon="6.63945">
        <ele>188.1</ele>
        <time>2025-01-19T09:38:25Z</time>
      </trkpt>
      <trkpt lat="43.41854" lon="6.63945">
        <ele>188.3</ele>
        <time>2025-01-19T09:38:26Z</time>
      </trkpt>
      <trkpt lat="43.41853" lon="6.63945">
        <ele>188.5</ele>
        <time>2025-01-19T09:38:27Z</time>
      </trkpt>
      <trkpt lat="43.41852" lon="6.63945">
        <ele>188.7</ele>
        <time>2025-01-19T09:38:28Z</time>
      </trkpt>
      <trkpt lat="43.41851" lon="6.63945">
        <ele>188.8</ele>
        <time>2025-01-19T09:38:29Z</time>
      </trkpt>
      <trkpt lat="43.4185" lon="6.63945">
        <ele>189</ele>
        <time>2025-01-19T09:38:30Z</time>
      </trkpt>
      <trkpt lat="43.4185" lon="6.63946">
        <ele>189.1</ele>
        <time>2025-01-19T09:38:31Z</time>
      </trkpt>
      <trkpt lat="43.41849" lon="6.63947">
        <ele>189.2</ele>
        <time>2025-01-19T09:38:32Z</time>
      </trkpt>
      <trkpt lat="43.41848" lon="6.63948">
        <ele>189.3</ele>
        <time>2025-01-19T09:38:33Z</time>
      </trkpt>
      <trkpt lat="43.41848" lon="6.63949">
        <ele>189.3</ele>
        <time>2025-01-19T09:38:34Z</time>
      </trkpt>
      <trkpt lat="43.41847" lon="6.63949">
        <ele>189.4</ele>
        <time>2025-01-19T09:38:35Z</time>
      </trkpt>
      <trkpt lat="43.41847" lon="6.63951">
        <ele>189.4</ele>
        <time>2025-01-19T09:38:36Z</time>
      </trkpt>
      <trkpt lat="43.41846" lon="6.63951">
        <ele>189.4</ele>
        <time>2025-01-19T09:38:37Z</time>
      </trkpt>
      <trkpt lat="43.41845" lon="6.63952">
        <ele>189.4</ele>
        <time>2025-01-19T09:38:38Z</time>
      </trkpt>
      <trkpt lat="43.41845" lon="6.63953">
        <ele>189.5</ele>
        <time>2025-01-19T09:38:39Z</time>
      </trkpt>
      <trkpt lat="43.41844" lon="6.63954">
        <ele>189.6</ele>
        <time>2025-01-19T09:38:40Z</time>
      </trkpt>
      <trkpt lat="43.41843" lon="6.63955">
        <ele>189.7</ele>
        <time>2025-01-19T09:38:41Z</time>
      </trkpt>
      <trkpt lat="43.41843" lon="6.63956">
        <ele>189.8</ele>
        <time>2025-01-19T09:38:42Z</time>
      </trkpt>
      <trkpt lat="43.41843" lon="6.63957">
        <ele>189.8</ele>
        <time>2025-01-19T09:38:43Z</time>
      </trkpt>
      <trkpt lat="43.41843" lon="6.63958">
        <ele>189.9</ele>
        <time>2025-01-19T09:38:44Z</time>
      </trkpt>
      <trkpt lat="43.41843" lon="6.63958">
        <ele>190</ele>
        <time>2025-01-19T09:38:45Z</time>
      </trkpt>
      <trkpt lat="43.41843" lon="6.63959">
        <ele>190</ele>
        <time>2025-01-19T09:38:46Z</time>
      </trkpt>
      <trkpt lat="43.41843" lon="6.63959">
        <ele>190</ele>
        <time>2025-01-19T09:38:47Z</time>
      </trkpt>
      <trkpt lat="43.41843" lon="6.63959">
        <ele>190.1</ele>
        <time>2025-01-19T09:38:48Z</time>
      </trkpt>
      <trkpt lat="43.41842" lon="6.63959">
        <ele>190.1</ele>
        <time>2025-01-19T09:38:49Z</time>
      </trkpt>
      <trkpt lat="43.41841" lon="6.63959">
        <ele>190.1</ele>
        <time>2025-01-19T09:38:50Z</time>
      </trkpt>
      <trkpt lat="43.41841" lon="6.63959">
        <ele>190.1</ele>
        <time>2025-01-19T09:38:51Z</time>
      </trkpt>
      <trkpt lat="43.4184" lon="6.63959">
        <ele>190.1</ele>
        <time>2025-01-19T09:38:52Z</time>
      </trkpt>
      <trkpt lat="43.4184" lon="6.63959">
        <ele>190.1</ele>
        <time>2025-01-19T09:38:53Z</time>
      </trkpt>
      <trkpt lat="43.4184" lon="6.63959">
        <ele>190</ele>
        <time>2025-01-19T09:38:54Z</time>
      </trkpt>
      <trkpt lat="43.41839" lon="6.6396">
        <ele>190</ele>
        <time>2025-01-19T09:38:55Z</time>
      </trkpt>
      <trkpt lat="43.4184" lon="6.6396">
        <ele>190</ele>
        <time>2025-01-19T09:38:56Z</time>
      </trkpt>
      <trkpt lat="43.4184" lon="6.6396">
        <ele>190</ele>
        <time>2025-01-19T09:38:57Z</time>
      </trkpt>
      <trkpt lat="43.41841" lon="6.63959">
        <ele>190</ele>
        <time>2025-01-19T09:38:58Z</time>
      </trkpt>
      <trkpt lat="43.41841" lon="6.63958">
        <ele>190</ele>
        <time>2025-01-19T09:38:59Z</time>
      </trkpt>
      <trkpt lat="43.41841" lon="6.63958">
        <ele>190</ele>
        <time>2025-01-19T09:39:00Z</time>
      </trkpt>
      <trkpt lat="43.41842" lon="6.63957">
        <ele>190</ele>
        <time>2025-01-19T09:39:01Z</time>
      </trkpt>
      <trkpt lat="43.41843" lon="6.63955">
        <ele>190</ele>
        <time>2025-01-19T09:39:02Z</time>
      </trkpt>
      <trkpt lat="43.41843" lon="6.63954">
        <ele>189.9</ele>
        <time>2025-01-19T09:39:03Z</time>
      </trkpt>
      <trkpt lat="43.41843" lon="6.63953">
        <ele>189.8</ele>
        <time>2025-01-19T09:39:04Z</time>
      </trkpt>
      <trkpt lat="43.41844" lon="6.63952">
        <ele>189.8</ele>
        <time>2025-01-19T09:39:05Z</time>
      </trkpt>
      <trkpt lat="43.41844" lon="6.63952">
        <ele>189.7</ele>
        <time>2025-01-19T09:39:06Z</time>
      </trkpt>
      <trkpt lat="43.41844" lon="6.63952">
        <ele>189.6</ele>
        <time>2025-01-19T09:39:07Z</time>
      </trkpt>
      <trkpt lat="43.41844" lon="6.63952">
        <ele>189.5</ele>
        <time>2025-01-19T09:39:08Z</time>
      </trkpt>
      <trkpt lat="43.41844" lon="6.63952">
        <ele>189.5</ele>
        <time>2025-01-19T09:39:09Z</time>
      </trkpt>
      <trkpt lat="43.41844" lon="6.63952">
        <ele>189.4</ele>
        <time>2025-01-19T09:39:10Z</time>
      </trkpt>
      <trkpt lat="43.41844" lon="6.63952">
        <ele>189.6</ele>
        <time>2025-01-19T09:39:11Z</time>
      </trkpt>
      <trkpt lat="43.41844" lon="6.63951">
        <ele>189.6</ele>
        <time>2025-01-19T09:39:12Z</time>
      </trkpt>
      <trkpt lat="43.41844" lon="6.63951">
        <ele>189.6</ele>
        <time>2025-01-19T09:39:13Z</time>
      </trkpt>
      <trkpt lat="43.41844" lon="6.63951">
        <ele>189.6</ele>
        <time>2025-01-19T09:39:14Z</time>
      </trkpt>
      <trkpt lat="43.41844" lon="6.63951">
        <ele>189.6</ele>
        <time>2025-01-19T09:39:15Z</time>
      </trkpt>
      <trkpt lat="43.41844" lon="6.63951">
        <ele>189.7</ele>
        <time>2025-01-19T09:39:16Z</time>
      </trkpt>
      <trkpt lat="43.41844" lon="6.63951">
        <ele>189.6</ele>
        <time>2025-01-19T09:39:17Z</time>
      </trkpt>
      <trkpt lat="43.41844" lon="6.63951">
        <ele>189.5</ele>
        <time>2025-01-19T09:39:18Z</time>
      </trkpt>
      <trkpt lat="43.41844" lon="6.63951">
        <ele>189.5</ele>
        <time>2025-01-19T09:39:19Z</time>
      </trkpt>
      <trkpt lat="43.41844" lon="6.63951">
        <ele>189.5</ele>
        <time>2025-01-19T09:39:20Z</time>
      </trkpt>
      <trkpt lat="43.41845" lon="6.63951">
        <ele>189.5</ele>
        <time>2025-01-19T09:39:21Z</time>
      </trkpt>
      <trkpt lat="43.41844" lon="6.63951">
        <ele>189.4</ele>
        <time>2025-01-19T09:39:22Z</time>
      </trkpt>
      <trkpt lat="43.41844" lon="6.63951">
        <ele>189.5</ele>
        <time>2025-01-19T09:39:23Z</time>
      </trkpt>
      <trkpt lat="43.41844" lon="6.63952">
        <ele>189.5</ele>
        <time>2025-01-19T09:39:24Z</time>
      </trkpt>
      <trkpt lat="43.41844" lon="6.63951">
        <ele>189.5</ele>
        <time>2025-01-19T09:39:25Z</time>
      </trkpt>
      <trkpt lat="43.41844" lon="6.63951">
        <ele>189.6</ele>
        <time>2025-01-19T09:39:26Z</time>
      </trkpt>
      <trkpt lat="43.41844" lon="6.63951">
        <ele>189.6</ele>
        <time>2025-01-19T09:39:27Z</time>
      </trkpt>
      <trkpt lat="43.41844" lon="6.63951">
        <ele>189.6</ele>
        <time>2025-01-19T09:39:28Z</time>
      </trkpt>
      <trkpt lat="43.41844" lon="6.63951">
        <ele>189.7</ele>
        <time>2025-01-19T09:39:29Z</time>
      </trkpt>
      <trkpt lat="43.41843" lon="6.63951">
        <ele>189.7</ele>
        <time>2025-01-19T09:39:30Z</time>
      </trkpt>
      <trkpt lat="43.41843" lon="6.63951">
        <ele>189.7</ele>
        <time>2025-01-19T09:39:31Z</time>
      </trkpt>
      <trkpt lat="43.41843" lon="6.63951">
        <ele>189.7</ele>
        <time>2025-01-19T09:39:32Z</time>
      </trkpt>
      <trkpt lat="43.41843" lon="6.63951">
        <ele>189.7</ele>
        <time>2025-01-19T09:39:33Z</time>
      </trkpt>
      <trkpt lat="43.41843" lon="6.63951">
        <ele>189.7</ele>
        <time>2025-01-19T09:39:34Z</time>
      </trkpt>
      <trkpt lat="43.41843" lon="6.63951">
        <ele>189.7</ele>
        <time>2025-01-19T09:39:35Z</time>
      </trkpt>
      <trkpt lat="43.41843" lon="6.63951">
        <ele>189.7</ele>
        <time>2025-01-19T09:39:36Z</time>
      </trkpt>
      <trkpt lat="43.41843" lon="6.63951">
        <ele>189.7</ele>
        <time>2025-01-19T09:39:37Z</time>
      </trkpt>
      <trkpt lat="43.41843" lon="6.63951">
        <ele>189.7</ele>
        <time>2025-01-19T09:39:38Z</time>
      </trkpt>
      <trkpt lat="43.41843" lon="6.63951">
        <ele>189.7</ele>
        <time>2025-01-19T09:39:39Z</time>
      </trkpt>
      <trkpt lat="43.41844" lon="6.63952">
        <ele>189.7</ele>
        <time>2025-01-19T09:39:40Z</time>
      </trkpt>
      <trkpt lat="43.41844" lon="6.63952">
        <ele>189.6</ele>
        <time>2025-01-19T09:39:41Z</time>
      </trkpt>
      <trkpt lat="43.41844" lon="6.63952">
        <ele>189.6</ele>
        <time>2025-01-19T09:39:42Z</time>
      </trkpt>
      <trkpt lat="43.41844" lon="6.63952">
        <ele>189.6</ele>
        <time>2025-01-19T09:39:43Z</time>
      </trkpt>
      <trkpt lat="43.41844" lon="6.63952">
        <ele>189.7</ele>
        <time>2025-01-19T09:39:44Z</time>
      </trkpt>
      <trkpt lat="43.41844" lon="6.63952">
        <ele>189.7</ele>
        <time>2025-01-19T09:39:45Z</time>
      </trkpt>
      <trkpt lat="43.41844" lon="6.63952">
        <ele>189.7</ele>
        <time>2025-01-19T09:39:46Z</time>
      </trkpt>
      <trkpt lat="43.41844" lon="6.63952">
        <ele>189.8</ele>
        <time>2025-01-19T09:39:47Z</time>
      </trkpt>
      <trkpt lat="43.41844" lon="6.63952">
        <ele>189.8</ele>
        <time>2025-01-19T09:39:48Z</time>
      </trkpt>
      <trkpt lat="43.41844" lon="6.63952">
        <ele>189.8</ele>
        <time>2025-01-19T09:39:49Z</time>
      </trkpt>
      <trkpt lat="43.41844" lon="6.63952">
        <ele>189.8</ele>
        <time>2025-01-19T09:39:50Z</time>
      </trkpt>
      <trkpt lat="43.41844" lon="6.63952">
        <ele>189.8</ele>
        <time>2025-01-19T09:39:51Z</time>
      </trkpt>
      <trkpt lat="43.41843" lon="6.63952">
        <ele>189.8</ele>
        <time>2025-01-19T09:39:52Z</time>
      </trkpt>
      <trkpt lat="43.41844" lon="6.63952">
        <ele>189.8</ele>
        <time>2025-01-19T09:39:53Z</time>
      </trkpt>
      <trkpt lat="43.41843" lon="6.63952">
        <ele>189.7</ele>
        <time>2025-01-19T09:39:54Z</time>
      </trkpt>
      <trkpt lat="43.41844" lon="6.63952">
        <ele>189.7</ele>
        <time>2025-01-19T09:39:55Z</time>
      </trkpt>
      <trkpt lat="43.41844" lon="6.63952">
        <ele>189.7</ele>
        <time>2025-01-19T09:39:56Z</time>
      </trkpt>
      <trkpt lat="43.41844" lon="6.63952">
        <ele>189.7</ele>
        <time>2025-01-19T09:39:57Z</time>
      </trkpt>
      <trkpt lat="43.41844" lon="6.63952">
        <ele>189.7</ele>
        <time>2025-01-19T09:39:58Z</time>
      </trkpt>
      <trkpt lat="43.41844" lon="6.63952">
        <ele>189.6</ele>
        <time>2025-01-19T09:39:59Z</time>
      </trkpt>
      <trkpt lat="43.41844" lon="6.63952">
        <ele>189.5</ele>
        <time>2025-01-19T09:40:00Z</time>
      </trkpt>
      <trkpt lat="43.41844" lon="6.63952">
        <ele>189.4</ele>
        <time>2025-01-19T09:40:01Z</time>
      </trkpt>
      <trkpt lat="43.41844" lon="6.63952">
        <ele>189.4</ele>
        <time>2025-01-19T09:40:02Z</time>
      </trkpt>
      <trkpt lat="43.41845" lon="6.63952">
        <ele>189.4</ele>
        <time>2025-01-19T09:40:03Z</time>
      </trkpt>
      <trkpt lat="43.41845" lon="6.63952">
        <ele>189.4</ele>
        <time>2025-01-19T09:40:04Z</time>
      </trkpt>
      <trkpt lat="43.41846" lon="6.63952">
        <ele>189.4</ele>
        <time>2025-01-19T09:40:05Z</time>
      </trkpt>
      <trkpt lat="43.41846" lon="6.63952">
        <ele>189.3</ele>
        <time>2025-01-19T09:40:06Z</time>
      </trkpt>
      <trkpt lat="43.41846" lon="6.63952">
        <ele>189.3</ele>
        <time>2025-01-19T09:40:07Z</time>
      </trkpt>
      <trkpt lat="43.41846" lon="6.63952">
        <ele>189.3</ele>
        <time>2025-01-19T09:40:08Z</time>
      </trkpt>
      <trkpt lat="43.41846" lon="6.63952">
        <ele>189.3</ele>
        <time>2025-01-19T09:40:09Z</time>
      </trkpt>
      <trkpt lat="43.41846" lon="6.63952">
        <ele>189.3</ele>
        <time>2025-01-19T09:40:10Z</time>
      </trkpt>
      <trkpt lat="43.41846" lon="6.63951">
        <ele>189.2</ele>
        <time>2025-01-19T09:40:11Z</time>
      </trkpt>
      <trkpt lat="43.41846" lon="6.63951">
        <ele>189.2</ele>
        <time>2025-01-19T09:40:12Z</time>
      </trkpt>
      <trkpt lat="43.41846" lon="6.63951">
        <ele>189.1</ele>
        <time>2025-01-19T09:40:13Z</time>
      </trkpt>
      <trkpt lat="43.41846" lon="6.63951">
        <ele>189.3</ele>
        <time>2025-01-19T09:40:14Z</time>
      </trkpt>
      <trkpt lat="43.41847" lon="6.63951">
        <ele>189.4</ele>
        <time>2025-01-19T09:40:15Z</time>
      </trkpt>
      <trkpt lat="43.41847" lon="6.63951">
        <ele>189.4</ele>
        <time>2025-01-19T09:40:16Z</time>
      </trkpt>
      <trkpt lat="43.41847" lon="6.63951">
        <ele>189.4</ele>
        <time>2025-01-19T09:40:17Z</time>
      </trkpt>
      <trkpt lat="43.41847" lon="6.63951">
        <ele>189.5</ele>
        <time>2025-01-19T09:40:18Z</time>
      </trkpt>
      <trkpt lat="43.41847" lon="6.63951">
        <ele>189.5</ele>
        <time>2025-01-19T09:40:19Z</time>
      </trkpt>
      <trkpt lat="43.41847" lon="6.63951">
        <ele>189.5</ele>
        <time>2025-01-19T09:40:20Z</time>
      </trkpt>
      <trkpt lat="43.41847" lon="6.63952">
        <ele>189.5</ele>
        <time>2025-01-19T09:40:21Z</time>
      </trkpt>
      <trkpt lat="43.41848" lon="6.63952">
        <ele>189.5</ele>
        <time>2025-01-19T09:40:22Z</time>
      </trkpt>
      <trkpt lat="43.41848" lon="6.63952">
        <ele>189.5</ele>
        <time>2025-01-19T09:40:23Z</time>
      </trkpt>
      <trkpt lat="43.41848" lon="6.63952">
        <ele>189.5</ele>
        <time>2025-01-19T09:40:24Z</time>
      </trkpt>
      <trkpt lat="43.41847" lon="6.63952">
        <ele>189.5</ele>
        <time>2025-01-19T09:40:25Z</time>
      </trkpt>
      <trkpt lat="43.41847" lon="6.63951">
        <ele>189.5</ele>
        <time>2025-01-19T09:40:26Z</time>
      </trkpt>
      <trkpt lat="43.41847" lon="6.63951">
        <ele>189.5</ele>
        <time>2025-01-19T09:40:27Z</time>
      </trkpt>
      <trkpt lat="43.41847" lon="6.63952">
        <ele>189.5</ele>
        <time>2025-01-19T09:40:28Z</time>
      </trkpt>
      <trkpt lat="43.41847" lon="6.63951">
        <ele>189.6</ele>
        <time>2025-01-19T09:40:29Z</time>
      </trkpt>
      <trkpt lat="43.41846" lon="6.63951">
        <ele>189.6</ele>
        <time>2025-01-19T09:40:30Z</time>
      </trkpt>
      <trkpt lat="43.41846" lon="6.63951">
        <ele>189.6</ele>
        <time>2025-01-19T09:40:31Z</time>
      </trkpt>
      <trkpt lat="43.41845" lon="6.63952">
        <ele>189.8</ele>
        <time>2025-01-19T09:40:32Z</time>
      </trkpt>
      <trkpt lat="43.41845" lon="6.63951">
        <ele>189.9</ele>
        <time>2025-01-19T09:40:33Z</time>
      </trkpt>
      <trkpt lat="43.41845" lon="6.63952">
        <ele>189.9</ele>
        <time>2025-01-19T09:40:34Z</time>
      </trkpt>
      <trkpt lat="43.41845" lon="6.63952">
        <ele>189.8</ele>
        <time>2025-01-19T09:40:35Z</time>
      </trkpt>
      <trkpt lat="43.41845" lon="6.63952">
        <ele>189.7</ele>
        <time>2025-01-19T09:40:36Z</time>
      </trkpt>
      <trkpt lat="43.41845" lon="6.63952">
        <ele>189.6</ele>
        <time>2025-01-19T09:40:37Z</time>
      </trkpt>
      <trkpt lat="43.41844" lon="6.63952">
        <ele>189.6</ele>
        <time>2025-01-19T09:40:38Z</time>
      </trkpt>
      <trkpt lat="43.41843" lon="6.63952">
        <ele>189.7</ele>
        <time>2025-01-19T09:40:39Z</time>
      </trkpt>
      <trkpt lat="43.41842" lon="6.63952">
        <ele>189.6</ele>
        <time>2025-01-19T09:40:40Z</time>
      </trkpt>
      <trkpt lat="43.41841" lon="6.63952">
        <ele>189.5</ele>
        <time>2025-01-19T09:40:41Z</time>
      </trkpt>
      <trkpt lat="43.4184" lon="6.63951">
        <ele>189.6</ele>
        <time>2025-01-19T09:40:42Z</time>
      </trkpt>
      <trkpt lat="43.41839" lon="6.63951">
        <ele>189.6</ele>
        <time>2025-01-19T09:40:43Z</time>
      </trkpt>
      <trkpt lat="43.41838" lon="6.6395">
        <ele>189.6</ele>
        <time>2025-01-19T09:40:44Z</time>
      </trkpt>
      <trkpt lat="43.41837" lon="6.6395">
        <ele>189.7</ele>
        <time>2025-01-19T09:40:45Z</time>
      </trkpt>
      <trkpt lat="43.41837" lon="6.6395">
        <ele>189.6</ele>
        <time>2025-01-19T09:40:46Z</time>
      </trkpt>
      <trkpt lat="43.41837" lon="6.6395">
        <ele>189.4</ele>
        <time>2025-01-19T09:40:47Z</time>
      </trkpt>
      <trkpt lat="43.41836" lon="6.6395">
        <ele>189.3</ele>
        <time>2025-01-19T09:40:48Z</time>
      </trkpt>
      <trkpt lat="43.41836" lon="6.6395">
        <ele>189.1</ele>
        <time>2025-01-19T09:40:49Z</time>
      </trkpt>
      <trkpt lat="43.41836" lon="6.6395">
        <ele>189</ele>
        <time>2025-01-19T09:40:50Z</time>
      </trkpt>
      <trkpt lat="43.41836" lon="6.6395">
        <ele>189</ele>
        <time>2025-01-19T09:40:51Z</time>
      </trkpt>
      <trkpt lat="43.41836" lon="6.6395">
        <ele>188.8</ele>
        <time>2025-01-19T09:40:52Z</time>
      </trkpt>
      <trkpt lat="43.41836" lon="6.6395">
        <ele>188.7</ele>
        <time>2025-01-19T09:40:53Z</time>
      </trkpt>
      <trkpt lat="43.41836" lon="6.6395">
        <ele>188.7</ele>
        <time>2025-01-19T09:40:54Z</time>
      </trkpt>
      <trkpt lat="43.41836" lon="6.6395">
        <ele>188.7</ele>
        <time>2025-01-19T09:40:55Z</time>
      </trkpt>
      <trkpt lat="43.41836" lon="6.6395">
        <ele>188.7</ele>
        <time>2025-01-19T09:40:56Z</time>
      </trkpt>
      <trkpt lat="43.41836" lon="6.6395">
        <ele>188.8</ele>
        <time>2025-01-19T09:40:57Z</time>
      </trkpt>
      <trkpt lat="43.41836" lon="6.6395">
        <ele>188.8</ele>
        <time>2025-01-19T09:40:58Z</time>
      </trkpt>
      <trkpt lat="43.41836" lon="6.6395">
        <ele>188.7</ele>
        <time>2025-01-19T09:40:59Z</time>
      </trkpt>
      <trkpt lat="43.41837" lon="6.6395">
        <ele>188.7</ele>
        <time>2025-01-19T09:41:00Z</time>
      </trkpt>
      <trkpt lat="43.41837" lon="6.6395">
        <ele>188.8</ele>
        <time>2025-01-19T09:41:01Z</time>
      </trkpt>
      <trkpt lat="43.41837" lon="6.6395">
        <ele>188.7</ele>
        <time>2025-01-19T09:41:02Z</time>
      </trkpt>
      <trkpt lat="43.41837" lon="6.6395">
        <ele>188.6</ele>
        <time>2025-01-19T09:41:03Z</time>
      </trkpt>
      <trkpt lat="43.41837" lon="6.6395">
        <ele>188.7</ele>
        <time>2025-01-19T09:41:04Z</time>
      </trkpt>
      <trkpt lat="43.41837" lon="6.6395">
        <ele>188.7</ele>
        <time>2025-01-19T09:41:05Z</time>
      </trkpt>
      <trkpt lat="43.41837" lon="6.6395">
        <ele>188.8</ele>
        <time>2025-01-19T09:41:06Z</time>
      </trkpt>
      <trkpt lat="43.41837" lon="6.6395">
        <ele>188.8</ele>
        <time>2025-01-19T09:41:07Z</time>
      </trkpt>
      <trkpt lat="43.41837" lon="6.6395">
        <ele>188.9</ele>
        <time>2025-01-19T09:41:08Z</time>
      </trkpt>
      <trkpt lat="43.41837" lon="6.6395">
        <ele>188.9</ele>
        <time>2025-01-19T09:41:09Z</time>
      </trkpt>
      <trkpt lat="43.41837" lon="6.6395">
        <ele>188.9</ele>
        <time>2025-01-19T09:41:10Z</time>
      </trkpt>
      <trkpt lat="43.41837" lon="6.6395">
        <ele>188.9</ele>
        <time>2025-01-19T09:41:11Z</time>
      </trkpt>
      <trkpt lat="43.41837" lon="6.6395">
        <ele>188.9</ele>
        <time>2025-01-19T09:41:12Z</time>
      </trkpt>
      <trkpt lat="43.41837" lon="6.6395">
        <ele>188.9</ele>
        <time>2025-01-19T09:41:13Z</time>
      </trkpt>
      <trkpt lat="43.41837" lon="6.6395">
        <ele>188.9</ele>
        <time>2025-01-19T09:41:14Z</time>
      </trkpt>
      <trkpt lat="43.41837" lon="6.63951">
        <ele>188.8</ele>
        <time>2025-01-19T09:41:15Z</time>
      </trkpt>
      <trkpt lat="43.41837" lon="6.63951">
        <ele>188.8</ele>
        <time>2025-01-19T09:41:16Z</time>
      </trkpt>
      <trkpt lat="43.41836" lon="6.63951">
        <ele>188.8</ele>
        <time>2025-01-19T09:41:17Z</time>
      </trkpt>
      <trkpt lat="43.41836" lon="6.6395">
        <ele>188.8</ele>
        <time>2025-01-19T09:41:18Z</time>
      </trkpt>
      <trkpt lat="43.41836" lon="6.6395">
        <ele>188.7</ele>
        <time>2025-01-19T09:41:19Z</time>
      </trkpt>
      <trkpt lat="43.41836" lon="6.6395">
        <ele>188.7</ele>
        <time>2025-01-19T09:41:20Z</time>
      </trkpt>
      <trkpt lat="43.41836" lon="6.6395">
        <ele>188.7</ele>
        <time>2025-01-19T09:41:21Z</time>
      </trkpt>
      <trkpt lat="43.41836" lon="6.6395">
        <ele>188.8</ele>
        <time>2025-01-19T09:41:22Z</time>
      </trkpt>
      <trkpt lat="43.41836" lon="6.6395">
        <ele>188.8</ele>
        <time>2025-01-19T09:41:23Z</time>
      </trkpt>
      <trkpt lat="43.41836" lon="6.6395">
        <ele>188.9</ele>
        <time>2025-01-19T09:41:24Z</time>
      </trkpt>
      <trkpt lat="43.41836" lon="6.6395">
        <ele>188.9</ele>
        <time>2025-01-19T09:41:25Z</time>
      </trkpt>
      <trkpt lat="43.41836" lon="6.6395">
        <ele>188.9</ele>
        <time>2025-01-19T09:41:26Z</time>
      </trkpt>
      <trkpt lat="43.41836" lon="6.6395">
        <ele>189</ele>
        <time>2025-01-19T09:41:27Z</time>
      </trkpt>
      <trkpt lat="43.41836" lon="6.6395">
        <ele>189</ele>
        <time>2025-01-19T09:41:28Z</time>
      </trkpt>
      <trkpt lat="43.41836" lon="6.6395">
        <ele>189.1</ele>
        <time>2025-01-19T09:41:29Z</time>
      </trkpt>
      <trkpt lat="43.41836" lon="6.6395">
        <ele>189.1</ele>
        <time>2025-01-19T09:41:30Z</time>
      </trkpt>
      <trkpt lat="43.41836" lon="6.6395">
        <ele>189</ele>
        <time>2025-01-19T09:41:31Z</time>
      </trkpt>
      <trkpt lat="43.41836" lon="6.6395">
        <ele>189</ele>
        <time>2025-01-19T09:41:32Z</time>
      </trkpt>
      <trkpt lat="43.41836" lon="6.63951">
        <ele>189</ele>
        <time>2025-01-19T09:41:33Z</time>
      </trkpt>
      <trkpt lat="43.41835" lon="6.63951">
        <ele>189</ele>
        <time>2025-01-19T09:41:34Z</time>
      </trkpt>
      <trkpt lat="43.41835" lon="6.63951">
        <ele>189</ele>
        <time>2025-01-19T09:41:35Z</time>
      </trkpt>
      <trkpt lat="43.41835" lon="6.63951">
        <ele>189.1</ele>
        <time>2025-01-19T09:41:36Z</time>
      </trkpt>
      <trkpt lat="43.41835" lon="6.6395">
        <ele>189.1</ele>
        <time>2025-01-19T09:41:37Z</time>
      </trkpt>
      <trkpt lat="43.41835" lon="6.6395">
        <ele>189.1</ele>
        <time>2025-01-19T09:41:38Z</time>
      </trkpt>
      <trkpt lat="43.41835" lon="6.63951">
        <ele>189.3</ele>
        <time>2025-01-19T09:41:39Z</time>
      </trkpt>
      <trkpt lat="43.41835" lon="6.6395">
        <ele>189.2</ele>
        <time>2025-01-19T09:41:40Z</time>
      </trkpt>
      <trkpt lat="43.41835" lon="6.6395">
        <ele>189.2</ele>
        <time>2025-01-19T09:41:41Z</time>
      </trkpt>
      <trkpt lat="43.41835" lon="6.6395">
        <ele>189.2</ele>
        <time>2025-01-19T09:41:42Z</time>
      </trkpt>
      <trkpt lat="43.41836" lon="6.6395">
        <ele>189.3</ele>
        <time>2025-01-19T09:41:43Z</time>
      </trkpt>
      <trkpt lat="43.41836" lon="6.6395">
        <ele>189.3</ele>
        <time>2025-01-19T09:41:44Z</time>
      </trkpt>
      <trkpt lat="43.41836" lon="6.6395">
        <ele>189.3</ele>
        <time>2025-01-19T09:41:45Z</time>
      </trkpt>
      <trkpt lat="43.41836" lon="6.6395">
        <ele>189.4</ele>
        <time>2025-01-19T09:41:46Z</time>
      </trkpt>
      <trkpt lat="43.41836" lon="6.6395">
        <ele>189.4</ele>
        <time>2025-01-19T09:41:47Z</time>
      </trkpt>
      <trkpt lat="43.41836" lon="6.6395">
        <ele>189.4</ele>
        <time>2025-01-19T09:41:48Z</time>
      </trkpt>
      <trkpt lat="43.41836" lon="6.6395">
        <ele>189.4</ele>
        <time>2025-01-19T09:41:49Z</time>
      </trkpt>
      <trkpt lat="43.41836" lon="6.6395">
        <ele>189.5</ele>
        <time>2025-01-19T09:41:50Z</time>
      </trkpt>
      <trkpt lat="43.41836" lon="6.6395">
        <ele>189.5</ele>
        <time>2025-01-19T09:41:51Z</time>
      </trkpt>
      <trkpt lat="43.41836" lon="6.63951">
        <ele>189.4</ele>
        <time>2025-01-19T09:41:52Z</time>
      </trkpt>
      <trkpt lat="43.41836" lon="6.63951">
        <ele>189.4</ele>
        <time>2025-01-19T09:41:53Z</time>
      </trkpt>
      <trkpt lat="43.41836" lon="6.63951">
        <ele>189.3</ele>
        <time>2025-01-19T09:41:54Z</time>
      </trkpt>
      <trkpt lat="43.41836" lon="6.63951">
        <ele>189.3</ele>
        <time>2025-01-19T09:41:55Z</time>
      </trkpt>
      <trkpt lat="43.41836" lon="6.6395">
        <ele>189.3</ele>
        <time>2025-01-19T09:41:56Z</time>
      </trkpt>
      <trkpt lat="43.41836" lon="6.6395">
        <ele>189.3</ele>
        <time>2025-01-19T09:41:57Z</time>
      </trkpt>
      <trkpt lat="43.41836" lon="6.63951">
        <ele>189.4</ele>
        <time>2025-01-19T09:41:58Z</time>
      </trkpt>
      <trkpt lat="43.41836" lon="6.63951">
        <ele>189.4</ele>
        <time>2025-01-19T09:41:59Z</time>
      </trkpt>
      <trkpt lat="43.41836" lon="6.63951">
        <ele>189.3</ele>
        <time>2025-01-19T09:42:00Z</time>
      </trkpt>
      <trkpt lat="43.41836" lon="6.63951">
        <ele>189.3</ele>
        <time>2025-01-19T09:42:01Z</time>
      </trkpt>
      <trkpt lat="43.41836" lon="6.63951">
        <ele>189.4</ele>
        <time>2025-01-19T09:42:02Z</time>
      </trkpt>
      <trkpt lat="43.41836" lon="6.63951">
        <ele>189.4</ele>
        <time>2025-01-19T09:42:03Z</time>
      </trkpt>
      <trkpt lat="43.41836" lon="6.6395">
        <ele>189.3</ele>
        <time>2025-01-19T09:42:04Z</time>
      </trkpt>
      <trkpt lat="43.41836" lon="6.63951">
        <ele>189.3</ele>
        <time>2025-01-19T09:42:05Z</time>
      </trkpt>
      <trkpt lat="43.41836" lon="6.63951">
        <ele>189.3</ele>
        <time>2025-01-19T09:42:06Z</time>
      </trkpt>
      <trkpt lat="43.41836" lon="6.63951">
        <ele>189.3</ele>
        <time>2025-01-19T09:42:07Z</time>
      </trkpt>
      <trkpt lat="43.41836" lon="6.63951">
        <ele>189.3</ele>
        <time>2025-01-19T09:42:08Z</time>
      </trkpt>
      <trkpt lat="43.41836" lon="6.63951">
        <ele>189.4</ele>
        <time>2025-01-19T09:42:09Z</time>
      </trkpt>
      <trkpt lat="43.41836" lon="6.63951">
        <ele>189.4</ele>
        <time>2025-01-19T09:42:10Z</time>
      </trkpt>
      <trkpt lat="43.41836" lon="6.63951">
        <ele>189.4</ele>
        <time>2025-01-19T09:42:11Z</time>
      </trkpt>
      <trkpt lat="43.41836" lon="6.63951">
        <ele>189.5</ele>
        <time>2025-01-19T09:42:12Z</time>
      </trkpt>
      <trkpt lat="43.41836" lon="6.63951">
        <ele>189.5</ele>
        <time>2025-01-19T09:42:13Z</time>
      </trkpt>
      <trkpt lat="43.41836" lon="6.63951">
        <ele>189.5</ele>
        <time>2025-01-19T09:42:14Z</time>
      </trkpt>
      <trkpt lat="43.41836" lon="6.63951">
        <ele>189.5</ele>
        <time>2025-01-19T09:42:15Z</time>
      </trkpt>
      <trkpt lat="43.41837" lon="6.63951">
        <ele>189.4</ele>
        <time>2025-01-19T09:42:16Z</time>
      </trkpt>
      <trkpt lat="43.41837" lon="6.6395">
        <ele>189.4</ele>
        <time>2025-01-19T09:42:17Z</time>
      </trkpt>
      <trkpt lat="43.41838" lon="6.6395">
        <ele>189.4</ele>
        <time>2025-01-19T09:42:18Z</time>
      </trkpt>
      <trkpt lat="43.41838" lon="6.63951">
        <ele>189.4</ele>
        <time>2025-01-19T09:42:19Z</time>
      </trkpt>
      <trkpt lat="43.41839" lon="6.63951">
        <ele>189.4</ele>
        <time>2025-01-19T09:42:20Z</time>
      </trkpt>
      <trkpt lat="43.41839" lon="6.63951">
        <ele>189.4</ele>
        <time>2025-01-19T09:42:21Z</time>
      </trkpt>
      <trkpt lat="43.41839" lon="6.63951">
        <ele>189.4</ele>
        <time>2025-01-19T09:42:22Z</time>
      </trkpt>
      <trkpt lat="43.41839" lon="6.63951">
        <ele>189.3</ele>
        <time>2025-01-19T09:42:23Z</time>
      </trkpt>
      <trkpt lat="43.41839" lon="6.63951">
        <ele>189.3</ele>
        <time>2025-01-19T09:42:24Z</time>
      </trkpt>
      <trkpt lat="43.41839" lon="6.63951">
        <ele>189.2</ele>
        <time>2025-01-19T09:42:25Z</time>
      </trkpt>
      <trkpt lat="43.41839" lon="6.63951">
        <ele>189.3</ele>
        <time>2025-01-19T09:42:26Z</time>
      </trkpt>
      <trkpt lat="43.41838" lon="6.63951">
        <ele>189.3</ele>
        <time>2025-01-19T09:42:27Z</time>
      </trkpt>
      <trkpt lat="43.41838" lon="6.63951">
        <ele>189.3</ele>
        <time>2025-01-19T09:42:28Z</time>
      </trkpt>
      <trkpt lat="43.41838" lon="6.6395">
        <ele>189.3</ele>
        <time>2025-01-19T09:42:29Z</time>
      </trkpt>
      <trkpt lat="43.41837" lon="6.6395">
        <ele>189.2</ele>
        <time>2025-01-19T09:42:30Z</time>
      </trkpt>
      <trkpt lat="43.41837" lon="6.6395">
        <ele>189.3</ele>
        <time>2025-01-19T09:42:31Z</time>
      </trkpt>
      <trkpt lat="43.41837" lon="6.63951">
        <ele>189.3</ele>
        <time>2025-01-19T09:42:32Z</time>
      </trkpt>
      <trkpt lat="43.41838" lon="6.6395">
        <ele>189.3</ele>
        <time>2025-01-19T09:42:33Z</time>
      </trkpt>
      <trkpt lat="43.41838" lon="6.63951">
        <ele>189.3</ele>
        <time>2025-01-19T09:42:34Z</time>
      </trkpt>
      <trkpt lat="43.41838" lon="6.63951">
        <ele>189.4</ele>
        <time>2025-01-19T09:42:35Z</time>
      </trkpt>
      <trkpt lat="43.41838" lon="6.63951">
        <ele>189.4</ele>
        <time>2025-01-19T09:42:36Z</time>
      </trkpt>
      <trkpt lat="43.41837" lon="6.63951">
        <ele>189.4</ele>
        <time>2025-01-19T09:42:37Z</time>
      </trkpt>
      <trkpt lat="43.41837" lon="6.63951">
        <ele>189.4</ele>
        <time>2025-01-19T09:42:38Z</time>
      </trkpt>
      <trkpt lat="43.41837" lon="6.6395">
        <ele>189.4</ele>
        <time>2025-01-19T09:42:39Z</time>
      </trkpt>
      <trkpt lat="43.41837" lon="6.6395">
        <ele>189.5</ele>
        <time>2025-01-19T09:42:40Z</time>
      </trkpt>
      <trkpt lat="43.41837" lon="6.6395">
        <ele>189.5</ele>
        <time>2025-01-19T09:42:41Z</time>
      </trkpt>
      <trkpt lat="43.41836" lon="6.6395">
        <ele>189.5</ele>
        <time>2025-01-19T09:42:42Z</time>
      </trkpt>
      <trkpt lat="43.41836" lon="6.6395">
        <ele>189.6</ele>
        <time>2025-01-19T09:42:43Z</time>
      </trkpt>
      <trkpt lat="43.41836" lon="6.6395">
        <ele>189.6</ele>
        <time>2025-01-19T09:42:44Z</time>
      </trkpt>
      <trkpt lat="43.41836" lon="6.6395">
        <ele>189.6</ele>
        <time>2025-01-19T09:42:45Z</time>
      </trkpt>
      <trkpt lat="43.41836" lon="6.6395">
        <ele>189.7</ele>
        <time>2025-01-19T09:42:46Z</time>
      </trkpt>
      <trkpt lat="43.41836" lon="6.6395">
        <ele>189.6</ele>
        <time>2025-01-19T09:42:47Z</time>
      </trkpt>
      <trkpt lat="43.41836" lon="6.6395">
        <ele>189.6</ele>
        <time>2025-01-19T09:42:48Z</time>
      </trkpt>
      <trkpt lat="43.41836" lon="6.63951">
        <ele>189.5</ele>
        <time>2025-01-19T09:42:49Z</time>
      </trkpt>
      <trkpt lat="43.41836" lon="6.6395">
        <ele>189.6</ele>
        <time>2025-01-19T09:42:50Z</time>
      </trkpt>
      <trkpt lat="43.41836" lon="6.6395">
        <ele>189.6</ele>
        <time>2025-01-19T09:42:51Z</time>
      </trkpt>
      <trkpt lat="43.41837" lon="6.63949">
        <ele>189.6</ele>
        <time>2025-01-19T09:42:52Z</time>
      </trkpt>
      <trkpt lat="43.41837" lon="6.6395">
        <ele>189.6</ele>
        <time>2025-01-19T09:42:53Z</time>
      </trkpt>
      <trkpt lat="43.41837" lon="6.63949">
        <ele>189.6</ele>
        <time>2025-01-19T09:42:54Z</time>
      </trkpt>
      <trkpt lat="43.41838" lon="6.6395">
        <ele>189.7</ele>
        <time>2025-01-19T09:42:55Z</time>
      </trkpt>
      <trkpt lat="43.41839" lon="6.6395">
        <ele>189.8</ele>
        <time>2025-01-19T09:42:56Z</time>
      </trkpt>
      <trkpt lat="43.4184" lon="6.6395">
        <ele>189.8</ele>
        <time>2025-01-19T09:42:57Z</time>
      </trkpt>
      <trkpt lat="43.41841" lon="6.63949">
        <ele>189.9</ele>
        <time>2025-01-19T09:42:58Z</time>
      </trkpt>
      <trkpt lat="43.41842" lon="6.63947">
        <ele>189.9</ele>
        <time>2025-01-19T09:42:59Z</time>
      </trkpt>
      <trkpt lat="43.41842" lon="6.63945">
        <ele>189.9</ele>
        <time>2025-01-19T09:43:00Z</time>
      </trkpt>
      <trkpt lat="43.41841" lon="6.63944">
        <ele>190</ele>
        <time>2025-01-19T09:43:01Z</time>
      </trkpt>
      <trkpt lat="43.41841" lon="6.63943">
        <ele>190</ele>
        <time>2025-01-19T09:43:02Z</time>
      </trkpt>
      <trkpt lat="43.41841" lon="6.63941">
        <ele>190.1</ele>
        <time>2025-01-19T09:43:03Z</time>
      </trkpt>
      <trkpt lat="43.4184" lon="6.6394">
        <ele>190.1</ele>
        <time>2025-01-19T09:43:04Z</time>
      </trkpt>
      <trkpt lat="43.4184" lon="6.63939">
        <ele>190.3</ele>
        <time>2025-01-19T09:43:05Z</time>
      </trkpt>
      <trkpt lat="43.41839" lon="6.63938">
        <ele>190.4</ele>
        <time>2025-01-19T09:43:06Z</time>
      </trkpt>
      <trkpt lat="43.41839" lon="6.63936">
        <ele>190.4</ele>
        <time>2025-01-19T09:43:07Z</time>
      </trkpt>
      <trkpt lat="43.41838" lon="6.63934">
        <ele>190.4</ele>
        <time>2025-01-19T09:43:08Z</time>
      </trkpt>
      <trkpt lat="43.41838" lon="6.63933">
        <ele>190.4</ele>
        <time>2025-01-19T09:43:09Z</time>
      </trkpt>
      <trkpt lat="43.41837" lon="6.63931">
        <ele>190.4</ele>
        <time>2025-01-19T09:43:10Z</time>
      </trkpt>
      <trkpt lat="43.41837" lon="6.6393">
        <ele>190.4</ele>
        <time>2025-01-19T09:43:11Z</time>
      </trkpt>
      <trkpt lat="43.41836" lon="6.63929">
        <ele>190.5</ele>
        <time>2025-01-19T09:43:12Z</time>
      </trkpt>
      <trkpt lat="43.41836" lon="6.63928">
        <ele>190.6</ele>
        <time>2025-01-19T09:43:13Z</time>
      </trkpt>
      <trkpt lat="43.41835" lon="6.63926">
        <ele>190.6</ele>
        <time>2025-01-19T09:43:14Z</time>
      </trkpt>
      <trkpt lat="43.41834" lon="6.63925">
        <ele>190.7</ele>
        <time>2025-01-19T09:43:15Z</time>
      </trkpt>
      <trkpt lat="43.41834" lon="6.63924">
        <ele>190.8</ele>
        <time>2025-01-19T09:43:16Z</time>
      </trkpt>
      <trkpt lat="43.41833" lon="6.63923">
        <ele>190.8</ele>
        <time>2025-01-19T09:43:17Z</time>
      </trkpt>
      <trkpt lat="43.41833" lon="6.63923">
        <ele>190.9</ele>
        <time>2025-01-19T09:43:18Z</time>
      </trkpt>
      <trkpt lat="43.41833" lon="6.63922">
        <ele>190.9</ele>
        <time>2025-01-19T09:43:19Z</time>
      </trkpt>
      <trkpt lat="43.41832" lon="6.63921">
        <ele>190.9</ele>
        <time>2025-01-19T09:43:20Z</time>
      </trkpt>
      <trkpt lat="43.41832" lon="6.63919">
        <ele>190.9</ele>
        <time>2025-01-19T09:43:21Z</time>
      </trkpt>
      <trkpt lat="43.41831" lon="6.63918">
        <ele>191</ele>
        <time>2025-01-19T09:43:22Z</time>
      </trkpt>
      <trkpt lat="43.4183" lon="6.63917">
        <ele>191</ele>
        <time>2025-01-19T09:43:23Z</time>
      </trkpt>
      <trkpt lat="43.4183" lon="6.63916">
        <ele>191</ele>
        <time>2025-01-19T09:43:24Z</time>
      </trkpt>
      <trkpt lat="43.4183" lon="6.63915">
        <ele>191.1</ele>
        <time>2025-01-19T09:43:25Z</time>
      </trkpt>
      <trkpt lat="43.41829" lon="6.63913">
        <ele>191.3</ele>
        <time>2025-01-19T09:43:26Z</time>
      </trkpt>
      <trkpt lat="43.41829" lon="6.63912">
        <ele>191.3</ele>
        <time>2025-01-19T09:43:27Z</time>
      </trkpt>
      <trkpt lat="43.41829" lon="6.63912">
        <ele>191.4</ele>
        <time>2025-01-19T09:43:28Z</time>
      </trkpt>
      <trkpt lat="43.41829" lon="6.63912">
        <ele>191.4</ele>
        <time>2025-01-19T09:43:29Z</time>
      </trkpt>
      <trkpt lat="43.41829" lon="6.63911">
        <ele>191.4</ele>
        <time>2025-01-19T09:43:30Z</time>
      </trkpt>
      <trkpt lat="43.41829" lon="6.63912">
        <ele>191.5</ele>
        <time>2025-01-19T09:43:31Z</time>
      </trkpt>
      <trkpt lat="43.41829" lon="6.63912">
        <ele>191.5</ele>
        <time>2025-01-19T09:43:32Z</time>
      </trkpt>
      <trkpt lat="43.41829" lon="6.63913">
        <ele>191.5</ele>
        <time>2025-01-19T09:43:33Z</time>
      </trkpt>
      <trkpt lat="43.41829" lon="6.63913">
        <ele>191.6</ele>
        <time>2025-01-19T09:43:34Z</time>
      </trkpt>
      <trkpt lat="43.41829" lon="6.63913">
        <ele>191.6</ele>
        <time>2025-01-19T09:43:35Z</time>
      </trkpt>
      <trkpt lat="43.41829" lon="6.63914">
        <ele>191.5</ele>
        <time>2025-01-19T09:43:36Z</time>
      </trkpt>
      <trkpt lat="43.4183" lon="6.63914">
        <ele>191.4</ele>
        <time>2025-01-19T09:43:37Z</time>
      </trkpt>
      <trkpt lat="43.4183" lon="6.63914">
        <ele>191.5</ele>
        <time>2025-01-19T09:43:38Z</time>
      </trkpt>
      <trkpt lat="43.4183" lon="6.63913">
        <ele>191.5</ele>
        <time>2025-01-19T09:43:39Z</time>
      </trkpt>
      <trkpt lat="43.4183" lon="6.63913">
        <ele>191.5</ele>
        <time>2025-01-19T09:43:40Z</time>
      </trkpt>
      <trkpt lat="43.41829" lon="6.63913">
        <ele>191.5</ele>
        <time>2025-01-19T09:43:41Z</time>
      </trkpt>
      <trkpt lat="43.41829" lon="6.63913">
        <ele>191.4</ele>
        <time>2025-01-19T09:43:42Z</time>
      </trkpt>
      <trkpt lat="43.4183" lon="6.63913">
        <ele>191.4</ele>
        <time>2025-01-19T09:43:43Z</time>
      </trkpt>
      <trkpt lat="43.4183" lon="6.63913">
        <ele>191.5</ele>
        <time>2025-01-19T09:43:44Z</time>
      </trkpt>
      <trkpt lat="43.4183" lon="6.63913">
        <ele>191.5</ele>
        <time>2025-01-19T09:43:45Z</time>
      </trkpt>
      <trkpt lat="43.41829" lon="6.63913">
        <ele>191.6</ele>
        <time>2025-01-19T09:43:46Z</time>
      </trkpt>
      <trkpt lat="43.41829" lon="6.63914">
        <ele>191.6</ele>
        <time>2025-01-19T09:43:47Z</time>
      </trkpt>
      <trkpt lat="43.4183" lon="6.63915">
        <ele>191.5</ele>
        <time>2025-01-19T09:43:48Z</time>
      </trkpt>
      <trkpt lat="43.4183" lon="6.63915">
        <ele>191.5</ele>
        <time>2025-01-19T09:43:49Z</time>
      </trkpt>
      <trkpt lat="43.4183" lon="6.63915">
        <ele>191.5</ele>
        <time>2025-01-19T09:43:50Z</time>
      </trkpt>
      <trkpt lat="43.4183" lon="6.63915">
        <ele>191.6</ele>
        <time>2025-01-19T09:43:51Z</time>
      </trkpt>
      <trkpt lat="43.4183" lon="6.63915">
        <ele>191.7</ele>
        <time>2025-01-19T09:43:52Z</time>
      </trkpt>
      <trkpt lat="43.4183" lon="6.63915">
        <ele>191.7</ele>
        <time>2025-01-19T09:43:53Z</time>
      </trkpt>
      <trkpt lat="43.41831" lon="6.63914">
        <ele>191.6</ele>
        <time>2025-01-19T09:43:54Z</time>
      </trkpt>
      <trkpt lat="43.41831" lon="6.63914">
        <ele>191.6</ele>
        <time>2025-01-19T09:43:55Z</time>
      </trkpt>
      <trkpt lat="43.41831" lon="6.63914">
        <ele>191.6</ele>
        <time>2025-01-19T09:43:56Z</time>
      </trkpt>
      <trkpt lat="43.41831" lon="6.63914">
        <ele>191.6</ele>
        <time>2025-01-19T09:43:57Z</time>
      </trkpt>
      <trkpt lat="43.41831" lon="6.63914">
        <ele>191.6</ele>
        <time>2025-01-19T09:43:58Z</time>
      </trkpt>
      <trkpt lat="43.41831" lon="6.63914">
        <ele>191.7</ele>
        <time>2025-01-19T09:43:59Z</time>
      </trkpt>
      <trkpt lat="43.41831" lon="6.63913">
        <ele>191.6</ele>
        <time>2025-01-19T09:44:00Z</time>
      </trkpt>
      <trkpt lat="43.41831" lon="6.63913">
        <ele>191.6</ele>
        <time>2025-01-19T09:44:01Z</time>
      </trkpt>
      <trkpt lat="43.4183" lon="6.63913">
        <ele>191.6</ele>
        <time>2025-01-19T09:44:02Z</time>
      </trkpt>
      <trkpt lat="43.4183" lon="6.63913">
        <ele>191.6</ele>
        <time>2025-01-19T09:44:03Z</time>
      </trkpt>
      <trkpt lat="43.41831" lon="6.63913">
        <ele>191.5</ele>
        <time>2025-01-19T09:44:04Z</time>
      </trkpt>
      <trkpt lat="43.4183" lon="6.63913">
        <ele>191.5</ele>
        <time>2025-01-19T09:44:05Z</time>
      </trkpt>
      <trkpt lat="43.4183" lon="6.63914">
        <ele>191.5</ele>
        <time>2025-01-19T09:44:06Z</time>
      </trkpt>
      <trkpt lat="43.41831" lon="6.63914">
        <ele>191.5</ele>
        <time>2025-01-19T09:44:07Z</time>
      </trkpt>
      <trkpt lat="43.41831" lon="6.63914">
        <ele>191.5</ele>
        <time>2025-01-19T09:44:08Z</time>
      </trkpt>
      <trkpt lat="43.41831" lon="6.63914">
        <ele>191.6</ele>
        <time>2025-01-19T09:44:09Z</time>
      </trkpt>
      <trkpt lat="43.41831" lon="6.63914">
        <ele>191.6</ele>
        <time>2025-01-19T09:44:10Z</time>
      </trkpt>
      <trkpt lat="43.41831" lon="6.63913">
        <ele>191.6</ele>
        <time>2025-01-19T09:44:11Z</time>
      </trkpt>
      <trkpt lat="43.41831" lon="6.63913">
        <ele>191.7</ele>
        <time>2025-01-19T09:44:12Z</time>
      </trkpt>
      <trkpt lat="43.41831" lon="6.63914">
        <ele>191.7</ele>
        <time>2025-01-19T09:44:13Z</time>
      </trkpt>
      <trkpt lat="43.41831" lon="6.63914">
        <ele>191.7</ele>
        <time>2025-01-19T09:44:14Z</time>
      </trkpt>
      <trkpt lat="43.41831" lon="6.63914">
        <ele>191.8</ele>
        <time>2025-01-19T09:44:15Z</time>
      </trkpt>
      <trkpt lat="43.41831" lon="6.63914">
        <ele>191.8</ele>
        <time>2025-01-19T09:44:16Z</time>
      </trkpt>
      <trkpt lat="43.41831" lon="6.63914">
        <ele>191.8</ele>
        <time>2025-01-19T09:44:17Z</time>
      </trkpt>
      <trkpt lat="43.41831" lon="6.63913">
        <ele>191.9</ele>
        <time>2025-01-19T09:44:18Z</time>
      </trkpt>
      <trkpt lat="43.4183" lon="6.63913">
        <ele>191.9</ele>
        <time>2025-01-19T09:44:19Z</time>
      </trkpt>
      <trkpt lat="43.4183" lon="6.63914">
        <ele>191.9</ele>
        <time>2025-01-19T09:44:20Z</time>
      </trkpt>
      <trkpt lat="43.41831" lon="6.63913">
        <ele>191.9</ele>
        <time>2025-01-19T09:44:21Z</time>
      </trkpt>
      <trkpt lat="43.41831" lon="6.63913">
        <ele>191.9</ele>
        <time>2025-01-19T09:44:22Z</time>
      </trkpt>
      <trkpt lat="43.41831" lon="6.63914">
        <ele>192</ele>
        <time>2025-01-19T09:44:23Z</time>
      </trkpt>
      <trkpt lat="43.41831" lon="6.63913">
        <ele>192</ele>
        <time>2025-01-19T09:44:24Z</time>
      </trkpt>
      <trkpt lat="43.41831" lon="6.63914">
        <ele>192.1</ele>
        <time>2025-01-19T09:44:25Z</time>
      </trkpt>
      <trkpt lat="43.41831" lon="6.63914">
        <ele>192.1</ele>
        <time>2025-01-19T09:44:26Z</time>
      </trkpt>
      <trkpt lat="43.41831" lon="6.63913">
        <ele>192.1</ele>
        <time>2025-01-19T09:44:27Z</time>
      </trkpt>
      <trkpt lat="43.41831" lon="6.63913">
        <ele>192</ele>
        <time>2025-01-19T09:44:28Z</time>
      </trkpt>
      <trkpt lat="43.41831" lon="6.63912">
        <ele>192</ele>
        <time>2025-01-19T09:44:29Z</time>
      </trkpt>
      <trkpt lat="43.41832" lon="6.63913">
        <ele>191.9</ele>
        <time>2025-01-19T09:44:30Z</time>
      </trkpt>
      <trkpt lat="43.41832" lon="6.63913">
        <ele>192</ele>
        <time>2025-01-19T09:44:31Z</time>
      </trkpt>
      <trkpt lat="43.41832" lon="6.63914">
        <ele>192</ele>
        <time>2025-01-19T09:44:32Z</time>
      </trkpt>
      <trkpt lat="43.41833" lon="6.63914">
        <ele>192</ele>
        <time>2025-01-19T09:44:33Z</time>
      </trkpt>
      <trkpt lat="43.41833" lon="6.63915">
        <ele>191.9</ele>
        <time>2025-01-19T09:44:34Z</time>
      </trkpt>
      <trkpt lat="43.41833" lon="6.63916">
        <ele>191.9</ele>
        <time>2025-01-19T09:44:35Z</time>
      </trkpt>
      <trkpt lat="43.41833" lon="6.63917">
        <ele>191.8</ele>
        <time>2025-01-19T09:44:36Z</time>
      </trkpt>
      <trkpt lat="43.41833" lon="6.63917">
        <ele>191.7</ele>
        <time>2025-01-19T09:44:37Z</time>
      </trkpt>
      <trkpt lat="43.41833" lon="6.63918">
        <ele>191.7</ele>
        <time>2025-01-19T09:44:38Z</time>
      </trkpt>
      <trkpt lat="43.41833" lon="6.63918">
        <ele>191.7</ele>
        <time>2025-01-19T09:44:39Z</time>
      </trkpt>
      <trkpt lat="43.41833" lon="6.63918">
        <ele>191.7</ele>
        <time>2025-01-19T09:44:40Z</time>
      </trkpt>
      <trkpt lat="43.41833" lon="6.63918">
        <ele>191.8</ele>
        <time>2025-01-19T09:44:41Z</time>
      </trkpt>
      <trkpt lat="43.41833" lon="6.63918">
        <ele>191.9</ele>
        <time>2025-01-19T09:44:42Z</time>
      </trkpt>
      <trkpt lat="43.41833" lon="6.63918">
        <ele>191.9</ele>
        <time>2025-01-19T09:44:43Z</time>
      </trkpt>
      <trkpt lat="43.41833" lon="6.63918">
        <ele>191.8</ele>
        <time>2025-01-19T09:44:44Z</time>
      </trkpt>
      <trkpt lat="43.41833" lon="6.63918">
        <ele>191.8</ele>
        <time>2025-01-19T09:44:45Z</time>
      </trkpt>
      <trkpt lat="43.41833" lon="6.63918">
        <ele>191.8</ele>
        <time>2025-01-19T09:44:46Z</time>
      </trkpt>
      <trkpt lat="43.41833" lon="6.63918">
        <ele>191.8</ele>
        <time>2025-01-19T09:44:47Z</time>
      </trkpt>
      <trkpt lat="43.41832" lon="6.63918">
        <ele>191.7</ele>
        <time>2025-01-19T09:44:48Z</time>
      </trkpt>
      <trkpt lat="43.41832" lon="6.63918">
        <ele>191.8</ele>
        <time>2025-01-19T09:44:49Z</time>
      </trkpt>
      <trkpt lat="43.41832" lon="6.63917">
        <ele>191.8</ele>
        <time>2025-01-19T09:44:50Z</time>
      </trkpt>
      <trkpt lat="43.41832" lon="6.63917">
        <ele>191.8</ele>
        <time>2025-01-19T09:44:51Z</time>
      </trkpt>
      <trkpt lat="43.41832" lon="6.63918">
        <ele>191.7</ele>
        <time>2025-01-19T09:44:52Z</time>
      </trkpt>
      <trkpt lat="43.41832" lon="6.63918">
        <ele>191.7</ele>
        <time>2025-01-19T09:44:53Z</time>
      </trkpt>
      <trkpt lat="43.41831" lon="6.63918">
        <ele>191.7</ele>
        <time>2025-01-19T09:44:54Z</time>
      </trkpt>
      <trkpt lat="43.41831" lon="6.63918">
        <ele>191.7</ele>
        <time>2025-01-19T09:44:55Z</time>
      </trkpt>
      <trkpt lat="43.41831" lon="6.63918">
        <ele>191.7</ele>
        <time>2025-01-19T09:44:56Z</time>
      </trkpt>
      <trkpt lat="43.41831" lon="6.63917">
        <ele>191.7</ele>
        <time>2025-01-19T09:44:57Z</time>
      </trkpt>
      <trkpt lat="43.41832" lon="6.63919">
        <ele>191.7</ele>
        <time>2025-01-19T09:44:58Z</time>
      </trkpt>
      <trkpt lat="43.41832" lon="6.63919">
        <ele>191.7</ele>
        <time>2025-01-19T09:44:59Z</time>
      </trkpt>
      <trkpt lat="43.41832" lon="6.63918">
        <ele>191.7</ele>
        <time>2025-01-19T09:45:00Z</time>
      </trkpt>
      <trkpt lat="43.41832" lon="6.63918">
        <ele>191.6</ele>
        <time>2025-01-19T09:45:01Z</time>
      </trkpt>
      <trkpt lat="43.41832" lon="6.63917">
        <ele>191.5</ele>
        <time>2025-01-19T09:45:02Z</time>
      </trkpt>
      <trkpt lat="43.41831" lon="6.63916">
        <ele>191.5</ele>
        <time>2025-01-19T09:45:03Z</time>
      </trkpt>
      <trkpt lat="43.41831" lon="6.63915">
        <ele>191.4</ele>
        <time>2025-01-19T09:45:04Z</time>
      </trkpt>
      <trkpt lat="43.41831" lon="6.63914">
        <ele>191.5</ele>
        <time>2025-01-19T09:45:05Z</time>
      </trkpt>
      <trkpt lat="43.41831" lon="6.63913">
        <ele>191.6</ele>
        <time>2025-01-19T09:45:06Z</time>
      </trkpt>
      <trkpt lat="43.41831" lon="6.63912">
        <ele>191.6</ele>
        <time>2025-01-19T09:45:07Z</time>
      </trkpt>
      <trkpt lat="43.4183" lon="6.63911">
        <ele>191.6</ele>
        <time>2025-01-19T09:45:08Z</time>
      </trkpt>
      <trkpt lat="43.4183" lon="6.63909">
        <ele>191.6</ele>
        <time>2025-01-19T09:45:09Z</time>
      </trkpt>
      <trkpt lat="43.41829" lon="6.63907">
        <ele>191.6</ele>
        <time>2025-01-19T09:45:10Z</time>
      </trkpt>
      <trkpt lat="43.41829" lon="6.63906">
        <ele>191.6</ele>
        <time>2025-01-19T09:45:11Z</time>
      </trkpt>
      <trkpt lat="43.41828" lon="6.63905">
        <ele>191.4</ele>
        <time>2025-01-19T09:45:12Z</time>
      </trkpt>
      <trkpt lat="43.41828" lon="6.63903">
        <ele>191.4</ele>
        <time>2025-01-19T09:45:13Z</time>
      </trkpt>
      <trkpt lat="43.41828" lon="6.63903">
        <ele>191.4</ele>
        <time>2025-01-19T09:45:14Z</time>
      </trkpt>
      <trkpt lat="43.41828" lon="6.63902">
        <ele>191.4</ele>
        <time>2025-01-19T09:45:15Z</time>
      </trkpt>
      <trkpt lat="43.41828" lon="6.63902">
        <ele>191.5</ele>
        <time>2025-01-19T09:45:16Z</time>
      </trkpt>
      <trkpt lat="43.41828" lon="6.63902">
        <ele>191.6</ele>
        <time>2025-01-19T09:45:17Z</time>
      </trkpt>
      <trkpt lat="43.41828" lon="6.63902">
        <ele>191.7</ele>
        <time>2025-01-19T09:45:18Z</time>
      </trkpt>
      <trkpt lat="43.41827" lon="6.63902">
        <ele>191.7</ele>
        <time>2025-01-19T09:45:19Z</time>
      </trkpt>
      <trkpt lat="43.41827" lon="6.63902">
        <ele>191.7</ele>
        <time>2025-01-19T09:45:20Z</time>
      </trkpt>
      <trkpt lat="43.41827" lon="6.63902">
        <ele>191.9</ele>
        <time>2025-01-19T09:45:21Z</time>
      </trkpt>
      <trkpt lat="43.41827" lon="6.63902">
        <ele>191.5</ele>
        <time>2025-01-19T09:45:22Z</time>
      </trkpt>
      <trkpt lat="43.41828" lon="6.63902">
        <ele>191.5</ele>
        <time>2025-01-19T09:45:23Z</time>
      </trkpt>
      <trkpt lat="43.41828" lon="6.63901">
        <ele>191.6</ele>
        <time>2025-01-19T09:45:24Z</time>
      </trkpt>
      <trkpt lat="43.41828" lon="6.63901">
        <ele>191.6</ele>
        <time>2025-01-19T09:45:25Z</time>
      </trkpt>
      <trkpt lat="43.41828" lon="6.639">
        <ele>191.6</ele>
        <time>2025-01-19T09:45:26Z</time>
      </trkpt>
      <trkpt lat="43.41828" lon="6.63899">
        <ele>191.7</ele>
        <time>2025-01-19T09:45:27Z</time>
      </trkpt>
      <trkpt lat="43.41827" lon="6.63898">
        <ele>191.8</ele>
        <time>2025-01-19T09:45:28Z</time>
      </trkpt>
      <trkpt lat="43.41828" lon="6.63897">
        <ele>191.9</ele>
        <time>2025-01-19T09:45:29Z</time>
      </trkpt>
      <trkpt lat="43.41827" lon="6.63896">
        <ele>191.9</ele>
        <time>2025-01-19T09:45:30Z</time>
      </trkpt>
      <trkpt lat="43.41827" lon="6.63895">
        <ele>192</ele>
        <time>2025-01-19T09:45:31Z</time>
      </trkpt>
      <trkpt lat="43.41826" lon="6.63895">
        <ele>192.1</ele>
        <time>2025-01-19T09:45:32Z</time>
      </trkpt>
      <trkpt lat="43.41825" lon="6.63894">
        <ele>192.1</ele>
        <time>2025-01-19T09:45:33Z</time>
      </trkpt>
      <trkpt lat="43.41825" lon="6.63894">
        <ele>192.1</ele>
        <time>2025-01-19T09:45:34Z</time>
      </trkpt>
      <trkpt lat="43.41824" lon="6.63893">
        <ele>192.2</ele>
        <time>2025-01-19T09:45:35Z</time>
      </trkpt>
      <trkpt lat="43.41823" lon="6.63893">
        <ele>192.2</ele>
        <time>2025-01-19T09:45:36Z</time>
      </trkpt>
      <trkpt lat="43.41822" lon="6.63893">
        <ele>192.2</ele>
        <time>2025-01-19T09:45:37Z</time>
      </trkpt>
      <trkpt lat="43.41821" lon="6.63892">
        <ele>192.1</ele>
        <time>2025-01-19T09:45:38Z</time>
      </trkpt>
      <trkpt lat="43.4182" lon="6.63891">
        <ele>192.1</ele>
        <time>2025-01-19T09:45:39Z</time>
      </trkpt>
      <trkpt lat="43.41819" lon="6.6389">
        <ele>192.1</ele>
        <time>2025-01-19T09:45:40Z</time>
      </trkpt>
      <trkpt lat="43.41819" lon="6.6389">
        <ele>192.2</ele>
        <time>2025-01-19T09:45:41Z</time>
      </trkpt>
      <trkpt lat="43.41819" lon="6.63889">
        <ele>192.2</ele>
        <time>2025-01-19T09:45:42Z</time>
      </trkpt>
      <trkpt lat="43.4182" lon="6.63889">
        <ele>192.1</ele>
        <time>2025-01-19T09:45:43Z</time>
      </trkpt>
      <trkpt lat="43.41821" lon="6.63889">
        <ele>192.1</ele>
        <time>2025-01-19T09:45:44Z</time>
      </trkpt>
      <trkpt lat="43.4182" lon="6.63889">
        <ele>192.1</ele>
        <time>2025-01-19T09:45:45Z</time>
      </trkpt>
      <trkpt lat="43.4182" lon="6.63888">
        <ele>192.1</ele>
        <time>2025-01-19T09:45:46Z</time>
      </trkpt>
      <trkpt lat="43.4182" lon="6.63889">
        <ele>192.2</ele>
        <time>2025-01-19T09:45:47Z</time>
      </trkpt>
      <trkpt lat="43.4182" lon="6.63889">
        <ele>192.2</ele>
        <time>2025-01-19T09:45:48Z</time>
      </trkpt>
      <trkpt lat="43.4182" lon="6.63888">
        <ele>192.2</ele>
        <time>2025-01-19T09:45:49Z</time>
      </trkpt>
      <trkpt lat="43.4182" lon="6.63888">
        <ele>192.1</ele>
        <time>2025-01-19T09:45:50Z</time>
      </trkpt>
      <trkpt lat="43.4182" lon="6.63888">
        <ele>192.1</ele>
        <time>2025-01-19T09:45:51Z</time>
      </trkpt>
      <trkpt lat="43.4182" lon="6.63889">
        <ele>192.1</ele>
        <time>2025-01-19T09:45:52Z</time>
      </trkpt>
      <trkpt lat="43.4182" lon="6.63888">
        <ele>192.2</ele>
        <time>2025-01-19T09:45:53Z</time>
      </trkpt>
      <trkpt lat="43.4182" lon="6.63889">
        <ele>192.1</ele>
        <time>2025-01-19T09:45:54Z</time>
      </trkpt>
      <trkpt lat="43.41819" lon="6.63889">
        <ele>192.1</ele>
        <time>2025-01-19T09:45:55Z</time>
      </trkpt>
      <trkpt lat="43.41819" lon="6.6389">
        <ele>192.1</ele>
        <time>2025-01-19T09:45:56Z</time>
      </trkpt>
      <trkpt lat="43.41819" lon="6.6389">
        <ele>192.1</ele>
        <time>2025-01-19T09:45:57Z</time>
      </trkpt>
      <trkpt lat="43.41819" lon="6.6389">
        <ele>192.1</ele>
        <time>2025-01-19T09:45:58Z</time>
      </trkpt>
      <trkpt lat="43.41819" lon="6.6389">
        <ele>192.1</ele>
        <time>2025-01-19T09:45:59Z</time>
      </trkpt>
      <trkpt lat="43.41819" lon="6.6389">
        <ele>192.2</ele>
        <time>2025-01-19T09:46:00Z</time>
      </trkpt>
      <trkpt lat="43.41818" lon="6.63891">
        <ele>192.2</ele>
        <time>2025-01-19T09:46:01Z</time>
      </trkpt>
      <trkpt lat="43.41818" lon="6.63891">
        <ele>192.2</ele>
        <time>2025-01-19T09:46:02Z</time>
      </trkpt>
      <trkpt lat="43.41818" lon="6.63891">
        <ele>192.2</ele>
        <time>2025-01-19T09:46:03Z</time>
      </trkpt>
      <trkpt lat="43.41818" lon="6.63891">
        <ele>192.3</ele>
        <time>2025-01-19T09:46:04Z</time>
      </trkpt>
      <trkpt lat="43.41817" lon="6.63892">
        <ele>192.2</ele>
        <time>2025-01-19T09:46:05Z</time>
      </trkpt>
      <trkpt lat="43.41817" lon="6.63892">
        <ele>192.2</ele>
        <time>2025-01-19T09:46:06Z</time>
      </trkpt>
      <trkpt lat="43.41817" lon="6.63892">
        <ele>192.2</ele>
        <time>2025-01-19T09:46:07Z</time>
      </trkpt>
      <trkpt lat="43.41817" lon="6.63893">
        <ele>192.2</ele>
        <time>2025-01-19T09:46:08Z</time>
      </trkpt>
      <trkpt lat="43.41818" lon="6.63891">
        <ele>192.3</ele>
        <time>2025-01-19T09:46:09Z</time>
      </trkpt>
      <trkpt lat="43.41818" lon="6.63891">
        <ele>192.4</ele>
        <time>2025-01-19T09:46:10Z</time>
      </trkpt>
      <trkpt lat="43.41818" lon="6.63889">
        <ele>192.4</ele>
        <time>2025-01-19T09:46:11Z</time>
      </trkpt>
      <trkpt lat="43.41819" lon="6.63888">
        <ele>192.5</ele>
        <time>2025-01-19T09:46:12Z</time>
      </trkpt>
      <trkpt lat="43.41818" lon="6.63887">
        <ele>192.6</ele>
        <time>2025-01-19T09:46:13Z</time>
      </trkpt>
      <trkpt lat="43.41818" lon="6.63886">
        <ele>192.6</ele>
        <time>2025-01-19T09:46:14Z</time>
      </trkpt>
      <trkpt lat="43.41819" lon="6.63885">
        <ele>192.7</ele>
        <time>2025-01-19T09:46:15Z</time>
      </trkpt>
      <trkpt lat="43.41819" lon="6.63883">
        <ele>192.8</ele>
        <time>2025-01-19T09:46:16Z</time>
      </trkpt>
      <trkpt lat="43.41819" lon="6.63882">
        <ele>192.8</ele>
        <time>2025-01-19T09:46:17Z</time>
      </trkpt>
      <trkpt lat="43.4182" lon="6.63881">
        <ele>192.9</ele>
        <time>2025-01-19T09:46:18Z</time>
      </trkpt>
      <trkpt lat="43.4182" lon="6.63879">
        <ele>192.9</ele>
        <time>2025-01-19T09:46:19Z</time>
      </trkpt>
      <trkpt lat="43.4182" lon="6.63878">
        <ele>192.9</ele>
        <time>2025-01-19T09:46:20Z</time>
      </trkpt>
      <trkpt lat="43.41821" lon="6.63876">
        <ele>193</ele>
        <time>2025-01-19T09:46:21Z</time>
      </trkpt>
      <trkpt lat="43.41821" lon="6.63874">
        <ele>193.1</ele>
        <time>2025-01-19T09:46:22Z</time>
      </trkpt>
      <trkpt lat="43.41822" lon="6.63872">
        <ele>193.1</ele>
        <time>2025-01-19T09:46:23Z</time>
      </trkpt>
      <trkpt lat="43.41822" lon="6.6387">
        <ele>193.2</ele>
        <time>2025-01-19T09:46:24Z</time>
      </trkpt>
      <trkpt lat="43.41822" lon="6.63869">
        <ele>193.4</ele>
        <time>2025-01-19T09:46:25Z</time>
      </trkpt>
      <trkpt lat="43.41822" lon="6.63867">
        <ele>193.5</ele>
        <time>2025-01-19T09:46:26Z</time>
      </trkpt>
      <trkpt lat="43.41821" lon="6.63866">
        <ele>193.5</ele>
        <time>2025-01-19T09:46:27Z</time>
      </trkpt>
      <trkpt lat="43.4182" lon="6.63864">
        <ele>193.6</ele>
        <time>2025-01-19T09:46:28Z</time>
      </trkpt>
      <trkpt lat="43.4182" lon="6.63863">
        <ele>193.6</ele>
        <time>2025-01-19T09:46:29Z</time>
      </trkpt>
      <trkpt lat="43.4182" lon="6.63862">
        <ele>193.7</ele>
        <time>2025-01-19T09:46:30Z</time>
      </trkpt>
      <trkpt lat="43.41819" lon="6.6386">
        <ele>193.7</ele>
        <time>2025-01-19T09:46:31Z</time>
      </trkpt>
      <trkpt lat="43.41819" lon="6.63858">
        <ele>193.8</ele>
        <time>2025-01-19T09:46:32Z</time>
      </trkpt>
      <trkpt lat="43.41818" lon="6.63857">
        <ele>193.9</ele>
        <time>2025-01-19T09:46:33Z</time>
      </trkpt>
      <trkpt lat="43.41817" lon="6.63856">
        <ele>194</ele>
        <time>2025-01-19T09:46:34Z</time>
      </trkpt>
      <trkpt lat="43.41816" lon="6.63854">
        <ele>194.1</ele>
        <time>2025-01-19T09:46:35Z</time>
      </trkpt>
      <trkpt lat="43.41815" lon="6.63853">
        <ele>194.2</ele>
        <time>2025-01-19T09:46:36Z</time>
      </trkpt>
      <trkpt lat="43.41815" lon="6.63851">
        <ele>194.3</ele>
        <time>2025-01-19T09:46:37Z</time>
      </trkpt>
      <trkpt lat="43.41814" lon="6.6385">
        <ele>194.3</ele>
        <time>2025-01-19T09:46:38Z</time>
      </trkpt>
      <trkpt lat="43.41813" lon="6.63849">
        <ele>194.4</ele>
        <time>2025-01-19T09:46:39Z</time>
      </trkpt>
      <trkpt lat="43.41813" lon="6.63848">
        <ele>194.5</ele>
        <time>2025-01-19T09:46:40Z</time>
      </trkpt>
      <trkpt lat="43.41813" lon="6.63847">
        <ele>194.5</ele>
        <time>2025-01-19T09:46:41Z</time>
      </trkpt>
      <trkpt lat="43.41813" lon="6.63845">
        <ele>194.6</ele>
        <time>2025-01-19T09:46:42Z</time>
      </trkpt>
      <trkpt lat="43.41812" lon="6.63844">
        <ele>194.7</ele>
        <time>2025-01-19T09:46:43Z</time>
      </trkpt>
      <trkpt lat="43.41812" lon="6.63843">
        <ele>194.7</ele>
        <time>2025-01-19T09:46:44Z</time>
      </trkpt>
      <trkpt lat="43.41811" lon="6.63842">
        <ele>194.9</ele>
        <time>2025-01-19T09:46:45Z</time>
      </trkpt>
      <trkpt lat="43.41811" lon="6.6384">
        <ele>195</ele>
        <time>2025-01-19T09:46:46Z</time>
      </trkpt>
      <trkpt lat="43.4181" lon="6.63838">
        <ele>195.1</ele>
        <time>2025-01-19T09:46:47Z</time>
      </trkpt>
      <trkpt lat="43.4181" lon="6.63837">
        <ele>195.2</ele>
        <time>2025-01-19T09:46:48Z</time>
      </trkpt>
      <trkpt lat="43.41808" lon="6.63837">
        <ele>195.2</ele>
        <time>2025-01-19T09:46:49Z</time>
      </trkpt>
      <trkpt lat="43.41807" lon="6.63836">
        <ele>195.3</ele>
        <time>2025-01-19T09:46:50Z</time>
      </trkpt>
      <trkpt lat="43.41806" lon="6.63833">
        <ele>195.4</ele>
        <time>2025-01-19T09:46:51Z</time>
      </trkpt>
      <trkpt lat="43.41805" lon="6.63832">
        <ele>195.6</ele>
        <time>2025-01-19T09:46:52Z</time>
      </trkpt>
      <trkpt lat="43.41804" lon="6.63831">
        <ele>195.6</ele>
        <time>2025-01-19T09:46:53Z</time>
      </trkpt>
      <trkpt lat="43.41802" lon="6.6383">
        <ele>195.8</ele>
        <time>2025-01-19T09:46:54Z</time>
      </trkpt>
      <trkpt lat="43.41801" lon="6.63829">
        <ele>195.8</ele>
        <time>2025-01-19T09:46:55Z</time>
      </trkpt>
      <trkpt lat="43.41799" lon="6.63827">
        <ele>195.9</ele>
        <time>2025-01-19T09:46:56Z</time>
      </trkpt>
      <trkpt lat="43.41798" lon="6.63827">
        <ele>196</ele>
        <time>2025-01-19T09:46:57Z</time>
      </trkpt>
      <trkpt lat="43.41797" lon="6.63827">
        <ele>196.1</ele>
        <time>2025-01-19T09:46:58Z</time>
      </trkpt>
      <trkpt lat="43.41795" lon="6.63826">
        <ele>196.2</ele>
        <time>2025-01-19T09:46:59Z</time>
      </trkpt>
      <trkpt lat="43.41794" lon="6.63826">
        <ele>196.3</ele>
        <time>2025-01-19T09:47:00Z</time>
      </trkpt>
      <trkpt lat="43.41792" lon="6.63826">
        <ele>196.4</ele>
        <time>2025-01-19T09:47:01Z</time>
      </trkpt>
      <trkpt lat="43.41791" lon="6.63826">
        <ele>196.4</ele>
        <time>2025-01-19T09:47:02Z</time>
      </trkpt>
      <trkpt lat="43.41789" lon="6.63827">
        <ele>196.5</ele>
        <time>2025-01-19T09:47:03Z</time>
      </trkpt>
      <trkpt lat="43.41787" lon="6.63826">
        <ele>196.7</ele>
        <time>2025-01-19T09:47:04Z</time>
      </trkpt>
      <trkpt lat="43.41786" lon="6.63827">
        <ele>196.6</ele>
        <time>2025-01-19T09:47:05Z</time>
      </trkpt>
      <trkpt lat="43.41785" lon="6.63827">
        <ele>196.7</ele>
        <time>2025-01-19T09:47:06Z</time>
      </trkpt>
      <trkpt lat="43.41783" lon="6.63826">
        <ele>196.7</ele>
        <time>2025-01-19T09:47:07Z</time>
      </trkpt>
      <trkpt lat="43.41781" lon="6.63826">
        <ele>196.7</ele>
        <time>2025-01-19T09:47:08Z</time>
      </trkpt>
      <trkpt lat="43.4178" lon="6.63826">
        <ele>196.8</ele>
        <time>2025-01-19T09:47:09Z</time>
      </trkpt>
      <trkpt lat="43.41779" lon="6.63826">
        <ele>196.8</ele>
        <time>2025-01-19T09:47:10Z</time>
      </trkpt>
      <trkpt lat="43.41777" lon="6.63827">
        <ele>196.7</ele>
        <time>2025-01-19T09:47:11Z</time>
      </trkpt>
      <trkpt lat="43.41776" lon="6.63827">
        <ele>196.8</ele>
        <time>2025-01-19T09:47:12Z</time>
      </trkpt>
      <trkpt lat="43.41775" lon="6.63827">
        <ele>196.8</ele>
        <time>2025-01-19T09:47:13Z</time>
      </trkpt>
      <trkpt lat="43.41773" lon="6.63827">
        <ele>196.8</ele>
        <time>2025-01-19T09:47:14Z</time>
      </trkpt>
      <trkpt lat="43.41773" lon="6.63827">
        <ele>196.9</ele>
        <time>2025-01-19T09:47:15Z</time>
      </trkpt>
      <trkpt lat="43.41772" lon="6.63826">
        <ele>196.9</ele>
        <time>2025-01-19T09:47:16Z</time>
      </trkpt>
      <trkpt lat="43.41772" lon="6.63825">
        <ele>196.9</ele>
        <time>2025-01-19T09:47:17Z</time>
      </trkpt>
      <trkpt lat="43.41771" lon="6.63825">
        <ele>196.9</ele>
        <time>2025-01-19T09:47:18Z</time>
      </trkpt>
      <trkpt lat="43.4177" lon="6.63825">
        <ele>197</ele>
        <time>2025-01-19T09:47:19Z</time>
      </trkpt>
      <trkpt lat="43.4177" lon="6.63825">
        <ele>197</ele>
        <time>2025-01-19T09:47:20Z</time>
      </trkpt>
      <trkpt lat="43.41769" lon="6.63824">
        <ele>197.1</ele>
        <time>2025-01-19T09:47:21Z</time>
      </trkpt>
      <trkpt lat="43.41768" lon="6.63824">
        <ele>197.2</ele>
        <time>2025-01-19T09:47:22Z</time>
      </trkpt>
      <trkpt lat="43.41768" lon="6.63823">
        <ele>197.3</ele>
        <time>2025-01-19T09:47:23Z</time>
      </trkpt>
      <trkpt lat="43.41768" lon="6.63824">
        <ele>197.3</ele>
        <time>2025-01-19T09:47:24Z</time>
      </trkpt>
      <trkpt lat="43.41768" lon="6.63824">
        <ele>197.3</ele>
        <time>2025-01-19T09:47:25Z</time>
      </trkpt>
      <trkpt lat="43.41768" lon="6.63825">
        <ele>197.2</ele>
        <time>2025-01-19T09:47:26Z</time>
      </trkpt>
      <trkpt lat="43.41768" lon="6.63825">
        <ele>197.1</ele>
        <time>2025-01-19T09:47:27Z</time>
      </trkpt>
      <trkpt lat="43.41768" lon="6.63825">
        <ele>197.1</ele>
        <time>2025-01-19T09:47:28Z</time>
      </trkpt>
      <trkpt lat="43.41767" lon="6.63825">
        <ele>197.1</ele>
        <time>2025-01-19T09:47:29Z</time>
      </trkpt>
      <trkpt lat="43.41766" lon="6.63825">
        <ele>197.1</ele>
        <time>2025-01-19T09:47:30Z</time>
      </trkpt>
      <trkpt lat="43.41766" lon="6.63824">
        <ele>197.1</ele>
        <time>2025-01-19T09:47:31Z</time>
      </trkpt>
      <trkpt lat="43.41765" lon="6.63824">
        <ele>197.1</ele>
        <time>2025-01-19T09:47:32Z</time>
      </trkpt>
      <trkpt lat="43.41764" lon="6.63824">
        <ele>197.3</ele>
        <time>2025-01-19T09:47:33Z</time>
      </trkpt>
      <trkpt lat="43.41763" lon="6.63824">
        <ele>197.2</ele>
        <time>2025-01-19T09:47:34Z</time>
      </trkpt>
      <trkpt lat="43.41762" lon="6.63824">
        <ele>197.2</ele>
        <time>2025-01-19T09:47:35Z</time>
      </trkpt>
      <trkpt lat="43.41761" lon="6.63824">
        <ele>197.3</ele>
        <time>2025-01-19T09:47:36Z</time>
      </trkpt>
      <trkpt lat="43.41761" lon="6.63823">
        <ele>197.3</ele>
        <time>2025-01-19T09:47:37Z</time>
      </trkpt>
      <trkpt lat="43.41761" lon="6.63823">
        <ele>197.4</ele>
        <time>2025-01-19T09:47:38Z</time>
      </trkpt>
      <trkpt lat="43.4176" lon="6.63823">
        <ele>197.4</ele>
        <time>2025-01-19T09:47:39Z</time>
      </trkpt>
      <trkpt lat="43.4176" lon="6.63822">
        <ele>197.4</ele>
        <time>2025-01-19T09:47:40Z</time>
      </trkpt>
      <trkpt lat="43.4176" lon="6.63822">
        <ele>197.4</ele>
        <time>2025-01-19T09:47:41Z</time>
      </trkpt>
      <trkpt lat="43.4176" lon="6.63822">
        <ele>197.4</ele>
        <time>2025-01-19T09:47:42Z</time>
      </trkpt>
      <trkpt lat="43.4176" lon="6.63822">
        <ele>197.4</ele>
        <time>2025-01-19T09:47:43Z</time>
      </trkpt>
      <trkpt lat="43.4176" lon="6.63822">
        <ele>197.4</ele>
        <time>2025-01-19T09:47:44Z</time>
      </trkpt>
      <trkpt lat="43.4176" lon="6.63823">
        <ele>197.5</ele>
        <time>2025-01-19T09:47:45Z</time>
      </trkpt>
      <trkpt lat="43.4176" lon="6.63824">
        <ele>197.5</ele>
        <time>2025-01-19T09:47:46Z</time>
      </trkpt>
      <trkpt lat="43.4176" lon="6.63824">
        <ele>197.5</ele>
        <time>2025-01-19T09:47:47Z</time>
      </trkpt>
      <trkpt lat="43.4176" lon="6.63825">
        <ele>197.5</ele>
        <time>2025-01-19T09:47:48Z</time>
      </trkpt>
      <trkpt lat="43.4176" lon="6.63822">
        <ele>197.5</ele>
        <time>2025-01-19T09:47:49Z</time>
      </trkpt>
      <trkpt lat="43.4176" lon="6.63821">
        <ele>197.5</ele>
        <time>2025-01-19T09:47:50Z</time>
      </trkpt>
      <trkpt lat="43.4176" lon="6.6382">
        <ele>197.6</ele>
        <time>2025-01-19T09:47:51Z</time>
      </trkpt>
      <trkpt lat="43.4176" lon="6.6382">
        <ele>197.6</ele>
        <time>2025-01-19T09:47:52Z</time>
      </trkpt>
      <trkpt lat="43.41759" lon="6.63819">
        <ele>197.6</ele>
        <time>2025-01-19T09:47:53Z</time>
      </trkpt>
      <trkpt lat="43.41759" lon="6.63817">
        <ele>197.7</ele>
        <time>2025-01-19T09:47:54Z</time>
      </trkpt>
      <trkpt lat="43.41759" lon="6.63817">
        <ele>197.6</ele>
        <time>2025-01-19T09:47:55Z</time>
      </trkpt>
      <trkpt lat="43.41759" lon="6.63817">
        <ele>197.6</ele>
        <time>2025-01-19T09:47:56Z</time>
      </trkpt>
      <trkpt lat="43.41759" lon="6.63816">
        <ele>197.6</ele>
        <time>2025-01-19T09:47:57Z</time>
      </trkpt>
      <trkpt lat="43.41758" lon="6.63816">
        <ele>197.6</ele>
        <time>2025-01-19T09:47:58Z</time>
      </trkpt>
      <trkpt lat="43.41758" lon="6.63816">
        <ele>197.6</ele>
        <time>2025-01-19T09:47:59Z</time>
      </trkpt>
      <trkpt lat="43.41759" lon="6.63816">
        <ele>197.7</ele>
        <time>2025-01-19T09:48:00Z</time>
      </trkpt>
      <trkpt lat="43.41758" lon="6.63817">
        <ele>197.7</ele>
        <time>2025-01-19T09:48:01Z</time>
      </trkpt>
      <trkpt lat="43.41758" lon="6.63817">
        <ele>197.7</ele>
        <time>2025-01-19T09:48:02Z</time>
      </trkpt>
      <trkpt lat="43.41758" lon="6.63817">
        <ele>197.7</ele>
        <time>2025-01-19T09:48:03Z</time>
      </trkpt>
      <trkpt lat="43.41758" lon="6.63817">
        <ele>197.7</ele>
        <time>2025-01-19T09:48:04Z</time>
      </trkpt>
      <trkpt lat="43.41758" lon="6.63817">
        <ele>197.7</ele>
        <time>2025-01-19T09:48:05Z</time>
      </trkpt>
      <trkpt lat="43.41759" lon="6.63816">
        <ele>197.7</ele>
        <time>2025-01-19T09:48:06Z</time>
      </trkpt>
      <trkpt lat="43.41757" lon="6.63817">
        <ele>197.7</ele>
        <time>2025-01-19T09:48:07Z</time>
      </trkpt>
      <trkpt lat="43.41756" lon="6.63817">
        <ele>197.7</ele>
        <time>2025-01-19T09:48:08Z</time>
      </trkpt>
      <trkpt lat="43.41755" lon="6.63817">
        <ele>197.8</ele>
        <time>2025-01-19T09:48:09Z</time>
      </trkpt>
      <trkpt lat="43.41754" lon="6.63816">
        <ele>197.7</ele>
        <time>2025-01-19T09:48:10Z</time>
      </trkpt>
      <trkpt lat="43.41753" lon="6.63816">
        <ele>197.8</ele>
        <time>2025-01-19T09:48:11Z</time>
      </trkpt>
      <trkpt lat="43.41752" lon="6.63816">
        <ele>197.9</ele>
        <time>2025-01-19T09:48:12Z</time>
      </trkpt>
      <trkpt lat="43.41751" lon="6.63817">
        <ele>197.9</ele>
        <time>2025-01-19T09:48:13Z</time>
      </trkpt>
      <trkpt lat="43.41749" lon="6.63817">
        <ele>197.9</ele>
        <time>2025-01-19T09:48:14Z</time>
      </trkpt>
      <trkpt lat="43.41749" lon="6.63816">
        <ele>197.9</ele>
        <time>2025-01-19T09:48:15Z</time>
      </trkpt>
      <trkpt lat="43.41748" lon="6.63815">
        <ele>198.1</ele>
        <time>2025-01-19T09:48:16Z</time>
      </trkpt>
      <trkpt lat="43.41747" lon="6.63815">
        <ele>198.1</ele>
        <time>2025-01-19T09:48:17Z</time>
      </trkpt>
      <trkpt lat="43.41746" lon="6.63815">
        <ele>198.1</ele>
        <time>2025-01-19T09:48:18Z</time>
      </trkpt>
      <trkpt lat="43.41745" lon="6.63816">
        <ele>198.1</ele>
        <time>2025-01-19T09:48:19Z</time>
      </trkpt>
      <trkpt lat="43.41745" lon="6.63816">
        <ele>198.1</ele>
        <time>2025-01-19T09:48:20Z</time>
      </trkpt>
      <trkpt lat="43.41745" lon="6.63816">
        <ele>198.2</ele>
        <time>2025-01-19T09:48:21Z</time>
      </trkpt>
      <trkpt lat="43.41744" lon="6.63816">
        <ele>198.2</ele>
        <time>2025-01-19T09:48:22Z</time>
      </trkpt>
      <trkpt lat="43.41743" lon="6.63816">
        <ele>198.3</ele>
        <time>2025-01-19T09:48:23Z</time>
      </trkpt>
      <trkpt lat="43.41743" lon="6.63816">
        <ele>198.4</ele>
        <time>2025-01-19T09:48:24Z</time>
      </trkpt>
      <trkpt lat="43.41742" lon="6.63816">
        <ele>198.5</ele>
        <time>2025-01-19T09:48:25Z</time>
      </trkpt>
      <trkpt lat="43.41742" lon="6.63816">
        <ele>198.6</ele>
        <time>2025-01-19T09:48:26Z</time>
      </trkpt>
      <trkpt lat="43.41741" lon="6.63815">
        <ele>198.7</ele>
        <time>2025-01-19T09:48:27Z</time>
      </trkpt>
      <trkpt lat="43.4174" lon="6.63814">
        <ele>198.8</ele>
        <time>2025-01-19T09:48:28Z</time>
      </trkpt>
      <trkpt lat="43.4174" lon="6.63813">
        <ele>198.9</ele>
        <time>2025-01-19T09:48:29Z</time>
      </trkpt>
      <trkpt lat="43.41739" lon="6.63812">
        <ele>198.9</ele>
        <time>2025-01-19T09:48:30Z</time>
      </trkpt>
      <trkpt lat="43.41739" lon="6.63812">
        <ele>199</ele>
        <time>2025-01-19T09:48:31Z</time>
      </trkpt>
      <trkpt lat="43.41738" lon="6.63811">
        <ele>199</ele>
        <time>2025-01-19T09:48:32Z</time>
      </trkpt>
      <trkpt lat="43.41738" lon="6.63812">
        <ele>199.1</ele>
        <time>2025-01-19T09:48:33Z</time>
      </trkpt>
      <trkpt lat="43.41738" lon="6.63813">
        <ele>199.1</ele>
        <time>2025-01-19T09:48:34Z</time>
      </trkpt>
      <trkpt lat="43.41737" lon="6.63813">
        <ele>199.2</ele>
        <time>2025-01-19T09:48:35Z</time>
      </trkpt>
      <trkpt lat="43.41737" lon="6.63813">
        <ele>199.2</ele>
        <time>2025-01-19T09:48:36Z</time>
      </trkpt>
      <trkpt lat="43.41737" lon="6.63814">
        <ele>199.2</ele>
        <time>2025-01-19T09:48:37Z</time>
      </trkpt>
      <trkpt lat="43.41737" lon="6.63814">
        <ele>199.2</ele>
        <time>2025-01-19T09:48:38Z</time>
      </trkpt>
      <trkpt lat="43.41737" lon="6.63814">
        <ele>199.2</ele>
        <time>2025-01-19T09:48:39Z</time>
      </trkpt>
      <trkpt lat="43.41737" lon="6.63815">
        <ele>199.1</ele>
        <time>2025-01-19T09:48:40Z</time>
      </trkpt>
      <trkpt lat="43.41737" lon="6.63815">
        <ele>199</ele>
        <time>2025-01-19T09:48:41Z</time>
      </trkpt>
      <trkpt lat="43.41737" lon="6.63815">
        <ele>198.9</ele>
        <time>2025-01-19T09:48:42Z</time>
      </trkpt>
      <trkpt lat="43.41737" lon="6.63815">
        <ele>198.9</ele>
        <time>2025-01-19T09:48:43Z</time>
      </trkpt>
      <trkpt lat="43.41737" lon="6.63815">
        <ele>198.9</ele>
        <time>2025-01-19T09:48:44Z</time>
      </trkpt>
      <trkpt lat="43.41737" lon="6.63815">
        <ele>199</ele>
        <time>2025-01-19T09:48:45Z</time>
      </trkpt>
      <trkpt lat="43.41737" lon="6.63815">
        <ele>199</ele>
        <time>2025-01-19T09:48:46Z</time>
      </trkpt>
      <trkpt lat="43.41736" lon="6.63815">
        <ele>199.1</ele>
        <time>2025-01-19T09:48:47Z</time>
      </trkpt>
      <trkpt lat="43.41736" lon="6.63815">
        <ele>199</ele>
        <time>2025-01-19T09:48:48Z</time>
      </trkpt>
      <trkpt lat="43.41736" lon="6.63815">
        <ele>199.1</ele>
        <time>2025-01-19T09:48:49Z</time>
      </trkpt>
      <trkpt lat="43.41737" lon="6.63815">
        <ele>199.2</ele>
        <time>2025-01-19T09:48:50Z</time>
      </trkpt>
      <trkpt lat="43.41736" lon="6.63815">
        <ele>199.2</ele>
        <time>2025-01-19T09:48:51Z</time>
      </trkpt>
      <trkpt lat="43.41737" lon="6.63814">
        <ele>199.2</ele>
        <time>2025-01-19T09:48:52Z</time>
      </trkpt>
      <trkpt lat="43.41736" lon="6.63814">
        <ele>199.3</ele>
        <time>2025-01-19T09:48:53Z</time>
      </trkpt>
      <trkpt lat="43.41736" lon="6.63814">
        <ele>199.2</ele>
        <time>2025-01-19T09:48:54Z</time>
      </trkpt>
      <trkpt lat="43.41736" lon="6.63814">
        <ele>199.2</ele>
        <time>2025-01-19T09:48:55Z</time>
      </trkpt>
      <trkpt lat="43.41736" lon="6.63814">
        <ele>199.2</ele>
        <time>2025-01-19T09:48:56Z</time>
      </trkpt>
      <trkpt lat="43.41737" lon="6.63814">
        <ele>199.2</ele>
        <time>2025-01-19T09:48:57Z</time>
      </trkpt>
      <trkpt lat="43.41736" lon="6.63814">
        <ele>199.2</ele>
        <time>2025-01-19T09:48:58Z</time>
      </trkpt>
      <trkpt lat="43.41736" lon="6.63814">
        <ele>199.2</ele>
        <time>2025-01-19T09:48:59Z</time>
      </trkpt>
      <trkpt lat="43.41736" lon="6.63814">
        <ele>199.1</ele>
        <time>2025-01-19T09:49:00Z</time>
      </trkpt>
      <trkpt lat="43.41736" lon="6.63814">
        <ele>199.1</ele>
        <time>2025-01-19T09:49:01Z</time>
      </trkpt>
      <trkpt lat="43.41736" lon="6.63814">
        <ele>199.1</ele>
        <time>2025-01-19T09:49:02Z</time>
      </trkpt>
      <trkpt lat="43.41736" lon="6.63814">
        <ele>199</ele>
        <time>2025-01-19T09:49:03Z</time>
      </trkpt>
      <trkpt lat="43.41736" lon="6.63814">
        <ele>199</ele>
        <time>2025-01-19T09:49:04Z</time>
      </trkpt>
      <trkpt lat="43.41735" lon="6.63814">
        <ele>199</ele>
        <time>2025-01-19T09:49:05Z</time>
      </trkpt>
      <trkpt lat="43.41735" lon="6.63814">
        <ele>199</ele>
        <time>2025-01-19T09:49:06Z</time>
      </trkpt>
      <trkpt lat="43.41735" lon="6.63814">
        <ele>199</ele>
        <time>2025-01-19T09:49:07Z</time>
      </trkpt>
      <trkpt lat="43.41735" lon="6.63814">
        <ele>199</ele>
        <time>2025-01-19T09:49:08Z</time>
      </trkpt>
      <trkpt lat="43.41735" lon="6.63814">
        <ele>198.9</ele>
        <time>2025-01-19T09:49:09Z</time>
      </trkpt>
      <trkpt lat="43.41735" lon="6.63814">
        <ele>199</ele>
        <time>2025-01-19T09:49:10Z</time>
      </trkpt>
      <trkpt lat="43.41735" lon="6.63814">
        <ele>199</ele>
        <time>2025-01-19T09:49:11Z</time>
      </trkpt>
      <trkpt lat="43.41735" lon="6.63814">
        <ele>199.1</ele>
        <time>2025-01-19T09:49:12Z</time>
      </trkpt>
      <trkpt lat="43.41735" lon="6.63814">
        <ele>199.1</ele>
        <time>2025-01-19T09:49:13Z</time>
      </trkpt>
      <trkpt lat="43.41735" lon="6.63813">
        <ele>199.1</ele>
        <time>2025-01-19T09:49:14Z</time>
      </trkpt>
      <trkpt lat="43.41735" lon="6.63813">
        <ele>199.1</ele>
        <time>2025-01-19T09:49:15Z</time>
      </trkpt>
      <trkpt lat="43.41735" lon="6.63813">
        <ele>199</ele>
        <time>2025-01-19T09:49:16Z</time>
      </trkpt>
      <trkpt lat="43.41735" lon="6.63813">
        <ele>199</ele>
        <time>2025-01-19T09:49:17Z</time>
      </trkpt>
      <trkpt lat="43.41734" lon="6.63813">
        <ele>199</ele>
        <time>2025-01-19T09:49:18Z</time>
      </trkpt>
      <trkpt lat="43.41734" lon="6.63813">
        <ele>198.9</ele>
        <time>2025-01-19T09:49:19Z</time>
      </trkpt>
      <trkpt lat="43.41734" lon="6.63813">
        <ele>198.9</ele>
        <time>2025-01-19T09:49:20Z</time>
      </trkpt>
      <trkpt lat="43.41734" lon="6.63813">
        <ele>198.9</ele>
        <time>2025-01-19T09:49:21Z</time>
      </trkpt>
      <trkpt lat="43.41734" lon="6.63813">
        <ele>198.9</ele>
        <time>2025-01-19T09:49:22Z</time>
      </trkpt>
      <trkpt lat="43.41734" lon="6.63813">
        <ele>198.9</ele>
        <time>2025-01-19T09:49:23Z</time>
      </trkpt>
      <trkpt lat="43.41735" lon="6.63813">
        <ele>198.9</ele>
        <time>2025-01-19T09:49:24Z</time>
      </trkpt>
      <trkpt lat="43.41734" lon="6.63812">
        <ele>198.8</ele>
        <time>2025-01-19T09:49:25Z</time>
      </trkpt>
      <trkpt lat="43.41734" lon="6.63812">
        <ele>198.8</ele>
        <time>2025-01-19T09:49:26Z</time>
      </trkpt>
      <trkpt lat="43.41734" lon="6.63812">
        <ele>198.7</ele>
        <time>2025-01-19T09:49:27Z</time>
      </trkpt>
      <trkpt lat="43.41734" lon="6.63812">
        <ele>198.7</ele>
        <time>2025-01-19T09:49:28Z</time>
      </trkpt>
      <trkpt lat="43.41733" lon="6.63811">
        <ele>198.7</ele>
        <time>2025-01-19T09:49:29Z</time>
      </trkpt>
      <trkpt lat="43.41733" lon="6.63811">
        <ele>198.8</ele>
        <time>2025-01-19T09:49:30Z</time>
      </trkpt>
      <trkpt lat="43.41732" lon="6.63811">
        <ele>198.8</ele>
        <time>2025-01-19T09:49:31Z</time>
      </trkpt>
      <trkpt lat="43.41731" lon="6.6381">
        <ele>198.8</ele>
        <time>2025-01-19T09:49:32Z</time>
      </trkpt>
      <trkpt lat="43.4173" lon="6.63809">
        <ele>198.9</ele>
        <time>2025-01-19T09:49:33Z</time>
      </trkpt>
      <trkpt lat="43.41729" lon="6.63808">
        <ele>198.9</ele>
        <time>2025-01-19T09:49:34Z</time>
      </trkpt>
      <trkpt lat="43.41728" lon="6.63808">
        <ele>198.9</ele>
        <time>2025-01-19T09:49:35Z</time>
      </trkpt>
      <trkpt lat="43.41727" lon="6.63807">
        <ele>199</ele>
        <time>2025-01-19T09:49:36Z</time>
      </trkpt>
      <trkpt lat="43.41726" lon="6.63807">
        <ele>199</ele>
        <time>2025-01-19T09:49:37Z</time>
      </trkpt>
      <trkpt lat="43.41725" lon="6.63806">
        <ele>199</ele>
        <time>2025-01-19T09:49:38Z</time>
      </trkpt>
      <trkpt lat="43.41724" lon="6.63805">
        <ele>199</ele>
        <time>2025-01-19T09:49:39Z</time>
      </trkpt>
      <trkpt lat="43.41723" lon="6.63804">
        <ele>199</ele>
        <time>2025-01-19T09:49:40Z</time>
      </trkpt>
      <trkpt lat="43.41723" lon="6.63803">
        <ele>199.1</ele>
        <time>2025-01-19T09:49:41Z</time>
      </trkpt>
      <trkpt lat="43.41722" lon="6.63802">
        <ele>199.1</ele>
        <time>2025-01-19T09:49:42Z</time>
      </trkpt>
      <trkpt lat="43.41721" lon="6.63801">
        <ele>199.1</ele>
        <time>2025-01-19T09:49:43Z</time>
      </trkpt>
      <trkpt lat="43.4172" lon="6.638">
        <ele>199.1</ele>
        <time>2025-01-19T09:49:44Z</time>
      </trkpt>
      <trkpt lat="43.41719" lon="6.63799">
        <ele>199.2</ele>
        <time>2025-01-19T09:49:45Z</time>
      </trkpt>
      <trkpt lat="43.41718" lon="6.63798">
        <ele>199.2</ele>
        <time>2025-01-19T09:49:46Z</time>
      </trkpt>
      <trkpt lat="43.41717" lon="6.63797">
        <ele>199.3</ele>
        <time>2025-01-19T09:49:47Z</time>
      </trkpt>
      <trkpt lat="43.41716" lon="6.63796">
        <ele>199.3</ele>
        <time>2025-01-19T09:49:48Z</time>
      </trkpt>
      <trkpt lat="43.41715" lon="6.63795">
        <ele>199.4</ele>
        <time>2025-01-19T09:49:49Z</time>
      </trkpt>
      <trkpt lat="43.41714" lon="6.63795">
        <ele>199.4</ele>
        <time>2025-01-19T09:49:50Z</time>
      </trkpt>
      <trkpt lat="43.41713" lon="6.63794">
        <ele>199.4</ele>
        <time>2025-01-19T09:49:51Z</time>
      </trkpt>
      <trkpt lat="43.41712" lon="6.63793">
        <ele>199.5</ele>
        <time>2025-01-19T09:49:52Z</time>
      </trkpt>
      <trkpt lat="43.41711" lon="6.63792">
        <ele>199.6</ele>
        <time>2025-01-19T09:49:53Z</time>
      </trkpt>
      <trkpt lat="43.4171" lon="6.63792">
        <ele>199.7</ele>
        <time>2025-01-19T09:49:54Z</time>
      </trkpt>
      <trkpt lat="43.41709" lon="6.63791">
        <ele>199.8</ele>
        <time>2025-01-19T09:49:55Z</time>
      </trkpt>
      <trkpt lat="43.41708" lon="6.63791">
        <ele>199.9</ele>
        <time>2025-01-19T09:49:56Z</time>
      </trkpt>
      <trkpt lat="43.41708" lon="6.63791">
        <ele>200</ele>
        <time>2025-01-19T09:49:57Z</time>
      </trkpt>
      <trkpt lat="43.41707" lon="6.6379">
        <ele>200.1</ele>
        <time>2025-01-19T09:49:58Z</time>
      </trkpt>
      <trkpt lat="43.41706" lon="6.63789">
        <ele>200.1</ele>
        <time>2025-01-19T09:49:59Z</time>
      </trkpt>
      <trkpt lat="43.41706" lon="6.63788">
        <ele>200.1</ele>
        <time>2025-01-19T09:50:00Z</time>
      </trkpt>
      <trkpt lat="43.41705" lon="6.63787">
        <ele>200.2</ele>
        <time>2025-01-19T09:50:01Z</time>
      </trkpt>
      <trkpt lat="43.41705" lon="6.63787">
        <ele>200.2</ele>
        <time>2025-01-19T09:50:02Z</time>
      </trkpt>
      <trkpt lat="43.41704" lon="6.63788">
        <ele>200.3</ele>
        <time>2025-01-19T09:50:03Z</time>
      </trkpt>
      <trkpt lat="43.41704" lon="6.63788">
        <ele>200.3</ele>
        <time>2025-01-19T09:50:04Z</time>
      </trkpt>
      <trkpt lat="43.41704" lon="6.63788">
        <ele>200.3</ele>
        <time>2025-01-19T09:50:05Z</time>
      </trkpt>
      <trkpt lat="43.41703" lon="6.63787">
        <ele>200.3</ele>
        <time>2025-01-19T09:50:06Z</time>
      </trkpt>
      <trkpt lat="43.41702" lon="6.63786">
        <ele>200.4</ele>
        <time>2025-01-19T09:50:07Z</time>
      </trkpt>
      <trkpt lat="43.41701" lon="6.63785">
        <ele>200.4</ele>
        <time>2025-01-19T09:50:08Z</time>
      </trkpt>
      <trkpt lat="43.417" lon="6.63784">
        <ele>200.5</ele>
        <time>2025-01-19T09:50:09Z</time>
      </trkpt>
      <trkpt lat="43.41699" lon="6.63783">
        <ele>200.6</ele>
        <time>2025-01-19T09:50:10Z</time>
      </trkpt>
      <trkpt lat="43.41698" lon="6.63783">
        <ele>200.6</ele>
        <time>2025-01-19T09:50:11Z</time>
      </trkpt>
      <trkpt lat="43.41697" lon="6.63782">
        <ele>200.6</ele>
        <time>2025-01-19T09:50:12Z</time>
      </trkpt>
      <trkpt lat="43.41696" lon="6.63781">
        <ele>200.7</ele>
        <time>2025-01-19T09:50:13Z</time>
      </trkpt>
      <trkpt lat="43.41695" lon="6.6378">
        <ele>200.8</ele>
        <time>2025-01-19T09:50:14Z</time>
      </trkpt>
      <trkpt lat="43.41694" lon="6.6378">
        <ele>200.9</ele>
        <time>2025-01-19T09:50:15Z</time>
      </trkpt>
      <trkpt lat="43.41693" lon="6.6378">
        <ele>200.9</ele>
        <time>2025-01-19T09:50:16Z</time>
      </trkpt>
      <trkpt lat="43.41693" lon="6.63778">
        <ele>200.9</ele>
        <time>2025-01-19T09:50:17Z</time>
      </trkpt>
      <trkpt lat="43.41692" lon="6.63777">
        <ele>200.8</ele>
        <time>2025-01-19T09:50:18Z</time>
      </trkpt>
      <trkpt lat="43.41691" lon="6.63777">
        <ele>200.8</ele>
        <time>2025-01-19T09:50:19Z</time>
      </trkpt>
      <trkpt lat="43.4169" lon="6.63776">
        <ele>200.8</ele>
        <time>2025-01-19T09:50:20Z</time>
      </trkpt>
      <trkpt lat="43.41689" lon="6.63776">
        <ele>200.8</ele>
        <time>2025-01-19T09:50:21Z</time>
      </trkpt>
      <trkpt lat="43.41689" lon="6.63775">
        <ele>200.8</ele>
        <time>2025-01-19T09:50:22Z</time>
      </trkpt>
      <trkpt lat="43.41687" lon="6.63774">
        <ele>200.8</ele>
        <time>2025-01-19T09:50:23Z</time>
      </trkpt>
      <trkpt lat="43.41687" lon="6.63773">
        <ele>200.9</ele>
        <time>2025-01-19T09:50:24Z</time>
      </trkpt>
      <trkpt lat="43.41686" lon="6.63772">
        <ele>200.9</ele>
        <time>2025-01-19T09:50:25Z</time>
      </trkpt>
      <trkpt lat="43.41684" lon="6.63772">
        <ele>201</ele>
        <time>2025-01-19T09:50:26Z</time>
      </trkpt>
      <trkpt lat="43.41683" lon="6.63771">
        <ele>201.1</ele>
        <time>2025-01-19T09:50:27Z</time>
      </trkpt>
      <trkpt lat="43.41682" lon="6.63771">
        <ele>201.1</ele>
        <time>2025-01-19T09:50:28Z</time>
      </trkpt>
      <trkpt lat="43.4168" lon="6.63771">
        <ele>201.2</ele>
        <time>2025-01-19T09:50:29Z</time>
      </trkpt>
      <trkpt lat="43.41679" lon="6.6377">
        <ele>201.3</ele>
        <time>2025-01-19T09:50:30Z</time>
      </trkpt>
      <trkpt lat="43.41678" lon="6.6377">
        <ele>201.3</ele>
        <time>2025-01-19T09:50:31Z</time>
      </trkpt>
      <trkpt lat="43.41676" lon="6.63769">
        <ele>201.5</ele>
        <time>2025-01-19T09:50:32Z</time>
      </trkpt>
      <trkpt lat="43.41675" lon="6.63769">
        <ele>201.6</ele>
        <time>2025-01-19T09:50:33Z</time>
      </trkpt>
      <trkpt lat="43.41674" lon="6.63768">
        <ele>201.7</ele>
        <time>2025-01-19T09:50:34Z</time>
      </trkpt>
      <trkpt lat="43.41672" lon="6.63768">
        <ele>201.7</ele>
        <time>2025-01-19T09:50:35Z</time>
      </trkpt>
      <trkpt lat="43.41671" lon="6.63768">
        <ele>201.7</ele>
        <time>2025-01-19T09:50:36Z</time>
      </trkpt>
      <trkpt lat="43.4167" lon="6.63768">
        <ele>201.7</ele>
        <time>2025-01-19T09:50:37Z</time>
      </trkpt>
      <trkpt lat="43.41669" lon="6.63767">
        <ele>201.8</ele>
        <time>2025-01-19T09:50:38Z</time>
      </trkpt>
      <trkpt lat="43.41668" lon="6.63767">
        <ele>201.8</ele>
        <time>2025-01-19T09:50:39Z</time>
      </trkpt>
      <trkpt lat="43.41667" lon="6.63766">
        <ele>201.9</ele>
        <time>2025-01-19T09:50:40Z</time>
      </trkpt>
      <trkpt lat="43.41666" lon="6.63766">
        <ele>202</ele>
        <time>2025-01-19T09:50:41Z</time>
      </trkpt>
      <trkpt lat="43.41665" lon="6.63765">
        <ele>202</ele>
        <time>2025-01-19T09:50:42Z</time>
      </trkpt>
      <trkpt lat="43.41664" lon="6.63765">
        <ele>202.1</ele>
        <time>2025-01-19T09:50:43Z</time>
      </trkpt>
      <trkpt lat="43.41663" lon="6.63764">
        <ele>202.2</ele>
        <time>2025-01-19T09:50:44Z</time>
      </trkpt>
      <trkpt lat="43.41662" lon="6.63764">
        <ele>202.3</ele>
        <time>2025-01-19T09:50:45Z</time>
      </trkpt>
      <trkpt lat="43.41661" lon="6.63764">
        <ele>202.3</ele>
        <time>2025-01-19T09:50:46Z</time>
      </trkpt>
      <trkpt lat="43.4166" lon="6.63764">
        <ele>202.3</ele>
        <time>2025-01-19T09:50:47Z</time>
      </trkpt>
      <trkpt lat="43.41659" lon="6.63764">
        <ele>202.4</ele>
        <time>2025-01-19T09:50:48Z</time>
      </trkpt>
      <trkpt lat="43.41658" lon="6.63763">
        <ele>202.5</ele>
        <time>2025-01-19T09:50:49Z</time>
      </trkpt>
      <trkpt lat="43.41657" lon="6.63763">
        <ele>202.5</ele>
        <time>2025-01-19T09:50:50Z</time>
      </trkpt>
      <trkpt lat="43.41656" lon="6.63763">
        <ele>202.5</ele>
        <time>2025-01-19T09:50:51Z</time>
      </trkpt>
      <trkpt lat="43.41655" lon="6.63763">
        <ele>202.6</ele>
        <time>2025-01-19T09:50:52Z</time>
      </trkpt>
      <trkpt lat="43.41653" lon="6.63763">
        <ele>202.6</ele>
        <time>2025-01-19T09:50:53Z</time>
      </trkpt>
      <trkpt lat="43.41653" lon="6.63763">
        <ele>202.6</ele>
        <time>2025-01-19T09:50:54Z</time>
      </trkpt>
      <trkpt lat="43.41651" lon="6.63762">
        <ele>202.7</ele>
        <time>2025-01-19T09:50:55Z</time>
      </trkpt>
      <trkpt lat="43.41651" lon="6.63762">
        <ele>202.7</ele>
        <time>2025-01-19T09:50:56Z</time>
      </trkpt>
      <trkpt lat="43.4165" lon="6.63761">
        <ele>202.7</ele>
        <time>2025-01-19T09:50:57Z</time>
      </trkpt>
      <trkpt lat="43.41648" lon="6.63761">
        <ele>202.7</ele>
        <time>2025-01-19T09:50:58Z</time>
      </trkpt>
      <trkpt lat="43.41647" lon="6.6376">
        <ele>202.7</ele>
        <time>2025-01-19T09:50:59Z</time>
      </trkpt>
      <trkpt lat="43.41646" lon="6.6376">
        <ele>202.8</ele>
        <time>2025-01-19T09:51:00Z</time>
      </trkpt>
      <trkpt lat="43.41645" lon="6.63759">
        <ele>202.8</ele>
        <time>2025-01-19T09:51:01Z</time>
      </trkpt>
      <trkpt lat="43.41644" lon="6.63759">
        <ele>202.8</ele>
        <time>2025-01-19T09:51:02Z</time>
      </trkpt>
      <trkpt lat="43.41643" lon="6.63758">
        <ele>202.9</ele>
        <time>2025-01-19T09:51:03Z</time>
      </trkpt>
      <trkpt lat="43.41642" lon="6.63757">
        <ele>202.9</ele>
        <time>2025-01-19T09:51:04Z</time>
      </trkpt>
      <trkpt lat="43.41641" lon="6.63757">
        <ele>203</ele>
        <time>2025-01-19T09:51:05Z</time>
      </trkpt>
      <trkpt lat="43.4164" lon="6.63756">
        <ele>203.1</ele>
        <time>2025-01-19T09:51:06Z</time>
      </trkpt>
      <trkpt lat="43.41639" lon="6.63755">
        <ele>203.1</ele>
        <time>2025-01-19T09:51:07Z</time>
      </trkpt>
      <trkpt lat="43.41638" lon="6.63755">
        <ele>203.2</ele>
        <time>2025-01-19T09:51:08Z</time>
      </trkpt>
      <trkpt lat="43.41637" lon="6.63754">
        <ele>203.3</ele>
        <time>2025-01-19T09:51:09Z</time>
      </trkpt>
      <trkpt lat="43.41636" lon="6.63753">
        <ele>203.4</ele>
        <time>2025-01-19T09:51:10Z</time>
      </trkpt>
      <trkpt lat="43.41634" lon="6.63752">
        <ele>203.4</ele>
        <time>2025-01-19T09:51:11Z</time>
      </trkpt>
      <trkpt lat="43.41633" lon="6.63751">
        <ele>203.5</ele>
        <time>2025-01-19T09:51:12Z</time>
      </trkpt>
      <trkpt lat="43.41632" lon="6.6375">
        <ele>203.6</ele>
        <time>2025-01-19T09:51:13Z</time>
      </trkpt>
      <trkpt lat="43.41632" lon="6.63749">
        <ele>203.6</ele>
        <time>2025-01-19T09:51:14Z</time>
      </trkpt>
      <trkpt lat="43.41631" lon="6.63749">
        <ele>203.7</ele>
        <time>2025-01-19T09:51:15Z</time>
      </trkpt>
      <trkpt lat="43.4163" lon="6.63748">
        <ele>203.8</ele>
        <time>2025-01-19T09:51:16Z</time>
      </trkpt>
      <trkpt lat="43.41629" lon="6.63748">
        <ele>203.8</ele>
        <time>2025-01-19T09:51:17Z</time>
      </trkpt>
      <trkpt lat="43.41628" lon="6.63747">
        <ele>203.8</ele>
        <time>2025-01-19T09:51:18Z</time>
      </trkpt>
      <trkpt lat="43.41628" lon="6.63746">
        <ele>203.9</ele>
        <time>2025-01-19T09:51:19Z</time>
      </trkpt>
      <trkpt lat="43.41626" lon="6.63745">
        <ele>204</ele>
        <time>2025-01-19T09:51:20Z</time>
      </trkpt>
      <trkpt lat="43.41626" lon="6.63744">
        <ele>204.1</ele>
        <time>2025-01-19T09:51:21Z</time>
      </trkpt>
      <trkpt lat="43.41625" lon="6.63742">
        <ele>204.1</ele>
        <time>2025-01-19T09:51:22Z</time>
      </trkpt>
      <trkpt lat="43.41624" lon="6.63741">
        <ele>204.2</ele>
        <time>2025-01-19T09:51:23Z</time>
      </trkpt>
      <trkpt lat="43.41623" lon="6.6374">
        <ele>204.3</ele>
        <time>2025-01-19T09:51:24Z</time>
      </trkpt>
      <trkpt lat="43.41622" lon="6.63739">
        <ele>204.4</ele>
        <time>2025-01-19T09:51:25Z</time>
      </trkpt>
      <trkpt lat="43.41621" lon="6.63738">
        <ele>204.5</ele>
        <time>2025-01-19T09:51:26Z</time>
      </trkpt>
      <trkpt lat="43.4162" lon="6.63737">
        <ele>204.6</ele>
        <time>2025-01-19T09:51:27Z</time>
      </trkpt>
      <trkpt lat="43.4162" lon="6.63736">
        <ele>204.7</ele>
        <time>2025-01-19T09:51:28Z</time>
      </trkpt>
      <trkpt lat="43.41619" lon="6.63735">
        <ele>204.8</ele>
        <time>2025-01-19T09:51:29Z</time>
      </trkpt>
      <trkpt lat="43.41618" lon="6.63735">
        <ele>204.9</ele>
        <time>2025-01-19T09:51:30Z</time>
      </trkpt>
      <trkpt lat="43.41616" lon="6.63734">
        <ele>204.9</ele>
        <time>2025-01-19T09:51:31Z</time>
      </trkpt>
      <trkpt lat="43.41615" lon="6.63733">
        <ele>204.9</ele>
        <time>2025-01-19T09:51:32Z</time>
      </trkpt>
      <trkpt lat="43.41615" lon="6.63733">
        <ele>204.9</ele>
        <time>2025-01-19T09:51:33Z</time>
      </trkpt>
      <trkpt lat="43.41614" lon="6.63732">
        <ele>205</ele>
        <time>2025-01-19T09:51:34Z</time>
      </trkpt>
      <trkpt lat="43.41613" lon="6.63732">
        <ele>205.1</ele>
        <time>2025-01-19T09:51:35Z</time>
      </trkpt>
      <trkpt lat="43.41613" lon="6.63732">
        <ele>205.2</ele>
        <time>2025-01-19T09:51:36Z</time>
      </trkpt>
      <trkpt lat="43.41612" lon="6.63733">
        <ele>205.2</ele>
        <time>2025-01-19T09:51:37Z</time>
      </trkpt>
      <trkpt lat="43.41612" lon="6.63733">
        <ele>205.2</ele>
        <time>2025-01-19T09:51:38Z</time>
      </trkpt>
      <trkpt lat="43.41612" lon="6.63733">
        <ele>205.2</ele>
        <time>2025-01-19T09:51:39Z</time>
      </trkpt>
      <trkpt lat="43.41611" lon="6.63733">
        <ele>205.3</ele>
        <time>2025-01-19T09:51:40Z</time>
      </trkpt>
      <trkpt lat="43.41611" lon="6.63733">
        <ele>205.3</ele>
        <time>2025-01-19T09:51:41Z</time>
      </trkpt>
      <trkpt lat="43.41611" lon="6.63733">
        <ele>205.4</ele>
        <time>2025-01-19T09:51:42Z</time>
      </trkpt>
      <trkpt lat="43.41611" lon="6.63733">
        <ele>205.4</ele>
        <time>2025-01-19T09:51:43Z</time>
      </trkpt>
      <trkpt lat="43.4161" lon="6.63733">
        <ele>205.4</ele>
        <time>2025-01-19T09:51:44Z</time>
      </trkpt>
      <trkpt lat="43.4161" lon="6.63733">
        <ele>205.4</ele>
        <time>2025-01-19T09:51:45Z</time>
      </trkpt>
      <trkpt lat="43.4161" lon="6.63733">
        <ele>205.4</ele>
        <time>2025-01-19T09:51:46Z</time>
      </trkpt>
      <trkpt lat="43.4161" lon="6.63733">
        <ele>205.4</ele>
        <time>2025-01-19T09:51:47Z</time>
      </trkpt>
      <trkpt lat="43.4161" lon="6.63733">
        <ele>205.5</ele>
        <time>2025-01-19T09:51:48Z</time>
      </trkpt>
      <trkpt lat="43.4161" lon="6.63733">
        <ele>205.4</ele>
        <time>2025-01-19T09:51:49Z</time>
      </trkpt>
      <trkpt lat="43.4161" lon="6.63733">
        <ele>205.4</ele>
        <time>2025-01-19T09:51:50Z</time>
      </trkpt>
      <trkpt lat="43.4161" lon="6.63733">
        <ele>205.3</ele>
        <time>2025-01-19T09:51:51Z</time>
      </trkpt>
      <trkpt lat="43.4161" lon="6.63733">
        <ele>205.3</ele>
        <time>2025-01-19T09:51:52Z</time>
      </trkpt>
      <trkpt lat="43.4161" lon="6.63733">
        <ele>205.3</ele>
        <time>2025-01-19T09:51:53Z</time>
      </trkpt>
      <trkpt lat="43.4161" lon="6.63733">
        <ele>205.3</ele>
        <time>2025-01-19T09:51:54Z</time>
      </trkpt>
      <trkpt lat="43.4161" lon="6.63733">
        <ele>205.3</ele>
        <time>2025-01-19T09:51:55Z</time>
      </trkpt>
      <trkpt lat="43.4161" lon="6.63733">
        <ele>205.3</ele>
        <time>2025-01-19T09:51:56Z</time>
      </trkpt>
      <trkpt lat="43.41609" lon="6.63734">
        <ele>205.3</ele>
        <time>2025-01-19T09:51:57Z</time>
      </trkpt>
      <trkpt lat="43.41609" lon="6.63733">
        <ele>205.2</ele>
        <time>2025-01-19T09:51:58Z</time>
      </trkpt>
      <trkpt lat="43.41609" lon="6.63733">
        <ele>205.3</ele>
        <time>2025-01-19T09:51:59Z</time>
      </trkpt>
      <trkpt lat="43.41609" lon="6.63734">
        <ele>205.4</ele>
        <time>2025-01-19T09:52:00Z</time>
      </trkpt>
      <trkpt lat="43.41609" lon="6.63733">
        <ele>205.3</ele>
        <time>2025-01-19T09:52:01Z</time>
      </trkpt>
      <trkpt lat="43.41609" lon="6.63733">
        <ele>205.2</ele>
        <time>2025-01-19T09:52:02Z</time>
      </trkpt>
      <trkpt lat="43.41609" lon="6.63733">
        <ele>205.2</ele>
        <time>2025-01-19T09:52:03Z</time>
      </trkpt>
      <trkpt lat="43.41609" lon="6.63733">
        <ele>205.1</ele>
        <time>2025-01-19T09:52:04Z</time>
      </trkpt>
      <trkpt lat="43.41609" lon="6.63734">
        <ele>205.1</ele>
        <time>2025-01-19T09:52:05Z</time>
      </trkpt>
      <trkpt lat="43.41609" lon="6.63734">
        <ele>205.2</ele>
        <time>2025-01-19T09:52:06Z</time>
      </trkpt>
      <trkpt lat="43.41609" lon="6.63734">
        <ele>205.1</ele>
        <time>2025-01-19T09:52:07Z</time>
      </trkpt>
      <trkpt lat="43.41609" lon="6.63734">
        <ele>205.1</ele>
        <time>2025-01-19T09:52:08Z</time>
      </trkpt>
      <trkpt lat="43.41609" lon="6.63734">
        <ele>205.2</ele>
        <time>2025-01-19T09:52:09Z</time>
      </trkpt>
      <trkpt lat="43.41608" lon="6.63734">
        <ele>205.2</ele>
        <time>2025-01-19T09:52:10Z</time>
      </trkpt>
      <trkpt lat="43.41608" lon="6.63734">
        <ele>205.2</ele>
        <time>2025-01-19T09:52:11Z</time>
      </trkpt>
      <trkpt lat="43.41608" lon="6.63734">
        <ele>205.3</ele>
        <time>2025-01-19T09:52:12Z</time>
      </trkpt>
      <trkpt lat="43.41608" lon="6.63734">
        <ele>205.3</ele>
        <time>2025-01-19T09:52:13Z</time>
      </trkpt>
      <trkpt lat="43.41608" lon="6.63734">
        <ele>205.4</ele>
        <time>2025-01-19T09:52:14Z</time>
      </trkpt>
      <trkpt lat="43.41607" lon="6.63733">
        <ele>205.6</ele>
        <time>2025-01-19T09:52:15Z</time>
      </trkpt>
      <trkpt lat="43.41606" lon="6.63733">
        <ele>205.6</ele>
        <time>2025-01-19T09:52:16Z</time>
      </trkpt>
      <trkpt lat="43.41605" lon="6.63732">
        <ele>205.6</ele>
        <time>2025-01-19T09:52:17Z</time>
      </trkpt>
      <trkpt lat="43.41604" lon="6.63732">
        <ele>205.7</ele>
        <time>2025-01-19T09:52:18Z</time>
      </trkpt>
      <trkpt lat="43.41604" lon="6.6373">
        <ele>205.7</ele>
        <time>2025-01-19T09:52:19Z</time>
      </trkpt>
      <trkpt lat="43.41603" lon="6.6373">
        <ele>205.7</ele>
        <time>2025-01-19T09:52:20Z</time>
      </trkpt>
      <trkpt lat="43.41602" lon="6.63729">
        <ele>205.7</ele>
        <time>2025-01-19T09:52:21Z</time>
      </trkpt>
      <trkpt lat="43.41601" lon="6.63727">
        <ele>205.7</ele>
        <time>2025-01-19T09:52:22Z</time>
      </trkpt>
      <trkpt lat="43.416" lon="6.63726">
        <ele>205.7</ele>
        <time>2025-01-19T09:52:23Z</time>
      </trkpt>
      <trkpt lat="43.41599" lon="6.63724">
        <ele>205.8</ele>
        <time>2025-01-19T09:52:24Z</time>
      </trkpt>
      <trkpt lat="43.41599" lon="6.63723">
        <ele>205.9</ele>
        <time>2025-01-19T09:52:25Z</time>
      </trkpt>
      <trkpt lat="43.41598" lon="6.63721">
        <ele>206</ele>
        <time>2025-01-19T09:52:26Z</time>
      </trkpt>
      <trkpt lat="43.41597" lon="6.6372">
        <ele>206.1</ele>
        <time>2025-01-19T09:52:27Z</time>
      </trkpt>
      <trkpt lat="43.41596" lon="6.63719">
        <ele>206.1</ele>
        <time>2025-01-19T09:52:28Z</time>
      </trkpt>
      <trkpt lat="43.41596" lon="6.63717">
        <ele>206.2</ele>
        <time>2025-01-19T09:52:29Z</time>
      </trkpt>
      <trkpt lat="43.41596" lon="6.63715">
        <ele>206.2</ele>
        <time>2025-01-19T09:52:30Z</time>
      </trkpt>
      <trkpt lat="43.41595" lon="6.63714">
        <ele>206.4</ele>
        <time>2025-01-19T09:52:31Z</time>
      </trkpt>
      <trkpt lat="43.41594" lon="6.63712">
        <ele>206.4</ele>
        <time>2025-01-19T09:52:32Z</time>
      </trkpt>
      <trkpt lat="43.41594" lon="6.63711">
        <ele>206.3</ele>
        <time>2025-01-19T09:52:33Z</time>
      </trkpt>
      <trkpt lat="43.41593" lon="6.6371">
        <ele>206.4</ele>
        <time>2025-01-19T09:52:34Z</time>
      </trkpt>
      <trkpt lat="43.41593" lon="6.63709">
        <ele>206.4</ele>
        <time>2025-01-19T09:52:35Z</time>
      </trkpt>
      <trkpt lat="43.41592" lon="6.63707">
        <ele>206.5</ele>
        <time>2025-01-19T09:52:36Z</time>
      </trkpt>
      <trkpt lat="43.41592" lon="6.63705">
        <ele>206.5</ele>
        <time>2025-01-19T09:52:37Z</time>
      </trkpt>
      <trkpt lat="43.41591" lon="6.63704">
        <ele>206.6</ele>
        <time>2025-01-19T09:52:38Z</time>
      </trkpt>
      <trkpt lat="43.41591" lon="6.63702">
        <ele>206.7</ele>
        <time>2025-01-19T09:52:39Z</time>
      </trkpt>
      <trkpt lat="43.4159" lon="6.63701">
        <ele>206.9</ele>
        <time>2025-01-19T09:52:40Z</time>
      </trkpt>
      <trkpt lat="43.4159" lon="6.637">
        <ele>206.9</ele>
        <time>2025-01-19T09:52:41Z</time>
      </trkpt>
      <trkpt lat="43.41589" lon="6.63698">
        <ele>207</ele>
        <time>2025-01-19T09:52:42Z</time>
      </trkpt>
      <trkpt lat="43.41588" lon="6.63697">
        <ele>207.1</ele>
        <time>2025-01-19T09:52:43Z</time>
      </trkpt>
      <trkpt lat="43.41588" lon="6.63695">
        <ele>207.2</ele>
        <time>2025-01-19T09:52:44Z</time>
      </trkpt>
      <trkpt lat="43.41588" lon="6.63694">
        <ele>207.2</ele>
        <time>2025-01-19T09:52:45Z</time>
      </trkpt>
      <trkpt lat="43.41587" lon="6.63692">
        <ele>207.4</ele>
        <time>2025-01-19T09:52:46Z</time>
      </trkpt>
      <trkpt lat="43.41587" lon="6.63691">
        <ele>207.4</ele>
        <time>2025-01-19T09:52:47Z</time>
      </trkpt>
      <trkpt lat="43.41586" lon="6.6369">
        <ele>207.5</ele>
        <time>2025-01-19T09:52:48Z</time>
      </trkpt>
      <trkpt lat="43.41586" lon="6.63689">
        <ele>207.5</ele>
        <time>2025-01-19T09:52:49Z</time>
      </trkpt>
      <trkpt lat="43.41586" lon="6.63687">
        <ele>207.5</ele>
        <time>2025-01-19T09:52:50Z</time>
      </trkpt>
      <trkpt lat="43.41586" lon="6.63685">
        <ele>207.5</ele>
        <time>2025-01-19T09:52:51Z</time>
      </trkpt>
      <trkpt lat="43.41586" lon="6.63683">
        <ele>207.7</ele>
        <time>2025-01-19T09:52:52Z</time>
      </trkpt>
      <trkpt lat="43.41586" lon="6.63682">
        <ele>207.7</ele>
        <time>2025-01-19T09:52:53Z</time>
      </trkpt>
      <trkpt lat="43.41585" lon="6.63681">
        <ele>207.8</ele>
        <time>2025-01-19T09:52:54Z</time>
      </trkpt>
      <trkpt lat="43.41585" lon="6.63679">
        <ele>207.8</ele>
        <time>2025-01-19T09:52:55Z</time>
      </trkpt>
      <trkpt lat="43.41584" lon="6.63678">
        <ele>207.8</ele>
        <time>2025-01-19T09:52:56Z</time>
      </trkpt>
      <trkpt lat="43.41584" lon="6.63677">
        <ele>207.9</ele>
        <time>2025-01-19T09:52:57Z</time>
      </trkpt>
      <trkpt lat="43.41583" lon="6.63676">
        <ele>208</ele>
        <time>2025-01-19T09:52:58Z</time>
      </trkpt>
      <trkpt lat="43.41582" lon="6.63674">
        <ele>208.2</ele>
        <time>2025-01-19T09:52:59Z</time>
      </trkpt>
      <trkpt lat="43.41581" lon="6.63673">
        <ele>208.2</ele>
        <time>2025-01-19T09:53:00Z</time>
      </trkpt>
      <trkpt lat="43.4158" lon="6.63672">
        <ele>208.3</ele>
        <time>2025-01-19T09:53:01Z</time>
      </trkpt>
      <trkpt lat="43.41579" lon="6.63672">
        <ele>208.3</ele>
        <time>2025-01-19T09:53:02Z</time>
      </trkpt>
      <trkpt lat="43.41578" lon="6.63671">
        <ele>208.4</ele>
        <time>2025-01-19T09:53:03Z</time>
      </trkpt>
      <trkpt lat="43.41578" lon="6.6367">
        <ele>208.5</ele>
        <time>2025-01-19T09:53:04Z</time>
      </trkpt>
      <trkpt lat="43.41578" lon="6.63669">
        <ele>208.6</ele>
        <time>2025-01-19T09:53:05Z</time>
      </trkpt>
      <trkpt lat="43.41577" lon="6.63668">
        <ele>208.6</ele>
        <time>2025-01-19T09:53:06Z</time>
      </trkpt>
      <trkpt lat="43.41576" lon="6.63667">
        <ele>208.7</ele>
        <time>2025-01-19T09:53:07Z</time>
      </trkpt>
      <trkpt lat="43.41575" lon="6.63666">
        <ele>208.8</ele>
        <time>2025-01-19T09:53:08Z</time>
      </trkpt>
      <trkpt lat="43.41574" lon="6.63665">
        <ele>208.9</ele>
        <time>2025-01-19T09:53:09Z</time>
      </trkpt>
      <trkpt lat="43.41573" lon="6.63664">
        <ele>208.9</ele>
        <time>2025-01-19T09:53:10Z</time>
      </trkpt>
      <trkpt lat="43.41572" lon="6.63662">
        <ele>209</ele>
        <time>2025-01-19T09:53:11Z</time>
      </trkpt>
      <trkpt lat="43.41571" lon="6.63661">
        <ele>209.1</ele>
        <time>2025-01-19T09:53:12Z</time>
      </trkpt>
      <trkpt lat="43.41569" lon="6.63661">
        <ele>209.2</ele>
        <time>2025-01-19T09:53:13Z</time>
      </trkpt>
      <trkpt lat="43.41568" lon="6.6366">
        <ele>209.4</ele>
        <time>2025-01-19T09:53:14Z</time>
      </trkpt>
      <trkpt lat="43.41567" lon="6.63659">
        <ele>209.6</ele>
        <time>2025-01-19T09:53:15Z</time>
      </trkpt>
      <trkpt lat="43.41566" lon="6.63657">
        <ele>209.7</ele>
        <time>2025-01-19T09:53:16Z</time>
      </trkpt>
      <trkpt lat="43.41565" lon="6.63656">
        <ele>209.8</ele>
        <time>2025-01-19T09:53:17Z</time>
      </trkpt>
      <trkpt lat="43.41565" lon="6.63654">
        <ele>209.9</ele>
        <time>2025-01-19T09:53:18Z</time>
      </trkpt>
      <trkpt lat="43.41564" lon="6.63653">
        <ele>210</ele>
        <time>2025-01-19T09:53:19Z</time>
      </trkpt>
      <trkpt lat="43.41563" lon="6.63652">
        <ele>210.1</ele>
        <time>2025-01-19T09:53:20Z</time>
      </trkpt>
      <trkpt lat="43.41562" lon="6.6365">
        <ele>210.2</ele>
        <time>2025-01-19T09:53:21Z</time>
      </trkpt>
      <trkpt lat="43.41562" lon="6.63649">
        <ele>210.3</ele>
        <time>2025-01-19T09:53:22Z</time>
      </trkpt>
      <trkpt lat="43.4156" lon="6.63649">
        <ele>210.3</ele>
        <time>2025-01-19T09:53:23Z</time>
      </trkpt>
      <trkpt lat="43.4156" lon="6.63648">
        <ele>210.4</ele>
        <time>2025-01-19T09:53:24Z</time>
      </trkpt>
      <trkpt lat="43.41558" lon="6.63647">
        <ele>210.5</ele>
        <time>2025-01-19T09:53:25Z</time>
      </trkpt>
      <trkpt lat="43.41557" lon="6.63646">
        <ele>210.6</ele>
        <time>2025-01-19T09:53:26Z</time>
      </trkpt>
      <trkpt lat="43.41557" lon="6.63645">
        <ele>210.6</ele>
        <time>2025-01-19T09:53:27Z</time>
      </trkpt>
      <trkpt lat="43.41556" lon="6.63644">
        <ele>210.7</ele>
        <time>2025-01-19T09:53:28Z</time>
      </trkpt>
      <trkpt lat="43.41555" lon="6.63643">
        <ele>210.7</ele>
        <time>2025-01-19T09:53:29Z</time>
      </trkpt>
      <trkpt lat="43.41554" lon="6.63642">
        <ele>210.8</ele>
        <time>2025-01-19T09:53:30Z</time>
      </trkpt>
      <trkpt lat="43.41553" lon="6.63641">
        <ele>210.9</ele>
        <time>2025-01-19T09:53:31Z</time>
      </trkpt>
      <trkpt lat="43.41552" lon="6.6364">
        <ele>211</ele>
        <time>2025-01-19T09:53:32Z</time>
      </trkpt>
      <trkpt lat="43.41552" lon="6.63638">
        <ele>210.9</ele>
        <time>2025-01-19T09:53:33Z</time>
      </trkpt>
      <trkpt lat="43.41551" lon="6.63637">
        <ele>211</ele>
        <time>2025-01-19T09:53:34Z</time>
      </trkpt>
      <trkpt lat="43.4155" lon="6.63635">
        <ele>211.1</ele>
        <time>2025-01-19T09:53:35Z</time>
      </trkpt>
      <trkpt lat="43.4155" lon="6.63633">
        <ele>211.2</ele>
        <time>2025-01-19T09:53:36Z</time>
      </trkpt>
      <trkpt lat="43.41549" lon="6.63633">
        <ele>211.4</ele>
        <time>2025-01-19T09:53:37Z</time>
      </trkpt>
      <trkpt lat="43.41548" lon="6.63631">
        <ele>211.5</ele>
        <time>2025-01-19T09:53:38Z</time>
      </trkpt>
      <trkpt lat="43.41548" lon="6.6363">
        <ele>211.5</ele>
        <time>2025-01-19T09:53:39Z</time>
      </trkpt>
      <trkpt lat="43.41547" lon="6.63629">
        <ele>211.5</ele>
        <time>2025-01-19T09:53:40Z</time>
      </trkpt>
      <trkpt lat="43.41547" lon="6.63629">
        <ele>211.5</ele>
        <time>2025-01-19T09:53:41Z</time>
      </trkpt>
      <trkpt lat="43.41547" lon="6.63628">
        <ele>211.6</ele>
        <time>2025-01-19T09:53:42Z</time>
      </trkpt>
      <trkpt lat="43.41546" lon="6.63627">
        <ele>211.6</ele>
        <time>2025-01-19T09:53:43Z</time>
      </trkpt>
      <trkpt lat="43.41545" lon="6.63626">
        <ele>211.7</ele>
        <time>2025-01-19T09:53:44Z</time>
      </trkpt>
      <trkpt lat="43.41545" lon="6.63624">
        <ele>211.8</ele>
        <time>2025-01-19T09:53:45Z</time>
      </trkpt>
      <trkpt lat="43.41544" lon="6.63623">
        <ele>211.8</ele>
        <time>2025-01-19T09:53:46Z</time>
      </trkpt>
      <trkpt lat="43.41543" lon="6.63621">
        <ele>211.9</ele>
        <time>2025-01-19T09:53:47Z</time>
      </trkpt>
      <trkpt lat="43.41543" lon="6.63619">
        <ele>212</ele>
        <time>2025-01-19T09:53:48Z</time>
      </trkpt>
      <trkpt lat="43.41542" lon="6.63618">
        <ele>212.2</ele>
        <time>2025-01-19T09:53:49Z</time>
      </trkpt>
      <trkpt lat="43.41541" lon="6.63617">
        <ele>212.3</ele>
        <time>2025-01-19T09:53:50Z</time>
      </trkpt>
      <trkpt lat="43.41541" lon="6.63615">
        <ele>212.4</ele>
        <time>2025-01-19T09:53:51Z</time>
      </trkpt>
      <trkpt lat="43.41539" lon="6.63616">
        <ele>212.4</ele>
        <time>2025-01-19T09:53:52Z</time>
      </trkpt>
      <trkpt lat="43.41539" lon="6.63615">
        <ele>212.5</ele>
        <time>2025-01-19T09:53:53Z</time>
      </trkpt>
      <trkpt lat="43.41537" lon="6.63616">
        <ele>212.6</ele>
        <time>2025-01-19T09:53:54Z</time>
      </trkpt>
      <trkpt lat="43.41537" lon="6.63615">
        <ele>212.7</ele>
        <time>2025-01-19T09:53:55Z</time>
      </trkpt>
      <trkpt lat="43.41536" lon="6.63616">
        <ele>212.9</ele>
        <time>2025-01-19T09:53:56Z</time>
      </trkpt>
      <trkpt lat="43.41536" lon="6.63616">
        <ele>213</ele>
        <time>2025-01-19T09:53:57Z</time>
      </trkpt>
      <trkpt lat="43.41535" lon="6.63616">
        <ele>213</ele>
        <time>2025-01-19T09:53:58Z</time>
      </trkpt>
      <trkpt lat="43.41535" lon="6.63616">
        <ele>213</ele>
        <time>2025-01-19T09:53:59Z</time>
      </trkpt>
      <trkpt lat="43.41535" lon="6.63616">
        <ele>213.1</ele>
        <time>2025-01-19T09:54:00Z</time>
      </trkpt>
      <trkpt lat="43.41534" lon="6.63615">
        <ele>213</ele>
        <time>2025-01-19T09:54:01Z</time>
      </trkpt>
      <trkpt lat="43.41534" lon="6.63614">
        <ele>213</ele>
        <time>2025-01-19T09:54:02Z</time>
      </trkpt>
      <trkpt lat="43.41534" lon="6.63613">
        <ele>213</ele>
        <time>2025-01-19T09:54:03Z</time>
      </trkpt>
      <trkpt lat="43.41533" lon="6.63612">
        <ele>213.1</ele>
        <time>2025-01-19T09:54:04Z</time>
      </trkpt>
      <trkpt lat="43.41532" lon="6.63611">
        <ele>213.2</ele>
        <time>2025-01-19T09:54:05Z</time>
      </trkpt>
      <trkpt lat="43.41531" lon="6.6361">
        <ele>213.2</ele>
        <time>2025-01-19T09:54:06Z</time>
      </trkpt>
      <trkpt lat="43.41531" lon="6.63609">
        <ele>213.2</ele>
        <time>2025-01-19T09:54:07Z</time>
      </trkpt>
      <trkpt lat="43.4153" lon="6.63608">
        <ele>213.3</ele>
        <time>2025-01-19T09:54:08Z</time>
      </trkpt>
      <trkpt lat="43.4153" lon="6.63606">
        <ele>213.3</ele>
        <time>2025-01-19T09:54:09Z</time>
      </trkpt>
      <trkpt lat="43.41529" lon="6.63605">
        <ele>213.4</ele>
        <time>2025-01-19T09:54:10Z</time>
      </trkpt>
      <trkpt lat="43.41529" lon="6.63604">
        <ele>213.4</ele>
        <time>2025-01-19T09:54:11Z</time>
      </trkpt>
      <trkpt lat="43.41528" lon="6.63602">
        <ele>213.5</ele>
        <time>2025-01-19T09:54:12Z</time>
      </trkpt>
      <trkpt lat="43.41527" lon="6.63601">
        <ele>213.6</ele>
        <time>2025-01-19T09:54:13Z</time>
      </trkpt>
      <trkpt lat="43.41527" lon="6.63599">
        <ele>213.6</ele>
        <time>2025-01-19T09:54:14Z</time>
      </trkpt>
      <trkpt lat="43.41526" lon="6.63598">
        <ele>213.6</ele>
        <time>2025-01-19T09:54:15Z</time>
      </trkpt>
      <trkpt lat="43.41526" lon="6.63596">
        <ele>213.8</ele>
        <time>2025-01-19T09:54:16Z</time>
      </trkpt>
      <trkpt lat="43.41525" lon="6.63595">
        <ele>213.9</ele>
        <time>2025-01-19T09:54:17Z</time>
      </trkpt>
      <trkpt lat="43.41526" lon="6.63594">
        <ele>213.8</ele>
        <time>2025-01-19T09:54:18Z</time>
      </trkpt>
      <trkpt lat="43.41525" lon="6.63593">
        <ele>214</ele>
        <time>2025-01-19T09:54:19Z</time>
      </trkpt>
      <trkpt lat="43.41524" lon="6.63591">
        <ele>214</ele>
        <time>2025-01-19T09:54:20Z</time>
      </trkpt>
      <trkpt lat="43.41524" lon="6.6359">
        <ele>214</ele>
        <time>2025-01-19T09:54:21Z</time>
      </trkpt>
      <trkpt lat="43.41524" lon="6.63589">
        <ele>214</ele>
        <time>2025-01-19T09:54:22Z</time>
      </trkpt>
      <trkpt lat="43.41523" lon="6.63587">
        <ele>214.1</ele>
        <time>2025-01-19T09:54:23Z</time>
      </trkpt>
      <trkpt lat="43.41523" lon="6.63586">
        <ele>214.2</ele>
        <time>2025-01-19T09:54:24Z</time>
      </trkpt>
      <trkpt lat="43.41522" lon="6.63584">
        <ele>214.2</ele>
        <time>2025-01-19T09:54:25Z</time>
      </trkpt>
      <trkpt lat="43.41522" lon="6.63582">
        <ele>214.3</ele>
        <time>2025-01-19T09:54:26Z</time>
      </trkpt>
      <trkpt lat="43.41522" lon="6.63581">
        <ele>214.4</ele>
        <time>2025-01-19T09:54:27Z</time>
      </trkpt>
      <trkpt lat="43.41521" lon="6.63579">
        <ele>214.4</ele>
        <time>2025-01-19T09:54:28Z</time>
      </trkpt>
      <trkpt lat="43.4152" lon="6.63578">
        <ele>214.4</ele>
        <time>2025-01-19T09:54:29Z</time>
      </trkpt>
      <trkpt lat="43.4152" lon="6.63576">
        <ele>214.5</ele>
        <time>2025-01-19T09:54:30Z</time>
      </trkpt>
      <trkpt lat="43.4152" lon="6.63574">
        <ele>214.5</ele>
        <time>2025-01-19T09:54:31Z</time>
      </trkpt>
      <trkpt lat="43.41519" lon="6.63573">
        <ele>214.5</ele>
        <time>2025-01-19T09:54:32Z</time>
      </trkpt>
      <trkpt lat="43.41519" lon="6.6357">
        <ele>214.6</ele>
        <time>2025-01-19T09:54:33Z</time>
      </trkpt>
      <trkpt lat="43.41519" lon="6.63569">
        <ele>214.6</ele>
        <time>2025-01-19T09:54:34Z</time>
      </trkpt>
      <trkpt lat="43.41519" lon="6.63567">
        <ele>214.6</ele>
        <time>2025-01-19T09:54:35Z</time>
      </trkpt>
      <trkpt lat="43.41518" lon="6.63566">
        <ele>214.6</ele>
        <time>2025-01-19T09:54:36Z</time>
      </trkpt>
      <trkpt lat="43.41517" lon="6.63565">
        <ele>214.6</ele>
        <time>2025-01-19T09:54:37Z</time>
      </trkpt>
      <trkpt lat="43.41517" lon="6.63563">
        <ele>214.6</ele>
        <time>2025-01-19T09:54:38Z</time>
      </trkpt>
      <trkpt lat="43.41516" lon="6.63561">
        <ele>214.6</ele>
        <time>2025-01-19T09:54:39Z</time>
      </trkpt>
      <trkpt lat="43.41516" lon="6.63559">
        <ele>214.7</ele>
        <time>2025-01-19T09:54:40Z</time>
      </trkpt>
      <trkpt lat="43.41515" lon="6.63558">
        <ele>214.7</ele>
        <time>2025-01-19T09:54:41Z</time>
      </trkpt>
      <trkpt lat="43.41514" lon="6.63557">
        <ele>214.7</ele>
        <time>2025-01-19T09:54:42Z</time>
      </trkpt>
      <trkpt lat="43.41513" lon="6.63555">
        <ele>214.8</ele>
        <time>2025-01-19T09:54:43Z</time>
      </trkpt>
      <trkpt lat="43.41513" lon="6.63554">
        <ele>214.9</ele>
        <time>2025-01-19T09:54:44Z</time>
      </trkpt>
      <trkpt lat="43.41512" lon="6.63552">
        <ele>215</ele>
        <time>2025-01-19T09:54:45Z</time>
      </trkpt>
      <trkpt lat="43.41511" lon="6.63551">
        <ele>215.1</ele>
        <time>2025-01-19T09:54:46Z</time>
      </trkpt>
      <trkpt lat="43.4151" lon="6.63549">
        <ele>215.2</ele>
        <time>2025-01-19T09:54:47Z</time>
      </trkpt>
      <trkpt lat="43.41509" lon="6.63549">
        <ele>215.2</ele>
        <time>2025-01-19T09:54:48Z</time>
      </trkpt>
      <trkpt lat="43.41508" lon="6.63547">
        <ele>215.3</ele>
        <time>2025-01-19T09:54:49Z</time>
      </trkpt>
      <trkpt lat="43.41507" lon="6.63547">
        <ele>215.4</ele>
        <time>2025-01-19T09:54:50Z</time>
      </trkpt>
      <trkpt lat="43.41505" lon="6.63546">
        <ele>215.5</ele>
        <time>2025-01-19T09:54:51Z</time>
      </trkpt>
      <trkpt lat="43.41504" lon="6.63546">
        <ele>215.6</ele>
        <time>2025-01-19T09:54:52Z</time>
      </trkpt>
      <trkpt lat="43.41503" lon="6.63546">
        <ele>215.6</ele>
        <time>2025-01-19T09:54:53Z</time>
      </trkpt>
      <trkpt lat="43.41501" lon="6.63545">
        <ele>215.6</ele>
        <time>2025-01-19T09:54:54Z</time>
      </trkpt>
      <trkpt lat="43.41501" lon="6.63544">
        <ele>215.6</ele>
        <time>2025-01-19T09:54:55Z</time>
      </trkpt>
      <trkpt lat="43.415" lon="6.63544">
        <ele>215.6</ele>
        <time>2025-01-19T09:54:56Z</time>
      </trkpt>
      <trkpt lat="43.41499" lon="6.63544">
        <ele>215.6</ele>
        <time>2025-01-19T09:54:57Z</time>
      </trkpt>
      <trkpt lat="43.41497" lon="6.63544">
        <ele>215.6</ele>
        <time>2025-01-19T09:54:58Z</time>
      </trkpt>
      <trkpt lat="43.41496" lon="6.63544">
        <ele>216</ele>
        <time>2025-01-19T09:54:59Z</time>
      </trkpt>
      <trkpt lat="43.41494" lon="6.63545">
        <ele>216.1</ele>
        <time>2025-01-19T09:55:00Z</time>
      </trkpt>
      <trkpt lat="43.41493" lon="6.63545">
        <ele>216.2</ele>
        <time>2025-01-19T09:55:01Z</time>
      </trkpt>
      <trkpt lat="43.41492" lon="6.63546">
        <ele>216.2</ele>
        <time>2025-01-19T09:55:02Z</time>
      </trkpt>
      <trkpt lat="43.41491" lon="6.63546">
        <ele>216.3</ele>
        <time>2025-01-19T09:55:03Z</time>
      </trkpt>
      <trkpt lat="43.4149" lon="6.63547">
        <ele>216.4</ele>
        <time>2025-01-19T09:55:04Z</time>
      </trkpt>
      <trkpt lat="43.41489" lon="6.63547">
        <ele>216.6</ele>
        <time>2025-01-19T09:55:05Z</time>
      </trkpt>
      <trkpt lat="43.41488" lon="6.63548">
        <ele>216.7</ele>
        <time>2025-01-19T09:55:06Z</time>
      </trkpt>
      <trkpt lat="43.41487" lon="6.63549">
        <ele>216.8</ele>
        <time>2025-01-19T09:55:07Z</time>
      </trkpt>
      <trkpt lat="43.41486" lon="6.6355">
        <ele>216.9</ele>
        <time>2025-01-19T09:55:08Z</time>
      </trkpt>
      <trkpt lat="43.41485" lon="6.63551">
        <ele>217</ele>
        <time>2025-01-19T09:55:09Z</time>
      </trkpt>
      <trkpt lat="43.41484" lon="6.63552">
        <ele>217.1</ele>
        <time>2025-01-19T09:55:10Z</time>
      </trkpt>
      <trkpt lat="43.41483" lon="6.63554">
        <ele>217.2</ele>
        <time>2025-01-19T09:55:11Z</time>
      </trkpt>
      <trkpt lat="43.41482" lon="6.63555">
        <ele>217.3</ele>
        <time>2025-01-19T09:55:12Z</time>
      </trkpt>
      <trkpt lat="43.41481" lon="6.63556">
        <ele>217.5</ele>
        <time>2025-01-19T09:55:13Z</time>
      </trkpt>
      <trkpt lat="43.4148" lon="6.63557">
        <ele>217.6</ele>
        <time>2025-01-19T09:55:14Z</time>
      </trkpt>
      <trkpt lat="43.41479" lon="6.63558">
        <ele>217.6</ele>
        <time>2025-01-19T09:55:15Z</time>
      </trkpt>
      <trkpt lat="43.41478" lon="6.63559">
        <ele>217.8</ele>
        <time>2025-01-19T09:55:16Z</time>
      </trkpt>
      <trkpt lat="43.41478" lon="6.6356">
        <ele>217.9</ele>
        <time>2025-01-19T09:55:17Z</time>
      </trkpt>
      <trkpt lat="43.41477" lon="6.63561">
        <ele>218</ele>
        <time>2025-01-19T09:55:18Z</time>
      </trkpt>
      <trkpt lat="43.41476" lon="6.63563">
        <ele>218</ele>
        <time>2025-01-19T09:55:19Z</time>
      </trkpt>
      <trkpt lat="43.41475" lon="6.63564">
        <ele>218.2</ele>
        <time>2025-01-19T09:55:20Z</time>
      </trkpt>
      <trkpt lat="43.41474" lon="6.63565">
        <ele>218.3</ele>
        <time>2025-01-19T09:55:21Z</time>
      </trkpt>
      <trkpt lat="43.41473" lon="6.63566">
        <ele>218.4</ele>
        <time>2025-01-19T09:55:22Z</time>
      </trkpt>
      <trkpt lat="43.41473" lon="6.63567">
        <ele>218.5</ele>
        <time>2025-01-19T09:55:23Z</time>
      </trkpt>
      <trkpt lat="43.41471" lon="6.63569">
        <ele>218.6</ele>
        <time>2025-01-19T09:55:24Z</time>
      </trkpt>
      <trkpt lat="43.41471" lon="6.6357">
        <ele>218.6</ele>
        <time>2025-01-19T09:55:25Z</time>
      </trkpt>
      <trkpt lat="43.4147" lon="6.63571">
        <ele>218.8</ele>
        <time>2025-01-19T09:55:26Z</time>
      </trkpt>
      <trkpt lat="43.41469" lon="6.63572">
        <ele>218.9</ele>
        <time>2025-01-19T09:55:27Z</time>
      </trkpt>
      <trkpt lat="43.41468" lon="6.63573">
        <ele>219</ele>
        <time>2025-01-19T09:55:28Z</time>
      </trkpt>
      <trkpt lat="43.41468" lon="6.63575">
        <ele>219.1</ele>
        <time>2025-01-19T09:55:29Z</time>
      </trkpt>
      <trkpt lat="43.41467" lon="6.63576">
        <ele>219.1</ele>
        <time>2025-01-19T09:55:30Z</time>
      </trkpt>
      <trkpt lat="43.41466" lon="6.63577">
        <ele>219.2</ele>
        <time>2025-01-19T09:55:31Z</time>
      </trkpt>
      <trkpt lat="43.41465" lon="6.63578">
        <ele>219.3</ele>
        <time>2025-01-19T09:55:32Z</time>
      </trkpt>
      <trkpt lat="43.41464" lon="6.63579">
        <ele>219.3</ele>
        <time>2025-01-19T09:55:33Z</time>
      </trkpt>
      <trkpt lat="43.41464" lon="6.6358">
        <ele>219.3</ele>
        <time>2025-01-19T09:55:34Z</time>
      </trkpt>
      <trkpt lat="43.41463" lon="6.63581">
        <ele>219.4</ele>
        <time>2025-01-19T09:55:35Z</time>
      </trkpt>
      <trkpt lat="43.41462" lon="6.63582">
        <ele>219.5</ele>
        <time>2025-01-19T09:55:36Z</time>
      </trkpt>
      <trkpt lat="43.41461" lon="6.63583">
        <ele>219.6</ele>
        <time>2025-01-19T09:55:37Z</time>
      </trkpt>
      <trkpt lat="43.4146" lon="6.63585">
        <ele>219.7</ele>
        <time>2025-01-19T09:55:38Z</time>
      </trkpt>
      <trkpt lat="43.41459" lon="6.63586">
        <ele>219.8</ele>
        <time>2025-01-19T09:55:39Z</time>
      </trkpt>
      <trkpt lat="43.41458" lon="6.63587">
        <ele>219.8</ele>
        <time>2025-01-19T09:55:40Z</time>
      </trkpt>
      <trkpt lat="43.41457" lon="6.63588">
        <ele>219.9</ele>
        <time>2025-01-19T09:55:41Z</time>
      </trkpt>
      <trkpt lat="43.41457" lon="6.63589">
        <ele>219.9</ele>
        <time>2025-01-19T09:55:42Z</time>
      </trkpt>
      <trkpt lat="43.41456" lon="6.6359">
        <ele>219.8</ele>
        <time>2025-01-19T09:55:43Z</time>
      </trkpt>
      <trkpt lat="43.41456" lon="6.63592">
        <ele>219.8</ele>
        <time>2025-01-19T09:55:44Z</time>
      </trkpt>
      <trkpt lat="43.41455" lon="6.63593">
        <ele>219.9</ele>
        <time>2025-01-19T09:55:45Z</time>
      </trkpt>
      <trkpt lat="43.41454" lon="6.63593">
        <ele>220</ele>
        <time>2025-01-19T09:55:46Z</time>
      </trkpt>
      <trkpt lat="43.41453" lon="6.63594">
        <ele>220</ele>
        <time>2025-01-19T09:55:47Z</time>
      </trkpt>
      <trkpt lat="43.41453" lon="6.63595">
        <ele>220.2</ele>
        <time>2025-01-19T09:55:48Z</time>
      </trkpt>
      <trkpt lat="43.41452" lon="6.63595">
        <ele>220.2</ele>
        <time>2025-01-19T09:55:49Z</time>
      </trkpt>
      <trkpt lat="43.41452" lon="6.63597">
        <ele>220.3</ele>
        <time>2025-01-19T09:55:50Z</time>
      </trkpt>
      <trkpt lat="43.41451" lon="6.63598">
        <ele>220.4</ele>
        <time>2025-01-19T09:55:51Z</time>
      </trkpt>
      <trkpt lat="43.4145" lon="6.63598">
        <ele>220.4</ele>
        <time>2025-01-19T09:55:52Z</time>
      </trkpt>
      <trkpt lat="43.41449" lon="6.636">
        <ele>220.4</ele>
        <time>2025-01-19T09:55:53Z</time>
      </trkpt>
      <trkpt lat="43.41448" lon="6.63601">
        <ele>220.5</ele>
        <time>2025-01-19T09:55:54Z</time>
      </trkpt>
      <trkpt lat="43.41447" lon="6.63602">
        <ele>220.6</ele>
        <time>2025-01-19T09:55:55Z</time>
      </trkpt>
      <trkpt lat="43.41447" lon="6.63603">
        <ele>220.7</ele>
        <time>2025-01-19T09:55:56Z</time>
      </trkpt>
      <trkpt lat="43.41445" lon="6.63604">
        <ele>220.8</ele>
        <time>2025-01-19T09:55:57Z</time>
      </trkpt>
      <trkpt lat="43.41444" lon="6.63605">
        <ele>220.8</ele>
        <time>2025-01-19T09:55:58Z</time>
      </trkpt>
      <trkpt lat="43.41443" lon="6.63607">
        <ele>220.9</ele>
        <time>2025-01-19T09:55:59Z</time>
      </trkpt>
      <trkpt lat="43.41443" lon="6.63608">
        <ele>220.9</ele>
        <time>2025-01-19T09:56:00Z</time>
      </trkpt>
      <trkpt lat="43.41442" lon="6.6361">
        <ele>221.1</ele>
        <time>2025-01-19T09:56:01Z</time>
      </trkpt>
      <trkpt lat="43.41441" lon="6.63611">
        <ele>221.2</ele>
        <time>2025-01-19T09:56:02Z</time>
      </trkpt>
      <trkpt lat="43.4144" lon="6.63613">
        <ele>221.3</ele>
        <time>2025-01-19T09:56:03Z</time>
      </trkpt>
      <trkpt lat="43.4144" lon="6.63614">
        <ele>221.4</ele>
        <time>2025-01-19T09:56:04Z</time>
      </trkpt>
      <trkpt lat="43.41439" lon="6.63615">
        <ele>221.4</ele>
        <time>2025-01-19T09:56:05Z</time>
      </trkpt>
      <trkpt lat="43.41437" lon="6.63616">
        <ele>221.6</ele>
        <time>2025-01-19T09:56:06Z</time>
      </trkpt>
      <trkpt lat="43.41436" lon="6.63617">
        <ele>221.6</ele>
        <time>2025-01-19T09:56:07Z</time>
      </trkpt>
      <trkpt lat="43.41435" lon="6.63619">
        <ele>221.7</ele>
        <time>2025-01-19T09:56:08Z</time>
      </trkpt>
      <trkpt lat="43.41434" lon="6.6362">
        <ele>221.8</ele>
        <time>2025-01-19T09:56:09Z</time>
      </trkpt>
      <trkpt lat="43.41433" lon="6.63621">
        <ele>221.8</ele>
        <time>2025-01-19T09:56:10Z</time>
      </trkpt>
      <trkpt lat="43.41433" lon="6.63622">
        <ele>221.9</ele>
        <time>2025-01-19T09:56:11Z</time>
      </trkpt>
      <trkpt lat="43.41432" lon="6.63623">
        <ele>221.9</ele>
        <time>2025-01-19T09:56:12Z</time>
      </trkpt>
      <trkpt lat="43.41431" lon="6.63625">
        <ele>222</ele>
        <time>2025-01-19T09:56:13Z</time>
      </trkpt>
      <trkpt lat="43.41431" lon="6.63626">
        <ele>222</ele>
        <time>2025-01-19T09:56:14Z</time>
      </trkpt>
      <trkpt lat="43.41429" lon="6.63627">
        <ele>222.1</ele>
        <time>2025-01-19T09:56:15Z</time>
      </trkpt>
      <trkpt lat="43.41428" lon="6.63629">
        <ele>222.1</ele>
        <time>2025-01-19T09:56:16Z</time>
      </trkpt>
      <trkpt lat="43.41427" lon="6.6363">
        <ele>222.2</ele>
        <time>2025-01-19T09:56:17Z</time>
      </trkpt>
      <trkpt lat="43.41426" lon="6.63631">
        <ele>222.2</ele>
        <time>2025-01-19T09:56:18Z</time>
      </trkpt>
      <trkpt lat="43.41425" lon="6.63633">
        <ele>222.2</ele>
        <time>2025-01-19T09:56:19Z</time>
      </trkpt>
      <trkpt lat="43.41424" lon="6.63634">
        <ele>222.2</ele>
        <time>2025-01-19T09:56:20Z</time>
      </trkpt>
      <trkpt lat="43.41423" lon="6.63636">
        <ele>222.3</ele>
        <time>2025-01-19T09:56:21Z</time>
      </trkpt>
      <trkpt lat="43.41422" lon="6.63637">
        <ele>222.4</ele>
        <time>2025-01-19T09:56:22Z</time>
      </trkpt>
      <trkpt lat="43.41422" lon="6.63638">
        <ele>222.4</ele>
        <time>2025-01-19T09:56:23Z</time>
      </trkpt>
      <trkpt lat="43.4142" lon="6.63639">
        <ele>222.4</ele>
        <time>2025-01-19T09:56:24Z</time>
      </trkpt>
      <trkpt lat="43.41419" lon="6.63639">
        <ele>222.5</ele>
        <time>2025-01-19T09:56:25Z</time>
      </trkpt>
      <trkpt lat="43.41418" lon="6.63639">
        <ele>222.6</ele>
        <time>2025-01-19T09:56:26Z</time>
      </trkpt>
      <trkpt lat="43.41417" lon="6.6364">
        <ele>222.7</ele>
        <time>2025-01-19T09:56:27Z</time>
      </trkpt>
      <trkpt lat="43.41416" lon="6.63639">
        <ele>222.8</ele>
        <time>2025-01-19T09:56:28Z</time>
      </trkpt>
      <trkpt lat="43.41415" lon="6.63639">
        <ele>222.8</ele>
        <time>2025-01-19T09:56:29Z</time>
      </trkpt>
      <trkpt lat="43.41414" lon="6.63639">
        <ele>222.9</ele>
        <time>2025-01-19T09:56:30Z</time>
      </trkpt>
      <trkpt lat="43.41413" lon="6.63639">
        <ele>222.9</ele>
        <time>2025-01-19T09:56:31Z</time>
      </trkpt>
      <trkpt lat="43.41412" lon="6.63638">
        <ele>223</ele>
        <time>2025-01-19T09:56:32Z</time>
      </trkpt>
      <trkpt lat="43.41413" lon="6.63639">
        <ele>223.1</ele>
        <time>2025-01-19T09:56:33Z</time>
      </trkpt>
      <trkpt lat="43.41413" lon="6.63639">
        <ele>223.2</ele>
        <time>2025-01-19T09:56:34Z</time>
      </trkpt>
      <trkpt lat="43.41413" lon="6.63639">
        <ele>223.2</ele>
        <time>2025-01-19T09:56:35Z</time>
      </trkpt>
      <trkpt lat="43.41414" lon="6.63639">
        <ele>223.2</ele>
        <time>2025-01-19T09:56:36Z</time>
      </trkpt>
      <trkpt lat="43.41413" lon="6.63638">
        <ele>223.2</ele>
        <time>2025-01-19T09:56:37Z</time>
      </trkpt>
      <trkpt lat="43.41412" lon="6.63638">
        <ele>223.3</ele>
        <time>2025-01-19T09:56:38Z</time>
      </trkpt>
      <trkpt lat="43.41411" lon="6.63637">
        <ele>223.4</ele>
        <time>2025-01-19T09:56:39Z</time>
      </trkpt>
      <trkpt lat="43.4141" lon="6.63636">
        <ele>223.4</ele>
        <time>2025-01-19T09:56:40Z</time>
      </trkpt>
      <trkpt lat="43.41409" lon="6.63635">
        <ele>223.4</ele>
        <time>2025-01-19T09:56:41Z</time>
      </trkpt>
      <trkpt lat="43.41407" lon="6.63635">
        <ele>223.4</ele>
        <time>2025-01-19T09:56:42Z</time>
      </trkpt>
      <trkpt lat="43.41406" lon="6.63634">
        <ele>223.4</ele>
        <time>2025-01-19T09:56:43Z</time>
      </trkpt>
      <trkpt lat="43.41405" lon="6.63633">
        <ele>223.5</ele>
        <time>2025-01-19T09:56:44Z</time>
      </trkpt>
      <trkpt lat="43.41404" lon="6.63632">
        <ele>223.6</ele>
        <time>2025-01-19T09:56:45Z</time>
      </trkpt>
      <trkpt lat="43.41403" lon="6.63631">
        <ele>223.6</ele>
        <time>2025-01-19T09:56:46Z</time>
      </trkpt>
      <trkpt lat="43.41402" lon="6.6363">
        <ele>223.6</ele>
        <time>2025-01-19T09:56:47Z</time>
      </trkpt>
      <trkpt lat="43.41401" lon="6.63629">
        <ele>223.6</ele>
        <time>2025-01-19T09:56:48Z</time>
      </trkpt>
      <trkpt lat="43.414" lon="6.63628">
        <ele>223.6</ele>
        <time>2025-01-19T09:56:49Z</time>
      </trkpt>
      <trkpt lat="43.41399" lon="6.63627">
        <ele>223.7</ele>
        <time>2025-01-19T09:56:50Z</time>
      </trkpt>
      <trkpt lat="43.41399" lon="6.63626">
        <ele>223.7</ele>
        <time>2025-01-19T09:56:51Z</time>
      </trkpt>
      <trkpt lat="43.41398" lon="6.63625">
        <ele>223.7</ele>
        <time>2025-01-19T09:56:52Z</time>
      </trkpt>
      <trkpt lat="43.41397" lon="6.63624">
        <ele>223.9</ele>
        <time>2025-01-19T09:56:53Z</time>
      </trkpt>
      <trkpt lat="43.41396" lon="6.63622">
        <ele>223.9</ele>
        <time>2025-01-19T09:56:54Z</time>
      </trkpt>
      <trkpt lat="43.41396" lon="6.63621">
        <ele>224.1</ele>
        <time>2025-01-19T09:56:55Z</time>
      </trkpt>
      <trkpt lat="43.41395" lon="6.6362">
        <ele>224.2</ele>
        <time>2025-01-19T09:56:56Z</time>
      </trkpt>
      <trkpt lat="43.41394" lon="6.63618">
        <ele>224.2</ele>
        <time>2025-01-19T09:56:57Z</time>
      </trkpt>
      <trkpt lat="43.41394" lon="6.63618">
        <ele>224.2</ele>
        <time>2025-01-19T09:56:58Z</time>
      </trkpt>
      <trkpt lat="43.41393" lon="6.63617">
        <ele>224.3</ele>
        <time>2025-01-19T09:56:59Z</time>
      </trkpt>
      <trkpt lat="43.41392" lon="6.63616">
        <ele>224.3</ele>
        <time>2025-01-19T09:57:00Z</time>
      </trkpt>
      <trkpt lat="43.41391" lon="6.63614">
        <ele>224.4</ele>
        <time>2025-01-19T09:57:01Z</time>
      </trkpt>
      <trkpt lat="43.41391" lon="6.63613">
        <ele>224.3</ele>
        <time>2025-01-19T09:57:02Z</time>
      </trkpt>
      <trkpt lat="43.41391" lon="6.63612">
        <ele>224.3</ele>
        <time>2025-01-19T09:57:03Z</time>
      </trkpt>
      <trkpt lat="43.41391" lon="6.6361">
        <ele>224.3</ele>
        <time>2025-01-19T09:57:04Z</time>
      </trkpt>
      <trkpt lat="43.4139" lon="6.63609">
        <ele>224.4</ele>
        <time>2025-01-19T09:57:05Z</time>
      </trkpt>
      <trkpt lat="43.4139" lon="6.63607">
        <ele>224.4</ele>
        <time>2025-01-19T09:57:06Z</time>
      </trkpt>
      <trkpt lat="43.4139" lon="6.63605">
        <ele>224.5</ele>
        <time>2025-01-19T09:57:07Z</time>
      </trkpt>
      <trkpt lat="43.41389" lon="6.63603">
        <ele>224.5</ele>
        <time>2025-01-19T09:57:08Z</time>
      </trkpt>
      <trkpt lat="43.41389" lon="6.63601">
        <ele>224.5</ele>
        <time>2025-01-19T09:57:09Z</time>
      </trkpt>
      <trkpt lat="43.41389" lon="6.636">
        <ele>224.6</ele>
        <time>2025-01-19T09:57:10Z</time>
      </trkpt>
      <trkpt lat="43.41389" lon="6.63598">
        <ele>224.7</ele>
        <time>2025-01-19T09:57:11Z</time>
      </trkpt>
      <trkpt lat="43.41388" lon="6.63596">
        <ele>224.9</ele>
        <time>2025-01-19T09:57:12Z</time>
      </trkpt>
      <trkpt lat="43.41388" lon="6.63595">
        <ele>225</ele>
        <time>2025-01-19T09:57:13Z</time>
      </trkpt>
      <trkpt lat="43.41387" lon="6.63594">
        <ele>225.1</ele>
        <time>2025-01-19T09:57:14Z</time>
      </trkpt>
      <trkpt lat="43.41387" lon="6.63593">
        <ele>225.1</ele>
        <time>2025-01-19T09:57:15Z</time>
      </trkpt>
      <trkpt lat="43.41387" lon="6.63591">
        <ele>225.1</ele>
        <time>2025-01-19T09:57:16Z</time>
      </trkpt>
      <trkpt lat="43.41387" lon="6.6359">
        <ele>225.1</ele>
        <time>2025-01-19T09:57:17Z</time>
      </trkpt>
      <trkpt lat="43.41386" lon="6.63588">
        <ele>225.1</ele>
        <time>2025-01-19T09:57:18Z</time>
      </trkpt>
      <trkpt lat="43.41387" lon="6.63586">
        <ele>225.2</ele>
        <time>2025-01-19T09:57:19Z</time>
      </trkpt>
      <trkpt lat="43.41386" lon="6.63585">
        <ele>225.2</ele>
        <time>2025-01-19T09:57:20Z</time>
      </trkpt>
      <trkpt lat="43.41386" lon="6.63583">
        <ele>225.3</ele>
        <time>2025-01-19T09:57:21Z</time>
      </trkpt>
      <trkpt lat="43.41386" lon="6.63582">
        <ele>225.5</ele>
        <time>2025-01-19T09:57:22Z</time>
      </trkpt>
      <trkpt lat="43.41386" lon="6.63581">
        <ele>225.6</ele>
        <time>2025-01-19T09:57:23Z</time>
      </trkpt>
      <trkpt lat="43.41386" lon="6.63579">
        <ele>225.7</ele>
        <time>2025-01-19T09:57:24Z</time>
      </trkpt>
      <trkpt lat="43.41386" lon="6.63577">
        <ele>225.7</ele>
        <time>2025-01-19T09:57:25Z</time>
      </trkpt>
      <trkpt lat="43.41385" lon="6.63576">
        <ele>225.8</ele>
        <time>2025-01-19T09:57:26Z</time>
      </trkpt>
      <trkpt lat="43.41386" lon="6.63574">
        <ele>225.9</ele>
        <time>2025-01-19T09:57:27Z</time>
      </trkpt>
      <trkpt lat="43.41386" lon="6.63573">
        <ele>225.9</ele>
        <time>2025-01-19T09:57:28Z</time>
      </trkpt>
      <trkpt lat="43.41385" lon="6.63571">
        <ele>226</ele>
        <time>2025-01-19T09:57:29Z</time>
      </trkpt>
      <trkpt lat="43.41385" lon="6.63569">
        <ele>226</ele>
        <time>2025-01-19T09:57:30Z</time>
      </trkpt>
      <trkpt lat="43.41384" lon="6.63568">
        <ele>226</ele>
        <time>2025-01-19T09:57:31Z</time>
      </trkpt>
      <trkpt lat="43.41384" lon="6.63567">
        <ele>226.3</ele>
        <time>2025-01-19T09:57:32Z</time>
      </trkpt>
      <trkpt lat="43.41384" lon="6.63565">
        <ele>226.3</ele>
        <time>2025-01-19T09:57:33Z</time>
      </trkpt>
      <trkpt lat="43.41383" lon="6.63564">
        <ele>226.3</ele>
        <time>2025-01-19T09:57:34Z</time>
      </trkpt>
      <trkpt lat="43.41383" lon="6.63562">
        <ele>226.3</ele>
        <time>2025-01-19T09:57:35Z</time>
      </trkpt>
      <trkpt lat="43.41382" lon="6.63561">
        <ele>226.3</ele>
        <time>2025-01-19T09:57:36Z</time>
      </trkpt>
      <trkpt lat="43.41381" lon="6.6356">
        <ele>226.3</ele>
        <time>2025-01-19T09:57:37Z</time>
      </trkpt>
      <trkpt lat="43.41381" lon="6.63559">
        <ele>226.3</ele>
        <time>2025-01-19T09:57:38Z</time>
      </trkpt>
      <trkpt lat="43.41381" lon="6.63558">
        <ele>226.4</ele>
        <time>2025-01-19T09:57:39Z</time>
      </trkpt>
      <trkpt lat="43.4138" lon="6.63556">
        <ele>226.4</ele>
        <time>2025-01-19T09:57:40Z</time>
      </trkpt>
      <trkpt lat="43.4138" lon="6.63555">
        <ele>226.5</ele>
        <time>2025-01-19T09:57:41Z</time>
      </trkpt>
      <trkpt lat="43.41379" lon="6.63554">
        <ele>226.5</ele>
        <time>2025-01-19T09:57:42Z</time>
      </trkpt>
      <trkpt lat="43.41379" lon="6.63553">
        <ele>226.6</ele>
        <time>2025-01-19T09:57:43Z</time>
      </trkpt>
      <trkpt lat="43.41379" lon="6.63551">
        <ele>226.6</ele>
        <time>2025-01-19T09:57:44Z</time>
      </trkpt>
      <trkpt lat="43.41378" lon="6.6355">
        <ele>226.6</ele>
        <time>2025-01-19T09:57:45Z</time>
      </trkpt>
      <trkpt lat="43.41378" lon="6.63549">
        <ele>226.7</ele>
        <time>2025-01-19T09:57:46Z</time>
      </trkpt>
      <trkpt lat="43.41378" lon="6.63547">
        <ele>226.7</ele>
        <time>2025-01-19T09:57:47Z</time>
      </trkpt>
      <trkpt lat="43.41378" lon="6.63546">
        <ele>226.7</ele>
        <time>2025-01-19T09:57:48Z</time>
      </trkpt>
      <trkpt lat="43.41378" lon="6.63546">
        <ele>226.7</ele>
        <time>2025-01-19T09:57:49Z</time>
      </trkpt>
      <trkpt lat="43.41378" lon="6.63546">
        <ele>226.8</ele>
        <time>2025-01-19T09:57:50Z</time>
      </trkpt>
      <trkpt lat="43.41378" lon="6.63546">
        <ele>226.7</ele>
        <time>2025-01-19T09:57:51Z</time>
      </trkpt>
      <trkpt lat="43.41378" lon="6.63546">
        <ele>226.7</ele>
        <time>2025-01-19T09:57:52Z</time>
      </trkpt>
      <trkpt lat="43.41378" lon="6.63546">
        <ele>226.8</ele>
        <time>2025-01-19T09:57:53Z</time>
      </trkpt>
      <trkpt lat="43.41378" lon="6.63546">
        <ele>226.8</ele>
        <time>2025-01-19T09:57:54Z</time>
      </trkpt>
      <trkpt lat="43.41378" lon="6.63546">
        <ele>226.8</ele>
        <time>2025-01-19T09:57:55Z</time>
      </trkpt>
      <trkpt lat="43.41378" lon="6.63546">
        <ele>226.8</ele>
        <time>2025-01-19T09:57:56Z</time>
      </trkpt>
      <trkpt lat="43.41377" lon="6.63545">
        <ele>226.9</ele>
        <time>2025-01-19T09:57:57Z</time>
      </trkpt>
      <trkpt lat="43.41377" lon="6.63544">
        <ele>226.9</ele>
        <time>2025-01-19T09:57:58Z</time>
      </trkpt>
      <trkpt lat="43.41376" lon="6.63543">
        <ele>226.9</ele>
        <time>2025-01-19T09:57:59Z</time>
      </trkpt>
      <trkpt lat="43.41376" lon="6.63542">
        <ele>227</ele>
        <time>2025-01-19T09:58:00Z</time>
      </trkpt>
      <trkpt lat="43.41376" lon="6.63541">
        <ele>227</ele>
        <time>2025-01-19T09:58:01Z</time>
      </trkpt>
      <trkpt lat="43.41375" lon="6.6354">
        <ele>226.9</ele>
        <time>2025-01-19T09:58:02Z</time>
      </trkpt>
      <trkpt lat="43.41375" lon="6.63539">
        <ele>226.9</ele>
        <time>2025-01-19T09:58:03Z</time>
      </trkpt>
      <trkpt lat="43.41374" lon="6.63537">
        <ele>226.8</ele>
        <time>2025-01-19T09:58:04Z</time>
      </trkpt>
      <trkpt lat="43.41374" lon="6.63536">
        <ele>226.9</ele>
        <time>2025-01-19T09:58:05Z</time>
      </trkpt>
      <trkpt lat="43.41373" lon="6.63535">
        <ele>226.9</ele>
        <time>2025-01-19T09:58:06Z</time>
      </trkpt>
      <trkpt lat="43.41373" lon="6.63534">
        <ele>227</ele>
        <time>2025-01-19T09:58:07Z</time>
      </trkpt>
      <trkpt lat="43.41372" lon="6.63532">
        <ele>227.1</ele>
        <time>2025-01-19T09:58:08Z</time>
      </trkpt>
      <trkpt lat="43.41372" lon="6.63531">
        <ele>227.2</ele>
        <time>2025-01-19T09:58:09Z</time>
      </trkpt>
      <trkpt lat="43.41372" lon="6.6353">
        <ele>227.3</ele>
        <time>2025-01-19T09:58:10Z</time>
      </trkpt>
      <trkpt lat="43.41372" lon="6.63528">
        <ele>227.4</ele>
        <time>2025-01-19T09:58:11Z</time>
      </trkpt>
      <trkpt lat="43.41371" lon="6.63527">
        <ele>227.3</ele>
        <time>2025-01-19T09:58:12Z</time>
      </trkpt>
      <trkpt lat="43.41371" lon="6.63525">
        <ele>227.3</ele>
        <time>2025-01-19T09:58:13Z</time>
      </trkpt>
      <trkpt lat="43.4137" lon="6.63524">
        <ele>227.3</ele>
        <time>2025-01-19T09:58:14Z</time>
      </trkpt>
      <trkpt lat="43.4137" lon="6.63523">
        <ele>227.2</ele>
        <time>2025-01-19T09:58:15Z</time>
      </trkpt>
      <trkpt lat="43.4137" lon="6.63521">
        <ele>227.2</ele>
        <time>2025-01-19T09:58:16Z</time>
      </trkpt>
      <trkpt lat="43.4137" lon="6.6352">
        <ele>227.3</ele>
        <time>2025-01-19T09:58:17Z</time>
      </trkpt>
      <trkpt lat="43.41369" lon="6.63518">
        <ele>227.3</ele>
        <time>2025-01-19T09:58:18Z</time>
      </trkpt>
      <trkpt lat="43.41369" lon="6.63516">
        <ele>227.5</ele>
        <time>2025-01-19T09:58:19Z</time>
      </trkpt>
      <trkpt lat="43.4137" lon="6.63514">
        <ele>227.4</ele>
        <time>2025-01-19T09:58:20Z</time>
      </trkpt>
      <trkpt lat="43.41369" lon="6.63512">
        <ele>227.4</ele>
        <time>2025-01-19T09:58:21Z</time>
      </trkpt>
      <trkpt lat="43.41369" lon="6.63511">
        <ele>227.4</ele>
        <time>2025-01-19T09:58:22Z</time>
      </trkpt>
      <trkpt lat="43.41369" lon="6.6351">
        <ele>227.5</ele>
        <time>2025-01-19T09:58:23Z</time>
      </trkpt>
      <trkpt lat="43.41369" lon="6.6351">
        <ele>227.5</ele>
        <time>2025-01-19T09:58:24Z</time>
      </trkpt>
      <trkpt lat="43.41369" lon="6.6351">
        <ele>227.6</ele>
        <time>2025-01-19T09:58:25Z</time>
      </trkpt>
      <trkpt lat="43.41369" lon="6.6351">
        <ele>227.6</ele>
        <time>2025-01-19T09:58:26Z</time>
      </trkpt>
      <trkpt lat="43.41369" lon="6.6351">
        <ele>227.7</ele>
        <time>2025-01-19T09:58:27Z</time>
      </trkpt>
      <trkpt lat="43.41369" lon="6.6351">
        <ele>227.9</ele>
        <time>2025-01-19T09:58:28Z</time>
      </trkpt>
      <trkpt lat="43.41369" lon="6.6351">
        <ele>227.8</ele>
        <time>2025-01-19T09:58:29Z</time>
      </trkpt>
      <trkpt lat="43.41369" lon="6.6351">
        <ele>227.8</ele>
        <time>2025-01-19T09:58:30Z</time>
      </trkpt>
      <trkpt lat="43.41369" lon="6.6351">
        <ele>227.8</ele>
        <time>2025-01-19T09:58:31Z</time>
      </trkpt>
      <trkpt lat="43.41369" lon="6.6351">
        <ele>227.9</ele>
        <time>2025-01-19T09:58:32Z</time>
      </trkpt>
      <trkpt lat="43.41369" lon="6.6351">
        <ele>227.9</ele>
        <time>2025-01-19T09:58:33Z</time>
      </trkpt>
      <trkpt lat="43.41369" lon="6.6351">
        <ele>227.9</ele>
        <time>2025-01-19T09:58:34Z</time>
      </trkpt>
      <trkpt lat="43.41369" lon="6.63511">
        <ele>228</ele>
        <time>2025-01-19T09:58:35Z</time>
      </trkpt>
      <trkpt lat="43.41369" lon="6.6351">
        <ele>228.1</ele>
        <time>2025-01-19T09:58:36Z</time>
      </trkpt>
      <trkpt lat="43.41369" lon="6.6351">
        <ele>228.1</ele>
        <time>2025-01-19T09:58:37Z</time>
      </trkpt>
      <trkpt lat="43.41369" lon="6.6351">
        <ele>228.1</ele>
        <time>2025-01-19T09:58:38Z</time>
      </trkpt>
      <trkpt lat="43.41369" lon="6.6351">
        <ele>228</ele>
        <time>2025-01-19T09:58:39Z</time>
      </trkpt>
      <trkpt lat="43.41369" lon="6.63509">
        <ele>228</ele>
        <time>2025-01-19T09:58:40Z</time>
      </trkpt>
      <trkpt lat="43.41369" lon="6.63507">
        <ele>228</ele>
        <time>2025-01-19T09:58:41Z</time>
      </trkpt>
      <trkpt lat="43.41369" lon="6.63506">
        <ele>227.9</ele>
        <time>2025-01-19T09:58:42Z</time>
      </trkpt>
      <trkpt lat="43.41369" lon="6.63504">
        <ele>227.9</ele>
        <time>2025-01-19T09:58:43Z</time>
      </trkpt>
      <trkpt lat="43.41369" lon="6.63503">
        <ele>227.9</ele>
        <time>2025-01-19T09:58:44Z</time>
      </trkpt>
      <trkpt lat="43.41369" lon="6.63501">
        <ele>227.9</ele>
        <time>2025-01-19T09:58:45Z</time>
      </trkpt>
      <trkpt lat="43.41368" lon="6.63499">
        <ele>228</ele>
        <time>2025-01-19T09:58:46Z</time>
      </trkpt>
      <trkpt lat="43.41368" lon="6.63498">
        <ele>228</ele>
        <time>2025-01-19T09:58:47Z</time>
      </trkpt>
      <trkpt lat="43.41368" lon="6.63496">
        <ele>228</ele>
        <time>2025-01-19T09:58:48Z</time>
      </trkpt>
      <trkpt lat="43.41367" lon="6.63495">
        <ele>228.1</ele>
        <time>2025-01-19T09:58:49Z</time>
      </trkpt>
      <trkpt lat="43.41367" lon="6.63493">
        <ele>228.1</ele>
        <time>2025-01-19T09:58:50Z</time>
      </trkpt>
      <trkpt lat="43.41366" lon="6.63492">
        <ele>228.1</ele>
        <time>2025-01-19T09:58:51Z</time>
      </trkpt>
      <trkpt lat="43.41366" lon="6.6349">
        <ele>228.1</ele>
        <time>2025-01-19T09:58:52Z</time>
      </trkpt>
      <trkpt lat="43.41366" lon="6.63489">
        <ele>228.2</ele>
        <time>2025-01-19T09:58:53Z</time>
      </trkpt>
      <trkpt lat="43.41366" lon="6.63487">
        <ele>228.3</ele>
        <time>2025-01-19T09:58:54Z</time>
      </trkpt>
      <trkpt lat="43.41366" lon="6.63486">
        <ele>228.4</ele>
        <time>2025-01-19T09:58:55Z</time>
      </trkpt>
      <trkpt lat="43.41365" lon="6.63485">
        <ele>228.5</ele>
        <time>2025-01-19T09:58:56Z</time>
      </trkpt>
      <trkpt lat="43.41365" lon="6.63483">
        <ele>228.6</ele>
        <time>2025-01-19T09:58:57Z</time>
      </trkpt>
      <trkpt lat="43.41364" lon="6.63481">
        <ele>228.7</ele>
        <time>2025-01-19T09:58:58Z</time>
      </trkpt>
      <trkpt lat="43.41364" lon="6.6348">
        <ele>228.9</ele>
        <time>2025-01-19T09:58:59Z</time>
      </trkpt>
      <trkpt lat="43.41364" lon="6.63478">
        <ele>228.9</ele>
        <time>2025-01-19T09:59:00Z</time>
      </trkpt>
      <trkpt lat="43.41363" lon="6.63476">
        <ele>229</ele>
        <time>2025-01-19T09:59:01Z</time>
      </trkpt>
      <trkpt lat="43.41362" lon="6.63475">
        <ele>229</ele>
        <time>2025-01-19T09:59:02Z</time>
      </trkpt>
      <trkpt lat="43.41362" lon="6.63473">
        <ele>228.9</ele>
        <time>2025-01-19T09:59:03Z</time>
      </trkpt>
      <trkpt lat="43.41362" lon="6.63471">
        <ele>228.9</ele>
        <time>2025-01-19T09:59:04Z</time>
      </trkpt>
      <trkpt lat="43.41362" lon="6.6347">
        <ele>229</ele>
        <time>2025-01-19T09:59:05Z</time>
      </trkpt>
      <trkpt lat="43.41361" lon="6.63468">
        <ele>229.1</ele>
        <time>2025-01-19T09:59:06Z</time>
      </trkpt>
      <trkpt lat="43.4136" lon="6.63466">
        <ele>229.2</ele>
        <time>2025-01-19T09:59:07Z</time>
      </trkpt>
      <trkpt lat="43.4136" lon="6.63464">
        <ele>229.3</ele>
        <time>2025-01-19T09:59:08Z</time>
      </trkpt>
      <trkpt lat="43.4136" lon="6.63463">
        <ele>229.3</ele>
        <time>2025-01-19T09:59:09Z</time>
      </trkpt>
      <trkpt lat="43.4136" lon="6.63461">
        <ele>229.4</ele>
        <time>2025-01-19T09:59:10Z</time>
      </trkpt>
      <trkpt lat="43.41359" lon="6.63459">
        <ele>229.5</ele>
        <time>2025-01-19T09:59:11Z</time>
      </trkpt>
      <trkpt lat="43.41359" lon="6.63458">
        <ele>229.5</ele>
        <time>2025-01-19T09:59:12Z</time>
      </trkpt>
      <trkpt lat="43.41359" lon="6.63456">
        <ele>229.5</ele>
        <time>2025-01-19T09:59:13Z</time>
      </trkpt>
      <trkpt lat="43.41359" lon="6.63455">
        <ele>229.6</ele>
        <time>2025-01-19T09:59:14Z</time>
      </trkpt>
      <trkpt lat="43.41359" lon="6.63453">
        <ele>229.6</ele>
        <time>2025-01-19T09:59:15Z</time>
      </trkpt>
      <trkpt lat="43.41358" lon="6.63452">
        <ele>229.7</ele>
        <time>2025-01-19T09:59:16Z</time>
      </trkpt>
      <trkpt lat="43.41357" lon="6.6345">
        <ele>229.7</ele>
        <time>2025-01-19T09:59:17Z</time>
      </trkpt>
      <trkpt lat="43.41356" lon="6.63448">
        <ele>229.8</ele>
        <time>2025-01-19T09:59:18Z</time>
      </trkpt>
      <trkpt lat="43.41356" lon="6.63447">
        <ele>229.9</ele>
        <time>2025-01-19T09:59:19Z</time>
      </trkpt>
      <trkpt lat="43.41356" lon="6.63445">
        <ele>230</ele>
        <time>2025-01-19T09:59:20Z</time>
      </trkpt>
      <trkpt lat="43.41356" lon="6.63442">
        <ele>230</ele>
        <time>2025-01-19T09:59:21Z</time>
      </trkpt>
      <trkpt lat="43.41356" lon="6.6344">
        <ele>230.1</ele>
        <time>2025-01-19T09:59:22Z</time>
      </trkpt>
      <trkpt lat="43.41356" lon="6.63439">
        <ele>230.2</ele>
        <time>2025-01-19T09:59:23Z</time>
      </trkpt>
      <trkpt lat="43.41355" lon="6.63437">
        <ele>230.2</ele>
        <time>2025-01-19T09:59:24Z</time>
      </trkpt>
      <trkpt lat="43.41355" lon="6.63435">
        <ele>230.4</ele>
        <time>2025-01-19T09:59:25Z</time>
      </trkpt>
      <trkpt lat="43.41355" lon="6.63433">
        <ele>230.5</ele>
        <time>2025-01-19T09:59:26Z</time>
      </trkpt>
      <trkpt lat="43.41354" lon="6.63432">
        <ele>230.6</ele>
        <time>2025-01-19T09:59:27Z</time>
      </trkpt>
      <trkpt lat="43.41353" lon="6.6343">
        <ele>230.7</ele>
        <time>2025-01-19T09:59:28Z</time>
      </trkpt>
      <trkpt lat="43.41352" lon="6.63428">
        <ele>230.8</ele>
        <time>2025-01-19T09:59:29Z</time>
      </trkpt>
      <trkpt lat="43.41352" lon="6.63426">
        <ele>230.9</ele>
        <time>2025-01-19T09:59:30Z</time>
      </trkpt>
      <trkpt lat="43.41352" lon="6.63425">
        <ele>230.9</ele>
        <time>2025-01-19T09:59:31Z</time>
      </trkpt>
      <trkpt lat="43.41351" lon="6.63423">
        <ele>231</ele>
        <time>2025-01-19T09:59:32Z</time>
      </trkpt>
      <trkpt lat="43.41351" lon="6.63421">
        <ele>231.1</ele>
        <time>2025-01-19T09:59:33Z</time>
      </trkpt>
      <trkpt lat="43.4135" lon="6.6342">
        <ele>231.2</ele>
        <time>2025-01-19T09:59:34Z</time>
      </trkpt>
      <trkpt lat="43.4135" lon="6.63418">
        <ele>231.2</ele>
        <time>2025-01-19T09:59:35Z</time>
      </trkpt>
      <trkpt lat="43.4135" lon="6.63417">
        <ele>231.3</ele>
        <time>2025-01-19T09:59:36Z</time>
      </trkpt>
      <trkpt lat="43.4135" lon="6.63415">
        <ele>231.3</ele>
        <time>2025-01-19T09:59:37Z</time>
      </trkpt>
      <trkpt lat="43.41349" lon="6.63413">
        <ele>231.3</ele>
        <time>2025-01-19T09:59:38Z</time>
      </trkpt>
      <trkpt lat="43.41349" lon="6.63412">
        <ele>231.4</ele>
        <time>2025-01-19T09:59:39Z</time>
      </trkpt>
      <trkpt lat="43.4135" lon="6.6341">
        <ele>231.5</ele>
        <time>2025-01-19T09:59:40Z</time>
      </trkpt>
      <trkpt lat="43.4135" lon="6.63408">
        <ele>231.5</ele>
        <time>2025-01-19T09:59:41Z</time>
      </trkpt>
      <trkpt lat="43.4135" lon="6.63406">
        <ele>231.6</ele>
        <time>2025-01-19T09:59:42Z</time>
      </trkpt>
      <trkpt lat="43.4135" lon="6.63405">
        <ele>231.6</ele>
        <time>2025-01-19T09:59:43Z</time>
      </trkpt>
      <trkpt lat="43.41349" lon="6.63403">
        <ele>231.7</ele>
        <time>2025-01-19T09:59:44Z</time>
      </trkpt>
      <trkpt lat="43.41349" lon="6.63402">
        <ele>231.7</ele>
        <time>2025-01-19T09:59:45Z</time>
      </trkpt>
      <trkpt lat="43.41348" lon="6.634">
        <ele>231.7</ele>
        <time>2025-01-19T09:59:46Z</time>
      </trkpt>
      <trkpt lat="43.41348" lon="6.63398">
        <ele>231.7</ele>
        <time>2025-01-19T09:59:47Z</time>
      </trkpt>
      <trkpt lat="43.41348" lon="6.63397">
        <ele>231.7</ele>
        <time>2025-01-19T09:59:48Z</time>
      </trkpt>
      <trkpt lat="43.41348" lon="6.63396">
        <ele>231.8</ele>
        <time>2025-01-19T09:59:49Z</time>
      </trkpt>
      <trkpt lat="43.41348" lon="6.63394">
        <ele>231.8</ele>
        <time>2025-01-19T09:59:50Z</time>
      </trkpt>
      <trkpt lat="43.41347" lon="6.63393">
        <ele>231.9</ele>
        <time>2025-01-19T09:59:51Z</time>
      </trkpt>
      <trkpt lat="43.41346" lon="6.63392">
        <ele>232</ele>
        <time>2025-01-19T09:59:52Z</time>
      </trkpt>
      <trkpt lat="43.41345" lon="6.63391">
        <ele>232.1</ele>
        <time>2025-01-19T09:59:53Z</time>
      </trkpt>
      <trkpt lat="43.41345" lon="6.6339">
        <ele>232.2</ele>
        <time>2025-01-19T09:59:54Z</time>
      </trkpt>
      <trkpt lat="43.41344" lon="6.63389">
        <ele>232.2</ele>
        <time>2025-01-19T09:59:55Z</time>
      </trkpt>
      <trkpt lat="43.41343" lon="6.63387">
        <ele>232.3</ele>
        <time>2025-01-19T09:59:56Z</time>
      </trkpt>
      <trkpt lat="43.41342" lon="6.63385">
        <ele>232.3</ele>
        <time>2025-01-19T09:59:57Z</time>
      </trkpt>
      <trkpt lat="43.41342" lon="6.63384">
        <ele>232.4</ele>
        <time>2025-01-19T09:59:58Z</time>
      </trkpt>
      <trkpt lat="43.41341" lon="6.63383">
        <ele>232.5</ele>
        <time>2025-01-19T09:59:59Z</time>
      </trkpt>
      <trkpt lat="43.41341" lon="6.63381">
        <ele>232.6</ele>
        <time>2025-01-19T10:00:00Z</time>
      </trkpt>
      <trkpt lat="43.4134" lon="6.6338">
        <ele>232.6</ele>
        <time>2025-01-19T10:00:01Z</time>
      </trkpt>
      <trkpt lat="43.41339" lon="6.63378">
        <ele>232.8</ele>
        <time>2025-01-19T10:00:02Z</time>
      </trkpt>
      <trkpt lat="43.41338" lon="6.63377">
        <ele>232.9</ele>
        <time>2025-01-19T10:00:03Z</time>
      </trkpt>
      <trkpt lat="43.41337" lon="6.63376">
        <ele>233.1</ele>
        <time>2025-01-19T10:00:04Z</time>
      </trkpt>
      <trkpt lat="43.41336" lon="6.63375">
        <ele>233.1</ele>
        <time>2025-01-19T10:00:05Z</time>
      </trkpt>
      <trkpt lat="43.41336" lon="6.63373">
        <ele>233.2</ele>
        <time>2025-01-19T10:00:06Z</time>
      </trkpt>
      <trkpt lat="43.41335" lon="6.63371">
        <ele>233.3</ele>
        <time>2025-01-19T10:00:07Z</time>
      </trkpt>
      <trkpt lat="43.41335" lon="6.6337">
        <ele>233.4</ele>
        <time>2025-01-19T10:00:08Z</time>
      </trkpt>
      <trkpt lat="43.41334" lon="6.63369">
        <ele>233.4</ele>
        <time>2025-01-19T10:00:09Z</time>
      </trkpt>
      <trkpt lat="43.41333" lon="6.63367">
        <ele>233.4</ele>
        <time>2025-01-19T10:00:10Z</time>
      </trkpt>
      <trkpt lat="43.41332" lon="6.63366">
        <ele>233.4</ele>
        <time>2025-01-19T10:00:11Z</time>
      </trkpt>
      <trkpt lat="43.41331" lon="6.63364">
        <ele>233.5</ele>
        <time>2025-01-19T10:00:12Z</time>
      </trkpt>
      <trkpt lat="43.4133" lon="6.63363">
        <ele>233.6</ele>
        <time>2025-01-19T10:00:13Z</time>
      </trkpt>
      <trkpt lat="43.4133" lon="6.63362">
        <ele>233.7</ele>
        <time>2025-01-19T10:00:14Z</time>
      </trkpt>
      <trkpt lat="43.41329" lon="6.6336">
        <ele>233.7</ele>
        <time>2025-01-19T10:00:15Z</time>
      </trkpt>
      <trkpt lat="43.41329" lon="6.63359">
        <ele>233.8</ele>
        <time>2025-01-19T10:00:16Z</time>
      </trkpt>
      <trkpt lat="43.41328" lon="6.63358">
        <ele>234</ele>
        <time>2025-01-19T10:00:17Z</time>
      </trkpt>
      <trkpt lat="43.41328" lon="6.63357">
        <ele>234.1</ele>
        <time>2025-01-19T10:00:18Z</time>
      </trkpt>
      <trkpt lat="43.41327" lon="6.63356">
        <ele>234.2</ele>
        <time>2025-01-19T10:00:19Z</time>
      </trkpt>
      <trkpt lat="43.41326" lon="6.63355">
        <ele>234.2</ele>
        <time>2025-01-19T10:00:20Z</time>
      </trkpt>
      <trkpt lat="43.41325" lon="6.63354">
        <ele>234.2</ele>
        <time>2025-01-19T10:00:21Z</time>
      </trkpt>
      <trkpt lat="43.41324" lon="6.63353">
        <ele>234.2</ele>
        <time>2025-01-19T10:00:22Z</time>
      </trkpt>
      <trkpt lat="43.41323" lon="6.63352">
        <ele>234.3</ele>
        <time>2025-01-19T10:00:23Z</time>
      </trkpt>
      <trkpt lat="43.41323" lon="6.6335">
        <ele>234.5</ele>
        <time>2025-01-19T10:00:24Z</time>
      </trkpt>
      <trkpt lat="43.41322" lon="6.63349">
        <ele>234.6</ele>
        <time>2025-01-19T10:00:25Z</time>
      </trkpt>
      <trkpt lat="43.41321" lon="6.63348">
        <ele>234.6</ele>
        <time>2025-01-19T10:00:26Z</time>
      </trkpt>
      <trkpt lat="43.4132" lon="6.63347">
        <ele>234.6</ele>
        <time>2025-01-19T10:00:27Z</time>
      </trkpt>
      <trkpt lat="43.41319" lon="6.63345">
        <ele>234.7</ele>
        <time>2025-01-19T10:00:28Z</time>
      </trkpt>
      <trkpt lat="43.41318" lon="6.63344">
        <ele>234.7</ele>
        <time>2025-01-19T10:00:29Z</time>
      </trkpt>
      <trkpt lat="43.41318" lon="6.63343">
        <ele>234.7</ele>
        <time>2025-01-19T10:00:30Z</time>
      </trkpt>
      <trkpt lat="43.41317" lon="6.63342">
        <ele>234.7</ele>
        <time>2025-01-19T10:00:31Z</time>
      </trkpt>
      <trkpt lat="43.41316" lon="6.63341">
        <ele>234.7</ele>
        <time>2025-01-19T10:00:32Z</time>
      </trkpt>
      <trkpt lat="43.41315" lon="6.6334">
        <ele>234.9</ele>
        <time>2025-01-19T10:00:33Z</time>
      </trkpt>
      <trkpt lat="43.41314" lon="6.63339">
        <ele>234.9</ele>
        <time>2025-01-19T10:00:34Z</time>
      </trkpt>
      <trkpt lat="43.41313" lon="6.63338">
        <ele>234.9</ele>
        <time>2025-01-19T10:00:35Z</time>
      </trkpt>
      <trkpt lat="43.41313" lon="6.63336">
        <ele>235</ele>
        <time>2025-01-19T10:00:36Z</time>
      </trkpt>
      <trkpt lat="43.41312" lon="6.63335">
        <ele>235.1</ele>
        <time>2025-01-19T10:00:37Z</time>
      </trkpt>
      <trkpt lat="43.41311" lon="6.63334">
        <ele>235</ele>
        <time>2025-01-19T10:00:38Z</time>
      </trkpt>
      <trkpt lat="43.41311" lon="6.63333">
        <ele>235.2</ele>
        <time>2025-01-19T10:00:39Z</time>
      </trkpt>
      <trkpt lat="43.4131" lon="6.63331">
        <ele>235.3</ele>
        <time>2025-01-19T10:00:40Z</time>
      </trkpt>
      <trkpt lat="43.41309" lon="6.6333">
        <ele>235.4</ele>
        <time>2025-01-19T10:00:41Z</time>
      </trkpt>
      <trkpt lat="43.41308" lon="6.63329">
        <ele>235.5</ele>
        <time>2025-01-19T10:00:42Z</time>
      </trkpt>
      <trkpt lat="43.41307" lon="6.63328">
        <ele>235.6</ele>
        <time>2025-01-19T10:00:43Z</time>
      </trkpt>
      <trkpt lat="43.41306" lon="6.63327">
        <ele>235.6</ele>
        <time>2025-01-19T10:00:44Z</time>
      </trkpt>
      <trkpt lat="43.41305" lon="6.63326">
        <ele>235.6</ele>
        <time>2025-01-19T10:00:45Z</time>
      </trkpt>
      <trkpt lat="43.41305" lon="6.63325">
        <ele>235.7</ele>
        <time>2025-01-19T10:00:46Z</time>
      </trkpt>
      <trkpt lat="43.41304" lon="6.63324">
        <ele>235.8</ele>
        <time>2025-01-19T10:00:47Z</time>
      </trkpt>
      <trkpt lat="43.41304" lon="6.63322">
        <ele>236</ele>
        <time>2025-01-19T10:00:48Z</time>
      </trkpt>
      <trkpt lat="43.41303" lon="6.6332">
        <ele>236.1</ele>
        <time>2025-01-19T10:00:49Z</time>
      </trkpt>
      <trkpt lat="43.41303" lon="6.63319">
        <ele>236.2</ele>
        <time>2025-01-19T10:00:50Z</time>
      </trkpt>
      <trkpt lat="43.41302" lon="6.63318">
        <ele>236.3</ele>
        <time>2025-01-19T10:00:51Z</time>
      </trkpt>
      <trkpt lat="43.41301" lon="6.63316">
        <ele>236.3</ele>
        <time>2025-01-19T10:00:52Z</time>
      </trkpt>
      <trkpt lat="43.41301" lon="6.63315">
        <ele>236.4</ele>
        <time>2025-01-19T10:00:53Z</time>
      </trkpt>
      <trkpt lat="43.413" lon="6.63313">
        <ele>236.4</ele>
        <time>2025-01-19T10:00:54Z</time>
      </trkpt>
      <trkpt lat="43.413" lon="6.63312">
        <ele>236.5</ele>
        <time>2025-01-19T10:00:55Z</time>
      </trkpt>
      <trkpt lat="43.41299" lon="6.63311">
        <ele>236.5</ele>
        <time>2025-01-19T10:00:56Z</time>
      </trkpt>
      <trkpt lat="43.41298" lon="6.63309">
        <ele>236.5</ele>
        <time>2025-01-19T10:00:57Z</time>
      </trkpt>
      <trkpt lat="43.41298" lon="6.63308">
        <ele>236.6</ele>
        <time>2025-01-19T10:00:58Z</time>
      </trkpt>
      <trkpt lat="43.41298" lon="6.63306">
        <ele>236.6</ele>
        <time>2025-01-19T10:00:59Z</time>
      </trkpt>
      <trkpt lat="43.41297" lon="6.63305">
        <ele>236.6</ele>
        <time>2025-01-19T10:01:00Z</time>
      </trkpt>
      <trkpt lat="43.41297" lon="6.63303">
        <ele>236.7</ele>
        <time>2025-01-19T10:01:01Z</time>
      </trkpt>
      <trkpt lat="43.41296" lon="6.63302">
        <ele>236.8</ele>
        <time>2025-01-19T10:01:02Z</time>
      </trkpt>
      <trkpt lat="43.41296" lon="6.633">
        <ele>236.9</ele>
        <time>2025-01-19T10:01:03Z</time>
      </trkpt>
      <trkpt lat="43.41295" lon="6.63299">
        <ele>237</ele>
        <time>2025-01-19T10:01:04Z</time>
      </trkpt>
      <trkpt lat="43.41295" lon="6.63297">
        <ele>237.1</ele>
        <time>2025-01-19T10:01:05Z</time>
      </trkpt>
      <trkpt lat="43.41294" lon="6.63296">
        <ele>237.2</ele>
        <time>2025-01-19T10:01:06Z</time>
      </trkpt>
      <trkpt lat="43.41294" lon="6.63294">
        <ele>237.2</ele>
        <time>2025-01-19T10:01:07Z</time>
      </trkpt>
      <trkpt lat="43.41294" lon="6.63293">
        <ele>237.2</ele>
        <time>2025-01-19T10:01:08Z</time>
      </trkpt>
      <trkpt lat="43.41293" lon="6.63291">
        <ele>237.3</ele>
        <time>2025-01-19T10:01:09Z</time>
      </trkpt>
      <trkpt lat="43.41293" lon="6.63289">
        <ele>237.3</ele>
        <time>2025-01-19T10:01:10Z</time>
      </trkpt>
      <trkpt lat="43.41293" lon="6.63288">
        <ele>237.4</ele>
        <time>2025-01-19T10:01:11Z</time>
      </trkpt>
      <trkpt lat="43.41293" lon="6.63286">
        <ele>237.5</ele>
        <time>2025-01-19T10:01:12Z</time>
      </trkpt>
      <trkpt lat="43.41292" lon="6.63285">
        <ele>237.5</ele>
        <time>2025-01-19T10:01:13Z</time>
      </trkpt>
      <trkpt lat="43.41292" lon="6.63283">
        <ele>237.6</ele>
        <time>2025-01-19T10:01:14Z</time>
      </trkpt>
      <trkpt lat="43.41291" lon="6.63282">
        <ele>237.6</ele>
        <time>2025-01-19T10:01:15Z</time>
      </trkpt>
      <trkpt lat="43.41291" lon="6.6328">
        <ele>237.6</ele>
        <time>2025-01-19T10:01:16Z</time>
      </trkpt>
      <trkpt lat="43.41291" lon="6.63279">
        <ele>237.7</ele>
        <time>2025-01-19T10:01:17Z</time>
      </trkpt>
      <trkpt lat="43.4129" lon="6.63278">
        <ele>237.7</ele>
        <time>2025-01-19T10:01:18Z</time>
      </trkpt>
      <trkpt lat="43.4129" lon="6.63276">
        <ele>237.9</ele>
        <time>2025-01-19T10:01:19Z</time>
      </trkpt>
      <trkpt lat="43.4129" lon="6.63275">
        <ele>238</ele>
        <time>2025-01-19T10:01:20Z</time>
      </trkpt>
      <trkpt lat="43.4129" lon="6.63273">
        <ele>238.2</ele>
        <time>2025-01-19T10:01:21Z</time>
      </trkpt>
      <trkpt lat="43.4129" lon="6.63272">
        <ele>238.3</ele>
        <time>2025-01-19T10:01:22Z</time>
      </trkpt>
      <trkpt lat="43.4129" lon="6.6327">
        <ele>238.4</ele>
        <time>2025-01-19T10:01:23Z</time>
      </trkpt>
      <trkpt lat="43.4129" lon="6.63268">
        <ele>238.3</ele>
        <time>2025-01-19T10:01:24Z</time>
      </trkpt>
      <trkpt lat="43.4129" lon="6.63267">
        <ele>238.4</ele>
        <time>2025-01-19T10:01:25Z</time>
      </trkpt>
      <trkpt lat="43.41289" lon="6.63265">
        <ele>238.4</ele>
        <time>2025-01-19T10:01:26Z</time>
      </trkpt>
      <trkpt lat="43.41289" lon="6.63264">
        <ele>238.5</ele>
        <time>2025-01-19T10:01:27Z</time>
      </trkpt>
      <trkpt lat="43.41288" lon="6.63262">
        <ele>238.6</ele>
        <time>2025-01-19T10:01:28Z</time>
      </trkpt>
      <trkpt lat="43.41288" lon="6.63261">
        <ele>238.6</ele>
        <time>2025-01-19T10:01:29Z</time>
      </trkpt>
      <trkpt lat="43.41288" lon="6.63259">
        <ele>238.7</ele>
        <time>2025-01-19T10:01:30Z</time>
      </trkpt>
      <trkpt lat="43.41288" lon="6.63257">
        <ele>238.7</ele>
        <time>2025-01-19T10:01:31Z</time>
      </trkpt>
      <trkpt lat="43.41288" lon="6.63256">
        <ele>238.7</ele>
        <time>2025-01-19T10:01:32Z</time>
      </trkpt>
      <trkpt lat="43.41288" lon="6.63254">
        <ele>238.8</ele>
        <time>2025-01-19T10:01:33Z</time>
      </trkpt>
      <trkpt lat="43.41288" lon="6.63252">
        <ele>238.8</ele>
        <time>2025-01-19T10:01:34Z</time>
      </trkpt>
      <trkpt lat="43.41288" lon="6.63251">
        <ele>238.8</ele>
        <time>2025-01-19T10:01:35Z</time>
      </trkpt>
      <trkpt lat="43.41288" lon="6.63249">
        <ele>238.8</ele>
        <time>2025-01-19T10:01:36Z</time>
      </trkpt>
      <trkpt lat="43.41287" lon="6.63248">
        <ele>238.8</ele>
        <time>2025-01-19T10:01:37Z</time>
      </trkpt>
      <trkpt lat="43.41287" lon="6.63246">
        <ele>238.8</ele>
        <time>2025-01-19T10:01:38Z</time>
      </trkpt>
      <trkpt lat="43.41287" lon="6.63245">
        <ele>239</ele>
        <time>2025-01-19T10:01:39Z</time>
      </trkpt>
      <trkpt lat="43.41287" lon="6.63243">
        <ele>239.1</ele>
        <time>2025-01-19T10:01:40Z</time>
      </trkpt>
      <trkpt lat="43.41286" lon="6.63241">
        <ele>239.2</ele>
        <time>2025-01-19T10:01:41Z</time>
      </trkpt>
      <trkpt lat="43.41286" lon="6.6324">
        <ele>239.3</ele>
        <time>2025-01-19T10:01:42Z</time>
      </trkpt>
      <trkpt lat="43.41286" lon="6.63238">
        <ele>239.4</ele>
        <time>2025-01-19T10:01:43Z</time>
      </trkpt>
      <trkpt lat="43.41286" lon="6.63236">
        <ele>239.5</ele>
        <time>2025-01-19T10:01:44Z</time>
      </trkpt>
      <trkpt lat="43.41287" lon="6.63235">
        <ele>239.6</ele>
        <time>2025-01-19T10:01:45Z</time>
      </trkpt>
      <trkpt lat="43.41287" lon="6.63233">
        <ele>239.7</ele>
        <time>2025-01-19T10:01:46Z</time>
      </trkpt>
      <trkpt lat="43.41287" lon="6.63231">
        <ele>239.8</ele>
        <time>2025-01-19T10:01:47Z</time>
      </trkpt>
      <trkpt lat="43.41286" lon="6.6323">
        <ele>239.9</ele>
        <time>2025-01-19T10:01:48Z</time>
      </trkpt>
      <trkpt lat="43.41286" lon="6.63228">
        <ele>239.8</ele>
        <time>2025-01-19T10:01:49Z</time>
      </trkpt>
      <trkpt lat="43.41286" lon="6.63227">
        <ele>239.9</ele>
        <time>2025-01-19T10:01:50Z</time>
      </trkpt>
      <trkpt lat="43.41286" lon="6.63226">
        <ele>240</ele>
        <time>2025-01-19T10:01:51Z</time>
      </trkpt>
      <trkpt lat="43.41286" lon="6.63224">
        <ele>240</ele>
        <time>2025-01-19T10:01:52Z</time>
      </trkpt>
      <trkpt lat="43.41286" lon="6.63223">
        <ele>240.1</ele>
        <time>2025-01-19T10:01:53Z</time>
      </trkpt>
      <trkpt lat="43.41286" lon="6.63221">
        <ele>240.3</ele>
        <time>2025-01-19T10:01:54Z</time>
      </trkpt>
      <trkpt lat="43.41286" lon="6.6322">
        <ele>240.4</ele>
        <time>2025-01-19T10:01:55Z</time>
      </trkpt>
      <trkpt lat="43.41286" lon="6.63218">
        <ele>240.4</ele>
        <time>2025-01-19T10:01:56Z</time>
      </trkpt>
      <trkpt lat="43.41286" lon="6.63216">
        <ele>240.5</ele>
        <time>2025-01-19T10:01:57Z</time>
      </trkpt>
      <trkpt lat="43.41286" lon="6.63215">
        <ele>240.6</ele>
        <time>2025-01-19T10:01:58Z</time>
      </trkpt>
      <trkpt lat="43.41285" lon="6.63213">
        <ele>240.7</ele>
        <time>2025-01-19T10:01:59Z</time>
      </trkpt>
      <trkpt lat="43.41285" lon="6.63212">
        <ele>240.7</ele>
        <time>2025-01-19T10:02:00Z</time>
      </trkpt>
      <trkpt lat="43.41285" lon="6.6321">
        <ele>240.7</ele>
        <time>2025-01-19T10:02:01Z</time>
      </trkpt>
      <trkpt lat="43.41285" lon="6.63209">
        <ele>240.8</ele>
        <time>2025-01-19T10:02:02Z</time>
      </trkpt>
      <trkpt lat="43.41285" lon="6.63208">
        <ele>241</ele>
        <time>2025-01-19T10:02:03Z</time>
      </trkpt>
      <trkpt lat="43.41285" lon="6.63206">
        <ele>241.1</ele>
        <time>2025-01-19T10:02:04Z</time>
      </trkpt>
      <trkpt lat="43.41284" lon="6.63205">
        <ele>241.2</ele>
        <time>2025-01-19T10:02:05Z</time>
      </trkpt>
      <trkpt lat="43.41284" lon="6.63204">
        <ele>241.3</ele>
        <time>2025-01-19T10:02:06Z</time>
      </trkpt>
      <trkpt lat="43.41283" lon="6.63203">
        <ele>241.4</ele>
        <time>2025-01-19T10:02:07Z</time>
      </trkpt>
      <trkpt lat="43.41283" lon="6.63201">
        <ele>241.4</ele>
        <time>2025-01-19T10:02:08Z</time>
      </trkpt>
      <trkpt lat="43.41283" lon="6.632">
        <ele>241.4</ele>
        <time>2025-01-19T10:02:09Z</time>
      </trkpt>
      <trkpt lat="43.41283" lon="6.63198">
        <ele>241.5</ele>
        <time>2025-01-19T10:02:10Z</time>
      </trkpt>
      <trkpt lat="43.41283" lon="6.63196">
        <ele>241.5</ele>
        <time>2025-01-19T10:02:11Z</time>
      </trkpt>
      <trkpt lat="43.41282" lon="6.63194">
        <ele>241.5</ele>
        <time>2025-01-19T10:02:12Z</time>
      </trkpt>
      <trkpt lat="43.41282" lon="6.63193">
        <ele>241.6</ele>
        <time>2025-01-19T10:02:13Z</time>
      </trkpt>
      <trkpt lat="43.41281" lon="6.63191">
        <ele>241.6</ele>
        <time>2025-01-19T10:02:14Z</time>
      </trkpt>
      <trkpt lat="43.41281" lon="6.6319">
        <ele>241.7</ele>
        <time>2025-01-19T10:02:15Z</time>
      </trkpt>
      <trkpt lat="43.41281" lon="6.63189">
        <ele>241.8</ele>
        <time>2025-01-19T10:02:16Z</time>
      </trkpt>
      <trkpt lat="43.41281" lon="6.63187">
        <ele>241.8</ele>
        <time>2025-01-19T10:02:17Z</time>
      </trkpt>
      <trkpt lat="43.41281" lon="6.63186">
        <ele>242</ele>
        <time>2025-01-19T10:02:18Z</time>
      </trkpt>
      <trkpt lat="43.41281" lon="6.63184">
        <ele>242.2</ele>
        <time>2025-01-19T10:02:19Z</time>
      </trkpt>
      <trkpt lat="43.41281" lon="6.63182">
        <ele>242.4</ele>
        <time>2025-01-19T10:02:20Z</time>
      </trkpt>
      <trkpt lat="43.41282" lon="6.6318">
        <ele>242.4</ele>
        <time>2025-01-19T10:02:21Z</time>
      </trkpt>
      <trkpt lat="43.41281" lon="6.63179">
        <ele>242.5</ele>
        <time>2025-01-19T10:02:22Z</time>
      </trkpt>
      <trkpt lat="43.41281" lon="6.63177">
        <ele>242.6</ele>
        <time>2025-01-19T10:02:23Z</time>
      </trkpt>
      <trkpt lat="43.41281" lon="6.63176">
        <ele>242.7</ele>
        <time>2025-01-19T10:02:24Z</time>
      </trkpt>
      <trkpt lat="43.41281" lon="6.63174">
        <ele>242.9</ele>
        <time>2025-01-19T10:02:25Z</time>
      </trkpt>
      <trkpt lat="43.41281" lon="6.63172">
        <ele>243</ele>
        <time>2025-01-19T10:02:26Z</time>
      </trkpt>
      <trkpt lat="43.41281" lon="6.63171">
        <ele>243.1</ele>
        <time>2025-01-19T10:02:27Z</time>
      </trkpt>
      <trkpt lat="43.41281" lon="6.6317">
        <ele>243.3</ele>
        <time>2025-01-19T10:02:28Z</time>
      </trkpt>
      <trkpt lat="43.41281" lon="6.63168">
        <ele>243.3</ele>
        <time>2025-01-19T10:02:29Z</time>
      </trkpt>
      <trkpt lat="43.41281" lon="6.63166">
        <ele>243.4</ele>
        <time>2025-01-19T10:02:30Z</time>
      </trkpt>
      <trkpt lat="43.41281" lon="6.63165">
        <ele>243.4</ele>
        <time>2025-01-19T10:02:31Z</time>
      </trkpt>
      <trkpt lat="43.41281" lon="6.63163">
        <ele>243.5</ele>
        <time>2025-01-19T10:02:32Z</time>
      </trkpt>
      <trkpt lat="43.41281" lon="6.63161">
        <ele>243.6</ele>
        <time>2025-01-19T10:02:33Z</time>
      </trkpt>
      <trkpt lat="43.41281" lon="6.6316">
        <ele>243.7</ele>
        <time>2025-01-19T10:02:34Z</time>
      </trkpt>
      <trkpt lat="43.41282" lon="6.63158">
        <ele>243.7</ele>
        <time>2025-01-19T10:02:35Z</time>
      </trkpt>
      <trkpt lat="43.41282" lon="6.63157">
        <ele>243.8</ele>
        <time>2025-01-19T10:02:36Z</time>
      </trkpt>
      <trkpt lat="43.41282" lon="6.63155">
        <ele>243.9</ele>
        <time>2025-01-19T10:02:37Z</time>
      </trkpt>
      <trkpt lat="43.41282" lon="6.63153">
        <ele>243.9</ele>
        <time>2025-01-19T10:02:38Z</time>
      </trkpt>
      <trkpt lat="43.41282" lon="6.63152">
        <ele>244</ele>
        <time>2025-01-19T10:02:39Z</time>
      </trkpt>
      <trkpt lat="43.41282" lon="6.63151">
        <ele>244.1</ele>
        <time>2025-01-19T10:02:40Z</time>
      </trkpt>
      <trkpt lat="43.41282" lon="6.63149">
        <ele>244.2</ele>
        <time>2025-01-19T10:02:41Z</time>
      </trkpt>
      <trkpt lat="43.41282" lon="6.63147">
        <ele>244.2</ele>
        <time>2025-01-19T10:02:42Z</time>
      </trkpt>
      <trkpt lat="43.41283" lon="6.63145">
        <ele>244.1</ele>
        <time>2025-01-19T10:02:43Z</time>
      </trkpt>
      <trkpt lat="43.41283" lon="6.63144">
        <ele>244.3</ele>
        <time>2025-01-19T10:02:44Z</time>
      </trkpt>
      <trkpt lat="43.41284" lon="6.63142">
        <ele>244.4</ele>
        <time>2025-01-19T10:02:45Z</time>
      </trkpt>
      <trkpt lat="43.41284" lon="6.6314">
        <ele>244.4</ele>
        <time>2025-01-19T10:02:46Z</time>
      </trkpt>
      <trkpt lat="43.41285" lon="6.63139">
        <ele>244.5</ele>
        <time>2025-01-19T10:02:47Z</time>
      </trkpt>
      <trkpt lat="43.41285" lon="6.63137">
        <ele>244.6</ele>
        <time>2025-01-19T10:02:48Z</time>
      </trkpt>
      <trkpt lat="43.41285" lon="6.63135">
        <ele>244.6</ele>
        <time>2025-01-19T10:02:49Z</time>
      </trkpt>
      <trkpt lat="43.41286" lon="6.63134">
        <ele>244.7</ele>
        <time>2025-01-19T10:02:50Z</time>
      </trkpt>
      <trkpt lat="43.41286" lon="6.63132">
        <ele>244.7</ele>
        <time>2025-01-19T10:02:51Z</time>
      </trkpt>
      <trkpt lat="43.41286" lon="6.6313">
        <ele>244.7</ele>
        <time>2025-01-19T10:02:52Z</time>
      </trkpt>
      <trkpt lat="43.41286" lon="6.63129">
        <ele>244.7</ele>
        <time>2025-01-19T10:02:53Z</time>
      </trkpt>
      <trkpt lat="43.41287" lon="6.63127">
        <ele>244.6</ele>
        <time>2025-01-19T10:02:54Z</time>
      </trkpt>
      <trkpt lat="43.41287" lon="6.63125">
        <ele>244.6</ele>
        <time>2025-01-19T10:02:55Z</time>
      </trkpt>
      <trkpt lat="43.41288" lon="6.63123">
        <ele>244.6</ele>
        <time>2025-01-19T10:02:56Z</time>
      </trkpt>
      <trkpt lat="43.41287" lon="6.63122">
        <ele>244.7</ele>
        <time>2025-01-19T10:02:57Z</time>
      </trkpt>
      <trkpt lat="43.41287" lon="6.6312">
        <ele>244.7</ele>
        <time>2025-01-19T10:02:58Z</time>
      </trkpt>
      <trkpt lat="43.41287" lon="6.63118">
        <ele>244.8</ele>
        <time>2025-01-19T10:02:59Z</time>
      </trkpt>
      <trkpt lat="43.41287" lon="6.63117">
        <ele>244.9</ele>
        <time>2025-01-19T10:03:00Z</time>
      </trkpt>
      <trkpt lat="43.41287" lon="6.63115">
        <ele>244.9</ele>
        <time>2025-01-19T10:03:01Z</time>
      </trkpt>
      <trkpt lat="43.41286" lon="6.63113">
        <ele>244.9</ele>
        <time>2025-01-19T10:03:02Z</time>
      </trkpt>
      <trkpt lat="43.41286" lon="6.63112">
        <ele>245</ele>
        <time>2025-01-19T10:03:03Z</time>
      </trkpt>
      <trkpt lat="43.41286" lon="6.6311">
        <ele>245.1</ele>
        <time>2025-01-19T10:03:04Z</time>
      </trkpt>
      <trkpt lat="43.41286" lon="6.63108">
        <ele>245.1</ele>
        <time>2025-01-19T10:03:05Z</time>
      </trkpt>
      <trkpt lat="43.41285" lon="6.63107">
        <ele>245.1</ele>
        <time>2025-01-19T10:03:06Z</time>
      </trkpt>
      <trkpt lat="43.41285" lon="6.63106">
        <ele>245.1</ele>
        <time>2025-01-19T10:03:07Z</time>
      </trkpt>
      <trkpt lat="43.41285" lon="6.63104">
        <ele>245.1</ele>
        <time>2025-01-19T10:03:08Z</time>
      </trkpt>
      <trkpt lat="43.41285" lon="6.63103">
        <ele>245.3</ele>
        <time>2025-01-19T10:03:09Z</time>
      </trkpt>
      <trkpt lat="43.41284" lon="6.63101">
        <ele>245.3</ele>
        <time>2025-01-19T10:03:10Z</time>
      </trkpt>
      <trkpt lat="43.41284" lon="6.631">
        <ele>245.4</ele>
        <time>2025-01-19T10:03:11Z</time>
      </trkpt>
      <trkpt lat="43.41284" lon="6.63098">
        <ele>245.5</ele>
        <time>2025-01-19T10:03:12Z</time>
      </trkpt>
      <trkpt lat="43.41283" lon="6.63096">
        <ele>245.6</ele>
        <time>2025-01-19T10:03:13Z</time>
      </trkpt>
      <trkpt lat="43.41283" lon="6.63095">
        <ele>245.7</ele>
        <time>2025-01-19T10:03:14Z</time>
      </trkpt>
      <trkpt lat="43.41282" lon="6.63093">
        <ele>245.8</ele>
        <time>2025-01-19T10:03:15Z</time>
      </trkpt>
      <trkpt lat="43.41282" lon="6.63092">
        <ele>245.8</ele>
        <time>2025-01-19T10:03:16Z</time>
      </trkpt>
      <trkpt lat="43.41282" lon="6.6309">
        <ele>245.9</ele>
        <time>2025-01-19T10:03:17Z</time>
      </trkpt>
      <trkpt lat="43.41281" lon="6.63089">
        <ele>245.9</ele>
        <time>2025-01-19T10:03:18Z</time>
      </trkpt>
      <trkpt lat="43.41281" lon="6.63087">
        <ele>246</ele>
        <time>2025-01-19T10:03:19Z</time>
      </trkpt>
      <trkpt lat="43.4128" lon="6.63086">
        <ele>246.1</ele>
        <time>2025-01-19T10:03:20Z</time>
      </trkpt>
      <trkpt lat="43.4128" lon="6.63084">
        <ele>246.1</ele>
        <time>2025-01-19T10:03:21Z</time>
      </trkpt>
      <trkpt lat="43.41279" lon="6.63082">
        <ele>246.2</ele>
        <time>2025-01-19T10:03:22Z</time>
      </trkpt>
      <trkpt lat="43.41279" lon="6.63081">
        <ele>246.3</ele>
        <time>2025-01-19T10:03:23Z</time>
      </trkpt>
      <trkpt lat="43.41279" lon="6.6308">
        <ele>246.2</ele>
        <time>2025-01-19T10:03:24Z</time>
      </trkpt>
      <trkpt lat="43.41278" lon="6.63078">
        <ele>246.3</ele>
        <time>2025-01-19T10:03:25Z</time>
      </trkpt>
      <trkpt lat="43.41278" lon="6.63077">
        <ele>246.4</ele>
        <time>2025-01-19T10:03:26Z</time>
      </trkpt>
      <trkpt lat="43.41278" lon="6.63075">
        <ele>246.3</ele>
        <time>2025-01-19T10:03:27Z</time>
      </trkpt>
      <trkpt lat="43.41277" lon="6.63073">
        <ele>246.5</ele>
        <time>2025-01-19T10:03:28Z</time>
      </trkpt>
      <trkpt lat="43.41277" lon="6.63072">
        <ele>246.6</ele>
        <time>2025-01-19T10:03:29Z</time>
      </trkpt>
      <trkpt lat="43.41276" lon="6.6307">
        <ele>246.7</ele>
        <time>2025-01-19T10:03:30Z</time>
      </trkpt>
      <trkpt lat="43.41276" lon="6.63069">
        <ele>246.8</ele>
        <time>2025-01-19T10:03:31Z</time>
      </trkpt>
      <trkpt lat="43.41275" lon="6.63067">
        <ele>246.9</ele>
        <time>2025-01-19T10:03:32Z</time>
      </trkpt>
      <trkpt lat="43.41275" lon="6.63066">
        <ele>247.1</ele>
        <time>2025-01-19T10:03:33Z</time>
      </trkpt>
      <trkpt lat="43.41274" lon="6.63064">
        <ele>247.3</ele>
        <time>2025-01-19T10:03:34Z</time>
      </trkpt>
      <trkpt lat="43.41274" lon="6.63062">
        <ele>247.3</ele>
        <time>2025-01-19T10:03:35Z</time>
      </trkpt>
      <trkpt lat="43.41273" lon="6.63061">
        <ele>247.3</ele>
        <time>2025-01-19T10:03:36Z</time>
      </trkpt>
      <trkpt lat="43.41273" lon="6.6306">
        <ele>247.4</ele>
        <time>2025-01-19T10:03:37Z</time>
      </trkpt>
      <trkpt lat="43.41272" lon="6.63059">
        <ele>247.4</ele>
        <time>2025-01-19T10:03:38Z</time>
      </trkpt>
      <trkpt lat="43.41272" lon="6.63057">
        <ele>247.5</ele>
        <time>2025-01-19T10:03:39Z</time>
      </trkpt>
      <trkpt lat="43.41271" lon="6.63056">
        <ele>247.6</ele>
        <time>2025-01-19T10:03:40Z</time>
      </trkpt>
      <trkpt lat="43.4127" lon="6.63054">
        <ele>247.6</ele>
        <time>2025-01-19T10:03:41Z</time>
      </trkpt>
      <trkpt lat="43.41269" lon="6.63053">
        <ele>247.7</ele>
        <time>2025-01-19T10:03:42Z</time>
      </trkpt>
      <trkpt lat="43.41269" lon="6.63052">
        <ele>247.8</ele>
        <time>2025-01-19T10:03:43Z</time>
      </trkpt>
      <trkpt lat="43.41268" lon="6.63051">
        <ele>247.9</ele>
        <time>2025-01-19T10:03:44Z</time>
      </trkpt>
      <trkpt lat="43.41268" lon="6.6305">
        <ele>248</ele>
        <time>2025-01-19T10:03:45Z</time>
      </trkpt>
      <trkpt lat="43.41267" lon="6.63049">
        <ele>248.1</ele>
        <time>2025-01-19T10:03:46Z</time>
      </trkpt>
      <trkpt lat="43.41266" lon="6.63048">
        <ele>248.2</ele>
        <time>2025-01-19T10:03:47Z</time>
      </trkpt>
      <trkpt lat="43.41265" lon="6.63047">
        <ele>248.2</ele>
        <time>2025-01-19T10:03:48Z</time>
      </trkpt>
      <trkpt lat="43.41264" lon="6.63046">
        <ele>248.3</ele>
        <time>2025-01-19T10:03:49Z</time>
      </trkpt>
      <trkpt lat="43.41263" lon="6.63045">
        <ele>248.4</ele>
        <time>2025-01-19T10:03:50Z</time>
      </trkpt>
      <trkpt lat="43.41262" lon="6.63044">
        <ele>248.5</ele>
        <time>2025-01-19T10:03:51Z</time>
      </trkpt>
      <trkpt lat="43.41262" lon="6.63042">
        <ele>248.6</ele>
        <time>2025-01-19T10:03:52Z</time>
      </trkpt>
      <trkpt lat="43.41261" lon="6.63042">
        <ele>248.8</ele>
        <time>2025-01-19T10:03:53Z</time>
      </trkpt>
      <trkpt lat="43.4126" lon="6.63042">
        <ele>248.9</ele>
        <time>2025-01-19T10:03:54Z</time>
      </trkpt>
      <trkpt lat="43.41259" lon="6.63041">
        <ele>249</ele>
        <time>2025-01-19T10:03:55Z</time>
      </trkpt>
      <trkpt lat="43.41258" lon="6.63041">
        <ele>249.1</ele>
        <time>2025-01-19T10:03:56Z</time>
      </trkpt>
      <trkpt lat="43.41257" lon="6.6304">
        <ele>249.2</ele>
        <time>2025-01-19T10:03:57Z</time>
      </trkpt>
      <trkpt lat="43.41256" lon="6.6304">
        <ele>249.3</ele>
        <time>2025-01-19T10:03:58Z</time>
      </trkpt>
      <trkpt lat="43.41255" lon="6.6304">
        <ele>249.3</ele>
        <time>2025-01-19T10:03:59Z</time>
      </trkpt>
      <trkpt lat="43.41254" lon="6.6304">
        <ele>249.4</ele>
        <time>2025-01-19T10:04:00Z</time>
      </trkpt>
      <trkpt lat="43.41253" lon="6.63041">
        <ele>249.5</ele>
        <time>2025-01-19T10:04:01Z</time>
      </trkpt>
      <trkpt lat="43.41251" lon="6.63041">
        <ele>249.6</ele>
        <time>2025-01-19T10:04:02Z</time>
      </trkpt>
      <trkpt lat="43.4125" lon="6.63041">
        <ele>249.7</ele>
        <time>2025-01-19T10:04:03Z</time>
      </trkpt>
      <trkpt lat="43.41248" lon="6.63042">
        <ele>249.9</ele>
        <time>2025-01-19T10:04:04Z</time>
      </trkpt>
      <trkpt lat="43.41247" lon="6.63043">
        <ele>250</ele>
        <time>2025-01-19T10:04:05Z</time>
      </trkpt>
      <trkpt lat="43.41245" lon="6.63044">
        <ele>250.2</ele>
        <time>2025-01-19T10:04:06Z</time>
      </trkpt>
      <trkpt lat="43.41244" lon="6.63044">
        <ele>250.3</ele>
        <time>2025-01-19T10:04:07Z</time>
      </trkpt>
      <trkpt lat="43.41243" lon="6.63044">
        <ele>250.4</ele>
        <time>2025-01-19T10:04:08Z</time>
      </trkpt>
      <trkpt lat="43.41242" lon="6.63045">
        <ele>250.5</ele>
        <time>2025-01-19T10:04:09Z</time>
      </trkpt>
      <trkpt lat="43.4124" lon="6.63046">
        <ele>250.6</ele>
        <time>2025-01-19T10:04:10Z</time>
      </trkpt>
      <trkpt lat="43.41239" lon="6.63045">
        <ele>250.7</ele>
        <time>2025-01-19T10:04:11Z</time>
      </trkpt>
      <trkpt lat="43.41238" lon="6.63047">
        <ele>250.7</ele>
        <time>2025-01-19T10:04:12Z</time>
      </trkpt>
      <trkpt lat="43.41237" lon="6.63047">
        <ele>250.7</ele>
        <time>2025-01-19T10:04:13Z</time>
      </trkpt>
      <trkpt lat="43.41236" lon="6.63047">
        <ele>250.9</ele>
        <time>2025-01-19T10:04:14Z</time>
      </trkpt>
      <trkpt lat="43.41234" lon="6.63048">
        <ele>250.9</ele>
        <time>2025-01-19T10:04:15Z</time>
      </trkpt>
      <trkpt lat="43.41232" lon="6.63049">
        <ele>251</ele>
        <time>2025-01-19T10:04:16Z</time>
      </trkpt>
      <trkpt lat="43.41231" lon="6.63049">
        <ele>251.1</ele>
        <time>2025-01-19T10:04:17Z</time>
      </trkpt>
      <trkpt lat="43.41229" lon="6.63051">
        <ele>251.2</ele>
        <time>2025-01-19T10:04:18Z</time>
      </trkpt>
      <trkpt lat="43.41227" lon="6.63052">
        <ele>251.2</ele>
        <time>2025-01-19T10:04:19Z</time>
      </trkpt>
      <trkpt lat="43.41226" lon="6.63053">
        <ele>251.3</ele>
        <time>2025-01-19T10:04:20Z</time>
      </trkpt>
      <trkpt lat="43.41225" lon="6.63053">
        <ele>251.5</ele>
        <time>2025-01-19T10:04:21Z</time>
      </trkpt>
      <trkpt lat="43.41224" lon="6.63054">
        <ele>251.7</ele>
        <time>2025-01-19T10:04:22Z</time>
      </trkpt>
      <trkpt lat="43.41222" lon="6.63056">
        <ele>251.7</ele>
        <time>2025-01-19T10:04:23Z</time>
      </trkpt>
      <trkpt lat="43.41221" lon="6.63058">
        <ele>251.8</ele>
        <time>2025-01-19T10:04:24Z</time>
      </trkpt>
      <trkpt lat="43.4122" lon="6.63059">
        <ele>251.9</ele>
        <time>2025-01-19T10:04:25Z</time>
      </trkpt>
      <trkpt lat="43.41219" lon="6.6306">
        <ele>252</ele>
        <time>2025-01-19T10:04:26Z</time>
      </trkpt>
      <trkpt lat="43.41218" lon="6.6306">
        <ele>252</ele>
        <time>2025-01-19T10:04:27Z</time>
      </trkpt>
      <trkpt lat="43.41216" lon="6.63059">
        <ele>252.2</ele>
        <time>2025-01-19T10:04:28Z</time>
      </trkpt>
      <trkpt lat="43.41215" lon="6.6306">
        <ele>252.3</ele>
        <time>2025-01-19T10:04:29Z</time>
      </trkpt>
      <trkpt lat="43.41215" lon="6.63061">
        <ele>252.4</ele>
        <time>2025-01-19T10:04:30Z</time>
      </trkpt>
      <trkpt lat="43.41214" lon="6.63062">
        <ele>252.6</ele>
        <time>2025-01-19T10:04:31Z</time>
      </trkpt>
      <trkpt lat="43.41213" lon="6.63062">
        <ele>252.7</ele>
        <time>2025-01-19T10:04:32Z</time>
      </trkpt>
      <trkpt lat="43.41212" lon="6.63063">
        <ele>252.7</ele>
        <time>2025-01-19T10:04:33Z</time>
      </trkpt>
      <trkpt lat="43.41211" lon="6.63064">
        <ele>252.8</ele>
        <time>2025-01-19T10:04:34Z</time>
      </trkpt>
      <trkpt lat="43.4121" lon="6.63064">
        <ele>252.9</ele>
        <time>2025-01-19T10:04:35Z</time>
      </trkpt>
      <trkpt lat="43.41208" lon="6.63065">
        <ele>253</ele>
        <time>2025-01-19T10:04:36Z</time>
      </trkpt>
      <trkpt lat="43.41207" lon="6.63065">
        <ele>253</ele>
        <time>2025-01-19T10:04:37Z</time>
      </trkpt>
      <trkpt lat="43.41206" lon="6.63064">
        <ele>253.1</ele>
        <time>2025-01-19T10:04:38Z</time>
      </trkpt>
      <trkpt lat="43.41206" lon="6.63064">
        <ele>253.2</ele>
        <time>2025-01-19T10:04:39Z</time>
      </trkpt>
      <trkpt lat="43.41205" lon="6.63065">
        <ele>253.2</ele>
        <time>2025-01-19T10:04:40Z</time>
      </trkpt>
      <trkpt lat="43.41204" lon="6.63065">
        <ele>253.3</ele>
        <time>2025-01-19T10:04:41Z</time>
      </trkpt>
      <trkpt lat="43.41203" lon="6.63066">
        <ele>253.4</ele>
        <time>2025-01-19T10:04:42Z</time>
      </trkpt>
      <trkpt lat="43.41202" lon="6.63066">
        <ele>253.5</ele>
        <time>2025-01-19T10:04:43Z</time>
      </trkpt>
      <trkpt lat="43.41201" lon="6.63066">
        <ele>253.6</ele>
        <time>2025-01-19T10:04:44Z</time>
      </trkpt>
      <trkpt lat="43.412" lon="6.63066">
        <ele>253.7</ele>
        <time>2025-01-19T10:04:45Z</time>
      </trkpt>
      <trkpt lat="43.41199" lon="6.63067">
        <ele>253.7</ele>
        <time>2025-01-19T10:04:46Z</time>
      </trkpt>
      <trkpt lat="43.41198" lon="6.63069">
        <ele>253.8</ele>
        <time>2025-01-19T10:04:47Z</time>
      </trkpt>
      <trkpt lat="43.41197" lon="6.6307">
        <ele>253.9</ele>
        <time>2025-01-19T10:04:48Z</time>
      </trkpt>
      <trkpt lat="43.41196" lon="6.63071">
        <ele>254.1</ele>
        <time>2025-01-19T10:04:49Z</time>
      </trkpt>
      <trkpt lat="43.41195" lon="6.63073">
        <ele>254.2</ele>
        <time>2025-01-19T10:04:50Z</time>
      </trkpt>
      <trkpt lat="43.41194" lon="6.63074">
        <ele>254.3</ele>
        <time>2025-01-19T10:04:51Z</time>
      </trkpt>
      <trkpt lat="43.41193" lon="6.63075">
        <ele>254.5</ele>
        <time>2025-01-19T10:04:52Z</time>
      </trkpt>
      <trkpt lat="43.41192" lon="6.63076">
        <ele>254.5</ele>
        <time>2025-01-19T10:04:53Z</time>
      </trkpt>
      <trkpt lat="43.41191" lon="6.63077">
        <ele>254.5</ele>
        <time>2025-01-19T10:04:54Z</time>
      </trkpt>
      <trkpt lat="43.41189" lon="6.63078">
        <ele>254.5</ele>
        <time>2025-01-19T10:04:55Z</time>
      </trkpt>
      <trkpt lat="43.41188" lon="6.63079">
        <ele>254.6</ele>
        <time>2025-01-19T10:04:56Z</time>
      </trkpt>
      <trkpt lat="43.41187" lon="6.6308">
        <ele>254.8</ele>
        <time>2025-01-19T10:04:57Z</time>
      </trkpt>
      <trkpt lat="43.41186" lon="6.6308">
        <ele>254.9</ele>
        <time>2025-01-19T10:04:58Z</time>
      </trkpt>
      <trkpt lat="43.41185" lon="6.63081">
        <ele>255</ele>
        <time>2025-01-19T10:04:59Z</time>
      </trkpt>
      <trkpt lat="43.41184" lon="6.63081">
        <ele>255</ele>
        <time>2025-01-19T10:05:00Z</time>
      </trkpt>
      <trkpt lat="43.41183" lon="6.63082">
        <ele>255.1</ele>
        <time>2025-01-19T10:05:01Z</time>
      </trkpt>
      <trkpt lat="43.41182" lon="6.63083">
        <ele>255.2</ele>
        <time>2025-01-19T10:05:02Z</time>
      </trkpt>
      <trkpt lat="43.41181" lon="6.63082">
        <ele>255.2</ele>
        <time>2025-01-19T10:05:03Z</time>
      </trkpt>
      <trkpt lat="43.41179" lon="6.63083">
        <ele>255.4</ele>
        <time>2025-01-19T10:05:04Z</time>
      </trkpt>
      <trkpt lat="43.41178" lon="6.63084">
        <ele>255.4</ele>
        <time>2025-01-19T10:05:05Z</time>
      </trkpt>
      <trkpt lat="43.41177" lon="6.63085">
        <ele>255.5</ele>
        <time>2025-01-19T10:05:06Z</time>
      </trkpt>
      <trkpt lat="43.41175" lon="6.63085">
        <ele>255.5</ele>
        <time>2025-01-19T10:05:07Z</time>
      </trkpt>
      <trkpt lat="43.41174" lon="6.63084">
        <ele>255.6</ele>
        <time>2025-01-19T10:05:08Z</time>
      </trkpt>
      <trkpt lat="43.41173" lon="6.63085">
        <ele>255.7</ele>
        <time>2025-01-19T10:05:09Z</time>
      </trkpt>
      <trkpt lat="43.41172" lon="6.63085">
        <ele>255.7</ele>
        <time>2025-01-19T10:05:10Z</time>
      </trkpt>
      <trkpt lat="43.41171" lon="6.63086">
        <ele>255.9</ele>
        <time>2025-01-19T10:05:11Z</time>
      </trkpt>
      <trkpt lat="43.4117" lon="6.63088">
        <ele>255.9</ele>
        <time>2025-01-19T10:05:12Z</time>
      </trkpt>
      <trkpt lat="43.41169" lon="6.63088">
        <ele>255.9</ele>
        <time>2025-01-19T10:05:13Z</time>
      </trkpt>
      <trkpt lat="43.41168" lon="6.63088">
        <ele>256</ele>
        <time>2025-01-19T10:05:14Z</time>
      </trkpt>
      <trkpt lat="43.41167" lon="6.63089">
        <ele>256</ele>
        <time>2025-01-19T10:05:15Z</time>
      </trkpt>
      <trkpt lat="43.41166" lon="6.6309">
        <ele>256.1</ele>
        <time>2025-01-19T10:05:16Z</time>
      </trkpt>
      <trkpt lat="43.41165" lon="6.63091">
        <ele>256.2</ele>
        <time>2025-01-19T10:05:17Z</time>
      </trkpt>
      <trkpt lat="43.41165" lon="6.63092">
        <ele>256.2</ele>
        <time>2025-01-19T10:05:18Z</time>
      </trkpt>
      <trkpt lat="43.41164" lon="6.63093">
        <ele>256.3</ele>
        <time>2025-01-19T10:05:19Z</time>
      </trkpt>
      <trkpt lat="43.41163" lon="6.63094">
        <ele>256.4</ele>
        <time>2025-01-19T10:05:20Z</time>
      </trkpt>
      <trkpt lat="43.41163" lon="6.63094">
        <ele>256.5</ele>
        <time>2025-01-19T10:05:21Z</time>
      </trkpt>
      <trkpt lat="43.41163" lon="6.63097">
        <ele>256.5</ele>
        <time>2025-01-19T10:05:22Z</time>
      </trkpt>
      <trkpt lat="43.41162" lon="6.63098">
        <ele>256.6</ele>
        <time>2025-01-19T10:05:23Z</time>
      </trkpt>
      <trkpt lat="43.41162" lon="6.631">
        <ele>256.6</ele>
        <time>2025-01-19T10:05:24Z</time>
      </trkpt>
      <trkpt lat="43.41162" lon="6.63102">
        <ele>256.8</ele>
        <time>2025-01-19T10:05:25Z</time>
      </trkpt>
      <trkpt lat="43.41161" lon="6.63104">
        <ele>256.9</ele>
        <time>2025-01-19T10:05:26Z</time>
      </trkpt>
      <trkpt lat="43.41161" lon="6.63105">
        <ele>256.8</ele>
        <time>2025-01-19T10:05:27Z</time>
      </trkpt>
      <trkpt lat="43.41161" lon="6.63106">
        <ele>256.9</ele>
        <time>2025-01-19T10:05:28Z</time>
      </trkpt>
      <trkpt lat="43.41162" lon="6.63107">
        <ele>256.9</ele>
        <time>2025-01-19T10:05:29Z</time>
      </trkpt>
      <trkpt lat="43.41161" lon="6.63108">
        <ele>257</ele>
        <time>2025-01-19T10:05:30Z</time>
      </trkpt>
      <trkpt lat="43.4116" lon="6.6311">
        <ele>257.2</ele>
        <time>2025-01-19T10:05:31Z</time>
      </trkpt>
      <trkpt lat="43.4116" lon="6.63112">
        <ele>257.3</ele>
        <time>2025-01-19T10:05:32Z</time>
      </trkpt>
      <trkpt lat="43.41159" lon="6.63113">
        <ele>257.4</ele>
        <time>2025-01-19T10:05:33Z</time>
      </trkpt>
      <trkpt lat="43.41159" lon="6.63115">
        <ele>257.4</ele>
        <time>2025-01-19T10:05:34Z</time>
      </trkpt>
      <trkpt lat="43.41159" lon="6.63117">
        <ele>257.6</ele>
        <time>2025-01-19T10:05:35Z</time>
      </trkpt>
      <trkpt lat="43.41158" lon="6.63118">
        <ele>257.8</ele>
        <time>2025-01-19T10:05:36Z</time>
      </trkpt>
      <trkpt lat="43.41158" lon="6.6312">
        <ele>257.8</ele>
        <time>2025-01-19T10:05:37Z</time>
      </trkpt>
      <trkpt lat="43.41157" lon="6.63121">
        <ele>257.9</ele>
        <time>2025-01-19T10:05:38Z</time>
      </trkpt>
      <trkpt lat="43.41157" lon="6.63123">
        <ele>257.9</ele>
        <time>2025-01-19T10:05:39Z</time>
      </trkpt>
      <trkpt lat="43.41156" lon="6.63124">
        <ele>258</ele>
        <time>2025-01-19T10:05:40Z</time>
      </trkpt>
      <trkpt lat="43.41155" lon="6.63126">
        <ele>258.1</ele>
        <time>2025-01-19T10:05:41Z</time>
      </trkpt>
      <trkpt lat="43.41155" lon="6.63127">
        <ele>258.2</ele>
        <time>2025-01-19T10:05:42Z</time>
      </trkpt>
      <trkpt lat="43.41154" lon="6.63128">
        <ele>258.2</ele>
        <time>2025-01-19T10:05:43Z</time>
      </trkpt>
      <trkpt lat="43.41154" lon="6.63129">
        <ele>258.3</ele>
        <time>2025-01-19T10:05:44Z</time>
      </trkpt>
      <trkpt lat="43.41156" lon="6.63129">
        <ele>258.4</ele>
        <time>2025-01-19T10:05:45Z</time>
      </trkpt>
      <trkpt lat="43.41156" lon="6.63131">
        <ele>258.5</ele>
        <time>2025-01-19T10:05:46Z</time>
      </trkpt>
      <trkpt lat="43.41155" lon="6.63133">
        <ele>258.5</ele>
        <time>2025-01-19T10:05:47Z</time>
      </trkpt>
      <trkpt lat="43.41154" lon="6.63134">
        <ele>258.6</ele>
        <time>2025-01-19T10:05:48Z</time>
      </trkpt>
      <trkpt lat="43.41154" lon="6.63136">
        <ele>258.6</ele>
        <time>2025-01-19T10:05:49Z</time>
      </trkpt>
      <trkpt lat="43.41154" lon="6.63137">
        <ele>258.7</ele>
        <time>2025-01-19T10:05:50Z</time>
      </trkpt>
      <trkpt lat="43.41153" lon="6.63139">
        <ele>258.8</ele>
        <time>2025-01-19T10:05:51Z</time>
      </trkpt>
      <trkpt lat="43.41153" lon="6.6314">
        <ele>258.9</ele>
        <time>2025-01-19T10:05:52Z</time>
      </trkpt>
      <trkpt lat="43.41152" lon="6.63142">
        <ele>259</ele>
        <time>2025-01-19T10:05:53Z</time>
      </trkpt>
      <trkpt lat="43.41152" lon="6.63144">
        <ele>259</ele>
        <time>2025-01-19T10:05:54Z</time>
      </trkpt>
      <trkpt lat="43.4115" lon="6.63145">
        <ele>259</ele>
        <time>2025-01-19T10:05:55Z</time>
      </trkpt>
      <trkpt lat="43.41149" lon="6.63146">
        <ele>259.1</ele>
        <time>2025-01-19T10:05:56Z</time>
      </trkpt>
      <trkpt lat="43.41148" lon="6.63149">
        <ele>259.1</ele>
        <time>2025-01-19T10:05:57Z</time>
      </trkpt>
      <trkpt lat="43.41148" lon="6.6315">
        <ele>259.2</ele>
        <time>2025-01-19T10:05:58Z</time>
      </trkpt>
      <trkpt lat="43.41147" lon="6.63152">
        <ele>259.2</ele>
        <time>2025-01-19T10:05:59Z</time>
      </trkpt>
      <trkpt lat="43.41146" lon="6.63153">
        <ele>259.2</ele>
        <time>2025-01-19T10:06:00Z</time>
      </trkpt>
      <trkpt lat="43.41145" lon="6.63155">
        <ele>259.3</ele>
        <time>2025-01-19T10:06:01Z</time>
      </trkpt>
      <trkpt lat="43.41144" lon="6.63157">
        <ele>259.3</ele>
        <time>2025-01-19T10:06:02Z</time>
      </trkpt>
      <trkpt lat="43.41143" lon="6.63159">
        <ele>259.3</ele>
        <time>2025-01-19T10:06:03Z</time>
      </trkpt>
      <trkpt lat="43.41143" lon="6.63161">
        <ele>259.4</ele>
        <time>2025-01-19T10:06:04Z</time>
      </trkpt>
      <trkpt lat="43.41143" lon="6.63162">
        <ele>259.5</ele>
        <time>2025-01-19T10:06:05Z</time>
      </trkpt>
      <trkpt lat="43.41143" lon="6.63164">
        <ele>259.6</ele>
        <time>2025-01-19T10:06:06Z</time>
      </trkpt>
      <trkpt lat="43.41142" lon="6.63165">
        <ele>259.7</ele>
        <time>2025-01-19T10:06:07Z</time>
      </trkpt>
      <trkpt lat="43.41141" lon="6.63168">
        <ele>259.8</ele>
        <time>2025-01-19T10:06:08Z</time>
      </trkpt>
      <trkpt lat="43.41141" lon="6.63169">
        <ele>259.8</ele>
        <time>2025-01-19T10:06:09Z</time>
      </trkpt>
      <trkpt lat="43.4114" lon="6.63171">
        <ele>259.9</ele>
        <time>2025-01-19T10:06:10Z</time>
      </trkpt>
      <trkpt lat="43.41139" lon="6.63172">
        <ele>259.9</ele>
        <time>2025-01-19T10:06:11Z</time>
      </trkpt>
      <trkpt lat="43.41138" lon="6.63174">
        <ele>260</ele>
        <time>2025-01-19T10:06:12Z</time>
      </trkpt>
      <trkpt lat="43.41138" lon="6.63175">
        <ele>260.1</ele>
        <time>2025-01-19T10:06:13Z</time>
      </trkpt>
      <trkpt lat="43.41137" lon="6.63177">
        <ele>260.2</ele>
        <time>2025-01-19T10:06:14Z</time>
      </trkpt>
      <trkpt lat="43.41137" lon="6.63179">
        <ele>260.3</ele>
        <time>2025-01-19T10:06:15Z</time>
      </trkpt>
      <trkpt lat="43.41136" lon="6.6318">
        <ele>260.4</ele>
        <time>2025-01-19T10:06:16Z</time>
      </trkpt>
      <trkpt lat="43.41135" lon="6.63181">
        <ele>260.5</ele>
        <time>2025-01-19T10:06:17Z</time>
      </trkpt>
      <trkpt lat="43.41136" lon="6.63183">
        <ele>260.6</ele>
        <time>2025-01-19T10:06:18Z</time>
      </trkpt>
      <trkpt lat="43.41135" lon="6.63185">
        <ele>260.7</ele>
        <time>2025-01-19T10:06:19Z</time>
      </trkpt>
      <trkpt lat="43.41134" lon="6.63187">
        <ele>260.7</ele>
        <time>2025-01-19T10:06:20Z</time>
      </trkpt>
      <trkpt lat="43.41134" lon="6.63188">
        <ele>260.7</ele>
        <time>2025-01-19T10:06:21Z</time>
      </trkpt>
      <trkpt lat="43.41133" lon="6.6319">
        <ele>260.8</ele>
        <time>2025-01-19T10:06:22Z</time>
      </trkpt>
      <trkpt lat="43.41132" lon="6.63191">
        <ele>260.8</ele>
        <time>2025-01-19T10:06:23Z</time>
      </trkpt>
      <trkpt lat="43.41131" lon="6.63194">
        <ele>261</ele>
        <time>2025-01-19T10:06:24Z</time>
      </trkpt>
      <trkpt lat="43.4113" lon="6.63196">
        <ele>261.1</ele>
        <time>2025-01-19T10:06:25Z</time>
      </trkpt>
      <trkpt lat="43.41129" lon="6.63197">
        <ele>261.2</ele>
        <time>2025-01-19T10:06:26Z</time>
      </trkpt>
      <trkpt lat="43.41128" lon="6.63199">
        <ele>261.3</ele>
        <time>2025-01-19T10:06:27Z</time>
      </trkpt>
      <trkpt lat="43.41128" lon="6.632">
        <ele>261.4</ele>
        <time>2025-01-19T10:06:28Z</time>
      </trkpt>
      <trkpt lat="43.41127" lon="6.63202">
        <ele>261.4</ele>
        <time>2025-01-19T10:06:29Z</time>
      </trkpt>
      <trkpt lat="43.41126" lon="6.63203">
        <ele>261.5</ele>
        <time>2025-01-19T10:06:30Z</time>
      </trkpt>
      <trkpt lat="43.41126" lon="6.63204">
        <ele>261.5</ele>
        <time>2025-01-19T10:06:31Z</time>
      </trkpt>
      <trkpt lat="43.41125" lon="6.63206">
        <ele>261.6</ele>
        <time>2025-01-19T10:06:32Z</time>
      </trkpt>
      <trkpt lat="43.41124" lon="6.63207">
        <ele>261.6</ele>
        <time>2025-01-19T10:06:33Z</time>
      </trkpt>
      <trkpt lat="43.41123" lon="6.63209">
        <ele>261.7</ele>
        <time>2025-01-19T10:06:34Z</time>
      </trkpt>
      <trkpt lat="43.41122" lon="6.6321">
        <ele>261.8</ele>
        <time>2025-01-19T10:06:35Z</time>
      </trkpt>
      <trkpt lat="43.41122" lon="6.63212">
        <ele>261.9</ele>
        <time>2025-01-19T10:06:36Z</time>
      </trkpt>
      <trkpt lat="43.41121" lon="6.63214">
        <ele>262</ele>
        <time>2025-01-19T10:06:37Z</time>
      </trkpt>
      <trkpt lat="43.41121" lon="6.63215">
        <ele>262.1</ele>
        <time>2025-01-19T10:06:38Z</time>
      </trkpt>
      <trkpt lat="43.41119" lon="6.63217">
        <ele>262.1</ele>
        <time>2025-01-19T10:06:39Z</time>
      </trkpt>
      <trkpt lat="43.41118" lon="6.63219">
        <ele>262.2</ele>
        <time>2025-01-19T10:06:40Z</time>
      </trkpt>
      <trkpt lat="43.41117" lon="6.6322">
        <ele>262.2</ele>
        <time>2025-01-19T10:06:41Z</time>
      </trkpt>
      <trkpt lat="43.41116" lon="6.6322">
        <ele>262.3</ele>
        <time>2025-01-19T10:06:42Z</time>
      </trkpt>
      <trkpt lat="43.41114" lon="6.63221">
        <ele>262.3</ele>
        <time>2025-01-19T10:06:43Z</time>
      </trkpt>
      <trkpt lat="43.41114" lon="6.63222">
        <ele>262.3</ele>
        <time>2025-01-19T10:06:44Z</time>
      </trkpt>
      <trkpt lat="43.41113" lon="6.63222">
        <ele>262.3</ele>
        <time>2025-01-19T10:06:45Z</time>
      </trkpt>
      <trkpt lat="43.41112" lon="6.63223">
        <ele>262.3</ele>
        <time>2025-01-19T10:06:46Z</time>
      </trkpt>
      <trkpt lat="43.41111" lon="6.63225">
        <ele>262.3</ele>
        <time>2025-01-19T10:06:47Z</time>
      </trkpt>
      <trkpt lat="43.41111" lon="6.63226">
        <ele>262.5</ele>
        <time>2025-01-19T10:06:48Z</time>
      </trkpt>
      <trkpt lat="43.4111" lon="6.63227">
        <ele>262.6</ele>
        <time>2025-01-19T10:06:49Z</time>
      </trkpt>
      <trkpt lat="43.41109" lon="6.63228">
        <ele>262.6</ele>
        <time>2025-01-19T10:06:50Z</time>
      </trkpt>
      <trkpt lat="43.41108" lon="6.63229">
        <ele>262.7</ele>
        <time>2025-01-19T10:06:51Z</time>
      </trkpt>
      <trkpt lat="43.41107" lon="6.6323">
        <ele>262.7</ele>
        <time>2025-01-19T10:06:52Z</time>
      </trkpt>
      <trkpt lat="43.41106" lon="6.63231">
        <ele>262.8</ele>
        <time>2025-01-19T10:06:53Z</time>
      </trkpt>
      <trkpt lat="43.41105" lon="6.63233">
        <ele>262.9</ele>
        <time>2025-01-19T10:06:54Z</time>
      </trkpt>
      <trkpt lat="43.41105" lon="6.63235">
        <ele>263</ele>
        <time>2025-01-19T10:06:55Z</time>
      </trkpt>
      <trkpt lat="43.41104" lon="6.63236">
        <ele>263</ele>
        <time>2025-01-19T10:06:56Z</time>
      </trkpt>
      <trkpt lat="43.41103" lon="6.63238">
        <ele>263.1</ele>
        <time>2025-01-19T10:06:57Z</time>
      </trkpt>
      <trkpt lat="43.41103" lon="6.63239">
        <ele>263.1</ele>
        <time>2025-01-19T10:06:58Z</time>
      </trkpt>
      <trkpt lat="43.41102" lon="6.63239">
        <ele>263.3</ele>
        <time>2025-01-19T10:06:59Z</time>
      </trkpt>
      <trkpt lat="43.41101" lon="6.6324">
        <ele>263.4</ele>
        <time>2025-01-19T10:07:00Z</time>
      </trkpt>
      <trkpt lat="43.411" lon="6.63241">
        <ele>263.4</ele>
        <time>2025-01-19T10:07:01Z</time>
      </trkpt>
      <trkpt lat="43.41099" lon="6.63242">
        <ele>263.5</ele>
        <time>2025-01-19T10:07:02Z</time>
      </trkpt>
      <trkpt lat="43.41098" lon="6.63243">
        <ele>263.6</ele>
        <time>2025-01-19T10:07:03Z</time>
      </trkpt>
      <trkpt lat="43.41098" lon="6.63243">
        <ele>263.6</ele>
        <time>2025-01-19T10:07:04Z</time>
      </trkpt>
      <trkpt lat="43.41096" lon="6.63244">
        <ele>263.7</ele>
        <time>2025-01-19T10:07:05Z</time>
      </trkpt>
      <trkpt lat="43.41096" lon="6.63244">
        <ele>263.7</ele>
        <time>2025-01-19T10:07:06Z</time>
      </trkpt>
      <trkpt lat="43.41095" lon="6.63244">
        <ele>263.8</ele>
        <time>2025-01-19T10:07:07Z</time>
      </trkpt>
      <trkpt lat="43.41094" lon="6.63245">
        <ele>263.8</ele>
        <time>2025-01-19T10:07:08Z</time>
      </trkpt>
      <trkpt lat="43.41093" lon="6.63246">
        <ele>263.9</ele>
        <time>2025-01-19T10:07:09Z</time>
      </trkpt>
      <trkpt lat="43.41092" lon="6.63247">
        <ele>263.9</ele>
        <time>2025-01-19T10:07:10Z</time>
      </trkpt>
      <trkpt lat="43.41091" lon="6.63248">
        <ele>264</ele>
        <time>2025-01-19T10:07:11Z</time>
      </trkpt>
      <trkpt lat="43.4109" lon="6.63249">
        <ele>264</ele>
        <time>2025-01-19T10:07:12Z</time>
      </trkpt>
      <trkpt lat="43.41089" lon="6.6325">
        <ele>264.2</ele>
        <time>2025-01-19T10:07:13Z</time>
      </trkpt>
      <trkpt lat="43.41088" lon="6.6325">
        <ele>264.2</ele>
        <time>2025-01-19T10:07:14Z</time>
      </trkpt>
      <trkpt lat="43.41086" lon="6.63251">
        <ele>264.4</ele>
        <time>2025-01-19T10:07:15Z</time>
      </trkpt>
      <trkpt lat="43.41086" lon="6.63251">
        <ele>264.4</ele>
        <time>2025-01-19T10:07:16Z</time>
      </trkpt>
      <trkpt lat="43.41085" lon="6.63251">
        <ele>264.5</ele>
        <time>2025-01-19T10:07:17Z</time>
      </trkpt>
      <trkpt lat="43.41084" lon="6.63252">
        <ele>264.6</ele>
        <time>2025-01-19T10:07:18Z</time>
      </trkpt>
      <trkpt lat="43.41083" lon="6.63252">
        <ele>264.7</ele>
        <time>2025-01-19T10:07:19Z</time>
      </trkpt>
      <trkpt lat="43.41082" lon="6.63252">
        <ele>264.7</ele>
        <time>2025-01-19T10:07:20Z</time>
      </trkpt>
      <trkpt lat="43.41081" lon="6.63253">
        <ele>264.7</ele>
        <time>2025-01-19T10:07:21Z</time>
      </trkpt>
      <trkpt lat="43.4108" lon="6.63253">
        <ele>264.7</ele>
        <time>2025-01-19T10:07:22Z</time>
      </trkpt>
      <trkpt lat="43.41079" lon="6.63254">
        <ele>264.8</ele>
        <time>2025-01-19T10:07:23Z</time>
      </trkpt>
      <trkpt lat="43.41078" lon="6.63254">
        <ele>264.8</ele>
        <time>2025-01-19T10:07:24Z</time>
      </trkpt>
      <trkpt lat="43.41077" lon="6.63255">
        <ele>264.9</ele>
        <time>2025-01-19T10:07:25Z</time>
      </trkpt>
      <trkpt lat="43.41076" lon="6.63256">
        <ele>264.9</ele>
        <time>2025-01-19T10:07:26Z</time>
      </trkpt>
      <trkpt lat="43.41075" lon="6.63256">
        <ele>265</ele>
        <time>2025-01-19T10:07:27Z</time>
      </trkpt>
      <trkpt lat="43.41074" lon="6.63256">
        <ele>265</ele>
        <time>2025-01-19T10:07:28Z</time>
      </trkpt>
      <trkpt lat="43.41073" lon="6.63257">
        <ele>265.1</ele>
        <time>2025-01-19T10:07:29Z</time>
      </trkpt>
      <trkpt lat="43.41073" lon="6.63257">
        <ele>265.1</ele>
        <time>2025-01-19T10:07:30Z</time>
      </trkpt>
      <trkpt lat="43.41072" lon="6.63258">
        <ele>265.1</ele>
        <time>2025-01-19T10:07:31Z</time>
      </trkpt>
      <trkpt lat="43.41071" lon="6.63258">
        <ele>265.1</ele>
        <time>2025-01-19T10:07:32Z</time>
      </trkpt>
      <trkpt lat="43.41071" lon="6.63259">
        <ele>265.1</ele>
        <time>2025-01-19T10:07:33Z</time>
      </trkpt>
      <trkpt lat="43.4107" lon="6.63259">
        <ele>265.2</ele>
        <time>2025-01-19T10:07:34Z</time>
      </trkpt>
      <trkpt lat="43.4107" lon="6.63259">
        <ele>265.3</ele>
        <time>2025-01-19T10:07:35Z</time>
      </trkpt>
      <trkpt lat="43.4107" lon="6.63259">
        <ele>265.4</ele>
        <time>2025-01-19T10:07:36Z</time>
      </trkpt>
      <trkpt lat="43.41069" lon="6.63259">
        <ele>265.4</ele>
        <time>2025-01-19T10:07:37Z</time>
      </trkpt>
      <trkpt lat="43.41069" lon="6.63259">
        <ele>265.3</ele>
        <time>2025-01-19T10:07:38Z</time>
      </trkpt>
      <trkpt lat="43.41069" lon="6.63259">
        <ele>265.4</ele>
        <time>2025-01-19T10:07:39Z</time>
      </trkpt>
      <trkpt lat="43.41069" lon="6.63259">
        <ele>265.3</ele>
        <time>2025-01-19T10:07:40Z</time>
      </trkpt>
      <trkpt lat="43.41069" lon="6.63259">
        <ele>265.3</ele>
        <time>2025-01-19T10:07:41Z</time>
      </trkpt>
      <trkpt lat="43.41069" lon="6.63259">
        <ele>265.4</ele>
        <time>2025-01-19T10:07:42Z</time>
      </trkpt>
      <trkpt lat="43.41069" lon="6.63259">
        <ele>265.4</ele>
        <time>2025-01-19T10:07:43Z</time>
      </trkpt>
      <trkpt lat="43.41069" lon="6.63259">
        <ele>265.3</ele>
        <time>2025-01-19T10:07:44Z</time>
      </trkpt>
      <trkpt lat="43.41069" lon="6.63259">
        <ele>265.3</ele>
        <time>2025-01-19T10:07:45Z</time>
      </trkpt>
      <trkpt lat="43.41069" lon="6.63259">
        <ele>265.3</ele>
        <time>2025-01-19T10:07:46Z</time>
      </trkpt>
      <trkpt lat="43.41069" lon="6.63258">
        <ele>265.2</ele>
        <time>2025-01-19T10:07:47Z</time>
      </trkpt>
      <trkpt lat="43.41069" lon="6.63258">
        <ele>265.2</ele>
        <time>2025-01-19T10:07:48Z</time>
      </trkpt>
      <trkpt lat="43.41069" lon="6.63258">
        <ele>265.2</ele>
        <time>2025-01-19T10:07:49Z</time>
      </trkpt>
      <trkpt lat="43.41069" lon="6.63258">
        <ele>265.3</ele>
        <time>2025-01-19T10:07:50Z</time>
      </trkpt>
      <trkpt lat="43.41069" lon="6.63258">
        <ele>265.4</ele>
        <time>2025-01-19T10:07:51Z</time>
      </trkpt>
      <trkpt lat="43.41069" lon="6.63258">
        <ele>265.4</ele>
        <time>2025-01-19T10:07:52Z</time>
      </trkpt>
      <trkpt lat="43.41069" lon="6.63258">
        <ele>265.4</ele>
        <time>2025-01-19T10:07:53Z</time>
      </trkpt>
      <trkpt lat="43.41069" lon="6.63257">
        <ele>265.4</ele>
        <time>2025-01-19T10:07:54Z</time>
      </trkpt>
      <trkpt lat="43.41069" lon="6.63258">
        <ele>265.4</ele>
        <time>2025-01-19T10:07:55Z</time>
      </trkpt>
      <trkpt lat="43.41069" lon="6.63258">
        <ele>265.4</ele>
        <time>2025-01-19T10:07:56Z</time>
      </trkpt>
      <trkpt lat="43.41069" lon="6.63258">
        <ele>265.4</ele>
        <time>2025-01-19T10:07:57Z</time>
      </trkpt>
      <trkpt lat="43.41069" lon="6.63258">
        <ele>265.3</ele>
        <time>2025-01-19T10:07:58Z</time>
      </trkpt>
      <trkpt lat="43.41069" lon="6.63258">
        <ele>265.4</ele>
        <time>2025-01-19T10:07:59Z</time>
      </trkpt>
      <trkpt lat="43.41069" lon="6.63258">
        <ele>265.5</ele>
        <time>2025-01-19T10:08:00Z</time>
      </trkpt>
      <trkpt lat="43.41069" lon="6.63259">
        <ele>265.5</ele>
        <time>2025-01-19T10:08:01Z</time>
      </trkpt>
      <trkpt lat="43.41069" lon="6.63259">
        <ele>265.5</ele>
        <time>2025-01-19T10:08:02Z</time>
      </trkpt>
      <trkpt lat="43.41068" lon="6.63259">
        <ele>265.6</ele>
        <time>2025-01-19T10:08:03Z</time>
      </trkpt>
      <trkpt lat="43.41068" lon="6.63259">
        <ele>265.5</ele>
        <time>2025-01-19T10:08:04Z</time>
      </trkpt>
      <trkpt lat="43.41068" lon="6.63259">
        <ele>265.6</ele>
        <time>2025-01-19T10:08:05Z</time>
      </trkpt>
      <trkpt lat="43.41069" lon="6.63259">
        <ele>265.6</ele>
        <time>2025-01-19T10:08:06Z</time>
      </trkpt>
      <trkpt lat="43.41069" lon="6.63259">
        <ele>265.6</ele>
        <time>2025-01-19T10:08:07Z</time>
      </trkpt>
      <trkpt lat="43.41069" lon="6.63259">
        <ele>265.6</ele>
        <time>2025-01-19T10:08:08Z</time>
      </trkpt>
      <trkpt lat="43.41069" lon="6.63259">
        <ele>265.6</ele>
        <time>2025-01-19T10:08:09Z</time>
      </trkpt>
      <trkpt lat="43.41069" lon="6.63259">
        <ele>265.6</ele>
        <time>2025-01-19T10:08:10Z</time>
      </trkpt>
      <trkpt lat="43.41069" lon="6.63259">
        <ele>265.6</ele>
        <time>2025-01-19T10:08:11Z</time>
      </trkpt>
      <trkpt lat="43.41069" lon="6.63259">
        <ele>265.6</ele>
        <time>2025-01-19T10:08:12Z</time>
      </trkpt>
      <trkpt lat="43.41069" lon="6.63259">
        <ele>265.6</ele>
        <time>2025-01-19T10:08:13Z</time>
      </trkpt>
      <trkpt lat="43.41069" lon="6.63259">
        <ele>265.6</ele>
        <time>2025-01-19T10:08:14Z</time>
      </trkpt>
      <trkpt lat="43.41069" lon="6.63259">
        <ele>265.6</ele>
        <time>2025-01-19T10:08:15Z</time>
      </trkpt>
      <trkpt lat="43.41069" lon="6.63259">
        <ele>265.6</ele>
        <time>2025-01-19T10:08:16Z</time>
      </trkpt>
      <trkpt lat="43.41069" lon="6.63259">
        <ele>265.6</ele>
        <time>2025-01-19T10:08:17Z</time>
      </trkpt>
      <trkpt lat="43.41069" lon="6.63258">
        <ele>265.6</ele>
        <time>2025-01-19T10:08:18Z</time>
      </trkpt>
      <trkpt lat="43.41069" lon="6.63259">
        <ele>265.6</ele>
        <time>2025-01-19T10:08:19Z</time>
      </trkpt>
      <trkpt lat="43.41069" lon="6.63259">
        <ele>265.7</ele>
        <time>2025-01-19T10:08:20Z</time>
      </trkpt>
      <trkpt lat="43.41069" lon="6.63259">
        <ele>265.7</ele>
        <time>2025-01-19T10:08:21Z</time>
      </trkpt>
      <trkpt lat="43.41069" lon="6.63258">
        <ele>265.7</ele>
        <time>2025-01-19T10:08:22Z</time>
      </trkpt>
      <trkpt lat="43.41069" lon="6.63258">
        <ele>265.8</ele>
        <time>2025-01-19T10:08:23Z</time>
      </trkpt>
      <trkpt lat="43.41068" lon="6.63258">
        <ele>265.9</ele>
        <time>2025-01-19T10:08:24Z</time>
      </trkpt>
      <trkpt lat="43.41068" lon="6.63259">
        <ele>265.8</ele>
        <time>2025-01-19T10:08:25Z</time>
      </trkpt>
      <trkpt lat="43.41068" lon="6.63259">
        <ele>265.8</ele>
        <time>2025-01-19T10:08:26Z</time>
      </trkpt>
      <trkpt lat="43.41068" lon="6.63259">
        <ele>265.8</ele>
        <time>2025-01-19T10:08:27Z</time>
      </trkpt>
      <trkpt lat="43.41068" lon="6.63259">
        <ele>265.7</ele>
        <time>2025-01-19T10:08:28Z</time>
      </trkpt>
      <trkpt lat="43.41068" lon="6.63259">
        <ele>265.6</ele>
        <time>2025-01-19T10:08:29Z</time>
      </trkpt>
      <trkpt lat="43.41068" lon="6.63258">
        <ele>265.7</ele>
        <time>2025-01-19T10:08:30Z</time>
      </trkpt>
      <trkpt lat="43.41068" lon="6.63258">
        <ele>265.7</ele>
        <time>2025-01-19T10:08:31Z</time>
      </trkpt>
      <trkpt lat="43.41068" lon="6.63259">
        <ele>265.6</ele>
        <time>2025-01-19T10:08:32Z</time>
      </trkpt>
      <trkpt lat="43.41068" lon="6.63259">
        <ele>265.6</ele>
        <time>2025-01-19T10:08:33Z</time>
      </trkpt>
      <trkpt lat="43.41067" lon="6.63259">
        <ele>265.6</ele>
        <time>2025-01-19T10:08:34Z</time>
      </trkpt>
      <trkpt lat="43.41067" lon="6.6326">
        <ele>265.6</ele>
        <time>2025-01-19T10:08:35Z</time>
      </trkpt>
      <trkpt lat="43.41067" lon="6.63259">
        <ele>265.5</ele>
        <time>2025-01-19T10:08:36Z</time>
      </trkpt>
      <trkpt lat="43.41067" lon="6.6326">
        <ele>265.6</ele>
        <time>2025-01-19T10:08:37Z</time>
      </trkpt>
      <trkpt lat="43.41067" lon="6.6326">
        <ele>265.6</ele>
        <time>2025-01-19T10:08:38Z</time>
      </trkpt>
      <trkpt lat="43.41067" lon="6.6326">
        <ele>265.1</ele>
        <time>2025-01-19T10:08:39Z</time>
      </trkpt>
      <trkpt lat="43.41067" lon="6.6326">
        <ele>265.1</ele>
        <time>2025-01-19T10:08:40Z</time>
      </trkpt>
      <trkpt lat="43.41067" lon="6.6326">
        <ele>265.1</ele>
        <time>2025-01-19T10:08:41Z</time>
      </trkpt>
      <trkpt lat="43.41067" lon="6.6326">
        <ele>265.2</ele>
        <time>2025-01-19T10:08:42Z</time>
      </trkpt>
      <trkpt lat="43.41067" lon="6.6326">
        <ele>265.3</ele>
        <time>2025-01-19T10:08:43Z</time>
      </trkpt>
      <trkpt lat="43.41067" lon="6.6326">
        <ele>265.3</ele>
        <time>2025-01-19T10:08:44Z</time>
      </trkpt>
      <trkpt lat="43.41067" lon="6.63259">
        <ele>265.2</ele>
        <time>2025-01-19T10:08:45Z</time>
      </trkpt>
      <trkpt lat="43.41067" lon="6.63259">
        <ele>265.2</ele>
        <time>2025-01-19T10:08:46Z</time>
      </trkpt>
      <trkpt lat="43.41067" lon="6.6326">
        <ele>265.2</ele>
        <time>2025-01-19T10:08:47Z</time>
      </trkpt>
      <trkpt lat="43.41067" lon="6.63259">
        <ele>265.2</ele>
        <time>2025-01-19T10:08:48Z</time>
      </trkpt>
      <trkpt lat="43.41067" lon="6.63259">
        <ele>265.2</ele>
        <time>2025-01-19T10:08:49Z</time>
      </trkpt>
      <trkpt lat="43.41067" lon="6.63258">
        <ele>265.2</ele>
        <time>2025-01-19T10:08:50Z</time>
      </trkpt>
      <trkpt lat="43.41067" lon="6.63258">
        <ele>265.2</ele>
        <time>2025-01-19T10:08:51Z</time>
      </trkpt>
      <trkpt lat="43.41067" lon="6.63258">
        <ele>265.3</ele>
        <time>2025-01-19T10:08:52Z</time>
      </trkpt>
      <trkpt lat="43.41067" lon="6.63258">
        <ele>265.3</ele>
        <time>2025-01-19T10:08:53Z</time>
      </trkpt>
      <trkpt lat="43.41067" lon="6.63259">
        <ele>265.4</ele>
        <time>2025-01-19T10:08:54Z</time>
      </trkpt>
      <trkpt lat="43.41067" lon="6.6326">
        <ele>265.3</ele>
        <time>2025-01-19T10:08:55Z</time>
      </trkpt>
      <trkpt lat="43.41067" lon="6.6326">
        <ele>265.3</ele>
        <time>2025-01-19T10:08:56Z</time>
      </trkpt>
      <trkpt lat="43.41067" lon="6.6326">
        <ele>265.3</ele>
        <time>2025-01-19T10:08:57Z</time>
      </trkpt>
      <trkpt lat="43.41067" lon="6.63259">
        <ele>265.3</ele>
        <time>2025-01-19T10:08:58Z</time>
      </trkpt>
      <trkpt lat="43.41067" lon="6.6326">
        <ele>265.3</ele>
        <time>2025-01-19T10:08:59Z</time>
      </trkpt>
      <trkpt lat="43.41067" lon="6.6326">
        <ele>265.4</ele>
        <time>2025-01-19T10:09:00Z</time>
      </trkpt>
      <trkpt lat="43.41067" lon="6.6326">
        <ele>265.3</ele>
        <time>2025-01-19T10:09:01Z</time>
      </trkpt>
      <trkpt lat="43.41067" lon="6.6326">
        <ele>265.2</ele>
        <time>2025-01-19T10:09:02Z</time>
      </trkpt>
      <trkpt lat="43.41067" lon="6.63261">
        <ele>265.2</ele>
        <time>2025-01-19T10:09:03Z</time>
      </trkpt>
      <trkpt lat="43.41067" lon="6.63261">
        <ele>265.2</ele>
        <time>2025-01-19T10:09:04Z</time>
      </trkpt>
      <trkpt lat="43.41067" lon="6.63261">
        <ele>265.3</ele>
        <time>2025-01-19T10:09:05Z</time>
      </trkpt>
      <trkpt lat="43.41067" lon="6.63261">
        <ele>265.3</ele>
        <time>2025-01-19T10:09:06Z</time>
      </trkpt>
      <trkpt lat="43.41067" lon="6.63261">
        <ele>265.3</ele>
        <time>2025-01-19T10:09:07Z</time>
      </trkpt>
      <trkpt lat="43.41067" lon="6.63261">
        <ele>265.3</ele>
        <time>2025-01-19T10:09:08Z</time>
      </trkpt>
      <trkpt lat="43.41067" lon="6.6326">
        <ele>265.3</ele>
        <time>2025-01-19T10:09:09Z</time>
      </trkpt>
      <trkpt lat="43.41067" lon="6.6326">
        <ele>265.3</ele>
        <time>2025-01-19T10:09:10Z</time>
      </trkpt>
      <trkpt lat="43.41067" lon="6.6326">
        <ele>265.3</ele>
        <time>2025-01-19T10:09:11Z</time>
      </trkpt>
      <trkpt lat="43.41067" lon="6.6326">
        <ele>265.4</ele>
        <time>2025-01-19T10:09:12Z</time>
      </trkpt>
      <trkpt lat="43.41067" lon="6.6326">
        <ele>265.6</ele>
        <time>2025-01-19T10:09:13Z</time>
      </trkpt>
      <trkpt lat="43.41067" lon="6.6326">
        <ele>265.7</ele>
        <time>2025-01-19T10:09:14Z</time>
      </trkpt>
      <trkpt lat="43.41067" lon="6.6326">
        <ele>265.7</ele>
        <time>2025-01-19T10:09:15Z</time>
      </trkpt>
      <trkpt lat="43.41067" lon="6.6326">
        <ele>265.8</ele>
        <time>2025-01-19T10:09:16Z</time>
      </trkpt>
      <trkpt lat="43.41067" lon="6.6326">
        <ele>265.8</ele>
        <time>2025-01-19T10:09:17Z</time>
      </trkpt>
      <trkpt lat="43.41067" lon="6.6326">
        <ele>265.8</ele>
        <time>2025-01-19T10:09:18Z</time>
      </trkpt>
      <trkpt lat="43.41067" lon="6.6326">
        <ele>265.8</ele>
        <time>2025-01-19T10:09:19Z</time>
      </trkpt>
      <trkpt lat="43.41067" lon="6.6326">
        <ele>265.7</ele>
        <time>2025-01-19T10:09:20Z</time>
      </trkpt>
      <trkpt lat="43.41067" lon="6.6326">
        <ele>265.7</ele>
        <time>2025-01-19T10:09:21Z</time>
      </trkpt>
      <trkpt lat="43.41067" lon="6.6326">
        <ele>265.7</ele>
        <time>2025-01-19T10:09:22Z</time>
      </trkpt>
      <trkpt lat="43.41067" lon="6.6326">
        <ele>265.7</ele>
        <time>2025-01-19T10:09:23Z</time>
      </trkpt>
      <trkpt lat="43.41067" lon="6.6326">
        <ele>265.7</ele>
        <time>2025-01-19T10:09:24Z</time>
      </trkpt>
      <trkpt lat="43.41067" lon="6.6326">
        <ele>265.7</ele>
        <time>2025-01-19T10:09:25Z</time>
      </trkpt>
      <trkpt lat="43.41067" lon="6.6326">
        <ele>265.7</ele>
        <time>2025-01-19T10:09:26Z</time>
      </trkpt>
      <trkpt lat="43.41067" lon="6.63259">
        <ele>265.7</ele>
        <time>2025-01-19T10:09:27Z</time>
      </trkpt>
      <trkpt lat="43.41066" lon="6.63259">
        <ele>265.6</ele>
        <time>2025-01-19T10:09:28Z</time>
      </trkpt>
      <trkpt lat="43.41067" lon="6.63259">
        <ele>265.6</ele>
        <time>2025-01-19T10:09:29Z</time>
      </trkpt>
      <trkpt lat="43.41067" lon="6.63259">
        <ele>265.6</ele>
        <time>2025-01-19T10:09:30Z</time>
      </trkpt>
      <trkpt lat="43.41067" lon="6.63259">
        <ele>265.6</ele>
        <time>2025-01-19T10:09:31Z</time>
      </trkpt>
      <trkpt lat="43.41067" lon="6.63258">
        <ele>265.6</ele>
        <time>2025-01-19T10:09:32Z</time>
      </trkpt>
      <trkpt lat="43.41067" lon="6.63258">
        <ele>265.6</ele>
        <time>2025-01-19T10:09:33Z</time>
      </trkpt>
      <trkpt lat="43.41067" lon="6.63259">
        <ele>265.6</ele>
        <time>2025-01-19T10:09:34Z</time>
      </trkpt>
      <trkpt lat="43.41067" lon="6.63258">
        <ele>265.6</ele>
        <time>2025-01-19T10:09:35Z</time>
      </trkpt>
      <trkpt lat="43.41067" lon="6.63258">
        <ele>265.5</ele>
        <time>2025-01-19T10:09:36Z</time>
      </trkpt>
      <trkpt lat="43.41067" lon="6.63258">
        <ele>265.5</ele>
        <time>2025-01-19T10:09:37Z</time>
      </trkpt>
      <trkpt lat="43.41067" lon="6.63258">
        <ele>265.4</ele>
        <time>2025-01-19T10:09:38Z</time>
      </trkpt>
      <trkpt lat="43.41067" lon="6.63257">
        <ele>265.4</ele>
        <time>2025-01-19T10:09:39Z</time>
      </trkpt>
      <trkpt lat="43.41067" lon="6.63257">
        <ele>265.4</ele>
        <time>2025-01-19T10:09:40Z</time>
      </trkpt>
      <trkpt lat="43.41067" lon="6.63257">
        <ele>265.4</ele>
        <time>2025-01-19T10:09:41Z</time>
      </trkpt>
      <trkpt lat="43.41066" lon="6.63257">
        <ele>265.4</ele>
        <time>2025-01-19T10:09:42Z</time>
      </trkpt>
      <trkpt lat="43.41066" lon="6.63258">
        <ele>265.4</ele>
        <time>2025-01-19T10:09:43Z</time>
      </trkpt>
      <trkpt lat="43.41066" lon="6.6326">
        <ele>265.6</ele>
        <time>2025-01-19T10:09:44Z</time>
      </trkpt>
      <trkpt lat="43.41066" lon="6.6326">
        <ele>265.7</ele>
        <time>2025-01-19T10:09:45Z</time>
      </trkpt>
      <trkpt lat="43.41067" lon="6.63261">
        <ele>265.8</ele>
        <time>2025-01-19T10:09:46Z</time>
      </trkpt>
      <trkpt lat="43.41067" lon="6.63261">
        <ele>265.8</ele>
        <time>2025-01-19T10:09:47Z</time>
      </trkpt>
      <trkpt lat="43.41066" lon="6.63262">
        <ele>265.9</ele>
        <time>2025-01-19T10:09:48Z</time>
      </trkpt>
      <trkpt lat="43.41066" lon="6.63262">
        <ele>265.9</ele>
        <time>2025-01-19T10:09:49Z</time>
      </trkpt>
      <trkpt lat="43.41066" lon="6.63263">
        <ele>265.9</ele>
        <time>2025-01-19T10:09:50Z</time>
      </trkpt>
      <trkpt lat="43.41066" lon="6.63263">
        <ele>265.9</ele>
        <time>2025-01-19T10:09:51Z</time>
      </trkpt>
      <trkpt lat="43.41065" lon="6.63264">
        <ele>265.9</ele>
        <time>2025-01-19T10:09:52Z</time>
      </trkpt>
      <trkpt lat="43.41065" lon="6.63263">
        <ele>265.9</ele>
        <time>2025-01-19T10:09:53Z</time>
      </trkpt>
      <trkpt lat="43.41065" lon="6.63263">
        <ele>265.9</ele>
        <time>2025-01-19T10:09:54Z</time>
      </trkpt>
      <trkpt lat="43.41065" lon="6.63263">
        <ele>266</ele>
        <time>2025-01-19T10:09:55Z</time>
      </trkpt>
      <trkpt lat="43.41065" lon="6.63262">
        <ele>266</ele>
        <time>2025-01-19T10:09:56Z</time>
      </trkpt>
      <trkpt lat="43.41065" lon="6.63262">
        <ele>265.9</ele>
        <time>2025-01-19T10:09:57Z</time>
      </trkpt>
      <trkpt lat="43.41064" lon="6.63262">
        <ele>265.9</ele>
        <time>2025-01-19T10:09:58Z</time>
      </trkpt>
      <trkpt lat="43.41064" lon="6.63262">
        <ele>265.9</ele>
        <time>2025-01-19T10:09:59Z</time>
      </trkpt>
      <trkpt lat="43.41063" lon="6.63262">
        <ele>265.9</ele>
        <time>2025-01-19T10:10:00Z</time>
      </trkpt>
      <trkpt lat="43.41062" lon="6.63262">
        <ele>265.8</ele>
        <time>2025-01-19T10:10:01Z</time>
      </trkpt>
      <trkpt lat="43.41062" lon="6.63261">
        <ele>265.8</ele>
        <time>2025-01-19T10:10:02Z</time>
      </trkpt>
      <trkpt lat="43.41061" lon="6.63261">
        <ele>265.9</ele>
        <time>2025-01-19T10:10:03Z</time>
      </trkpt>
      <trkpt lat="43.41061" lon="6.63262">
        <ele>265.9</ele>
        <time>2025-01-19T10:10:04Z</time>
      </trkpt>
      <trkpt lat="43.41061" lon="6.63262">
        <ele>265.9</ele>
        <time>2025-01-19T10:10:05Z</time>
      </trkpt>
      <trkpt lat="43.4106" lon="6.63262">
        <ele>266</ele>
        <time>2025-01-19T10:10:06Z</time>
      </trkpt>
      <trkpt lat="43.4106" lon="6.63263">
        <ele>265.9</ele>
        <time>2025-01-19T10:10:07Z</time>
      </trkpt>
      <trkpt lat="43.4106" lon="6.63263">
        <ele>265.9</ele>
        <time>2025-01-19T10:10:08Z</time>
      </trkpt>
      <trkpt lat="43.41059" lon="6.63264">
        <ele>265.9</ele>
        <time>2025-01-19T10:10:09Z</time>
      </trkpt>
      <trkpt lat="43.41059" lon="6.63264">
        <ele>266</ele>
        <time>2025-01-19T10:10:10Z</time>
      </trkpt>
      <trkpt lat="43.41059" lon="6.63264">
        <ele>266.1</ele>
        <time>2025-01-19T10:10:11Z</time>
      </trkpt>
      <trkpt lat="43.41059" lon="6.63264">
        <ele>266.1</ele>
        <time>2025-01-19T10:10:12Z</time>
      </trkpt>
      <trkpt lat="43.41059" lon="6.63263">
        <ele>266</ele>
        <time>2025-01-19T10:10:13Z</time>
      </trkpt>
      <trkpt lat="43.41059" lon="6.63263">
        <ele>266</ele>
        <time>2025-01-19T10:10:14Z</time>
      </trkpt>
      <trkpt lat="43.41059" lon="6.63263">
        <ele>266</ele>
        <time>2025-01-19T10:10:15Z</time>
      </trkpt>
      <trkpt lat="43.41059" lon="6.63262">
        <ele>266</ele>
        <time>2025-01-19T10:10:16Z</time>
      </trkpt>
      <trkpt lat="43.41059" lon="6.63262">
        <ele>265.9</ele>
        <time>2025-01-19T10:10:17Z</time>
      </trkpt>
      <trkpt lat="43.41059" lon="6.63262">
        <ele>265.9</ele>
        <time>2025-01-19T10:10:18Z</time>
      </trkpt>
      <trkpt lat="43.41059" lon="6.63261">
        <ele>265.9</ele>
        <time>2025-01-19T10:10:19Z</time>
      </trkpt>
      <trkpt lat="43.41059" lon="6.63261">
        <ele>265.9</ele>
        <time>2025-01-19T10:10:20Z</time>
      </trkpt>
      <trkpt lat="43.41059" lon="6.63262">
        <ele>266</ele>
        <time>2025-01-19T10:10:21Z</time>
      </trkpt>
      <trkpt lat="43.41059" lon="6.63261">
        <ele>266</ele>
        <time>2025-01-19T10:10:22Z</time>
      </trkpt>
      <trkpt lat="43.41059" lon="6.63261">
        <ele>266</ele>
        <time>2025-01-19T10:10:23Z</time>
      </trkpt>
      <trkpt lat="43.41059" lon="6.63261">
        <ele>266</ele>
        <time>2025-01-19T10:10:24Z</time>
      </trkpt>
      <trkpt lat="43.41059" lon="6.63261">
        <ele>266</ele>
        <time>2025-01-19T10:10:25Z</time>
      </trkpt>
      <trkpt lat="43.4106" lon="6.63261">
        <ele>265.9</ele>
        <time>2025-01-19T10:10:26Z</time>
      </trkpt>
      <trkpt lat="43.41059" lon="6.63261">
        <ele>265.9</ele>
        <time>2025-01-19T10:10:27Z</time>
      </trkpt>
      <trkpt lat="43.41059" lon="6.63262">
        <ele>265.9</ele>
        <time>2025-01-19T10:10:28Z</time>
      </trkpt>
      <trkpt lat="43.41059" lon="6.63263">
        <ele>265.8</ele>
        <time>2025-01-19T10:10:29Z</time>
      </trkpt>
      <trkpt lat="43.41059" lon="6.63263">
        <ele>265.8</ele>
        <time>2025-01-19T10:10:30Z</time>
      </trkpt>
      <trkpt lat="43.41059" lon="6.63263">
        <ele>265.8</ele>
        <time>2025-01-19T10:10:31Z</time>
      </trkpt>
      <trkpt lat="43.41059" lon="6.63263">
        <ele>265.8</ele>
        <time>2025-01-19T10:10:32Z</time>
      </trkpt>
      <trkpt lat="43.41059" lon="6.63263">
        <ele>265.8</ele>
        <time>2025-01-19T10:10:33Z</time>
      </trkpt>
      <trkpt lat="43.41058" lon="6.63263">
        <ele>265.9</ele>
        <time>2025-01-19T10:10:34Z</time>
      </trkpt>
      <trkpt lat="43.41058" lon="6.63263">
        <ele>265.9</ele>
        <time>2025-01-19T10:10:35Z</time>
      </trkpt>
      <trkpt lat="43.41058" lon="6.63263">
        <ele>265.9</ele>
        <time>2025-01-19T10:10:36Z</time>
      </trkpt>
      <trkpt lat="43.41058" lon="6.63264">
        <ele>265.9</ele>
        <time>2025-01-19T10:10:37Z</time>
      </trkpt>
      <trkpt lat="43.41058" lon="6.63265">
        <ele>265.8</ele>
        <time>2025-01-19T10:10:38Z</time>
      </trkpt>
      <trkpt lat="43.41058" lon="6.63266">
        <ele>265.8</ele>
        <time>2025-01-19T10:10:39Z</time>
      </trkpt>
      <trkpt lat="43.41058" lon="6.63267">
        <ele>265.7</ele>
        <time>2025-01-19T10:10:40Z</time>
      </trkpt>
      <trkpt lat="43.41058" lon="6.63268">
        <ele>265.7</ele>
        <time>2025-01-19T10:10:41Z</time>
      </trkpt>
      <trkpt lat="43.41058" lon="6.63269">
        <ele>265.7</ele>
        <time>2025-01-19T10:10:42Z</time>
      </trkpt>
      <trkpt lat="43.41057" lon="6.6327">
        <ele>265.6</ele>
        <time>2025-01-19T10:10:43Z</time>
      </trkpt>
      <trkpt lat="43.41056" lon="6.63271">
        <ele>265.5</ele>
        <time>2025-01-19T10:10:44Z</time>
      </trkpt>
      <trkpt lat="43.41056" lon="6.63272">
        <ele>265.4</ele>
        <time>2025-01-19T10:10:45Z</time>
      </trkpt>
      <trkpt lat="43.41056" lon="6.63273">
        <ele>265.3</ele>
        <time>2025-01-19T10:10:46Z</time>
      </trkpt>
      <trkpt lat="43.41055" lon="6.63273">
        <ele>265.3</ele>
        <time>2025-01-19T10:10:47Z</time>
      </trkpt>
      <trkpt lat="43.41055" lon="6.63274">
        <ele>265.2</ele>
        <time>2025-01-19T10:10:48Z</time>
      </trkpt>
      <trkpt lat="43.41055" lon="6.63274">
        <ele>265.1</ele>
        <time>2025-01-19T10:10:49Z</time>
      </trkpt>
      <trkpt lat="43.41055" lon="6.63275">
        <ele>265.1</ele>
        <time>2025-01-19T10:10:50Z</time>
      </trkpt>
      <trkpt lat="43.41055" lon="6.63275">
        <ele>265.1</ele>
        <time>2025-01-19T10:10:51Z</time>
      </trkpt>
      <trkpt lat="43.41055" lon="6.63275">
        <ele>265.1</ele>
        <time>2025-01-19T10:10:52Z</time>
      </trkpt>
      <trkpt lat="43.41055" lon="6.63276">
        <ele>265.2</ele>
        <time>2025-01-19T10:10:53Z</time>
      </trkpt>
      <trkpt lat="43.41055" lon="6.63277">
        <ele>265.2</ele>
        <time>2025-01-19T10:10:54Z</time>
      </trkpt>
      <trkpt lat="43.41055" lon="6.63277">
        <ele>265.2</ele>
        <time>2025-01-19T10:10:55Z</time>
      </trkpt>
      <trkpt lat="43.41055" lon="6.63277">
        <ele>265.2</ele>
        <time>2025-01-19T10:10:56Z</time>
      </trkpt>
      <trkpt lat="43.41056" lon="6.63277">
        <ele>265.2</ele>
        <time>2025-01-19T10:10:57Z</time>
      </trkpt>
      <trkpt lat="43.41056" lon="6.63278">
        <ele>265.2</ele>
        <time>2025-01-19T10:10:58Z</time>
      </trkpt>
      <trkpt lat="43.41056" lon="6.63278">
        <ele>265.1</ele>
        <time>2025-01-19T10:10:59Z</time>
      </trkpt>
      <trkpt lat="43.41056" lon="6.63279">
        <ele>265.1</ele>
        <time>2025-01-19T10:11:00Z</time>
      </trkpt>
      <trkpt lat="43.41056" lon="6.63279">
        <ele>265.1</ele>
        <time>2025-01-19T10:11:01Z</time>
      </trkpt>
      <trkpt lat="43.41057" lon="6.63279">
        <ele>265</ele>
        <time>2025-01-19T10:11:02Z</time>
      </trkpt>
      <trkpt lat="43.41057" lon="6.63279">
        <ele>265</ele>
        <time>2025-01-19T10:11:03Z</time>
      </trkpt>
      <trkpt lat="43.41057" lon="6.63279">
        <ele>265.1</ele>
        <time>2025-01-19T10:11:04Z</time>
      </trkpt>
      <trkpt lat="43.41057" lon="6.63279">
        <ele>265.1</ele>
        <time>2025-01-19T10:11:05Z</time>
      </trkpt>
      <trkpt lat="43.41057" lon="6.63279">
        <ele>265.2</ele>
        <time>2025-01-19T10:11:06Z</time>
      </trkpt>
      <trkpt lat="43.41057" lon="6.6328">
        <ele>265.2</ele>
        <time>2025-01-19T10:11:07Z</time>
      </trkpt>
      <trkpt lat="43.41057" lon="6.6328">
        <ele>265.2</ele>
        <time>2025-01-19T10:11:08Z</time>
      </trkpt>
      <trkpt lat="43.41057" lon="6.6328">
        <ele>265.3</ele>
        <time>2025-01-19T10:11:09Z</time>
      </trkpt>
      <trkpt lat="43.41057" lon="6.6328">
        <ele>265.3</ele>
        <time>2025-01-19T10:11:10Z</time>
      </trkpt>
      <trkpt lat="43.41057" lon="6.6328">
        <ele>265.3</ele>
        <time>2025-01-19T10:11:11Z</time>
      </trkpt>
      <trkpt lat="43.41057" lon="6.6328">
        <ele>265.3</ele>
        <time>2025-01-19T10:11:12Z</time>
      </trkpt>
      <trkpt lat="43.41057" lon="6.6328">
        <ele>265.3</ele>
        <time>2025-01-19T10:11:13Z</time>
      </trkpt>
      <trkpt lat="43.41057" lon="6.6328">
        <ele>265.4</ele>
        <time>2025-01-19T10:11:14Z</time>
      </trkpt>
      <trkpt lat="43.41057" lon="6.6328">
        <ele>265.4</ele>
        <time>2025-01-19T10:11:15Z</time>
      </trkpt>
      <trkpt lat="43.41057" lon="6.63279">
        <ele>265.4</ele>
        <time>2025-01-19T10:11:16Z</time>
      </trkpt>
      <trkpt lat="43.41057" lon="6.63279">
        <ele>265.4</ele>
        <time>2025-01-19T10:11:17Z</time>
      </trkpt>
      <trkpt lat="43.41057" lon="6.63279">
        <ele>265.5</ele>
        <time>2025-01-19T10:11:18Z</time>
      </trkpt>
      <trkpt lat="43.41057" lon="6.63279">
        <ele>265.5</ele>
        <time>2025-01-19T10:11:19Z</time>
      </trkpt>
      <trkpt lat="43.41058" lon="6.6328">
        <ele>265.4</ele>
        <time>2025-01-19T10:11:20Z</time>
      </trkpt>
      <trkpt lat="43.41058" lon="6.6328">
        <ele>265.3</ele>
        <time>2025-01-19T10:11:21Z</time>
      </trkpt>
      <trkpt lat="43.41057" lon="6.6328">
        <ele>265.3</ele>
        <time>2025-01-19T10:11:22Z</time>
      </trkpt>
      <trkpt lat="43.41057" lon="6.6328">
        <ele>265.2</ele>
        <time>2025-01-19T10:11:23Z</time>
      </trkpt>
      <trkpt lat="43.41057" lon="6.63279">
        <ele>265.2</ele>
        <time>2025-01-19T10:11:24Z</time>
      </trkpt>
      <trkpt lat="43.41057" lon="6.63279">
        <ele>265.2</ele>
        <time>2025-01-19T10:11:25Z</time>
      </trkpt>
      <trkpt lat="43.41057" lon="6.63279">
        <ele>265.1</ele>
        <time>2025-01-19T10:11:26Z</time>
      </trkpt>
      <trkpt lat="43.41057" lon="6.63279">
        <ele>265.1</ele>
        <time>2025-01-19T10:11:27Z</time>
      </trkpt>
      <trkpt lat="43.41057" lon="6.6328">
        <ele>265.1</ele>
        <time>2025-01-19T10:11:28Z</time>
      </trkpt>
      <trkpt lat="43.41057" lon="6.63279">
        <ele>265.1</ele>
        <time>2025-01-19T10:11:29Z</time>
      </trkpt>
      <trkpt lat="43.41057" lon="6.6328">
        <ele>265.1</ele>
        <time>2025-01-19T10:11:30Z</time>
      </trkpt>
      <trkpt lat="43.41056" lon="6.6328">
        <ele>265.1</ele>
        <time>2025-01-19T10:11:31Z</time>
      </trkpt>
      <trkpt lat="43.41056" lon="6.6328">
        <ele>265</ele>
        <time>2025-01-19T10:11:32Z</time>
      </trkpt>
      <trkpt lat="43.41056" lon="6.6328">
        <ele>264.9</ele>
        <time>2025-01-19T10:11:33Z</time>
      </trkpt>
      <trkpt lat="43.41056" lon="6.6328">
        <ele>264.9</ele>
        <time>2025-01-19T10:11:34Z</time>
      </trkpt>
      <trkpt lat="43.41056" lon="6.6328">
        <ele>264.9</ele>
        <time>2025-01-19T10:11:35Z</time>
      </trkpt>
      <trkpt lat="43.41056" lon="6.6328">
        <ele>264.9</ele>
        <time>2025-01-19T10:11:36Z</time>
      </trkpt>
      <trkpt lat="43.41055" lon="6.6328">
        <ele>264.9</ele>
        <time>2025-01-19T10:11:37Z</time>
      </trkpt>
      <trkpt lat="43.41054" lon="6.6328">
        <ele>264.8</ele>
        <time>2025-01-19T10:11:38Z</time>
      </trkpt>
      <trkpt lat="43.41053" lon="6.63281">
        <ele>264.8</ele>
        <time>2025-01-19T10:11:39Z</time>
      </trkpt>
      <trkpt lat="43.41052" lon="6.63282">
        <ele>264.8</ele>
        <time>2025-01-19T10:11:40Z</time>
      </trkpt>
      <trkpt lat="43.41052" lon="6.63282">
        <ele>264.6</ele>
        <time>2025-01-19T10:11:41Z</time>
      </trkpt>
      <trkpt lat="43.41051" lon="6.63283">
        <ele>264.5</ele>
        <time>2025-01-19T10:11:42Z</time>
      </trkpt>
      <trkpt lat="43.41051" lon="6.63283">
        <ele>264.5</ele>
        <time>2025-01-19T10:11:43Z</time>
      </trkpt>
      <trkpt lat="43.4105" lon="6.63283">
        <ele>264.4</ele>
        <time>2025-01-19T10:11:44Z</time>
      </trkpt>
      <trkpt lat="43.41049" lon="6.63284">
        <ele>264.4</ele>
        <time>2025-01-19T10:11:45Z</time>
      </trkpt>
      <trkpt lat="43.41049" lon="6.63285">
        <ele>264.3</ele>
        <time>2025-01-19T10:11:46Z</time>
      </trkpt>
      <trkpt lat="43.41048" lon="6.63285">
        <ele>264.1</ele>
        <time>2025-01-19T10:11:47Z</time>
      </trkpt>
      <trkpt lat="43.41047" lon="6.63286">
        <ele>263.9</ele>
        <time>2025-01-19T10:11:48Z</time>
      </trkpt>
      <trkpt lat="43.41046" lon="6.63286">
        <ele>263.9</ele>
        <time>2025-01-19T10:11:49Z</time>
      </trkpt>
      <trkpt lat="43.41046" lon="6.63286">
        <ele>263.8</ele>
        <time>2025-01-19T10:11:50Z</time>
      </trkpt>
      <trkpt lat="43.41045" lon="6.63287">
        <ele>263.6</ele>
        <time>2025-01-19T10:11:51Z</time>
      </trkpt>
      <trkpt lat="43.41045" lon="6.63287">
        <ele>263.6</ele>
        <time>2025-01-19T10:11:52Z</time>
      </trkpt>
      <trkpt lat="43.41044" lon="6.63288">
        <ele>263.6</ele>
        <time>2025-01-19T10:11:53Z</time>
      </trkpt>
      <trkpt lat="43.41044" lon="6.63288">
        <ele>263.6</ele>
        <time>2025-01-19T10:11:54Z</time>
      </trkpt>
      <trkpt lat="43.41043" lon="6.63289">
        <ele>263.7</ele>
        <time>2025-01-19T10:11:55Z</time>
      </trkpt>
      <trkpt lat="43.41042" lon="6.6329">
        <ele>263.5</ele>
        <time>2025-01-19T10:11:56Z</time>
      </trkpt>
      <trkpt lat="43.41042" lon="6.6329">
        <ele>263.5</ele>
        <time>2025-01-19T10:11:57Z</time>
      </trkpt>
      <trkpt lat="43.41042" lon="6.6329">
        <ele>263.4</ele>
        <time>2025-01-19T10:11:58Z</time>
      </trkpt>
      <trkpt lat="43.41042" lon="6.6329">
        <ele>263.4</ele>
        <time>2025-01-19T10:11:59Z</time>
      </trkpt>
      <trkpt lat="43.41042" lon="6.63291">
        <ele>263.4</ele>
        <time>2025-01-19T10:12:00Z</time>
      </trkpt>
      <trkpt lat="43.41041" lon="6.63291">
        <ele>263.4</ele>
        <time>2025-01-19T10:12:01Z</time>
      </trkpt>
      <trkpt lat="43.41041" lon="6.63291">
        <ele>263.4</ele>
        <time>2025-01-19T10:12:02Z</time>
      </trkpt>
      <trkpt lat="43.41041" lon="6.63291">
        <ele>263.5</ele>
        <time>2025-01-19T10:12:03Z</time>
      </trkpt>
      <trkpt lat="43.4104" lon="6.6329">
        <ele>263.6</ele>
        <time>2025-01-19T10:12:04Z</time>
      </trkpt>
      <trkpt lat="43.4104" lon="6.6329">
        <ele>263.7</ele>
        <time>2025-01-19T10:12:05Z</time>
      </trkpt>
      <trkpt lat="43.4104" lon="6.6329">
        <ele>263.7</ele>
        <time>2025-01-19T10:12:06Z</time>
      </trkpt>
      <trkpt lat="43.4104" lon="6.6329">
        <ele>263.8</ele>
        <time>2025-01-19T10:12:07Z</time>
      </trkpt>
      <trkpt lat="43.4104" lon="6.63291">
        <ele>263.8</ele>
        <time>2025-01-19T10:12:08Z</time>
      </trkpt>
      <trkpt lat="43.4104" lon="6.63291">
        <ele>263.8</ele>
        <time>2025-01-19T10:12:09Z</time>
      </trkpt>
      <trkpt lat="43.41039" lon="6.63291">
        <ele>263.9</ele>
        <time>2025-01-19T10:12:10Z</time>
      </trkpt>
      <trkpt lat="43.41038" lon="6.63293">
        <ele>263.7</ele>
        <time>2025-01-19T10:12:11Z</time>
      </trkpt>
      <trkpt lat="43.41038" lon="6.63293">
        <ele>263.7</ele>
        <time>2025-01-19T10:12:12Z</time>
      </trkpt>
      <trkpt lat="43.41037" lon="6.63293">
        <ele>263.6</ele>
        <time>2025-01-19T10:12:13Z</time>
      </trkpt>
      <trkpt lat="43.41037" lon="6.63294">
        <ele>263.6</ele>
        <time>2025-01-19T10:12:14Z</time>
      </trkpt>
      <trkpt lat="43.41036" lon="6.63294">
        <ele>263.6</ele>
        <time>2025-01-19T10:12:15Z</time>
      </trkpt>
      <trkpt lat="43.41035" lon="6.63294">
        <ele>263.6</ele>
        <time>2025-01-19T10:12:16Z</time>
      </trkpt>
      <trkpt lat="43.41035" lon="6.63294">
        <ele>263.6</ele>
        <time>2025-01-19T10:12:17Z</time>
      </trkpt>
      <trkpt lat="43.41035" lon="6.63294">
        <ele>263.5</ele>
        <time>2025-01-19T10:12:18Z</time>
      </trkpt>
      <trkpt lat="43.41034" lon="6.63294">
        <ele>263.5</ele>
        <time>2025-01-19T10:12:19Z</time>
      </trkpt>
      <trkpt lat="43.41034" lon="6.63294">
        <ele>263.5</ele>
        <time>2025-01-19T10:12:20Z</time>
      </trkpt>
      <trkpt lat="43.41034" lon="6.63295">
        <ele>263.5</ele>
        <time>2025-01-19T10:12:21Z</time>
      </trkpt>
      <trkpt lat="43.41034" lon="6.63295">
        <ele>263.6</ele>
        <time>2025-01-19T10:12:22Z</time>
      </trkpt>
      <trkpt lat="43.41034" lon="6.63295">
        <ele>263.6</ele>
        <time>2025-01-19T10:12:23Z</time>
      </trkpt>
      <trkpt lat="43.41033" lon="6.63296">
        <ele>263.7</ele>
        <time>2025-01-19T10:12:24Z</time>
      </trkpt>
      <trkpt lat="43.41033" lon="6.63297">
        <ele>263.7</ele>
        <time>2025-01-19T10:12:25Z</time>
      </trkpt>
      <trkpt lat="43.41032" lon="6.63297">
        <ele>263.6</ele>
        <time>2025-01-19T10:12:26Z</time>
      </trkpt>
      <trkpt lat="43.41032" lon="6.63298">
        <ele>263.5</ele>
        <time>2025-01-19T10:12:27Z</time>
      </trkpt>
      <trkpt lat="43.41031" lon="6.63298">
        <ele>263.4</ele>
        <time>2025-01-19T10:12:28Z</time>
      </trkpt>
      <trkpt lat="43.41031" lon="6.63299">
        <ele>263.4</ele>
        <time>2025-01-19T10:12:29Z</time>
      </trkpt>
      <trkpt lat="43.4103" lon="6.633">
        <ele>263.3</ele>
        <time>2025-01-19T10:12:30Z</time>
      </trkpt>
      <trkpt lat="43.4103" lon="6.63301">
        <ele>263.3</ele>
        <time>2025-01-19T10:12:31Z</time>
      </trkpt>
      <trkpt lat="43.41029" lon="6.63301">
        <ele>263.3</ele>
        <time>2025-01-19T10:12:32Z</time>
      </trkpt>
      <trkpt lat="43.41028" lon="6.63302">
        <ele>263.3</ele>
        <time>2025-01-19T10:12:33Z</time>
      </trkpt>
      <trkpt lat="43.41028" lon="6.63302">
        <ele>263.1</ele>
        <time>2025-01-19T10:12:34Z</time>
      </trkpt>
      <trkpt lat="43.41027" lon="6.63303">
        <ele>263.1</ele>
        <time>2025-01-19T10:12:35Z</time>
      </trkpt>
      <trkpt lat="43.41026" lon="6.63303">
        <ele>263.1</ele>
        <time>2025-01-19T10:12:36Z</time>
      </trkpt>
      <trkpt lat="43.41026" lon="6.63304">
        <ele>263.1</ele>
        <time>2025-01-19T10:12:37Z</time>
      </trkpt>
      <trkpt lat="43.41025" lon="6.63304">
        <ele>263</ele>
        <time>2025-01-19T10:12:38Z</time>
      </trkpt>
      <trkpt lat="43.41024" lon="6.63305">
        <ele>262.9</ele>
        <time>2025-01-19T10:12:39Z</time>
      </trkpt>
      <trkpt lat="43.41023" lon="6.63305">
        <ele>262.7</ele>
        <time>2025-01-19T10:12:40Z</time>
      </trkpt>
      <trkpt lat="43.41023" lon="6.63306">
        <ele>262.6</ele>
        <time>2025-01-19T10:12:41Z</time>
      </trkpt>
      <trkpt lat="43.41022" lon="6.63306">
        <ele>262.5</ele>
        <time>2025-01-19T10:12:42Z</time>
      </trkpt>
      <trkpt lat="43.41021" lon="6.63307">
        <ele>262.5</ele>
        <time>2025-01-19T10:12:43Z</time>
      </trkpt>
      <trkpt lat="43.41021" lon="6.63307">
        <ele>262.5</ele>
        <time>2025-01-19T10:12:44Z</time>
      </trkpt>
      <trkpt lat="43.4102" lon="6.63308">
        <ele>262.5</ele>
        <time>2025-01-19T10:12:45Z</time>
      </trkpt>
      <trkpt lat="43.41019" lon="6.63308">
        <ele>262.3</ele>
        <time>2025-01-19T10:12:46Z</time>
      </trkpt>
      <trkpt lat="43.41019" lon="6.63309">
        <ele>262.3</ele>
        <time>2025-01-19T10:12:47Z</time>
      </trkpt>
      <trkpt lat="43.41018" lon="6.6331">
        <ele>262.2</ele>
        <time>2025-01-19T10:12:48Z</time>
      </trkpt>
      <trkpt lat="43.41017" lon="6.6331">
        <ele>262.1</ele>
        <time>2025-01-19T10:12:49Z</time>
      </trkpt>
      <trkpt lat="43.41017" lon="6.63311">
        <ele>261.9</ele>
        <time>2025-01-19T10:12:50Z</time>
      </trkpt>
      <trkpt lat="43.41016" lon="6.63312">
        <ele>261.8</ele>
        <time>2025-01-19T10:12:51Z</time>
      </trkpt>
      <trkpt lat="43.41015" lon="6.63312">
        <ele>261.8</ele>
        <time>2025-01-19T10:12:52Z</time>
      </trkpt>
      <trkpt lat="43.41014" lon="6.63313">
        <ele>261.7</ele>
        <time>2025-01-19T10:12:53Z</time>
      </trkpt>
      <trkpt lat="43.41013" lon="6.63313">
        <ele>261.6</ele>
        <time>2025-01-19T10:12:54Z</time>
      </trkpt>
      <trkpt lat="43.41013" lon="6.63314">
        <ele>261.6</ele>
        <time>2025-01-19T10:12:55Z</time>
      </trkpt>
      <trkpt lat="43.41012" lon="6.63315">
        <ele>261.5</ele>
        <time>2025-01-19T10:12:56Z</time>
      </trkpt>
      <trkpt lat="43.41011" lon="6.63316">
        <ele>261.4</ele>
        <time>2025-01-19T10:12:57Z</time>
      </trkpt>
      <trkpt lat="43.4101" lon="6.63317">
        <ele>261.3</ele>
        <time>2025-01-19T10:12:58Z</time>
      </trkpt>
      <trkpt lat="43.41009" lon="6.63318">
        <ele>261.2</ele>
        <time>2025-01-19T10:12:59Z</time>
      </trkpt>
      <trkpt lat="43.41009" lon="6.63318">
        <ele>261</ele>
        <time>2025-01-19T10:13:00Z</time>
      </trkpt>
      <trkpt lat="43.41008" lon="6.63319">
        <ele>261.1</ele>
        <time>2025-01-19T10:13:01Z</time>
      </trkpt>
      <trkpt lat="43.41007" lon="6.6332">
        <ele>261</ele>
        <time>2025-01-19T10:13:02Z</time>
      </trkpt>
      <trkpt lat="43.41006" lon="6.63321">
        <ele>261</ele>
        <time>2025-01-19T10:13:03Z</time>
      </trkpt>
      <trkpt lat="43.41005" lon="6.63322">
        <ele>260.9</ele>
        <time>2025-01-19T10:13:04Z</time>
      </trkpt>
      <trkpt lat="43.41004" lon="6.63323">
        <ele>260.8</ele>
        <time>2025-01-19T10:13:05Z</time>
      </trkpt>
      <trkpt lat="43.41003" lon="6.63324">
        <ele>260.7</ele>
        <time>2025-01-19T10:13:06Z</time>
      </trkpt>
      <trkpt lat="43.41002" lon="6.63324">
        <ele>260.7</ele>
        <time>2025-01-19T10:13:07Z</time>
      </trkpt>
      <trkpt lat="43.41002" lon="6.63325">
        <ele>260.6</ele>
        <time>2025-01-19T10:13:08Z</time>
      </trkpt>
      <trkpt lat="43.41001" lon="6.63326">
        <ele>260.5</ele>
        <time>2025-01-19T10:13:09Z</time>
      </trkpt>
      <trkpt lat="43.41" lon="6.63327">
        <ele>260.4</ele>
        <time>2025-01-19T10:13:10Z</time>
      </trkpt>
      <trkpt lat="43.40999" lon="6.63328">
        <ele>260.2</ele>
        <time>2025-01-19T10:13:11Z</time>
      </trkpt>
      <trkpt lat="43.40998" lon="6.63329">
        <ele>260.2</ele>
        <time>2025-01-19T10:13:12Z</time>
      </trkpt>
      <trkpt lat="43.40997" lon="6.63329">
        <ele>260</ele>
        <time>2025-01-19T10:13:13Z</time>
      </trkpt>
      <trkpt lat="43.40997" lon="6.6333">
        <ele>259.9</ele>
        <time>2025-01-19T10:13:14Z</time>
      </trkpt>
      <trkpt lat="43.40996" lon="6.63331">
        <ele>259.9</ele>
        <time>2025-01-19T10:13:15Z</time>
      </trkpt>
      <trkpt lat="43.40995" lon="6.63332">
        <ele>259.8</ele>
        <time>2025-01-19T10:13:16Z</time>
      </trkpt>
      <trkpt lat="43.40994" lon="6.63333">
        <ele>259.7</ele>
        <time>2025-01-19T10:13:17Z</time>
      </trkpt>
      <trkpt lat="43.40993" lon="6.63334">
        <ele>259.7</ele>
        <time>2025-01-19T10:13:18Z</time>
      </trkpt>
      <trkpt lat="43.40992" lon="6.63334">
        <ele>259.8</ele>
        <time>2025-01-19T10:13:19Z</time>
      </trkpt>
      <trkpt lat="43.40992" lon="6.63335">
        <ele>259.9</ele>
        <time>2025-01-19T10:13:20Z</time>
      </trkpt>
      <trkpt lat="43.40991" lon="6.63336">
        <ele>259.8</ele>
        <time>2025-01-19T10:13:21Z</time>
      </trkpt>
      <trkpt lat="43.4099" lon="6.63335">
        <ele>259.6</ele>
        <time>2025-01-19T10:13:22Z</time>
      </trkpt>
      <trkpt lat="43.40989" lon="6.63336">
        <ele>259.6</ele>
        <time>2025-01-19T10:13:23Z</time>
      </trkpt>
      <trkpt lat="43.40989" lon="6.63337">
        <ele>259.5</ele>
        <time>2025-01-19T10:13:24Z</time>
      </trkpt>
      <trkpt lat="43.40988" lon="6.63338">
        <ele>259.4</ele>
        <time>2025-01-19T10:13:25Z</time>
      </trkpt>
      <trkpt lat="43.40988" lon="6.63339">
        <ele>259.3</ele>
        <time>2025-01-19T10:13:26Z</time>
      </trkpt>
      <trkpt lat="43.40987" lon="6.6334">
        <ele>258.9</ele>
        <time>2025-01-19T10:13:27Z</time>
      </trkpt>
      <trkpt lat="43.40986" lon="6.6334">
        <ele>258.8</ele>
        <time>2025-01-19T10:13:28Z</time>
      </trkpt>
      <trkpt lat="43.40986" lon="6.63339">
        <ele>258.8</ele>
        <time>2025-01-19T10:13:29Z</time>
      </trkpt>
      <trkpt lat="43.40985" lon="6.6334">
        <ele>258.7</ele>
        <time>2025-01-19T10:13:30Z</time>
      </trkpt>
      <trkpt lat="43.40984" lon="6.6334">
        <ele>258.7</ele>
        <time>2025-01-19T10:13:31Z</time>
      </trkpt>
      <trkpt lat="43.40983" lon="6.63339">
        <ele>258.6</ele>
        <time>2025-01-19T10:13:32Z</time>
      </trkpt>
      <trkpt lat="43.40982" lon="6.63338">
        <ele>258.5</ele>
        <time>2025-01-19T10:13:33Z</time>
      </trkpt>
      <trkpt lat="43.40981" lon="6.63338">
        <ele>258.4</ele>
        <time>2025-01-19T10:13:34Z</time>
      </trkpt>
      <trkpt lat="43.4098" lon="6.63339">
        <ele>258.2</ele>
        <time>2025-01-19T10:13:35Z</time>
      </trkpt>
      <trkpt lat="43.40979" lon="6.6334">
        <ele>258.1</ele>
        <time>2025-01-19T10:13:36Z</time>
      </trkpt>
      <trkpt lat="43.40978" lon="6.6334">
        <ele>257.9</ele>
        <time>2025-01-19T10:13:37Z</time>
      </trkpt>
      <trkpt lat="43.40977" lon="6.63341">
        <ele>257.7</ele>
        <time>2025-01-19T10:13:38Z</time>
      </trkpt>
      <trkpt lat="43.40976" lon="6.63341">
        <ele>257.6</ele>
        <time>2025-01-19T10:13:39Z</time>
      </trkpt>
      <trkpt lat="43.40975" lon="6.63342">
        <ele>257.4</ele>
        <time>2025-01-19T10:13:40Z</time>
      </trkpt>
      <trkpt lat="43.40974" lon="6.63342">
        <ele>257.3</ele>
        <time>2025-01-19T10:13:41Z</time>
      </trkpt>
      <trkpt lat="43.40973" lon="6.63342">
        <ele>257.3</ele>
        <time>2025-01-19T10:13:42Z</time>
      </trkpt>
      <trkpt lat="43.40972" lon="6.63342">
        <ele>257.2</ele>
        <time>2025-01-19T10:13:43Z</time>
      </trkpt>
      <trkpt lat="43.4097" lon="6.63343">
        <ele>257.1</ele>
        <time>2025-01-19T10:13:44Z</time>
      </trkpt>
      <trkpt lat="43.40969" lon="6.63344">
        <ele>257.1</ele>
        <time>2025-01-19T10:13:45Z</time>
      </trkpt>
      <trkpt lat="43.40968" lon="6.63345">
        <ele>257</ele>
        <time>2025-01-19T10:13:46Z</time>
      </trkpt>
      <trkpt lat="43.40967" lon="6.63346">
        <ele>256.7</ele>
        <time>2025-01-19T10:13:47Z</time>
      </trkpt>
      <trkpt lat="43.40966" lon="6.63347">
        <ele>256.6</ele>
        <time>2025-01-19T10:13:48Z</time>
      </trkpt>
      <trkpt lat="43.40966" lon="6.63348">
        <ele>256.4</ele>
        <time>2025-01-19T10:13:49Z</time>
      </trkpt>
      <trkpt lat="43.40965" lon="6.6335">
        <ele>256.2</ele>
        <time>2025-01-19T10:13:50Z</time>
      </trkpt>
      <trkpt lat="43.40965" lon="6.63351">
        <ele>256</ele>
        <time>2025-01-19T10:13:51Z</time>
      </trkpt>
      <trkpt lat="43.40965" lon="6.63353">
        <ele>255.9</ele>
        <time>2025-01-19T10:13:52Z</time>
      </trkpt>
      <trkpt lat="43.40965" lon="6.63355">
        <ele>255.8</ele>
        <time>2025-01-19T10:13:53Z</time>
      </trkpt>
      <trkpt lat="43.40966" lon="6.63355">
        <ele>255.7</ele>
        <time>2025-01-19T10:13:54Z</time>
      </trkpt>
      <trkpt lat="43.40966" lon="6.63357">
        <ele>255.5</ele>
        <time>2025-01-19T10:13:55Z</time>
      </trkpt>
      <trkpt lat="43.40965" lon="6.63361">
        <ele>255.3</ele>
        <time>2025-01-19T10:13:56Z</time>
      </trkpt>
      <trkpt lat="43.40965" lon="6.63363">
        <ele>255.1</ele>
        <time>2025-01-19T10:13:57Z</time>
      </trkpt>
      <trkpt lat="43.40965" lon="6.63365">
        <ele>255</ele>
        <time>2025-01-19T10:13:58Z</time>
      </trkpt>
      <trkpt lat="43.40964" lon="6.63367">
        <ele>254.9</ele>
        <time>2025-01-19T10:13:59Z</time>
      </trkpt>
      <trkpt lat="43.40964" lon="6.63369">
        <ele>254.8</ele>
        <time>2025-01-19T10:14:00Z</time>
      </trkpt>
      <trkpt lat="43.40964" lon="6.63371">
        <ele>254.8</ele>
        <time>2025-01-19T10:14:01Z</time>
      </trkpt>
      <trkpt lat="43.40964" lon="6.63373">
        <ele>254.7</ele>
        <time>2025-01-19T10:14:02Z</time>
      </trkpt>
      <trkpt lat="43.40964" lon="6.63374">
        <ele>254.6</ele>
        <time>2025-01-19T10:14:03Z</time>
      </trkpt>
      <trkpt lat="43.40964" lon="6.63376">
        <ele>254.5</ele>
        <time>2025-01-19T10:14:04Z</time>
      </trkpt>
      <trkpt lat="43.40964" lon="6.63378">
        <ele>254.4</ele>
        <time>2025-01-19T10:14:05Z</time>
      </trkpt>
      <trkpt lat="43.40964" lon="6.6338">
        <ele>254.3</ele>
        <time>2025-01-19T10:14:06Z</time>
      </trkpt>
      <trkpt lat="43.40963" lon="6.6338">
        <ele>254.2</ele>
        <time>2025-01-19T10:14:07Z</time>
      </trkpt>
      <trkpt lat="43.40964" lon="6.63382">
        <ele>254.1</ele>
        <time>2025-01-19T10:14:08Z</time>
      </trkpt>
      <trkpt lat="43.40964" lon="6.63384">
        <ele>253.9</ele>
        <time>2025-01-19T10:14:09Z</time>
      </trkpt>
      <trkpt lat="43.40965" lon="6.63385">
        <ele>253.8</ele>
        <time>2025-01-19T10:14:10Z</time>
      </trkpt>
      <trkpt lat="43.40966" lon="6.63386">
        <ele>253.7</ele>
        <time>2025-01-19T10:14:11Z</time>
      </trkpt>
      <trkpt lat="43.40966" lon="6.63388">
        <ele>253.6</ele>
        <time>2025-01-19T10:14:12Z</time>
      </trkpt>
      <trkpt lat="43.40966" lon="6.63389">
        <ele>253.4</ele>
        <time>2025-01-19T10:14:13Z</time>
      </trkpt>
      <trkpt lat="43.40966" lon="6.63391">
        <ele>253.3</ele>
        <time>2025-01-19T10:14:14Z</time>
      </trkpt>
      <trkpt lat="43.40967" lon="6.63392">
        <ele>253.2</ele>
        <time>2025-01-19T10:14:15Z</time>
      </trkpt>
      <trkpt lat="43.40967" lon="6.63393">
        <ele>253.1</ele>
        <time>2025-01-19T10:14:16Z</time>
      </trkpt>
      <trkpt lat="43.40967" lon="6.63395">
        <ele>253.1</ele>
        <time>2025-01-19T10:14:17Z</time>
      </trkpt>
      <trkpt lat="43.40967" lon="6.63397">
        <ele>253</ele>
        <time>2025-01-19T10:14:18Z</time>
      </trkpt>
      <trkpt lat="43.40967" lon="6.63398">
        <ele>252.8</ele>
        <time>2025-01-19T10:14:19Z</time>
      </trkpt>
      <trkpt lat="43.40967" lon="6.634">
        <ele>252.7</ele>
        <time>2025-01-19T10:14:20Z</time>
      </trkpt>
      <trkpt lat="43.40967" lon="6.63402">
        <ele>252.6</ele>
        <time>2025-01-19T10:14:21Z</time>
      </trkpt>
      <trkpt lat="43.40967" lon="6.63404">
        <ele>252.6</ele>
        <time>2025-01-19T10:14:22Z</time>
      </trkpt>
      <trkpt lat="43.40967" lon="6.63406">
        <ele>252.5</ele>
        <time>2025-01-19T10:14:23Z</time>
      </trkpt>
      <trkpt lat="43.40967" lon="6.63408">
        <ele>252.5</ele>
        <time>2025-01-19T10:14:24Z</time>
      </trkpt>
      <trkpt lat="43.40967" lon="6.6341">
        <ele>252.3</ele>
        <time>2025-01-19T10:14:25Z</time>
      </trkpt>
      <trkpt lat="43.40967" lon="6.63411">
        <ele>252.2</ele>
        <time>2025-01-19T10:14:26Z</time>
      </trkpt>
      <trkpt lat="43.40967" lon="6.63414">
        <ele>252.1</ele>
        <time>2025-01-19T10:14:27Z</time>
      </trkpt>
      <trkpt lat="43.40967" lon="6.63414">
        <ele>252</ele>
        <time>2025-01-19T10:14:28Z</time>
      </trkpt>
      <trkpt lat="43.40967" lon="6.63416">
        <ele>251.9</ele>
        <time>2025-01-19T10:14:29Z</time>
      </trkpt>
      <trkpt lat="43.40967" lon="6.63417">
        <ele>251.9</ele>
        <time>2025-01-19T10:14:30Z</time>
      </trkpt>
      <trkpt lat="43.40966" lon="6.63418">
        <ele>251.8</ele>
        <time>2025-01-19T10:14:31Z</time>
      </trkpt>
      <trkpt lat="43.40966" lon="6.6342">
        <ele>251.6</ele>
        <time>2025-01-19T10:14:32Z</time>
      </trkpt>
      <trkpt lat="43.40966" lon="6.63422">
        <ele>251.4</ele>
        <time>2025-01-19T10:14:33Z</time>
      </trkpt>
      <trkpt lat="43.40965" lon="6.63423">
        <ele>251.4</ele>
        <time>2025-01-19T10:14:34Z</time>
      </trkpt>
      <trkpt lat="43.40965" lon="6.63425">
        <ele>251.3</ele>
        <time>2025-01-19T10:14:35Z</time>
      </trkpt>
      <trkpt lat="43.40964" lon="6.63427">
        <ele>251.3</ele>
        <time>2025-01-19T10:14:36Z</time>
      </trkpt>
      <trkpt lat="43.40964" lon="6.63429">
        <ele>251.2</ele>
        <time>2025-01-19T10:14:37Z</time>
      </trkpt>
      <trkpt lat="43.40964" lon="6.63431">
        <ele>251.1</ele>
        <time>2025-01-19T10:14:38Z</time>
      </trkpt>
      <trkpt lat="43.40964" lon="6.63432">
        <ele>251</ele>
        <time>2025-01-19T10:14:39Z</time>
      </trkpt>
      <trkpt lat="43.40964" lon="6.63434">
        <ele>250.9</ele>
        <time>2025-01-19T10:14:40Z</time>
      </trkpt>
      <trkpt lat="43.40964" lon="6.63435">
        <ele>250.9</ele>
        <time>2025-01-19T10:14:41Z</time>
      </trkpt>
      <trkpt lat="43.40963" lon="6.63436">
        <ele>250.8</ele>
        <time>2025-01-19T10:14:42Z</time>
      </trkpt>
      <trkpt lat="43.40963" lon="6.63438">
        <ele>250.8</ele>
        <time>2025-01-19T10:14:43Z</time>
      </trkpt>
      <trkpt lat="43.40962" lon="6.63439">
        <ele>250.5</ele>
        <time>2025-01-19T10:14:44Z</time>
      </trkpt>
      <trkpt lat="43.40962" lon="6.6344">
        <ele>250.5</ele>
        <time>2025-01-19T10:14:45Z</time>
      </trkpt>
      <trkpt lat="43.40961" lon="6.63441">
        <ele>250.4</ele>
        <time>2025-01-19T10:14:46Z</time>
      </trkpt>
      <trkpt lat="43.40961" lon="6.63443">
        <ele>250.1</ele>
        <time>2025-01-19T10:14:47Z</time>
      </trkpt>
      <trkpt lat="43.40961" lon="6.63444">
        <ele>250</ele>
        <time>2025-01-19T10:14:48Z</time>
      </trkpt>
      <trkpt lat="43.4096" lon="6.63446">
        <ele>249.8</ele>
        <time>2025-01-19T10:14:49Z</time>
      </trkpt>
      <trkpt lat="43.40959" lon="6.63448">
        <ele>249.8</ele>
        <time>2025-01-19T10:14:50Z</time>
      </trkpt>
      <trkpt lat="43.40958" lon="6.63449">
        <ele>249.6</ele>
        <time>2025-01-19T10:14:51Z</time>
      </trkpt>
      <trkpt lat="43.40957" lon="6.63451">
        <ele>249.5</ele>
        <time>2025-01-19T10:14:52Z</time>
      </trkpt>
      <trkpt lat="43.40957" lon="6.63453">
        <ele>249.4</ele>
        <time>2025-01-19T10:14:53Z</time>
      </trkpt>
      <trkpt lat="43.40956" lon="6.63454">
        <ele>249.2</ele>
        <time>2025-01-19T10:14:54Z</time>
      </trkpt>
      <trkpt lat="43.40955" lon="6.63455">
        <ele>249.1</ele>
        <time>2025-01-19T10:14:55Z</time>
      </trkpt>
      <trkpt lat="43.40955" lon="6.63457">
        <ele>249</ele>
        <time>2025-01-19T10:14:56Z</time>
      </trkpt>
      <trkpt lat="43.40954" lon="6.63459">
        <ele>248.8</ele>
        <time>2025-01-19T10:14:57Z</time>
      </trkpt>
      <trkpt lat="43.40954" lon="6.63461">
        <ele>248.7</ele>
        <time>2025-01-19T10:14:58Z</time>
      </trkpt>
      <trkpt lat="43.40953" lon="6.63461">
        <ele>248.6</ele>
        <time>2025-01-19T10:14:59Z</time>
      </trkpt>
      <trkpt lat="43.40953" lon="6.63462">
        <ele>248.5</ele>
        <time>2025-01-19T10:15:00Z</time>
      </trkpt>
      <trkpt lat="43.40952" lon="6.63464">
        <ele>248.4</ele>
        <time>2025-01-19T10:15:01Z</time>
      </trkpt>
      <trkpt lat="43.40952" lon="6.63465">
        <ele>248.3</ele>
        <time>2025-01-19T10:15:02Z</time>
      </trkpt>
      <trkpt lat="43.40951" lon="6.63467">
        <ele>248.3</ele>
        <time>2025-01-19T10:15:03Z</time>
      </trkpt>
      <trkpt lat="43.4095" lon="6.63469">
        <ele>248.2</ele>
        <time>2025-01-19T10:15:04Z</time>
      </trkpt>
      <trkpt lat="43.40949" lon="6.6347">
        <ele>248</ele>
        <time>2025-01-19T10:15:05Z</time>
      </trkpt>
      <trkpt lat="43.40948" lon="6.63472">
        <ele>247.8</ele>
        <time>2025-01-19T10:15:06Z</time>
      </trkpt>
      <trkpt lat="43.40947" lon="6.63472">
        <ele>247.7</ele>
        <time>2025-01-19T10:15:07Z</time>
      </trkpt>
      <trkpt lat="43.40946" lon="6.63474">
        <ele>247.6</ele>
        <time>2025-01-19T10:15:08Z</time>
      </trkpt>
      <trkpt lat="43.40945" lon="6.63476">
        <ele>247.3</ele>
        <time>2025-01-19T10:15:09Z</time>
      </trkpt>
      <trkpt lat="43.40944" lon="6.63478">
        <ele>247.1</ele>
        <time>2025-01-19T10:15:10Z</time>
      </trkpt>
      <trkpt lat="43.40943" lon="6.63479">
        <ele>246.9</ele>
        <time>2025-01-19T10:15:11Z</time>
      </trkpt>
      <trkpt lat="43.40943" lon="6.63481">
        <ele>246.8</ele>
        <time>2025-01-19T10:15:12Z</time>
      </trkpt>
      <trkpt lat="43.40942" lon="6.63483">
        <ele>246.7</ele>
        <time>2025-01-19T10:15:13Z</time>
      </trkpt>
      <trkpt lat="43.40941" lon="6.63485">
        <ele>246.6</ele>
        <time>2025-01-19T10:15:14Z</time>
      </trkpt>
      <trkpt lat="43.40941" lon="6.63486">
        <ele>246.7</ele>
        <time>2025-01-19T10:15:15Z</time>
      </trkpt>
      <trkpt lat="43.4094" lon="6.63487">
        <ele>246.7</ele>
        <time>2025-01-19T10:15:16Z</time>
      </trkpt>
      <trkpt lat="43.40939" lon="6.63488">
        <ele>246.7</ele>
        <time>2025-01-19T10:15:17Z</time>
      </trkpt>
      <trkpt lat="43.40938" lon="6.63489">
        <ele>246.7</ele>
        <time>2025-01-19T10:15:18Z</time>
      </trkpt>
      <trkpt lat="43.40938" lon="6.6349">
        <ele>246.6</ele>
        <time>2025-01-19T10:15:19Z</time>
      </trkpt>
      <trkpt lat="43.40937" lon="6.63491">
        <ele>246.5</ele>
        <time>2025-01-19T10:15:20Z</time>
      </trkpt>
      <trkpt lat="43.40936" lon="6.63492">
        <ele>246.4</ele>
        <time>2025-01-19T10:15:21Z</time>
      </trkpt>
      <trkpt lat="43.40936" lon="6.63493">
        <ele>246.3</ele>
        <time>2025-01-19T10:15:22Z</time>
      </trkpt>
      <trkpt lat="43.40935" lon="6.63494">
        <ele>246.1</ele>
        <time>2025-01-19T10:15:23Z</time>
      </trkpt>
      <trkpt lat="43.40935" lon="6.63495">
        <ele>246</ele>
        <time>2025-01-19T10:15:24Z</time>
      </trkpt>
      <trkpt lat="43.40934" lon="6.63497">
        <ele>245.8</ele>
        <time>2025-01-19T10:15:25Z</time>
      </trkpt>
      <trkpt lat="43.40934" lon="6.63498">
        <ele>245.8</ele>
        <time>2025-01-19T10:15:26Z</time>
      </trkpt>
      <trkpt lat="43.40933" lon="6.63498">
        <ele>245.6</ele>
        <time>2025-01-19T10:15:27Z</time>
      </trkpt>
      <trkpt lat="43.40933" lon="6.635">
        <ele>245.5</ele>
        <time>2025-01-19T10:15:28Z</time>
      </trkpt>
      <trkpt lat="43.40932" lon="6.63501">
        <ele>245.4</ele>
        <time>2025-01-19T10:15:29Z</time>
      </trkpt>
      <trkpt lat="43.40931" lon="6.63503">
        <ele>245.3</ele>
        <time>2025-01-19T10:15:30Z</time>
      </trkpt>
      <trkpt lat="43.4093" lon="6.63505">
        <ele>245.2</ele>
        <time>2025-01-19T10:15:31Z</time>
      </trkpt>
      <trkpt lat="43.4093" lon="6.63506">
        <ele>245.1</ele>
        <time>2025-01-19T10:15:32Z</time>
      </trkpt>
      <trkpt lat="43.40929" lon="6.63508">
        <ele>245</ele>
        <time>2025-01-19T10:15:33Z</time>
      </trkpt>
      <trkpt lat="43.40928" lon="6.63509">
        <ele>244.9</ele>
        <time>2025-01-19T10:15:34Z</time>
      </trkpt>
      <trkpt lat="43.40927" lon="6.6351">
        <ele>244.9</ele>
        <time>2025-01-19T10:15:35Z</time>
      </trkpt>
      <trkpt lat="43.40926" lon="6.63512">
        <ele>244.8</ele>
        <time>2025-01-19T10:15:36Z</time>
      </trkpt>
      <trkpt lat="43.40926" lon="6.63512">
        <ele>244.7</ele>
        <time>2025-01-19T10:15:37Z</time>
      </trkpt>
      <trkpt lat="43.40925" lon="6.63513">
        <ele>244.6</ele>
        <time>2025-01-19T10:15:38Z</time>
      </trkpt>
      <trkpt lat="43.40925" lon="6.63514">
        <ele>244.4</ele>
        <time>2025-01-19T10:15:39Z</time>
      </trkpt>
      <trkpt lat="43.40924" lon="6.63515">
        <ele>244.3</ele>
        <time>2025-01-19T10:15:40Z</time>
      </trkpt>
      <trkpt lat="43.40923" lon="6.63517">
        <ele>244.2</ele>
        <time>2025-01-19T10:15:41Z</time>
      </trkpt>
      <trkpt lat="43.40922" lon="6.63518">
        <ele>244.2</ele>
        <time>2025-01-19T10:15:42Z</time>
      </trkpt>
      <trkpt lat="43.40922" lon="6.6352">
        <ele>244.2</ele>
        <time>2025-01-19T10:15:43Z</time>
      </trkpt>
      <trkpt lat="43.40921" lon="6.63521">
        <ele>244.1</ele>
        <time>2025-01-19T10:15:44Z</time>
      </trkpt>
      <trkpt lat="43.4092" lon="6.63522">
        <ele>244</ele>
        <time>2025-01-19T10:15:45Z</time>
      </trkpt>
      <trkpt lat="43.4092" lon="6.63523">
        <ele>243.9</ele>
        <time>2025-01-19T10:15:46Z</time>
      </trkpt>
      <trkpt lat="43.40919" lon="6.63524">
        <ele>243.8</ele>
        <time>2025-01-19T10:15:47Z</time>
      </trkpt>
      <trkpt lat="43.40918" lon="6.63525">
        <ele>243.7</ele>
        <time>2025-01-19T10:15:48Z</time>
      </trkpt>
      <trkpt lat="43.40917" lon="6.63526">
        <ele>243.7</ele>
        <time>2025-01-19T10:15:49Z</time>
      </trkpt>
      <trkpt lat="43.40917" lon="6.63527">
        <ele>243.6</ele>
        <time>2025-01-19T10:15:50Z</time>
      </trkpt>
      <trkpt lat="43.40916" lon="6.63528">
        <ele>243.6</ele>
        <time>2025-01-19T10:15:51Z</time>
      </trkpt>
      <trkpt lat="43.40916" lon="6.63529">
        <ele>243.5</ele>
        <time>2025-01-19T10:15:52Z</time>
      </trkpt>
      <trkpt lat="43.40915" lon="6.63531">
        <ele>243.5</ele>
        <time>2025-01-19T10:15:53Z</time>
      </trkpt>
      <trkpt lat="43.40914" lon="6.63532">
        <ele>243.3</ele>
        <time>2025-01-19T10:15:54Z</time>
      </trkpt>
      <trkpt lat="43.40913" lon="6.63533">
        <ele>243.2</ele>
        <time>2025-01-19T10:15:55Z</time>
      </trkpt>
      <trkpt lat="43.40912" lon="6.63534">
        <ele>243.1</ele>
        <time>2025-01-19T10:15:56Z</time>
      </trkpt>
      <trkpt lat="43.40912" lon="6.63535">
        <ele>243</ele>
        <time>2025-01-19T10:15:57Z</time>
      </trkpt>
      <trkpt lat="43.40911" lon="6.63536">
        <ele>243</ele>
        <time>2025-01-19T10:15:58Z</time>
      </trkpt>
      <trkpt lat="43.4091" lon="6.63537">
        <ele>242.9</ele>
        <time>2025-01-19T10:15:59Z</time>
      </trkpt>
      <trkpt lat="43.40909" lon="6.63538">
        <ele>242.8</ele>
        <time>2025-01-19T10:16:00Z</time>
      </trkpt>
      <trkpt lat="43.40908" lon="6.63538">
        <ele>242.7</ele>
        <time>2025-01-19T10:16:01Z</time>
      </trkpt>
      <trkpt lat="43.40907" lon="6.63539">
        <ele>242.6</ele>
        <time>2025-01-19T10:16:02Z</time>
      </trkpt>
      <trkpt lat="43.40907" lon="6.6354">
        <ele>242.5</ele>
        <time>2025-01-19T10:16:03Z</time>
      </trkpt>
      <trkpt lat="43.40906" lon="6.63541">
        <ele>242.4</ele>
        <time>2025-01-19T10:16:04Z</time>
      </trkpt>
      <trkpt lat="43.40905" lon="6.63541">
        <ele>242.4</ele>
        <time>2025-01-19T10:16:05Z</time>
      </trkpt>
      <trkpt lat="43.40905" lon="6.63543">
        <ele>242.3</ele>
        <time>2025-01-19T10:16:06Z</time>
      </trkpt>
      <trkpt lat="43.40904" lon="6.63543">
        <ele>242.2</ele>
        <time>2025-01-19T10:16:07Z</time>
      </trkpt>
      <trkpt lat="43.40903" lon="6.63544">
        <ele>242.1</ele>
        <time>2025-01-19T10:16:08Z</time>
      </trkpt>
      <trkpt lat="43.40902" lon="6.63545">
        <ele>242</ele>
        <time>2025-01-19T10:16:09Z</time>
      </trkpt>
      <trkpt lat="43.40901" lon="6.63546">
        <ele>241.9</ele>
        <time>2025-01-19T10:16:10Z</time>
      </trkpt>
      <trkpt lat="43.40901" lon="6.63547">
        <ele>241.9</ele>
        <time>2025-01-19T10:16:11Z</time>
      </trkpt>
      <trkpt lat="43.40899" lon="6.63547">
        <ele>241.7</ele>
        <time>2025-01-19T10:16:12Z</time>
      </trkpt>
      <trkpt lat="43.40899" lon="6.63548">
        <ele>241.6</ele>
        <time>2025-01-19T10:16:13Z</time>
      </trkpt>
      <trkpt lat="43.40898" lon="6.63549">
        <ele>241.4</ele>
        <time>2025-01-19T10:16:14Z</time>
      </trkpt>
      <trkpt lat="43.40897" lon="6.6355">
        <ele>241.2</ele>
        <time>2025-01-19T10:16:15Z</time>
      </trkpt>
      <trkpt lat="43.40896" lon="6.63551">
        <ele>241</ele>
        <time>2025-01-19T10:16:16Z</time>
      </trkpt>
      <trkpt lat="43.40895" lon="6.63552">
        <ele>240.9</ele>
        <time>2025-01-19T10:16:17Z</time>
      </trkpt>
      <trkpt lat="43.40894" lon="6.63552">
        <ele>240.7</ele>
        <time>2025-01-19T10:16:18Z</time>
      </trkpt>
      <trkpt lat="43.40893" lon="6.63553">
        <ele>240.7</ele>
        <time>2025-01-19T10:16:19Z</time>
      </trkpt>
      <trkpt lat="43.40892" lon="6.63554">
        <ele>240.4</ele>
        <time>2025-01-19T10:16:20Z</time>
      </trkpt>
      <trkpt lat="43.40891" lon="6.63555">
        <ele>240.2</ele>
        <time>2025-01-19T10:16:21Z</time>
      </trkpt>
      <trkpt lat="43.40891" lon="6.63556">
        <ele>240.1</ele>
        <time>2025-01-19T10:16:22Z</time>
      </trkpt>
      <trkpt lat="43.4089" lon="6.63557">
        <ele>239.9</ele>
        <time>2025-01-19T10:16:23Z</time>
      </trkpt>
      <trkpt lat="43.40889" lon="6.63557">
        <ele>239.8</ele>
        <time>2025-01-19T10:16:24Z</time>
      </trkpt>
      <trkpt lat="43.40888" lon="6.63558">
        <ele>239.6</ele>
        <time>2025-01-19T10:16:25Z</time>
      </trkpt>
      <trkpt lat="43.40887" lon="6.63559">
        <ele>239.5</ele>
        <time>2025-01-19T10:16:26Z</time>
      </trkpt>
      <trkpt lat="43.40886" lon="6.6356">
        <ele>239.4</ele>
        <time>2025-01-19T10:16:27Z</time>
      </trkpt>
      <trkpt lat="43.40885" lon="6.6356">
        <ele>239.3</ele>
        <time>2025-01-19T10:16:28Z</time>
      </trkpt>
      <trkpt lat="43.40885" lon="6.63561">
        <ele>239.1</ele>
        <time>2025-01-19T10:16:29Z</time>
      </trkpt>
      <trkpt lat="43.40884" lon="6.63561">
        <ele>238.9</ele>
        <time>2025-01-19T10:16:30Z</time>
      </trkpt>
      <trkpt lat="43.40883" lon="6.63562">
        <ele>238.7</ele>
        <time>2025-01-19T10:16:31Z</time>
      </trkpt>
      <trkpt lat="43.40882" lon="6.63563">
        <ele>238.6</ele>
        <time>2025-01-19T10:16:32Z</time>
      </trkpt>
      <trkpt lat="43.40881" lon="6.63564">
        <ele>238.5</ele>
        <time>2025-01-19T10:16:33Z</time>
      </trkpt>
      <trkpt lat="43.4088" lon="6.63565">
        <ele>238.4</ele>
        <time>2025-01-19T10:16:34Z</time>
      </trkpt>
      <trkpt lat="43.4088" lon="6.63565">
        <ele>238.3</ele>
        <time>2025-01-19T10:16:35Z</time>
      </trkpt>
      <trkpt lat="43.40879" lon="6.63566">
        <ele>238.3</ele>
        <time>2025-01-19T10:16:36Z</time>
      </trkpt>
      <trkpt lat="43.40878" lon="6.63566">
        <ele>238.2</ele>
        <time>2025-01-19T10:16:37Z</time>
      </trkpt>
      <trkpt lat="43.40877" lon="6.63566">
        <ele>238.1</ele>
        <time>2025-01-19T10:16:38Z</time>
      </trkpt>
      <trkpt lat="43.40877" lon="6.63567">
        <ele>238</ele>
        <time>2025-01-19T10:16:39Z</time>
      </trkpt>
      <trkpt lat="43.40877" lon="6.63567">
        <ele>237.9</ele>
        <time>2025-01-19T10:16:40Z</time>
      </trkpt>
      <trkpt lat="43.40877" lon="6.63566">
        <ele>237.8</ele>
        <time>2025-01-19T10:16:41Z</time>
      </trkpt>
      <trkpt lat="43.40877" lon="6.63567">
        <ele>237.8</ele>
        <time>2025-01-19T10:16:42Z</time>
      </trkpt>
      <trkpt lat="43.40876" lon="6.63567">
        <ele>237.7</ele>
        <time>2025-01-19T10:16:43Z</time>
      </trkpt>
      <trkpt lat="43.40876" lon="6.63567">
        <ele>237.6</ele>
        <time>2025-01-19T10:16:44Z</time>
      </trkpt>
      <trkpt lat="43.40875" lon="6.63567">
        <ele>237.6</ele>
        <time>2025-01-19T10:16:45Z</time>
      </trkpt>
      <trkpt lat="43.40874" lon="6.63567">
        <ele>237.5</ele>
        <time>2025-01-19T10:16:46Z</time>
      </trkpt>
      <trkpt lat="43.40874" lon="6.63567">
        <ele>237.5</ele>
        <time>2025-01-19T10:16:47Z</time>
      </trkpt>
      <trkpt lat="43.40873" lon="6.63568">
        <ele>237.5</ele>
        <time>2025-01-19T10:16:48Z</time>
      </trkpt>
      <trkpt lat="43.40873" lon="6.63569">
        <ele>237.5</ele>
        <time>2025-01-19T10:16:49Z</time>
      </trkpt>
      <trkpt lat="43.40872" lon="6.63569">
        <ele>237.5</ele>
        <time>2025-01-19T10:16:50Z</time>
      </trkpt>
      <trkpt lat="43.40871" lon="6.63569">
        <ele>237.5</ele>
        <time>2025-01-19T10:16:51Z</time>
      </trkpt>
      <trkpt lat="43.40871" lon="6.6357">
        <ele>237.4</ele>
        <time>2025-01-19T10:16:52Z</time>
      </trkpt>
      <trkpt lat="43.4087" lon="6.6357">
        <ele>237.4</ele>
        <time>2025-01-19T10:16:53Z</time>
      </trkpt>
      <trkpt lat="43.4087" lon="6.6357">
        <ele>237.4</ele>
        <time>2025-01-19T10:16:54Z</time>
      </trkpt>
      <trkpt lat="43.40869" lon="6.6357">
        <ele>237.4</ele>
        <time>2025-01-19T10:16:55Z</time>
      </trkpt>
      <trkpt lat="43.40868" lon="6.6357">
        <ele>237.3</ele>
        <time>2025-01-19T10:16:56Z</time>
      </trkpt>
      <trkpt lat="43.40868" lon="6.63571">
        <ele>237.4</ele>
        <time>2025-01-19T10:16:57Z</time>
      </trkpt>
      <trkpt lat="43.40868" lon="6.63571">
        <ele>237.3</ele>
        <time>2025-01-19T10:16:58Z</time>
      </trkpt>
      <trkpt lat="43.40867" lon="6.63572">
        <ele>237.3</ele>
        <time>2025-01-19T10:16:59Z</time>
      </trkpt>
      <trkpt lat="43.40866" lon="6.63572">
        <ele>237.4</ele>
        <time>2025-01-19T10:17:00Z</time>
      </trkpt>
      <trkpt lat="43.40865" lon="6.63572">
        <ele>237.4</ele>
        <time>2025-01-19T10:17:01Z</time>
      </trkpt>
      <trkpt lat="43.40864" lon="6.63572">
        <ele>237.3</ele>
        <time>2025-01-19T10:17:02Z</time>
      </trkpt>
      <trkpt lat="43.40864" lon="6.63573">
        <ele>237.3</ele>
        <time>2025-01-19T10:17:03Z</time>
      </trkpt>
      <trkpt lat="43.40863" lon="6.63574">
        <ele>237.3</ele>
        <time>2025-01-19T10:17:04Z</time>
      </trkpt>
      <trkpt lat="43.40862" lon="6.63574">
        <ele>237.3</ele>
        <time>2025-01-19T10:17:05Z</time>
      </trkpt>
      <trkpt lat="43.40861" lon="6.63574">
        <ele>237.1</ele>
        <time>2025-01-19T10:17:06Z</time>
      </trkpt>
      <trkpt lat="43.40861" lon="6.63575">
        <ele>237</ele>
        <time>2025-01-19T10:17:07Z</time>
      </trkpt>
      <trkpt lat="43.4086" lon="6.63575">
        <ele>236.9</ele>
        <time>2025-01-19T10:17:08Z</time>
      </trkpt>
      <trkpt lat="43.4086" lon="6.63576">
        <ele>236.7</ele>
        <time>2025-01-19T10:17:09Z</time>
      </trkpt>
      <trkpt lat="43.40859" lon="6.63576">
        <ele>236.5</ele>
        <time>2025-01-19T10:17:10Z</time>
      </trkpt>
      <trkpt lat="43.40858" lon="6.63576">
        <ele>236.4</ele>
        <time>2025-01-19T10:17:11Z</time>
      </trkpt>
      <trkpt lat="43.40858" lon="6.63576">
        <ele>236.3</ele>
        <time>2025-01-19T10:17:12Z</time>
      </trkpt>
      <trkpt lat="43.40857" lon="6.63577">
        <ele>236.2</ele>
        <time>2025-01-19T10:17:13Z</time>
      </trkpt>
      <trkpt lat="43.40857" lon="6.63577">
        <ele>236.1</ele>
        <time>2025-01-19T10:17:14Z</time>
      </trkpt>
      <trkpt lat="43.40857" lon="6.63577">
        <ele>236</ele>
        <time>2025-01-19T10:17:15Z</time>
      </trkpt>
      <trkpt lat="43.40857" lon="6.63577">
        <ele>235.9</ele>
        <time>2025-01-19T10:17:16Z</time>
      </trkpt>
      <trkpt lat="43.40857" lon="6.63577">
        <ele>235.8</ele>
        <time>2025-01-19T10:17:17Z</time>
      </trkpt>
      <trkpt lat="43.40857" lon="6.63577">
        <ele>235.8</ele>
        <time>2025-01-19T10:17:18Z</time>
      </trkpt>
      <trkpt lat="43.40857" lon="6.63578">
        <ele>235.8</ele>
        <time>2025-01-19T10:17:19Z</time>
      </trkpt>
      <trkpt lat="43.40857" lon="6.63578">
        <ele>235.8</ele>
        <time>2025-01-19T10:17:20Z</time>
      </trkpt>
      <trkpt lat="43.40857" lon="6.63578">
        <ele>235.8</ele>
        <time>2025-01-19T10:17:21Z</time>
      </trkpt>
      <trkpt lat="43.40856" lon="6.63578">
        <ele>235.8</ele>
        <time>2025-01-19T10:17:22Z</time>
      </trkpt>
      <trkpt lat="43.40856" lon="6.63579">
        <ele>235.9</ele>
        <time>2025-01-19T10:17:23Z</time>
      </trkpt>
      <trkpt lat="43.40856" lon="6.6358">
        <ele>235.9</ele>
        <time>2025-01-19T10:17:24Z</time>
      </trkpt>
      <trkpt lat="43.40855" lon="6.6358">
        <ele>236</ele>
        <time>2025-01-19T10:17:25Z</time>
      </trkpt>
      <trkpt lat="43.40855" lon="6.63581">
        <ele>235.9</ele>
        <time>2025-01-19T10:17:26Z</time>
      </trkpt>
      <trkpt lat="43.40854" lon="6.63581">
        <ele>235.9</ele>
        <time>2025-01-19T10:17:27Z</time>
      </trkpt>
      <trkpt lat="43.40854" lon="6.63582">
        <ele>235.9</ele>
        <time>2025-01-19T10:17:28Z</time>
      </trkpt>
      <trkpt lat="43.40854" lon="6.63582">
        <ele>235.8</ele>
        <time>2025-01-19T10:17:29Z</time>
      </trkpt>
      <trkpt lat="43.40854" lon="6.63582">
        <ele>235.8</ele>
        <time>2025-01-19T10:17:30Z</time>
      </trkpt>
      <trkpt lat="43.40853" lon="6.63583">
        <ele>235.8</ele>
        <time>2025-01-19T10:17:31Z</time>
      </trkpt>
      <trkpt lat="43.40853" lon="6.63583">
        <ele>235.8</ele>
        <time>2025-01-19T10:17:32Z</time>
      </trkpt>
      <trkpt lat="43.40853" lon="6.63583">
        <ele>235.7</ele>
        <time>2025-01-19T10:17:33Z</time>
      </trkpt>
      <trkpt lat="43.40853" lon="6.63583">
        <ele>235.8</ele>
        <time>2025-01-19T10:17:34Z</time>
      </trkpt>
      <trkpt lat="43.40853" lon="6.63583">
        <ele>235.8</ele>
        <time>2025-01-19T10:17:35Z</time>
      </trkpt>
      <trkpt lat="43.40853" lon="6.63583">
        <ele>235.8</ele>
        <time>2025-01-19T10:17:36Z</time>
      </trkpt>
      <trkpt lat="43.40852" lon="6.63584">
        <ele>235.8</ele>
        <time>2025-01-19T10:17:37Z</time>
      </trkpt>
      <trkpt lat="43.40852" lon="6.63584">
        <ele>236</ele>
        <time>2025-01-19T10:17:38Z</time>
      </trkpt>
      <trkpt lat="43.40852" lon="6.63584">
        <ele>236</ele>
        <time>2025-01-19T10:17:39Z</time>
      </trkpt>
      <trkpt lat="43.40852" lon="6.63584">
        <ele>236</ele>
        <time>2025-01-19T10:17:40Z</time>
      </trkpt>
      <trkpt lat="43.40852" lon="6.63584">
        <ele>236</ele>
        <time>2025-01-19T10:17:41Z</time>
      </trkpt>
      <trkpt lat="43.40852" lon="6.63584">
        <ele>236</ele>
        <time>2025-01-19T10:17:42Z</time>
      </trkpt>
      <trkpt lat="43.40852" lon="6.63584">
        <ele>236</ele>
        <time>2025-01-19T10:17:43Z</time>
      </trkpt>
      <trkpt lat="43.40852" lon="6.63584">
        <ele>235.9</ele>
        <time>2025-01-19T10:17:44Z</time>
      </trkpt>
      <trkpt lat="43.40852" lon="6.63585">
        <ele>236</ele>
        <time>2025-01-19T10:17:45Z</time>
      </trkpt>
      <trkpt lat="43.40852" lon="6.63586">
        <ele>236</ele>
        <time>2025-01-19T10:17:46Z</time>
      </trkpt>
      <trkpt lat="43.40852" lon="6.63586">
        <ele>236</ele>
        <time>2025-01-19T10:17:47Z</time>
      </trkpt>
      <trkpt lat="43.40852" lon="6.63586">
        <ele>235.9</ele>
        <time>2025-01-19T10:17:48Z</time>
      </trkpt>
      <trkpt lat="43.40852" lon="6.63587">
        <ele>235.9</ele>
        <time>2025-01-19T10:17:49Z</time>
      </trkpt>
      <trkpt lat="43.40852" lon="6.63587">
        <ele>235.8</ele>
        <time>2025-01-19T10:17:50Z</time>
      </trkpt>
      <trkpt lat="43.40852" lon="6.63587">
        <ele>235.8</ele>
        <time>2025-01-19T10:17:51Z</time>
      </trkpt>
      <trkpt lat="43.40852" lon="6.63587">
        <ele>235.7</ele>
        <time>2025-01-19T10:17:52Z</time>
      </trkpt>
      <trkpt lat="43.40852" lon="6.63588">
        <ele>235.7</ele>
        <time>2025-01-19T10:17:53Z</time>
      </trkpt>
      <trkpt lat="43.40852" lon="6.63588">
        <ele>235.7</ele>
        <time>2025-01-19T10:17:54Z</time>
      </trkpt>
      <trkpt lat="43.40852" lon="6.63588">
        <ele>235.7</ele>
        <time>2025-01-19T10:17:55Z</time>
      </trkpt>
      <trkpt lat="43.40852" lon="6.63588">
        <ele>235.7</ele>
        <time>2025-01-19T10:17:56Z</time>
      </trkpt>
      <trkpt lat="43.40852" lon="6.63588">
        <ele>235.7</ele>
        <time>2025-01-19T10:17:57Z</time>
      </trkpt>
      <trkpt lat="43.40852" lon="6.63588">
        <ele>235.7</ele>
        <time>2025-01-19T10:17:58Z</time>
      </trkpt>
      <trkpt lat="43.40852" lon="6.63588">
        <ele>235.7</ele>
        <time>2025-01-19T10:17:59Z</time>
      </trkpt>
      <trkpt lat="43.40852" lon="6.63588">
        <ele>235.7</ele>
        <time>2025-01-19T10:18:00Z</time>
      </trkpt>
      <trkpt lat="43.40852" lon="6.63588">
        <ele>235.8</ele>
        <time>2025-01-19T10:18:01Z</time>
      </trkpt>
      <trkpt lat="43.40852" lon="6.63588">
        <ele>235.8</ele>
        <time>2025-01-19T10:18:02Z</time>
      </trkpt>
      <trkpt lat="43.40852" lon="6.63588">
        <ele>235.8</ele>
        <time>2025-01-19T10:18:03Z</time>
      </trkpt>
      <trkpt lat="43.40851" lon="6.63588">
        <ele>235.8</ele>
        <time>2025-01-19T10:18:04Z</time>
      </trkpt>
      <trkpt lat="43.40851" lon="6.63588">
        <ele>235.9</ele>
        <time>2025-01-19T10:18:05Z</time>
      </trkpt>
      <trkpt lat="43.40852" lon="6.63588">
        <ele>235.9</ele>
        <time>2025-01-19T10:18:06Z</time>
      </trkpt>
      <trkpt lat="43.40852" lon="6.63588">
        <ele>235.9</ele>
        <time>2025-01-19T10:18:07Z</time>
      </trkpt>
      <trkpt lat="43.40852" lon="6.63588">
        <ele>235.8</ele>
        <time>2025-01-19T10:18:08Z</time>
      </trkpt>
      <trkpt lat="43.40851" lon="6.63588">
        <ele>235.8</ele>
        <time>2025-01-19T10:18:09Z</time>
      </trkpt>
      <trkpt lat="43.40851" lon="6.63588">
        <ele>235.8</ele>
        <time>2025-01-19T10:18:10Z</time>
      </trkpt>
      <trkpt lat="43.40851" lon="6.63589">
        <ele>235.8</ele>
        <time>2025-01-19T10:18:11Z</time>
      </trkpt>
      <trkpt lat="43.40852" lon="6.63589">
        <ele>235.8</ele>
        <time>2025-01-19T10:18:12Z</time>
      </trkpt>
      <trkpt lat="43.40852" lon="6.63589">
        <ele>235.7</ele>
        <time>2025-01-19T10:18:13Z</time>
      </trkpt>
      <trkpt lat="43.40852" lon="6.6359">
        <ele>235.7</ele>
        <time>2025-01-19T10:18:14Z</time>
      </trkpt>
      <trkpt lat="43.40852" lon="6.6359">
        <ele>235.7</ele>
        <time>2025-01-19T10:18:15Z</time>
      </trkpt>
      <trkpt lat="43.40852" lon="6.63591">
        <ele>235.6</ele>
        <time>2025-01-19T10:18:16Z</time>
      </trkpt>
      <trkpt lat="43.40851" lon="6.63591">
        <ele>235.6</ele>
        <time>2025-01-19T10:18:17Z</time>
      </trkpt>
      <trkpt lat="43.40851" lon="6.63591">
        <ele>235.6</ele>
        <time>2025-01-19T10:18:18Z</time>
      </trkpt>
      <trkpt lat="43.40851" lon="6.63592">
        <ele>235.6</ele>
        <time>2025-01-19T10:18:19Z</time>
      </trkpt>
      <trkpt lat="43.40851" lon="6.63592">
        <ele>235.6</ele>
        <time>2025-01-19T10:18:20Z</time>
      </trkpt>
      <trkpt lat="43.40851" lon="6.63592">
        <ele>235.6</ele>
        <time>2025-01-19T10:18:21Z</time>
      </trkpt>
      <trkpt lat="43.40851" lon="6.63592">
        <ele>235.7</ele>
        <time>2025-01-19T10:18:22Z</time>
      </trkpt>
      <trkpt lat="43.4085" lon="6.63592">
        <ele>235.7</ele>
        <time>2025-01-19T10:18:23Z</time>
      </trkpt>
      <trkpt lat="43.4085" lon="6.63593">
        <ele>235.8</ele>
        <time>2025-01-19T10:18:24Z</time>
      </trkpt>
      <trkpt lat="43.4085" lon="6.63593">
        <ele>235.8</ele>
        <time>2025-01-19T10:18:25Z</time>
      </trkpt>
      <trkpt lat="43.4085" lon="6.63593">
        <ele>235.8</ele>
        <time>2025-01-19T10:18:26Z</time>
      </trkpt>
      <trkpt lat="43.4085" lon="6.63593">
        <ele>235.9</ele>
        <time>2025-01-19T10:18:27Z</time>
      </trkpt>
      <trkpt lat="43.4085" lon="6.63593">
        <ele>235.9</ele>
        <time>2025-01-19T10:18:28Z</time>
      </trkpt>
      <trkpt lat="43.4085" lon="6.63593">
        <ele>236</ele>
        <time>2025-01-19T10:18:29Z</time>
      </trkpt>
      <trkpt lat="43.4085" lon="6.63593">
        <ele>236.1</ele>
        <time>2025-01-19T10:18:30Z</time>
      </trkpt>
      <trkpt lat="43.4085" lon="6.63593">
        <ele>236.1</ele>
        <time>2025-01-19T10:18:31Z</time>
      </trkpt>
      <trkpt lat="43.4085" lon="6.63592">
        <ele>236.1</ele>
        <time>2025-01-19T10:18:32Z</time>
      </trkpt>
      <trkpt lat="43.4085" lon="6.63592">
        <ele>236</ele>
        <time>2025-01-19T10:18:33Z</time>
      </trkpt>
      <trkpt lat="43.4085" lon="6.63592">
        <ele>236.1</ele>
        <time>2025-01-19T10:18:34Z</time>
      </trkpt>
      <trkpt lat="43.4085" lon="6.63592">
        <ele>236</ele>
        <time>2025-01-19T10:18:35Z</time>
      </trkpt>
      <trkpt lat="43.4085" lon="6.63592">
        <ele>236.1</ele>
        <time>2025-01-19T10:18:36Z</time>
      </trkpt>
      <trkpt lat="43.4085" lon="6.63591">
        <ele>236.1</ele>
        <time>2025-01-19T10:18:37Z</time>
      </trkpt>
      <trkpt lat="43.4085" lon="6.63591">
        <ele>236.2</ele>
        <time>2025-01-19T10:18:38Z</time>
      </trkpt>
      <trkpt lat="43.4085" lon="6.63591">
        <ele>236.2</ele>
        <time>2025-01-19T10:18:39Z</time>
      </trkpt>
      <trkpt lat="43.4085" lon="6.63591">
        <ele>236.3</ele>
        <time>2025-01-19T10:18:40Z</time>
      </trkpt>
      <trkpt lat="43.4085" lon="6.63591">
        <ele>236.3</ele>
        <time>2025-01-19T10:18:41Z</time>
      </trkpt>
      <trkpt lat="43.4085" lon="6.63591">
        <ele>236.3</ele>
        <time>2025-01-19T10:18:42Z</time>
      </trkpt>
      <trkpt lat="43.4085" lon="6.63591">
        <ele>236.3</ele>
        <time>2025-01-19T10:18:43Z</time>
      </trkpt>
      <trkpt lat="43.4085" lon="6.63591">
        <ele>236.3</ele>
        <time>2025-01-19T10:18:44Z</time>
      </trkpt>
      <trkpt lat="43.4085" lon="6.63591">
        <ele>236.3</ele>
        <time>2025-01-19T10:18:45Z</time>
      </trkpt>
      <trkpt lat="43.4085" lon="6.63592">
        <ele>236.3</ele>
        <time>2025-01-19T10:18:46Z</time>
      </trkpt>
      <trkpt lat="43.4085" lon="6.63593">
        <ele>236.2</ele>
        <time>2025-01-19T10:18:47Z</time>
      </trkpt>
      <trkpt lat="43.4085" lon="6.63593">
        <ele>236.2</ele>
        <time>2025-01-19T10:18:48Z</time>
      </trkpt>
      <trkpt lat="43.4085" lon="6.63593">
        <ele>236.1</ele>
        <time>2025-01-19T10:18:49Z</time>
      </trkpt>
      <trkpt lat="43.4085" lon="6.63593">
        <ele>236.2</ele>
        <time>2025-01-19T10:18:50Z</time>
      </trkpt>
      <trkpt lat="43.40849" lon="6.63593">
        <ele>236.2</ele>
        <time>2025-01-19T10:18:51Z</time>
      </trkpt>
      <trkpt lat="43.40849" lon="6.63594">
        <ele>236.1</ele>
        <time>2025-01-19T10:18:52Z</time>
      </trkpt>
      <trkpt lat="43.40849" lon="6.63594">
        <ele>236</ele>
        <time>2025-01-19T10:18:53Z</time>
      </trkpt>
      <trkpt lat="43.40849" lon="6.63594">
        <ele>236</ele>
        <time>2025-01-19T10:18:54Z</time>
      </trkpt>
      <trkpt lat="43.40849" lon="6.63595">
        <ele>236</ele>
        <time>2025-01-19T10:18:55Z</time>
      </trkpt>
      <trkpt lat="43.4085" lon="6.63594">
        <ele>236</ele>
        <time>2025-01-19T10:18:56Z</time>
      </trkpt>
      <trkpt lat="43.4085" lon="6.63594">
        <ele>236</ele>
        <time>2025-01-19T10:18:57Z</time>
      </trkpt>
      <trkpt lat="43.4085" lon="6.63593">
        <ele>236</ele>
        <time>2025-01-19T10:18:58Z</time>
      </trkpt>
      <trkpt lat="43.4085" lon="6.63594">
        <ele>235.9</ele>
        <time>2025-01-19T10:18:59Z</time>
      </trkpt>
      <trkpt lat="43.4085" lon="6.63594">
        <ele>235.9</ele>
        <time>2025-01-19T10:19:00Z</time>
      </trkpt>
      <trkpt lat="43.4085" lon="6.63594">
        <ele>236</ele>
        <time>2025-01-19T10:19:01Z</time>
      </trkpt>
      <trkpt lat="43.4085" lon="6.63594">
        <ele>236</ele>
        <time>2025-01-19T10:19:02Z</time>
      </trkpt>
      <trkpt lat="43.4085" lon="6.63594">
        <ele>236.1</ele>
        <time>2025-01-19T10:19:03Z</time>
      </trkpt>
      <trkpt lat="43.40849" lon="6.63594">
        <ele>236.1</ele>
        <time>2025-01-19T10:19:04Z</time>
      </trkpt>
      <trkpt lat="43.4085" lon="6.63594">
        <ele>236.1</ele>
        <time>2025-01-19T10:19:05Z</time>
      </trkpt>
      <trkpt lat="43.4085" lon="6.63594">
        <ele>236.2</ele>
        <time>2025-01-19T10:19:06Z</time>
      </trkpt>
      <trkpt lat="43.4085" lon="6.63594">
        <ele>236.2</ele>
        <time>2025-01-19T10:19:07Z</time>
      </trkpt>
      <trkpt lat="43.4085" lon="6.63594">
        <ele>236.2</ele>
        <time>2025-01-19T10:19:08Z</time>
      </trkpt>
      <trkpt lat="43.4085" lon="6.63593">
        <ele>236.2</ele>
        <time>2025-01-19T10:19:09Z</time>
      </trkpt>
      <trkpt lat="43.4085" lon="6.63593">
        <ele>236.2</ele>
        <time>2025-01-19T10:19:10Z</time>
      </trkpt>
      <trkpt lat="43.40849" lon="6.63593">
        <ele>236.1</ele>
        <time>2025-01-19T10:19:11Z</time>
      </trkpt>
      <trkpt lat="43.40849" lon="6.63592">
        <ele>236.1</ele>
        <time>2025-01-19T10:19:12Z</time>
      </trkpt>
      <trkpt lat="43.40849" lon="6.63592">
        <ele>236.1</ele>
        <time>2025-01-19T10:19:13Z</time>
      </trkpt>
      <trkpt lat="43.40849" lon="6.63592">
        <ele>236</ele>
        <time>2025-01-19T10:19:14Z</time>
      </trkpt>
      <trkpt lat="43.40849" lon="6.63591">
        <ele>236</ele>
        <time>2025-01-19T10:19:15Z</time>
      </trkpt>
      <trkpt lat="43.40849" lon="6.63591">
        <ele>236</ele>
        <time>2025-01-19T10:19:16Z</time>
      </trkpt>
      <trkpt lat="43.40849" lon="6.63591">
        <ele>236</ele>
        <time>2025-01-19T10:19:17Z</time>
      </trkpt>
      <trkpt lat="43.40849" lon="6.6359">
        <ele>236</ele>
        <time>2025-01-19T10:19:18Z</time>
      </trkpt>
      <trkpt lat="43.40849" lon="6.6359">
        <ele>236.1</ele>
        <time>2025-01-19T10:19:19Z</time>
      </trkpt>
      <trkpt lat="43.40849" lon="6.6359">
        <ele>236.1</ele>
        <time>2025-01-19T10:19:20Z</time>
      </trkpt>
      <trkpt lat="43.40849" lon="6.63589">
        <ele>236.2</ele>
        <time>2025-01-19T10:19:21Z</time>
      </trkpt>
      <trkpt lat="43.40848" lon="6.6359">
        <ele>236.2</ele>
        <time>2025-01-19T10:19:22Z</time>
      </trkpt>
      <trkpt lat="43.40848" lon="6.63589">
        <ele>236.3</ele>
        <time>2025-01-19T10:19:23Z</time>
      </trkpt>
      <trkpt lat="43.40848" lon="6.63589">
        <ele>236.3</ele>
        <time>2025-01-19T10:19:24Z</time>
      </trkpt>
      <trkpt lat="43.40848" lon="6.63588">
        <ele>236.3</ele>
        <time>2025-01-19T10:19:25Z</time>
      </trkpt>
      <trkpt lat="43.40849" lon="6.63588">
        <ele>236.4</ele>
        <time>2025-01-19T10:19:26Z</time>
      </trkpt>
      <trkpt lat="43.40849" lon="6.63587">
        <ele>236.4</ele>
        <time>2025-01-19T10:19:27Z</time>
      </trkpt>
      <trkpt lat="43.40849" lon="6.63587">
        <ele>236.4</ele>
        <time>2025-01-19T10:19:28Z</time>
      </trkpt>
      <trkpt lat="43.40848" lon="6.63587">
        <ele>236.5</ele>
        <time>2025-01-19T10:19:29Z</time>
      </trkpt>
      <trkpt lat="43.40848" lon="6.63588">
        <ele>236.5</ele>
        <time>2025-01-19T10:19:30Z</time>
      </trkpt>
      <trkpt lat="43.40848" lon="6.63588">
        <ele>236.5</ele>
        <time>2025-01-19T10:19:31Z</time>
      </trkpt>
      <trkpt lat="43.40848" lon="6.63587">
        <ele>236.6</ele>
        <time>2025-01-19T10:19:32Z</time>
      </trkpt>
      <trkpt lat="43.40848" lon="6.63587">
        <ele>236.6</ele>
        <time>2025-01-19T10:19:33Z</time>
      </trkpt>
      <trkpt lat="43.40848" lon="6.63587">
        <ele>236.5</ele>
        <time>2025-01-19T10:19:34Z</time>
      </trkpt>
      <trkpt lat="43.40848" lon="6.63587">
        <ele>236.4</ele>
        <time>2025-01-19T10:19:35Z</time>
      </trkpt>
      <trkpt lat="43.40849" lon="6.63587">
        <ele>236.4</ele>
        <time>2025-01-19T10:19:36Z</time>
      </trkpt>
      <trkpt lat="43.40849" lon="6.63587">
        <ele>236.4</ele>
        <time>2025-01-19T10:19:37Z</time>
      </trkpt>
      <trkpt lat="43.40849" lon="6.63587">
        <ele>236.3</ele>
        <time>2025-01-19T10:19:38Z</time>
      </trkpt>
      <trkpt lat="43.40849" lon="6.63588">
        <ele>236.3</ele>
        <time>2025-01-19T10:19:39Z</time>
      </trkpt>
      <trkpt lat="43.40849" lon="6.63588">
        <ele>236.3</ele>
        <time>2025-01-19T10:19:40Z</time>
      </trkpt>
      <trkpt lat="43.40849" lon="6.63588">
        <ele>236.3</ele>
        <time>2025-01-19T10:19:41Z</time>
      </trkpt>
      <trkpt lat="43.40849" lon="6.63588">
        <ele>236.4</ele>
        <time>2025-01-19T10:19:42Z</time>
      </trkpt>
      <trkpt lat="43.40849" lon="6.63588">
        <ele>236.4</ele>
        <time>2025-01-19T10:19:43Z</time>
      </trkpt>
      <trkpt lat="43.40849" lon="6.63587">
        <ele>236.4</ele>
        <time>2025-01-19T10:19:44Z</time>
      </trkpt>
      <trkpt lat="43.40849" lon="6.63588">
        <ele>236.4</ele>
        <time>2025-01-19T10:19:45Z</time>
      </trkpt>
      <trkpt lat="43.4085" lon="6.63588">
        <ele>236.4</ele>
        <time>2025-01-19T10:19:46Z</time>
      </trkpt>
      <trkpt lat="43.4085" lon="6.63588">
        <ele>236.4</ele>
        <time>2025-01-19T10:19:47Z</time>
      </trkpt>
      <trkpt lat="43.40849" lon="6.63588">
        <ele>236.5</ele>
        <time>2025-01-19T10:19:48Z</time>
      </trkpt>
      <trkpt lat="43.40849" lon="6.63589">
        <ele>236.5</ele>
        <time>2025-01-19T10:19:49Z</time>
      </trkpt>
      <trkpt lat="43.40849" lon="6.63589">
        <ele>236.3</ele>
        <time>2025-01-19T10:19:50Z</time>
      </trkpt>
      <trkpt lat="43.4085" lon="6.63589">
        <ele>236.3</ele>
        <time>2025-01-19T10:19:51Z</time>
      </trkpt>
      <trkpt lat="43.4085" lon="6.63589">
        <ele>236.3</ele>
        <time>2025-01-19T10:19:52Z</time>
      </trkpt>
      <trkpt lat="43.4085" lon="6.63588">
        <ele>236.2</ele>
        <time>2025-01-19T10:19:53Z</time>
      </trkpt>
      <trkpt lat="43.4085" lon="6.63588">
        <ele>236.2</ele>
        <time>2025-01-19T10:19:54Z</time>
      </trkpt>
      <trkpt lat="43.4085" lon="6.63588">
        <ele>236.2</ele>
        <time>2025-01-19T10:19:55Z</time>
      </trkpt>
      <trkpt lat="43.4085" lon="6.63588">
        <ele>236.3</ele>
        <time>2025-01-19T10:19:56Z</time>
      </trkpt>
      <trkpt lat="43.4085" lon="6.63588">
        <ele>236.3</ele>
        <time>2025-01-19T10:19:57Z</time>
      </trkpt>
      <trkpt lat="43.4085" lon="6.63588">
        <ele>236.3</ele>
        <time>2025-01-19T10:19:58Z</time>
      </trkpt>
      <trkpt lat="43.4085" lon="6.63588">
        <ele>236.3</ele>
        <time>2025-01-19T10:19:59Z</time>
      </trkpt>
      <trkpt lat="43.4085" lon="6.63589">
        <ele>236.3</ele>
        <time>2025-01-19T10:20:00Z</time>
      </trkpt>
      <trkpt lat="43.4085" lon="6.63589">
        <ele>236.3</ele>
        <time>2025-01-19T10:20:01Z</time>
      </trkpt>
      <trkpt lat="43.4085" lon="6.63589">
        <ele>236.3</ele>
        <time>2025-01-19T10:20:02Z</time>
      </trkpt>
      <trkpt lat="43.4085" lon="6.63589">
        <ele>236.3</ele>
        <time>2025-01-19T10:20:03Z</time>
      </trkpt>
      <trkpt lat="43.4085" lon="6.63589">
        <ele>236.3</ele>
        <time>2025-01-19T10:20:04Z</time>
      </trkpt>
      <trkpt lat="43.4085" lon="6.63589">
        <ele>236.3</ele>
        <time>2025-01-19T10:20:05Z</time>
      </trkpt>
      <trkpt lat="43.4085" lon="6.6359">
        <ele>236.2</ele>
        <time>2025-01-19T10:20:06Z</time>
      </trkpt>
      <trkpt lat="43.4085" lon="6.63589">
        <ele>236.2</ele>
        <time>2025-01-19T10:20:07Z</time>
      </trkpt>
      <trkpt lat="43.4085" lon="6.6359">
        <ele>236.2</ele>
        <time>2025-01-19T10:20:08Z</time>
      </trkpt>
      <trkpt lat="43.4085" lon="6.63589">
        <ele>236.2</ele>
        <time>2025-01-19T10:20:09Z</time>
      </trkpt>
      <trkpt lat="43.4085" lon="6.63589">
        <ele>236.2</ele>
        <time>2025-01-19T10:20:10Z</time>
      </trkpt>
      <trkpt lat="43.4085" lon="6.63589">
        <ele>236.2</ele>
        <time>2025-01-19T10:20:11Z</time>
      </trkpt>
      <trkpt lat="43.4085" lon="6.63589">
        <ele>236.2</ele>
        <time>2025-01-19T10:20:12Z</time>
      </trkpt>
      <trkpt lat="43.4085" lon="6.63589">
        <ele>236.2</ele>
        <time>2025-01-19T10:20:13Z</time>
      </trkpt>
      <trkpt lat="43.4085" lon="6.6359">
        <ele>236.2</ele>
        <time>2025-01-19T10:20:14Z</time>
      </trkpt>
      <trkpt lat="43.4085" lon="6.63589">
        <ele>236.2</ele>
        <time>2025-01-19T10:20:15Z</time>
      </trkpt>
      <trkpt lat="43.4085" lon="6.63589">
        <ele>236.3</ele>
        <time>2025-01-19T10:20:16Z</time>
      </trkpt>
      <trkpt lat="43.4085" lon="6.63588">
        <ele>236.3</ele>
        <time>2025-01-19T10:20:17Z</time>
      </trkpt>
      <trkpt lat="43.4085" lon="6.63588">
        <ele>236.4</ele>
        <time>2025-01-19T10:20:18Z</time>
      </trkpt>
      <trkpt lat="43.4085" lon="6.63589">
        <ele>236.4</ele>
        <time>2025-01-19T10:20:19Z</time>
      </trkpt>
      <trkpt lat="43.4085" lon="6.63589">
        <ele>236.4</ele>
        <time>2025-01-19T10:20:20Z</time>
      </trkpt>
      <trkpt lat="43.4085" lon="6.6359">
        <ele>236.4</ele>
        <time>2025-01-19T10:20:21Z</time>
      </trkpt>
      <trkpt lat="43.4085" lon="6.6359">
        <ele>236.5</ele>
        <time>2025-01-19T10:20:22Z</time>
      </trkpt>
      <trkpt lat="43.4085" lon="6.6359">
        <ele>236.5</ele>
        <time>2025-01-19T10:20:23Z</time>
      </trkpt>
      <trkpt lat="43.4085" lon="6.63591">
        <ele>236.5</ele>
        <time>2025-01-19T10:20:24Z</time>
      </trkpt>
      <trkpt lat="43.40851" lon="6.6359">
        <ele>236.5</ele>
        <time>2025-01-19T10:20:25Z</time>
      </trkpt>
      <trkpt lat="43.40851" lon="6.6359">
        <ele>236.5</ele>
        <time>2025-01-19T10:20:26Z</time>
      </trkpt>
      <trkpt lat="43.40851" lon="6.6359">
        <ele>236.4</ele>
        <time>2025-01-19T10:20:27Z</time>
      </trkpt>
      <trkpt lat="43.40851" lon="6.6359">
        <ele>236.4</ele>
        <time>2025-01-19T10:20:28Z</time>
      </trkpt>
      <trkpt lat="43.40851" lon="6.6359">
        <ele>236.4</ele>
        <time>2025-01-19T10:20:29Z</time>
      </trkpt>
      <trkpt lat="43.4085" lon="6.63591">
        <ele>236.4</ele>
        <time>2025-01-19T10:20:30Z</time>
      </trkpt>
      <trkpt lat="43.4085" lon="6.63591">
        <ele>236.3</ele>
        <time>2025-01-19T10:20:31Z</time>
      </trkpt>
      <trkpt lat="43.4085" lon="6.63591">
        <ele>236.3</ele>
        <time>2025-01-19T10:20:32Z</time>
      </trkpt>
      <trkpt lat="43.4085" lon="6.63591">
        <ele>236.3</ele>
        <time>2025-01-19T10:20:33Z</time>
      </trkpt>
      <trkpt lat="43.4085" lon="6.63591">
        <ele>236.4</ele>
        <time>2025-01-19T10:20:34Z</time>
      </trkpt>
      <trkpt lat="43.4085" lon="6.63592">
        <ele>236.3</ele>
        <time>2025-01-19T10:20:35Z</time>
      </trkpt>
      <trkpt lat="43.4085" lon="6.63592">
        <ele>236.3</ele>
        <time>2025-01-19T10:20:36Z</time>
      </trkpt>
      <trkpt lat="43.4085" lon="6.63592">
        <ele>236.3</ele>
        <time>2025-01-19T10:20:37Z</time>
      </trkpt>
      <trkpt lat="43.4085" lon="6.63592">
        <ele>236.3</ele>
        <time>2025-01-19T10:20:38Z</time>
      </trkpt>
      <trkpt lat="43.4085" lon="6.63592">
        <ele>236.3</ele>
        <time>2025-01-19T10:20:39Z</time>
      </trkpt>
      <trkpt lat="43.4085" lon="6.63593">
        <ele>236.3</ele>
        <time>2025-01-19T10:20:40Z</time>
      </trkpt>
      <trkpt lat="43.4085" lon="6.63593">
        <ele>236.3</ele>
        <time>2025-01-19T10:20:41Z</time>
      </trkpt>
      <trkpt lat="43.4085" lon="6.63593">
        <ele>236.3</ele>
        <time>2025-01-19T10:20:42Z</time>
      </trkpt>
      <trkpt lat="43.4085" lon="6.63593">
        <ele>236.3</ele>
        <time>2025-01-19T10:20:43Z</time>
      </trkpt>
      <trkpt lat="43.4085" lon="6.63592">
        <ele>236.3</ele>
        <time>2025-01-19T10:20:44Z</time>
      </trkpt>
      <trkpt lat="43.4085" lon="6.63592">
        <ele>236.3</ele>
        <time>2025-01-19T10:20:45Z</time>
      </trkpt>
      <trkpt lat="43.4085" lon="6.63592">
        <ele>236.2</ele>
        <time>2025-01-19T10:20:46Z</time>
      </trkpt>
      <trkpt lat="43.4085" lon="6.63592">
        <ele>236.1</ele>
        <time>2025-01-19T10:20:47Z</time>
      </trkpt>
      <trkpt lat="43.4085" lon="6.63592">
        <ele>236.1</ele>
        <time>2025-01-19T10:20:48Z</time>
      </trkpt>
      <trkpt lat="43.40851" lon="6.63592">
        <ele>236.2</ele>
        <time>2025-01-19T10:20:49Z</time>
      </trkpt>
      <trkpt lat="43.40851" lon="6.63592">
        <ele>236.2</ele>
        <time>2025-01-19T10:20:50Z</time>
      </trkpt>
      <trkpt lat="43.40851" lon="6.63593">
        <ele>236.1</ele>
        <time>2025-01-19T10:20:51Z</time>
      </trkpt>
      <trkpt lat="43.40851" lon="6.63593">
        <ele>236.1</ele>
        <time>2025-01-19T10:20:52Z</time>
      </trkpt>
      <trkpt lat="43.40851" lon="6.63593">
        <ele>236.2</ele>
        <time>2025-01-19T10:20:53Z</time>
      </trkpt>
      <trkpt lat="43.40851" lon="6.63592">
        <ele>236.2</ele>
        <time>2025-01-19T10:20:54Z</time>
      </trkpt>
      <trkpt lat="43.40851" lon="6.63592">
        <ele>236.2</ele>
        <time>2025-01-19T10:20:55Z</time>
      </trkpt>
      <trkpt lat="43.40851" lon="6.63592">
        <ele>236.2</ele>
        <time>2025-01-19T10:20:56Z</time>
      </trkpt>
      <trkpt lat="43.40852" lon="6.63592">
        <ele>236.2</ele>
        <time>2025-01-19T10:20:57Z</time>
      </trkpt>
      <trkpt lat="43.40852" lon="6.63591">
        <ele>236.2</ele>
        <time>2025-01-19T10:20:58Z</time>
      </trkpt>
      <trkpt lat="43.40852" lon="6.63591">
        <ele>236.3</ele>
        <time>2025-01-19T10:20:59Z</time>
      </trkpt>
      <trkpt lat="43.40852" lon="6.63591">
        <ele>236.2</ele>
        <time>2025-01-19T10:21:00Z</time>
      </trkpt>
      <trkpt lat="43.40852" lon="6.63591">
        <ele>236.3</ele>
        <time>2025-01-19T10:21:01Z</time>
      </trkpt>
      <trkpt lat="43.40852" lon="6.63591">
        <ele>236.3</ele>
        <time>2025-01-19T10:21:02Z</time>
      </trkpt>
      <trkpt lat="43.40852" lon="6.63591">
        <ele>236.2</ele>
        <time>2025-01-19T10:21:03Z</time>
      </trkpt>
      <trkpt lat="43.40852" lon="6.63591">
        <ele>236.2</ele>
        <time>2025-01-19T10:21:04Z</time>
      </trkpt>
      <trkpt lat="43.40852" lon="6.63592">
        <ele>236.2</ele>
        <time>2025-01-19T10:21:05Z</time>
      </trkpt>
      <trkpt lat="43.40852" lon="6.63591">
        <ele>236.1</ele>
        <time>2025-01-19T10:21:06Z</time>
      </trkpt>
      <trkpt lat="43.40852" lon="6.63592">
        <ele>236.1</ele>
        <time>2025-01-19T10:21:07Z</time>
      </trkpt>
      <trkpt lat="43.40852" lon="6.63592">
        <ele>236.2</ele>
        <time>2025-01-19T10:21:08Z</time>
      </trkpt>
      <trkpt lat="43.40852" lon="6.63592">
        <ele>236.2</ele>
        <time>2025-01-19T10:21:09Z</time>
      </trkpt>
      <trkpt lat="43.40852" lon="6.63593">
        <ele>236.2</ele>
        <time>2025-01-19T10:21:10Z</time>
      </trkpt>
      <trkpt lat="43.40852" lon="6.63593">
        <ele>236.2</ele>
        <time>2025-01-19T10:21:11Z</time>
      </trkpt>
      <trkpt lat="43.40852" lon="6.63593">
        <ele>236.2</ele>
        <time>2025-01-19T10:21:12Z</time>
      </trkpt>
      <trkpt lat="43.40852" lon="6.63593">
        <ele>236.2</ele>
        <time>2025-01-19T10:21:13Z</time>
      </trkpt>
      <trkpt lat="43.40852" lon="6.63594">
        <ele>236.2</ele>
        <time>2025-01-19T10:21:14Z</time>
      </trkpt>
      <trkpt lat="43.40852" lon="6.63594">
        <ele>236.2</ele>
        <time>2025-01-19T10:21:15Z</time>
      </trkpt>
      <trkpt lat="43.40851" lon="6.63594">
        <ele>236.2</ele>
        <time>2025-01-19T10:21:16Z</time>
      </trkpt>
      <trkpt lat="43.4085" lon="6.63595">
        <ele>236.1</ele>
        <time>2025-01-19T10:21:17Z</time>
      </trkpt>
      <trkpt lat="43.4085" lon="6.63594">
        <ele>236.1</ele>
        <time>2025-01-19T10:21:18Z</time>
      </trkpt>
      <trkpt lat="43.40849" lon="6.63595">
        <ele>236.1</ele>
        <time>2025-01-19T10:21:19Z</time>
      </trkpt>
      <trkpt lat="43.40848" lon="6.63596">
        <ele>236.1</ele>
        <time>2025-01-19T10:21:20Z</time>
      </trkpt>
      <trkpt lat="43.40848" lon="6.63596">
        <ele>236</ele>
        <time>2025-01-19T10:21:21Z</time>
      </trkpt>
      <trkpt lat="43.40847" lon="6.63595">
        <ele>236</ele>
        <time>2025-01-19T10:21:22Z</time>
      </trkpt>
      <trkpt lat="43.40846" lon="6.63595">
        <ele>235.9</ele>
        <time>2025-01-19T10:21:23Z</time>
      </trkpt>
      <trkpt lat="43.40845" lon="6.63595">
        <ele>232.2</ele>
        <time>2025-01-19T10:21:24Z</time>
      </trkpt>
      <trkpt lat="43.40844" lon="6.63596">
        <ele>232.8</ele>
        <time>2025-01-19T10:21:25Z</time>
      </trkpt>
      <trkpt lat="43.40843" lon="6.63596">
        <ele>233.3</ele>
        <time>2025-01-19T10:21:26Z</time>
      </trkpt>
      <trkpt lat="43.40842" lon="6.63596">
        <ele>233.5</ele>
        <time>2025-01-19T10:21:27Z</time>
      </trkpt>
      <trkpt lat="43.4084" lon="6.63597">
        <ele>233.8</ele>
        <time>2025-01-19T10:21:28Z</time>
      </trkpt>
      <trkpt lat="43.40839" lon="6.63599">
        <ele>234</ele>
        <time>2025-01-19T10:21:29Z</time>
      </trkpt>
      <trkpt lat="43.40838" lon="6.636">
        <ele>234.1</ele>
        <time>2025-01-19T10:21:30Z</time>
      </trkpt>
      <trkpt lat="43.40837" lon="6.63599">
        <ele>234.3</ele>
        <time>2025-01-19T10:21:31Z</time>
      </trkpt>
      <trkpt lat="43.40836" lon="6.63599">
        <ele>234.3</ele>
        <time>2025-01-19T10:21:32Z</time>
      </trkpt>
      <trkpt lat="43.40835" lon="6.636">
        <ele>234.3</ele>
        <time>2025-01-19T10:21:33Z</time>
      </trkpt>
      <trkpt lat="43.40834" lon="6.63602">
        <ele>234.3</ele>
        <time>2025-01-19T10:21:34Z</time>
      </trkpt>
      <trkpt lat="43.40832" lon="6.63603">
        <ele>234.2</ele>
        <time>2025-01-19T10:21:35Z</time>
      </trkpt>
      <trkpt lat="43.40831" lon="6.63603">
        <ele>234.2</ele>
        <time>2025-01-19T10:21:36Z</time>
      </trkpt>
      <trkpt lat="43.4083" lon="6.63604">
        <ele>234.1</ele>
        <time>2025-01-19T10:21:37Z</time>
      </trkpt>
      <trkpt lat="43.40829" lon="6.63605">
        <ele>234</ele>
        <time>2025-01-19T10:21:38Z</time>
      </trkpt>
      <trkpt lat="43.40828" lon="6.63606">
        <ele>234</ele>
        <time>2025-01-19T10:21:39Z</time>
      </trkpt>
      <trkpt lat="43.40827" lon="6.63608">
        <ele>233.9</ele>
        <time>2025-01-19T10:21:40Z</time>
      </trkpt>
      <trkpt lat="43.40827" lon="6.63609">
        <ele>233.9</ele>
        <time>2025-01-19T10:21:41Z</time>
      </trkpt>
      <trkpt lat="43.40826" lon="6.63609">
        <ele>233.9</ele>
        <time>2025-01-19T10:21:42Z</time>
      </trkpt>
      <trkpt lat="43.40825" lon="6.6361">
        <ele>233.8</ele>
        <time>2025-01-19T10:21:43Z</time>
      </trkpt>
      <trkpt lat="43.40825" lon="6.6361">
        <ele>233.7</ele>
        <time>2025-01-19T10:21:44Z</time>
      </trkpt>
      <trkpt lat="43.40824" lon="6.63612">
        <ele>233.6</ele>
        <time>2025-01-19T10:21:45Z</time>
      </trkpt>
      <trkpt lat="43.40824" lon="6.63612">
        <ele>233.4</ele>
        <time>2025-01-19T10:21:46Z</time>
      </trkpt>
      <trkpt lat="43.40823" lon="6.63613">
        <ele>233.3</ele>
        <time>2025-01-19T10:21:47Z</time>
      </trkpt>
      <trkpt lat="43.40822" lon="6.63614">
        <ele>233.3</ele>
        <time>2025-01-19T10:21:48Z</time>
      </trkpt>
      <trkpt lat="43.40822" lon="6.63615">
        <ele>233.2</ele>
        <time>2025-01-19T10:21:49Z</time>
      </trkpt>
      <trkpt lat="43.40821" lon="6.63616">
        <ele>233.2</ele>
        <time>2025-01-19T10:21:50Z</time>
      </trkpt>
      <trkpt lat="43.40821" lon="6.63617">
        <ele>233.2</ele>
        <time>2025-01-19T10:21:51Z</time>
      </trkpt>
      <trkpt lat="43.4082" lon="6.63614">
        <ele>233.1</ele>
        <time>2025-01-19T10:21:52Z</time>
      </trkpt>
      <trkpt lat="43.40819" lon="6.63615">
        <ele>233</ele>
        <time>2025-01-19T10:21:53Z</time>
      </trkpt>
      <trkpt lat="43.40819" lon="6.63615">
        <ele>232.9</ele>
        <time>2025-01-19T10:21:54Z</time>
      </trkpt>
      <trkpt lat="43.40819" lon="6.63616">
        <ele>232.9</ele>
        <time>2025-01-19T10:21:55Z</time>
      </trkpt>
      <trkpt lat="43.40818" lon="6.63617">
        <ele>232.8</ele>
        <time>2025-01-19T10:21:56Z</time>
      </trkpt>
      <trkpt lat="43.40818" lon="6.63619">
        <ele>232.8</ele>
        <time>2025-01-19T10:21:57Z</time>
      </trkpt>
      <trkpt lat="43.40817" lon="6.63619">
        <ele>232.8</ele>
        <time>2025-01-19T10:21:58Z</time>
      </trkpt>
      <trkpt lat="43.40816" lon="6.63622">
        <ele>232.6</ele>
        <time>2025-01-19T10:21:59Z</time>
      </trkpt>
      <trkpt lat="43.40816" lon="6.63623">
        <ele>232.7</ele>
        <time>2025-01-19T10:22:00Z</time>
      </trkpt>
      <trkpt lat="43.40815" lon="6.63622">
        <ele>232.5</ele>
        <time>2025-01-19T10:22:01Z</time>
      </trkpt>
      <trkpt lat="43.40815" lon="6.63622">
        <ele>232.3</ele>
        <time>2025-01-19T10:22:02Z</time>
      </trkpt>
      <trkpt lat="43.40815" lon="6.63622">
        <ele>232.2</ele>
        <time>2025-01-19T10:22:03Z</time>
      </trkpt>
      <trkpt lat="43.40814" lon="6.63622">
        <ele>232.2</ele>
        <time>2025-01-19T10:22:04Z</time>
      </trkpt>
      <trkpt lat="43.40813" lon="6.63623">
        <ele>232.1</ele>
        <time>2025-01-19T10:22:05Z</time>
      </trkpt>
      <trkpt lat="43.40812" lon="6.63624">
        <ele>232.1</ele>
        <time>2025-01-19T10:22:06Z</time>
      </trkpt>
      <trkpt lat="43.40811" lon="6.63625">
        <ele>232.1</ele>
        <time>2025-01-19T10:22:07Z</time>
      </trkpt>
      <trkpt lat="43.4081" lon="6.63626">
        <ele>232</ele>
        <time>2025-01-19T10:22:08Z</time>
      </trkpt>
      <trkpt lat="43.40809" lon="6.63627">
        <ele>231.9</ele>
        <time>2025-01-19T10:22:09Z</time>
      </trkpt>
      <trkpt lat="43.40809" lon="6.63627">
        <ele>231.9</ele>
        <time>2025-01-19T10:22:10Z</time>
      </trkpt>
      <trkpt lat="43.40808" lon="6.63628">
        <ele>231.8</ele>
        <time>2025-01-19T10:22:11Z</time>
      </trkpt>
      <trkpt lat="43.40807" lon="6.63629">
        <ele>231.8</ele>
        <time>2025-01-19T10:22:12Z</time>
      </trkpt>
      <trkpt lat="43.40806" lon="6.6363">
        <ele>231.7</ele>
        <time>2025-01-19T10:22:13Z</time>
      </trkpt>
      <trkpt lat="43.40804" lon="6.63631">
        <ele>231.7</ele>
        <time>2025-01-19T10:22:14Z</time>
      </trkpt>
      <trkpt lat="43.40804" lon="6.63633">
        <ele>231.7</ele>
        <time>2025-01-19T10:22:15Z</time>
      </trkpt>
      <trkpt lat="43.40803" lon="6.63633">
        <ele>231.8</ele>
        <time>2025-01-19T10:22:16Z</time>
      </trkpt>
      <trkpt lat="43.40802" lon="6.63634">
        <ele>231.7</ele>
        <time>2025-01-19T10:22:17Z</time>
      </trkpt>
      <trkpt lat="43.40801" lon="6.63635">
        <ele>231.7</ele>
        <time>2025-01-19T10:22:18Z</time>
      </trkpt>
      <trkpt lat="43.408" lon="6.63636">
        <ele>231.7</ele>
        <time>2025-01-19T10:22:19Z</time>
      </trkpt>
      <trkpt lat="43.40799" lon="6.63637">
        <ele>231.7</ele>
        <time>2025-01-19T10:22:20Z</time>
      </trkpt>
      <trkpt lat="43.40798" lon="6.63638">
        <ele>231.6</ele>
        <time>2025-01-19T10:22:21Z</time>
      </trkpt>
      <trkpt lat="43.40797" lon="6.63639">
        <ele>231.6</ele>
        <time>2025-01-19T10:22:22Z</time>
      </trkpt>
      <trkpt lat="43.40797" lon="6.6364">
        <ele>231.5</ele>
        <time>2025-01-19T10:22:23Z</time>
      </trkpt>
      <trkpt lat="43.40796" lon="6.6364">
        <ele>231.4</ele>
        <time>2025-01-19T10:22:24Z</time>
      </trkpt>
      <trkpt lat="43.40795" lon="6.63641">
        <ele>231.2</ele>
        <time>2025-01-19T10:22:25Z</time>
      </trkpt>
      <trkpt lat="43.40794" lon="6.63641">
        <ele>231.1</ele>
        <time>2025-01-19T10:22:26Z</time>
      </trkpt>
      <trkpt lat="43.40793" lon="6.63642">
        <ele>231</ele>
        <time>2025-01-19T10:22:27Z</time>
      </trkpt>
      <trkpt lat="43.40793" lon="6.63642">
        <ele>230.8</ele>
        <time>2025-01-19T10:22:28Z</time>
      </trkpt>
      <trkpt lat="43.40792" lon="6.63643">
        <ele>230.7</ele>
        <time>2025-01-19T10:22:29Z</time>
      </trkpt>
      <trkpt lat="43.40791" lon="6.63643">
        <ele>230.6</ele>
        <time>2025-01-19T10:22:30Z</time>
      </trkpt>
      <trkpt lat="43.40789" lon="6.63643">
        <ele>230.4</ele>
        <time>2025-01-19T10:22:31Z</time>
      </trkpt>
      <trkpt lat="43.40789" lon="6.63643">
        <ele>230.2</ele>
        <time>2025-01-19T10:22:32Z</time>
      </trkpt>
      <trkpt lat="43.40787" lon="6.63643">
        <ele>230</ele>
        <time>2025-01-19T10:22:33Z</time>
      </trkpt>
      <trkpt lat="43.40786" lon="6.63643">
        <ele>229.8</ele>
        <time>2025-01-19T10:22:34Z</time>
      </trkpt>
      <trkpt lat="43.40784" lon="6.63643">
        <ele>229.6</ele>
        <time>2025-01-19T10:22:35Z</time>
      </trkpt>
      <trkpt lat="43.40783" lon="6.63643">
        <ele>229.5</ele>
        <time>2025-01-19T10:22:36Z</time>
      </trkpt>
      <trkpt lat="43.40782" lon="6.63643">
        <ele>229.4</ele>
        <time>2025-01-19T10:22:37Z</time>
      </trkpt>
      <trkpt lat="43.40781" lon="6.63642">
        <ele>229.3</ele>
        <time>2025-01-19T10:22:38Z</time>
      </trkpt>
      <trkpt lat="43.4078" lon="6.63643">
        <ele>229.2</ele>
        <time>2025-01-19T10:22:39Z</time>
      </trkpt>
      <trkpt lat="43.40779" lon="6.63643">
        <ele>229.1</ele>
        <time>2025-01-19T10:22:40Z</time>
      </trkpt>
      <trkpt lat="43.40778" lon="6.63643">
        <ele>229</ele>
        <time>2025-01-19T10:22:41Z</time>
      </trkpt>
      <trkpt lat="43.40777" lon="6.63643">
        <ele>228.9</ele>
        <time>2025-01-19T10:22:42Z</time>
      </trkpt>
      <trkpt lat="43.40776" lon="6.63643">
        <ele>228.7</ele>
        <time>2025-01-19T10:22:43Z</time>
      </trkpt>
      <trkpt lat="43.40775" lon="6.63644">
        <ele>228.6</ele>
        <time>2025-01-19T10:22:44Z</time>
      </trkpt>
      <trkpt lat="43.40774" lon="6.63643">
        <ele>228.5</ele>
        <time>2025-01-19T10:22:45Z</time>
      </trkpt>
      <trkpt lat="43.40773" lon="6.63644">
        <ele>228.6</ele>
        <time>2025-01-19T10:22:46Z</time>
      </trkpt>
      <trkpt lat="43.40772" lon="6.63644">
        <ele>228.5</ele>
        <time>2025-01-19T10:22:47Z</time>
      </trkpt>
      <trkpt lat="43.40772" lon="6.63644">
        <ele>228.4</ele>
        <time>2025-01-19T10:22:48Z</time>
      </trkpt>
      <trkpt lat="43.40771" lon="6.63643">
        <ele>228.3</ele>
        <time>2025-01-19T10:22:49Z</time>
      </trkpt>
      <trkpt lat="43.4077" lon="6.63643">
        <ele>228.2</ele>
        <time>2025-01-19T10:22:50Z</time>
      </trkpt>
      <trkpt lat="43.40769" lon="6.63643">
        <ele>228</ele>
        <time>2025-01-19T10:22:51Z</time>
      </trkpt>
      <trkpt lat="43.40768" lon="6.63643">
        <ele>227.8</ele>
        <time>2025-01-19T10:22:52Z</time>
      </trkpt>
      <trkpt lat="43.40767" lon="6.63643">
        <ele>227.7</ele>
        <time>2025-01-19T10:22:53Z</time>
      </trkpt>
      <trkpt lat="43.40766" lon="6.63643">
        <ele>227.6</ele>
        <time>2025-01-19T10:22:54Z</time>
      </trkpt>
      <trkpt lat="43.40765" lon="6.63642">
        <ele>227.5</ele>
        <time>2025-01-19T10:22:55Z</time>
      </trkpt>
      <trkpt lat="43.40764" lon="6.63642">
        <ele>227.4</ele>
        <time>2025-01-19T10:22:56Z</time>
      </trkpt>
      <trkpt lat="43.40763" lon="6.63641">
        <ele>227.3</ele>
        <time>2025-01-19T10:22:57Z</time>
      </trkpt>
      <trkpt lat="43.40762" lon="6.63641">
        <ele>227.2</ele>
        <time>2025-01-19T10:22:58Z</time>
      </trkpt>
      <trkpt lat="43.40761" lon="6.63642">
        <ele>227.1</ele>
        <time>2025-01-19T10:22:59Z</time>
      </trkpt>
      <trkpt lat="43.40759" lon="6.63641">
        <ele>227</ele>
        <time>2025-01-19T10:23:00Z</time>
      </trkpt>
      <trkpt lat="43.40758" lon="6.63643">
        <ele>226.9</ele>
        <time>2025-01-19T10:23:01Z</time>
      </trkpt>
      <trkpt lat="43.40756" lon="6.63644">
        <ele>226.9</ele>
        <time>2025-01-19T10:23:02Z</time>
      </trkpt>
      <trkpt lat="43.40755" lon="6.63644">
        <ele>226.8</ele>
        <time>2025-01-19T10:23:03Z</time>
      </trkpt>
      <trkpt lat="43.40754" lon="6.63644">
        <ele>226.7</ele>
        <time>2025-01-19T10:23:04Z</time>
      </trkpt>
      <trkpt lat="43.40753" lon="6.63644">
        <ele>226.6</ele>
        <time>2025-01-19T10:23:05Z</time>
      </trkpt>
      <trkpt lat="43.40752" lon="6.63644">
        <ele>226.4</ele>
        <time>2025-01-19T10:23:06Z</time>
      </trkpt>
      <trkpt lat="43.40751" lon="6.63645">
        <ele>226.3</ele>
        <time>2025-01-19T10:23:07Z</time>
      </trkpt>
      <trkpt lat="43.4075" lon="6.63646">
        <ele>226.2</ele>
        <time>2025-01-19T10:23:08Z</time>
      </trkpt>
      <trkpt lat="43.40749" lon="6.63644">
        <ele>226.1</ele>
        <time>2025-01-19T10:23:09Z</time>
      </trkpt>
      <trkpt lat="43.40748" lon="6.63644">
        <ele>226</ele>
        <time>2025-01-19T10:23:10Z</time>
      </trkpt>
      <trkpt lat="43.40747" lon="6.63643">
        <ele>225.7</ele>
        <time>2025-01-19T10:23:11Z</time>
      </trkpt>
      <trkpt lat="43.40746" lon="6.63643">
        <ele>225.6</ele>
        <time>2025-01-19T10:23:12Z</time>
      </trkpt>
      <trkpt lat="43.40745" lon="6.63644">
        <ele>225.5</ele>
        <time>2025-01-19T10:23:13Z</time>
      </trkpt>
      <trkpt lat="43.40743" lon="6.63645">
        <ele>225.4</ele>
        <time>2025-01-19T10:23:14Z</time>
      </trkpt>
      <trkpt lat="43.40742" lon="6.63645">
        <ele>225.4</ele>
        <time>2025-01-19T10:23:15Z</time>
      </trkpt>
      <trkpt lat="43.4074" lon="6.63647">
        <ele>225.3</ele>
        <time>2025-01-19T10:23:16Z</time>
      </trkpt>
      <trkpt lat="43.40739" lon="6.63647">
        <ele>225.3</ele>
        <time>2025-01-19T10:23:17Z</time>
      </trkpt>
      <trkpt lat="43.40738" lon="6.63647">
        <ele>225.1</ele>
        <time>2025-01-19T10:23:18Z</time>
      </trkpt>
      <trkpt lat="43.40736" lon="6.63647">
        <ele>225</ele>
        <time>2025-01-19T10:23:19Z</time>
      </trkpt>
      <trkpt lat="43.40735" lon="6.63647">
        <ele>224.9</ele>
        <time>2025-01-19T10:23:20Z</time>
      </trkpt>
      <trkpt lat="43.40734" lon="6.63648">
        <ele>224.7</ele>
        <time>2025-01-19T10:23:21Z</time>
      </trkpt>
      <trkpt lat="43.40733" lon="6.63648">
        <ele>224.6</ele>
        <time>2025-01-19T10:23:22Z</time>
      </trkpt>
      <trkpt lat="43.40732" lon="6.63648">
        <ele>224.5</ele>
        <time>2025-01-19T10:23:23Z</time>
      </trkpt>
      <trkpt lat="43.40732" lon="6.63647">
        <ele>224.3</ele>
        <time>2025-01-19T10:23:24Z</time>
      </trkpt>
      <trkpt lat="43.4073" lon="6.63648">
        <ele>224.2</ele>
        <time>2025-01-19T10:23:25Z</time>
      </trkpt>
      <trkpt lat="43.40728" lon="6.63647">
        <ele>224</ele>
        <time>2025-01-19T10:23:26Z</time>
      </trkpt>
      <trkpt lat="43.40727" lon="6.63647">
        <ele>223.9</ele>
        <time>2025-01-19T10:23:27Z</time>
      </trkpt>
      <trkpt lat="43.40726" lon="6.63647">
        <ele>223.8</ele>
        <time>2025-01-19T10:23:28Z</time>
      </trkpt>
      <trkpt lat="43.40724" lon="6.63647">
        <ele>223.8</ele>
        <time>2025-01-19T10:23:29Z</time>
      </trkpt>
      <trkpt lat="43.40723" lon="6.63647">
        <ele>223.8</ele>
        <time>2025-01-19T10:23:30Z</time>
      </trkpt>
      <trkpt lat="43.40722" lon="6.63646">
        <ele>223.7</ele>
        <time>2025-01-19T10:23:31Z</time>
      </trkpt>
      <trkpt lat="43.40721" lon="6.63645">
        <ele>223.7</ele>
        <time>2025-01-19T10:23:32Z</time>
      </trkpt>
      <trkpt lat="43.4072" lon="6.63644">
        <ele>223.7</ele>
        <time>2025-01-19T10:23:33Z</time>
      </trkpt>
      <trkpt lat="43.40719" lon="6.63644">
        <ele>223.6</ele>
        <time>2025-01-19T10:23:34Z</time>
      </trkpt>
      <trkpt lat="43.40718" lon="6.63643">
        <ele>223.5</ele>
        <time>2025-01-19T10:23:35Z</time>
      </trkpt>
      <trkpt lat="43.40717" lon="6.63642">
        <ele>223.5</ele>
        <time>2025-01-19T10:23:36Z</time>
      </trkpt>
      <trkpt lat="43.40716" lon="6.63641">
        <ele>223.4</ele>
        <time>2025-01-19T10:23:37Z</time>
      </trkpt>
      <trkpt lat="43.40716" lon="6.6364">
        <ele>223.3</ele>
        <time>2025-01-19T10:23:38Z</time>
      </trkpt>
      <trkpt lat="43.40715" lon="6.63639">
        <ele>223.1</ele>
        <time>2025-01-19T10:23:39Z</time>
      </trkpt>
      <trkpt lat="43.40714" lon="6.63639">
        <ele>223</ele>
        <time>2025-01-19T10:23:40Z</time>
      </trkpt>
      <trkpt lat="43.40713" lon="6.63638">
        <ele>222.8</ele>
        <time>2025-01-19T10:23:41Z</time>
      </trkpt>
      <trkpt lat="43.40712" lon="6.63637">
        <ele>222.7</ele>
        <time>2025-01-19T10:23:42Z</time>
      </trkpt>
      <trkpt lat="43.40712" lon="6.63636">
        <ele>222.5</ele>
        <time>2025-01-19T10:23:43Z</time>
      </trkpt>
      <trkpt lat="43.40711" lon="6.63636">
        <ele>222.3</ele>
        <time>2025-01-19T10:23:44Z</time>
      </trkpt>
      <trkpt lat="43.4071" lon="6.63634">
        <ele>222.2</ele>
        <time>2025-01-19T10:23:45Z</time>
      </trkpt>
      <trkpt lat="43.4071" lon="6.63633">
        <ele>222.1</ele>
        <time>2025-01-19T10:23:46Z</time>
      </trkpt>
      <trkpt lat="43.40709" lon="6.63631">
        <ele>221.9</ele>
        <time>2025-01-19T10:23:47Z</time>
      </trkpt>
      <trkpt lat="43.40708" lon="6.6363">
        <ele>221.9</ele>
        <time>2025-01-19T10:23:48Z</time>
      </trkpt>
      <trkpt lat="43.40708" lon="6.63629">
        <ele>221.8</ele>
        <time>2025-01-19T10:23:49Z</time>
      </trkpt>
      <trkpt lat="43.40707" lon="6.63628">
        <ele>221.7</ele>
        <time>2025-01-19T10:23:50Z</time>
      </trkpt>
      <trkpt lat="43.40706" lon="6.63628">
        <ele>221.7</ele>
        <time>2025-01-19T10:23:51Z</time>
      </trkpt>
      <trkpt lat="43.40705" lon="6.63627">
        <ele>221.6</ele>
        <time>2025-01-19T10:23:52Z</time>
      </trkpt>
      <trkpt lat="43.40704" lon="6.63626">
        <ele>221.5</ele>
        <time>2025-01-19T10:23:53Z</time>
      </trkpt>
      <trkpt lat="43.40703" lon="6.63625">
        <ele>221.4</ele>
        <time>2025-01-19T10:23:54Z</time>
      </trkpt>
      <trkpt lat="43.40702" lon="6.63624">
        <ele>221.2</ele>
        <time>2025-01-19T10:23:55Z</time>
      </trkpt>
      <trkpt lat="43.40702" lon="6.63623">
        <ele>221.1</ele>
        <time>2025-01-19T10:23:56Z</time>
      </trkpt>
      <trkpt lat="43.40701" lon="6.63622">
        <ele>220.9</ele>
        <time>2025-01-19T10:23:57Z</time>
      </trkpt>
      <trkpt lat="43.407" lon="6.63621">
        <ele>220.8</ele>
        <time>2025-01-19T10:23:58Z</time>
      </trkpt>
      <trkpt lat="43.40699" lon="6.6362">
        <ele>220.7</ele>
        <time>2025-01-19T10:23:59Z</time>
      </trkpt>
      <trkpt lat="43.40698" lon="6.63619">
        <ele>220.6</ele>
        <time>2025-01-19T10:24:00Z</time>
      </trkpt>
      <trkpt lat="43.40697" lon="6.63618">
        <ele>220.4</ele>
        <time>2025-01-19T10:24:01Z</time>
      </trkpt>
      <trkpt lat="43.40696" lon="6.63617">
        <ele>220.3</ele>
        <time>2025-01-19T10:24:02Z</time>
      </trkpt>
      <trkpt lat="43.40695" lon="6.63616">
        <ele>220.2</ele>
        <time>2025-01-19T10:24:03Z</time>
      </trkpt>
      <trkpt lat="43.40694" lon="6.63614">
        <ele>220.2</ele>
        <time>2025-01-19T10:24:04Z</time>
      </trkpt>
      <trkpt lat="43.40693" lon="6.63613">
        <ele>220.1</ele>
        <time>2025-01-19T10:24:05Z</time>
      </trkpt>
      <trkpt lat="43.40692" lon="6.63612">
        <ele>220</ele>
        <time>2025-01-19T10:24:06Z</time>
      </trkpt>
      <trkpt lat="43.40691" lon="6.63611">
        <ele>220</ele>
        <time>2025-01-19T10:24:07Z</time>
      </trkpt>
      <trkpt lat="43.40691" lon="6.6361">
        <ele>220</ele>
        <time>2025-01-19T10:24:08Z</time>
      </trkpt>
      <trkpt lat="43.4069" lon="6.6361">
        <ele>219.8</ele>
        <time>2025-01-19T10:24:09Z</time>
      </trkpt>
      <trkpt lat="43.40689" lon="6.63608">
        <ele>219.7</ele>
        <time>2025-01-19T10:24:10Z</time>
      </trkpt>
      <trkpt lat="43.40688" lon="6.63607">
        <ele>219.6</ele>
        <time>2025-01-19T10:24:11Z</time>
      </trkpt>
      <trkpt lat="43.40687" lon="6.63606">
        <ele>219.6</ele>
        <time>2025-01-19T10:24:12Z</time>
      </trkpt>
      <trkpt lat="43.40686" lon="6.63605">
        <ele>219.6</ele>
        <time>2025-01-19T10:24:13Z</time>
      </trkpt>
      <trkpt lat="43.40685" lon="6.63604">
        <ele>219.4</ele>
        <time>2025-01-19T10:24:14Z</time>
      </trkpt>
      <trkpt lat="43.40684" lon="6.63604">
        <ele>219.4</ele>
        <time>2025-01-19T10:24:15Z</time>
      </trkpt>
      <trkpt lat="43.40684" lon="6.63603">
        <ele>219.3</ele>
        <time>2025-01-19T10:24:16Z</time>
      </trkpt>
      <trkpt lat="43.40683" lon="6.63602">
        <ele>219.2</ele>
        <time>2025-01-19T10:24:17Z</time>
      </trkpt>
      <trkpt lat="43.40682" lon="6.63601">
        <ele>219.1</ele>
        <time>2025-01-19T10:24:18Z</time>
      </trkpt>
      <trkpt lat="43.40681" lon="6.636">
        <ele>219</ele>
        <time>2025-01-19T10:24:19Z</time>
      </trkpt>
      <trkpt lat="43.4068" lon="6.636">
        <ele>218.9</ele>
        <time>2025-01-19T10:24:20Z</time>
      </trkpt>
      <trkpt lat="43.40678" lon="6.63599">
        <ele>218.7</ele>
        <time>2025-01-19T10:24:21Z</time>
      </trkpt>
      <trkpt lat="43.40678" lon="6.63598">
        <ele>218.5</ele>
        <time>2025-01-19T10:24:22Z</time>
      </trkpt>
      <trkpt lat="43.40677" lon="6.63597">
        <ele>218.4</ele>
        <time>2025-01-19T10:24:23Z</time>
      </trkpt>
      <trkpt lat="43.40675" lon="6.63596">
        <ele>218.3</ele>
        <time>2025-01-19T10:24:24Z</time>
      </trkpt>
      <trkpt lat="43.40675" lon="6.63595">
        <ele>218.2</ele>
        <time>2025-01-19T10:24:25Z</time>
      </trkpt>
      <trkpt lat="43.40673" lon="6.63595">
        <ele>218.1</ele>
        <time>2025-01-19T10:24:26Z</time>
      </trkpt>
      <trkpt lat="43.40673" lon="6.63594">
        <ele>217.9</ele>
        <time>2025-01-19T10:24:27Z</time>
      </trkpt>
      <trkpt lat="43.40672" lon="6.63593">
        <ele>217.8</ele>
        <time>2025-01-19T10:24:28Z</time>
      </trkpt>
      <trkpt lat="43.40672" lon="6.63592">
        <ele>217.6</ele>
        <time>2025-01-19T10:24:29Z</time>
      </trkpt>
      <trkpt lat="43.40671" lon="6.63591">
        <ele>217.5</ele>
        <time>2025-01-19T10:24:30Z</time>
      </trkpt>
      <trkpt lat="43.4067" lon="6.63591">
        <ele>217.4</ele>
        <time>2025-01-19T10:24:31Z</time>
      </trkpt>
      <trkpt lat="43.40669" lon="6.6359">
        <ele>217.4</ele>
        <time>2025-01-19T10:24:32Z</time>
      </trkpt>
      <trkpt lat="43.40668" lon="6.63589">
        <ele>217.3</ele>
        <time>2025-01-19T10:24:33Z</time>
      </trkpt>
      <trkpt lat="43.40668" lon="6.63588">
        <ele>217.2</ele>
        <time>2025-01-19T10:24:34Z</time>
      </trkpt>
      <trkpt lat="43.40667" lon="6.63587">
        <ele>217.1</ele>
        <time>2025-01-19T10:24:35Z</time>
      </trkpt>
      <trkpt lat="43.40666" lon="6.63586">
        <ele>217.1</ele>
        <time>2025-01-19T10:24:36Z</time>
      </trkpt>
      <trkpt lat="43.40665" lon="6.63585">
        <ele>217</ele>
        <time>2025-01-19T10:24:37Z</time>
      </trkpt>
      <trkpt lat="43.40664" lon="6.63584">
        <ele>216.9</ele>
        <time>2025-01-19T10:24:38Z</time>
      </trkpt>
      <trkpt lat="43.40663" lon="6.63583">
        <ele>216.8</ele>
        <time>2025-01-19T10:24:39Z</time>
      </trkpt>
      <trkpt lat="43.40662" lon="6.63582">
        <ele>216.7</ele>
        <time>2025-01-19T10:24:40Z</time>
      </trkpt>
      <trkpt lat="43.40661" lon="6.63582">
        <ele>216.6</ele>
        <time>2025-01-19T10:24:41Z</time>
      </trkpt>
      <trkpt lat="43.4066" lon="6.63581">
        <ele>216.5</ele>
        <time>2025-01-19T10:24:42Z</time>
      </trkpt>
      <trkpt lat="43.40659" lon="6.6358">
        <ele>216.4</ele>
        <time>2025-01-19T10:24:43Z</time>
      </trkpt>
      <trkpt lat="43.40658" lon="6.63579">
        <ele>216.4</ele>
        <time>2025-01-19T10:24:44Z</time>
      </trkpt>
      <trkpt lat="43.40658" lon="6.63576">
        <ele>216.3</ele>
        <time>2025-01-19T10:24:45Z</time>
      </trkpt>
      <trkpt lat="43.40658" lon="6.63575">
        <ele>216.2</ele>
        <time>2025-01-19T10:24:46Z</time>
      </trkpt>
      <trkpt lat="43.40657" lon="6.63574">
        <ele>216</ele>
        <time>2025-01-19T10:24:47Z</time>
      </trkpt>
      <trkpt lat="43.40656" lon="6.63573">
        <ele>215.9</ele>
        <time>2025-01-19T10:24:48Z</time>
      </trkpt>
      <trkpt lat="43.40655" lon="6.63572">
        <ele>215.9</ele>
        <time>2025-01-19T10:24:49Z</time>
      </trkpt>
      <trkpt lat="43.40654" lon="6.6357">
        <ele>215.8</ele>
        <time>2025-01-19T10:24:50Z</time>
      </trkpt>
      <trkpt lat="43.40654" lon="6.63569">
        <ele>215.7</ele>
        <time>2025-01-19T10:24:51Z</time>
      </trkpt>
      <trkpt lat="43.40653" lon="6.63568">
        <ele>215.7</ele>
        <time>2025-01-19T10:24:52Z</time>
      </trkpt>
      <trkpt lat="43.40652" lon="6.63567">
        <ele>215.7</ele>
        <time>2025-01-19T10:24:53Z</time>
      </trkpt>
      <trkpt lat="43.40652" lon="6.63566">
        <ele>215.6</ele>
        <time>2025-01-19T10:24:54Z</time>
      </trkpt>
      <trkpt lat="43.40651" lon="6.63565">
        <ele>215.5</ele>
        <time>2025-01-19T10:24:55Z</time>
      </trkpt>
      <trkpt lat="43.4065" lon="6.63564">
        <ele>215.3</ele>
        <time>2025-01-19T10:24:56Z</time>
      </trkpt>
      <trkpt lat="43.4065" lon="6.63562">
        <ele>215.2</ele>
        <time>2025-01-19T10:24:57Z</time>
      </trkpt>
      <trkpt lat="43.40649" lon="6.63561">
        <ele>215.1</ele>
        <time>2025-01-19T10:24:58Z</time>
      </trkpt>
      <trkpt lat="43.40648" lon="6.63559">
        <ele>214.9</ele>
        <time>2025-01-19T10:24:59Z</time>
      </trkpt>
      <trkpt lat="43.40647" lon="6.63558">
        <ele>214.8</ele>
        <time>2025-01-19T10:25:00Z</time>
      </trkpt>
      <trkpt lat="43.40647" lon="6.63557">
        <ele>214.7</ele>
        <time>2025-01-19T10:25:01Z</time>
      </trkpt>
      <trkpt lat="43.40647" lon="6.63556">
        <ele>214.6</ele>
        <time>2025-01-19T10:25:02Z</time>
      </trkpt>
      <trkpt lat="43.40646" lon="6.63554">
        <ele>214.5</ele>
        <time>2025-01-19T10:25:03Z</time>
      </trkpt>
      <trkpt lat="43.40645" lon="6.63553">
        <ele>214.4</ele>
        <time>2025-01-19T10:25:04Z</time>
      </trkpt>
      <trkpt lat="43.40644" lon="6.63552">
        <ele>214.4</ele>
        <time>2025-01-19T10:25:05Z</time>
      </trkpt>
      <trkpt lat="43.40643" lon="6.63551">
        <ele>214.2</ele>
        <time>2025-01-19T10:25:06Z</time>
      </trkpt>
      <trkpt lat="43.40642" lon="6.6355">
        <ele>214</ele>
        <time>2025-01-19T10:25:07Z</time>
      </trkpt>
      <trkpt lat="43.40642" lon="6.63549">
        <ele>213.9</ele>
        <time>2025-01-19T10:25:08Z</time>
      </trkpt>
      <trkpt lat="43.40641" lon="6.63547">
        <ele>213.8</ele>
        <time>2025-01-19T10:25:09Z</time>
      </trkpt>
      <trkpt lat="43.4064" lon="6.63547">
        <ele>213.7</ele>
        <time>2025-01-19T10:25:10Z</time>
      </trkpt>
      <trkpt lat="43.40639" lon="6.63545">
        <ele>213.7</ele>
        <time>2025-01-19T10:25:11Z</time>
      </trkpt>
      <trkpt lat="43.40639" lon="6.63544">
        <ele>213.6</ele>
        <time>2025-01-19T10:25:12Z</time>
      </trkpt>
      <trkpt lat="43.40638" lon="6.63543">
        <ele>213.6</ele>
        <time>2025-01-19T10:25:13Z</time>
      </trkpt>
      <trkpt lat="43.40637" lon="6.63542">
        <ele>213.5</ele>
        <time>2025-01-19T10:25:14Z</time>
      </trkpt>
      <trkpt lat="43.40637" lon="6.6354">
        <ele>213.4</ele>
        <time>2025-01-19T10:25:15Z</time>
      </trkpt>
      <trkpt lat="43.40636" lon="6.63539">
        <ele>213.2</ele>
        <time>2025-01-19T10:25:16Z</time>
      </trkpt>
      <trkpt lat="43.40634" lon="6.63539">
        <ele>213.1</ele>
        <time>2025-01-19T10:25:17Z</time>
      </trkpt>
      <trkpt lat="43.40633" lon="6.63538">
        <ele>213</ele>
        <time>2025-01-19T10:25:18Z</time>
      </trkpt>
      <trkpt lat="43.40633" lon="6.63537">
        <ele>212.8</ele>
        <time>2025-01-19T10:25:19Z</time>
      </trkpt>
      <trkpt lat="43.40632" lon="6.63536">
        <ele>212.6</ele>
        <time>2025-01-19T10:25:20Z</time>
      </trkpt>
      <trkpt lat="43.40631" lon="6.63534">
        <ele>212.5</ele>
        <time>2025-01-19T10:25:21Z</time>
      </trkpt>
      <trkpt lat="43.40631" lon="6.63533">
        <ele>212.3</ele>
        <time>2025-01-19T10:25:22Z</time>
      </trkpt>
      <trkpt lat="43.4063" lon="6.63531">
        <ele>212.2</ele>
        <time>2025-01-19T10:25:23Z</time>
      </trkpt>
      <trkpt lat="43.40629" lon="6.6353">
        <ele>212</ele>
        <time>2025-01-19T10:25:24Z</time>
      </trkpt>
      <trkpt lat="43.40628" lon="6.63529">
        <ele>211.9</ele>
        <time>2025-01-19T10:25:25Z</time>
      </trkpt>
      <trkpt lat="43.40627" lon="6.63529">
        <ele>211.7</ele>
        <time>2025-01-19T10:25:26Z</time>
      </trkpt>
      <trkpt lat="43.40627" lon="6.63527">
        <ele>211.6</ele>
        <time>2025-01-19T10:25:27Z</time>
      </trkpt>
      <trkpt lat="43.40626" lon="6.63526">
        <ele>211.5</ele>
        <time>2025-01-19T10:25:28Z</time>
      </trkpt>
      <trkpt lat="43.40626" lon="6.63525">
        <ele>211.3</ele>
        <time>2025-01-19T10:25:29Z</time>
      </trkpt>
      <trkpt lat="43.40625" lon="6.63524">
        <ele>211.3</ele>
        <time>2025-01-19T10:25:30Z</time>
      </trkpt>
      <trkpt lat="43.40624" lon="6.63523">
        <ele>211.3</ele>
        <time>2025-01-19T10:25:31Z</time>
      </trkpt>
      <trkpt lat="43.40622" lon="6.63522">
        <ele>211.2</ele>
        <time>2025-01-19T10:25:32Z</time>
      </trkpt>
      <trkpt lat="43.40622" lon="6.63522">
        <ele>211.1</ele>
        <time>2025-01-19T10:25:33Z</time>
      </trkpt>
      <trkpt lat="43.40621" lon="6.63521">
        <ele>210.9</ele>
        <time>2025-01-19T10:25:34Z</time>
      </trkpt>
      <trkpt lat="43.4062" lon="6.6352">
        <ele>210.8</ele>
        <time>2025-01-19T10:25:35Z</time>
      </trkpt>
      <trkpt lat="43.40619" lon="6.63519">
        <ele>210.7</ele>
        <time>2025-01-19T10:25:36Z</time>
      </trkpt>
      <trkpt lat="43.40618" lon="6.63518">
        <ele>210.6</ele>
        <time>2025-01-19T10:25:37Z</time>
      </trkpt>
      <trkpt lat="43.40617" lon="6.63517">
        <ele>210.5</ele>
        <time>2025-01-19T10:25:38Z</time>
      </trkpt>
      <trkpt lat="43.40615" lon="6.63517">
        <ele>210.5</ele>
        <time>2025-01-19T10:25:39Z</time>
      </trkpt>
      <trkpt lat="43.40615" lon="6.63516">
        <ele>210.3</ele>
        <time>2025-01-19T10:25:40Z</time>
      </trkpt>
      <trkpt lat="43.40614" lon="6.63515">
        <ele>210.2</ele>
        <time>2025-01-19T10:25:41Z</time>
      </trkpt>
      <trkpt lat="43.40612" lon="6.63514">
        <ele>210.1</ele>
        <time>2025-01-19T10:25:42Z</time>
      </trkpt>
      <trkpt lat="43.40611" lon="6.63514">
        <ele>209.9</ele>
        <time>2025-01-19T10:25:43Z</time>
      </trkpt>
      <trkpt lat="43.4061" lon="6.63514">
        <ele>209.8</ele>
        <time>2025-01-19T10:25:44Z</time>
      </trkpt>
      <trkpt lat="43.40609" lon="6.63513">
        <ele>209.5</ele>
        <time>2025-01-19T10:25:45Z</time>
      </trkpt>
      <trkpt lat="43.40608" lon="6.63512">
        <ele>209.4</ele>
        <time>2025-01-19T10:25:46Z</time>
      </trkpt>
      <trkpt lat="43.40607" lon="6.6351">
        <ele>209.3</ele>
        <time>2025-01-19T10:25:47Z</time>
      </trkpt>
      <trkpt lat="43.40606" lon="6.6351">
        <ele>209.1</ele>
        <time>2025-01-19T10:25:48Z</time>
      </trkpt>
      <trkpt lat="43.40605" lon="6.63509">
        <ele>209.1</ele>
        <time>2025-01-19T10:25:49Z</time>
      </trkpt>
      <trkpt lat="43.40604" lon="6.63508">
        <ele>209</ele>
        <time>2025-01-19T10:25:50Z</time>
      </trkpt>
      <trkpt lat="43.40603" lon="6.63507">
        <ele>208.8</ele>
        <time>2025-01-19T10:25:51Z</time>
      </trkpt>
      <trkpt lat="43.40602" lon="6.63506">
        <ele>208.7</ele>
        <time>2025-01-19T10:25:52Z</time>
      </trkpt>
      <trkpt lat="43.40601" lon="6.63505">
        <ele>208.6</ele>
        <time>2025-01-19T10:25:53Z</time>
      </trkpt>
      <trkpt lat="43.406" lon="6.63504">
        <ele>208.5</ele>
        <time>2025-01-19T10:25:54Z</time>
      </trkpt>
      <trkpt lat="43.40599" lon="6.63503">
        <ele>208.4</ele>
        <time>2025-01-19T10:25:55Z</time>
      </trkpt>
      <trkpt lat="43.40598" lon="6.63503">
        <ele>208.4</ele>
        <time>2025-01-19T10:25:56Z</time>
      </trkpt>
      <trkpt lat="43.40596" lon="6.63503">
        <ele>208.3</ele>
        <time>2025-01-19T10:25:57Z</time>
      </trkpt>
      <trkpt lat="43.40595" lon="6.63503">
        <ele>208.3</ele>
        <time>2025-01-19T10:25:58Z</time>
      </trkpt>
      <trkpt lat="43.40594" lon="6.63502">
        <ele>208.2</ele>
        <time>2025-01-19T10:25:59Z</time>
      </trkpt>
      <trkpt lat="43.40593" lon="6.63501">
        <ele>208.1</ele>
        <time>2025-01-19T10:26:00Z</time>
      </trkpt>
      <trkpt lat="43.40592" lon="6.635">
        <ele>208</ele>
        <time>2025-01-19T10:26:01Z</time>
      </trkpt>
      <trkpt lat="43.40591" lon="6.635">
        <ele>207.9</ele>
        <time>2025-01-19T10:26:02Z</time>
      </trkpt>
      <trkpt lat="43.4059" lon="6.63499">
        <ele>207.9</ele>
        <time>2025-01-19T10:26:03Z</time>
      </trkpt>
      <trkpt lat="43.40589" lon="6.63498">
        <ele>207.8</ele>
        <time>2025-01-19T10:26:04Z</time>
      </trkpt>
      <trkpt lat="43.40589" lon="6.63496">
        <ele>207.8</ele>
        <time>2025-01-19T10:26:05Z</time>
      </trkpt>
      <trkpt lat="43.40588" lon="6.63496">
        <ele>207.8</ele>
        <time>2025-01-19T10:26:06Z</time>
      </trkpt>
      <trkpt lat="43.40586" lon="6.63496">
        <ele>207.7</ele>
        <time>2025-01-19T10:26:07Z</time>
      </trkpt>
      <trkpt lat="43.40585" lon="6.63495">
        <ele>207.5</ele>
        <time>2025-01-19T10:26:08Z</time>
      </trkpt>
      <trkpt lat="43.40584" lon="6.63494">
        <ele>207.3</ele>
        <time>2025-01-19T10:26:09Z</time>
      </trkpt>
      <trkpt lat="43.40584" lon="6.63493">
        <ele>207.2</ele>
        <time>2025-01-19T10:26:10Z</time>
      </trkpt>
      <trkpt lat="43.40583" lon="6.63493">
        <ele>207.1</ele>
        <time>2025-01-19T10:26:11Z</time>
      </trkpt>
      <trkpt lat="43.40582" lon="6.63491">
        <ele>207</ele>
        <time>2025-01-19T10:26:12Z</time>
      </trkpt>
      <trkpt lat="43.40581" lon="6.6349">
        <ele>206.8</ele>
        <time>2025-01-19T10:26:13Z</time>
      </trkpt>
      <trkpt lat="43.4058" lon="6.63489">
        <ele>206.7</ele>
        <time>2025-01-19T10:26:14Z</time>
      </trkpt>
      <trkpt lat="43.40579" lon="6.63489">
        <ele>206.6</ele>
        <time>2025-01-19T10:26:15Z</time>
      </trkpt>
      <trkpt lat="43.40579" lon="6.63487">
        <ele>206.4</ele>
        <time>2025-01-19T10:26:16Z</time>
      </trkpt>
      <trkpt lat="43.40577" lon="6.63486">
        <ele>206.2</ele>
        <time>2025-01-19T10:26:17Z</time>
      </trkpt>
      <trkpt lat="43.40577" lon="6.63486">
        <ele>206.1</ele>
        <time>2025-01-19T10:26:18Z</time>
      </trkpt>
      <trkpt lat="43.40576" lon="6.63485">
        <ele>206</ele>
        <time>2025-01-19T10:26:19Z</time>
      </trkpt>
      <trkpt lat="43.40575" lon="6.63483">
        <ele>205.9</ele>
        <time>2025-01-19T10:26:20Z</time>
      </trkpt>
      <trkpt lat="43.40574" lon="6.63482">
        <ele>205.8</ele>
        <time>2025-01-19T10:26:21Z</time>
      </trkpt>
      <trkpt lat="43.40573" lon="6.63482">
        <ele>205.6</ele>
        <time>2025-01-19T10:26:22Z</time>
      </trkpt>
      <trkpt lat="43.40571" lon="6.63481">
        <ele>205.4</ele>
        <time>2025-01-19T10:26:23Z</time>
      </trkpt>
      <trkpt lat="43.4057" lon="6.6348">
        <ele>205.2</ele>
        <time>2025-01-19T10:26:24Z</time>
      </trkpt>
      <trkpt lat="43.4057" lon="6.6348">
        <ele>204.9</ele>
        <time>2025-01-19T10:26:25Z</time>
      </trkpt>
      <trkpt lat="43.40569" lon="6.63479">
        <ele>204.7</ele>
        <time>2025-01-19T10:26:26Z</time>
      </trkpt>
      <trkpt lat="43.40568" lon="6.63479">
        <ele>204.5</ele>
        <time>2025-01-19T10:26:27Z</time>
      </trkpt>
      <trkpt lat="43.40567" lon="6.63478">
        <ele>204.4</ele>
        <time>2025-01-19T10:26:28Z</time>
      </trkpt>
      <trkpt lat="43.40566" lon="6.63478">
        <ele>204.3</ele>
        <time>2025-01-19T10:26:29Z</time>
      </trkpt>
      <trkpt lat="43.40564" lon="6.63477">
        <ele>204.2</ele>
        <time>2025-01-19T10:26:30Z</time>
      </trkpt>
      <trkpt lat="43.40563" lon="6.63477">
        <ele>204.2</ele>
        <time>2025-01-19T10:26:31Z</time>
      </trkpt>
      <trkpt lat="43.40562" lon="6.63476">
        <ele>204.2</ele>
        <time>2025-01-19T10:26:32Z</time>
      </trkpt>
      <trkpt lat="43.40561" lon="6.63476">
        <ele>204.2</ele>
        <time>2025-01-19T10:26:33Z</time>
      </trkpt>
      <trkpt lat="43.40561" lon="6.63474">
        <ele>204.2</ele>
        <time>2025-01-19T10:26:34Z</time>
      </trkpt>
      <trkpt lat="43.4056" lon="6.63473">
        <ele>204.2</ele>
        <time>2025-01-19T10:26:35Z</time>
      </trkpt>
      <trkpt lat="43.40559" lon="6.63472">
        <ele>204.1</ele>
        <time>2025-01-19T10:26:36Z</time>
      </trkpt>
      <trkpt lat="43.40558" lon="6.63471">
        <ele>204</ele>
        <time>2025-01-19T10:26:37Z</time>
      </trkpt>
      <trkpt lat="43.40556" lon="6.6347">
        <ele>203.9</ele>
        <time>2025-01-19T10:26:38Z</time>
      </trkpt>
      <trkpt lat="43.40555" lon="6.63469">
        <ele>203.8</ele>
        <time>2025-01-19T10:26:39Z</time>
      </trkpt>
      <trkpt lat="43.40554" lon="6.63468">
        <ele>203.7</ele>
        <time>2025-01-19T10:26:40Z</time>
      </trkpt>
      <trkpt lat="43.40553" lon="6.63466">
        <ele>203.5</ele>
        <time>2025-01-19T10:26:41Z</time>
      </trkpt>
      <trkpt lat="43.40552" lon="6.63464">
        <ele>203.4</ele>
        <time>2025-01-19T10:26:42Z</time>
      </trkpt>
      <trkpt lat="43.40551" lon="6.63464">
        <ele>203.3</ele>
        <time>2025-01-19T10:26:43Z</time>
      </trkpt>
      <trkpt lat="43.4055" lon="6.63462">
        <ele>203.3</ele>
        <time>2025-01-19T10:26:44Z</time>
      </trkpt>
      <trkpt lat="43.40549" lon="6.63462">
        <ele>203.2</ele>
        <time>2025-01-19T10:26:45Z</time>
      </trkpt>
      <trkpt lat="43.40549" lon="6.63461">
        <ele>203.1</ele>
        <time>2025-01-19T10:26:46Z</time>
      </trkpt>
      <trkpt lat="43.40548" lon="6.6346">
        <ele>203</ele>
        <time>2025-01-19T10:26:47Z</time>
      </trkpt>
      <trkpt lat="43.40547" lon="6.63459">
        <ele>203</ele>
        <time>2025-01-19T10:26:48Z</time>
      </trkpt>
      <trkpt lat="43.40546" lon="6.63459">
        <ele>202.9</ele>
        <time>2025-01-19T10:26:49Z</time>
      </trkpt>
      <trkpt lat="43.40545" lon="6.63459">
        <ele>202.9</ele>
        <time>2025-01-19T10:26:50Z</time>
      </trkpt>
      <trkpt lat="43.40545" lon="6.63457">
        <ele>202.8</ele>
        <time>2025-01-19T10:26:51Z</time>
      </trkpt>
      <trkpt lat="43.40545" lon="6.63456">
        <ele>202.7</ele>
        <time>2025-01-19T10:26:52Z</time>
      </trkpt>
      <trkpt lat="43.40544" lon="6.63454">
        <ele>202.6</ele>
        <time>2025-01-19T10:26:53Z</time>
      </trkpt>
      <trkpt lat="43.40542" lon="6.63453">
        <ele>202.5</ele>
        <time>2025-01-19T10:26:54Z</time>
      </trkpt>
      <trkpt lat="43.40541" lon="6.63452">
        <ele>202.3</ele>
        <time>2025-01-19T10:26:55Z</time>
      </trkpt>
      <trkpt lat="43.4054" lon="6.63451">
        <ele>202.2</ele>
        <time>2025-01-19T10:26:56Z</time>
      </trkpt>
      <trkpt lat="43.40539" lon="6.63451">
        <ele>202</ele>
        <time>2025-01-19T10:26:57Z</time>
      </trkpt>
      <trkpt lat="43.40538" lon="6.63451">
        <ele>201.8</ele>
        <time>2025-01-19T10:26:58Z</time>
      </trkpt>
      <trkpt lat="43.40536" lon="6.6345">
        <ele>201.6</ele>
        <time>2025-01-19T10:26:59Z</time>
      </trkpt>
      <trkpt lat="43.40535" lon="6.63449">
        <ele>201.4</ele>
        <time>2025-01-19T10:27:00Z</time>
      </trkpt>
      <trkpt lat="43.40534" lon="6.63448">
        <ele>201.2</ele>
        <time>2025-01-19T10:27:01Z</time>
      </trkpt>
      <trkpt lat="43.40533" lon="6.63447">
        <ele>201</ele>
        <time>2025-01-19T10:27:02Z</time>
      </trkpt>
      <trkpt lat="43.40531" lon="6.63447">
        <ele>200.9</ele>
        <time>2025-01-19T10:27:03Z</time>
      </trkpt>
      <trkpt lat="43.4053" lon="6.63448">
        <ele>200.8</ele>
        <time>2025-01-19T10:27:04Z</time>
      </trkpt>
      <trkpt lat="43.40528" lon="6.63447">
        <ele>200.7</ele>
        <time>2025-01-19T10:27:05Z</time>
      </trkpt>
      <trkpt lat="43.40527" lon="6.63447">
        <ele>200.6</ele>
        <time>2025-01-19T10:27:06Z</time>
      </trkpt>
      <trkpt lat="43.40526" lon="6.63446">
        <ele>200.5</ele>
        <time>2025-01-19T10:27:07Z</time>
      </trkpt>
      <trkpt lat="43.40525" lon="6.63445">
        <ele>200.5</ele>
        <time>2025-01-19T10:27:08Z</time>
      </trkpt>
      <trkpt lat="43.40524" lon="6.63444">
        <ele>200.4</ele>
        <time>2025-01-19T10:27:09Z</time>
      </trkpt>
      <trkpt lat="43.40523" lon="6.63442">
        <ele>200.3</ele>
        <time>2025-01-19T10:27:10Z</time>
      </trkpt>
      <trkpt lat="43.40522" lon="6.63441">
        <ele>200.2</ele>
        <time>2025-01-19T10:27:11Z</time>
      </trkpt>
      <trkpt lat="43.40521" lon="6.6344">
        <ele>200.1</ele>
        <time>2025-01-19T10:27:12Z</time>
      </trkpt>
      <trkpt lat="43.4052" lon="6.63439">
        <ele>200</ele>
        <time>2025-01-19T10:27:13Z</time>
      </trkpt>
      <trkpt lat="43.4052" lon="6.63438">
        <ele>199.9</ele>
        <time>2025-01-19T10:27:14Z</time>
      </trkpt>
      <trkpt lat="43.40518" lon="6.63437">
        <ele>199.9</ele>
        <time>2025-01-19T10:27:15Z</time>
      </trkpt>
      <trkpt lat="43.40518" lon="6.63435">
        <ele>199.9</ele>
        <time>2025-01-19T10:27:16Z</time>
      </trkpt>
      <trkpt lat="43.40517" lon="6.63435">
        <ele>199.9</ele>
        <time>2025-01-19T10:27:17Z</time>
      </trkpt>
      <trkpt lat="43.40516" lon="6.63434">
        <ele>199.8</ele>
        <time>2025-01-19T10:27:18Z</time>
      </trkpt>
      <trkpt lat="43.40516" lon="6.63432">
        <ele>199.7</ele>
        <time>2025-01-19T10:27:19Z</time>
      </trkpt>
      <trkpt lat="43.40514" lon="6.63432">
        <ele>199.7</ele>
        <time>2025-01-19T10:27:20Z</time>
      </trkpt>
      <trkpt lat="43.40512" lon="6.63433">
        <ele>199.6</ele>
        <time>2025-01-19T10:27:21Z</time>
      </trkpt>
      <trkpt lat="43.40511" lon="6.63433">
        <ele>199.5</ele>
        <time>2025-01-19T10:27:22Z</time>
      </trkpt>
      <trkpt lat="43.4051" lon="6.63432">
        <ele>199.5</ele>
        <time>2025-01-19T10:27:23Z</time>
      </trkpt>
      <trkpt lat="43.40509" lon="6.63432">
        <ele>199.3</ele>
        <time>2025-01-19T10:27:24Z</time>
      </trkpt>
      <trkpt lat="43.40509" lon="6.63432">
        <ele>199.3</ele>
        <time>2025-01-19T10:27:25Z</time>
      </trkpt>
      <trkpt lat="43.40508" lon="6.63431">
        <ele>199.2</ele>
        <time>2025-01-19T10:27:26Z</time>
      </trkpt>
      <trkpt lat="43.40508" lon="6.63431">
        <ele>199.1</ele>
        <time>2025-01-19T10:27:27Z</time>
      </trkpt>
      <trkpt lat="43.40507" lon="6.63432">
        <ele>199.1</ele>
        <time>2025-01-19T10:27:28Z</time>
      </trkpt>
      <trkpt lat="43.40506" lon="6.63432">
        <ele>199</ele>
        <time>2025-01-19T10:27:29Z</time>
      </trkpt>
      <trkpt lat="43.40505" lon="6.63432">
        <ele>199</ele>
        <time>2025-01-19T10:27:30Z</time>
      </trkpt>
      <trkpt lat="43.40505" lon="6.63432">
        <ele>199</ele>
        <time>2025-01-19T10:27:31Z</time>
      </trkpt>
      <trkpt lat="43.40506" lon="6.63431">
        <ele>199</ele>
        <time>2025-01-19T10:27:32Z</time>
      </trkpt>
      <trkpt lat="43.40506" lon="6.63432">
        <ele>198.9</ele>
        <time>2025-01-19T10:27:33Z</time>
      </trkpt>
      <trkpt lat="43.40506" lon="6.63433">
        <ele>199</ele>
        <time>2025-01-19T10:27:34Z</time>
      </trkpt>
      <trkpt lat="43.40507" lon="6.63434">
        <ele>199</ele>
        <time>2025-01-19T10:27:35Z</time>
      </trkpt>
      <trkpt lat="43.40506" lon="6.63435">
        <ele>198.9</ele>
        <time>2025-01-19T10:27:36Z</time>
      </trkpt>
      <trkpt lat="43.40506" lon="6.63437">
        <ele>198.8</ele>
        <time>2025-01-19T10:27:37Z</time>
      </trkpt>
      <trkpt lat="43.40505" lon="6.63439">
        <ele>198.7</ele>
        <time>2025-01-19T10:27:38Z</time>
      </trkpt>
      <trkpt lat="43.40504" lon="6.63441">
        <ele>198.7</ele>
        <time>2025-01-19T10:27:39Z</time>
      </trkpt>
      <trkpt lat="43.40505" lon="6.63443">
        <ele>198.7</ele>
        <time>2025-01-19T10:27:40Z</time>
      </trkpt>
      <trkpt lat="43.40505" lon="6.63445">
        <ele>198.7</ele>
        <time>2025-01-19T10:27:41Z</time>
      </trkpt>
      <trkpt lat="43.40505" lon="6.63446">
        <ele>198.6</ele>
        <time>2025-01-19T10:27:42Z</time>
      </trkpt>
      <trkpt lat="43.40506" lon="6.63448">
        <ele>198.6</ele>
        <time>2025-01-19T10:27:43Z</time>
      </trkpt>
      <trkpt lat="43.40506" lon="6.63449">
        <ele>198.4</ele>
        <time>2025-01-19T10:27:44Z</time>
      </trkpt>
      <trkpt lat="43.40507" lon="6.63451">
        <ele>198.3</ele>
        <time>2025-01-19T10:27:45Z</time>
      </trkpt>
      <trkpt lat="43.40507" lon="6.63452">
        <ele>198.1</ele>
        <time>2025-01-19T10:27:46Z</time>
      </trkpt>
      <trkpt lat="43.40508" lon="6.63454">
        <ele>198.1</ele>
        <time>2025-01-19T10:27:47Z</time>
      </trkpt>
      <trkpt lat="43.40508" lon="6.63458">
        <ele>198</ele>
        <time>2025-01-19T10:27:49Z</time>
      </trkpt>
      <trkpt lat="43.40509" lon="6.63459">
        <ele>197.9</ele>
        <time>2025-01-19T10:27:50Z</time>
      </trkpt>
      <trkpt lat="43.4051" lon="6.63461">
        <ele>197.9</ele>
        <time>2025-01-19T10:27:51Z</time>
      </trkpt>
      <trkpt lat="43.4051" lon="6.63462">
        <ele>197.8</ele>
        <time>2025-01-19T10:27:52Z</time>
      </trkpt>
      <trkpt lat="43.40511" lon="6.63464">
        <ele>197.8</ele>
        <time>2025-01-19T10:27:53Z</time>
      </trkpt>
      <trkpt lat="43.40512" lon="6.63464">
        <ele>197.7</ele>
        <time>2025-01-19T10:27:54Z</time>
      </trkpt>
      <trkpt lat="43.40512" lon="6.63465">
        <ele>197.6</ele>
        <time>2025-01-19T10:27:55Z</time>
      </trkpt>
      <trkpt lat="43.40512" lon="6.63467">
        <ele>197.5</ele>
        <time>2025-01-19T10:27:56Z</time>
      </trkpt>
      <trkpt lat="43.40513" lon="6.63468">
        <ele>197.4</ele>
        <time>2025-01-19T10:27:57Z</time>
      </trkpt>
      <trkpt lat="43.40513" lon="6.63469">
        <ele>197.2</ele>
        <time>2025-01-19T10:27:58Z</time>
      </trkpt>
      <trkpt lat="43.40514" lon="6.63471">
        <ele>197.1</ele>
        <time>2025-01-19T10:27:59Z</time>
      </trkpt>
      <trkpt lat="43.40514" lon="6.63472">
        <ele>197.1</ele>
        <time>2025-01-19T10:28:00Z</time>
      </trkpt>
      <trkpt lat="43.40514" lon="6.63473">
        <ele>197</ele>
        <time>2025-01-19T10:28:01Z</time>
      </trkpt>
      <trkpt lat="43.40514" lon="6.63474">
        <ele>196.8</ele>
        <time>2025-01-19T10:28:02Z</time>
      </trkpt>
      <trkpt lat="43.40515" lon="6.63476">
        <ele>196.7</ele>
        <time>2025-01-19T10:28:03Z</time>
      </trkpt>
      <trkpt lat="43.40515" lon="6.63477">
        <ele>196.6</ele>
        <time>2025-01-19T10:28:04Z</time>
      </trkpt>
      <trkpt lat="43.40515" lon="6.63478">
        <ele>196.5</ele>
        <time>2025-01-19T10:28:05Z</time>
      </trkpt>
      <trkpt lat="43.40516" lon="6.63479">
        <ele>196.3</ele>
        <time>2025-01-19T10:28:06Z</time>
      </trkpt>
      <trkpt lat="43.40516" lon="6.63481">
        <ele>196.2</ele>
        <time>2025-01-19T10:28:07Z</time>
      </trkpt>
      <trkpt lat="43.40516" lon="6.63483">
        <ele>196.1</ele>
        <time>2025-01-19T10:28:08Z</time>
      </trkpt>
      <trkpt lat="43.40516" lon="6.63485">
        <ele>196</ele>
        <time>2025-01-19T10:28:09Z</time>
      </trkpt>
      <trkpt lat="43.40517" lon="6.63485">
        <ele>195.9</ele>
        <time>2025-01-19T10:28:10Z</time>
      </trkpt>
      <trkpt lat="43.40517" lon="6.63486">
        <ele>195.8</ele>
        <time>2025-01-19T10:28:11Z</time>
      </trkpt>
      <trkpt lat="43.40518" lon="6.63487">
        <ele>195.7</ele>
        <time>2025-01-19T10:28:12Z</time>
      </trkpt>
      <trkpt lat="43.40519" lon="6.63488">
        <ele>195.6</ele>
        <time>2025-01-19T10:28:13Z</time>
      </trkpt>
      <trkpt lat="43.4052" lon="6.63489">
        <ele>195.5</ele>
        <time>2025-01-19T10:28:14Z</time>
      </trkpt>
      <trkpt lat="43.4052" lon="6.6349">
        <ele>195.5</ele>
        <time>2025-01-19T10:28:15Z</time>
      </trkpt>
      <trkpt lat="43.4052" lon="6.63491">
        <ele>195.3</ele>
        <time>2025-01-19T10:28:16Z</time>
      </trkpt>
      <trkpt lat="43.40521" lon="6.63492">
        <ele>195.1</ele>
        <time>2025-01-19T10:28:17Z</time>
      </trkpt>
      <trkpt lat="43.40521" lon="6.63493">
        <ele>195</ele>
        <time>2025-01-19T10:28:18Z</time>
      </trkpt>
      <trkpt lat="43.40521" lon="6.63495">
        <ele>194.9</ele>
        <time>2025-01-19T10:28:19Z</time>
      </trkpt>
      <trkpt lat="43.40521" lon="6.63497">
        <ele>194.8</ele>
        <time>2025-01-19T10:28:20Z</time>
      </trkpt>
      <trkpt lat="43.40522" lon="6.63498">
        <ele>194.8</ele>
        <time>2025-01-19T10:28:21Z</time>
      </trkpt>
      <trkpt lat="43.40522" lon="6.635">
        <ele>194.8</ele>
        <time>2025-01-19T10:28:22Z</time>
      </trkpt>
      <trkpt lat="43.40522" lon="6.63502">
        <ele>194.8</ele>
        <time>2025-01-19T10:28:23Z</time>
      </trkpt>
      <trkpt lat="43.40522" lon="6.63504">
        <ele>194.8</ele>
        <time>2025-01-19T10:28:24Z</time>
      </trkpt>
      <trkpt lat="43.40522" lon="6.63505">
        <ele>194.8</ele>
        <time>2025-01-19T10:28:25Z</time>
      </trkpt>
      <trkpt lat="43.40523" lon="6.63507">
        <ele>194.7</ele>
        <time>2025-01-19T10:28:26Z</time>
      </trkpt>
      <trkpt lat="43.40523" lon="6.63509">
        <ele>194.7</ele>
        <time>2025-01-19T10:28:27Z</time>
      </trkpt>
      <trkpt lat="43.40523" lon="6.63511">
        <ele>194.6</ele>
        <time>2025-01-19T10:28:28Z</time>
      </trkpt>
      <trkpt lat="43.40523" lon="6.63512">
        <ele>194.5</ele>
        <time>2025-01-19T10:28:29Z</time>
      </trkpt>
      <trkpt lat="43.40524" lon="6.63514">
        <ele>194.5</ele>
        <time>2025-01-19T10:28:30Z</time>
      </trkpt>
      <trkpt lat="43.40525" lon="6.63515">
        <ele>194.4</ele>
        <time>2025-01-19T10:28:31Z</time>
      </trkpt>
      <trkpt lat="43.40526" lon="6.63516">
        <ele>194.4</ele>
        <time>2025-01-19T10:28:32Z</time>
      </trkpt>
      <trkpt lat="43.40526" lon="6.63518">
        <ele>194.3</ele>
        <time>2025-01-19T10:28:33Z</time>
      </trkpt>
      <trkpt lat="43.40527" lon="6.63519">
        <ele>194.2</ele>
        <time>2025-01-19T10:28:34Z</time>
      </trkpt>
      <trkpt lat="43.40527" lon="6.63521">
        <ele>194.2</ele>
        <time>2025-01-19T10:28:35Z</time>
      </trkpt>
      <trkpt lat="43.40527" lon="6.63522">
        <ele>194.2</ele>
        <time>2025-01-19T10:28:36Z</time>
      </trkpt>
      <trkpt lat="43.40528" lon="6.63523">
        <ele>194.1</ele>
        <time>2025-01-19T10:28:37Z</time>
      </trkpt>
      <trkpt lat="43.40529" lon="6.63524">
        <ele>194.1</ele>
        <time>2025-01-19T10:28:38Z</time>
      </trkpt>
      <trkpt lat="43.40529" lon="6.63525">
        <ele>194.1</ele>
        <time>2025-01-19T10:28:39Z</time>
      </trkpt>
      <trkpt lat="43.40529" lon="6.63527">
        <ele>194.1</ele>
        <time>2025-01-19T10:28:40Z</time>
      </trkpt>
      <trkpt lat="43.4053" lon="6.63528">
        <ele>194.1</ele>
        <time>2025-01-19T10:28:41Z</time>
      </trkpt>
      <trkpt lat="43.4053" lon="6.63529">
        <ele>194.1</ele>
        <time>2025-01-19T10:28:42Z</time>
      </trkpt>
      <trkpt lat="43.40531" lon="6.6353">
        <ele>194</ele>
        <time>2025-01-19T10:28:43Z</time>
      </trkpt>
      <trkpt lat="43.40531" lon="6.63531">
        <ele>193.9</ele>
        <time>2025-01-19T10:28:44Z</time>
      </trkpt>
      <trkpt lat="43.40531" lon="6.63532">
        <ele>193.9</ele>
        <time>2025-01-19T10:28:45Z</time>
      </trkpt>
      <trkpt lat="43.40532" lon="6.63533">
        <ele>193.9</ele>
        <time>2025-01-19T10:28:46Z</time>
      </trkpt>
      <trkpt lat="43.40533" lon="6.63535">
        <ele>193.8</ele>
        <time>2025-01-19T10:28:47Z</time>
      </trkpt>
      <trkpt lat="43.40533" lon="6.63536">
        <ele>193.7</ele>
        <time>2025-01-19T10:28:48Z</time>
      </trkpt>
      <trkpt lat="43.40533" lon="6.63537">
        <ele>193.7</ele>
        <time>2025-01-19T10:28:49Z</time>
      </trkpt>
      <trkpt lat="43.40534" lon="6.63539">
        <ele>193.7</ele>
        <time>2025-01-19T10:28:50Z</time>
      </trkpt>
      <trkpt lat="43.40534" lon="6.63541">
        <ele>193.7</ele>
        <time>2025-01-19T10:28:51Z</time>
      </trkpt>
      <trkpt lat="43.40534" lon="6.63542">
        <ele>193.7</ele>
        <time>2025-01-19T10:28:52Z</time>
      </trkpt>
      <trkpt lat="43.40534" lon="6.63544">
        <ele>193.7</ele>
        <time>2025-01-19T10:28:53Z</time>
      </trkpt>
      <trkpt lat="43.40535" lon="6.63545">
        <ele>193.7</ele>
        <time>2025-01-19T10:28:54Z</time>
      </trkpt>
      <trkpt lat="43.40535" lon="6.63547">
        <ele>193.7</ele>
        <time>2025-01-19T10:28:55Z</time>
      </trkpt>
      <trkpt lat="43.40535" lon="6.63549">
        <ele>193.6</ele>
        <time>2025-01-19T10:28:56Z</time>
      </trkpt>
      <trkpt lat="43.40536" lon="6.63551">
        <ele>193.6</ele>
        <time>2025-01-19T10:28:57Z</time>
      </trkpt>
      <trkpt lat="43.40536" lon="6.63553">
        <ele>193.6</ele>
        <time>2025-01-19T10:28:58Z</time>
      </trkpt>
      <trkpt lat="43.40536" lon="6.63555">
        <ele>193.4</ele>
        <time>2025-01-19T10:28:59Z</time>
      </trkpt>
      <trkpt lat="43.40536" lon="6.63556">
        <ele>193.4</ele>
        <time>2025-01-19T10:29:00Z</time>
      </trkpt>
      <trkpt lat="43.40536" lon="6.63558">
        <ele>193.3</ele>
        <time>2025-01-19T10:29:01Z</time>
      </trkpt>
      <trkpt lat="43.40536" lon="6.6356">
        <ele>193.2</ele>
        <time>2025-01-19T10:29:02Z</time>
      </trkpt>
      <trkpt lat="43.40537" lon="6.63562">
        <ele>193.1</ele>
        <time>2025-01-19T10:29:03Z</time>
      </trkpt>
      <trkpt lat="43.40537" lon="6.63563">
        <ele>193</ele>
        <time>2025-01-19T10:29:04Z</time>
      </trkpt>
      <trkpt lat="43.40538" lon="6.63564">
        <ele>192.9</ele>
        <time>2025-01-19T10:29:05Z</time>
      </trkpt>
      <trkpt lat="43.40538" lon="6.63566">
        <ele>192.8</ele>
        <time>2025-01-19T10:29:06Z</time>
      </trkpt>
      <trkpt lat="43.40538" lon="6.63568">
        <ele>192.7</ele>
        <time>2025-01-19T10:29:07Z</time>
      </trkpt>
      <trkpt lat="43.40539" lon="6.63569">
        <ele>192.7</ele>
        <time>2025-01-19T10:29:08Z</time>
      </trkpt>
      <trkpt lat="43.40539" lon="6.6357">
        <ele>192.6</ele>
        <time>2025-01-19T10:29:09Z</time>
      </trkpt>
      <trkpt lat="43.40539" lon="6.63571">
        <ele>192.5</ele>
        <time>2025-01-19T10:29:10Z</time>
      </trkpt>
      <trkpt lat="43.40539" lon="6.63573">
        <ele>192.4</ele>
        <time>2025-01-19T10:29:11Z</time>
      </trkpt>
      <trkpt lat="43.40539" lon="6.63574">
        <ele>192.3</ele>
        <time>2025-01-19T10:29:12Z</time>
      </trkpt>
      <trkpt lat="43.40538" lon="6.63576">
        <ele>192.2</ele>
        <time>2025-01-19T10:29:13Z</time>
      </trkpt>
      <trkpt lat="43.40539" lon="6.63578">
        <ele>192.2</ele>
        <time>2025-01-19T10:29:14Z</time>
      </trkpt>
      <trkpt lat="43.40539" lon="6.6358">
        <ele>192.1</ele>
        <time>2025-01-19T10:29:15Z</time>
      </trkpt>
      <trkpt lat="43.40539" lon="6.63582">
        <ele>192.1</ele>
        <time>2025-01-19T10:29:16Z</time>
      </trkpt>
      <trkpt lat="43.40539" lon="6.63583">
        <ele>191.9</ele>
        <time>2025-01-19T10:29:17Z</time>
      </trkpt>
      <trkpt lat="43.40539" lon="6.63585">
        <ele>191.8</ele>
        <time>2025-01-19T10:29:18Z</time>
      </trkpt>
      <trkpt lat="43.40539" lon="6.63587">
        <ele>191.7</ele>
        <time>2025-01-19T10:29:19Z</time>
      </trkpt>
      <trkpt lat="43.40539" lon="6.63587">
        <ele>191.5</ele>
        <time>2025-01-19T10:29:20Z</time>
      </trkpt>
      <trkpt lat="43.4054" lon="6.63588">
        <ele>191.4</ele>
        <time>2025-01-19T10:29:21Z</time>
      </trkpt>
      <trkpt lat="43.40539" lon="6.6359">
        <ele>191.3</ele>
        <time>2025-01-19T10:29:22Z</time>
      </trkpt>
      <trkpt lat="43.40539" lon="6.63591">
        <ele>191.1</ele>
        <time>2025-01-19T10:29:23Z</time>
      </trkpt>
      <trkpt lat="43.40539" lon="6.63593">
        <ele>191</ele>
        <time>2025-01-19T10:29:24Z</time>
      </trkpt>
      <trkpt lat="43.40539" lon="6.63594">
        <ele>190.9</ele>
        <time>2025-01-19T10:29:25Z</time>
      </trkpt>
      <trkpt lat="43.4054" lon="6.63596">
        <ele>190.9</ele>
        <time>2025-01-19T10:29:26Z</time>
      </trkpt>
      <trkpt lat="43.40539" lon="6.63598">
        <ele>190.9</ele>
        <time>2025-01-19T10:29:27Z</time>
      </trkpt>
      <trkpt lat="43.40539" lon="6.636">
        <ele>190.8</ele>
        <time>2025-01-19T10:29:28Z</time>
      </trkpt>
      <trkpt lat="43.40539" lon="6.63602">
        <ele>190.7</ele>
        <time>2025-01-19T10:29:29Z</time>
      </trkpt>
      <trkpt lat="43.40538" lon="6.63605">
        <ele>190.6</ele>
        <time>2025-01-19T10:29:30Z</time>
      </trkpt>
      <trkpt lat="43.40538" lon="6.63606">
        <ele>190.5</ele>
        <time>2025-01-19T10:29:31Z</time>
      </trkpt>
      <trkpt lat="43.40538" lon="6.63608">
        <ele>190.4</ele>
        <time>2025-01-19T10:29:32Z</time>
      </trkpt>
      <trkpt lat="43.40537" lon="6.6361">
        <ele>190.4</ele>
        <time>2025-01-19T10:29:33Z</time>
      </trkpt>
      <trkpt lat="43.40536" lon="6.63612">
        <ele>190.3</ele>
        <time>2025-01-19T10:29:34Z</time>
      </trkpt>
      <trkpt lat="43.40534" lon="6.63615">
        <ele>190.2</ele>
        <time>2025-01-19T10:29:35Z</time>
      </trkpt>
      <trkpt lat="43.40532" lon="6.63617">
        <ele>190.2</ele>
        <time>2025-01-19T10:29:36Z</time>
      </trkpt>
      <trkpt lat="43.40532" lon="6.63619">
        <ele>190.1</ele>
        <time>2025-01-19T10:29:37Z</time>
      </trkpt>
      <trkpt lat="43.40531" lon="6.6362">
        <ele>190.1</ele>
        <time>2025-01-19T10:29:38Z</time>
      </trkpt>
      <trkpt lat="43.4053" lon="6.63623">
        <ele>189.9</ele>
        <time>2025-01-19T10:29:39Z</time>
      </trkpt>
      <trkpt lat="43.4053" lon="6.63624">
        <ele>189.7</ele>
        <time>2025-01-19T10:29:40Z</time>
      </trkpt>
      <trkpt lat="43.40531" lon="6.63624">
        <ele>189.5</ele>
        <time>2025-01-19T10:29:41Z</time>
      </trkpt>
      <trkpt lat="43.40531" lon="6.63626">
        <ele>189.3</ele>
        <time>2025-01-19T10:29:42Z</time>
      </trkpt>
      <trkpt lat="43.40531" lon="6.63628">
        <ele>189.2</ele>
        <time>2025-01-19T10:29:43Z</time>
      </trkpt>
      <trkpt lat="43.40531" lon="6.63629">
        <ele>189.1</ele>
        <time>2025-01-19T10:29:44Z</time>
      </trkpt>
      <trkpt lat="43.4053" lon="6.63632">
        <ele>189</ele>
        <time>2025-01-19T10:29:45Z</time>
      </trkpt>
      <trkpt lat="43.4053" lon="6.63634">
        <ele>188.9</ele>
        <time>2025-01-19T10:29:46Z</time>
      </trkpt>
      <trkpt lat="43.40529" lon="6.63636">
        <ele>188.8</ele>
        <time>2025-01-19T10:29:47Z</time>
      </trkpt>
      <trkpt lat="43.4053" lon="6.63637">
        <ele>188.8</ele>
        <time>2025-01-19T10:29:48Z</time>
      </trkpt>
      <trkpt lat="43.4053" lon="6.63639">
        <ele>188.7</ele>
        <time>2025-01-19T10:29:49Z</time>
      </trkpt>
      <trkpt lat="43.4053" lon="6.6364">
        <ele>188.5</ele>
        <time>2025-01-19T10:29:50Z</time>
      </trkpt>
      <trkpt lat="43.40531" lon="6.63641">
        <ele>188.4</ele>
        <time>2025-01-19T10:29:51Z</time>
      </trkpt>
      <trkpt lat="43.40531" lon="6.63643">
        <ele>188.3</ele>
        <time>2025-01-19T10:29:52Z</time>
      </trkpt>
      <trkpt lat="43.40531" lon="6.63646">
        <ele>188.1</ele>
        <time>2025-01-19T10:29:53Z</time>
      </trkpt>
      <trkpt lat="43.40532" lon="6.63648">
        <ele>188</ele>
        <time>2025-01-19T10:29:54Z</time>
      </trkpt>
      <trkpt lat="43.40532" lon="6.63648">
        <ele>187.9</ele>
        <time>2025-01-19T10:29:55Z</time>
      </trkpt>
      <trkpt lat="43.40533" lon="6.6365">
        <ele>187.8</ele>
        <time>2025-01-19T10:29:56Z</time>
      </trkpt>
      <trkpt lat="43.40532" lon="6.63652">
        <ele>187.7</ele>
        <time>2025-01-19T10:29:57Z</time>
      </trkpt>
      <trkpt lat="43.40532" lon="6.63654">
        <ele>187.6</ele>
        <time>2025-01-19T10:29:58Z</time>
      </trkpt>
      <trkpt lat="43.40529" lon="6.63657">
        <ele>187.5</ele>
        <time>2025-01-19T10:29:59Z</time>
      </trkpt>
      <trkpt lat="43.40528" lon="6.63659">
        <ele>187.4</ele>
        <time>2025-01-19T10:30:00Z</time>
      </trkpt>
      <trkpt lat="43.40526" lon="6.63662">
        <ele>187.3</ele>
        <time>2025-01-19T10:30:01Z</time>
      </trkpt>
      <trkpt lat="43.40525" lon="6.63665">
        <ele>187.2</ele>
        <time>2025-01-19T10:30:02Z</time>
      </trkpt>
      <trkpt lat="43.40525" lon="6.63666">
        <ele>187.2</ele>
        <time>2025-01-19T10:30:03Z</time>
      </trkpt>
      <trkpt lat="43.40527" lon="6.63666">
        <ele>187.1</ele>
        <time>2025-01-19T10:30:04Z</time>
      </trkpt>
      <trkpt lat="43.40528" lon="6.63667">
        <ele>187.1</ele>
        <time>2025-01-19T10:30:05Z</time>
      </trkpt>
      <trkpt lat="43.40529" lon="6.63668">
        <ele>187</ele>
        <time>2025-01-19T10:30:06Z</time>
      </trkpt>
      <trkpt lat="43.4053" lon="6.6367">
        <ele>186.9</ele>
        <time>2025-01-19T10:30:07Z</time>
      </trkpt>
      <trkpt lat="43.40531" lon="6.6367">
        <ele>186.8</ele>
        <time>2025-01-19T10:30:08Z</time>
      </trkpt>
      <trkpt lat="43.40532" lon="6.6367">
        <ele>186.7</ele>
        <time>2025-01-19T10:30:09Z</time>
      </trkpt>
      <trkpt lat="43.40532" lon="6.63671">
        <ele>186.6</ele>
        <time>2025-01-19T10:30:10Z</time>
      </trkpt>
      <trkpt lat="43.40533" lon="6.63672">
        <ele>186.4</ele>
        <time>2025-01-19T10:30:11Z</time>
      </trkpt>
      <trkpt lat="43.40534" lon="6.63673">
        <ele>186.4</ele>
        <time>2025-01-19T10:30:12Z</time>
      </trkpt>
      <trkpt lat="43.40534" lon="6.63674">
        <ele>186.3</ele>
        <time>2025-01-19T10:30:13Z</time>
      </trkpt>
      <trkpt lat="43.40534" lon="6.63677">
        <ele>186.1</ele>
        <time>2025-01-19T10:30:14Z</time>
      </trkpt>
      <trkpt lat="43.40535" lon="6.63678">
        <ele>185.9</ele>
        <time>2025-01-19T10:30:15Z</time>
      </trkpt>
      <trkpt lat="43.40536" lon="6.63679">
        <ele>185.8</ele>
        <time>2025-01-19T10:30:16Z</time>
      </trkpt>
      <trkpt lat="43.40536" lon="6.6368">
        <ele>185.7</ele>
        <time>2025-01-19T10:30:17Z</time>
      </trkpt>
      <trkpt lat="43.40537" lon="6.6368">
        <ele>185.6</ele>
        <time>2025-01-19T10:30:18Z</time>
      </trkpt>
      <trkpt lat="43.40538" lon="6.6368">
        <ele>185.5</ele>
        <time>2025-01-19T10:30:19Z</time>
      </trkpt>
      <trkpt lat="43.40538" lon="6.63681">
        <ele>185.5</ele>
        <time>2025-01-19T10:30:20Z</time>
      </trkpt>
      <trkpt lat="43.40539" lon="6.63681">
        <ele>185.4</ele>
        <time>2025-01-19T10:30:21Z</time>
      </trkpt>
      <trkpt lat="43.40539" lon="6.63682">
        <ele>185.3</ele>
        <time>2025-01-19T10:30:22Z</time>
      </trkpt>
      <trkpt lat="43.40539" lon="6.63682">
        <ele>185.4</ele>
        <time>2025-01-19T10:30:23Z</time>
      </trkpt>
      <trkpt lat="43.4054" lon="6.63681">
        <ele>185.5</ele>
        <time>2025-01-19T10:30:24Z</time>
      </trkpt>
      <trkpt lat="43.40541" lon="6.63681">
        <ele>185.6</ele>
        <time>2025-01-19T10:30:25Z</time>
      </trkpt>
      <trkpt lat="43.40541" lon="6.63681">
        <ele>185.6</ele>
        <time>2025-01-19T10:30:26Z</time>
      </trkpt>
      <trkpt lat="43.40542" lon="6.63681">
        <ele>185.5</ele>
        <time>2025-01-19T10:30:27Z</time>
      </trkpt>
      <trkpt lat="43.40543" lon="6.63681">
        <ele>185.5</ele>
        <time>2025-01-19T10:30:28Z</time>
      </trkpt>
      <trkpt lat="43.40544" lon="6.63682">
        <ele>185.4</ele>
        <time>2025-01-19T10:30:29Z</time>
      </trkpt>
      <trkpt lat="43.40544" lon="6.63682">
        <ele>185.5</ele>
        <time>2025-01-19T10:30:30Z</time>
      </trkpt>
      <trkpt lat="43.40545" lon="6.63682">
        <ele>185.6</ele>
        <time>2025-01-19T10:30:31Z</time>
      </trkpt>
      <trkpt lat="43.40545" lon="6.63682">
        <ele>185.5</ele>
        <time>2025-01-19T10:30:32Z</time>
      </trkpt>
      <trkpt lat="43.40545" lon="6.63682">
        <ele>185.6</ele>
        <time>2025-01-19T10:30:33Z</time>
      </trkpt>
      <trkpt lat="43.40545" lon="6.63683">
        <ele>185.6</ele>
        <time>2025-01-19T10:30:34Z</time>
      </trkpt>
      <trkpt lat="43.40546" lon="6.63682">
        <ele>185.7</ele>
        <time>2025-01-19T10:30:35Z</time>
      </trkpt>
      <trkpt lat="43.40547" lon="6.63682">
        <ele>185.6</ele>
        <time>2025-01-19T10:30:36Z</time>
      </trkpt>
      <trkpt lat="43.40548" lon="6.63682">
        <ele>185.4</ele>
        <time>2025-01-19T10:30:37Z</time>
      </trkpt>
      <trkpt lat="43.40548" lon="6.63682">
        <ele>185.4</ele>
        <time>2025-01-19T10:30:38Z</time>
      </trkpt>
      <trkpt lat="43.40548" lon="6.63682">
        <ele>185.4</ele>
        <time>2025-01-19T10:30:39Z</time>
      </trkpt>
      <trkpt lat="43.40549" lon="6.63682">
        <ele>185.4</ele>
        <time>2025-01-19T10:30:40Z</time>
      </trkpt>
      <trkpt lat="43.40549" lon="6.63682">
        <ele>185.4</ele>
        <time>2025-01-19T10:30:41Z</time>
      </trkpt>
      <trkpt lat="43.4055" lon="6.63682">
        <ele>185.5</ele>
        <time>2025-01-19T10:30:42Z</time>
      </trkpt>
      <trkpt lat="43.4055" lon="6.63682">
        <ele>185.4</ele>
        <time>2025-01-19T10:30:43Z</time>
      </trkpt>
      <trkpt lat="43.40551" lon="6.63682">
        <ele>185.4</ele>
        <time>2025-01-19T10:30:44Z</time>
      </trkpt>
      <trkpt lat="43.40551" lon="6.63682">
        <ele>185.4</ele>
        <time>2025-01-19T10:30:45Z</time>
      </trkpt>
      <trkpt lat="43.40552" lon="6.63682">
        <ele>185.4</ele>
        <time>2025-01-19T10:30:46Z</time>
      </trkpt>
      <trkpt lat="43.40552" lon="6.63683">
        <ele>185.4</ele>
        <time>2025-01-19T10:30:47Z</time>
      </trkpt>
      <trkpt lat="43.40552" lon="6.63684">
        <ele>185.4</ele>
        <time>2025-01-19T10:30:48Z</time>
      </trkpt>
      <trkpt lat="43.40552" lon="6.63685">
        <ele>185.4</ele>
        <time>2025-01-19T10:30:49Z</time>
      </trkpt>
      <trkpt lat="43.40552" lon="6.63685">
        <ele>185.4</ele>
        <time>2025-01-19T10:30:50Z</time>
      </trkpt>
      <trkpt lat="43.40553" lon="6.63685">
        <ele>185.4</ele>
        <time>2025-01-19T10:30:51Z</time>
      </trkpt>
      <trkpt lat="43.40553" lon="6.63686">
        <ele>185.3</ele>
        <time>2025-01-19T10:30:52Z</time>
      </trkpt>
      <trkpt lat="43.40553" lon="6.63687">
        <ele>185.4</ele>
        <time>2025-01-19T10:30:53Z</time>
      </trkpt>
      <trkpt lat="43.40554" lon="6.63688">
        <ele>185.3</ele>
        <time>2025-01-19T10:30:54Z</time>
      </trkpt>
      <trkpt lat="43.40554" lon="6.63688">
        <ele>185.3</ele>
        <time>2025-01-19T10:30:55Z</time>
      </trkpt>
      <trkpt lat="43.40554" lon="6.63689">
        <ele>185.2</ele>
        <time>2025-01-19T10:30:56Z</time>
      </trkpt>
      <trkpt lat="43.40554" lon="6.63689">
        <ele>185.1</ele>
        <time>2025-01-19T10:30:57Z</time>
      </trkpt>
      <trkpt lat="43.40554" lon="6.63688">
        <ele>185.1</ele>
        <time>2025-01-19T10:30:58Z</time>
      </trkpt>
      <trkpt lat="43.40554" lon="6.63687">
        <ele>185.1</ele>
        <time>2025-01-19T10:30:59Z</time>
      </trkpt>
      <trkpt lat="43.40554" lon="6.63687">
        <ele>185</ele>
        <time>2025-01-19T10:31:00Z</time>
      </trkpt>
      <trkpt lat="43.40554" lon="6.63686">
        <ele>185</ele>
        <time>2025-01-19T10:31:01Z</time>
      </trkpt>
      <trkpt lat="43.40554" lon="6.63686">
        <ele>184.9</ele>
        <time>2025-01-19T10:31:02Z</time>
      </trkpt>
      <trkpt lat="43.40554" lon="6.63686">
        <ele>184.8</ele>
        <time>2025-01-19T10:31:03Z</time>
      </trkpt>
      <trkpt lat="43.40554" lon="6.63686">
        <ele>184.8</ele>
        <time>2025-01-19T10:31:04Z</time>
      </trkpt>
      <trkpt lat="43.40555" lon="6.63686">
        <ele>184.9</ele>
        <time>2025-01-19T10:31:05Z</time>
      </trkpt>
      <trkpt lat="43.40554" lon="6.63686">
        <ele>185.1</ele>
        <time>2025-01-19T10:31:06Z</time>
      </trkpt>
      <trkpt lat="43.40554" lon="6.63685">
        <ele>185.2</ele>
        <time>2025-01-19T10:31:07Z</time>
      </trkpt>
      <trkpt lat="43.40555" lon="6.63685">
        <ele>185.3</ele>
        <time>2025-01-19T10:31:08Z</time>
      </trkpt>
      <trkpt lat="43.40555" lon="6.63685">
        <ele>185.3</ele>
        <time>2025-01-19T10:31:09Z</time>
      </trkpt>
      <trkpt lat="43.40555" lon="6.63684">
        <ele>185.4</ele>
        <time>2025-01-19T10:31:10Z</time>
      </trkpt>
      <trkpt lat="43.40555" lon="6.63684">
        <ele>185.4</ele>
        <time>2025-01-19T10:31:11Z</time>
      </trkpt>
      <trkpt lat="43.40555" lon="6.63683">
        <ele>185.5</ele>
        <time>2025-01-19T10:31:12Z</time>
      </trkpt>
      <trkpt lat="43.40555" lon="6.63683">
        <ele>185.5</ele>
        <time>2025-01-19T10:31:13Z</time>
      </trkpt>
      <trkpt lat="43.40555" lon="6.63682">
        <ele>185.5</ele>
        <time>2025-01-19T10:31:14Z</time>
      </trkpt>
      <trkpt lat="43.40555" lon="6.63681">
        <ele>185.5</ele>
        <time>2025-01-19T10:31:15Z</time>
      </trkpt>
      <trkpt lat="43.40555" lon="6.63681">
        <ele>185.6</ele>
        <time>2025-01-19T10:31:16Z</time>
      </trkpt>
      <trkpt lat="43.40555" lon="6.6368">
        <ele>185.6</ele>
        <time>2025-01-19T10:31:17Z</time>
      </trkpt>
      <trkpt lat="43.40555" lon="6.63679">
        <ele>185.6</ele>
        <time>2025-01-19T10:31:18Z</time>
      </trkpt>
      <trkpt lat="43.40554" lon="6.63678">
        <ele>185.6</ele>
        <time>2025-01-19T10:31:19Z</time>
      </trkpt>
      <trkpt lat="43.40554" lon="6.63677">
        <ele>185.6</ele>
        <time>2025-01-19T10:31:20Z</time>
      </trkpt>
      <trkpt lat="43.40554" lon="6.63676">
        <ele>185.7</ele>
        <time>2025-01-19T10:31:21Z</time>
      </trkpt>
      <trkpt lat="43.40555" lon="6.63676">
        <ele>185.7</ele>
        <time>2025-01-19T10:31:22Z</time>
      </trkpt>
      <trkpt lat="43.40554" lon="6.63675">
        <ele>185.8</ele>
        <time>2025-01-19T10:31:23Z</time>
      </trkpt>
      <trkpt lat="43.40554" lon="6.63674">
        <ele>185.8</ele>
        <time>2025-01-19T10:31:24Z</time>
      </trkpt>
      <trkpt lat="43.40555" lon="6.63674">
        <ele>185.8</ele>
        <time>2025-01-19T10:31:25Z</time>
      </trkpt>
      <trkpt lat="43.40554" lon="6.63673">
        <ele>185.9</ele>
        <time>2025-01-19T10:31:26Z</time>
      </trkpt>
      <trkpt lat="43.40554" lon="6.63673">
        <ele>185.9</ele>
        <time>2025-01-19T10:31:27Z</time>
      </trkpt>
      <trkpt lat="43.40554" lon="6.63673">
        <ele>186</ele>
        <time>2025-01-19T10:31:28Z</time>
      </trkpt>
      <trkpt lat="43.40553" lon="6.63674">
        <ele>186</ele>
        <time>2025-01-19T10:31:29Z</time>
      </trkpt>
      <trkpt lat="43.40553" lon="6.63674">
        <ele>185.9</ele>
        <time>2025-01-19T10:31:30Z</time>
      </trkpt>
      <trkpt lat="43.40552" lon="6.63674">
        <ele>185.9</ele>
        <time>2025-01-19T10:31:31Z</time>
      </trkpt>
      <trkpt lat="43.40552" lon="6.63674">
        <ele>185.8</ele>
        <time>2025-01-19T10:31:32Z</time>
      </trkpt>
      <trkpt lat="43.40552" lon="6.63674">
        <ele>185.8</ele>
        <time>2025-01-19T10:31:33Z</time>
      </trkpt>
      <trkpt lat="43.40553" lon="6.63674">
        <ele>185.8</ele>
        <time>2025-01-19T10:31:34Z</time>
      </trkpt>
      <trkpt lat="43.40553" lon="6.63674">
        <ele>185.8</ele>
        <time>2025-01-19T10:31:35Z</time>
      </trkpt>
      <trkpt lat="43.40553" lon="6.63674">
        <ele>185.8</ele>
        <time>2025-01-19T10:31:36Z</time>
      </trkpt>
      <trkpt lat="43.40553" lon="6.63674">
        <ele>185.9</ele>
        <time>2025-01-19T10:31:37Z</time>
      </trkpt>
      <trkpt lat="43.40552" lon="6.63674">
        <ele>185.9</ele>
        <time>2025-01-19T10:31:38Z</time>
      </trkpt>
      <trkpt lat="43.40552" lon="6.63674">
        <ele>185.9</ele>
        <time>2025-01-19T10:31:39Z</time>
      </trkpt>
      <trkpt lat="43.40552" lon="6.63674">
        <ele>186</ele>
        <time>2025-01-19T10:31:40Z</time>
      </trkpt>
      <trkpt lat="43.40552" lon="6.63674">
        <ele>186</ele>
        <time>2025-01-19T10:31:41Z</time>
      </trkpt>
      <trkpt lat="43.40552" lon="6.63674">
        <ele>185.8</ele>
        <time>2025-01-19T10:31:42Z</time>
      </trkpt>
      <trkpt lat="43.40551" lon="6.63674">
        <ele>185.8</ele>
        <time>2025-01-19T10:31:43Z</time>
      </trkpt>
      <trkpt lat="43.40551" lon="6.63674">
        <ele>185.9</ele>
        <time>2025-01-19T10:31:44Z</time>
      </trkpt>
      <trkpt lat="43.40551" lon="6.63674">
        <ele>186</ele>
        <time>2025-01-19T10:31:45Z</time>
      </trkpt>
      <trkpt lat="43.40551" lon="6.63674">
        <ele>186</ele>
        <time>2025-01-19T10:31:46Z</time>
      </trkpt>
      <trkpt lat="43.40551" lon="6.63675">
        <ele>186</ele>
        <time>2025-01-19T10:31:47Z</time>
      </trkpt>
      <trkpt lat="43.4055" lon="6.63675">
        <ele>186</ele>
        <time>2025-01-19T10:31:48Z</time>
      </trkpt>
      <trkpt lat="43.4055" lon="6.63675">
        <ele>185.9</ele>
        <time>2025-01-19T10:31:49Z</time>
      </trkpt>
      <trkpt lat="43.4055" lon="6.63675">
        <ele>185.8</ele>
        <time>2025-01-19T10:31:50Z</time>
      </trkpt>
      <trkpt lat="43.4055" lon="6.63675">
        <ele>185.9</ele>
        <time>2025-01-19T10:31:51Z</time>
      </trkpt>
      <trkpt lat="43.40549" lon="6.63676">
        <ele>185.9</ele>
        <time>2025-01-19T10:31:52Z</time>
      </trkpt>
      <trkpt lat="43.40549" lon="6.63676">
        <ele>185.9</ele>
        <time>2025-01-19T10:31:53Z</time>
      </trkpt>
      <trkpt lat="43.4055" lon="6.63676">
        <ele>185.9</ele>
        <time>2025-01-19T10:31:54Z</time>
      </trkpt>
      <trkpt lat="43.4055" lon="6.63676">
        <ele>185.8</ele>
        <time>2025-01-19T10:31:55Z</time>
      </trkpt>
      <trkpt lat="43.4055" lon="6.63676">
        <ele>185.8</ele>
        <time>2025-01-19T10:31:56Z</time>
      </trkpt>
      <trkpt lat="43.4055" lon="6.63676">
        <ele>185.8</ele>
        <time>2025-01-19T10:31:57Z</time>
      </trkpt>
      <trkpt lat="43.40549" lon="6.63676">
        <ele>185.7</ele>
        <time>2025-01-19T10:31:58Z</time>
      </trkpt>
      <trkpt lat="43.40549" lon="6.63676">
        <ele>185.7</ele>
        <time>2025-01-19T10:31:59Z</time>
      </trkpt>
      <trkpt lat="43.40549" lon="6.63676">
        <ele>185.7</ele>
        <time>2025-01-19T10:32:00Z</time>
      </trkpt>
      <trkpt lat="43.40548" lon="6.63677">
        <ele>185.7</ele>
        <time>2025-01-19T10:32:01Z</time>
      </trkpt>
      <trkpt lat="43.40548" lon="6.63677">
        <ele>185.7</ele>
        <time>2025-01-19T10:32:02Z</time>
      </trkpt>
      <trkpt lat="43.40548" lon="6.63677">
        <ele>185.7</ele>
        <time>2025-01-19T10:32:03Z</time>
      </trkpt>
      <trkpt lat="43.40549" lon="6.63678">
        <ele>185.7</ele>
        <time>2025-01-19T10:32:04Z</time>
      </trkpt>
      <trkpt lat="43.40549" lon="6.63678">
        <ele>185.8</ele>
        <time>2025-01-19T10:32:05Z</time>
      </trkpt>
      <trkpt lat="43.40549" lon="6.63679">
        <ele>185.8</ele>
        <time>2025-01-19T10:32:06Z</time>
      </trkpt>
      <trkpt lat="43.4055" lon="6.63679">
        <ele>185.9</ele>
        <time>2025-01-19T10:32:07Z</time>
      </trkpt>
      <trkpt lat="43.4055" lon="6.63679">
        <ele>185.9</ele>
        <time>2025-01-19T10:32:08Z</time>
      </trkpt>
      <trkpt lat="43.4055" lon="6.63679">
        <ele>185.9</ele>
        <time>2025-01-19T10:32:09Z</time>
      </trkpt>
      <trkpt lat="43.4055" lon="6.63679">
        <ele>186</ele>
        <time>2025-01-19T10:32:10Z</time>
      </trkpt>
      <trkpt lat="43.40549" lon="6.63679">
        <ele>185.9</ele>
        <time>2025-01-19T10:32:11Z</time>
      </trkpt>
      <trkpt lat="43.40549" lon="6.63679">
        <ele>185.9</ele>
        <time>2025-01-19T10:32:12Z</time>
      </trkpt>
      <trkpt lat="43.40549" lon="6.63679">
        <ele>186</ele>
        <time>2025-01-19T10:32:13Z</time>
      </trkpt>
      <trkpt lat="43.40549" lon="6.63679">
        <ele>186</ele>
        <time>2025-01-19T10:32:14Z</time>
      </trkpt>
      <trkpt lat="43.40549" lon="6.63679">
        <ele>185.9</ele>
        <time>2025-01-19T10:32:15Z</time>
      </trkpt>
      <trkpt lat="43.40549" lon="6.63679">
        <ele>185.9</ele>
        <time>2025-01-19T10:32:16Z</time>
      </trkpt>
      <trkpt lat="43.40549" lon="6.63679">
        <ele>185.9</ele>
        <time>2025-01-19T10:32:17Z</time>
      </trkpt>
      <trkpt lat="43.40549" lon="6.63679">
        <ele>185.9</ele>
        <time>2025-01-19T10:32:18Z</time>
      </trkpt>
      <trkpt lat="43.40549" lon="6.63679">
        <ele>185.9</ele>
        <time>2025-01-19T10:32:19Z</time>
      </trkpt>
      <trkpt lat="43.40549" lon="6.63679">
        <ele>185.9</ele>
        <time>2025-01-19T10:32:20Z</time>
      </trkpt>
      <trkpt lat="43.40548" lon="6.63679">
        <ele>185.8</ele>
        <time>2025-01-19T10:32:21Z</time>
      </trkpt>
      <trkpt lat="43.40548" lon="6.63679">
        <ele>185.9</ele>
        <time>2025-01-19T10:32:22Z</time>
      </trkpt>
      <trkpt lat="43.40548" lon="6.63679">
        <ele>185.7</ele>
        <time>2025-01-19T10:32:23Z</time>
      </trkpt>
      <trkpt lat="43.40548" lon="6.63679">
        <ele>185.6</ele>
        <time>2025-01-19T10:32:24Z</time>
      </trkpt>
      <trkpt lat="43.40548" lon="6.63679">
        <ele>185.5</ele>
        <time>2025-01-19T10:32:25Z</time>
      </trkpt>
      <trkpt lat="43.40548" lon="6.63679">
        <ele>185.6</ele>
        <time>2025-01-19T10:32:26Z</time>
      </trkpt>
      <trkpt lat="43.40548" lon="6.63679">
        <ele>185.6</ele>
        <time>2025-01-19T10:32:27Z</time>
      </trkpt>
      <trkpt lat="43.40548" lon="6.63679">
        <ele>185.6</ele>
        <time>2025-01-19T10:32:28Z</time>
      </trkpt>
      <trkpt lat="43.40548" lon="6.63679">
        <ele>185.6</ele>
        <time>2025-01-19T10:32:29Z</time>
      </trkpt>
      <trkpt lat="43.40548" lon="6.63679">
        <ele>185.5</ele>
        <time>2025-01-19T10:32:30Z</time>
      </trkpt>
      <trkpt lat="43.40548" lon="6.63679">
        <ele>185.4</ele>
        <time>2025-01-19T10:32:31Z</time>
      </trkpt>
      <trkpt lat="43.40548" lon="6.63679">
        <ele>185.4</ele>
        <time>2025-01-19T10:32:32Z</time>
      </trkpt>
      <trkpt lat="43.40548" lon="6.63679">
        <ele>185.3</ele>
        <time>2025-01-19T10:32:33Z</time>
      </trkpt>
      <trkpt lat="43.40547" lon="6.63679">
        <ele>185.4</ele>
        <time>2025-01-19T10:32:34Z</time>
      </trkpt>
      <trkpt lat="43.40547" lon="6.63678">
        <ele>185.4</ele>
        <time>2025-01-19T10:32:35Z</time>
      </trkpt>
      <trkpt lat="43.40547" lon="6.63679">
        <ele>185.4</ele>
        <time>2025-01-19T10:32:36Z</time>
      </trkpt>
      <trkpt lat="43.40547" lon="6.63679">
        <ele>185.5</ele>
        <time>2025-01-19T10:32:37Z</time>
      </trkpt>
      <trkpt lat="43.40547" lon="6.63679">
        <ele>185.5</ele>
        <time>2025-01-19T10:32:38Z</time>
      </trkpt>
      <trkpt lat="43.40547" lon="6.63679">
        <ele>185.5</ele>
        <time>2025-01-19T10:32:39Z</time>
      </trkpt>
      <trkpt lat="43.40546" lon="6.6368">
        <ele>185.5</ele>
        <time>2025-01-19T10:32:40Z</time>
      </trkpt>
      <trkpt lat="43.40546" lon="6.6368">
        <ele>185.5</ele>
        <time>2025-01-19T10:32:41Z</time>
      </trkpt>
      <trkpt lat="43.40546" lon="6.6368">
        <ele>185.6</ele>
        <time>2025-01-19T10:32:42Z</time>
      </trkpt>
      <trkpt lat="43.40546" lon="6.6368">
        <ele>185.7</ele>
        <time>2025-01-19T10:32:43Z</time>
      </trkpt>
      <trkpt lat="43.40545" lon="6.6368">
        <ele>185.7</ele>
        <time>2025-01-19T10:32:44Z</time>
      </trkpt>
      <trkpt lat="43.40545" lon="6.63681">
        <ele>185.6</ele>
        <time>2025-01-19T10:32:45Z</time>
      </trkpt>
      <trkpt lat="43.40545" lon="6.63681">
        <ele>185.5</ele>
        <time>2025-01-19T10:32:46Z</time>
      </trkpt>
      <trkpt lat="43.40544" lon="6.63682">
        <ele>185.5</ele>
        <time>2025-01-19T10:32:47Z</time>
      </trkpt>
      <trkpt lat="43.40545" lon="6.63682">
        <ele>185.3</ele>
        <time>2025-01-19T10:32:48Z</time>
      </trkpt>
      <trkpt lat="43.40544" lon="6.63682">
        <ele>185.3</ele>
        <time>2025-01-19T10:32:49Z</time>
      </trkpt>
      <trkpt lat="43.40544" lon="6.63683">
        <ele>185.3</ele>
        <time>2025-01-19T10:32:50Z</time>
      </trkpt>
      <trkpt lat="43.40544" lon="6.63683">
        <ele>185.3</ele>
        <time>2025-01-19T10:32:51Z</time>
      </trkpt>
      <trkpt lat="43.40544" lon="6.63683">
        <ele>185.3</ele>
        <time>2025-01-19T10:32:52Z</time>
      </trkpt>
      <trkpt lat="43.40544" lon="6.63683">
        <ele>185.3</ele>
        <time>2025-01-19T10:32:53Z</time>
      </trkpt>
      <trkpt lat="43.40544" lon="6.63682">
        <ele>185.3</ele>
        <time>2025-01-19T10:32:54Z</time>
      </trkpt>
      <trkpt lat="43.40545" lon="6.63682">
        <ele>185.4</ele>
        <time>2025-01-19T10:32:55Z</time>
      </trkpt>
      <trkpt lat="43.40546" lon="6.63681">
        <ele>185.4</ele>
        <time>2025-01-19T10:32:56Z</time>
      </trkpt>
      <trkpt lat="43.40547" lon="6.63681">
        <ele>185.3</ele>
        <time>2025-01-19T10:32:57Z</time>
      </trkpt>
      <trkpt lat="43.40547" lon="6.63681">
        <ele>185.2</ele>
        <time>2025-01-19T10:32:58Z</time>
      </trkpt>
      <trkpt lat="43.40547" lon="6.6368">
        <ele>185.3</ele>
        <time>2025-01-19T10:32:59Z</time>
      </trkpt>
      <trkpt lat="43.40548" lon="6.6368">
        <ele>185.3</ele>
        <time>2025-01-19T10:33:00Z</time>
      </trkpt>
      <trkpt lat="43.40548" lon="6.6368">
        <ele>185.3</ele>
        <time>2025-01-19T10:33:01Z</time>
      </trkpt>
      <trkpt lat="43.40548" lon="6.6368">
        <ele>185.3</ele>
        <time>2025-01-19T10:33:02Z</time>
      </trkpt>
      <trkpt lat="43.40548" lon="6.63679">
        <ele>185.4</ele>
        <time>2025-01-19T10:33:03Z</time>
      </trkpt>
      <trkpt lat="43.40548" lon="6.63679">
        <ele>185.4</ele>
        <time>2025-01-19T10:33:04Z</time>
      </trkpt>
      <trkpt lat="43.40548" lon="6.6368">
        <ele>185.4</ele>
        <time>2025-01-19T10:33:05Z</time>
      </trkpt>
      <trkpt lat="43.40547" lon="6.6368">
        <ele>185.4</ele>
        <time>2025-01-19T10:33:06Z</time>
      </trkpt>
      <trkpt lat="43.40547" lon="6.6368">
        <ele>185.4</ele>
        <time>2025-01-19T10:33:07Z</time>
      </trkpt>
      <trkpt lat="43.40547" lon="6.6368">
        <ele>185.4</ele>
        <time>2025-01-19T10:33:08Z</time>
      </trkpt>
      <trkpt lat="43.40548" lon="6.6368">
        <ele>185.4</ele>
        <time>2025-01-19T10:33:09Z</time>
      </trkpt>
      <trkpt lat="43.40548" lon="6.6368">
        <ele>185.4</ele>
        <time>2025-01-19T10:33:10Z</time>
      </trkpt>
      <trkpt lat="43.40548" lon="6.6368">
        <ele>185.3</ele>
        <time>2025-01-19T10:33:11Z</time>
      </trkpt>
      <trkpt lat="43.40548" lon="6.6368">
        <ele>185.3</ele>
        <time>2025-01-19T10:33:12Z</time>
      </trkpt>
      <trkpt lat="43.40548" lon="6.6368">
        <ele>185.3</ele>
        <time>2025-01-19T10:33:13Z</time>
      </trkpt>
      <trkpt lat="43.40548" lon="6.6368">
        <ele>185.4</ele>
        <time>2025-01-19T10:33:14Z</time>
      </trkpt>
      <trkpt lat="43.40548" lon="6.63681">
        <ele>185.3</ele>
        <time>2025-01-19T10:33:15Z</time>
      </trkpt>
      <trkpt lat="43.40548" lon="6.63681">
        <ele>185.3</ele>
        <time>2025-01-19T10:33:16Z</time>
      </trkpt>
      <trkpt lat="43.40548" lon="6.63681">
        <ele>185.3</ele>
        <time>2025-01-19T10:33:17Z</time>
      </trkpt>
      <trkpt lat="43.40548" lon="6.63681">
        <ele>185.2</ele>
        <time>2025-01-19T10:33:18Z</time>
      </trkpt>
      <trkpt lat="43.40548" lon="6.63681">
        <ele>185.2</ele>
        <time>2025-01-19T10:33:19Z</time>
      </trkpt>
      <trkpt lat="43.40547" lon="6.63681">
        <ele>185.2</ele>
        <time>2025-01-19T10:33:20Z</time>
      </trkpt>
      <trkpt lat="43.40547" lon="6.63681">
        <ele>185.2</ele>
        <time>2025-01-19T10:33:21Z</time>
      </trkpt>
      <trkpt lat="43.40547" lon="6.63681">
        <ele>185.1</ele>
        <time>2025-01-19T10:33:22Z</time>
      </trkpt>
      <trkpt lat="43.40547" lon="6.63681">
        <ele>185.1</ele>
        <time>2025-01-19T10:33:23Z</time>
      </trkpt>
      <trkpt lat="43.40547" lon="6.63681">
        <ele>185.2</ele>
        <time>2025-01-19T10:33:24Z</time>
      </trkpt>
      <trkpt lat="43.40547" lon="6.63681">
        <ele>185.2</ele>
        <time>2025-01-19T10:33:25Z</time>
      </trkpt>
      <trkpt lat="43.40547" lon="6.63681">
        <ele>185.2</ele>
        <time>2025-01-19T10:33:26Z</time>
      </trkpt>
      <trkpt lat="43.40548" lon="6.63681">
        <ele>185.2</ele>
        <time>2025-01-19T10:33:27Z</time>
      </trkpt>
      <trkpt lat="43.40548" lon="6.63681">
        <ele>185.2</ele>
        <time>2025-01-19T10:33:28Z</time>
      </trkpt>
      <trkpt lat="43.40548" lon="6.63681">
        <ele>185.1</ele>
        <time>2025-01-19T10:33:29Z</time>
      </trkpt>
      <trkpt lat="43.40548" lon="6.63681">
        <ele>185.1</ele>
        <time>2025-01-19T10:33:30Z</time>
      </trkpt>
      <trkpt lat="43.40548" lon="6.63681">
        <ele>185</ele>
        <time>2025-01-19T10:33:31Z</time>
      </trkpt>
      <trkpt lat="43.40548" lon="6.63681">
        <ele>184.9</ele>
        <time>2025-01-19T10:33:32Z</time>
      </trkpt>
      <trkpt lat="43.40548" lon="6.63681">
        <ele>185</ele>
        <time>2025-01-19T10:33:33Z</time>
      </trkpt>
      <trkpt lat="43.40549" lon="6.6368">
        <ele>184.9</ele>
        <time>2025-01-19T10:33:34Z</time>
      </trkpt>
      <trkpt lat="43.40549" lon="6.6368">
        <ele>184.9</ele>
        <time>2025-01-19T10:33:35Z</time>
      </trkpt>
      <trkpt lat="43.40549" lon="6.63681">
        <ele>184.9</ele>
        <time>2025-01-19T10:33:36Z</time>
      </trkpt>
      <trkpt lat="43.40549" lon="6.6368">
        <ele>184.9</ele>
        <time>2025-01-19T10:33:37Z</time>
      </trkpt>
      <trkpt lat="43.4055" lon="6.63681">
        <ele>184.9</ele>
        <time>2025-01-19T10:33:38Z</time>
      </trkpt>
      <trkpt lat="43.4055" lon="6.63681">
        <ele>184.9</ele>
        <time>2025-01-19T10:33:39Z</time>
      </trkpt>
      <trkpt lat="43.4055" lon="6.63681">
        <ele>184.9</ele>
        <time>2025-01-19T10:33:40Z</time>
      </trkpt>
      <trkpt lat="43.4055" lon="6.6368">
        <ele>184.9</ele>
        <time>2025-01-19T10:33:41Z</time>
      </trkpt>
      <trkpt lat="43.4055" lon="6.63681">
        <ele>184.9</ele>
        <time>2025-01-19T10:33:42Z</time>
      </trkpt>
      <trkpt lat="43.4055" lon="6.63681">
        <ele>185</ele>
        <time>2025-01-19T10:33:43Z</time>
      </trkpt>
      <trkpt lat="43.4055" lon="6.63681">
        <ele>185</ele>
        <time>2025-01-19T10:33:44Z</time>
      </trkpt>
      <trkpt lat="43.40551" lon="6.63681">
        <ele>185.1</ele>
        <time>2025-01-19T10:33:45Z</time>
      </trkpt>
      <trkpt lat="43.40551" lon="6.63681">
        <ele>185.1</ele>
        <time>2025-01-19T10:33:46Z</time>
      </trkpt>
      <trkpt lat="43.40551" lon="6.6368">
        <ele>185.1</ele>
        <time>2025-01-19T10:33:47Z</time>
      </trkpt>
      <trkpt lat="43.40551" lon="6.6368">
        <ele>185</ele>
        <time>2025-01-19T10:33:48Z</time>
      </trkpt>
      <trkpt lat="43.40551" lon="6.6368">
        <ele>184.9</ele>
        <time>2025-01-19T10:33:49Z</time>
      </trkpt>
      <trkpt lat="43.40551" lon="6.6368">
        <ele>184.8</ele>
        <time>2025-01-19T10:33:50Z</time>
      </trkpt>
      <trkpt lat="43.40551" lon="6.6368">
        <ele>185</ele>
        <time>2025-01-19T10:33:51Z</time>
      </trkpt>
      <trkpt lat="43.40551" lon="6.6368">
        <ele>185</ele>
        <time>2025-01-19T10:33:52Z</time>
      </trkpt>
      <trkpt lat="43.40551" lon="6.6368">
        <ele>184.9</ele>
        <time>2025-01-19T10:33:53Z</time>
      </trkpt>
      <trkpt lat="43.40552" lon="6.6368">
        <ele>184.9</ele>
        <time>2025-01-19T10:33:54Z</time>
      </trkpt>
      <trkpt lat="43.40551" lon="6.6368">
        <ele>184.9</ele>
        <time>2025-01-19T10:33:55Z</time>
      </trkpt>
      <trkpt lat="43.40551" lon="6.6368">
        <ele>185</ele>
        <time>2025-01-19T10:33:56Z</time>
      </trkpt>
      <trkpt lat="43.40551" lon="6.6368">
        <ele>185</ele>
        <time>2025-01-19T10:33:57Z</time>
      </trkpt>
      <trkpt lat="43.40551" lon="6.6368">
        <ele>185.1</ele>
        <time>2025-01-19T10:33:58Z</time>
      </trkpt>
      <trkpt lat="43.40551" lon="6.6368">
        <ele>185.1</ele>
        <time>2025-01-19T10:33:59Z</time>
      </trkpt>
      <trkpt lat="43.40551" lon="6.6368">
        <ele>185.1</ele>
        <time>2025-01-19T10:34:00Z</time>
      </trkpt>
      <trkpt lat="43.40552" lon="6.63679">
        <ele>185.1</ele>
        <time>2025-01-19T10:34:01Z</time>
      </trkpt>
      <trkpt lat="43.40552" lon="6.63679">
        <ele>185.1</ele>
        <time>2025-01-19T10:34:02Z</time>
      </trkpt>
      <trkpt lat="43.40551" lon="6.6368">
        <ele>185.1</ele>
        <time>2025-01-19T10:34:03Z</time>
      </trkpt>
      <trkpt lat="43.40552" lon="6.6368">
        <ele>185.1</ele>
        <time>2025-01-19T10:34:04Z</time>
      </trkpt>
      <trkpt lat="43.40552" lon="6.6368">
        <ele>185.2</ele>
        <time>2025-01-19T10:34:05Z</time>
      </trkpt>
      <trkpt lat="43.40551" lon="6.6368">
        <ele>185.3</ele>
        <time>2025-01-19T10:34:06Z</time>
      </trkpt>
      <trkpt lat="43.40551" lon="6.6368">
        <ele>185.3</ele>
        <time>2025-01-19T10:34:07Z</time>
      </trkpt>
      <trkpt lat="43.40551" lon="6.6368">
        <ele>185.3</ele>
        <time>2025-01-19T10:34:08Z</time>
      </trkpt>
      <trkpt lat="43.40551" lon="6.6368">
        <ele>185.4</ele>
        <time>2025-01-19T10:34:09Z</time>
      </trkpt>
      <trkpt lat="43.40551" lon="6.63681">
        <ele>185.3</ele>
        <time>2025-01-19T10:34:10Z</time>
      </trkpt>
      <trkpt lat="43.40551" lon="6.63682">
        <ele>185.3</ele>
        <time>2025-01-19T10:34:11Z</time>
      </trkpt>
      <trkpt lat="43.4055" lon="6.63683">
        <ele>185.3</ele>
        <time>2025-01-19T10:34:12Z</time>
      </trkpt>
      <trkpt lat="43.40551" lon="6.63684">
        <ele>185.2</ele>
        <time>2025-01-19T10:34:13Z</time>
      </trkpt>
      <trkpt lat="43.40551" lon="6.63685">
        <ele>185.2</ele>
        <time>2025-01-19T10:34:14Z</time>
      </trkpt>
      <trkpt lat="43.40551" lon="6.63685">
        <ele>185.1</ele>
        <time>2025-01-19T10:34:15Z</time>
      </trkpt>
      <trkpt lat="43.40551" lon="6.63686">
        <ele>184.9</ele>
        <time>2025-01-19T10:34:16Z</time>
      </trkpt>
      <trkpt lat="43.40552" lon="6.63686">
        <ele>184.9</ele>
        <time>2025-01-19T10:34:17Z</time>
      </trkpt>
      <trkpt lat="43.40552" lon="6.63687">
        <ele>184.8</ele>
        <time>2025-01-19T10:34:18Z</time>
      </trkpt>
      <trkpt lat="43.40552" lon="6.63688">
        <ele>184.7</ele>
        <time>2025-01-19T10:34:19Z</time>
      </trkpt>
      <trkpt lat="43.40552" lon="6.63689">
        <ele>184.7</ele>
        <time>2025-01-19T10:34:20Z</time>
      </trkpt>
      <trkpt lat="43.40553" lon="6.6369">
        <ele>184.6</ele>
        <time>2025-01-19T10:34:21Z</time>
      </trkpt>
      <trkpt lat="43.40553" lon="6.63692">
        <ele>184.5</ele>
        <time>2025-01-19T10:34:22Z</time>
      </trkpt>
      <trkpt lat="43.40553" lon="6.63692">
        <ele>184.5</ele>
        <time>2025-01-19T10:34:23Z</time>
      </trkpt>
      <trkpt lat="43.40554" lon="6.63693">
        <ele>184.4</ele>
        <time>2025-01-19T10:34:24Z</time>
      </trkpt>
      <trkpt lat="43.40554" lon="6.63695">
        <ele>184.4</ele>
        <time>2025-01-19T10:34:25Z</time>
      </trkpt>
      <trkpt lat="43.40554" lon="6.63696">
        <ele>184.3</ele>
        <time>2025-01-19T10:34:26Z</time>
      </trkpt>
      <trkpt lat="43.40555" lon="6.63697">
        <ele>184.3</ele>
        <time>2025-01-19T10:34:27Z</time>
      </trkpt>
      <trkpt lat="43.40555" lon="6.63698">
        <ele>184.3</ele>
        <time>2025-01-19T10:34:28Z</time>
      </trkpt>
      <trkpt lat="43.40555" lon="6.63699">
        <ele>184.4</ele>
        <time>2025-01-19T10:34:29Z</time>
      </trkpt>
      <trkpt lat="43.40555" lon="6.637">
        <ele>184.3</ele>
        <time>2025-01-19T10:34:30Z</time>
      </trkpt>
      <trkpt lat="43.40555" lon="6.63702">
        <ele>184.3</ele>
        <time>2025-01-19T10:34:31Z</time>
      </trkpt>
      <trkpt lat="43.40555" lon="6.63703">
        <ele>184.3</ele>
        <time>2025-01-19T10:34:32Z</time>
      </trkpt>
      <trkpt lat="43.40554" lon="6.63704">
        <ele>184.3</ele>
        <time>2025-01-19T10:34:33Z</time>
      </trkpt>
      <trkpt lat="43.40554" lon="6.63705">
        <ele>184.2</ele>
        <time>2025-01-19T10:34:34Z</time>
      </trkpt>
      <trkpt lat="43.40555" lon="6.63707">
        <ele>184.1</ele>
        <time>2025-01-19T10:34:35Z</time>
      </trkpt>
      <trkpt lat="43.40555" lon="6.63708">
        <ele>184.1</ele>
        <time>2025-01-19T10:34:36Z</time>
      </trkpt>
      <trkpt lat="43.40555" lon="6.63709">
        <ele>184.1</ele>
        <time>2025-01-19T10:34:37Z</time>
      </trkpt>
      <trkpt lat="43.40554" lon="6.63711">
        <ele>184.1</ele>
        <time>2025-01-19T10:34:38Z</time>
      </trkpt>
      <trkpt lat="43.40555" lon="6.63712">
        <ele>184</ele>
        <time>2025-01-19T10:34:39Z</time>
      </trkpt>
      <trkpt lat="43.40554" lon="6.63713">
        <ele>184</ele>
        <time>2025-01-19T10:34:40Z</time>
      </trkpt>
      <trkpt lat="43.40555" lon="6.63714">
        <ele>184</ele>
        <time>2025-01-19T10:34:41Z</time>
      </trkpt>
      <trkpt lat="43.40554" lon="6.63716">
        <ele>184</ele>
        <time>2025-01-19T10:34:42Z</time>
      </trkpt>
      <trkpt lat="43.40554" lon="6.63717">
        <ele>184</ele>
        <time>2025-01-19T10:34:43Z</time>
      </trkpt>
      <trkpt lat="43.40554" lon="6.63718">
        <ele>184</ele>
        <time>2025-01-19T10:34:44Z</time>
      </trkpt>
      <trkpt lat="43.40554" lon="6.6372">
        <ele>184</ele>
        <time>2025-01-19T10:34:45Z</time>
      </trkpt>
      <trkpt lat="43.40554" lon="6.63721">
        <ele>183.9</ele>
        <time>2025-01-19T10:34:46Z</time>
      </trkpt>
      <trkpt lat="43.40553" lon="6.63722">
        <ele>183.9</ele>
        <time>2025-01-19T10:34:47Z</time>
      </trkpt>
      <trkpt lat="43.40553" lon="6.63723">
        <ele>183.8</ele>
        <time>2025-01-19T10:34:48Z</time>
      </trkpt>
      <trkpt lat="43.40553" lon="6.63724">
        <ele>183.6</ele>
        <time>2025-01-19T10:34:49Z</time>
      </trkpt>
      <trkpt lat="43.40553" lon="6.63725">
        <ele>183.5</ele>
        <time>2025-01-19T10:34:50Z</time>
      </trkpt>
      <trkpt lat="43.40553" lon="6.63727">
        <ele>183.4</ele>
        <time>2025-01-19T10:34:51Z</time>
      </trkpt>
      <trkpt lat="43.40553" lon="6.63728">
        <ele>183.3</ele>
        <time>2025-01-19T10:34:52Z</time>
      </trkpt>
      <trkpt lat="43.40553" lon="6.6373">
        <ele>183.2</ele>
        <time>2025-01-19T10:34:53Z</time>
      </trkpt>
      <trkpt lat="43.40552" lon="6.63731">
        <ele>183.1</ele>
        <time>2025-01-19T10:34:54Z</time>
      </trkpt>
      <trkpt lat="43.40551" lon="6.63733">
        <ele>183</ele>
        <time>2025-01-19T10:34:55Z</time>
      </trkpt>
      <trkpt lat="43.40551" lon="6.63735">
        <ele>182.9</ele>
        <time>2025-01-19T10:34:56Z</time>
      </trkpt>
      <trkpt lat="43.40551" lon="6.63736">
        <ele>182.9</ele>
        <time>2025-01-19T10:34:57Z</time>
      </trkpt>
      <trkpt lat="43.40551" lon="6.63738">
        <ele>182.8</ele>
        <time>2025-01-19T10:34:58Z</time>
      </trkpt>
      <trkpt lat="43.40551" lon="6.6374">
        <ele>182.7</ele>
        <time>2025-01-19T10:34:59Z</time>
      </trkpt>
      <trkpt lat="43.40551" lon="6.63742">
        <ele>182.7</ele>
        <time>2025-01-19T10:35:00Z</time>
      </trkpt>
      <trkpt lat="43.40551" lon="6.63743">
        <ele>182.6</ele>
        <time>2025-01-19T10:35:01Z</time>
      </trkpt>
      <trkpt lat="43.40551" lon="6.63745">
        <ele>182.5</ele>
        <time>2025-01-19T10:35:02Z</time>
      </trkpt>
      <trkpt lat="43.4055" lon="6.63746">
        <ele>182.4</ele>
        <time>2025-01-19T10:35:03Z</time>
      </trkpt>
      <trkpt lat="43.4055" lon="6.63747">
        <ele>182.3</ele>
        <time>2025-01-19T10:35:04Z</time>
      </trkpt>
      <trkpt lat="43.4055" lon="6.63749">
        <ele>182.2</ele>
        <time>2025-01-19T10:35:05Z</time>
      </trkpt>
      <trkpt lat="43.4055" lon="6.63751">
        <ele>182</ele>
        <time>2025-01-19T10:35:06Z</time>
      </trkpt>
      <trkpt lat="43.4055" lon="6.63752">
        <ele>181.9</ele>
        <time>2025-01-19T10:35:07Z</time>
      </trkpt>
      <trkpt lat="43.4055" lon="6.63754">
        <ele>181.8</ele>
        <time>2025-01-19T10:35:08Z</time>
      </trkpt>
      <trkpt lat="43.4055" lon="6.63755">
        <ele>181.7</ele>
        <time>2025-01-19T10:35:09Z</time>
      </trkpt>
      <trkpt lat="43.4055" lon="6.63756">
        <ele>181.6</ele>
        <time>2025-01-19T10:35:10Z</time>
      </trkpt>
      <trkpt lat="43.4055" lon="6.63758">
        <ele>181.5</ele>
        <time>2025-01-19T10:35:11Z</time>
      </trkpt>
      <trkpt lat="43.40549" lon="6.63759">
        <ele>181.5</ele>
        <time>2025-01-19T10:35:12Z</time>
      </trkpt>
      <trkpt lat="43.40549" lon="6.63761">
        <ele>181.3</ele>
        <time>2025-01-19T10:35:13Z</time>
      </trkpt>
      <trkpt lat="43.40549" lon="6.63762">
        <ele>181.2</ele>
        <time>2025-01-19T10:35:14Z</time>
      </trkpt>
      <trkpt lat="43.40549" lon="6.63764">
        <ele>181</ele>
        <time>2025-01-19T10:35:15Z</time>
      </trkpt>
      <trkpt lat="43.40549" lon="6.63765">
        <ele>180.9</ele>
        <time>2025-01-19T10:35:16Z</time>
      </trkpt>
      <trkpt lat="43.40549" lon="6.63767">
        <ele>180.9</ele>
        <time>2025-01-19T10:35:17Z</time>
      </trkpt>
      <trkpt lat="43.40549" lon="6.63768">
        <ele>180.9</ele>
        <time>2025-01-19T10:35:18Z</time>
      </trkpt>
      <trkpt lat="43.40548" lon="6.63769">
        <ele>180.8</ele>
        <time>2025-01-19T10:35:19Z</time>
      </trkpt>
      <trkpt lat="43.40549" lon="6.63771">
        <ele>180.7</ele>
        <time>2025-01-19T10:35:20Z</time>
      </trkpt>
      <trkpt lat="43.40548" lon="6.63772">
        <ele>180.6</ele>
        <time>2025-01-19T10:35:21Z</time>
      </trkpt>
      <trkpt lat="43.40548" lon="6.63774">
        <ele>180.5</ele>
        <time>2025-01-19T10:35:22Z</time>
      </trkpt>
      <trkpt lat="43.40548" lon="6.63775">
        <ele>180.6</ele>
        <time>2025-01-19T10:35:23Z</time>
      </trkpt>
      <trkpt lat="43.40548" lon="6.63776">
        <ele>180.6</ele>
        <time>2025-01-19T10:35:24Z</time>
      </trkpt>
      <trkpt lat="43.40548" lon="6.63777">
        <ele>180.5</ele>
        <time>2025-01-19T10:35:25Z</time>
      </trkpt>
      <trkpt lat="43.40548" lon="6.63779">
        <ele>180.5</ele>
        <time>2025-01-19T10:35:26Z</time>
      </trkpt>
      <trkpt lat="43.40548" lon="6.6378">
        <ele>180.4</ele>
        <time>2025-01-19T10:35:27Z</time>
      </trkpt>
      <trkpt lat="43.40548" lon="6.63782">
        <ele>180.3</ele>
        <time>2025-01-19T10:35:28Z</time>
      </trkpt>
      <trkpt lat="43.40548" lon="6.63784">
        <ele>180.2</ele>
        <time>2025-01-19T10:35:29Z</time>
      </trkpt>
      <trkpt lat="43.40549" lon="6.63785">
        <ele>180.1</ele>
        <time>2025-01-19T10:35:30Z</time>
      </trkpt>
      <trkpt lat="43.40549" lon="6.63786">
        <ele>180</ele>
        <time>2025-01-19T10:35:31Z</time>
      </trkpt>
      <trkpt lat="43.40549" lon="6.63788">
        <ele>180</ele>
        <time>2025-01-19T10:35:32Z</time>
      </trkpt>
      <trkpt lat="43.40548" lon="6.6379">
        <ele>179.9</ele>
        <time>2025-01-19T10:35:33Z</time>
      </trkpt>
      <trkpt lat="43.40548" lon="6.63791">
        <ele>179.7</ele>
        <time>2025-01-19T10:35:34Z</time>
      </trkpt>
      <trkpt lat="43.40548" lon="6.63793">
        <ele>179.6</ele>
        <time>2025-01-19T10:35:35Z</time>
      </trkpt>
      <trkpt lat="43.40549" lon="6.63794">
        <ele>179.5</ele>
        <time>2025-01-19T10:35:36Z</time>
      </trkpt>
      <trkpt lat="43.40549" lon="6.63796">
        <ele>179.4</ele>
        <time>2025-01-19T10:35:37Z</time>
      </trkpt>
      <trkpt lat="43.40549" lon="6.63798">
        <ele>179.4</ele>
        <time>2025-01-19T10:35:38Z</time>
      </trkpt>
      <trkpt lat="43.40548" lon="6.63799">
        <ele>179.3</ele>
        <time>2025-01-19T10:35:39Z</time>
      </trkpt>
      <trkpt lat="43.40548" lon="6.63801">
        <ele>179.2</ele>
        <time>2025-01-19T10:35:40Z</time>
      </trkpt>
      <trkpt lat="43.40549" lon="6.63802">
        <ele>179.2</ele>
        <time>2025-01-19T10:35:41Z</time>
      </trkpt>
      <trkpt lat="43.40549" lon="6.63804">
        <ele>179.1</ele>
        <time>2025-01-19T10:35:42Z</time>
      </trkpt>
      <trkpt lat="43.40549" lon="6.63806">
        <ele>179</ele>
        <time>2025-01-19T10:35:43Z</time>
      </trkpt>
      <trkpt lat="43.40549" lon="6.63808">
        <ele>178.9</ele>
        <time>2025-01-19T10:35:44Z</time>
      </trkpt>
      <trkpt lat="43.40549" lon="6.63809">
        <ele>178.7</ele>
        <time>2025-01-19T10:35:45Z</time>
      </trkpt>
      <trkpt lat="43.4055" lon="6.63811">
        <ele>178.7</ele>
        <time>2025-01-19T10:35:46Z</time>
      </trkpt>
      <trkpt lat="43.4055" lon="6.63812">
        <ele>178.5</ele>
        <time>2025-01-19T10:35:47Z</time>
      </trkpt>
      <trkpt lat="43.4055" lon="6.63814">
        <ele>178.5</ele>
        <time>2025-01-19T10:35:48Z</time>
      </trkpt>
      <trkpt lat="43.4055" lon="6.63814">
        <ele>178.5</ele>
        <time>2025-01-19T10:35:49Z</time>
      </trkpt>
      <trkpt lat="43.4055" lon="6.63815">
        <ele>178.5</ele>
        <time>2025-01-19T10:35:50Z</time>
      </trkpt>
      <trkpt lat="43.40551" lon="6.63817">
        <ele>178.4</ele>
        <time>2025-01-19T10:35:51Z</time>
      </trkpt>
      <trkpt lat="43.40551" lon="6.63818">
        <ele>178.3</ele>
        <time>2025-01-19T10:35:52Z</time>
      </trkpt>
      <trkpt lat="43.40551" lon="6.63819">
        <ele>178.2</ele>
        <time>2025-01-19T10:35:53Z</time>
      </trkpt>
      <trkpt lat="43.40552" lon="6.63821">
        <ele>178.2</ele>
        <time>2025-01-19T10:35:54Z</time>
      </trkpt>
      <trkpt lat="43.40552" lon="6.63823">
        <ele>178.2</ele>
        <time>2025-01-19T10:35:55Z</time>
      </trkpt>
      <trkpt lat="43.40552" lon="6.63825">
        <ele>178.2</ele>
        <time>2025-01-19T10:35:56Z</time>
      </trkpt>
      <trkpt lat="43.40552" lon="6.63826">
        <ele>178.1</ele>
        <time>2025-01-19T10:35:57Z</time>
      </trkpt>
      <trkpt lat="43.40553" lon="6.63828">
        <ele>178.1</ele>
        <time>2025-01-19T10:35:58Z</time>
      </trkpt>
      <trkpt lat="43.40553" lon="6.63829">
        <ele>177.9</ele>
        <time>2025-01-19T10:35:59Z</time>
      </trkpt>
      <trkpt lat="43.40553" lon="6.63829">
        <ele>177.8</ele>
        <time>2025-01-19T10:36:00Z</time>
      </trkpt>
      <trkpt lat="43.40553" lon="6.6383">
        <ele>177.7</ele>
        <time>2025-01-19T10:36:01Z</time>
      </trkpt>
      <trkpt lat="43.40553" lon="6.63831">
        <ele>177.6</ele>
        <time>2025-01-19T10:36:02Z</time>
      </trkpt>
      <trkpt lat="43.40553" lon="6.63832">
        <ele>177.5</ele>
        <time>2025-01-19T10:36:03Z</time>
      </trkpt>
      <trkpt lat="43.40553" lon="6.63834">
        <ele>177.4</ele>
        <time>2025-01-19T10:36:04Z</time>
      </trkpt>
      <trkpt lat="43.40553" lon="6.63835">
        <ele>177.4</ele>
        <time>2025-01-19T10:36:05Z</time>
      </trkpt>
      <trkpt lat="43.40553" lon="6.63836">
        <ele>177.4</ele>
        <time>2025-01-19T10:36:06Z</time>
      </trkpt>
      <trkpt lat="43.40553" lon="6.63838">
        <ele>177.2</ele>
        <time>2025-01-19T10:36:07Z</time>
      </trkpt>
      <trkpt lat="43.40554" lon="6.63839">
        <ele>177.1</ele>
        <time>2025-01-19T10:36:08Z</time>
      </trkpt>
      <trkpt lat="43.40554" lon="6.6384">
        <ele>177.1</ele>
        <time>2025-01-19T10:36:09Z</time>
      </trkpt>
      <trkpt lat="43.40554" lon="6.6384">
        <ele>177.1</ele>
        <time>2025-01-19T10:36:10Z</time>
      </trkpt>
      <trkpt lat="43.40554" lon="6.63842">
        <ele>177</ele>
        <time>2025-01-19T10:36:11Z</time>
      </trkpt>
      <trkpt lat="43.40553" lon="6.63844">
        <ele>176.9</ele>
        <time>2025-01-19T10:36:12Z</time>
      </trkpt>
      <trkpt lat="43.40553" lon="6.63845">
        <ele>176.8</ele>
        <time>2025-01-19T10:36:13Z</time>
      </trkpt>
      <trkpt lat="43.40552" lon="6.63847">
        <ele>176.7</ele>
        <time>2025-01-19T10:36:14Z</time>
      </trkpt>
      <trkpt lat="43.40552" lon="6.63849">
        <ele>176.6</ele>
        <time>2025-01-19T10:36:15Z</time>
      </trkpt>
      <trkpt lat="43.40551" lon="6.6385">
        <ele>176.6</ele>
        <time>2025-01-19T10:36:16Z</time>
      </trkpt>
      <trkpt lat="43.40551" lon="6.63851">
        <ele>176.4</ele>
        <time>2025-01-19T10:36:17Z</time>
      </trkpt>
      <trkpt lat="43.40551" lon="6.63852">
        <ele>176.3</ele>
        <time>2025-01-19T10:36:18Z</time>
      </trkpt>
      <trkpt lat="43.4055" lon="6.63853">
        <ele>176.2</ele>
        <time>2025-01-19T10:36:19Z</time>
      </trkpt>
      <trkpt lat="43.4055" lon="6.63854">
        <ele>176.1</ele>
        <time>2025-01-19T10:36:20Z</time>
      </trkpt>
      <trkpt lat="43.40549" lon="6.63856">
        <ele>176</ele>
        <time>2025-01-19T10:36:21Z</time>
      </trkpt>
      <trkpt lat="43.40549" lon="6.63857">
        <ele>176</ele>
        <time>2025-01-19T10:36:22Z</time>
      </trkpt>
      <trkpt lat="43.40548" lon="6.63858">
        <ele>176</ele>
        <time>2025-01-19T10:36:23Z</time>
      </trkpt>
      <trkpt lat="43.40547" lon="6.6386">
        <ele>176</ele>
        <time>2025-01-19T10:36:24Z</time>
      </trkpt>
      <trkpt lat="43.40546" lon="6.63861">
        <ele>175.9</ele>
        <time>2025-01-19T10:36:25Z</time>
      </trkpt>
      <trkpt lat="43.40546" lon="6.63862">
        <ele>175.8</ele>
        <time>2025-01-19T10:36:26Z</time>
      </trkpt>
      <trkpt lat="43.40545" lon="6.63863">
        <ele>175.7</ele>
        <time>2025-01-19T10:36:27Z</time>
      </trkpt>
      <trkpt lat="43.40544" lon="6.63864">
        <ele>175.7</ele>
        <time>2025-01-19T10:36:28Z</time>
      </trkpt>
      <trkpt lat="43.40544" lon="6.63865">
        <ele>175.6</ele>
        <time>2025-01-19T10:36:29Z</time>
      </trkpt>
      <trkpt lat="43.40544" lon="6.63866">
        <ele>175.6</ele>
        <time>2025-01-19T10:36:30Z</time>
      </trkpt>
      <trkpt lat="43.40543" lon="6.63867">
        <ele>175.5</ele>
        <time>2025-01-19T10:36:31Z</time>
      </trkpt>
      <trkpt lat="43.40543" lon="6.63869">
        <ele>175.5</ele>
        <time>2025-01-19T10:36:32Z</time>
      </trkpt>
      <trkpt lat="43.40543" lon="6.63869">
        <ele>175.3</ele>
        <time>2025-01-19T10:36:33Z</time>
      </trkpt>
      <trkpt lat="43.40543" lon="6.63871">
        <ele>175.2</ele>
        <time>2025-01-19T10:36:34Z</time>
      </trkpt>
      <trkpt lat="43.40542" lon="6.63872">
        <ele>175.2</ele>
        <time>2025-01-19T10:36:35Z</time>
      </trkpt>
      <trkpt lat="43.40542" lon="6.63873">
        <ele>175.1</ele>
        <time>2025-01-19T10:36:36Z</time>
      </trkpt>
      <trkpt lat="43.40543" lon="6.63874">
        <ele>175.1</ele>
        <time>2025-01-19T10:36:37Z</time>
      </trkpt>
      <trkpt lat="43.40543" lon="6.63875">
        <ele>175.1</ele>
        <time>2025-01-19T10:36:38Z</time>
      </trkpt>
      <trkpt lat="43.40544" lon="6.63876">
        <ele>175</ele>
        <time>2025-01-19T10:36:39Z</time>
      </trkpt>
      <trkpt lat="43.40545" lon="6.63876">
        <ele>174.7</ele>
        <time>2025-01-19T10:36:40Z</time>
      </trkpt>
      <trkpt lat="43.40545" lon="6.63878">
        <ele>174.6</ele>
        <time>2025-01-19T10:36:41Z</time>
      </trkpt>
      <trkpt lat="43.40546" lon="6.6388">
        <ele>174.4</ele>
        <time>2025-01-19T10:36:42Z</time>
      </trkpt>
      <trkpt lat="43.40547" lon="6.63881">
        <ele>174.1</ele>
        <time>2025-01-19T10:36:43Z</time>
      </trkpt>
      <trkpt lat="43.40548" lon="6.63882">
        <ele>174.1</ele>
        <time>2025-01-19T10:36:44Z</time>
      </trkpt>
      <trkpt lat="43.40548" lon="6.63884">
        <ele>174.1</ele>
        <time>2025-01-19T10:36:45Z</time>
      </trkpt>
      <trkpt lat="43.40548" lon="6.63885">
        <ele>174</ele>
        <time>2025-01-19T10:36:46Z</time>
      </trkpt>
      <trkpt lat="43.40549" lon="6.63887">
        <ele>174</ele>
        <time>2025-01-19T10:36:47Z</time>
      </trkpt>
      <trkpt lat="43.40549" lon="6.63889">
        <ele>173.8</ele>
        <time>2025-01-19T10:36:48Z</time>
      </trkpt>
      <trkpt lat="43.40549" lon="6.63891">
        <ele>173.8</ele>
        <time>2025-01-19T10:36:49Z</time>
      </trkpt>
      <trkpt lat="43.4055" lon="6.63891">
        <ele>173.8</ele>
        <time>2025-01-19T10:36:50Z</time>
      </trkpt>
      <trkpt lat="43.4055" lon="6.63893">
        <ele>173.7</ele>
        <time>2025-01-19T10:36:51Z</time>
      </trkpt>
      <trkpt lat="43.40551" lon="6.63894">
        <ele>173.7</ele>
        <time>2025-01-19T10:36:52Z</time>
      </trkpt>
      <trkpt lat="43.40552" lon="6.63895">
        <ele>173.7</ele>
        <time>2025-01-19T10:36:53Z</time>
      </trkpt>
      <trkpt lat="43.40553" lon="6.63896">
        <ele>173.6</ele>
        <time>2025-01-19T10:36:54Z</time>
      </trkpt>
      <trkpt lat="43.40554" lon="6.63897">
        <ele>173.5</ele>
        <time>2025-01-19T10:36:55Z</time>
      </trkpt>
      <trkpt lat="43.40554" lon="6.63899">
        <ele>173.4</ele>
        <time>2025-01-19T10:36:56Z</time>
      </trkpt>
      <trkpt lat="43.40555" lon="6.639">
        <ele>173.3</ele>
        <time>2025-01-19T10:36:57Z</time>
      </trkpt>
      <trkpt lat="43.40557" lon="6.63901">
        <ele>173.2</ele>
        <time>2025-01-19T10:36:58Z</time>
      </trkpt>
      <trkpt lat="43.40558" lon="6.63903">
        <ele>173.1</ele>
        <time>2025-01-19T10:36:59Z</time>
      </trkpt>
      <trkpt lat="43.40559" lon="6.63905">
        <ele>173</ele>
        <time>2025-01-19T10:37:00Z</time>
      </trkpt>
      <trkpt lat="43.40559" lon="6.63907">
        <ele>173</ele>
        <time>2025-01-19T10:37:01Z</time>
      </trkpt>
      <trkpt lat="43.4056" lon="6.63908">
        <ele>172.9</ele>
        <time>2025-01-19T10:37:02Z</time>
      </trkpt>
      <trkpt lat="43.40561" lon="6.63909">
        <ele>172.8</ele>
        <time>2025-01-19T10:37:03Z</time>
      </trkpt>
      <trkpt lat="43.40561" lon="6.63911">
        <ele>172.8</ele>
        <time>2025-01-19T10:37:04Z</time>
      </trkpt>
      <trkpt lat="43.40562" lon="6.63912">
        <ele>172.7</ele>
        <time>2025-01-19T10:37:05Z</time>
      </trkpt>
      <trkpt lat="43.40563" lon="6.63914">
        <ele>172.6</ele>
        <time>2025-01-19T10:37:06Z</time>
      </trkpt>
      <trkpt lat="43.40563" lon="6.63916">
        <ele>172.5</ele>
        <time>2025-01-19T10:37:07Z</time>
      </trkpt>
      <trkpt lat="43.40563" lon="6.63918">
        <ele>172.4</ele>
        <time>2025-01-19T10:37:08Z</time>
      </trkpt>
      <trkpt lat="43.40563" lon="6.63919">
        <ele>172.4</ele>
        <time>2025-01-19T10:37:09Z</time>
      </trkpt>
      <trkpt lat="43.40564" lon="6.63922">
        <ele>172.4</ele>
        <time>2025-01-19T10:37:10Z</time>
      </trkpt>
      <trkpt lat="43.40564" lon="6.63923">
        <ele>172.3</ele>
        <time>2025-01-19T10:37:11Z</time>
      </trkpt>
      <trkpt lat="43.40564" lon="6.63925">
        <ele>172.3</ele>
        <time>2025-01-19T10:37:12Z</time>
      </trkpt>
      <trkpt lat="43.40565" lon="6.63926">
        <ele>172.2</ele>
        <time>2025-01-19T10:37:13Z</time>
      </trkpt>
      <trkpt lat="43.40565" lon="6.63928">
        <ele>172.2</ele>
        <time>2025-01-19T10:37:14Z</time>
      </trkpt>
      <trkpt lat="43.40565" lon="6.63929">
        <ele>172.1</ele>
        <time>2025-01-19T10:37:15Z</time>
      </trkpt>
      <trkpt lat="43.40564" lon="6.63931">
        <ele>172</ele>
        <time>2025-01-19T10:37:16Z</time>
      </trkpt>
      <trkpt lat="43.40565" lon="6.63933">
        <ele>171.9</ele>
        <time>2025-01-19T10:37:17Z</time>
      </trkpt>
      <trkpt lat="43.40565" lon="6.63934">
        <ele>171.7</ele>
        <time>2025-01-19T10:37:18Z</time>
      </trkpt>
      <trkpt lat="43.40565" lon="6.63936">
        <ele>171.6</ele>
        <time>2025-01-19T10:37:19Z</time>
      </trkpt>
      <trkpt lat="43.40564" lon="6.63938">
        <ele>171.5</ele>
        <time>2025-01-19T10:37:20Z</time>
      </trkpt>
      <trkpt lat="43.40564" lon="6.63939">
        <ele>171.4</ele>
        <time>2025-01-19T10:37:21Z</time>
      </trkpt>
      <trkpt lat="43.40564" lon="6.63941">
        <ele>171.3</ele>
        <time>2025-01-19T10:37:22Z</time>
      </trkpt>
      <trkpt lat="43.40564" lon="6.63942">
        <ele>171.2</ele>
        <time>2025-01-19T10:37:23Z</time>
      </trkpt>
      <trkpt lat="43.40564" lon="6.63943">
        <ele>171.2</ele>
        <time>2025-01-19T10:37:24Z</time>
      </trkpt>
      <trkpt lat="43.40563" lon="6.63944">
        <ele>171.1</ele>
        <time>2025-01-19T10:37:25Z</time>
      </trkpt>
      <trkpt lat="43.40563" lon="6.63945">
        <ele>171.1</ele>
        <time>2025-01-19T10:37:26Z</time>
      </trkpt>
      <trkpt lat="43.40562" lon="6.63947">
        <ele>171</ele>
        <time>2025-01-19T10:37:27Z</time>
      </trkpt>
      <trkpt lat="43.40562" lon="6.63948">
        <ele>171</ele>
        <time>2025-01-19T10:37:28Z</time>
      </trkpt>
      <trkpt lat="43.40562" lon="6.6395">
        <ele>170.9</ele>
        <time>2025-01-19T10:37:29Z</time>
      </trkpt>
      <trkpt lat="43.40562" lon="6.63952">
        <ele>170.8</ele>
        <time>2025-01-19T10:37:30Z</time>
      </trkpt>
      <trkpt lat="43.40562" lon="6.63953">
        <ele>170.7</ele>
        <time>2025-01-19T10:37:31Z</time>
      </trkpt>
      <trkpt lat="43.40561" lon="6.63955">
        <ele>170.7</ele>
        <time>2025-01-19T10:37:32Z</time>
      </trkpt>
      <trkpt lat="43.40561" lon="6.63956">
        <ele>170.6</ele>
        <time>2025-01-19T10:37:33Z</time>
      </trkpt>
      <trkpt lat="43.4056" lon="6.63957">
        <ele>170.5</ele>
        <time>2025-01-19T10:37:34Z</time>
      </trkpt>
      <trkpt lat="43.40559" lon="6.63959">
        <ele>170.4</ele>
        <time>2025-01-19T10:37:35Z</time>
      </trkpt>
      <trkpt lat="43.40559" lon="6.63961">
        <ele>170.3</ele>
        <time>2025-01-19T10:37:36Z</time>
      </trkpt>
      <trkpt lat="43.40558" lon="6.63962">
        <ele>170.1</ele>
        <time>2025-01-19T10:37:37Z</time>
      </trkpt>
      <trkpt lat="43.40557" lon="6.63964">
        <ele>170</ele>
        <time>2025-01-19T10:37:38Z</time>
      </trkpt>
      <trkpt lat="43.40557" lon="6.63965">
        <ele>170</ele>
        <time>2025-01-19T10:37:39Z</time>
      </trkpt>
      <trkpt lat="43.40556" lon="6.63967">
        <ele>169.9</ele>
        <time>2025-01-19T10:37:40Z</time>
      </trkpt>
      <trkpt lat="43.40554" lon="6.63968">
        <ele>169.8</ele>
        <time>2025-01-19T10:37:41Z</time>
      </trkpt>
      <trkpt lat="43.40554" lon="6.63969">
        <ele>169.9</ele>
        <time>2025-01-19T10:37:42Z</time>
      </trkpt>
      <trkpt lat="43.40553" lon="6.63969">
        <ele>169.8</ele>
        <time>2025-01-19T10:37:43Z</time>
      </trkpt>
      <trkpt lat="43.40552" lon="6.6397">
        <ele>169.7</ele>
        <time>2025-01-19T10:37:44Z</time>
      </trkpt>
      <trkpt lat="43.40552" lon="6.63971">
        <ele>169.6</ele>
        <time>2025-01-19T10:37:45Z</time>
      </trkpt>
      <trkpt lat="43.40552" lon="6.63972">
        <ele>169.5</ele>
        <time>2025-01-19T10:37:46Z</time>
      </trkpt>
      <trkpt lat="43.40551" lon="6.63974">
        <ele>169.4</ele>
        <time>2025-01-19T10:37:47Z</time>
      </trkpt>
      <trkpt lat="43.40551" lon="6.63975">
        <ele>169.4</ele>
        <time>2025-01-19T10:37:48Z</time>
      </trkpt>
      <trkpt lat="43.4055" lon="6.63976">
        <ele>169.3</ele>
        <time>2025-01-19T10:37:49Z</time>
      </trkpt>
      <trkpt lat="43.40549" lon="6.63976">
        <ele>169.2</ele>
        <time>2025-01-19T10:37:50Z</time>
      </trkpt>
      <trkpt lat="43.40548" lon="6.63977">
        <ele>169.2</ele>
        <time>2025-01-19T10:37:51Z</time>
      </trkpt>
      <trkpt lat="43.40547" lon="6.63978">
        <ele>169.1</ele>
        <time>2025-01-19T10:37:52Z</time>
      </trkpt>
      <trkpt lat="43.40546" lon="6.6398">
        <ele>169.1</ele>
        <time>2025-01-19T10:37:53Z</time>
      </trkpt>
      <trkpt lat="43.40545" lon="6.6398">
        <ele>169</ele>
        <time>2025-01-19T10:37:54Z</time>
      </trkpt>
      <trkpt lat="43.40544" lon="6.63981">
        <ele>168.9</ele>
        <time>2025-01-19T10:37:55Z</time>
      </trkpt>
      <trkpt lat="43.40543" lon="6.63982">
        <ele>168.8</ele>
        <time>2025-01-19T10:37:56Z</time>
      </trkpt>
      <trkpt lat="43.40542" lon="6.63983">
        <ele>168.7</ele>
        <time>2025-01-19T10:37:57Z</time>
      </trkpt>
      <trkpt lat="43.40541" lon="6.63983">
        <ele>168.6</ele>
        <time>2025-01-19T10:37:58Z</time>
      </trkpt>
      <trkpt lat="43.4054" lon="6.63983">
        <ele>168.6</ele>
        <time>2025-01-19T10:37:59Z</time>
      </trkpt>
      <trkpt lat="43.40539" lon="6.63983">
        <ele>168.6</ele>
        <time>2025-01-19T10:38:00Z</time>
      </trkpt>
      <trkpt lat="43.40537" lon="6.63983">
        <ele>168.5</ele>
        <time>2025-01-19T10:38:01Z</time>
      </trkpt>
      <trkpt lat="43.40536" lon="6.63984">
        <ele>168.4</ele>
        <time>2025-01-19T10:38:02Z</time>
      </trkpt>
      <trkpt lat="43.40535" lon="6.63985">
        <ele>168.4</ele>
        <time>2025-01-19T10:38:03Z</time>
      </trkpt>
      <trkpt lat="43.40534" lon="6.63985">
        <ele>168.3</ele>
        <time>2025-01-19T10:38:04Z</time>
      </trkpt>
      <trkpt lat="43.40533" lon="6.63986">
        <ele>168.2</ele>
        <time>2025-01-19T10:38:05Z</time>
      </trkpt>
      <trkpt lat="43.40532" lon="6.63987">
        <ele>168.2</ele>
        <time>2025-01-19T10:38:06Z</time>
      </trkpt>
      <trkpt lat="43.40531" lon="6.63987">
        <ele>168.1</ele>
        <time>2025-01-19T10:38:07Z</time>
      </trkpt>
      <trkpt lat="43.4053" lon="6.63987">
        <ele>168</ele>
        <time>2025-01-19T10:38:08Z</time>
      </trkpt>
      <trkpt lat="43.40529" lon="6.63987">
        <ele>167.9</ele>
        <time>2025-01-19T10:38:09Z</time>
      </trkpt>
      <trkpt lat="43.40527" lon="6.63987">
        <ele>167.8</ele>
        <time>2025-01-19T10:38:10Z</time>
      </trkpt>
      <trkpt lat="43.40526" lon="6.63987">
        <ele>167.7</ele>
        <time>2025-01-19T10:38:11Z</time>
      </trkpt>
      <trkpt lat="43.40525" lon="6.63987">
        <ele>167.6</ele>
        <time>2025-01-19T10:38:12Z</time>
      </trkpt>
      <trkpt lat="43.40524" lon="6.63986">
        <ele>167.6</ele>
        <time>2025-01-19T10:38:13Z</time>
      </trkpt>
      <trkpt lat="43.40523" lon="6.63986">
        <ele>167.5</ele>
        <time>2025-01-19T10:38:14Z</time>
      </trkpt>
      <trkpt lat="43.40522" lon="6.63986">
        <ele>167.4</ele>
        <time>2025-01-19T10:38:15Z</time>
      </trkpt>
      <trkpt lat="43.40521" lon="6.63987">
        <ele>167.2</ele>
        <time>2025-01-19T10:38:16Z</time>
      </trkpt>
      <trkpt lat="43.4052" lon="6.63987">
        <ele>167.1</ele>
        <time>2025-01-19T10:38:17Z</time>
      </trkpt>
      <trkpt lat="43.40518" lon="6.63987">
        <ele>167</ele>
        <time>2025-01-19T10:38:18Z</time>
      </trkpt>
      <trkpt lat="43.40518" lon="6.63988">
        <ele>166.9</ele>
        <time>2025-01-19T10:38:19Z</time>
      </trkpt>
      <trkpt lat="43.40517" lon="6.63988">
        <ele>166.9</ele>
        <time>2025-01-19T10:38:20Z</time>
      </trkpt>
      <trkpt lat="43.40516" lon="6.63989">
        <ele>166.7</ele>
        <time>2025-01-19T10:38:21Z</time>
      </trkpt>
      <trkpt lat="43.40515" lon="6.63989">
        <ele>166.6</ele>
        <time>2025-01-19T10:38:22Z</time>
      </trkpt>
      <trkpt lat="43.40514" lon="6.63989">
        <ele>166.5</ele>
        <time>2025-01-19T10:38:23Z</time>
      </trkpt>
      <trkpt lat="43.40512" lon="6.63988">
        <ele>166.4</ele>
        <time>2025-01-19T10:38:24Z</time>
      </trkpt>
      <trkpt lat="43.40511" lon="6.63989">
        <ele>166.4</ele>
        <time>2025-01-19T10:38:25Z</time>
      </trkpt>
      <trkpt lat="43.4051" lon="6.63989">
        <ele>166.3</ele>
        <time>2025-01-19T10:38:26Z</time>
      </trkpt>
      <trkpt lat="43.40509" lon="6.63989">
        <ele>166.2</ele>
        <time>2025-01-19T10:38:27Z</time>
      </trkpt>
      <trkpt lat="43.40508" lon="6.6399">
        <ele>166.1</ele>
        <time>2025-01-19T10:38:28Z</time>
      </trkpt>
      <trkpt lat="43.40507" lon="6.6399">
        <ele>165.9</ele>
        <time>2025-01-19T10:38:29Z</time>
      </trkpt>
      <trkpt lat="43.40506" lon="6.6399">
        <ele>165.8</ele>
        <time>2025-01-19T10:38:30Z</time>
      </trkpt>
      <trkpt lat="43.40505" lon="6.63991">
        <ele>165.7</ele>
        <time>2025-01-19T10:38:31Z</time>
      </trkpt>
      <trkpt lat="43.40504" lon="6.63992">
        <ele>165.6</ele>
        <time>2025-01-19T10:38:32Z</time>
      </trkpt>
      <trkpt lat="43.40502" lon="6.63993">
        <ele>165.5</ele>
        <time>2025-01-19T10:38:33Z</time>
      </trkpt>
      <trkpt lat="43.40501" lon="6.63994">
        <ele>165.4</ele>
        <time>2025-01-19T10:38:34Z</time>
      </trkpt>
      <trkpt lat="43.405" lon="6.63995">
        <ele>165.4</ele>
        <time>2025-01-19T10:38:35Z</time>
      </trkpt>
      <trkpt lat="43.40499" lon="6.63995">
        <ele>165.4</ele>
        <time>2025-01-19T10:38:36Z</time>
      </trkpt>
      <trkpt lat="43.40498" lon="6.63996">
        <ele>165.4</ele>
        <time>2025-01-19T10:38:37Z</time>
      </trkpt>
      <trkpt lat="43.40497" lon="6.63996">
        <ele>165.3</ele>
        <time>2025-01-19T10:38:38Z</time>
      </trkpt>
      <trkpt lat="43.40496" lon="6.63997">
        <ele>165.2</ele>
        <time>2025-01-19T10:38:39Z</time>
      </trkpt>
      <trkpt lat="43.40495" lon="6.63997">
        <ele>165.1</ele>
        <time>2025-01-19T10:38:40Z</time>
      </trkpt>
      <trkpt lat="43.40494" lon="6.63998">
        <ele>165.1</ele>
        <time>2025-01-19T10:38:41Z</time>
      </trkpt>
      <trkpt lat="43.40493" lon="6.63998">
        <ele>165.1</ele>
        <time>2025-01-19T10:38:42Z</time>
      </trkpt>
      <trkpt lat="43.40492" lon="6.63999">
        <ele>165</ele>
        <time>2025-01-19T10:38:43Z</time>
      </trkpt>
      <trkpt lat="43.4049" lon="6.64001">
        <ele>165</ele>
        <time>2025-01-19T10:38:44Z</time>
      </trkpt>
      <trkpt lat="43.4049" lon="6.64001">
        <ele>164.9</ele>
        <time>2025-01-19T10:38:45Z</time>
      </trkpt>
      <trkpt lat="43.40489" lon="6.64001">
        <ele>164.8</ele>
        <time>2025-01-19T10:38:46Z</time>
      </trkpt>
      <trkpt lat="43.40488" lon="6.64002">
        <ele>164.8</ele>
        <time>2025-01-19T10:38:47Z</time>
      </trkpt>
      <trkpt lat="43.40487" lon="6.64002">
        <ele>164.6</ele>
        <time>2025-01-19T10:38:48Z</time>
      </trkpt>
      <trkpt lat="43.40485" lon="6.64002">
        <ele>164.6</ele>
        <time>2025-01-19T10:38:49Z</time>
      </trkpt>
      <trkpt lat="43.40485" lon="6.64003">
        <ele>164.6</ele>
        <time>2025-01-19T10:38:50Z</time>
      </trkpt>
      <trkpt lat="43.40484" lon="6.64004">
        <ele>164.4</ele>
        <time>2025-01-19T10:38:51Z</time>
      </trkpt>
      <trkpt lat="43.40483" lon="6.64005">
        <ele>164.3</ele>
        <time>2025-01-19T10:38:52Z</time>
      </trkpt>
      <trkpt lat="43.40482" lon="6.64005">
        <ele>164.3</ele>
        <time>2025-01-19T10:38:53Z</time>
      </trkpt>
      <trkpt lat="43.40481" lon="6.64006">
        <ele>164.1</ele>
        <time>2025-01-19T10:38:54Z</time>
      </trkpt>
      <trkpt lat="43.4048" lon="6.64007">
        <ele>164</ele>
        <time>2025-01-19T10:38:55Z</time>
      </trkpt>
      <trkpt lat="43.40479" lon="6.64007">
        <ele>163.9</ele>
        <time>2025-01-19T10:38:56Z</time>
      </trkpt>
      <trkpt lat="43.40478" lon="6.64008">
        <ele>163.8</ele>
        <time>2025-01-19T10:38:57Z</time>
      </trkpt>
      <trkpt lat="43.40477" lon="6.64008">
        <ele>163.7</ele>
        <time>2025-01-19T10:38:58Z</time>
      </trkpt>
      <trkpt lat="43.40475" lon="6.64009">
        <ele>163.6</ele>
        <time>2025-01-19T10:38:59Z</time>
      </trkpt>
      <trkpt lat="43.40474" lon="6.6401">
        <ele>163.5</ele>
        <time>2025-01-19T10:39:00Z</time>
      </trkpt>
      <trkpt lat="43.40473" lon="6.64012">
        <ele>163.4</ele>
        <time>2025-01-19T10:39:01Z</time>
      </trkpt>
      <trkpt lat="43.40472" lon="6.64012">
        <ele>163.2</ele>
        <time>2025-01-19T10:39:02Z</time>
      </trkpt>
      <trkpt lat="43.4047" lon="6.64013">
        <ele>163.1</ele>
        <time>2025-01-19T10:39:03Z</time>
      </trkpt>
      <trkpt lat="43.40469" lon="6.64014">
        <ele>162.9</ele>
        <time>2025-01-19T10:39:04Z</time>
      </trkpt>
      <trkpt lat="43.40468" lon="6.64013">
        <ele>162.8</ele>
        <time>2025-01-19T10:39:05Z</time>
      </trkpt>
      <trkpt lat="43.40467" lon="6.64014">
        <ele>162.8</ele>
        <time>2025-01-19T10:39:06Z</time>
      </trkpt>
      <trkpt lat="43.40466" lon="6.64014">
        <ele>162.6</ele>
        <time>2025-01-19T10:39:07Z</time>
      </trkpt>
      <trkpt lat="43.40465" lon="6.64015">
        <ele>162.6</ele>
        <time>2025-01-19T10:39:08Z</time>
      </trkpt>
      <trkpt lat="43.40463" lon="6.64016">
        <ele>162.4</ele>
        <time>2025-01-19T10:39:09Z</time>
      </trkpt>
      <trkpt lat="43.40462" lon="6.64017">
        <ele>162.3</ele>
        <time>2025-01-19T10:39:10Z</time>
      </trkpt>
      <trkpt lat="43.40462" lon="6.64016">
        <ele>162.2</ele>
        <time>2025-01-19T10:39:11Z</time>
      </trkpt>
      <trkpt lat="43.40461" lon="6.64017">
        <ele>162.1</ele>
        <time>2025-01-19T10:39:12Z</time>
      </trkpt>
      <trkpt lat="43.4046" lon="6.64017">
        <ele>162</ele>
        <time>2025-01-19T10:39:13Z</time>
      </trkpt>
      <trkpt lat="43.40459" lon="6.64016">
        <ele>161.9</ele>
        <time>2025-01-19T10:39:14Z</time>
      </trkpt>
      <trkpt lat="43.40459" lon="6.64014">
        <ele>161.8</ele>
        <time>2025-01-19T10:39:15Z</time>
      </trkpt>
      <trkpt lat="43.40459" lon="6.64014">
        <ele>161.7</ele>
        <time>2025-01-19T10:39:16Z</time>
      </trkpt>
      <trkpt lat="43.40458" lon="6.64015">
        <ele>161.4</ele>
        <time>2025-01-19T10:39:17Z</time>
      </trkpt>
      <trkpt lat="43.40458" lon="6.64015">
        <ele>161.2</ele>
        <time>2025-01-19T10:39:18Z</time>
      </trkpt>
      <trkpt lat="43.40457" lon="6.64015">
        <ele>161.1</ele>
        <time>2025-01-19T10:39:19Z</time>
      </trkpt>
      <trkpt lat="43.40456" lon="6.64016">
        <ele>161</ele>
        <time>2025-01-19T10:39:20Z</time>
      </trkpt>
      <trkpt lat="43.40454" lon="6.64016">
        <ele>160.8</ele>
        <time>2025-01-19T10:39:21Z</time>
      </trkpt>
      <trkpt lat="43.40453" lon="6.64017">
        <ele>160.7</ele>
        <time>2025-01-19T10:39:22Z</time>
      </trkpt>
      <trkpt lat="43.40452" lon="6.64017">
        <ele>160.5</ele>
        <time>2025-01-19T10:39:23Z</time>
      </trkpt>
      <trkpt lat="43.40451" lon="6.64016">
        <ele>160.4</ele>
        <time>2025-01-19T10:39:24Z</time>
      </trkpt>
      <trkpt lat="43.4045" lon="6.64016">
        <ele>160.2</ele>
        <time>2025-01-19T10:39:25Z</time>
      </trkpt>
      <trkpt lat="43.40448" lon="6.64017">
        <ele>160.1</ele>
        <time>2025-01-19T10:39:26Z</time>
      </trkpt>
      <trkpt lat="43.40447" lon="6.64019">
        <ele>160</ele>
        <time>2025-01-19T10:39:27Z</time>
      </trkpt>
      <trkpt lat="43.40446" lon="6.6402">
        <ele>160</ele>
        <time>2025-01-19T10:39:28Z</time>
      </trkpt>
      <trkpt lat="43.40445" lon="6.64021">
        <ele>159.9</ele>
        <time>2025-01-19T10:39:29Z</time>
      </trkpt>
      <trkpt lat="43.40444" lon="6.64021">
        <ele>159.8</ele>
        <time>2025-01-19T10:39:30Z</time>
      </trkpt>
      <trkpt lat="43.40443" lon="6.64022">
        <ele>159.7</ele>
        <time>2025-01-19T10:39:31Z</time>
      </trkpt>
      <trkpt lat="43.40442" lon="6.64023">
        <ele>159.6</ele>
        <time>2025-01-19T10:39:32Z</time>
      </trkpt>
      <trkpt lat="43.40441" lon="6.64024">
        <ele>159.6</ele>
        <time>2025-01-19T10:39:33Z</time>
      </trkpt>
      <trkpt lat="43.40439" lon="6.64025">
        <ele>159.5</ele>
        <time>2025-01-19T10:39:34Z</time>
      </trkpt>
      <trkpt lat="43.40437" lon="6.64026">
        <ele>159.5</ele>
        <time>2025-01-19T10:39:35Z</time>
      </trkpt>
      <trkpt lat="43.40436" lon="6.64025">
        <ele>159.1</ele>
        <time>2025-01-19T10:39:36Z</time>
      </trkpt>
      <trkpt lat="43.40434" lon="6.64026">
        <ele>159</ele>
        <time>2025-01-19T10:39:37Z</time>
      </trkpt>
      <trkpt lat="43.40433" lon="6.64026">
        <ele>159</ele>
        <time>2025-01-19T10:39:38Z</time>
      </trkpt>
      <trkpt lat="43.40432" lon="6.64025">
        <ele>158.9</ele>
        <time>2025-01-19T10:39:39Z</time>
      </trkpt>
      <trkpt lat="43.4043" lon="6.64025">
        <ele>158.9</ele>
        <time>2025-01-19T10:39:40Z</time>
      </trkpt>
      <trkpt lat="43.40429" lon="6.64025">
        <ele>158.8</ele>
        <time>2025-01-19T10:39:41Z</time>
      </trkpt>
      <trkpt lat="43.40429" lon="6.64025">
        <ele>158.8</ele>
        <time>2025-01-19T10:39:42Z</time>
      </trkpt>
      <trkpt lat="43.40427" lon="6.64026">
        <ele>158.8</ele>
        <time>2025-01-19T10:39:43Z</time>
      </trkpt>
      <trkpt lat="43.40425" lon="6.64027">
        <ele>158.7</ele>
        <time>2025-01-19T10:39:44Z</time>
      </trkpt>
      <trkpt lat="43.40423" lon="6.64028">
        <ele>158.7</ele>
        <time>2025-01-19T10:39:45Z</time>
      </trkpt>
      <trkpt lat="43.40422" lon="6.64028">
        <ele>158.7</ele>
        <time>2025-01-19T10:39:46Z</time>
      </trkpt>
      <trkpt lat="43.40421" lon="6.64029">
        <ele>158.7</ele>
        <time>2025-01-19T10:39:47Z</time>
      </trkpt>
      <trkpt lat="43.40419" lon="6.64029">
        <ele>158.6</ele>
        <time>2025-01-19T10:39:48Z</time>
      </trkpt>
      <trkpt lat="43.40418" lon="6.64029">
        <ele>158.6</ele>
        <time>2025-01-19T10:39:49Z</time>
      </trkpt>
      <trkpt lat="43.40417" lon="6.64031">
        <ele>158.6</ele>
        <time>2025-01-19T10:39:50Z</time>
      </trkpt>
      <trkpt lat="43.40416" lon="6.64031">
        <ele>158.5</ele>
        <time>2025-01-19T10:39:51Z</time>
      </trkpt>
      <trkpt lat="43.40414" lon="6.64032">
        <ele>158.4</ele>
        <time>2025-01-19T10:39:52Z</time>
      </trkpt>
      <trkpt lat="43.40412" lon="6.64034">
        <ele>158.4</ele>
        <time>2025-01-19T10:39:53Z</time>
      </trkpt>
      <trkpt lat="43.40411" lon="6.64035">
        <ele>158.3</ele>
        <time>2025-01-19T10:39:54Z</time>
      </trkpt>
      <trkpt lat="43.4041" lon="6.64036">
        <ele>158.3</ele>
        <time>2025-01-19T10:39:55Z</time>
      </trkpt>
      <trkpt lat="43.40409" lon="6.64036">
        <ele>158.3</ele>
        <time>2025-01-19T10:39:56Z</time>
      </trkpt>
      <trkpt lat="43.40408" lon="6.64036">
        <ele>158.4</ele>
        <time>2025-01-19T10:39:57Z</time>
      </trkpt>
      <trkpt lat="43.40406" lon="6.64037">
        <ele>158.4</ele>
        <time>2025-01-19T10:39:58Z</time>
      </trkpt>
      <trkpt lat="43.40406" lon="6.64038">
        <ele>158.4</ele>
        <time>2025-01-19T10:39:59Z</time>
      </trkpt>
      <trkpt lat="43.40405" lon="6.64039">
        <ele>158.3</ele>
        <time>2025-01-19T10:40:00Z</time>
      </trkpt>
      <trkpt lat="43.40404" lon="6.64039">
        <ele>158.3</ele>
        <time>2025-01-19T10:40:01Z</time>
      </trkpt>
      <trkpt lat="43.40402" lon="6.6404">
        <ele>158.3</ele>
        <time>2025-01-19T10:40:02Z</time>
      </trkpt>
      <trkpt lat="43.40401" lon="6.6404">
        <ele>158.3</ele>
        <time>2025-01-19T10:40:03Z</time>
      </trkpt>
      <trkpt lat="43.404" lon="6.6404">
        <ele>158.4</ele>
        <time>2025-01-19T10:40:04Z</time>
      </trkpt>
      <trkpt lat="43.40399" lon="6.6404">
        <ele>158.5</ele>
        <time>2025-01-19T10:40:05Z</time>
      </trkpt>
      <trkpt lat="43.40398" lon="6.64041">
        <ele>158.5</ele>
        <time>2025-01-19T10:40:06Z</time>
      </trkpt>
      <trkpt lat="43.40396" lon="6.64042">
        <ele>158.4</ele>
        <time>2025-01-19T10:40:07Z</time>
      </trkpt>
      <trkpt lat="43.40396" lon="6.64042">
        <ele>158.3</ele>
        <time>2025-01-19T10:40:08Z</time>
      </trkpt>
      <trkpt lat="43.40396" lon="6.64043">
        <ele>158.3</ele>
        <time>2025-01-19T10:40:09Z</time>
      </trkpt>
      <trkpt lat="43.40396" lon="6.64043">
        <ele>158.3</ele>
        <time>2025-01-19T10:40:10Z</time>
      </trkpt>
      <trkpt lat="43.40396" lon="6.64043">
        <ele>158.2</ele>
        <time>2025-01-19T10:40:11Z</time>
      </trkpt>
      <trkpt lat="43.40396" lon="6.64044">
        <ele>158.2</ele>
        <time>2025-01-19T10:40:12Z</time>
      </trkpt>
      <trkpt lat="43.40397" lon="6.64045">
        <ele>158.2</ele>
        <time>2025-01-19T10:40:13Z</time>
      </trkpt>
      <trkpt lat="43.40397" lon="6.64045">
        <ele>158.2</ele>
        <time>2025-01-19T10:40:14Z</time>
      </trkpt>
      <trkpt lat="43.40397" lon="6.64046">
        <ele>158.2</ele>
        <time>2025-01-19T10:40:15Z</time>
      </trkpt>
      <trkpt lat="43.40397" lon="6.64046">
        <ele>158.3</ele>
        <time>2025-01-19T10:40:16Z</time>
      </trkpt>
      <trkpt lat="43.40397" lon="6.64047">
        <ele>158.3</ele>
        <time>2025-01-19T10:40:17Z</time>
      </trkpt>
      <trkpt lat="43.40397" lon="6.64047">
        <ele>158.4</ele>
        <time>2025-01-19T10:40:18Z</time>
      </trkpt>
      <trkpt lat="43.40397" lon="6.64048">
        <ele>158.4</ele>
        <time>2025-01-19T10:40:19Z</time>
      </trkpt>
      <trkpt lat="43.40396" lon="6.64047">
        <ele>158.4</ele>
        <time>2025-01-19T10:40:20Z</time>
      </trkpt>
      <trkpt lat="43.40395" lon="6.64048">
        <ele>158.4</ele>
        <time>2025-01-19T10:40:21Z</time>
      </trkpt>
      <trkpt lat="43.40394" lon="6.64048">
        <ele>158.4</ele>
        <time>2025-01-19T10:40:22Z</time>
      </trkpt>
      <trkpt lat="43.40393" lon="6.64049">
        <ele>158.3</ele>
        <time>2025-01-19T10:40:23Z</time>
      </trkpt>
      <trkpt lat="43.40392" lon="6.64049">
        <ele>158.2</ele>
        <time>2025-01-19T10:40:24Z</time>
      </trkpt>
      <trkpt lat="43.40391" lon="6.64049">
        <ele>158.1</ele>
        <time>2025-01-19T10:40:25Z</time>
      </trkpt>
      <trkpt lat="43.40391" lon="6.64049">
        <ele>158.1</ele>
        <time>2025-01-19T10:40:26Z</time>
      </trkpt>
      <trkpt lat="43.4039" lon="6.64049">
        <ele>158.1</ele>
        <time>2025-01-19T10:40:27Z</time>
      </trkpt>
      <trkpt lat="43.40389" lon="6.64048">
        <ele>158</ele>
        <time>2025-01-19T10:40:28Z</time>
      </trkpt>
      <trkpt lat="43.40389" lon="6.64049">
        <ele>158.1</ele>
        <time>2025-01-19T10:40:29Z</time>
      </trkpt>
      <trkpt lat="43.40389" lon="6.64048">
        <ele>157.9</ele>
        <time>2025-01-19T10:40:30Z</time>
      </trkpt>
      <trkpt lat="43.40388" lon="6.64048">
        <ele>158.1</ele>
        <time>2025-01-19T10:40:31Z</time>
      </trkpt>
      <trkpt lat="43.40387" lon="6.64049">
        <ele>158.1</ele>
        <time>2025-01-19T10:40:32Z</time>
      </trkpt>
      <trkpt lat="43.40387" lon="6.64048">
        <ele>158.2</ele>
        <time>2025-01-19T10:40:33Z</time>
      </trkpt>
      <trkpt lat="43.40386" lon="6.64049">
        <ele>158.3</ele>
        <time>2025-01-19T10:40:34Z</time>
      </trkpt>
      <trkpt lat="43.40385" lon="6.64048">
        <ele>158.3</ele>
        <time>2025-01-19T10:40:35Z</time>
      </trkpt>
      <trkpt lat="43.40384" lon="6.64048">
        <ele>158.3</ele>
        <time>2025-01-19T10:40:36Z</time>
      </trkpt>
      <trkpt lat="43.40383" lon="6.64048">
        <ele>158.4</ele>
        <time>2025-01-19T10:40:37Z</time>
      </trkpt>
      <trkpt lat="43.40382" lon="6.64049">
        <ele>158.4</ele>
        <time>2025-01-19T10:40:38Z</time>
      </trkpt>
      <trkpt lat="43.40382" lon="6.64049">
        <ele>158.4</ele>
        <time>2025-01-19T10:40:39Z</time>
      </trkpt>
      <trkpt lat="43.40381" lon="6.64049">
        <ele>158.4</ele>
        <time>2025-01-19T10:40:40Z</time>
      </trkpt>
      <trkpt lat="43.4038" lon="6.64049">
        <ele>158.4</ele>
        <time>2025-01-19T10:40:41Z</time>
      </trkpt>
      <trkpt lat="43.40379" lon="6.64049">
        <ele>158.5</ele>
        <time>2025-01-19T10:40:42Z</time>
      </trkpt>
      <trkpt lat="43.40378" lon="6.64049">
        <ele>158.5</ele>
        <time>2025-01-19T10:40:43Z</time>
      </trkpt>
      <trkpt lat="43.40377" lon="6.64049">
        <ele>158.5</ele>
        <time>2025-01-19T10:40:44Z</time>
      </trkpt>
      <trkpt lat="43.40376" lon="6.64049">
        <ele>158.5</ele>
        <time>2025-01-19T10:40:45Z</time>
      </trkpt>
      <trkpt lat="43.40375" lon="6.64049">
        <ele>158.6</ele>
        <time>2025-01-19T10:40:46Z</time>
      </trkpt>
      <trkpt lat="43.40374" lon="6.64049">
        <ele>158.7</ele>
        <time>2025-01-19T10:40:47Z</time>
      </trkpt>
      <trkpt lat="43.40374" lon="6.64049">
        <ele>158.8</ele>
        <time>2025-01-19T10:40:48Z</time>
      </trkpt>
      <trkpt lat="43.40373" lon="6.64048">
        <ele>158.8</ele>
        <time>2025-01-19T10:40:49Z</time>
      </trkpt>
      <trkpt lat="43.40373" lon="6.64048">
        <ele>158.9</ele>
        <time>2025-01-19T10:40:50Z</time>
      </trkpt>
      <trkpt lat="43.40373" lon="6.64049">
        <ele>158.9</ele>
        <time>2025-01-19T10:40:51Z</time>
      </trkpt>
      <trkpt lat="43.40373" lon="6.64049">
        <ele>159</ele>
        <time>2025-01-19T10:40:52Z</time>
      </trkpt>
      <trkpt lat="43.40373" lon="6.64049">
        <ele>159.1</ele>
        <time>2025-01-19T10:40:53Z</time>
      </trkpt>
      <trkpt lat="43.40372" lon="6.64048">
        <ele>159.1</ele>
        <time>2025-01-19T10:40:54Z</time>
      </trkpt>
      <trkpt lat="43.40372" lon="6.64048">
        <ele>159</ele>
        <time>2025-01-19T10:40:55Z</time>
      </trkpt>
      <trkpt lat="43.40372" lon="6.64048">
        <ele>159</ele>
        <time>2025-01-19T10:40:56Z</time>
      </trkpt>
      <trkpt lat="43.40372" lon="6.64048">
        <ele>159</ele>
        <time>2025-01-19T10:40:57Z</time>
      </trkpt>
      <trkpt lat="43.40372" lon="6.64048">
        <ele>159</ele>
        <time>2025-01-19T10:40:58Z</time>
      </trkpt>
      <trkpt lat="43.40372" lon="6.64048">
        <ele>159</ele>
        <time>2025-01-19T10:40:59Z</time>
      </trkpt>
      <trkpt lat="43.40371" lon="6.64048">
        <ele>158.9</ele>
        <time>2025-01-19T10:41:00Z</time>
      </trkpt>
      <trkpt lat="43.40371" lon="6.64048">
        <ele>159</ele>
        <time>2025-01-19T10:41:01Z</time>
      </trkpt>
      <trkpt lat="43.40371" lon="6.64048">
        <ele>159</ele>
        <time>2025-01-19T10:41:02Z</time>
      </trkpt>
      <trkpt lat="43.40371" lon="6.64048">
        <ele>159.1</ele>
        <time>2025-01-19T10:41:03Z</time>
      </trkpt>
      <trkpt lat="43.40371" lon="6.64048">
        <ele>159.1</ele>
        <time>2025-01-19T10:41:04Z</time>
      </trkpt>
      <trkpt lat="43.40371" lon="6.64048">
        <ele>159.1</ele>
        <time>2025-01-19T10:41:05Z</time>
      </trkpt>
      <trkpt lat="43.40371" lon="6.64048">
        <ele>159.1</ele>
        <time>2025-01-19T10:41:06Z</time>
      </trkpt>
      <trkpt lat="43.40372" lon="6.64048">
        <ele>159.2</ele>
        <time>2025-01-19T10:41:07Z</time>
      </trkpt>
      <trkpt lat="43.40372" lon="6.64047">
        <ele>159.2</ele>
        <time>2025-01-19T10:41:08Z</time>
      </trkpt>
      <trkpt lat="43.40372" lon="6.64047">
        <ele>159.1</ele>
        <time>2025-01-19T10:41:09Z</time>
      </trkpt>
      <trkpt lat="43.40372" lon="6.64047">
        <ele>159</ele>
        <time>2025-01-19T10:41:10Z</time>
      </trkpt>
      <trkpt lat="43.40373" lon="6.64046">
        <ele>159</ele>
        <time>2025-01-19T10:41:11Z</time>
      </trkpt>
      <trkpt lat="43.40373" lon="6.64046">
        <ele>158.9</ele>
        <time>2025-01-19T10:41:12Z</time>
      </trkpt>
      <trkpt lat="43.40373" lon="6.64046">
        <ele>159</ele>
        <time>2025-01-19T10:41:13Z</time>
      </trkpt>
      <trkpt lat="43.40373" lon="6.64045">
        <ele>159</ele>
        <time>2025-01-19T10:41:14Z</time>
      </trkpt>
      <trkpt lat="43.40373" lon="6.64045">
        <ele>158.9</ele>
        <time>2025-01-19T10:41:15Z</time>
      </trkpt>
      <trkpt lat="43.40373" lon="6.64045">
        <ele>158.9</ele>
        <time>2025-01-19T10:41:16Z</time>
      </trkpt>
      <trkpt lat="43.40373" lon="6.64044">
        <ele>158.9</ele>
        <time>2025-01-19T10:41:17Z</time>
      </trkpt>
      <trkpt lat="43.40373" lon="6.64044">
        <ele>158.8</ele>
        <time>2025-01-19T10:41:18Z</time>
      </trkpt>
      <trkpt lat="43.40373" lon="6.64044">
        <ele>158.8</ele>
        <time>2025-01-19T10:41:19Z</time>
      </trkpt>
      <trkpt lat="43.40373" lon="6.64044">
        <ele>158.9</ele>
        <time>2025-01-19T10:41:20Z</time>
      </trkpt>
      <trkpt lat="43.40373" lon="6.64044">
        <ele>158.8</ele>
        <time>2025-01-19T10:41:21Z</time>
      </trkpt>
      <trkpt lat="43.40374" lon="6.64044">
        <ele>158.7</ele>
        <time>2025-01-19T10:41:22Z</time>
      </trkpt>
      <trkpt lat="43.40374" lon="6.64043">
        <ele>158.7</ele>
        <time>2025-01-19T10:41:23Z</time>
      </trkpt>
      <trkpt lat="43.40373" lon="6.64042">
        <ele>158.2</ele>
        <time>2025-01-19T10:41:24Z</time>
      </trkpt>
      <trkpt lat="43.40373" lon="6.64041">
        <ele>158.2</ele>
        <time>2025-01-19T10:41:25Z</time>
      </trkpt>
      <trkpt lat="43.40373" lon="6.6404">
        <ele>158.3</ele>
        <time>2025-01-19T10:41:26Z</time>
      </trkpt>
      <trkpt lat="43.40372" lon="6.64042">
        <ele>158.3</ele>
        <time>2025-01-19T10:41:27Z</time>
      </trkpt>
      <trkpt lat="43.40371" lon="6.64041">
        <ele>158.5</ele>
        <time>2025-01-19T10:41:28Z</time>
      </trkpt>
      <trkpt lat="43.40371" lon="6.64039">
        <ele>158.5</ele>
        <time>2025-01-19T10:41:29Z</time>
      </trkpt>
      <trkpt lat="43.4037" lon="6.6404">
        <ele>158.6</ele>
        <time>2025-01-19T10:41:30Z</time>
      </trkpt>
      <trkpt lat="43.4037" lon="6.64039">
        <ele>158.6</ele>
        <time>2025-01-19T10:41:31Z</time>
      </trkpt>
      <trkpt lat="43.40369" lon="6.64039">
        <ele>158.6</ele>
        <time>2025-01-19T10:41:32Z</time>
      </trkpt>
      <trkpt lat="43.40369" lon="6.64039">
        <ele>158.7</ele>
        <time>2025-01-19T10:41:33Z</time>
      </trkpt>
      <trkpt lat="43.40369" lon="6.64039">
        <ele>158.8</ele>
        <time>2025-01-19T10:41:34Z</time>
      </trkpt>
      <trkpt lat="43.40368" lon="6.64039">
        <ele>158.8</ele>
        <time>2025-01-19T10:41:35Z</time>
      </trkpt>
      <trkpt lat="43.40367" lon="6.64039">
        <ele>158.8</ele>
        <time>2025-01-19T10:41:36Z</time>
      </trkpt>
      <trkpt lat="43.40367" lon="6.64038">
        <ele>158.8</ele>
        <time>2025-01-19T10:41:37Z</time>
      </trkpt>
      <trkpt lat="43.40366" lon="6.64038">
        <ele>158.9</ele>
        <time>2025-01-19T10:41:38Z</time>
      </trkpt>
      <trkpt lat="43.40365" lon="6.64038">
        <ele>158.9</ele>
        <time>2025-01-19T10:41:39Z</time>
      </trkpt>
      <trkpt lat="43.40364" lon="6.64039">
        <ele>158.9</ele>
        <time>2025-01-19T10:41:40Z</time>
      </trkpt>
      <trkpt lat="43.40364" lon="6.64039">
        <ele>158.9</ele>
        <time>2025-01-19T10:41:41Z</time>
      </trkpt>
      <trkpt lat="43.40363" lon="6.64039">
        <ele>159</ele>
        <time>2025-01-19T10:41:42Z</time>
      </trkpt>
      <trkpt lat="43.40363" lon="6.64039">
        <ele>158.9</ele>
        <time>2025-01-19T10:41:43Z</time>
      </trkpt>
      <trkpt lat="43.40362" lon="6.64038">
        <ele>158.9</ele>
        <time>2025-01-19T10:41:44Z</time>
      </trkpt>
      <trkpt lat="43.40361" lon="6.64039">
        <ele>158.9</ele>
        <time>2025-01-19T10:41:45Z</time>
      </trkpt>
      <trkpt lat="43.40361" lon="6.64039">
        <ele>158.9</ele>
        <time>2025-01-19T10:41:46Z</time>
      </trkpt>
      <trkpt lat="43.40361" lon="6.64039">
        <ele>158.9</ele>
        <time>2025-01-19T10:41:47Z</time>
      </trkpt>
      <trkpt lat="43.40361" lon="6.64039">
        <ele>159</ele>
        <time>2025-01-19T10:41:48Z</time>
      </trkpt>
      <trkpt lat="43.40361" lon="6.64039">
        <ele>159</ele>
        <time>2025-01-19T10:41:49Z</time>
      </trkpt>
      <trkpt lat="43.40361" lon="6.64038">
        <ele>159</ele>
        <time>2025-01-19T10:41:50Z</time>
      </trkpt>
      <trkpt lat="43.40361" lon="6.64039">
        <ele>159</ele>
        <time>2025-01-19T10:41:51Z</time>
      </trkpt>
      <trkpt lat="43.4036" lon="6.64039">
        <ele>158.9</ele>
        <time>2025-01-19T10:41:52Z</time>
      </trkpt>
      <trkpt lat="43.4036" lon="6.64039">
        <ele>158.9</ele>
        <time>2025-01-19T10:41:53Z</time>
      </trkpt>
      <trkpt lat="43.40359" lon="6.64039">
        <ele>158.9</ele>
        <time>2025-01-19T10:41:54Z</time>
      </trkpt>
      <trkpt lat="43.40357" lon="6.64039">
        <ele>158.9</ele>
        <time>2025-01-19T10:41:55Z</time>
      </trkpt>
      <trkpt lat="43.40356" lon="6.64039">
        <ele>158.8</ele>
        <time>2025-01-19T10:41:56Z</time>
      </trkpt>
      <trkpt lat="43.40355" lon="6.64039">
        <ele>158.7</ele>
        <time>2025-01-19T10:41:57Z</time>
      </trkpt>
      <trkpt lat="43.40353" lon="6.64039">
        <ele>158.6</ele>
        <time>2025-01-19T10:41:58Z</time>
      </trkpt>
      <trkpt lat="43.40352" lon="6.64039">
        <ele>158.6</ele>
        <time>2025-01-19T10:41:59Z</time>
      </trkpt>
      <trkpt lat="43.40351" lon="6.64039">
        <ele>158.5</ele>
        <time>2025-01-19T10:42:00Z</time>
      </trkpt>
      <trkpt lat="43.4035" lon="6.64039">
        <ele>158.4</ele>
        <time>2025-01-19T10:42:01Z</time>
      </trkpt>
      <trkpt lat="43.40349" lon="6.64039">
        <ele>158.4</ele>
        <time>2025-01-19T10:42:02Z</time>
      </trkpt>
      <trkpt lat="43.40347" lon="6.6404">
        <ele>158.4</ele>
        <time>2025-01-19T10:42:03Z</time>
      </trkpt>
      <trkpt lat="43.40347" lon="6.64039">
        <ele>158.4</ele>
        <time>2025-01-19T10:42:04Z</time>
      </trkpt>
      <trkpt lat="43.40346" lon="6.64038">
        <ele>158.5</ele>
        <time>2025-01-19T10:42:05Z</time>
      </trkpt>
      <trkpt lat="43.40345" lon="6.64038">
        <ele>158.6</ele>
        <time>2025-01-19T10:42:06Z</time>
      </trkpt>
      <trkpt lat="43.40345" lon="6.64038">
        <ele>158.8</ele>
        <time>2025-01-19T10:42:07Z</time>
      </trkpt>
      <trkpt lat="43.40345" lon="6.64039">
        <ele>158.9</ele>
        <time>2025-01-19T10:42:08Z</time>
      </trkpt>
      <trkpt lat="43.40345" lon="6.6404">
        <ele>158.9</ele>
        <time>2025-01-19T10:42:09Z</time>
      </trkpt>
      <trkpt lat="43.40345" lon="6.6404">
        <ele>159.1</ele>
        <time>2025-01-19T10:42:10Z</time>
      </trkpt>
      <trkpt lat="43.40343" lon="6.64041">
        <ele>159.2</ele>
        <time>2025-01-19T10:42:11Z</time>
      </trkpt>
      <trkpt lat="43.40342" lon="6.64041">
        <ele>159.4</ele>
        <time>2025-01-19T10:42:12Z</time>
      </trkpt>
      <trkpt lat="43.40342" lon="6.64041">
        <ele>159.5</ele>
        <time>2025-01-19T10:42:13Z</time>
      </trkpt>
      <trkpt lat="43.40341" lon="6.64041">
        <ele>159.6</ele>
        <time>2025-01-19T10:42:14Z</time>
      </trkpt>
      <trkpt lat="43.4034" lon="6.64041">
        <ele>159.6</ele>
        <time>2025-01-19T10:42:15Z</time>
      </trkpt>
      <trkpt lat="43.40338" lon="6.64041">
        <ele>159.7</ele>
        <time>2025-01-19T10:42:16Z</time>
      </trkpt>
      <trkpt lat="43.40337" lon="6.64042">
        <ele>159.7</ele>
        <time>2025-01-19T10:42:17Z</time>
      </trkpt>
      <trkpt lat="43.40335" lon="6.64043">
        <ele>159.7</ele>
        <time>2025-01-19T10:42:18Z</time>
      </trkpt>
      <trkpt lat="43.40333" lon="6.64045">
        <ele>159.8</ele>
        <time>2025-01-19T10:42:19Z</time>
      </trkpt>
      <trkpt lat="43.40332" lon="6.64045">
        <ele>159.8</ele>
        <time>2025-01-19T10:42:20Z</time>
      </trkpt>
      <trkpt lat="43.40331" lon="6.64046">
        <ele>159.8</ele>
        <time>2025-01-19T10:42:21Z</time>
      </trkpt>
      <trkpt lat="43.4033" lon="6.64047">
        <ele>159.9</ele>
        <time>2025-01-19T10:42:22Z</time>
      </trkpt>
      <trkpt lat="43.40328" lon="6.64047">
        <ele>160</ele>
        <time>2025-01-19T10:42:23Z</time>
      </trkpt>
      <trkpt lat="43.40327" lon="6.64046">
        <ele>160.1</ele>
        <time>2025-01-19T10:42:24Z</time>
      </trkpt>
      <trkpt lat="43.40326" lon="6.64045">
        <ele>160.3</ele>
        <time>2025-01-19T10:42:25Z</time>
      </trkpt>
      <trkpt lat="43.40325" lon="6.64046">
        <ele>160.5</ele>
        <time>2025-01-19T10:42:26Z</time>
      </trkpt>
      <trkpt lat="43.40324" lon="6.64046">
        <ele>160.7</ele>
        <time>2025-01-19T10:42:27Z</time>
      </trkpt>
      <trkpt lat="43.40322" lon="6.64047">
        <ele>160.8</ele>
        <time>2025-01-19T10:42:28Z</time>
      </trkpt>
      <trkpt lat="43.40321" lon="6.64047">
        <ele>160.9</ele>
        <time>2025-01-19T10:42:29Z</time>
      </trkpt>
      <trkpt lat="43.40319" lon="6.64049">
        <ele>160.9</ele>
        <time>2025-01-19T10:42:30Z</time>
      </trkpt>
      <trkpt lat="43.40318" lon="6.64049">
        <ele>161</ele>
        <time>2025-01-19T10:42:31Z</time>
      </trkpt>
      <trkpt lat="43.40317" lon="6.64049">
        <ele>161.1</ele>
        <time>2025-01-19T10:42:32Z</time>
      </trkpt>
      <trkpt lat="43.40315" lon="6.64049">
        <ele>161.2</ele>
        <time>2025-01-19T10:42:33Z</time>
      </trkpt>
      <trkpt lat="43.40315" lon="6.64049">
        <ele>161.2</ele>
        <time>2025-01-19T10:42:34Z</time>
      </trkpt>
      <trkpt lat="43.40313" lon="6.64049">
        <ele>161.2</ele>
        <time>2025-01-19T10:42:35Z</time>
      </trkpt>
      <trkpt lat="43.40312" lon="6.6405">
        <ele>161.3</ele>
        <time>2025-01-19T10:42:36Z</time>
      </trkpt>
      <trkpt lat="43.4031" lon="6.64051">
        <ele>161.2</ele>
        <time>2025-01-19T10:42:37Z</time>
      </trkpt>
      <trkpt lat="43.40309" lon="6.64051">
        <ele>161.2</ele>
        <time>2025-01-19T10:42:38Z</time>
      </trkpt>
      <trkpt lat="43.40308" lon="6.64051">
        <ele>161.2</ele>
        <time>2025-01-19T10:42:39Z</time>
      </trkpt>
      <trkpt lat="43.40307" lon="6.64053">
        <ele>161.3</ele>
        <time>2025-01-19T10:42:40Z</time>
      </trkpt>
      <trkpt lat="43.40305" lon="6.64054">
        <ele>161.4</ele>
        <time>2025-01-19T10:42:41Z</time>
      </trkpt>
      <trkpt lat="43.40305" lon="6.64053">
        <ele>161.3</ele>
        <time>2025-01-19T10:42:42Z</time>
      </trkpt>
      <trkpt lat="43.40304" lon="6.64053">
        <ele>161.2</ele>
        <time>2025-01-19T10:42:43Z</time>
      </trkpt>
      <trkpt lat="43.40302" lon="6.64054">
        <ele>161.3</ele>
        <time>2025-01-19T10:42:44Z</time>
      </trkpt>
      <trkpt lat="43.403" lon="6.64054">
        <ele>161.5</ele>
        <time>2025-01-19T10:42:45Z</time>
      </trkpt>
      <trkpt lat="43.40299" lon="6.64054">
        <ele>161.7</ele>
        <time>2025-01-19T10:42:46Z</time>
      </trkpt>
      <trkpt lat="43.40297" lon="6.64055">
        <ele>161.8</ele>
        <time>2025-01-19T10:42:47Z</time>
      </trkpt>
      <trkpt lat="43.40296" lon="6.64056">
        <ele>161.9</ele>
        <time>2025-01-19T10:42:48Z</time>
      </trkpt>
      <trkpt lat="43.40294" lon="6.64056">
        <ele>162</ele>
        <time>2025-01-19T10:42:49Z</time>
      </trkpt>
      <trkpt lat="43.40293" lon="6.64057">
        <ele>162</ele>
        <time>2025-01-19T10:42:50Z</time>
      </trkpt>
      <trkpt lat="43.40292" lon="6.64057">
        <ele>162</ele>
        <time>2025-01-19T10:42:51Z</time>
      </trkpt>
      <trkpt lat="43.40291" lon="6.64056">
        <ele>162</ele>
        <time>2025-01-19T10:42:52Z</time>
      </trkpt>
      <trkpt lat="43.4029" lon="6.64056">
        <ele>162</ele>
        <time>2025-01-19T10:42:53Z</time>
      </trkpt>
      <trkpt lat="43.40289" lon="6.64057">
        <ele>162</ele>
        <time>2025-01-19T10:42:54Z</time>
      </trkpt>
      <trkpt lat="43.40287" lon="6.64057">
        <ele>162.1</ele>
        <time>2025-01-19T10:42:55Z</time>
      </trkpt>
      <trkpt lat="43.40286" lon="6.64058">
        <ele>162.2</ele>
        <time>2025-01-19T10:42:56Z</time>
      </trkpt>
      <trkpt lat="43.40285" lon="6.64057">
        <ele>162.3</ele>
        <time>2025-01-19T10:42:57Z</time>
      </trkpt>
      <trkpt lat="43.40284" lon="6.64056">
        <ele>162.3</ele>
        <time>2025-01-19T10:42:58Z</time>
      </trkpt>
      <trkpt lat="43.40283" lon="6.64054">
        <ele>162.4</ele>
        <time>2025-01-19T10:42:59Z</time>
      </trkpt>
      <trkpt lat="43.40282" lon="6.64054">
        <ele>162.4</ele>
        <time>2025-01-19T10:43:00Z</time>
      </trkpt>
      <trkpt lat="43.40281" lon="6.64053">
        <ele>162.5</ele>
        <time>2025-01-19T10:43:01Z</time>
      </trkpt>
      <trkpt lat="43.4028" lon="6.64053">
        <ele>162.4</ele>
        <time>2025-01-19T10:43:02Z</time>
      </trkpt>
      <trkpt lat="43.40279" lon="6.64051">
        <ele>162.4</ele>
        <time>2025-01-19T10:43:03Z</time>
      </trkpt>
      <trkpt lat="43.40277" lon="6.6405">
        <ele>162.4</ele>
        <time>2025-01-19T10:43:04Z</time>
      </trkpt>
      <trkpt lat="43.40276" lon="6.6405">
        <ele>162.4</ele>
        <time>2025-01-19T10:43:05Z</time>
      </trkpt>
      <trkpt lat="43.40276" lon="6.64049">
        <ele>162.4</ele>
        <time>2025-01-19T10:43:06Z</time>
      </trkpt>
      <trkpt lat="43.40274" lon="6.64048">
        <ele>162.3</ele>
        <time>2025-01-19T10:43:07Z</time>
      </trkpt>
      <trkpt lat="43.40273" lon="6.64048">
        <ele>162.3</ele>
        <time>2025-01-19T10:43:08Z</time>
      </trkpt>
      <trkpt lat="43.40272" lon="6.64048">
        <ele>162.3</ele>
        <time>2025-01-19T10:43:09Z</time>
      </trkpt>
      <trkpt lat="43.4027" lon="6.64049">
        <ele>162.2</ele>
        <time>2025-01-19T10:43:10Z</time>
      </trkpt>
      <trkpt lat="43.40269" lon="6.64049">
        <ele>162.3</ele>
        <time>2025-01-19T10:43:11Z</time>
      </trkpt>
      <trkpt lat="43.40268" lon="6.64049">
        <ele>162.4</ele>
        <time>2025-01-19T10:43:12Z</time>
      </trkpt>
      <trkpt lat="43.40267" lon="6.64049">
        <ele>162.4</ele>
        <time>2025-01-19T10:43:13Z</time>
      </trkpt>
      <trkpt lat="43.40266" lon="6.64049">
        <ele>162.4</ele>
        <time>2025-01-19T10:43:14Z</time>
      </trkpt>
      <trkpt lat="43.40265" lon="6.6405">
        <ele>162.5</ele>
        <time>2025-01-19T10:43:15Z</time>
      </trkpt>
      <trkpt lat="43.40264" lon="6.64049">
        <ele>162.6</ele>
        <time>2025-01-19T10:43:16Z</time>
      </trkpt>
      <trkpt lat="43.40263" lon="6.64049">
        <ele>162.7</ele>
        <time>2025-01-19T10:43:17Z</time>
      </trkpt>
      <trkpt lat="43.40262" lon="6.6405">
        <ele>162.9</ele>
        <time>2025-01-19T10:43:18Z</time>
      </trkpt>
      <trkpt lat="43.40261" lon="6.6405">
        <ele>163</ele>
        <time>2025-01-19T10:43:19Z</time>
      </trkpt>
      <trkpt lat="43.4026" lon="6.64051">
        <ele>163.1</ele>
        <time>2025-01-19T10:43:20Z</time>
      </trkpt>
      <trkpt lat="43.4026" lon="6.6405">
        <ele>163.1</ele>
        <time>2025-01-19T10:43:21Z</time>
      </trkpt>
      <trkpt lat="43.40259" lon="6.6405">
        <ele>163.2</ele>
        <time>2025-01-19T10:43:22Z</time>
      </trkpt>
      <trkpt lat="43.40259" lon="6.6405">
        <ele>163.4</ele>
        <time>2025-01-19T10:43:23Z</time>
      </trkpt>
      <trkpt lat="43.40259" lon="6.6405">
        <ele>163.5</ele>
        <time>2025-01-19T10:43:24Z</time>
      </trkpt>
      <trkpt lat="43.40259" lon="6.6405">
        <ele>163.5</ele>
        <time>2025-01-19T10:43:25Z</time>
      </trkpt>
      <trkpt lat="43.40258" lon="6.6405">
        <ele>163.5</ele>
        <time>2025-01-19T10:43:26Z</time>
      </trkpt>
      <trkpt lat="43.40258" lon="6.6405">
        <ele>163.5</ele>
        <time>2025-01-19T10:43:27Z</time>
      </trkpt>
      <trkpt lat="43.40258" lon="6.6405">
        <ele>163.6</ele>
        <time>2025-01-19T10:43:28Z</time>
      </trkpt>
      <trkpt lat="43.40257" lon="6.6405">
        <ele>163.7</ele>
        <time>2025-01-19T10:43:29Z</time>
      </trkpt>
      <trkpt lat="43.40256" lon="6.6405">
        <ele>163.8</ele>
        <time>2025-01-19T10:43:30Z</time>
      </trkpt>
      <trkpt lat="43.40255" lon="6.64051">
        <ele>163.8</ele>
        <time>2025-01-19T10:43:31Z</time>
      </trkpt>
      <trkpt lat="43.40254" lon="6.64052">
        <ele>163.9</ele>
        <time>2025-01-19T10:43:32Z</time>
      </trkpt>
      <trkpt lat="43.40252" lon="6.64053">
        <ele>164</ele>
        <time>2025-01-19T10:43:33Z</time>
      </trkpt>
      <trkpt lat="43.40251" lon="6.64053">
        <ele>164</ele>
        <time>2025-01-19T10:43:34Z</time>
      </trkpt>
      <trkpt lat="43.4025" lon="6.64053">
        <ele>164.3</ele>
        <time>2025-01-19T10:43:35Z</time>
      </trkpt>
      <trkpt lat="43.40249" lon="6.64053">
        <ele>164.4</ele>
        <time>2025-01-19T10:43:36Z</time>
      </trkpt>
      <trkpt lat="43.40248" lon="6.64053">
        <ele>164.6</ele>
        <time>2025-01-19T10:43:37Z</time>
      </trkpt>
      <trkpt lat="43.40247" lon="6.64053">
        <ele>164.7</ele>
        <time>2025-01-19T10:43:38Z</time>
      </trkpt>
      <trkpt lat="43.40246" lon="6.64054">
        <ele>164.9</ele>
        <time>2025-01-19T10:43:39Z</time>
      </trkpt>
      <trkpt lat="43.40245" lon="6.64054">
        <ele>165</ele>
        <time>2025-01-19T10:43:40Z</time>
      </trkpt>
      <trkpt lat="43.40244" lon="6.64053">
        <ele>165.1</ele>
        <time>2025-01-19T10:43:41Z</time>
      </trkpt>
      <trkpt lat="43.40243" lon="6.64053">
        <ele>165.2</ele>
        <time>2025-01-19T10:43:42Z</time>
      </trkpt>
      <trkpt lat="43.40242" lon="6.64054">
        <ele>165.3</ele>
        <time>2025-01-19T10:43:43Z</time>
      </trkpt>
      <trkpt lat="43.4024" lon="6.64055">
        <ele>165.4</ele>
        <time>2025-01-19T10:43:44Z</time>
      </trkpt>
      <trkpt lat="43.4024" lon="6.64055">
        <ele>165.5</ele>
        <time>2025-01-19T10:43:45Z</time>
      </trkpt>
      <trkpt lat="43.40239" lon="6.64055">
        <ele>165.7</ele>
        <time>2025-01-19T10:43:46Z</time>
      </trkpt>
      <trkpt lat="43.40237" lon="6.64055">
        <ele>165.7</ele>
        <time>2025-01-19T10:43:47Z</time>
      </trkpt>
      <trkpt lat="43.40236" lon="6.64055">
        <ele>165.8</ele>
        <time>2025-01-19T10:43:48Z</time>
      </trkpt>
      <trkpt lat="43.40235" lon="6.64055">
        <ele>165.9</ele>
        <time>2025-01-19T10:43:49Z</time>
      </trkpt>
      <trkpt lat="43.40234" lon="6.64055">
        <ele>166</ele>
        <time>2025-01-19T10:43:50Z</time>
      </trkpt>
      <trkpt lat="43.40233" lon="6.64054">
        <ele>166.1</ele>
        <time>2025-01-19T10:43:51Z</time>
      </trkpt>
      <trkpt lat="43.40232" lon="6.64054">
        <ele>166.2</ele>
        <time>2025-01-19T10:43:52Z</time>
      </trkpt>
      <trkpt lat="43.40232" lon="6.64054">
        <ele>166.3</ele>
        <time>2025-01-19T10:43:53Z</time>
      </trkpt>
      <trkpt lat="43.40231" lon="6.64054">
        <ele>166.6</ele>
        <time>2025-01-19T10:43:54Z</time>
      </trkpt>
      <trkpt lat="43.4023" lon="6.64054">
        <ele>166.8</ele>
        <time>2025-01-19T10:43:55Z</time>
      </trkpt>
      <trkpt lat="43.4023" lon="6.64055">
        <ele>166.9</ele>
        <time>2025-01-19T10:43:56Z</time>
      </trkpt>
      <trkpt lat="43.40229" lon="6.64055">
        <ele>167</ele>
        <time>2025-01-19T10:43:57Z</time>
      </trkpt>
      <trkpt lat="43.40228" lon="6.64054">
        <ele>167.2</ele>
        <time>2025-01-19T10:43:58Z</time>
      </trkpt>
      <trkpt lat="43.40227" lon="6.64054">
        <ele>167.4</ele>
        <time>2025-01-19T10:43:59Z</time>
      </trkpt>
      <trkpt lat="43.40227" lon="6.64054">
        <ele>167.7</ele>
        <time>2025-01-19T10:44:00Z</time>
      </trkpt>
      <trkpt lat="43.40226" lon="6.64053">
        <ele>167.9</ele>
        <time>2025-01-19T10:44:01Z</time>
      </trkpt>
      <trkpt lat="43.40225" lon="6.64053">
        <ele>168</ele>
        <time>2025-01-19T10:44:02Z</time>
      </trkpt>
      <trkpt lat="43.40223" lon="6.64053">
        <ele>168.1</ele>
        <time>2025-01-19T10:44:03Z</time>
      </trkpt>
      <trkpt lat="43.40221" lon="6.64054">
        <ele>168.1</ele>
        <time>2025-01-19T10:44:04Z</time>
      </trkpt>
      <trkpt lat="43.40219" lon="6.64053">
        <ele>168.3</ele>
        <time>2025-01-19T10:44:05Z</time>
      </trkpt>
      <trkpt lat="43.40218" lon="6.64054">
        <ele>168.4</ele>
        <time>2025-01-19T10:44:06Z</time>
      </trkpt>
      <trkpt lat="43.40217" lon="6.64053">
        <ele>168.5</ele>
        <time>2025-01-19T10:44:07Z</time>
      </trkpt>
      <trkpt lat="43.40216" lon="6.64053">
        <ele>168.6</ele>
        <time>2025-01-19T10:44:08Z</time>
      </trkpt>
      <trkpt lat="43.40215" lon="6.64053">
        <ele>168.8</ele>
        <time>2025-01-19T10:44:09Z</time>
      </trkpt>
      <trkpt lat="43.40214" lon="6.64053">
        <ele>168.9</ele>
        <time>2025-01-19T10:44:10Z</time>
      </trkpt>
      <trkpt lat="43.40214" lon="6.64052">
        <ele>169</ele>
        <time>2025-01-19T10:44:11Z</time>
      </trkpt>
      <trkpt lat="43.40212" lon="6.64053">
        <ele>169.1</ele>
        <time>2025-01-19T10:44:12Z</time>
      </trkpt>
      <trkpt lat="43.4021" lon="6.64053">
        <ele>169.2</ele>
        <time>2025-01-19T10:44:13Z</time>
      </trkpt>
      <trkpt lat="43.40208" lon="6.64054">
        <ele>169.3</ele>
        <time>2025-01-19T10:44:14Z</time>
      </trkpt>
      <trkpt lat="43.40206" lon="6.64052">
        <ele>169.4</ele>
        <time>2025-01-19T10:44:15Z</time>
      </trkpt>
      <trkpt lat="43.40205" lon="6.64052">
        <ele>169.5</ele>
        <time>2025-01-19T10:44:16Z</time>
      </trkpt>
      <trkpt lat="43.40203" lon="6.64051">
        <ele>169.6</ele>
        <time>2025-01-19T10:44:17Z</time>
      </trkpt>
      <trkpt lat="43.40202" lon="6.6405">
        <ele>169.7</ele>
        <time>2025-01-19T10:44:18Z</time>
      </trkpt>
      <trkpt lat="43.40201" lon="6.6405">
        <ele>169.9</ele>
        <time>2025-01-19T10:44:19Z</time>
      </trkpt>
      <trkpt lat="43.40199" lon="6.64049">
        <ele>170</ele>
        <time>2025-01-19T10:44:20Z</time>
      </trkpt>
      <trkpt lat="43.40198" lon="6.64047">
        <ele>170.1</ele>
        <time>2025-01-19T10:44:21Z</time>
      </trkpt>
      <trkpt lat="43.40197" lon="6.64047">
        <ele>170.2</ele>
        <time>2025-01-19T10:44:22Z</time>
      </trkpt>
      <trkpt lat="43.40195" lon="6.64045">
        <ele>170.2</ele>
        <time>2025-01-19T10:44:23Z</time>
      </trkpt>
      <trkpt lat="43.40194" lon="6.64045">
        <ele>170.2</ele>
        <time>2025-01-19T10:44:24Z</time>
      </trkpt>
      <trkpt lat="43.40193" lon="6.64044">
        <ele>170.4</ele>
        <time>2025-01-19T10:44:25Z</time>
      </trkpt>
      <trkpt lat="43.40192" lon="6.64043">
        <ele>170.4</ele>
        <time>2025-01-19T10:44:26Z</time>
      </trkpt>
      <trkpt lat="43.40191" lon="6.64041">
        <ele>170.4</ele>
        <time>2025-01-19T10:44:27Z</time>
      </trkpt>
      <trkpt lat="43.4019" lon="6.6404">
        <ele>170.5</ele>
        <time>2025-01-19T10:44:28Z</time>
      </trkpt>
      <trkpt lat="43.4019" lon="6.64039">
        <ele>170.6</ele>
        <time>2025-01-19T10:44:29Z</time>
      </trkpt>
      <trkpt lat="43.40188" lon="6.64038">
        <ele>170.6</ele>
        <time>2025-01-19T10:44:30Z</time>
      </trkpt>
      <trkpt lat="43.40187" lon="6.64037">
        <ele>170.6</ele>
        <time>2025-01-19T10:44:31Z</time>
      </trkpt>
      <trkpt lat="43.40186" lon="6.64036">
        <ele>170.6</ele>
        <time>2025-01-19T10:44:32Z</time>
      </trkpt>
      <trkpt lat="43.40184" lon="6.64035">
        <ele>170.5</ele>
        <time>2025-01-19T10:44:33Z</time>
      </trkpt>
      <trkpt lat="43.40183" lon="6.64034">
        <ele>170.5</ele>
        <time>2025-01-19T10:44:34Z</time>
      </trkpt>
      <trkpt lat="43.40182" lon="6.64034">
        <ele>170.5</ele>
        <time>2025-01-19T10:44:35Z</time>
      </trkpt>
      <trkpt lat="43.40181" lon="6.64035">
        <ele>170.4</ele>
        <time>2025-01-19T10:44:36Z</time>
      </trkpt>
      <trkpt lat="43.4018" lon="6.64036">
        <ele>170.5</ele>
        <time>2025-01-19T10:44:37Z</time>
      </trkpt>
      <trkpt lat="43.4018" lon="6.64035">
        <ele>170.4</ele>
        <time>2025-01-19T10:44:38Z</time>
      </trkpt>
      <trkpt lat="43.4018" lon="6.64035">
        <ele>170.4</ele>
        <time>2025-01-19T10:44:39Z</time>
      </trkpt>
      <trkpt lat="43.40179" lon="6.64036">
        <ele>170.5</ele>
        <time>2025-01-19T10:44:40Z</time>
      </trkpt>
      <trkpt lat="43.40177" lon="6.64037">
        <ele>170.6</ele>
        <time>2025-01-19T10:44:41Z</time>
      </trkpt>
      <trkpt lat="43.40176" lon="6.64038">
        <ele>170.7</ele>
        <time>2025-01-19T10:44:42Z</time>
      </trkpt>
      <trkpt lat="43.40176" lon="6.64039">
        <ele>170.8</ele>
        <time>2025-01-19T10:44:43Z</time>
      </trkpt>
      <trkpt lat="43.40175" lon="6.64039">
        <ele>171</ele>
        <time>2025-01-19T10:44:44Z</time>
      </trkpt>
      <trkpt lat="43.40175" lon="6.64039">
        <ele>171.2</ele>
        <time>2025-01-19T10:44:45Z</time>
      </trkpt>
      <trkpt lat="43.40175" lon="6.64039">
        <ele>171.2</ele>
        <time>2025-01-19T10:44:46Z</time>
      </trkpt>
      <trkpt lat="43.40174" lon="6.6404">
        <ele>171.3</ele>
        <time>2025-01-19T10:44:47Z</time>
      </trkpt>
      <trkpt lat="43.40174" lon="6.6404">
        <ele>171.4</ele>
        <time>2025-01-19T10:44:48Z</time>
      </trkpt>
      <trkpt lat="43.40174" lon="6.6404">
        <ele>171.6</ele>
        <time>2025-01-19T10:44:49Z</time>
      </trkpt>
      <trkpt lat="43.40174" lon="6.64041">
        <ele>171.6</ele>
        <time>2025-01-19T10:44:50Z</time>
      </trkpt>
      <trkpt lat="43.40175" lon="6.6404">
        <ele>171.8</ele>
        <time>2025-01-19T10:44:51Z</time>
      </trkpt>
      <trkpt lat="43.40173" lon="6.64042">
        <ele>171.9</ele>
        <time>2025-01-19T10:44:52Z</time>
      </trkpt>
      <trkpt lat="43.40172" lon="6.64042">
        <ele>172</ele>
        <time>2025-01-19T10:44:53Z</time>
      </trkpt>
      <trkpt lat="43.40171" lon="6.64043">
        <ele>172.1</ele>
        <time>2025-01-19T10:44:54Z</time>
      </trkpt>
      <trkpt lat="43.4017" lon="6.64044">
        <ele>172.2</ele>
        <time>2025-01-19T10:44:55Z</time>
      </trkpt>
      <trkpt lat="43.40168" lon="6.64045">
        <ele>172.4</ele>
        <time>2025-01-19T10:44:56Z</time>
      </trkpt>
      <trkpt lat="43.40167" lon="6.64047">
        <ele>172.5</ele>
        <time>2025-01-19T10:44:57Z</time>
      </trkpt>
      <trkpt lat="43.40167" lon="6.64047">
        <ele>172.6</ele>
        <time>2025-01-19T10:44:58Z</time>
      </trkpt>
      <trkpt lat="43.40167" lon="6.64047">
        <ele>172.7</ele>
        <time>2025-01-19T10:44:59Z</time>
      </trkpt>
      <trkpt lat="43.40166" lon="6.64048">
        <ele>172.7</ele>
        <time>2025-01-19T10:45:00Z</time>
      </trkpt>
      <trkpt lat="43.40166" lon="6.64048">
        <ele>172.9</ele>
        <time>2025-01-19T10:45:01Z</time>
      </trkpt>
      <trkpt lat="43.40166" lon="6.64049">
        <ele>173.1</ele>
        <time>2025-01-19T10:45:02Z</time>
      </trkpt>
      <trkpt lat="43.40164" lon="6.64051">
        <ele>173.2</ele>
        <time>2025-01-19T10:45:03Z</time>
      </trkpt>
      <trkpt lat="43.40163" lon="6.64052">
        <ele>173.4</ele>
        <time>2025-01-19T10:45:04Z</time>
      </trkpt>
      <trkpt lat="43.40162" lon="6.64053">
        <ele>173.5</ele>
        <time>2025-01-19T10:45:05Z</time>
      </trkpt>
      <trkpt lat="43.4016" lon="6.64054">
        <ele>173.7</ele>
        <time>2025-01-19T10:45:06Z</time>
      </trkpt>
      <trkpt lat="43.40158" lon="6.64056">
        <ele>173.7</ele>
        <time>2025-01-19T10:45:07Z</time>
      </trkpt>
      <trkpt lat="43.40157" lon="6.64056">
        <ele>173.8</ele>
        <time>2025-01-19T10:45:08Z</time>
      </trkpt>
      <trkpt lat="43.40157" lon="6.64056">
        <ele>173.8</ele>
        <time>2025-01-19T10:45:09Z</time>
      </trkpt>
      <trkpt lat="43.40156" lon="6.64057">
        <ele>173.9</ele>
        <time>2025-01-19T10:45:10Z</time>
      </trkpt>
      <trkpt lat="43.40154" lon="6.64059">
        <ele>174</ele>
        <time>2025-01-19T10:45:11Z</time>
      </trkpt>
      <trkpt lat="43.40153" lon="6.64059">
        <ele>174.2</ele>
        <time>2025-01-19T10:45:12Z</time>
      </trkpt>
      <trkpt lat="43.40152" lon="6.6406">
        <ele>174.3</ele>
        <time>2025-01-19T10:45:13Z</time>
      </trkpt>
      <trkpt lat="43.40152" lon="6.64061">
        <ele>174.4</ele>
        <time>2025-01-19T10:45:14Z</time>
      </trkpt>
      <trkpt lat="43.40152" lon="6.6406">
        <ele>174.6</ele>
        <time>2025-01-19T10:45:15Z</time>
      </trkpt>
      <trkpt lat="43.40152" lon="6.6406">
        <ele>174.8</ele>
        <time>2025-01-19T10:45:16Z</time>
      </trkpt>
      <trkpt lat="43.40151" lon="6.6406">
        <ele>174.9</ele>
        <time>2025-01-19T10:45:17Z</time>
      </trkpt>
      <trkpt lat="43.4015" lon="6.64062">
        <ele>175.1</ele>
        <time>2025-01-19T10:45:18Z</time>
      </trkpt>
      <trkpt lat="43.40148" lon="6.64065">
        <ele>175.3</ele>
        <time>2025-01-19T10:45:19Z</time>
      </trkpt>
      <trkpt lat="43.40146" lon="6.64068">
        <ele>175.4</ele>
        <time>2025-01-19T10:45:20Z</time>
      </trkpt>
      <trkpt lat="43.40144" lon="6.64069">
        <ele>175.3</ele>
        <time>2025-01-19T10:45:21Z</time>
      </trkpt>
      <trkpt lat="43.40143" lon="6.64069">
        <ele>175.3</ele>
        <time>2025-01-19T10:45:22Z</time>
      </trkpt>
      <trkpt lat="43.40142" lon="6.6407">
        <ele>175.4</ele>
        <time>2025-01-19T10:45:23Z</time>
      </trkpt>
      <trkpt lat="43.40141" lon="6.64069">
        <ele>175.5</ele>
        <time>2025-01-19T10:45:24Z</time>
      </trkpt>
      <trkpt lat="43.4014" lon="6.64069">
        <ele>175.5</ele>
        <time>2025-01-19T10:45:25Z</time>
      </trkpt>
      <trkpt lat="43.4014" lon="6.64069">
        <ele>175.6</ele>
        <time>2025-01-19T10:45:26Z</time>
      </trkpt>
      <trkpt lat="43.40139" lon="6.64069">
        <ele>175.8</ele>
        <time>2025-01-19T10:45:27Z</time>
      </trkpt>
      <trkpt lat="43.4014" lon="6.64069">
        <ele>175.9</ele>
        <time>2025-01-19T10:45:28Z</time>
      </trkpt>
      <trkpt lat="43.40139" lon="6.64069">
        <ele>176</ele>
        <time>2025-01-19T10:45:29Z</time>
      </trkpt>
      <trkpt lat="43.40138" lon="6.6407">
        <ele>176.1</ele>
        <time>2025-01-19T10:45:30Z</time>
      </trkpt>
      <trkpt lat="43.40137" lon="6.6407">
        <ele>176.2</ele>
        <time>2025-01-19T10:45:31Z</time>
      </trkpt>
      <trkpt lat="43.40135" lon="6.64071">
        <ele>176.3</ele>
        <time>2025-01-19T10:45:32Z</time>
      </trkpt>
      <trkpt lat="43.40134" lon="6.64072">
        <ele>176.4</ele>
        <time>2025-01-19T10:45:33Z</time>
      </trkpt>
      <trkpt lat="43.40133" lon="6.64072">
        <ele>176.5</ele>
        <time>2025-01-19T10:45:34Z</time>
      </trkpt>
      <trkpt lat="43.40132" lon="6.64072">
        <ele>176.6</ele>
        <time>2025-01-19T10:45:35Z</time>
      </trkpt>
      <trkpt lat="43.40131" lon="6.64072">
        <ele>176.7</ele>
        <time>2025-01-19T10:45:36Z</time>
      </trkpt>
      <trkpt lat="43.40129" lon="6.64073">
        <ele>176.8</ele>
        <time>2025-01-19T10:45:37Z</time>
      </trkpt>
      <trkpt lat="43.40128" lon="6.64074">
        <ele>176.9</ele>
        <time>2025-01-19T10:45:38Z</time>
      </trkpt>
      <trkpt lat="43.40127" lon="6.64074">
        <ele>177</ele>
        <time>2025-01-19T10:45:39Z</time>
      </trkpt>
      <trkpt lat="43.40126" lon="6.64075">
        <ele>177</ele>
        <time>2025-01-19T10:45:40Z</time>
      </trkpt>
      <trkpt lat="43.40125" lon="6.64076">
        <ele>177</ele>
        <time>2025-01-19T10:45:41Z</time>
      </trkpt>
      <trkpt lat="43.40124" lon="6.64076">
        <ele>177</ele>
        <time>2025-01-19T10:45:42Z</time>
      </trkpt>
      <trkpt lat="43.40123" lon="6.64077">
        <ele>177.1</ele>
        <time>2025-01-19T10:45:43Z</time>
      </trkpt>
      <trkpt lat="43.40122" lon="6.64078">
        <ele>177.1</ele>
        <time>2025-01-19T10:45:44Z</time>
      </trkpt>
      <trkpt lat="43.4012" lon="6.6408">
        <ele>177.1</ele>
        <time>2025-01-19T10:45:45Z</time>
      </trkpt>
      <trkpt lat="43.4012" lon="6.64081">
        <ele>177.1</ele>
        <time>2025-01-19T10:45:46Z</time>
      </trkpt>
      <trkpt lat="43.40119" lon="6.64081">
        <ele>177.2</ele>
        <time>2025-01-19T10:45:47Z</time>
      </trkpt>
      <trkpt lat="43.40118" lon="6.64082">
        <ele>177.3</ele>
        <time>2025-01-19T10:45:48Z</time>
      </trkpt>
      <trkpt lat="43.40117" lon="6.64083">
        <ele>177.5</ele>
        <time>2025-01-19T10:45:49Z</time>
      </trkpt>
      <trkpt lat="43.40116" lon="6.64083">
        <ele>177.6</ele>
        <time>2025-01-19T10:45:50Z</time>
      </trkpt>
      <trkpt lat="43.40115" lon="6.64084">
        <ele>177.9</ele>
        <time>2025-01-19T10:45:51Z</time>
      </trkpt>
      <trkpt lat="43.40115" lon="6.64085">
        <ele>178</ele>
        <time>2025-01-19T10:45:52Z</time>
      </trkpt>
      <trkpt lat="43.40114" lon="6.64085">
        <ele>178.2</ele>
        <time>2025-01-19T10:45:53Z</time>
      </trkpt>
      <trkpt lat="43.40113" lon="6.64086">
        <ele>178.3</ele>
        <time>2025-01-19T10:45:54Z</time>
      </trkpt>
      <trkpt lat="43.40112" lon="6.64086">
        <ele>178.4</ele>
        <time>2025-01-19T10:45:55Z</time>
      </trkpt>
      <trkpt lat="43.40111" lon="6.64087">
        <ele>178.6</ele>
        <time>2025-01-19T10:45:56Z</time>
      </trkpt>
      <trkpt lat="43.4011" lon="6.64088">
        <ele>178.8</ele>
        <time>2025-01-19T10:45:57Z</time>
      </trkpt>
      <trkpt lat="43.40109" lon="6.64088">
        <ele>178.8</ele>
        <time>2025-01-19T10:45:58Z</time>
      </trkpt>
      <trkpt lat="43.40107" lon="6.64088">
        <ele>178.9</ele>
        <time>2025-01-19T10:45:59Z</time>
      </trkpt>
      <trkpt lat="43.40106" lon="6.64089">
        <ele>179</ele>
        <time>2025-01-19T10:46:00Z</time>
      </trkpt>
      <trkpt lat="43.40105" lon="6.64089">
        <ele>179</ele>
        <time>2025-01-19T10:46:01Z</time>
      </trkpt>
      <trkpt lat="43.40105" lon="6.64089">
        <ele>179.1</ele>
        <time>2025-01-19T10:46:02Z</time>
      </trkpt>
      <trkpt lat="43.40104" lon="6.64089">
        <ele>179.3</ele>
        <time>2025-01-19T10:46:03Z</time>
      </trkpt>
      <trkpt lat="43.40104" lon="6.6409">
        <ele>179.5</ele>
        <time>2025-01-19T10:46:04Z</time>
      </trkpt>
      <trkpt lat="43.40103" lon="6.6409">
        <ele>179.6</ele>
        <time>2025-01-19T10:46:05Z</time>
      </trkpt>
      <trkpt lat="43.40102" lon="6.6409">
        <ele>179.9</ele>
        <time>2025-01-19T10:46:06Z</time>
      </trkpt>
      <trkpt lat="43.40102" lon="6.6409">
        <ele>180</ele>
        <time>2025-01-19T10:46:07Z</time>
      </trkpt>
      <trkpt lat="43.40101" lon="6.64091">
        <ele>180.1</ele>
        <time>2025-01-19T10:46:08Z</time>
      </trkpt>
      <trkpt lat="43.401" lon="6.64092">
        <ele>180.3</ele>
        <time>2025-01-19T10:46:09Z</time>
      </trkpt>
      <trkpt lat="43.40098" lon="6.64093">
        <ele>180.4</ele>
        <time>2025-01-19T10:46:10Z</time>
      </trkpt>
      <trkpt lat="43.40097" lon="6.64093">
        <ele>180.6</ele>
        <time>2025-01-19T10:46:11Z</time>
      </trkpt>
      <trkpt lat="43.40096" lon="6.64094">
        <ele>180.7</ele>
        <time>2025-01-19T10:46:12Z</time>
      </trkpt>
      <trkpt lat="43.40096" lon="6.64094">
        <ele>180.8</ele>
        <time>2025-01-19T10:46:13Z</time>
      </trkpt>
      <trkpt lat="43.40095" lon="6.64094">
        <ele>180.9</ele>
        <time>2025-01-19T10:46:14Z</time>
      </trkpt>
      <trkpt lat="43.40094" lon="6.64094">
        <ele>181.1</ele>
        <time>2025-01-19T10:46:15Z</time>
      </trkpt>
      <trkpt lat="43.40093" lon="6.64094">
        <ele>181.1</ele>
        <time>2025-01-19T10:46:16Z</time>
      </trkpt>
      <trkpt lat="43.40092" lon="6.64095">
        <ele>181.3</ele>
        <time>2025-01-19T10:46:17Z</time>
      </trkpt>
      <trkpt lat="43.40091" lon="6.64095">
        <ele>181.4</ele>
        <time>2025-01-19T10:46:18Z</time>
      </trkpt>
      <trkpt lat="43.4009" lon="6.64095">
        <ele>181.5</ele>
        <time>2025-01-19T10:46:19Z</time>
      </trkpt>
      <trkpt lat="43.40089" lon="6.64095">
        <ele>181.5</ele>
        <time>2025-01-19T10:46:20Z</time>
      </trkpt>
      <trkpt lat="43.40089" lon="6.64096">
        <ele>181.5</ele>
        <time>2025-01-19T10:46:21Z</time>
      </trkpt>
      <trkpt lat="43.40088" lon="6.64096">
        <ele>181.5</ele>
        <time>2025-01-19T10:46:22Z</time>
      </trkpt>
      <trkpt lat="43.40087" lon="6.64097">
        <ele>181.6</ele>
        <time>2025-01-19T10:46:23Z</time>
      </trkpt>
      <trkpt lat="43.40086" lon="6.64097">
        <ele>181.6</ele>
        <time>2025-01-19T10:46:24Z</time>
      </trkpt>
      <trkpt lat="43.40085" lon="6.64098">
        <ele>181.6</ele>
        <time>2025-01-19T10:46:25Z</time>
      </trkpt>
      <trkpt lat="43.40085" lon="6.64098">
        <ele>181.6</ele>
        <time>2025-01-19T10:46:26Z</time>
      </trkpt>
      <trkpt lat="43.40084" lon="6.64099">
        <ele>181.6</ele>
        <time>2025-01-19T10:46:27Z</time>
      </trkpt>
      <trkpt lat="43.40083" lon="6.64099">
        <ele>181.7</ele>
        <time>2025-01-19T10:46:28Z</time>
      </trkpt>
      <trkpt lat="43.40082" lon="6.64099">
        <ele>181.7</ele>
        <time>2025-01-19T10:46:29Z</time>
      </trkpt>
      <trkpt lat="43.40081" lon="6.64099">
        <ele>181.8</ele>
        <time>2025-01-19T10:46:30Z</time>
      </trkpt>
      <trkpt lat="43.40081" lon="6.641">
        <ele>181.8</ele>
        <time>2025-01-19T10:46:31Z</time>
      </trkpt>
      <trkpt lat="43.4008" lon="6.641">
        <ele>181.9</ele>
        <time>2025-01-19T10:46:32Z</time>
      </trkpt>
      <trkpt lat="43.40079" lon="6.64101">
        <ele>182</ele>
        <time>2025-01-19T10:46:33Z</time>
      </trkpt>
      <trkpt lat="43.40078" lon="6.64101">
        <ele>182.1</ele>
        <time>2025-01-19T10:46:34Z</time>
      </trkpt>
      <trkpt lat="43.40077" lon="6.64102">
        <ele>182.2</ele>
        <time>2025-01-19T10:46:35Z</time>
      </trkpt>
      <trkpt lat="43.40076" lon="6.64103">
        <ele>182.2</ele>
        <time>2025-01-19T10:46:36Z</time>
      </trkpt>
      <trkpt lat="43.40075" lon="6.64103">
        <ele>182.3</ele>
        <time>2025-01-19T10:46:37Z</time>
      </trkpt>
      <trkpt lat="43.40074" lon="6.64104">
        <ele>182.4</ele>
        <time>2025-01-19T10:46:38Z</time>
      </trkpt>
      <trkpt lat="43.40073" lon="6.64104">
        <ele>182.5</ele>
        <time>2025-01-19T10:46:39Z</time>
      </trkpt>
      <trkpt lat="43.40072" lon="6.64105">
        <ele>182.7</ele>
        <time>2025-01-19T10:46:40Z</time>
      </trkpt>
      <trkpt lat="43.40071" lon="6.64105">
        <ele>182.9</ele>
        <time>2025-01-19T10:46:41Z</time>
      </trkpt>
      <trkpt lat="43.4007" lon="6.64106">
        <ele>183</ele>
        <time>2025-01-19T10:46:42Z</time>
      </trkpt>
      <trkpt lat="43.40069" lon="6.64106">
        <ele>183.1</ele>
        <time>2025-01-19T10:46:43Z</time>
      </trkpt>
      <trkpt lat="43.40068" lon="6.64107">
        <ele>183.4</ele>
        <time>2025-01-19T10:46:44Z</time>
      </trkpt>
      <trkpt lat="43.40067" lon="6.64108">
        <ele>183.4</ele>
        <time>2025-01-19T10:46:45Z</time>
      </trkpt>
      <trkpt lat="43.40066" lon="6.64109">
        <ele>183.6</ele>
        <time>2025-01-19T10:46:46Z</time>
      </trkpt>
      <trkpt lat="43.40065" lon="6.6411">
        <ele>183.7</ele>
        <time>2025-01-19T10:46:47Z</time>
      </trkpt>
      <trkpt lat="43.40064" lon="6.6411">
        <ele>183.7</ele>
        <time>2025-01-19T10:46:48Z</time>
      </trkpt>
      <trkpt lat="43.40063" lon="6.64111">
        <ele>183.7</ele>
        <time>2025-01-19T10:46:49Z</time>
      </trkpt>
      <trkpt lat="43.40062" lon="6.64112">
        <ele>183.7</ele>
        <time>2025-01-19T10:46:50Z</time>
      </trkpt>
      <trkpt lat="43.40061" lon="6.64112">
        <ele>183.9</ele>
        <time>2025-01-19T10:46:51Z</time>
      </trkpt>
      <trkpt lat="43.4006" lon="6.64113">
        <ele>184</ele>
        <time>2025-01-19T10:46:52Z</time>
      </trkpt>
      <trkpt lat="43.40059" lon="6.64114">
        <ele>184</ele>
        <time>2025-01-19T10:46:53Z</time>
      </trkpt>
      <trkpt lat="43.40058" lon="6.64115">
        <ele>184</ele>
        <time>2025-01-19T10:46:54Z</time>
      </trkpt>
      <trkpt lat="43.40057" lon="6.64116">
        <ele>184.1</ele>
        <time>2025-01-19T10:46:55Z</time>
      </trkpt>
      <trkpt lat="43.40056" lon="6.64117">
        <ele>184.1</ele>
        <time>2025-01-19T10:46:56Z</time>
      </trkpt>
      <trkpt lat="43.40056" lon="6.64118">
        <ele>184.2</ele>
        <time>2025-01-19T10:46:57Z</time>
      </trkpt>
      <trkpt lat="43.40055" lon="6.64119">
        <ele>184.3</ele>
        <time>2025-01-19T10:46:58Z</time>
      </trkpt>
      <trkpt lat="43.40054" lon="6.6412">
        <ele>184.4</ele>
        <time>2025-01-19T10:46:59Z</time>
      </trkpt>
      <trkpt lat="43.40053" lon="6.64121">
        <ele>184.5</ele>
        <time>2025-01-19T10:47:00Z</time>
      </trkpt>
      <trkpt lat="43.40053" lon="6.64123">
        <ele>184.5</ele>
        <time>2025-01-19T10:47:01Z</time>
      </trkpt>
      <trkpt lat="43.40053" lon="6.64124">
        <ele>184.6</ele>
        <time>2025-01-19T10:47:02Z</time>
      </trkpt>
      <trkpt lat="43.40052" lon="6.64124">
        <ele>184.6</ele>
        <time>2025-01-19T10:47:03Z</time>
      </trkpt>
      <trkpt lat="43.40051" lon="6.64125">
        <ele>184.6</ele>
        <time>2025-01-19T10:47:04Z</time>
      </trkpt>
      <trkpt lat="43.40051" lon="6.64126">
        <ele>184.6</ele>
        <time>2025-01-19T10:47:05Z</time>
      </trkpt>
      <trkpt lat="43.4005" lon="6.64127">
        <ele>184.7</ele>
        <time>2025-01-19T10:47:06Z</time>
      </trkpt>
      <trkpt lat="43.40049" lon="6.64128">
        <ele>184.8</ele>
        <time>2025-01-19T10:47:07Z</time>
      </trkpt>
      <trkpt lat="43.40049" lon="6.6413">
        <ele>184.8</ele>
        <time>2025-01-19T10:47:08Z</time>
      </trkpt>
      <trkpt lat="43.40048" lon="6.64131">
        <ele>184.8</ele>
        <time>2025-01-19T10:47:09Z</time>
      </trkpt>
      <trkpt lat="43.40047" lon="6.64132">
        <ele>184.7</ele>
        <time>2025-01-19T10:47:10Z</time>
      </trkpt>
      <trkpt lat="43.40046" lon="6.64133">
        <ele>184.7</ele>
        <time>2025-01-19T10:47:11Z</time>
      </trkpt>
      <trkpt lat="43.40046" lon="6.64134">
        <ele>184.7</ele>
        <time>2025-01-19T10:47:12Z</time>
      </trkpt>
      <trkpt lat="43.40045" lon="6.64135">
        <ele>184.7</ele>
        <time>2025-01-19T10:47:13Z</time>
      </trkpt>
      <trkpt lat="43.40045" lon="6.64135">
        <ele>184.7</ele>
        <time>2025-01-19T10:47:14Z</time>
      </trkpt>
      <trkpt lat="43.40045" lon="6.64136">
        <ele>184.7</ele>
        <time>2025-01-19T10:47:15Z</time>
      </trkpt>
      <trkpt lat="43.40045" lon="6.64137">
        <ele>184.7</ele>
        <time>2025-01-19T10:47:16Z</time>
      </trkpt>
      <trkpt lat="43.40043" lon="6.64138">
        <ele>184.7</ele>
        <time>2025-01-19T10:47:17Z</time>
      </trkpt>
      <trkpt lat="43.40042" lon="6.64139">
        <ele>184.7</ele>
        <time>2025-01-19T10:47:18Z</time>
      </trkpt>
      <trkpt lat="43.40042" lon="6.6414">
        <ele>184.7</ele>
        <time>2025-01-19T10:47:19Z</time>
      </trkpt>
      <trkpt lat="43.40042" lon="6.6414">
        <ele>184.8</ele>
        <time>2025-01-19T10:47:20Z</time>
      </trkpt>
      <trkpt lat="43.40041" lon="6.64139">
        <ele>185</ele>
        <time>2025-01-19T10:47:21Z</time>
      </trkpt>
      <trkpt lat="43.40041" lon="6.6414">
        <ele>184.9</ele>
        <time>2025-01-19T10:47:22Z</time>
      </trkpt>
      <trkpt lat="43.40041" lon="6.6414">
        <ele>184.9</ele>
        <time>2025-01-19T10:47:23Z</time>
      </trkpt>
      <trkpt lat="43.40041" lon="6.64141">
        <ele>184.9</ele>
        <time>2025-01-19T10:47:24Z</time>
      </trkpt>
      <trkpt lat="43.4004" lon="6.64142">
        <ele>184.9</ele>
        <time>2025-01-19T10:47:25Z</time>
      </trkpt>
      <trkpt lat="43.4004" lon="6.64143">
        <ele>184.9</ele>
        <time>2025-01-19T10:47:26Z</time>
      </trkpt>
      <trkpt lat="43.4004" lon="6.64144">
        <ele>184.9</ele>
        <time>2025-01-19T10:47:27Z</time>
      </trkpt>
      <trkpt lat="43.40039" lon="6.64145">
        <ele>184.9</ele>
        <time>2025-01-19T10:47:28Z</time>
      </trkpt>
      <trkpt lat="43.40039" lon="6.64146">
        <ele>185.1</ele>
        <time>2025-01-19T10:47:29Z</time>
      </trkpt>
      <trkpt lat="43.40038" lon="6.64148">
        <ele>185</ele>
        <time>2025-01-19T10:47:30Z</time>
      </trkpt>
      <trkpt lat="43.40038" lon="6.64149">
        <ele>185.1</ele>
        <time>2025-01-19T10:47:31Z</time>
      </trkpt>
      <trkpt lat="43.40038" lon="6.64149">
        <ele>185.1</ele>
        <time>2025-01-19T10:47:32Z</time>
      </trkpt>
      <trkpt lat="43.40038" lon="6.6415">
        <ele>185.1</ele>
        <time>2025-01-19T10:47:33Z</time>
      </trkpt>
      <trkpt lat="43.40038" lon="6.6415">
        <ele>185.1</ele>
        <time>2025-01-19T10:47:34Z</time>
      </trkpt>
      <trkpt lat="43.40038" lon="6.64151">
        <ele>185.1</ele>
        <time>2025-01-19T10:47:35Z</time>
      </trkpt>
      <trkpt lat="43.40038" lon="6.64151">
        <ele>185.1</ele>
        <time>2025-01-19T10:47:36Z</time>
      </trkpt>
      <trkpt lat="43.40038" lon="6.64152">
        <ele>185.2</ele>
        <time>2025-01-19T10:47:37Z</time>
      </trkpt>
      <trkpt lat="43.40038" lon="6.64152">
        <ele>185.2</ele>
        <time>2025-01-19T10:47:38Z</time>
      </trkpt>
      <trkpt lat="43.40038" lon="6.64152">
        <ele>185</ele>
        <time>2025-01-19T10:47:39Z</time>
      </trkpt>
      <trkpt lat="43.40038" lon="6.64152">
        <ele>184.9</ele>
        <time>2025-01-19T10:47:40Z</time>
      </trkpt>
      <trkpt lat="43.40038" lon="6.64153">
        <ele>185</ele>
        <time>2025-01-19T10:47:41Z</time>
      </trkpt>
      <trkpt lat="43.40038" lon="6.64153">
        <ele>185</ele>
        <time>2025-01-19T10:47:42Z</time>
      </trkpt>
      <trkpt lat="43.40038" lon="6.64153">
        <ele>185</ele>
        <time>2025-01-19T10:47:43Z</time>
      </trkpt>
      <trkpt lat="43.40038" lon="6.64153">
        <ele>185.1</ele>
        <time>2025-01-19T10:47:44Z</time>
      </trkpt>
      <trkpt lat="43.40038" lon="6.64154">
        <ele>185.2</ele>
        <time>2025-01-19T10:47:45Z</time>
      </trkpt>
      <trkpt lat="43.40038" lon="6.64154">
        <ele>185.3</ele>
        <time>2025-01-19T10:47:46Z</time>
      </trkpt>
      <trkpt lat="43.40038" lon="6.64154">
        <ele>185.4</ele>
        <time>2025-01-19T10:47:47Z</time>
      </trkpt>
      <trkpt lat="43.40038" lon="6.64154">
        <ele>185.4</ele>
        <time>2025-01-19T10:47:48Z</time>
      </trkpt>
      <trkpt lat="43.40038" lon="6.64154">
        <ele>185.5</ele>
        <time>2025-01-19T10:47:49Z</time>
      </trkpt>
      <trkpt lat="43.40038" lon="6.64154">
        <ele>185.5</ele>
        <time>2025-01-19T10:47:50Z</time>
      </trkpt>
      <trkpt lat="43.40038" lon="6.64154">
        <ele>185.6</ele>
        <time>2025-01-19T10:47:51Z</time>
      </trkpt>
      <trkpt lat="43.40037" lon="6.64155">
        <ele>185.6</ele>
        <time>2025-01-19T10:47:52Z</time>
      </trkpt>
      <trkpt lat="43.40037" lon="6.64155">
        <ele>185.6</ele>
        <time>2025-01-19T10:47:53Z</time>
      </trkpt>
      <trkpt lat="43.40037" lon="6.64155">
        <ele>185.6</ele>
        <time>2025-01-19T10:47:54Z</time>
      </trkpt>
      <trkpt lat="43.40037" lon="6.64155">
        <ele>185.5</ele>
        <time>2025-01-19T10:47:55Z</time>
      </trkpt>
      <trkpt lat="43.40037" lon="6.64155">
        <ele>185.4</ele>
        <time>2025-01-19T10:47:56Z</time>
      </trkpt>
      <trkpt lat="43.40037" lon="6.64155">
        <ele>185.3</ele>
        <time>2025-01-19T10:47:57Z</time>
      </trkpt>
      <trkpt lat="43.40037" lon="6.64155">
        <ele>185.2</ele>
        <time>2025-01-19T10:47:58Z</time>
      </trkpt>
      <trkpt lat="43.40037" lon="6.64155">
        <ele>185.3</ele>
        <time>2025-01-19T10:47:59Z</time>
      </trkpt>
      <trkpt lat="43.40037" lon="6.64155">
        <ele>185.2</ele>
        <time>2025-01-19T10:48:00Z</time>
      </trkpt>
      <trkpt lat="43.40037" lon="6.64155">
        <ele>185.2</ele>
        <time>2025-01-19T10:48:01Z</time>
      </trkpt>
      <trkpt lat="43.40037" lon="6.64156">
        <ele>185.2</ele>
        <time>2025-01-19T10:48:02Z</time>
      </trkpt>
      <trkpt lat="43.40037" lon="6.64156">
        <ele>185.2</ele>
        <time>2025-01-19T10:48:03Z</time>
      </trkpt>
      <trkpt lat="43.40037" lon="6.64156">
        <ele>185.1</ele>
        <time>2025-01-19T10:48:04Z</time>
      </trkpt>
      <trkpt lat="43.40037" lon="6.64156">
        <ele>185</ele>
        <time>2025-01-19T10:48:05Z</time>
      </trkpt>
      <trkpt lat="43.40037" lon="6.64156">
        <ele>185.1</ele>
        <time>2025-01-19T10:48:06Z</time>
      </trkpt>
      <trkpt lat="43.40037" lon="6.64156">
        <ele>185.1</ele>
        <time>2025-01-19T10:48:07Z</time>
      </trkpt>
      <trkpt lat="43.40037" lon="6.64156">
        <ele>185</ele>
        <time>2025-01-19T10:48:08Z</time>
      </trkpt>
      <trkpt lat="43.40037" lon="6.64157">
        <ele>185.1</ele>
        <time>2025-01-19T10:48:09Z</time>
      </trkpt>
      <trkpt lat="43.40037" lon="6.64157">
        <ele>185.2</ele>
        <time>2025-01-19T10:48:10Z</time>
      </trkpt>
      <trkpt lat="43.40036" lon="6.64157">
        <ele>185.3</ele>
        <time>2025-01-19T10:48:11Z</time>
      </trkpt>
      <trkpt lat="43.40037" lon="6.64157">
        <ele>185.4</ele>
        <time>2025-01-19T10:48:12Z</time>
      </trkpt>
      <trkpt lat="43.40036" lon="6.64157">
        <ele>185.4</ele>
        <time>2025-01-19T10:48:13Z</time>
      </trkpt>
      <trkpt lat="43.40037" lon="6.64157">
        <ele>185.3</ele>
        <time>2025-01-19T10:48:14Z</time>
      </trkpt>
      <trkpt lat="43.40037" lon="6.64157">
        <ele>185.4</ele>
        <time>2025-01-19T10:48:15Z</time>
      </trkpt>
      <trkpt lat="43.40037" lon="6.64157">
        <ele>185.5</ele>
        <time>2025-01-19T10:48:16Z</time>
      </trkpt>
      <trkpt lat="43.40037" lon="6.64157">
        <ele>185.5</ele>
        <time>2025-01-19T10:48:17Z</time>
      </trkpt>
      <trkpt lat="43.40037" lon="6.64157">
        <ele>185.4</ele>
        <time>2025-01-19T10:48:18Z</time>
      </trkpt>
      <trkpt lat="43.40036" lon="6.64157">
        <ele>185.4</ele>
        <time>2025-01-19T10:48:19Z</time>
      </trkpt>
      <trkpt lat="43.40037" lon="6.64158">
        <ele>185.4</ele>
        <time>2025-01-19T10:48:20Z</time>
      </trkpt>
      <trkpt lat="43.40036" lon="6.64158">
        <ele>185.4</ele>
        <time>2025-01-19T10:48:21Z</time>
      </trkpt>
      <trkpt lat="43.40036" lon="6.64158">
        <ele>185.4</ele>
        <time>2025-01-19T10:48:22Z</time>
      </trkpt>
      <trkpt lat="43.40036" lon="6.64158">
        <ele>185.4</ele>
        <time>2025-01-19T10:48:23Z</time>
      </trkpt>
      <trkpt lat="43.40036" lon="6.64158">
        <ele>185.5</ele>
        <time>2025-01-19T10:48:24Z</time>
      </trkpt>
      <trkpt lat="43.40036" lon="6.64158">
        <ele>185.5</ele>
        <time>2025-01-19T10:48:25Z</time>
      </trkpt>
      <trkpt lat="43.40036" lon="6.64159">
        <ele>185.5</ele>
        <time>2025-01-19T10:48:26Z</time>
      </trkpt>
      <trkpt lat="43.40036" lon="6.64159">
        <ele>185.6</ele>
        <time>2025-01-19T10:48:27Z</time>
      </trkpt>
      <trkpt lat="43.40036" lon="6.64159">
        <ele>185.6</ele>
        <time>2025-01-19T10:48:28Z</time>
      </trkpt>
      <trkpt lat="43.40036" lon="6.64159">
        <ele>185.6</ele>
        <time>2025-01-19T10:48:29Z</time>
      </trkpt>
      <trkpt lat="43.40036" lon="6.64159">
        <ele>185.6</ele>
        <time>2025-01-19T10:48:30Z</time>
      </trkpt>
      <trkpt lat="43.40036" lon="6.64159">
        <ele>185.5</ele>
        <time>2025-01-19T10:48:31Z</time>
      </trkpt>
      <trkpt lat="43.40036" lon="6.64159">
        <ele>185.4</ele>
        <time>2025-01-19T10:48:32Z</time>
      </trkpt>
      <trkpt lat="43.40036" lon="6.64159">
        <ele>185.3</ele>
        <time>2025-01-19T10:48:33Z</time>
      </trkpt>
      <trkpt lat="43.40036" lon="6.64159">
        <ele>185.3</ele>
        <time>2025-01-19T10:48:34Z</time>
      </trkpt>
      <trkpt lat="43.40036" lon="6.64159">
        <ele>185.3</ele>
        <time>2025-01-19T10:48:35Z</time>
      </trkpt>
      <trkpt lat="43.40036" lon="6.64159">
        <ele>185.3</ele>
        <time>2025-01-19T10:48:36Z</time>
      </trkpt>
      <trkpt lat="43.40036" lon="6.64159">
        <ele>185.3</ele>
        <time>2025-01-19T10:48:37Z</time>
      </trkpt>
      <trkpt lat="43.40036" lon="6.64159">
        <ele>185.3</ele>
        <time>2025-01-19T10:48:38Z</time>
      </trkpt>
      <trkpt lat="43.40036" lon="6.64159">
        <ele>185.3</ele>
        <time>2025-01-19T10:48:39Z</time>
      </trkpt>
      <trkpt lat="43.40036" lon="6.64159">
        <ele>185.2</ele>
        <time>2025-01-19T10:48:40Z</time>
      </trkpt>
      <trkpt lat="43.40036" lon="6.6416">
        <ele>185.3</ele>
        <time>2025-01-19T10:48:41Z</time>
      </trkpt>
      <trkpt lat="43.40036" lon="6.6416">
        <ele>185.3</ele>
        <time>2025-01-19T10:48:42Z</time>
      </trkpt>
      <trkpt lat="43.40036" lon="6.6416">
        <ele>185.3</ele>
        <time>2025-01-19T10:48:43Z</time>
      </trkpt>
      <trkpt lat="43.40036" lon="6.6416">
        <ele>185.3</ele>
        <time>2025-01-19T10:48:44Z</time>
      </trkpt>
      <trkpt lat="43.40036" lon="6.6416">
        <ele>185.4</ele>
        <time>2025-01-19T10:48:45Z</time>
      </trkpt>
      <trkpt lat="43.40036" lon="6.64159">
        <ele>185.4</ele>
        <time>2025-01-19T10:48:46Z</time>
      </trkpt>
      <trkpt lat="43.40036" lon="6.64159">
        <ele>185.4</ele>
        <time>2025-01-19T10:48:47Z</time>
      </trkpt>
      <trkpt lat="43.40036" lon="6.64159">
        <ele>185.3</ele>
        <time>2025-01-19T10:48:48Z</time>
      </trkpt>
      <trkpt lat="43.40036" lon="6.64159">
        <ele>185.2</ele>
        <time>2025-01-19T10:48:49Z</time>
      </trkpt>
      <trkpt lat="43.40036" lon="6.64159">
        <ele>185.1</ele>
        <time>2025-01-19T10:48:50Z</time>
      </trkpt>
      <trkpt lat="43.40036" lon="6.64159">
        <ele>185.1</ele>
        <time>2025-01-19T10:48:51Z</time>
      </trkpt>
      <trkpt lat="43.40036" lon="6.6416">
        <ele>185.2</ele>
        <time>2025-01-19T10:48:52Z</time>
      </trkpt>
      <trkpt lat="43.40036" lon="6.6416">
        <ele>185.2</ele>
        <time>2025-01-19T10:48:53Z</time>
      </trkpt>
      <trkpt lat="43.40036" lon="6.64159">
        <ele>185.3</ele>
        <time>2025-01-19T10:48:54Z</time>
      </trkpt>
      <trkpt lat="43.40036" lon="6.6416">
        <ele>185.2</ele>
        <time>2025-01-19T10:48:55Z</time>
      </trkpt>
      <trkpt lat="43.40036" lon="6.6416">
        <ele>185.2</ele>
        <time>2025-01-19T10:48:56Z</time>
      </trkpt>
      <trkpt lat="43.40036" lon="6.6416">
        <ele>185.2</ele>
        <time>2025-01-19T10:48:57Z</time>
      </trkpt>
      <trkpt lat="43.40036" lon="6.6416">
        <ele>185.2</ele>
        <time>2025-01-19T10:48:58Z</time>
      </trkpt>
      <trkpt lat="43.40036" lon="6.6416">
        <ele>185.3</ele>
        <time>2025-01-19T10:48:59Z</time>
      </trkpt>
      <trkpt lat="43.40036" lon="6.6416">
        <ele>185.4</ele>
        <time>2025-01-19T10:49:00Z</time>
      </trkpt>
      <trkpt lat="43.40036" lon="6.64159">
        <ele>185.4</ele>
        <time>2025-01-19T10:49:01Z</time>
      </trkpt>
      <trkpt lat="43.40036" lon="6.64159">
        <ele>185.5</ele>
        <time>2025-01-19T10:49:02Z</time>
      </trkpt>
      <trkpt lat="43.40036" lon="6.64159">
        <ele>185.5</ele>
        <time>2025-01-19T10:49:03Z</time>
      </trkpt>
      <trkpt lat="43.40036" lon="6.64158">
        <ele>185.5</ele>
        <time>2025-01-19T10:49:04Z</time>
      </trkpt>
      <trkpt lat="43.40036" lon="6.64158">
        <ele>185.5</ele>
        <time>2025-01-19T10:49:05Z</time>
      </trkpt>
      <trkpt lat="43.40035" lon="6.64158">
        <ele>185.5</ele>
        <time>2025-01-19T10:49:06Z</time>
      </trkpt>
      <trkpt lat="43.40034" lon="6.64157">
        <ele>185.5</ele>
        <time>2025-01-19T10:49:07Z</time>
      </trkpt>
      <trkpt lat="43.40033" lon="6.64156">
        <ele>185.5</ele>
        <time>2025-01-19T10:49:08Z</time>
      </trkpt>
      <trkpt lat="43.40033" lon="6.64156">
        <ele>185.6</ele>
        <time>2025-01-19T10:49:09Z</time>
      </trkpt>
      <trkpt lat="43.40032" lon="6.64155">
        <ele>185.5</ele>
        <time>2025-01-19T10:49:10Z</time>
      </trkpt>
      <trkpt lat="43.40032" lon="6.64155">
        <ele>185.4</ele>
        <time>2025-01-19T10:49:11Z</time>
      </trkpt>
      <trkpt lat="43.40032" lon="6.64154">
        <ele>185.3</ele>
        <time>2025-01-19T10:49:12Z</time>
      </trkpt>
      <trkpt lat="43.40031" lon="6.64153">
        <ele>185.3</ele>
        <time>2025-01-19T10:49:13Z</time>
      </trkpt>
      <trkpt lat="43.4003" lon="6.64152">
        <ele>185.2</ele>
        <time>2025-01-19T10:49:14Z</time>
      </trkpt>
      <trkpt lat="43.4003" lon="6.64151">
        <ele>185.2</ele>
        <time>2025-01-19T10:49:15Z</time>
      </trkpt>
      <trkpt lat="43.40029" lon="6.64151">
        <ele>185.1</ele>
        <time>2025-01-19T10:49:16Z</time>
      </trkpt>
      <trkpt lat="43.40029" lon="6.64149">
        <ele>185.2</ele>
        <time>2025-01-19T10:49:17Z</time>
      </trkpt>
      <trkpt lat="43.4003" lon="6.64148">
        <ele>185.2</ele>
        <time>2025-01-19T10:49:18Z</time>
      </trkpt>
      <trkpt lat="43.40031" lon="6.64147">
        <ele>185.2</ele>
        <time>2025-01-19T10:49:19Z</time>
      </trkpt>
      <trkpt lat="43.40031" lon="6.64147">
        <ele>185.3</ele>
        <time>2025-01-19T10:49:20Z</time>
      </trkpt>
      <trkpt lat="43.40031" lon="6.64147">
        <ele>185.4</ele>
        <time>2025-01-19T10:49:21Z</time>
      </trkpt>
      <trkpt lat="43.40032" lon="6.64147">
        <ele>185.5</ele>
        <time>2025-01-19T10:49:22Z</time>
      </trkpt>
      <trkpt lat="43.40032" lon="6.64147">
        <ele>185.6</ele>
        <time>2025-01-19T10:49:23Z</time>
      </trkpt>
      <trkpt lat="43.40032" lon="6.64148">
        <ele>185.7</ele>
        <time>2025-01-19T10:49:24Z</time>
      </trkpt>
      <trkpt lat="43.40032" lon="6.64148">
        <ele>185.8</ele>
        <time>2025-01-19T10:49:25Z</time>
      </trkpt>
      <trkpt lat="43.40032" lon="6.64148">
        <ele>185.9</ele>
        <time>2025-01-19T10:49:26Z</time>
      </trkpt>
      <trkpt lat="43.40032" lon="6.64148">
        <ele>186</ele>
        <time>2025-01-19T10:49:27Z</time>
      </trkpt>
      <trkpt lat="43.40032" lon="6.64149">
        <ele>186</ele>
        <time>2025-01-19T10:49:28Z</time>
      </trkpt>
      <trkpt lat="43.40032" lon="6.64149">
        <ele>186.1</ele>
        <time>2025-01-19T10:49:29Z</time>
      </trkpt>
      <trkpt lat="43.40032" lon="6.64149">
        <ele>186.1</ele>
        <time>2025-01-19T10:49:30Z</time>
      </trkpt>
      <trkpt lat="43.40032" lon="6.64149">
        <ele>186.1</ele>
        <time>2025-01-19T10:49:31Z</time>
      </trkpt>
      <trkpt lat="43.40032" lon="6.64149">
        <ele>186.1</ele>
        <time>2025-01-19T10:49:32Z</time>
      </trkpt>
      <trkpt lat="43.40032" lon="6.64149">
        <ele>186</ele>
        <time>2025-01-19T10:49:33Z</time>
      </trkpt>
      <trkpt lat="43.40032" lon="6.6415">
        <ele>186</ele>
        <time>2025-01-19T10:49:34Z</time>
      </trkpt>
      <trkpt lat="43.40032" lon="6.6415">
        <ele>186.1</ele>
        <time>2025-01-19T10:49:35Z</time>
      </trkpt>
      <trkpt lat="43.40032" lon="6.6415">
        <ele>186.1</ele>
        <time>2025-01-19T10:49:36Z</time>
      </trkpt>
      <trkpt lat="43.40032" lon="6.6415">
        <ele>186.1</ele>
        <time>2025-01-19T10:49:37Z</time>
      </trkpt>
      <trkpt lat="43.40033" lon="6.6415">
        <ele>186</ele>
        <time>2025-01-19T10:49:38Z</time>
      </trkpt>
      <trkpt lat="43.40033" lon="6.6415">
        <ele>185.9</ele>
        <time>2025-01-19T10:49:39Z</time>
      </trkpt>
      <trkpt lat="43.40033" lon="6.64151">
        <ele>185.9</ele>
        <time>2025-01-19T10:49:40Z</time>
      </trkpt>
      <trkpt lat="43.40033" lon="6.64151">
        <ele>185.8</ele>
        <time>2025-01-19T10:49:41Z</time>
      </trkpt>
      <trkpt lat="43.40033" lon="6.64151">
        <ele>186</ele>
        <time>2025-01-19T10:49:42Z</time>
      </trkpt>
      <trkpt lat="43.40033" lon="6.64151">
        <ele>186.1</ele>
        <time>2025-01-19T10:49:43Z</time>
      </trkpt>
      <trkpt lat="43.40033" lon="6.64151">
        <ele>186.1</ele>
        <time>2025-01-19T10:49:44Z</time>
      </trkpt>
      <trkpt lat="43.40033" lon="6.64151">
        <ele>186.2</ele>
        <time>2025-01-19T10:49:45Z</time>
      </trkpt>
      <trkpt lat="43.40033" lon="6.64151">
        <ele>186.2</ele>
        <time>2025-01-19T10:49:46Z</time>
      </trkpt>
      <trkpt lat="43.40033" lon="6.64151">
        <ele>186.2</ele>
        <time>2025-01-19T10:49:47Z</time>
      </trkpt>
      <trkpt lat="43.40033" lon="6.64151">
        <ele>186.2</ele>
        <time>2025-01-19T10:49:48Z</time>
      </trkpt>
      <trkpt lat="43.40033" lon="6.64151">
        <ele>186.2</ele>
        <time>2025-01-19T10:49:49Z</time>
      </trkpt>
      <trkpt lat="43.40033" lon="6.64152">
        <ele>186.1</ele>
        <time>2025-01-19T10:49:50Z</time>
      </trkpt>
      <trkpt lat="43.40033" lon="6.64151">
        <ele>186.2</ele>
        <time>2025-01-19T10:49:51Z</time>
      </trkpt>
      <trkpt lat="43.40033" lon="6.64152">
        <ele>186.2</ele>
        <time>2025-01-19T10:49:52Z</time>
      </trkpt>
      <trkpt lat="43.40033" lon="6.64151">
        <ele>186.1</ele>
        <time>2025-01-19T10:49:53Z</time>
      </trkpt>
      <trkpt lat="43.40033" lon="6.64151">
        <ele>186.1</ele>
        <time>2025-01-19T10:49:54Z</time>
      </trkpt>
      <trkpt lat="43.40033" lon="6.64151">
        <ele>186.1</ele>
        <time>2025-01-19T10:49:55Z</time>
      </trkpt>
      <trkpt lat="43.40033" lon="6.64151">
        <ele>186.1</ele>
        <time>2025-01-19T10:49:56Z</time>
      </trkpt>
      <trkpt lat="43.40033" lon="6.64151">
        <ele>186.1</ele>
        <time>2025-01-19T10:49:57Z</time>
      </trkpt>
      <trkpt lat="43.40033" lon="6.64151">
        <ele>186.1</ele>
        <time>2025-01-19T10:49:58Z</time>
      </trkpt>
      <trkpt lat="43.40033" lon="6.64151">
        <ele>186.1</ele>
        <time>2025-01-19T10:49:59Z</time>
      </trkpt>
      <trkpt lat="43.40033" lon="6.6415">
        <ele>186.2</ele>
        <time>2025-01-19T10:50:00Z</time>
      </trkpt>
      <trkpt lat="43.40033" lon="6.6415">
        <ele>186.2</ele>
        <time>2025-01-19T10:50:01Z</time>
      </trkpt>
      <trkpt lat="43.40033" lon="6.6415">
        <ele>186.3</ele>
        <time>2025-01-19T10:50:02Z</time>
      </trkpt>
      <trkpt lat="43.40032" lon="6.6415">
        <ele>186.3</ele>
        <time>2025-01-19T10:50:03Z</time>
      </trkpt>
      <trkpt lat="43.40032" lon="6.6415">
        <ele>186.3</ele>
        <time>2025-01-19T10:50:04Z</time>
      </trkpt>
      <trkpt lat="43.40032" lon="6.6415">
        <ele>186.3</ele>
        <time>2025-01-19T10:50:05Z</time>
      </trkpt>
      <trkpt lat="43.40031" lon="6.64151">
        <ele>186.3</ele>
        <time>2025-01-19T10:50:06Z</time>
      </trkpt>
      <trkpt lat="43.40031" lon="6.64151">
        <ele>186.2</ele>
        <time>2025-01-19T10:50:07Z</time>
      </trkpt>
      <trkpt lat="43.4003" lon="6.64151">
        <ele>186.2</ele>
        <time>2025-01-19T10:50:08Z</time>
      </trkpt>
      <trkpt lat="43.4003" lon="6.64151">
        <ele>186.2</ele>
        <time>2025-01-19T10:50:09Z</time>
      </trkpt>
      <trkpt lat="43.40029" lon="6.64151">
        <ele>186.1</ele>
        <time>2025-01-19T10:50:10Z</time>
      </trkpt>
      <trkpt lat="43.40029" lon="6.64151">
        <ele>186.1</ele>
        <time>2025-01-19T10:50:11Z</time>
      </trkpt>
      <trkpt lat="43.40029" lon="6.64151">
        <ele>186.1</ele>
        <time>2025-01-19T10:50:12Z</time>
      </trkpt>
      <trkpt lat="43.40028" lon="6.64151">
        <ele>186.1</ele>
        <time>2025-01-19T10:50:13Z</time>
      </trkpt>
      <trkpt lat="43.40028" lon="6.64152">
        <ele>186.1</ele>
        <time>2025-01-19T10:50:14Z</time>
      </trkpt>
      <trkpt lat="43.40028" lon="6.64152">
        <ele>186</ele>
        <time>2025-01-19T10:50:15Z</time>
      </trkpt>
      <trkpt lat="43.40028" lon="6.64152">
        <ele>186</ele>
        <time>2025-01-19T10:50:16Z</time>
      </trkpt>
      <trkpt lat="43.40029" lon="6.64152">
        <ele>186</ele>
        <time>2025-01-19T10:50:17Z</time>
      </trkpt>
      <trkpt lat="43.40029" lon="6.64152">
        <ele>186</ele>
        <time>2025-01-19T10:50:18Z</time>
      </trkpt>
      <trkpt lat="43.4003" lon="6.64152">
        <ele>185.9</ele>
        <time>2025-01-19T10:50:19Z</time>
      </trkpt>
      <trkpt lat="43.40029" lon="6.64152">
        <ele>185.9</ele>
        <time>2025-01-19T10:50:20Z</time>
      </trkpt>
      <trkpt lat="43.40029" lon="6.64152">
        <ele>185.9</ele>
        <time>2025-01-19T10:50:21Z</time>
      </trkpt>
      <trkpt lat="43.40029" lon="6.64152">
        <ele>185.8</ele>
        <time>2025-01-19T10:50:22Z</time>
      </trkpt>
      <trkpt lat="43.4003" lon="6.64152">
        <ele>185.8</ele>
        <time>2025-01-19T10:50:23Z</time>
      </trkpt>
      <trkpt lat="43.4003" lon="6.64153">
        <ele>185.8</ele>
        <time>2025-01-19T10:50:24Z</time>
      </trkpt>
      <trkpt lat="43.40031" lon="6.64154">
        <ele>185.8</ele>
        <time>2025-01-19T10:50:25Z</time>
      </trkpt>
      <trkpt lat="43.40032" lon="6.64154">
        <ele>185.9</ele>
        <time>2025-01-19T10:50:26Z</time>
      </trkpt>
      <trkpt lat="43.40032" lon="6.64155">
        <ele>185.9</ele>
        <time>2025-01-19T10:50:27Z</time>
      </trkpt>
      <trkpt lat="43.40033" lon="6.64155">
        <ele>185.9</ele>
        <time>2025-01-19T10:50:28Z</time>
      </trkpt>
      <trkpt lat="43.40034" lon="6.64156">
        <ele>186</ele>
        <time>2025-01-19T10:50:29Z</time>
      </trkpt>
      <trkpt lat="43.40034" lon="6.64157">
        <ele>186</ele>
        <time>2025-01-19T10:50:30Z</time>
      </trkpt>
      <trkpt lat="43.40035" lon="6.64157">
        <ele>185.8</ele>
        <time>2025-01-19T10:50:31Z</time>
      </trkpt>
      <trkpt lat="43.40035" lon="6.64158">
        <ele>185.8</ele>
        <time>2025-01-19T10:50:32Z</time>
      </trkpt>
      <trkpt lat="43.40036" lon="6.64159">
        <ele>185.7</ele>
        <time>2025-01-19T10:50:33Z</time>
      </trkpt>
      <trkpt lat="43.40037" lon="6.6416">
        <ele>185.7</ele>
        <time>2025-01-19T10:50:34Z</time>
      </trkpt>
      <trkpt lat="43.40036" lon="6.6416">
        <ele>185.7</ele>
        <time>2025-01-19T10:50:35Z</time>
      </trkpt>
      <trkpt lat="43.40037" lon="6.64161">
        <ele>185.7</ele>
        <time>2025-01-19T10:50:36Z</time>
      </trkpt>
      <trkpt lat="43.40038" lon="6.64161">
        <ele>185.7</ele>
        <time>2025-01-19T10:50:37Z</time>
      </trkpt>
      <trkpt lat="43.40038" lon="6.64162">
        <ele>185.7</ele>
        <time>2025-01-19T10:50:38Z</time>
      </trkpt>
      <trkpt lat="43.40039" lon="6.64163">
        <ele>185.8</ele>
        <time>2025-01-19T10:50:39Z</time>
      </trkpt>
      <trkpt lat="43.40039" lon="6.64163">
        <ele>185.8</ele>
        <time>2025-01-19T10:50:40Z</time>
      </trkpt>
      <trkpt lat="43.40039" lon="6.64164">
        <ele>185.9</ele>
        <time>2025-01-19T10:50:41Z</time>
      </trkpt>
      <trkpt lat="43.4004" lon="6.64164">
        <ele>185.9</ele>
        <time>2025-01-19T10:50:42Z</time>
      </trkpt>
      <trkpt lat="43.4004" lon="6.64165">
        <ele>185.9</ele>
        <time>2025-01-19T10:50:43Z</time>
      </trkpt>
      <trkpt lat="43.40041" lon="6.64166">
        <ele>185.9</ele>
        <time>2025-01-19T10:50:44Z</time>
      </trkpt>
      <trkpt lat="43.40041" lon="6.64167">
        <ele>186</ele>
        <time>2025-01-19T10:50:45Z</time>
      </trkpt>
      <trkpt lat="43.40042" lon="6.64166">
        <ele>186.1</ele>
        <time>2025-01-19T10:50:46Z</time>
      </trkpt>
      <trkpt lat="43.40042" lon="6.64166">
        <ele>186.2</ele>
        <time>2025-01-19T10:50:47Z</time>
      </trkpt>
      <trkpt lat="43.40041" lon="6.64166">
        <ele>186.2</ele>
        <time>2025-01-19T10:50:48Z</time>
      </trkpt>
      <trkpt lat="43.40041" lon="6.64167">
        <ele>186.2</ele>
        <time>2025-01-19T10:50:49Z</time>
      </trkpt>
      <trkpt lat="43.40041" lon="6.64167">
        <ele>186.3</ele>
        <time>2025-01-19T10:50:50Z</time>
      </trkpt>
      <trkpt lat="43.4004" lon="6.64167">
        <ele>186.3</ele>
        <time>2025-01-19T10:50:51Z</time>
      </trkpt>
      <trkpt lat="43.40041" lon="6.64167">
        <ele>186.4</ele>
        <time>2025-01-19T10:50:52Z</time>
      </trkpt>
      <trkpt lat="43.40041" lon="6.64167">
        <ele>186.4</ele>
        <time>2025-01-19T10:50:53Z</time>
      </trkpt>
      <trkpt lat="43.40041" lon="6.64167">
        <ele>186.4</ele>
        <time>2025-01-19T10:50:54Z</time>
      </trkpt>
      <trkpt lat="43.40041" lon="6.64167">
        <ele>186.3</ele>
        <time>2025-01-19T10:50:55Z</time>
      </trkpt>
      <trkpt lat="43.40041" lon="6.64167">
        <ele>186.3</ele>
        <time>2025-01-19T10:50:56Z</time>
      </trkpt>
      <trkpt lat="43.40041" lon="6.64167">
        <ele>186.2</ele>
        <time>2025-01-19T10:50:57Z</time>
      </trkpt>
      <trkpt lat="43.40041" lon="6.64167">
        <ele>186.2</ele>
        <time>2025-01-19T10:50:58Z</time>
      </trkpt>
      <trkpt lat="43.40041" lon="6.64167">
        <ele>186.2</ele>
        <time>2025-01-19T10:50:59Z</time>
      </trkpt>
      <trkpt lat="43.40041" lon="6.64167">
        <ele>186.1</ele>
        <time>2025-01-19T10:51:00Z</time>
      </trkpt>
      <trkpt lat="43.40041" lon="6.64168">
        <ele>186.1</ele>
        <time>2025-01-19T10:51:01Z</time>
      </trkpt>
      <trkpt lat="43.40041" lon="6.64167">
        <ele>186.2</ele>
        <time>2025-01-19T10:51:02Z</time>
      </trkpt>
      <trkpt lat="43.40041" lon="6.64167">
        <ele>186.2</ele>
        <time>2025-01-19T10:51:03Z</time>
      </trkpt>
      <trkpt lat="43.40042" lon="6.64167">
        <ele>186.2</ele>
        <time>2025-01-19T10:51:04Z</time>
      </trkpt>
      <trkpt lat="43.40042" lon="6.64167">
        <ele>186.2</ele>
        <time>2025-01-19T10:51:05Z</time>
      </trkpt>
      <trkpt lat="43.40042" lon="6.64167">
        <ele>186.1</ele>
        <time>2025-01-19T10:51:06Z</time>
      </trkpt>
      <trkpt lat="43.40042" lon="6.64167">
        <ele>186.1</ele>
        <time>2025-01-19T10:51:07Z</time>
      </trkpt>
      <trkpt lat="43.40042" lon="6.64167">
        <ele>186</ele>
        <time>2025-01-19T10:51:08Z</time>
      </trkpt>
      <trkpt lat="43.40042" lon="6.64167">
        <ele>186</ele>
        <time>2025-01-19T10:51:09Z</time>
      </trkpt>
      <trkpt lat="43.40042" lon="6.64167">
        <ele>185.9</ele>
        <time>2025-01-19T10:51:10Z</time>
      </trkpt>
      <trkpt lat="43.40042" lon="6.64167">
        <ele>185.9</ele>
        <time>2025-01-19T10:51:11Z</time>
      </trkpt>
      <trkpt lat="43.40042" lon="6.64167">
        <ele>185.8</ele>
        <time>2025-01-19T10:51:12Z</time>
      </trkpt>
      <trkpt lat="43.40042" lon="6.64167">
        <ele>185.9</ele>
        <time>2025-01-19T10:51:13Z</time>
      </trkpt>
      <trkpt lat="43.40042" lon="6.64167">
        <ele>185.9</ele>
        <time>2025-01-19T10:51:14Z</time>
      </trkpt>
      <trkpt lat="43.40042" lon="6.64168">
        <ele>186</ele>
        <time>2025-01-19T10:51:15Z</time>
      </trkpt>
      <trkpt lat="43.40042" lon="6.64168">
        <ele>186.1</ele>
        <time>2025-01-19T10:51:16Z</time>
      </trkpt>
      <trkpt lat="43.40042" lon="6.64168">
        <ele>186.1</ele>
        <time>2025-01-19T10:51:17Z</time>
      </trkpt>
      <trkpt lat="43.40042" lon="6.64168">
        <ele>186.1</ele>
        <time>2025-01-19T10:51:18Z</time>
      </trkpt>
      <trkpt lat="43.40042" lon="6.64168">
        <ele>186.1</ele>
        <time>2025-01-19T10:51:19Z</time>
      </trkpt>
      <trkpt lat="43.40042" lon="6.64168">
        <ele>186.1</ele>
        <time>2025-01-19T10:51:20Z</time>
      </trkpt>
      <trkpt lat="43.40042" lon="6.64168">
        <ele>186.1</ele>
        <time>2025-01-19T10:51:21Z</time>
      </trkpt>
      <trkpt lat="43.40042" lon="6.64168">
        <ele>186.1</ele>
        <time>2025-01-19T10:51:22Z</time>
      </trkpt>
      <trkpt lat="43.40042" lon="6.64167">
        <ele>186.1</ele>
        <time>2025-01-19T10:51:23Z</time>
      </trkpt>
      <trkpt lat="43.40042" lon="6.64167">
        <ele>186.1</ele>
        <time>2025-01-19T10:51:24Z</time>
      </trkpt>
      <trkpt lat="43.40042" lon="6.64167">
        <ele>186</ele>
        <time>2025-01-19T10:51:25Z</time>
      </trkpt>
      <trkpt lat="43.40042" lon="6.64167">
        <ele>186.1</ele>
        <time>2025-01-19T10:51:26Z</time>
      </trkpt>
      <trkpt lat="43.40042" lon="6.64167">
        <ele>186.2</ele>
        <time>2025-01-19T10:51:27Z</time>
      </trkpt>
      <trkpt lat="43.40042" lon="6.64167">
        <ele>186.3</ele>
        <time>2025-01-19T10:51:28Z</time>
      </trkpt>
      <trkpt lat="43.40042" lon="6.64167">
        <ele>186.3</ele>
        <time>2025-01-19T10:51:29Z</time>
      </trkpt>
      <trkpt lat="43.40042" lon="6.64167">
        <ele>186.4</ele>
        <time>2025-01-19T10:51:30Z</time>
      </trkpt>
      <trkpt lat="43.40042" lon="6.64167">
        <ele>186.4</ele>
        <time>2025-01-19T10:51:31Z</time>
      </trkpt>
      <trkpt lat="43.40042" lon="6.64167">
        <ele>186.5</ele>
        <time>2025-01-19T10:51:32Z</time>
      </trkpt>
      <trkpt lat="43.40042" lon="6.64167">
        <ele>186.5</ele>
        <time>2025-01-19T10:51:33Z</time>
      </trkpt>
      <trkpt lat="43.40042" lon="6.64167">
        <ele>186.5</ele>
        <time>2025-01-19T10:51:34Z</time>
      </trkpt>
      <trkpt lat="43.40042" lon="6.64167">
        <ele>186.6</ele>
        <time>2025-01-19T10:51:35Z</time>
      </trkpt>
      <trkpt lat="43.40042" lon="6.64167">
        <ele>186.6</ele>
        <time>2025-01-19T10:51:36Z</time>
      </trkpt>
      <trkpt lat="43.40042" lon="6.64167">
        <ele>186.6</ele>
        <time>2025-01-19T10:51:37Z</time>
      </trkpt>
      <trkpt lat="43.40042" lon="6.64167">
        <ele>186.6</ele>
        <time>2025-01-19T10:51:38Z</time>
      </trkpt>
      <trkpt lat="43.40042" lon="6.64167">
        <ele>186.6</ele>
        <time>2025-01-19T10:51:39Z</time>
      </trkpt>
      <trkpt lat="43.40042" lon="6.64167">
        <ele>186.6</ele>
        <time>2025-01-19T10:51:40Z</time>
      </trkpt>
      <trkpt lat="43.40042" lon="6.64167">
        <ele>186.6</ele>
        <time>2025-01-19T10:51:41Z</time>
      </trkpt>
      <trkpt lat="43.40042" lon="6.64167">
        <ele>186.6</ele>
        <time>2025-01-19T10:51:42Z</time>
      </trkpt>
      <trkpt lat="43.40042" lon="6.64166">
        <ele>186.5</ele>
        <time>2025-01-19T10:51:43Z</time>
      </trkpt>
      <trkpt lat="43.40042" lon="6.64166">
        <ele>186.5</ele>
        <time>2025-01-19T10:51:44Z</time>
      </trkpt>
      <trkpt lat="43.40042" lon="6.64166">
        <ele>186.5</ele>
        <time>2025-01-19T10:51:45Z</time>
      </trkpt>
      <trkpt lat="43.40042" lon="6.64166">
        <ele>186.5</ele>
        <time>2025-01-19T10:51:46Z</time>
      </trkpt>
      <trkpt lat="43.40042" lon="6.64166">
        <ele>186.5</ele>
        <time>2025-01-19T10:51:47Z</time>
      </trkpt>
      <trkpt lat="43.40041" lon="6.64166">
        <ele>186.4</ele>
        <time>2025-01-19T10:51:48Z</time>
      </trkpt>
      <trkpt lat="43.40041" lon="6.64166">
        <ele>186.4</ele>
        <time>2025-01-19T10:51:49Z</time>
      </trkpt>
      <trkpt lat="43.40041" lon="6.64166">
        <ele>186.4</ele>
        <time>2025-01-19T10:51:50Z</time>
      </trkpt>
      <trkpt lat="43.40041" lon="6.64166">
        <ele>186.4</ele>
        <time>2025-01-19T10:51:51Z</time>
      </trkpt>
      <trkpt lat="43.40041" lon="6.64166">
        <ele>186.4</ele>
        <time>2025-01-19T10:51:52Z</time>
      </trkpt>
      <trkpt lat="43.40041" lon="6.64166">
        <ele>186.4</ele>
        <time>2025-01-19T10:51:53Z</time>
      </trkpt>
      <trkpt lat="43.40041" lon="6.64166">
        <ele>186.3</ele>
        <time>2025-01-19T10:51:54Z</time>
      </trkpt>
      <trkpt lat="43.40041" lon="6.64166">
        <ele>186.3</ele>
        <time>2025-01-19T10:51:55Z</time>
      </trkpt>
      <trkpt lat="43.40041" lon="6.64166">
        <ele>186.3</ele>
        <time>2025-01-19T10:51:56Z</time>
      </trkpt>
      <trkpt lat="43.40041" lon="6.64166">
        <ele>186.3</ele>
        <time>2025-01-19T10:51:57Z</time>
      </trkpt>
      <trkpt lat="43.40041" lon="6.64166">
        <ele>186.4</ele>
        <time>2025-01-19T10:51:58Z</time>
      </trkpt>
      <trkpt lat="43.40041" lon="6.64166">
        <ele>186.4</ele>
        <time>2025-01-19T10:51:59Z</time>
      </trkpt>
      <trkpt lat="43.4004" lon="6.64166">
        <ele>186.4</ele>
        <time>2025-01-19T10:52:00Z</time>
      </trkpt>
      <trkpt lat="43.4004" lon="6.64167">
        <ele>186.4</ele>
        <time>2025-01-19T10:52:01Z</time>
      </trkpt>
      <trkpt lat="43.4004" lon="6.64167">
        <ele>186.5</ele>
        <time>2025-01-19T10:52:02Z</time>
      </trkpt>
      <trkpt lat="43.4004" lon="6.64167">
        <ele>186.5</ele>
        <time>2025-01-19T10:52:03Z</time>
      </trkpt>
      <trkpt lat="43.4004" lon="6.64168">
        <ele>186.5</ele>
        <time>2025-01-19T10:52:04Z</time>
      </trkpt>
      <trkpt lat="43.4004" lon="6.64167">
        <ele>186.5</ele>
        <time>2025-01-19T10:52:05Z</time>
      </trkpt>
      <trkpt lat="43.4004" lon="6.64168">
        <ele>186.5</ele>
        <time>2025-01-19T10:52:06Z</time>
      </trkpt>
      <trkpt lat="43.4004" lon="6.64168">
        <ele>186.5</ele>
        <time>2025-01-19T10:52:07Z</time>
      </trkpt>
      <trkpt lat="43.4004" lon="6.64168">
        <ele>186.5</ele>
        <time>2025-01-19T10:52:08Z</time>
      </trkpt>
      <trkpt lat="43.40039" lon="6.64168">
        <ele>186.4</ele>
        <time>2025-01-19T10:52:09Z</time>
      </trkpt>
      <trkpt lat="43.40039" lon="6.64169">
        <ele>186.4</ele>
        <time>2025-01-19T10:52:10Z</time>
      </trkpt>
      <trkpt lat="43.40039" lon="6.64169">
        <ele>186.4</ele>
        <time>2025-01-19T10:52:11Z</time>
      </trkpt>
      <trkpt lat="43.40039" lon="6.64169">
        <ele>186.3</ele>
        <time>2025-01-19T10:52:12Z</time>
      </trkpt>
      <trkpt lat="43.40039" lon="6.6417">
        <ele>186.3</ele>
        <time>2025-01-19T10:52:13Z</time>
      </trkpt>
      <trkpt lat="43.40038" lon="6.6417">
        <ele>186.3</ele>
        <time>2025-01-19T10:52:14Z</time>
      </trkpt>
      <trkpt lat="43.40038" lon="6.6417">
        <ele>186.3</ele>
        <time>2025-01-19T10:52:15Z</time>
      </trkpt>
      <trkpt lat="43.40039" lon="6.6417">
        <ele>186.4</ele>
        <time>2025-01-19T10:52:16Z</time>
      </trkpt>
      <trkpt lat="43.40039" lon="6.64169">
        <ele>186.4</ele>
        <time>2025-01-19T10:52:17Z</time>
      </trkpt>
      <trkpt lat="43.40039" lon="6.6417">
        <ele>186.5</ele>
        <time>2025-01-19T10:52:18Z</time>
      </trkpt>
      <trkpt lat="43.40039" lon="6.6417">
        <ele>186.5</ele>
        <time>2025-01-19T10:52:19Z</time>
      </trkpt>
      <trkpt lat="43.40039" lon="6.6417">
        <ele>186.5</ele>
        <time>2025-01-19T10:52:20Z</time>
      </trkpt>
      <trkpt lat="43.40039" lon="6.6417">
        <ele>186.5</ele>
        <time>2025-01-19T10:52:21Z</time>
      </trkpt>
      <trkpt lat="43.40039" lon="6.6417">
        <ele>186.5</ele>
        <time>2025-01-19T10:52:22Z</time>
      </trkpt>
      <trkpt lat="43.40039" lon="6.6417">
        <ele>186.4</ele>
        <time>2025-01-19T10:52:23Z</time>
      </trkpt>
      <trkpt lat="43.40039" lon="6.6417">
        <ele>186.4</ele>
        <time>2025-01-19T10:52:24Z</time>
      </trkpt>
      <trkpt lat="43.40039" lon="6.64169">
        <ele>186.3</ele>
        <time>2025-01-19T10:52:25Z</time>
      </trkpt>
      <trkpt lat="43.40039" lon="6.64169">
        <ele>186.3</ele>
        <time>2025-01-19T10:52:26Z</time>
      </trkpt>
      <trkpt lat="43.40039" lon="6.64169">
        <ele>186.3</ele>
        <time>2025-01-19T10:52:27Z</time>
      </trkpt>
      <trkpt lat="43.40039" lon="6.64169">
        <ele>186.3</ele>
        <time>2025-01-19T10:52:28Z</time>
      </trkpt>
      <trkpt lat="43.40039" lon="6.64169">
        <ele>186.3</ele>
        <time>2025-01-19T10:52:29Z</time>
      </trkpt>
      <trkpt lat="43.40038" lon="6.64169">
        <ele>186.4</ele>
        <time>2025-01-19T10:52:30Z</time>
      </trkpt>
      <trkpt lat="43.40038" lon="6.64169">
        <ele>186.3</ele>
        <time>2025-01-19T10:52:31Z</time>
      </trkpt>
      <trkpt lat="43.40038" lon="6.64169">
        <ele>186.3</ele>
        <time>2025-01-19T10:52:32Z</time>
      </trkpt>
      <trkpt lat="43.40038" lon="6.64169">
        <ele>186.3</ele>
        <time>2025-01-19T10:52:33Z</time>
      </trkpt>
      <trkpt lat="43.40039" lon="6.64168">
        <ele>186.3</ele>
        <time>2025-01-19T10:52:34Z</time>
      </trkpt>
      <trkpt lat="43.40039" lon="6.64168">
        <ele>186.4</ele>
        <time>2025-01-19T10:52:35Z</time>
      </trkpt>
      <trkpt lat="43.40039" lon="6.64169">
        <ele>186.5</ele>
        <time>2025-01-19T10:52:36Z</time>
      </trkpt>
      <trkpt lat="43.40041" lon="6.64168">
        <ele>186.5</ele>
        <time>2025-01-19T10:52:37Z</time>
      </trkpt>
      <trkpt lat="43.40041" lon="6.64168">
        <ele>186.4</ele>
        <time>2025-01-19T10:52:38Z</time>
      </trkpt>
      <trkpt lat="43.40041" lon="6.6417">
        <ele>186.4</ele>
        <time>2025-01-19T10:52:39Z</time>
      </trkpt>
      <trkpt lat="43.40041" lon="6.64171">
        <ele>186.4</ele>
        <time>2025-01-19T10:52:40Z</time>
      </trkpt>
      <trkpt lat="43.40041" lon="6.64171">
        <ele>186.4</ele>
        <time>2025-01-19T10:52:41Z</time>
      </trkpt>
      <trkpt lat="43.40042" lon="6.64172">
        <ele>186.4</ele>
        <time>2025-01-19T10:52:42Z</time>
      </trkpt>
      <trkpt lat="43.40043" lon="6.64173">
        <ele>186.3</ele>
        <time>2025-01-19T10:52:43Z</time>
      </trkpt>
      <trkpt lat="43.40043" lon="6.64174">
        <ele>186.3</ele>
        <time>2025-01-19T10:52:44Z</time>
      </trkpt>
      <trkpt lat="43.40044" lon="6.64176">
        <ele>186.3</ele>
        <time>2025-01-19T10:52:45Z</time>
      </trkpt>
      <trkpt lat="43.40044" lon="6.64177">
        <ele>186.3</ele>
        <time>2025-01-19T10:52:46Z</time>
      </trkpt>
      <trkpt lat="43.40044" lon="6.64179">
        <ele>186.3</ele>
        <time>2025-01-19T10:52:47Z</time>
      </trkpt>
      <trkpt lat="43.40044" lon="6.6418">
        <ele>186.3</ele>
        <time>2025-01-19T10:52:48Z</time>
      </trkpt>
      <trkpt lat="43.40044" lon="6.64182">
        <ele>186.4</ele>
        <time>2025-01-19T10:52:49Z</time>
      </trkpt>
      <trkpt lat="43.40045" lon="6.64183">
        <ele>186.5</ele>
        <time>2025-01-19T10:52:50Z</time>
      </trkpt>
      <trkpt lat="43.40046" lon="6.64184">
        <ele>186.7</ele>
        <time>2025-01-19T10:52:51Z</time>
      </trkpt>
      <trkpt lat="43.40047" lon="6.64185">
        <ele>186.8</ele>
        <time>2025-01-19T10:52:52Z</time>
      </trkpt>
      <trkpt lat="43.40047" lon="6.64186">
        <ele>186.9</ele>
        <time>2025-01-19T10:52:53Z</time>
      </trkpt>
      <trkpt lat="43.40047" lon="6.64187">
        <ele>187</ele>
        <time>2025-01-19T10:52:54Z</time>
      </trkpt>
      <trkpt lat="43.40048" lon="6.64188">
        <ele>187</ele>
        <time>2025-01-19T10:52:55Z</time>
      </trkpt>
      <trkpt lat="43.40048" lon="6.6419">
        <ele>187.1</ele>
        <time>2025-01-19T10:52:56Z</time>
      </trkpt>
      <trkpt lat="43.40048" lon="6.64191">
        <ele>187.2</ele>
        <time>2025-01-19T10:52:57Z</time>
      </trkpt>
      <trkpt lat="43.40048" lon="6.64192">
        <ele>187.2</ele>
        <time>2025-01-19T10:52:58Z</time>
      </trkpt>
      <trkpt lat="43.40047" lon="6.64194">
        <ele>187.3</ele>
        <time>2025-01-19T10:52:59Z</time>
      </trkpt>
      <trkpt lat="43.40047" lon="6.64195">
        <ele>187.3</ele>
        <time>2025-01-19T10:53:00Z</time>
      </trkpt>
      <trkpt lat="43.40047" lon="6.64196">
        <ele>187.6</ele>
        <time>2025-01-19T10:53:01Z</time>
      </trkpt>
      <trkpt lat="43.40047" lon="6.64198">
        <ele>187.7</ele>
        <time>2025-01-19T10:53:02Z</time>
      </trkpt>
      <trkpt lat="43.40047" lon="6.64199">
        <ele>187.7</ele>
        <time>2025-01-19T10:53:03Z</time>
      </trkpt>
      <trkpt lat="43.40048" lon="6.64199">
        <ele>187.7</ele>
        <time>2025-01-19T10:53:04Z</time>
      </trkpt>
      <trkpt lat="43.40048" lon="6.642">
        <ele>187.7</ele>
        <time>2025-01-19T10:53:05Z</time>
      </trkpt>
      <trkpt lat="43.40048" lon="6.64201">
        <ele>187.7</ele>
        <time>2025-01-19T10:53:06Z</time>
      </trkpt>
      <trkpt lat="43.40048" lon="6.64201">
        <ele>187.8</ele>
        <time>2025-01-19T10:53:07Z</time>
      </trkpt>
      <trkpt lat="43.40048" lon="6.64202">
        <ele>187.8</ele>
        <time>2025-01-19T10:53:08Z</time>
      </trkpt>
      <trkpt lat="43.40047" lon="6.64203">
        <ele>187.8</ele>
        <time>2025-01-19T10:53:09Z</time>
      </trkpt>
      <trkpt lat="43.40047" lon="6.64204">
        <ele>187.8</ele>
        <time>2025-01-19T10:53:10Z</time>
      </trkpt>
      <trkpt lat="43.40047" lon="6.64205">
        <ele>187.9</ele>
        <time>2025-01-19T10:53:11Z</time>
      </trkpt>
      <trkpt lat="43.40046" lon="6.64206">
        <ele>187.9</ele>
        <time>2025-01-19T10:53:12Z</time>
      </trkpt>
      <trkpt lat="43.40047" lon="6.64206">
        <ele>187.9</ele>
        <time>2025-01-19T10:53:13Z</time>
      </trkpt>
      <trkpt lat="43.40047" lon="6.64207">
        <ele>188</ele>
        <time>2025-01-19T10:53:14Z</time>
      </trkpt>
      <trkpt lat="43.40046" lon="6.64207">
        <ele>188.1</ele>
        <time>2025-01-19T10:53:15Z</time>
      </trkpt>
      <trkpt lat="43.40046" lon="6.64208">
        <ele>188.2</ele>
        <time>2025-01-19T10:53:16Z</time>
      </trkpt>
      <trkpt lat="43.40046" lon="6.64209">
        <ele>188.3</ele>
        <time>2025-01-19T10:53:17Z</time>
      </trkpt>
      <trkpt lat="43.40045" lon="6.64211">
        <ele>188.4</ele>
        <time>2025-01-19T10:53:18Z</time>
      </trkpt>
      <trkpt lat="43.40044" lon="6.64212">
        <ele>188.4</ele>
        <time>2025-01-19T10:53:19Z</time>
      </trkpt>
      <trkpt lat="43.40044" lon="6.64213">
        <ele>188.5</ele>
        <time>2025-01-19T10:53:20Z</time>
      </trkpt>
      <trkpt lat="43.40044" lon="6.64214">
        <ele>188.6</ele>
        <time>2025-01-19T10:53:21Z</time>
      </trkpt>
      <trkpt lat="43.40044" lon="6.64215">
        <ele>188.7</ele>
        <time>2025-01-19T10:53:22Z</time>
      </trkpt>
      <trkpt lat="43.40044" lon="6.64216">
        <ele>188.6</ele>
        <time>2025-01-19T10:53:23Z</time>
      </trkpt>
      <trkpt lat="43.40045" lon="6.64217">
        <ele>188.6</ele>
        <time>2025-01-19T10:53:24Z</time>
      </trkpt>
      <trkpt lat="43.40045" lon="6.64218">
        <ele>188.6</ele>
        <time>2025-01-19T10:53:25Z</time>
      </trkpt>
      <trkpt lat="43.40045" lon="6.64218">
        <ele>188.7</ele>
        <time>2025-01-19T10:53:26Z</time>
      </trkpt>
      <trkpt lat="43.40046" lon="6.64218">
        <ele>188.7</ele>
        <time>2025-01-19T10:53:27Z</time>
      </trkpt>
      <trkpt lat="43.40047" lon="6.64218">
        <ele>188.8</ele>
        <time>2025-01-19T10:53:28Z</time>
      </trkpt>
      <trkpt lat="43.40047" lon="6.64219">
        <ele>188.9</ele>
        <time>2025-01-19T10:53:29Z</time>
      </trkpt>
      <trkpt lat="43.40047" lon="6.64219">
        <ele>188.9</ele>
        <time>2025-01-19T10:53:30Z</time>
      </trkpt>
      <trkpt lat="43.40047" lon="6.6422">
        <ele>189</ele>
        <time>2025-01-19T10:53:31Z</time>
      </trkpt>
      <trkpt lat="43.40048" lon="6.64221">
        <ele>189.1</ele>
        <time>2025-01-19T10:53:32Z</time>
      </trkpt>
      <trkpt lat="43.40048" lon="6.64221">
        <ele>189.3</ele>
        <time>2025-01-19T10:53:33Z</time>
      </trkpt>
      <trkpt lat="43.40048" lon="6.64222">
        <ele>189.4</ele>
        <time>2025-01-19T10:53:34Z</time>
      </trkpt>
      <trkpt lat="43.40048" lon="6.64223">
        <ele>189.4</ele>
        <time>2025-01-19T10:53:35Z</time>
      </trkpt>
      <trkpt lat="43.40049" lon="6.64224">
        <ele>189.5</ele>
        <time>2025-01-19T10:53:36Z</time>
      </trkpt>
      <trkpt lat="43.40049" lon="6.64224">
        <ele>189.5</ele>
        <time>2025-01-19T10:53:37Z</time>
      </trkpt>
      <trkpt lat="43.40049" lon="6.64225">
        <ele>189.6</ele>
        <time>2025-01-19T10:53:38Z</time>
      </trkpt>
      <trkpt lat="43.40049" lon="6.64226">
        <ele>189.6</ele>
        <time>2025-01-19T10:53:39Z</time>
      </trkpt>
      <trkpt lat="43.40049" lon="6.64227">
        <ele>189.7</ele>
        <time>2025-01-19T10:53:40Z</time>
      </trkpt>
      <trkpt lat="43.4005" lon="6.64228">
        <ele>189.7</ele>
        <time>2025-01-19T10:53:41Z</time>
      </trkpt>
      <trkpt lat="43.4005" lon="6.64229">
        <ele>189.7</ele>
        <time>2025-01-19T10:53:42Z</time>
      </trkpt>
      <trkpt lat="43.4005" lon="6.6423">
        <ele>189.7</ele>
        <time>2025-01-19T10:53:43Z</time>
      </trkpt>
      <trkpt lat="43.4005" lon="6.64231">
        <ele>189.7</ele>
        <time>2025-01-19T10:53:44Z</time>
      </trkpt>
      <trkpt lat="43.40051" lon="6.64232">
        <ele>189.7</ele>
        <time>2025-01-19T10:53:45Z</time>
      </trkpt>
      <trkpt lat="43.40051" lon="6.64233">
        <ele>189.7</ele>
        <time>2025-01-19T10:53:46Z</time>
      </trkpt>
      <trkpt lat="43.40052" lon="6.64233">
        <ele>189.7</ele>
        <time>2025-01-19T10:53:47Z</time>
      </trkpt>
      <trkpt lat="43.40053" lon="6.64235">
        <ele>189.8</ele>
        <time>2025-01-19T10:53:48Z</time>
      </trkpt>
      <trkpt lat="43.40054" lon="6.64236">
        <ele>189.8</ele>
        <time>2025-01-19T10:53:49Z</time>
      </trkpt>
      <trkpt lat="43.40055" lon="6.64237">
        <ele>189.8</ele>
        <time>2025-01-19T10:53:50Z</time>
      </trkpt>
      <trkpt lat="43.40055" lon="6.64238">
        <ele>189.8</ele>
        <time>2025-01-19T10:53:51Z</time>
      </trkpt>
      <trkpt lat="43.40057" lon="6.64239">
        <ele>189.8</ele>
        <time>2025-01-19T10:53:52Z</time>
      </trkpt>
      <trkpt lat="43.40058" lon="6.64239">
        <ele>189.8</ele>
        <time>2025-01-19T10:53:53Z</time>
      </trkpt>
      <trkpt lat="43.40059" lon="6.64239">
        <ele>189.8</ele>
        <time>2025-01-19T10:53:54Z</time>
      </trkpt>
      <trkpt lat="43.4006" lon="6.6424">
        <ele>189.9</ele>
        <time>2025-01-19T10:53:55Z</time>
      </trkpt>
      <trkpt lat="43.40061" lon="6.64242">
        <ele>190</ele>
        <time>2025-01-19T10:53:56Z</time>
      </trkpt>
      <trkpt lat="43.40062" lon="6.64242">
        <ele>190</ele>
        <time>2025-01-19T10:53:57Z</time>
      </trkpt>
      <trkpt lat="43.40061" lon="6.64243">
        <ele>190.1</ele>
        <time>2025-01-19T10:53:58Z</time>
      </trkpt>
      <trkpt lat="43.40061" lon="6.64244">
        <ele>190.2</ele>
        <time>2025-01-19T10:53:59Z</time>
      </trkpt>
      <trkpt lat="43.40062" lon="6.64245">
        <ele>190.2</ele>
        <time>2025-01-19T10:54:00Z</time>
      </trkpt>
      <trkpt lat="43.40062" lon="6.64245">
        <ele>190.3</ele>
        <time>2025-01-19T10:54:01Z</time>
      </trkpt>
      <trkpt lat="43.40063" lon="6.64245">
        <ele>190.3</ele>
        <time>2025-01-19T10:54:02Z</time>
      </trkpt>
      <trkpt lat="43.40063" lon="6.64246">
        <ele>190.4</ele>
        <time>2025-01-19T10:54:03Z</time>
      </trkpt>
      <trkpt lat="43.40063" lon="6.64245">
        <ele>190.5</ele>
        <time>2025-01-19T10:54:04Z</time>
      </trkpt>
      <trkpt lat="43.40064" lon="6.64245">
        <ele>190.6</ele>
        <time>2025-01-19T10:54:05Z</time>
      </trkpt>
      <trkpt lat="43.40064" lon="6.64246">
        <ele>190.7</ele>
        <time>2025-01-19T10:54:06Z</time>
      </trkpt>
      <trkpt lat="43.40065" lon="6.64246">
        <ele>190.7</ele>
        <time>2025-01-19T10:54:07Z</time>
      </trkpt>
      <trkpt lat="43.40065" lon="6.64246">
        <ele>190.8</ele>
        <time>2025-01-19T10:54:08Z</time>
      </trkpt>
      <trkpt lat="43.40065" lon="6.64247">
        <ele>190.9</ele>
        <time>2025-01-19T10:54:09Z</time>
      </trkpt>
      <trkpt lat="43.40066" lon="6.64248">
        <ele>191.1</ele>
        <time>2025-01-19T10:54:10Z</time>
      </trkpt>
      <trkpt lat="43.40066" lon="6.64248">
        <ele>191.3</ele>
        <time>2025-01-19T10:54:11Z</time>
      </trkpt>
      <trkpt lat="43.40065" lon="6.64248">
        <ele>191.5</ele>
        <time>2025-01-19T10:54:12Z</time>
      </trkpt>
      <trkpt lat="43.40066" lon="6.64249">
        <ele>191.5</ele>
        <time>2025-01-19T10:54:13Z</time>
      </trkpt>
      <trkpt lat="43.40068" lon="6.6425">
        <ele>191.6</ele>
        <time>2025-01-19T10:54:14Z</time>
      </trkpt>
      <trkpt lat="43.40068" lon="6.6425">
        <ele>191.6</ele>
        <time>2025-01-19T10:54:15Z</time>
      </trkpt>
      <trkpt lat="43.40069" lon="6.64251">
        <ele>191.8</ele>
        <time>2025-01-19T10:54:16Z</time>
      </trkpt>
      <trkpt lat="43.40069" lon="6.64251">
        <ele>191.9</ele>
        <time>2025-01-19T10:54:17Z</time>
      </trkpt>
      <trkpt lat="43.4007" lon="6.64252">
        <ele>192.1</ele>
        <time>2025-01-19T10:54:18Z</time>
      </trkpt>
      <trkpt lat="43.4007" lon="6.64253">
        <ele>192.2</ele>
        <time>2025-01-19T10:54:19Z</time>
      </trkpt>
      <trkpt lat="43.40071" lon="6.64254">
        <ele>192.4</ele>
        <time>2025-01-19T10:54:20Z</time>
      </trkpt>
      <trkpt lat="43.40071" lon="6.64255">
        <ele>192.3</ele>
        <time>2025-01-19T10:54:21Z</time>
      </trkpt>
      <trkpt lat="43.40072" lon="6.64255">
        <ele>192.4</ele>
        <time>2025-01-19T10:54:22Z</time>
      </trkpt>
      <trkpt lat="43.40073" lon="6.64256">
        <ele>192.5</ele>
        <time>2025-01-19T10:54:23Z</time>
      </trkpt>
      <trkpt lat="43.40072" lon="6.64257">
        <ele>192.7</ele>
        <time>2025-01-19T10:54:24Z</time>
      </trkpt>
      <trkpt lat="43.40072" lon="6.64257">
        <ele>192.8</ele>
        <time>2025-01-19T10:54:25Z</time>
      </trkpt>
      <trkpt lat="43.40072" lon="6.64258">
        <ele>193</ele>
        <time>2025-01-19T10:54:26Z</time>
      </trkpt>
      <trkpt lat="43.40072" lon="6.64258">
        <ele>193.2</ele>
        <time>2025-01-19T10:54:27Z</time>
      </trkpt>
      <trkpt lat="43.40072" lon="6.64258">
        <ele>193.4</ele>
        <time>2025-01-19T10:54:28Z</time>
      </trkpt>
      <trkpt lat="43.40072" lon="6.64259">
        <ele>193.6</ele>
        <time>2025-01-19T10:54:29Z</time>
      </trkpt>
      <trkpt lat="43.40071" lon="6.6426">
        <ele>193.8</ele>
        <time>2025-01-19T10:54:30Z</time>
      </trkpt>
      <trkpt lat="43.40071" lon="6.6426">
        <ele>193.9</ele>
        <time>2025-01-19T10:54:31Z</time>
      </trkpt>
      <trkpt lat="43.40071" lon="6.64261">
        <ele>194.1</ele>
        <time>2025-01-19T10:54:32Z</time>
      </trkpt>
      <trkpt lat="43.40071" lon="6.64262">
        <ele>194.3</ele>
        <time>2025-01-19T10:54:33Z</time>
      </trkpt>
      <trkpt lat="43.40071" lon="6.64262">
        <ele>194.5</ele>
        <time>2025-01-19T10:54:34Z</time>
      </trkpt>
      <trkpt lat="43.4007" lon="6.64263">
        <ele>194.7</ele>
        <time>2025-01-19T10:54:35Z</time>
      </trkpt>
      <trkpt lat="43.4007" lon="6.64263">
        <ele>194.9</ele>
        <time>2025-01-19T10:54:36Z</time>
      </trkpt>
      <trkpt lat="43.40069" lon="6.64264">
        <ele>195.1</ele>
        <time>2025-01-19T10:54:37Z</time>
      </trkpt>
      <trkpt lat="43.40069" lon="6.64264">
        <ele>195.3</ele>
        <time>2025-01-19T10:54:38Z</time>
      </trkpt>
      <trkpt lat="43.40069" lon="6.64265">
        <ele>195.4</ele>
        <time>2025-01-19T10:54:39Z</time>
      </trkpt>
      <trkpt lat="43.40069" lon="6.64266">
        <ele>195.7</ele>
        <time>2025-01-19T10:54:40Z</time>
      </trkpt>
      <trkpt lat="43.40069" lon="6.64267">
        <ele>195.9</ele>
        <time>2025-01-19T10:54:41Z</time>
      </trkpt>
      <trkpt lat="43.4007" lon="6.64268">
        <ele>196.1</ele>
        <time>2025-01-19T10:54:42Z</time>
      </trkpt>
      <trkpt lat="43.4007" lon="6.64269">
        <ele>196.2</ele>
        <time>2025-01-19T10:54:43Z</time>
      </trkpt>
      <trkpt lat="43.4007" lon="6.6427">
        <ele>196.3</ele>
        <time>2025-01-19T10:54:44Z</time>
      </trkpt>
      <trkpt lat="43.4007" lon="6.6427">
        <ele>196.5</ele>
        <time>2025-01-19T10:54:45Z</time>
      </trkpt>
      <trkpt lat="43.4007" lon="6.64271">
        <ele>196.7</ele>
        <time>2025-01-19T10:54:46Z</time>
      </trkpt>
      <trkpt lat="43.4007" lon="6.64272">
        <ele>196.8</ele>
        <time>2025-01-19T10:54:47Z</time>
      </trkpt>
      <trkpt lat="43.4007" lon="6.64273">
        <ele>197</ele>
        <time>2025-01-19T10:54:48Z</time>
      </trkpt>
      <trkpt lat="43.4007" lon="6.64274">
        <ele>197.3</ele>
        <time>2025-01-19T10:54:49Z</time>
      </trkpt>
      <trkpt lat="43.4007" lon="6.64275">
        <ele>197.4</ele>
        <time>2025-01-19T10:54:50Z</time>
      </trkpt>
      <trkpt lat="43.4007" lon="6.64276">
        <ele>197.6</ele>
        <time>2025-01-19T10:54:51Z</time>
      </trkpt>
      <trkpt lat="43.40071" lon="6.64276">
        <ele>197.7</ele>
        <time>2025-01-19T10:54:52Z</time>
      </trkpt>
      <trkpt lat="43.40071" lon="6.64277">
        <ele>197.7</ele>
        <time>2025-01-19T10:54:53Z</time>
      </trkpt>
      <trkpt lat="43.40071" lon="6.64278">
        <ele>197.8</ele>
        <time>2025-01-19T10:54:54Z</time>
      </trkpt>
      <trkpt lat="43.40071" lon="6.64278">
        <ele>197.9</ele>
        <time>2025-01-19T10:54:55Z</time>
      </trkpt>
      <trkpt lat="43.40071" lon="6.64279">
        <ele>197.9</ele>
        <time>2025-01-19T10:54:56Z</time>
      </trkpt>
      <trkpt lat="43.40071" lon="6.6428">
        <ele>198</ele>
        <time>2025-01-19T10:54:57Z</time>
      </trkpt>
      <trkpt lat="43.40071" lon="6.64281">
        <ele>198.1</ele>
        <time>2025-01-19T10:54:58Z</time>
      </trkpt>
      <trkpt lat="43.4007" lon="6.64281">
        <ele>198.3</ele>
        <time>2025-01-19T10:54:59Z</time>
      </trkpt>
      <trkpt lat="43.4007" lon="6.64282">
        <ele>198.4</ele>
        <time>2025-01-19T10:55:00Z</time>
      </trkpt>
      <trkpt lat="43.4007" lon="6.64282">
        <ele>198.6</ele>
        <time>2025-01-19T10:55:01Z</time>
      </trkpt>
      <trkpt lat="43.4007" lon="6.64283">
        <ele>198.6</ele>
        <time>2025-01-19T10:55:02Z</time>
      </trkpt>
      <trkpt lat="43.4007" lon="6.64283">
        <ele>198.9</ele>
        <time>2025-01-19T10:55:03Z</time>
      </trkpt>
      <trkpt lat="43.40069" lon="6.64284">
        <ele>199.1</ele>
        <time>2025-01-19T10:55:04Z</time>
      </trkpt>
      <trkpt lat="43.40069" lon="6.64284">
        <ele>199.3</ele>
        <time>2025-01-19T10:55:05Z</time>
      </trkpt>
      <trkpt lat="43.40069" lon="6.64284">
        <ele>199.5</ele>
        <time>2025-01-19T10:55:06Z</time>
      </trkpt>
      <trkpt lat="43.40069" lon="6.64285">
        <ele>199.7</ele>
        <time>2025-01-19T10:55:07Z</time>
      </trkpt>
      <trkpt lat="43.40068" lon="6.64287">
        <ele>199.8</ele>
        <time>2025-01-19T10:55:08Z</time>
      </trkpt>
      <trkpt lat="43.40068" lon="6.64287">
        <ele>200</ele>
        <time>2025-01-19T10:55:09Z</time>
      </trkpt>
      <trkpt lat="43.40067" lon="6.64287">
        <ele>200</ele>
        <time>2025-01-19T10:55:10Z</time>
      </trkpt>
      <trkpt lat="43.40067" lon="6.64288">
        <ele>200.1</ele>
        <time>2025-01-19T10:55:11Z</time>
      </trkpt>
      <trkpt lat="43.40066" lon="6.64288">
        <ele>200.2</ele>
        <time>2025-01-19T10:55:12Z</time>
      </trkpt>
      <trkpt lat="43.40065" lon="6.64288">
        <ele>200.3</ele>
        <time>2025-01-19T10:55:13Z</time>
      </trkpt>
      <trkpt lat="43.40064" lon="6.64289">
        <ele>200.3</ele>
        <time>2025-01-19T10:55:14Z</time>
      </trkpt>
      <trkpt lat="43.40064" lon="6.6429">
        <ele>200.4</ele>
        <time>2025-01-19T10:55:15Z</time>
      </trkpt>
      <trkpt lat="43.40064" lon="6.64291">
        <ele>200.5</ele>
        <time>2025-01-19T10:55:16Z</time>
      </trkpt>
      <trkpt lat="43.40063" lon="6.64292">
        <ele>200.5</ele>
        <time>2025-01-19T10:55:17Z</time>
      </trkpt>
      <trkpt lat="43.40063" lon="6.64293">
        <ele>200.6</ele>
        <time>2025-01-19T10:55:18Z</time>
      </trkpt>
      <trkpt lat="43.40063" lon="6.64294">
        <ele>200.6</ele>
        <time>2025-01-19T10:55:19Z</time>
      </trkpt>
      <trkpt lat="43.40063" lon="6.64296">
        <ele>200.6</ele>
        <time>2025-01-19T10:55:20Z</time>
      </trkpt>
      <trkpt lat="43.40063" lon="6.64298">
        <ele>200.7</ele>
        <time>2025-01-19T10:55:21Z</time>
      </trkpt>
      <trkpt lat="43.40063" lon="6.64299">
        <ele>200.8</ele>
        <time>2025-01-19T10:55:22Z</time>
      </trkpt>
      <trkpt lat="43.40063" lon="6.643">
        <ele>200.9</ele>
        <time>2025-01-19T10:55:23Z</time>
      </trkpt>
      <trkpt lat="43.40063" lon="6.64302">
        <ele>200.9</ele>
        <time>2025-01-19T10:55:24Z</time>
      </trkpt>
      <trkpt lat="43.40063" lon="6.64303">
        <ele>201</ele>
        <time>2025-01-19T10:55:25Z</time>
      </trkpt>
      <trkpt lat="43.40063" lon="6.64304">
        <ele>201</ele>
        <time>2025-01-19T10:55:26Z</time>
      </trkpt>
      <trkpt lat="43.40063" lon="6.64305">
        <ele>201.1</ele>
        <time>2025-01-19T10:55:27Z</time>
      </trkpt>
      <trkpt lat="43.40063" lon="6.64306">
        <ele>201.1</ele>
        <time>2025-01-19T10:55:28Z</time>
      </trkpt>
      <trkpt lat="43.40063" lon="6.64307">
        <ele>201.2</ele>
        <time>2025-01-19T10:55:29Z</time>
      </trkpt>
      <trkpt lat="43.40062" lon="6.64308">
        <ele>201.3</ele>
        <time>2025-01-19T10:55:30Z</time>
      </trkpt>
      <trkpt lat="43.40062" lon="6.64309">
        <ele>201.3</ele>
        <time>2025-01-19T10:55:31Z</time>
      </trkpt>
      <trkpt lat="43.40061" lon="6.6431">
        <ele>201.3</ele>
        <time>2025-01-19T10:55:32Z</time>
      </trkpt>
      <trkpt lat="43.4006" lon="6.6431">
        <ele>201.4</ele>
        <time>2025-01-19T10:55:33Z</time>
      </trkpt>
      <trkpt lat="43.4006" lon="6.64311">
        <ele>201.6</ele>
        <time>2025-01-19T10:55:34Z</time>
      </trkpt>
      <trkpt lat="43.4006" lon="6.64312">
        <ele>201.7</ele>
        <time>2025-01-19T10:55:35Z</time>
      </trkpt>
      <trkpt lat="43.4006" lon="6.64312">
        <ele>201.9</ele>
        <time>2025-01-19T10:55:36Z</time>
      </trkpt>
      <trkpt lat="43.4006" lon="6.64313">
        <ele>202</ele>
        <time>2025-01-19T10:55:37Z</time>
      </trkpt>
      <trkpt lat="43.4006" lon="6.64314">
        <ele>202.1</ele>
        <time>2025-01-19T10:55:38Z</time>
      </trkpt>
      <trkpt lat="43.4006" lon="6.64314">
        <ele>202.2</ele>
        <time>2025-01-19T10:55:39Z</time>
      </trkpt>
      <trkpt lat="43.4006" lon="6.64314">
        <ele>202.3</ele>
        <time>2025-01-19T10:55:40Z</time>
      </trkpt>
      <trkpt lat="43.4006" lon="6.64314">
        <ele>202.4</ele>
        <time>2025-01-19T10:55:41Z</time>
      </trkpt>
      <trkpt lat="43.40061" lon="6.64314">
        <ele>202.6</ele>
        <time>2025-01-19T10:55:42Z</time>
      </trkpt>
      <trkpt lat="43.40061" lon="6.64315">
        <ele>202.6</ele>
        <time>2025-01-19T10:55:43Z</time>
      </trkpt>
      <trkpt lat="43.40059" lon="6.64316">
        <ele>202.9</ele>
        <time>2025-01-19T10:55:44Z</time>
      </trkpt>
      <trkpt lat="43.40059" lon="6.64317">
        <ele>203</ele>
        <time>2025-01-19T10:55:45Z</time>
      </trkpt>
      <trkpt lat="43.40059" lon="6.64318">
        <ele>203.3</ele>
        <time>2025-01-19T10:55:46Z</time>
      </trkpt>
      <trkpt lat="43.40058" lon="6.64319">
        <ele>203.4</ele>
        <time>2025-01-19T10:55:47Z</time>
      </trkpt>
      <trkpt lat="43.40057" lon="6.6432">
        <ele>203.6</ele>
        <time>2025-01-19T10:55:48Z</time>
      </trkpt>
      <trkpt lat="43.40057" lon="6.6432">
        <ele>203.8</ele>
        <time>2025-01-19T10:55:49Z</time>
      </trkpt>
      <trkpt lat="43.40056" lon="6.64321">
        <ele>203.9</ele>
        <time>2025-01-19T10:55:50Z</time>
      </trkpt>
      <trkpt lat="43.40056" lon="6.64321">
        <ele>204</ele>
        <time>2025-01-19T10:55:51Z</time>
      </trkpt>
      <trkpt lat="43.40056" lon="6.64321">
        <ele>204.2</ele>
        <time>2025-01-19T10:55:52Z</time>
      </trkpt>
      <trkpt lat="43.40055" lon="6.6432">
        <ele>204.5</ele>
        <time>2025-01-19T10:55:53Z</time>
      </trkpt>
      <trkpt lat="43.40055" lon="6.6432">
        <ele>204.7</ele>
        <time>2025-01-19T10:55:54Z</time>
      </trkpt>
      <trkpt lat="43.40054" lon="6.6432">
        <ele>204.9</ele>
        <time>2025-01-19T10:55:55Z</time>
      </trkpt>
      <trkpt lat="43.40054" lon="6.6432">
        <ele>205.1</ele>
        <time>2025-01-19T10:55:56Z</time>
      </trkpt>
      <trkpt lat="43.40054" lon="6.6432">
        <ele>205.2</ele>
        <time>2025-01-19T10:55:57Z</time>
      </trkpt>
      <trkpt lat="43.40053" lon="6.6432">
        <ele>205.3</ele>
        <time>2025-01-19T10:55:58Z</time>
      </trkpt>
      <trkpt lat="43.40053" lon="6.64321">
        <ele>205.4</ele>
        <time>2025-01-19T10:55:59Z</time>
      </trkpt>
      <trkpt lat="43.40052" lon="6.64321">
        <ele>205.5</ele>
        <time>2025-01-19T10:56:00Z</time>
      </trkpt>
      <trkpt lat="43.40052" lon="6.64321">
        <ele>205.7</ele>
        <time>2025-01-19T10:56:01Z</time>
      </trkpt>
      <trkpt lat="43.40051" lon="6.64321">
        <ele>206</ele>
        <time>2025-01-19T10:56:02Z</time>
      </trkpt>
      <trkpt lat="43.4005" lon="6.64322">
        <ele>206.3</ele>
        <time>2025-01-19T10:56:03Z</time>
      </trkpt>
      <trkpt lat="43.40049" lon="6.64322">
        <ele>206.6</ele>
        <time>2025-01-19T10:56:04Z</time>
      </trkpt>
      <trkpt lat="43.40049" lon="6.64322">
        <ele>206.9</ele>
        <time>2025-01-19T10:56:05Z</time>
      </trkpt>
      <trkpt lat="43.40048" lon="6.64323">
        <ele>207.1</ele>
        <time>2025-01-19T10:56:06Z</time>
      </trkpt>
      <trkpt lat="43.40047" lon="6.64324">
        <ele>207.4</ele>
        <time>2025-01-19T10:56:07Z</time>
      </trkpt>
      <trkpt lat="43.40047" lon="6.64326">
        <ele>207.7</ele>
        <time>2025-01-19T10:56:08Z</time>
      </trkpt>
      <trkpt lat="43.40046" lon="6.64326">
        <ele>208</ele>
        <time>2025-01-19T10:56:09Z</time>
      </trkpt>
      <trkpt lat="43.40046" lon="6.64326">
        <ele>208.1</ele>
        <time>2025-01-19T10:56:10Z</time>
      </trkpt>
      <trkpt lat="43.40046" lon="6.64326">
        <ele>208.3</ele>
        <time>2025-01-19T10:56:11Z</time>
      </trkpt>
      <trkpt lat="43.40046" lon="6.64327">
        <ele>208.4</ele>
        <time>2025-01-19T10:56:12Z</time>
      </trkpt>
      <trkpt lat="43.40045" lon="6.64327">
        <ele>208.5</ele>
        <time>2025-01-19T10:56:13Z</time>
      </trkpt>
      <trkpt lat="43.40045" lon="6.64328">
        <ele>208.7</ele>
        <time>2025-01-19T10:56:14Z</time>
      </trkpt>
      <trkpt lat="43.40045" lon="6.64329">
        <ele>208.8</ele>
        <time>2025-01-19T10:56:15Z</time>
      </trkpt>
      <trkpt lat="43.40045" lon="6.6433">
        <ele>209</ele>
        <time>2025-01-19T10:56:16Z</time>
      </trkpt>
      <trkpt lat="43.40045" lon="6.64331">
        <ele>209.3</ele>
        <time>2025-01-19T10:56:17Z</time>
      </trkpt>
      <trkpt lat="43.40044" lon="6.64331">
        <ele>209.6</ele>
        <time>2025-01-19T10:56:18Z</time>
      </trkpt>
      <trkpt lat="43.40044" lon="6.64331">
        <ele>209.8</ele>
        <time>2025-01-19T10:56:19Z</time>
      </trkpt>
      <trkpt lat="43.40043" lon="6.64331">
        <ele>210</ele>
        <time>2025-01-19T10:56:20Z</time>
      </trkpt>
      <trkpt lat="43.40042" lon="6.64332">
        <ele>210.2</ele>
        <time>2025-01-19T10:56:21Z</time>
      </trkpt>
      <trkpt lat="43.40042" lon="6.64332">
        <ele>210.4</ele>
        <time>2025-01-19T10:56:22Z</time>
      </trkpt>
      <trkpt lat="43.40041" lon="6.64333">
        <ele>210.6</ele>
        <time>2025-01-19T10:56:23Z</time>
      </trkpt>
      <trkpt lat="43.4004" lon="6.64332">
        <ele>210.8</ele>
        <time>2025-01-19T10:56:24Z</time>
      </trkpt>
      <trkpt lat="43.4004" lon="6.64333">
        <ele>210.9</ele>
        <time>2025-01-19T10:56:25Z</time>
      </trkpt>
      <trkpt lat="43.4004" lon="6.64333">
        <ele>211.1</ele>
        <time>2025-01-19T10:56:26Z</time>
      </trkpt>
      <trkpt lat="43.40039" lon="6.64333">
        <ele>211.4</ele>
        <time>2025-01-19T10:56:27Z</time>
      </trkpt>
      <trkpt lat="43.40039" lon="6.64334">
        <ele>211.6</ele>
        <time>2025-01-19T10:56:28Z</time>
      </trkpt>
      <trkpt lat="43.40038" lon="6.64334">
        <ele>211.9</ele>
        <time>2025-01-19T10:56:29Z</time>
      </trkpt>
      <trkpt lat="43.40037" lon="6.64334">
        <ele>212.1</ele>
        <time>2025-01-19T10:56:30Z</time>
      </trkpt>
      <trkpt lat="43.40037" lon="6.64334">
        <ele>212.3</ele>
        <time>2025-01-19T10:56:31Z</time>
      </trkpt>
      <trkpt lat="43.40036" lon="6.64335">
        <ele>212.4</ele>
        <time>2025-01-19T10:56:32Z</time>
      </trkpt>
      <trkpt lat="43.40036" lon="6.64335">
        <ele>212.6</ele>
        <time>2025-01-19T10:56:33Z</time>
      </trkpt>
      <trkpt lat="43.40035" lon="6.64335">
        <ele>212.7</ele>
        <time>2025-01-19T10:56:34Z</time>
      </trkpt>
      <trkpt lat="43.40034" lon="6.64335">
        <ele>212.9</ele>
        <time>2025-01-19T10:56:35Z</time>
      </trkpt>
      <trkpt lat="43.40033" lon="6.64335">
        <ele>213.1</ele>
        <time>2025-01-19T10:56:36Z</time>
      </trkpt>
      <trkpt lat="43.40033" lon="6.64335">
        <ele>213.2</ele>
        <time>2025-01-19T10:56:37Z</time>
      </trkpt>
      <trkpt lat="43.40032" lon="6.64335">
        <ele>213.3</ele>
        <time>2025-01-19T10:56:38Z</time>
      </trkpt>
      <trkpt lat="43.40032" lon="6.64336">
        <ele>213.5</ele>
        <time>2025-01-19T10:56:39Z</time>
      </trkpt>
      <trkpt lat="43.40031" lon="6.64336">
        <ele>213.6</ele>
        <time>2025-01-19T10:56:40Z</time>
      </trkpt>
      <trkpt lat="43.40031" lon="6.64337">
        <ele>213.7</ele>
        <time>2025-01-19T10:56:41Z</time>
      </trkpt>
      <trkpt lat="43.4003" lon="6.64337">
        <ele>213.8</ele>
        <time>2025-01-19T10:56:42Z</time>
      </trkpt>
      <trkpt lat="43.40029" lon="6.64337">
        <ele>214</ele>
        <time>2025-01-19T10:56:43Z</time>
      </trkpt>
      <trkpt lat="43.40028" lon="6.64337">
        <ele>214.1</ele>
        <time>2025-01-19T10:56:44Z</time>
      </trkpt>
      <trkpt lat="43.40027" lon="6.64337">
        <ele>214.3</ele>
        <time>2025-01-19T10:56:45Z</time>
      </trkpt>
      <trkpt lat="43.40026" lon="6.64338">
        <ele>214.4</ele>
        <time>2025-01-19T10:56:46Z</time>
      </trkpt>
      <trkpt lat="43.40025" lon="6.64338">
        <ele>214.6</ele>
        <time>2025-01-19T10:56:47Z</time>
      </trkpt>
      <trkpt lat="43.40024" lon="6.64337">
        <ele>214.6</ele>
        <time>2025-01-19T10:56:48Z</time>
      </trkpt>
      <trkpt lat="43.40023" lon="6.64338">
        <ele>214.8</ele>
        <time>2025-01-19T10:56:49Z</time>
      </trkpt>
      <trkpt lat="43.40022" lon="6.64338">
        <ele>215</ele>
        <time>2025-01-19T10:56:50Z</time>
      </trkpt>
      <trkpt lat="43.40022" lon="6.64338">
        <ele>215.2</ele>
        <time>2025-01-19T10:56:51Z</time>
      </trkpt>
      <trkpt lat="43.40021" lon="6.64337">
        <ele>215.3</ele>
        <time>2025-01-19T10:56:52Z</time>
      </trkpt>
      <trkpt lat="43.4002" lon="6.64337">
        <ele>215.4</ele>
        <time>2025-01-19T10:56:53Z</time>
      </trkpt>
      <trkpt lat="43.40019" lon="6.64337">
        <ele>215.5</ele>
        <time>2025-01-19T10:56:54Z</time>
      </trkpt>
      <trkpt lat="43.40018" lon="6.64337">
        <ele>215.7</ele>
        <time>2025-01-19T10:56:55Z</time>
      </trkpt>
      <trkpt lat="43.40018" lon="6.64337">
        <ele>215.9</ele>
        <time>2025-01-19T10:56:56Z</time>
      </trkpt>
      <trkpt lat="43.40016" lon="6.64337">
        <ele>216.1</ele>
        <time>2025-01-19T10:56:57Z</time>
      </trkpt>
      <trkpt lat="43.40016" lon="6.64336">
        <ele>216.2</ele>
        <time>2025-01-19T10:56:58Z</time>
      </trkpt>
      <trkpt lat="43.40015" lon="6.64336">
        <ele>216.3</ele>
        <time>2025-01-19T10:56:59Z</time>
      </trkpt>
      <trkpt lat="43.40014" lon="6.64336">
        <ele>216.5</ele>
        <time>2025-01-19T10:57:00Z</time>
      </trkpt>
      <trkpt lat="43.40013" lon="6.64335">
        <ele>216.6</ele>
        <time>2025-01-19T10:57:01Z</time>
      </trkpt>
      <trkpt lat="43.40012" lon="6.64335">
        <ele>216.7</ele>
        <time>2025-01-19T10:57:02Z</time>
      </trkpt>
      <trkpt lat="43.40011" lon="6.64336">
        <ele>216.8</ele>
        <time>2025-01-19T10:57:03Z</time>
      </trkpt>
      <trkpt lat="43.4001" lon="6.64337">
        <ele>216.9</ele>
        <time>2025-01-19T10:57:04Z</time>
      </trkpt>
      <trkpt lat="43.40009" lon="6.64337">
        <ele>217</ele>
        <time>2025-01-19T10:57:05Z</time>
      </trkpt>
      <trkpt lat="43.40008" lon="6.64337">
        <ele>217</ele>
        <time>2025-01-19T10:57:06Z</time>
      </trkpt>
      <trkpt lat="43.40007" lon="6.64337">
        <ele>217.2</ele>
        <time>2025-01-19T10:57:07Z</time>
      </trkpt>
      <trkpt lat="43.40006" lon="6.64338">
        <ele>217.3</ele>
        <time>2025-01-19T10:57:08Z</time>
      </trkpt>
      <trkpt lat="43.40005" lon="6.64338">
        <ele>217.4</ele>
        <time>2025-01-19T10:57:09Z</time>
      </trkpt>
      <trkpt lat="43.40005" lon="6.64339">
        <ele>217.5</ele>
        <time>2025-01-19T10:57:10Z</time>
      </trkpt>
      <trkpt lat="43.40004" lon="6.64339">
        <ele>217.7</ele>
        <time>2025-01-19T10:57:11Z</time>
      </trkpt>
      <trkpt lat="43.40003" lon="6.6434">
        <ele>217.8</ele>
        <time>2025-01-19T10:57:12Z</time>
      </trkpt>
      <trkpt lat="43.40003" lon="6.64341">
        <ele>217.8</ele>
        <time>2025-01-19T10:57:13Z</time>
      </trkpt>
      <trkpt lat="43.40002" lon="6.64341">
        <ele>218.1</ele>
        <time>2025-01-19T10:57:14Z</time>
      </trkpt>
      <trkpt lat="43.40002" lon="6.64342">
        <ele>218.2</ele>
        <time>2025-01-19T10:57:15Z</time>
      </trkpt>
      <trkpt lat="43.40001" lon="6.64343">
        <ele>218.3</ele>
        <time>2025-01-19T10:57:16Z</time>
      </trkpt>
      <trkpt lat="43.4" lon="6.64343">
        <ele>218.5</ele>
        <time>2025-01-19T10:57:17Z</time>
      </trkpt>
      <trkpt lat="43.39999" lon="6.64344">
        <ele>218.7</ele>
        <time>2025-01-19T10:57:18Z</time>
      </trkpt>
      <trkpt lat="43.39999" lon="6.64344">
        <ele>218.9</ele>
        <time>2025-01-19T10:57:19Z</time>
      </trkpt>
      <trkpt lat="43.39998" lon="6.64345">
        <ele>219</ele>
        <time>2025-01-19T10:57:20Z</time>
      </trkpt>
      <trkpt lat="43.39997" lon="6.64345">
        <ele>219.1</ele>
        <time>2025-01-19T10:57:21Z</time>
      </trkpt>
      <trkpt lat="43.39995" lon="6.64346">
        <ele>219.2</ele>
        <time>2025-01-19T10:57:22Z</time>
      </trkpt>
      <trkpt lat="43.39995" lon="6.64346">
        <ele>219.3</ele>
        <time>2025-01-19T10:57:23Z</time>
      </trkpt>
      <trkpt lat="43.39994" lon="6.64347">
        <ele>219.5</ele>
        <time>2025-01-19T10:57:24Z</time>
      </trkpt>
      <trkpt lat="43.39993" lon="6.64347">
        <ele>219.6</ele>
        <time>2025-01-19T10:57:25Z</time>
      </trkpt>
      <trkpt lat="43.39992" lon="6.64348">
        <ele>219.7</ele>
        <time>2025-01-19T10:57:26Z</time>
      </trkpt>
      <trkpt lat="43.39991" lon="6.64348">
        <ele>219.8</ele>
        <time>2025-01-19T10:57:27Z</time>
      </trkpt>
      <trkpt lat="43.3999" lon="6.64348">
        <ele>219.9</ele>
        <time>2025-01-19T10:57:28Z</time>
      </trkpt>
      <trkpt lat="43.3999" lon="6.64348">
        <ele>220.1</ele>
        <time>2025-01-19T10:57:29Z</time>
      </trkpt>
      <trkpt lat="43.39989" lon="6.64348">
        <ele>220.3</ele>
        <time>2025-01-19T10:57:30Z</time>
      </trkpt>
      <trkpt lat="43.39988" lon="6.64348">
        <ele>220.5</ele>
        <time>2025-01-19T10:57:31Z</time>
      </trkpt>
      <trkpt lat="43.39987" lon="6.64349">
        <ele>220.5</ele>
        <time>2025-01-19T10:57:32Z</time>
      </trkpt>
      <trkpt lat="43.39986" lon="6.64349">
        <ele>220.7</ele>
        <time>2025-01-19T10:57:33Z</time>
      </trkpt>
      <trkpt lat="43.39985" lon="6.6435">
        <ele>220.8</ele>
        <time>2025-01-19T10:57:34Z</time>
      </trkpt>
      <trkpt lat="43.39984" lon="6.6435">
        <ele>220.9</ele>
        <time>2025-01-19T10:57:35Z</time>
      </trkpt>
      <trkpt lat="43.39983" lon="6.64351">
        <ele>221.1</ele>
        <time>2025-01-19T10:57:36Z</time>
      </trkpt>
      <trkpt lat="43.39982" lon="6.64352">
        <ele>221.2</ele>
        <time>2025-01-19T10:57:37Z</time>
      </trkpt>
      <trkpt lat="43.39981" lon="6.64352">
        <ele>221.2</ele>
        <time>2025-01-19T10:57:38Z</time>
      </trkpt>
      <trkpt lat="43.3998" lon="6.64353">
        <ele>221.3</ele>
        <time>2025-01-19T10:57:39Z</time>
      </trkpt>
      <trkpt lat="43.39979" lon="6.64353">
        <ele>221.5</ele>
        <time>2025-01-19T10:57:40Z</time>
      </trkpt>
      <trkpt lat="43.39978" lon="6.64353">
        <ele>221.6</ele>
        <time>2025-01-19T10:57:41Z</time>
      </trkpt>
      <trkpt lat="43.39977" lon="6.64354">
        <ele>221.6</ele>
        <time>2025-01-19T10:57:42Z</time>
      </trkpt>
      <trkpt lat="43.39976" lon="6.64355">
        <ele>221.7</ele>
        <time>2025-01-19T10:57:43Z</time>
      </trkpt>
      <trkpt lat="43.39975" lon="6.64356">
        <ele>221.8</ele>
        <time>2025-01-19T10:57:44Z</time>
      </trkpt>
      <trkpt lat="43.39974" lon="6.64356">
        <ele>221.9</ele>
        <time>2025-01-19T10:57:45Z</time>
      </trkpt>
      <trkpt lat="43.39973" lon="6.64356">
        <ele>222</ele>
        <time>2025-01-19T10:57:46Z</time>
      </trkpt>
      <trkpt lat="43.39972" lon="6.64357">
        <ele>222</ele>
        <time>2025-01-19T10:57:47Z</time>
      </trkpt>
      <trkpt lat="43.39971" lon="6.64357">
        <ele>222.1</ele>
        <time>2025-01-19T10:57:48Z</time>
      </trkpt>
      <trkpt lat="43.3997" lon="6.64358">
        <ele>222.2</ele>
        <time>2025-01-19T10:57:49Z</time>
      </trkpt>
      <trkpt lat="43.39969" lon="6.64359">
        <ele>222.4</ele>
        <time>2025-01-19T10:57:50Z</time>
      </trkpt>
      <trkpt lat="43.39968" lon="6.64359">
        <ele>222.3</ele>
        <time>2025-01-19T10:57:51Z</time>
      </trkpt>
      <trkpt lat="43.39968" lon="6.6436">
        <ele>222.3</ele>
        <time>2025-01-19T10:57:52Z</time>
      </trkpt>
      <trkpt lat="43.39967" lon="6.64361">
        <ele>222.3</ele>
        <time>2025-01-19T10:57:53Z</time>
      </trkpt>
      <trkpt lat="43.39966" lon="6.64362">
        <ele>222.4</ele>
        <time>2025-01-19T10:57:54Z</time>
      </trkpt>
      <trkpt lat="43.39966" lon="6.64364">
        <ele>222.4</ele>
        <time>2025-01-19T10:57:55Z</time>
      </trkpt>
      <trkpt lat="43.39966" lon="6.64364">
        <ele>222.4</ele>
        <time>2025-01-19T10:57:56Z</time>
      </trkpt>
      <trkpt lat="43.39965" lon="6.64365">
        <ele>222.4</ele>
        <time>2025-01-19T10:57:57Z</time>
      </trkpt>
      <trkpt lat="43.39964" lon="6.64367">
        <ele>222.4</ele>
        <time>2025-01-19T10:57:58Z</time>
      </trkpt>
      <trkpt lat="43.39963" lon="6.64368">
        <ele>222.4</ele>
        <time>2025-01-19T10:57:59Z</time>
      </trkpt>
      <trkpt lat="43.39962" lon="6.6437">
        <ele>222.3</ele>
        <time>2025-01-19T10:58:00Z</time>
      </trkpt>
      <trkpt lat="43.39962" lon="6.64371">
        <ele>222.3</ele>
        <time>2025-01-19T10:58:01Z</time>
      </trkpt>
      <trkpt lat="43.39961" lon="6.64372">
        <ele>222.3</ele>
        <time>2025-01-19T10:58:02Z</time>
      </trkpt>
      <trkpt lat="43.39961" lon="6.64373">
        <ele>222.2</ele>
        <time>2025-01-19T10:58:03Z</time>
      </trkpt>
      <trkpt lat="43.3996" lon="6.64376">
        <ele>222.1</ele>
        <time>2025-01-19T10:58:04Z</time>
      </trkpt>
      <trkpt lat="43.3996" lon="6.64377">
        <ele>221.9</ele>
        <time>2025-01-19T10:58:05Z</time>
      </trkpt>
      <trkpt lat="43.39959" lon="6.64378">
        <ele>221.8</ele>
        <time>2025-01-19T10:58:06Z</time>
      </trkpt>
      <trkpt lat="43.39959" lon="6.64379">
        <ele>221.7</ele>
        <time>2025-01-19T10:58:07Z</time>
      </trkpt>
      <trkpt lat="43.39959" lon="6.64381">
        <ele>221.7</ele>
        <time>2025-01-19T10:58:08Z</time>
      </trkpt>
      <trkpt lat="43.39958" lon="6.64382">
        <ele>221.7</ele>
        <time>2025-01-19T10:58:09Z</time>
      </trkpt>
      <trkpt lat="43.39957" lon="6.64383">
        <ele>221.5</ele>
        <time>2025-01-19T10:58:10Z</time>
      </trkpt>
      <trkpt lat="43.39957" lon="6.64384">
        <ele>221.4</ele>
        <time>2025-01-19T10:58:11Z</time>
      </trkpt>
      <trkpt lat="43.39956" lon="6.64386">
        <ele>221.4</ele>
        <time>2025-01-19T10:58:12Z</time>
      </trkpt>
      <trkpt lat="43.39956" lon="6.64387">
        <ele>221.3</ele>
        <time>2025-01-19T10:58:13Z</time>
      </trkpt>
      <trkpt lat="43.39955" lon="6.64388">
        <ele>221.2</ele>
        <time>2025-01-19T10:58:14Z</time>
      </trkpt>
      <trkpt lat="43.39955" lon="6.64389">
        <ele>221.1</ele>
        <time>2025-01-19T10:58:15Z</time>
      </trkpt>
      <trkpt lat="43.39954" lon="6.64391">
        <ele>221</ele>
        <time>2025-01-19T10:58:16Z</time>
      </trkpt>
      <trkpt lat="43.39953" lon="6.64392">
        <ele>220.9</ele>
        <time>2025-01-19T10:58:17Z</time>
      </trkpt>
      <trkpt lat="43.39953" lon="6.64394">
        <ele>220.9</ele>
        <time>2025-01-19T10:58:18Z</time>
      </trkpt>
      <trkpt lat="43.39952" lon="6.64395">
        <ele>220.7</ele>
        <time>2025-01-19T10:58:19Z</time>
      </trkpt>
      <trkpt lat="43.39952" lon="6.64396">
        <ele>220.5</ele>
        <time>2025-01-19T10:58:20Z</time>
      </trkpt>
      <trkpt lat="43.39951" lon="6.64397">
        <ele>220.3</ele>
        <time>2025-01-19T10:58:21Z</time>
      </trkpt>
      <trkpt lat="43.39951" lon="6.64399">
        <ele>220.2</ele>
        <time>2025-01-19T10:58:22Z</time>
      </trkpt>
      <trkpt lat="43.3995" lon="6.64401">
        <ele>220</ele>
        <time>2025-01-19T10:58:23Z</time>
      </trkpt>
      <trkpt lat="43.3995" lon="6.64402">
        <ele>220</ele>
        <time>2025-01-19T10:58:24Z</time>
      </trkpt>
      <trkpt lat="43.39949" lon="6.64403">
        <ele>219.9</ele>
        <time>2025-01-19T10:58:25Z</time>
      </trkpt>
      <trkpt lat="43.39949" lon="6.64405">
        <ele>219.8</ele>
        <time>2025-01-19T10:58:26Z</time>
      </trkpt>
      <trkpt lat="43.39948" lon="6.64406">
        <ele>219.8</ele>
        <time>2025-01-19T10:58:27Z</time>
      </trkpt>
      <trkpt lat="43.39946" lon="6.64407">
        <ele>219.7</ele>
        <time>2025-01-19T10:58:28Z</time>
      </trkpt>
      <trkpt lat="43.39945" lon="6.64409">
        <ele>219.7</ele>
        <time>2025-01-19T10:58:29Z</time>
      </trkpt>
      <trkpt lat="43.39945" lon="6.6441">
        <ele>219.6</ele>
        <time>2025-01-19T10:58:30Z</time>
      </trkpt>
      <trkpt lat="43.39944" lon="6.64412">
        <ele>219.7</ele>
        <time>2025-01-19T10:58:31Z</time>
      </trkpt>
      <trkpt lat="43.39943" lon="6.64413">
        <ele>219.6</ele>
        <time>2025-01-19T10:58:32Z</time>
      </trkpt>
      <trkpt lat="43.39942" lon="6.64415">
        <ele>219.5</ele>
        <time>2025-01-19T10:58:33Z</time>
      </trkpt>
      <trkpt lat="43.39942" lon="6.64417">
        <ele>219.5</ele>
        <time>2025-01-19T10:58:34Z</time>
      </trkpt>
      <trkpt lat="43.39941" lon="6.64418">
        <ele>219.5</ele>
        <time>2025-01-19T10:58:35Z</time>
      </trkpt>
      <trkpt lat="43.39941" lon="6.6442">
        <ele>219.5</ele>
        <time>2025-01-19T10:58:36Z</time>
      </trkpt>
      <trkpt lat="43.3994" lon="6.64421">
        <ele>219.5</ele>
        <time>2025-01-19T10:58:37Z</time>
      </trkpt>
      <trkpt lat="43.39939" lon="6.64423">
        <ele>219.5</ele>
        <time>2025-01-19T10:58:38Z</time>
      </trkpt>
      <trkpt lat="43.39938" lon="6.64424">
        <ele>219.4</ele>
        <time>2025-01-19T10:58:39Z</time>
      </trkpt>
      <trkpt lat="43.39937" lon="6.64426">
        <ele>219.4</ele>
        <time>2025-01-19T10:58:40Z</time>
      </trkpt>
      <trkpt lat="43.39937" lon="6.64427">
        <ele>219.2</ele>
        <time>2025-01-19T10:58:41Z</time>
      </trkpt>
      <trkpt lat="43.39936" lon="6.64429">
        <ele>219.2</ele>
        <time>2025-01-19T10:58:42Z</time>
      </trkpt>
      <trkpt lat="43.39936" lon="6.6443">
        <ele>219.2</ele>
        <time>2025-01-19T10:58:43Z</time>
      </trkpt>
      <trkpt lat="43.39935" lon="6.64432">
        <ele>219.2</ele>
        <time>2025-01-19T10:58:44Z</time>
      </trkpt>
      <trkpt lat="43.39934" lon="6.64433">
        <ele>219.2</ele>
        <time>2025-01-19T10:58:45Z</time>
      </trkpt>
      <trkpt lat="43.39933" lon="6.64434">
        <ele>219.2</ele>
        <time>2025-01-19T10:58:46Z</time>
      </trkpt>
      <trkpt lat="43.39932" lon="6.64435">
        <ele>219.2</ele>
        <time>2025-01-19T10:58:47Z</time>
      </trkpt>
      <trkpt lat="43.39931" lon="6.64436">
        <ele>219.2</ele>
        <time>2025-01-19T10:58:48Z</time>
      </trkpt>
      <trkpt lat="43.3993" lon="6.64437">
        <ele>219.1</ele>
        <time>2025-01-19T10:58:49Z</time>
      </trkpt>
      <trkpt lat="43.39929" lon="6.64437">
        <ele>219</ele>
        <time>2025-01-19T10:58:50Z</time>
      </trkpt>
      <trkpt lat="43.39927" lon="6.64437">
        <ele>219</ele>
        <time>2025-01-19T10:58:51Z</time>
      </trkpt>
      <trkpt lat="43.39926" lon="6.64438">
        <ele>218.9</ele>
        <time>2025-01-19T10:58:52Z</time>
      </trkpt>
      <trkpt lat="43.39925" lon="6.64438">
        <ele>218.9</ele>
        <time>2025-01-19T10:58:53Z</time>
      </trkpt>
      <trkpt lat="43.39924" lon="6.64438">
        <ele>218.8</ele>
        <time>2025-01-19T10:58:54Z</time>
      </trkpt>
      <trkpt lat="43.39922" lon="6.64439">
        <ele>218.8</ele>
        <time>2025-01-19T10:58:55Z</time>
      </trkpt>
      <trkpt lat="43.39921" lon="6.64439">
        <ele>218.7</ele>
        <time>2025-01-19T10:58:56Z</time>
      </trkpt>
      <trkpt lat="43.3992" lon="6.6444">
        <ele>218.8</ele>
        <time>2025-01-19T10:58:57Z</time>
      </trkpt>
      <trkpt lat="43.39919" lon="6.6444">
        <ele>218.9</ele>
        <time>2025-01-19T10:58:58Z</time>
      </trkpt>
      <trkpt lat="43.39918" lon="6.6444">
        <ele>218.9</ele>
        <time>2025-01-19T10:58:59Z</time>
      </trkpt>
      <trkpt lat="43.39917" lon="6.6444">
        <ele>219</ele>
        <time>2025-01-19T10:59:00Z</time>
      </trkpt>
      <trkpt lat="43.39916" lon="6.64441">
        <ele>219</ele>
        <time>2025-01-19T10:59:01Z</time>
      </trkpt>
      <trkpt lat="43.39915" lon="6.6444">
        <ele>219.2</ele>
        <time>2025-01-19T10:59:02Z</time>
      </trkpt>
      <trkpt lat="43.39914" lon="6.6444">
        <ele>219.4</ele>
        <time>2025-01-19T10:59:03Z</time>
      </trkpt>
      <trkpt lat="43.39913" lon="6.6444">
        <ele>219.5</ele>
        <time>2025-01-19T10:59:04Z</time>
      </trkpt>
      <trkpt lat="43.39912" lon="6.64441">
        <ele>219.5</ele>
        <time>2025-01-19T10:59:05Z</time>
      </trkpt>
      <trkpt lat="43.39911" lon="6.64441">
        <ele>219.6</ele>
        <time>2025-01-19T10:59:06Z</time>
      </trkpt>
      <trkpt lat="43.3991" lon="6.64441">
        <ele>219.9</ele>
        <time>2025-01-19T10:59:07Z</time>
      </trkpt>
      <trkpt lat="43.39908" lon="6.6444">
        <ele>220.1</ele>
        <time>2025-01-19T10:59:08Z</time>
      </trkpt>
      <trkpt lat="43.39907" lon="6.6444">
        <ele>220.3</ele>
        <time>2025-01-19T10:59:09Z</time>
      </trkpt>
      <trkpt lat="43.39906" lon="6.64441">
        <ele>220.4</ele>
        <time>2025-01-19T10:59:10Z</time>
      </trkpt>
      <trkpt lat="43.39905" lon="6.64441">
        <ele>220.4</ele>
        <time>2025-01-19T10:59:11Z</time>
      </trkpt>
      <trkpt lat="43.39904" lon="6.64441">
        <ele>220.6</ele>
        <time>2025-01-19T10:59:12Z</time>
      </trkpt>
      <trkpt lat="43.39903" lon="6.64441">
        <ele>220.7</ele>
        <time>2025-01-19T10:59:13Z</time>
      </trkpt>
      <trkpt lat="43.39902" lon="6.64441">
        <ele>220.7</ele>
        <time>2025-01-19T10:59:14Z</time>
      </trkpt>
      <trkpt lat="43.399" lon="6.64442">
        <ele>221</ele>
        <time>2025-01-19T10:59:15Z</time>
      </trkpt>
      <trkpt lat="43.399" lon="6.64442">
        <ele>221.1</ele>
        <time>2025-01-19T10:59:16Z</time>
      </trkpt>
      <trkpt lat="43.39898" lon="6.64443">
        <ele>221.1</ele>
        <time>2025-01-19T10:59:17Z</time>
      </trkpt>
      <trkpt lat="43.39898" lon="6.64444">
        <ele>221.3</ele>
        <time>2025-01-19T10:59:18Z</time>
      </trkpt>
      <trkpt lat="43.39897" lon="6.64444">
        <ele>221.3</ele>
        <time>2025-01-19T10:59:19Z</time>
      </trkpt>
      <trkpt lat="43.39896" lon="6.64445">
        <ele>221.4</ele>
        <time>2025-01-19T10:59:20Z</time>
      </trkpt>
      <trkpt lat="43.39895" lon="6.64445">
        <ele>221.5</ele>
        <time>2025-01-19T10:59:21Z</time>
      </trkpt>
      <trkpt lat="43.39894" lon="6.64445">
        <ele>221.5</ele>
        <time>2025-01-19T10:59:22Z</time>
      </trkpt>
      <trkpt lat="43.39893" lon="6.64446">
        <ele>221.6</ele>
        <time>2025-01-19T10:59:23Z</time>
      </trkpt>
      <trkpt lat="43.39893" lon="6.64446">
        <ele>221.6</ele>
        <time>2025-01-19T10:59:24Z</time>
      </trkpt>
      <trkpt lat="43.39892" lon="6.64446">
        <ele>221.7</ele>
        <time>2025-01-19T10:59:25Z</time>
      </trkpt>
      <trkpt lat="43.39891" lon="6.64447">
        <ele>221.7</ele>
        <time>2025-01-19T10:59:26Z</time>
      </trkpt>
      <trkpt lat="43.3989" lon="6.64448">
        <ele>221.8</ele>
        <time>2025-01-19T10:59:27Z</time>
      </trkpt>
      <trkpt lat="43.39889" lon="6.64448">
        <ele>221.9</ele>
        <time>2025-01-19T10:59:28Z</time>
      </trkpt>
      <trkpt lat="43.39888" lon="6.64449">
        <ele>222</ele>
        <time>2025-01-19T10:59:29Z</time>
      </trkpt>
      <trkpt lat="43.39887" lon="6.64449">
        <ele>222</ele>
        <time>2025-01-19T10:59:30Z</time>
      </trkpt>
      <trkpt lat="43.39887" lon="6.64449">
        <ele>222</ele>
        <time>2025-01-19T10:59:31Z</time>
      </trkpt>
      <trkpt lat="43.39886" lon="6.6445">
        <ele>222.1</ele>
        <time>2025-01-19T10:59:32Z</time>
      </trkpt>
      <trkpt lat="43.39885" lon="6.6445">
        <ele>222.2</ele>
        <time>2025-01-19T10:59:33Z</time>
      </trkpt>
      <trkpt lat="43.39885" lon="6.64451">
        <ele>222.4</ele>
        <time>2025-01-19T10:59:34Z</time>
      </trkpt>
      <trkpt lat="43.39884" lon="6.64452">
        <ele>222.6</ele>
        <time>2025-01-19T10:59:35Z</time>
      </trkpt>
      <trkpt lat="43.39883" lon="6.64452">
        <ele>222.7</ele>
        <time>2025-01-19T10:59:36Z</time>
      </trkpt>
      <trkpt lat="43.39883" lon="6.64453">
        <ele>222.8</ele>
        <time>2025-01-19T10:59:37Z</time>
      </trkpt>
      <trkpt lat="43.39882" lon="6.64453">
        <ele>222.9</ele>
        <time>2025-01-19T10:59:38Z</time>
      </trkpt>
      <trkpt lat="43.39881" lon="6.64454">
        <ele>223</ele>
        <time>2025-01-19T10:59:39Z</time>
      </trkpt>
      <trkpt lat="43.39881" lon="6.64454">
        <ele>223.1</ele>
        <time>2025-01-19T10:59:40Z</time>
      </trkpt>
      <trkpt lat="43.3988" lon="6.64454">
        <ele>223.1</ele>
        <time>2025-01-19T10:59:41Z</time>
      </trkpt>
      <trkpt lat="43.39879" lon="6.64455">
        <ele>223.2</ele>
        <time>2025-01-19T10:59:42Z</time>
      </trkpt>
      <trkpt lat="43.39879" lon="6.64455">
        <ele>223.3</ele>
        <time>2025-01-19T10:59:43Z</time>
      </trkpt>
      <trkpt lat="43.39878" lon="6.64456">
        <ele>223.4</ele>
        <time>2025-01-19T10:59:44Z</time>
      </trkpt>
      <trkpt lat="43.39877" lon="6.64456">
        <ele>223.5</ele>
        <time>2025-01-19T10:59:45Z</time>
      </trkpt>
      <trkpt lat="43.39876" lon="6.64457">
        <ele>223.6</ele>
        <time>2025-01-19T10:59:46Z</time>
      </trkpt>
      <trkpt lat="43.39876" lon="6.64458">
        <ele>223.7</ele>
        <time>2025-01-19T10:59:47Z</time>
      </trkpt>
      <trkpt lat="43.39875" lon="6.64459">
        <ele>223.8</ele>
        <time>2025-01-19T10:59:48Z</time>
      </trkpt>
      <trkpt lat="43.39874" lon="6.6446">
        <ele>223.9</ele>
        <time>2025-01-19T10:59:49Z</time>
      </trkpt>
      <trkpt lat="43.39874" lon="6.64461">
        <ele>224</ele>
        <time>2025-01-19T10:59:50Z</time>
      </trkpt>
      <trkpt lat="43.39873" lon="6.64462">
        <ele>224.1</ele>
        <time>2025-01-19T10:59:51Z</time>
      </trkpt>
      <trkpt lat="43.39873" lon="6.64462">
        <ele>224.3</ele>
        <time>2025-01-19T10:59:52Z</time>
      </trkpt>
      <trkpt lat="43.39872" lon="6.64463">
        <ele>224.4</ele>
        <time>2025-01-19T10:59:53Z</time>
      </trkpt>
      <trkpt lat="43.39872" lon="6.64463">
        <ele>224.6</ele>
        <time>2025-01-19T10:59:54Z</time>
      </trkpt>
      <trkpt lat="43.39871" lon="6.64463">
        <ele>224.7</ele>
        <time>2025-01-19T10:59:55Z</time>
      </trkpt>
      <trkpt lat="43.3987" lon="6.64464">
        <ele>224.9</ele>
        <time>2025-01-19T10:59:56Z</time>
      </trkpt>
      <trkpt lat="43.39869" lon="6.64464">
        <ele>225.1</ele>
        <time>2025-01-19T10:59:57Z</time>
      </trkpt>
      <trkpt lat="43.39868" lon="6.64465">
        <ele>225.2</ele>
        <time>2025-01-19T10:59:58Z</time>
      </trkpt>
      <trkpt lat="43.39868" lon="6.64466">
        <ele>225.3</ele>
        <time>2025-01-19T10:59:59Z</time>
      </trkpt>
      <trkpt lat="43.39867" lon="6.64467">
        <ele>225.4</ele>
        <time>2025-01-19T11:00:00Z</time>
      </trkpt>
      <trkpt lat="43.39866" lon="6.64468">
        <ele>225.5</ele>
        <time>2025-01-19T11:00:01Z</time>
      </trkpt>
      <trkpt lat="43.39865" lon="6.64468">
        <ele>225.6</ele>
        <time>2025-01-19T11:00:02Z</time>
      </trkpt>
      <trkpt lat="43.39866" lon="6.64469">
        <ele>225.7</ele>
        <time>2025-01-19T11:00:03Z</time>
      </trkpt>
      <trkpt lat="43.39865" lon="6.6447">
        <ele>225.7</ele>
        <time>2025-01-19T11:00:04Z</time>
      </trkpt>
      <trkpt lat="43.39864" lon="6.6447">
        <ele>225.7</ele>
        <time>2025-01-19T11:00:05Z</time>
      </trkpt>
      <trkpt lat="43.39864" lon="6.6447">
        <ele>225.8</ele>
        <time>2025-01-19T11:00:06Z</time>
      </trkpt>
      <trkpt lat="43.39863" lon="6.6447">
        <ele>225.9</ele>
        <time>2025-01-19T11:00:07Z</time>
      </trkpt>
      <trkpt lat="43.39862" lon="6.6447">
        <ele>226</ele>
        <time>2025-01-19T11:00:08Z</time>
      </trkpt>
      <trkpt lat="43.39862" lon="6.6447">
        <ele>226</ele>
        <time>2025-01-19T11:00:09Z</time>
      </trkpt>
      <trkpt lat="43.39862" lon="6.64471">
        <ele>226.2</ele>
        <time>2025-01-19T11:00:10Z</time>
      </trkpt>
      <trkpt lat="43.39862" lon="6.64471">
        <ele>226.3</ele>
        <time>2025-01-19T11:00:11Z</time>
      </trkpt>
      <trkpt lat="43.39861" lon="6.64472">
        <ele>226.4</ele>
        <time>2025-01-19T11:00:12Z</time>
      </trkpt>
      <trkpt lat="43.39861" lon="6.64472">
        <ele>226.4</ele>
        <time>2025-01-19T11:00:13Z</time>
      </trkpt>
      <trkpt lat="43.3986" lon="6.64472">
        <ele>226.5</ele>
        <time>2025-01-19T11:00:14Z</time>
      </trkpt>
      <trkpt lat="43.3986" lon="6.64473">
        <ele>226.6</ele>
        <time>2025-01-19T11:00:15Z</time>
      </trkpt>
      <trkpt lat="43.3986" lon="6.64474">
        <ele>226.7</ele>
        <time>2025-01-19T11:00:16Z</time>
      </trkpt>
      <trkpt lat="43.39859" lon="6.64474">
        <ele>226.9</ele>
        <time>2025-01-19T11:00:17Z</time>
      </trkpt>
      <trkpt lat="43.39859" lon="6.64474">
        <ele>227</ele>
        <time>2025-01-19T11:00:18Z</time>
      </trkpt>
      <trkpt lat="43.39859" lon="6.64475">
        <ele>227.1</ele>
        <time>2025-01-19T11:00:19Z</time>
      </trkpt>
      <trkpt lat="43.39858" lon="6.64476">
        <ele>227.4</ele>
        <time>2025-01-19T11:00:20Z</time>
      </trkpt>
      <trkpt lat="43.39857" lon="6.64477">
        <ele>227.6</ele>
        <time>2025-01-19T11:00:21Z</time>
      </trkpt>
      <trkpt lat="43.39857" lon="6.64478">
        <ele>227.8</ele>
        <time>2025-01-19T11:00:22Z</time>
      </trkpt>
      <trkpt lat="43.39856" lon="6.64478">
        <ele>228</ele>
        <time>2025-01-19T11:00:23Z</time>
      </trkpt>
      <trkpt lat="43.39856" lon="6.64478">
        <ele>228.2</ele>
        <time>2025-01-19T11:00:24Z</time>
      </trkpt>
      <trkpt lat="43.39855" lon="6.64479">
        <ele>228.3</ele>
        <time>2025-01-19T11:00:25Z</time>
      </trkpt>
      <trkpt lat="43.39854" lon="6.6448">
        <ele>228.4</ele>
        <time>2025-01-19T11:00:26Z</time>
      </trkpt>
      <trkpt lat="43.39854" lon="6.64481">
        <ele>228.5</ele>
        <time>2025-01-19T11:00:27Z</time>
      </trkpt>
      <trkpt lat="43.39854" lon="6.64482">
        <ele>228.7</ele>
        <time>2025-01-19T11:00:28Z</time>
      </trkpt>
      <trkpt lat="43.39853" lon="6.64483">
        <ele>228.8</ele>
        <time>2025-01-19T11:00:29Z</time>
      </trkpt>
      <trkpt lat="43.39853" lon="6.64483">
        <ele>228.9</ele>
        <time>2025-01-19T11:00:30Z</time>
      </trkpt>
      <trkpt lat="43.39852" lon="6.64484">
        <ele>229.2</ele>
        <time>2025-01-19T11:00:31Z</time>
      </trkpt>
      <trkpt lat="43.39851" lon="6.64485">
        <ele>229.4</ele>
        <time>2025-01-19T11:00:32Z</time>
      </trkpt>
      <trkpt lat="43.3985" lon="6.64485">
        <ele>229.6</ele>
        <time>2025-01-19T11:00:33Z</time>
      </trkpt>
      <trkpt lat="43.3985" lon="6.64486">
        <ele>229.8</ele>
        <time>2025-01-19T11:00:34Z</time>
      </trkpt>
      <trkpt lat="43.39849" lon="6.64487">
        <ele>229.9</ele>
        <time>2025-01-19T11:00:35Z</time>
      </trkpt>
      <trkpt lat="43.39849" lon="6.64488">
        <ele>230</ele>
        <time>2025-01-19T11:00:36Z</time>
      </trkpt>
      <trkpt lat="43.39848" lon="6.64488">
        <ele>230.2</ele>
        <time>2025-01-19T11:00:37Z</time>
      </trkpt>
      <trkpt lat="43.39848" lon="6.64489">
        <ele>230.3</ele>
        <time>2025-01-19T11:00:38Z</time>
      </trkpt>
      <trkpt lat="43.39847" lon="6.6449">
        <ele>230.4</ele>
        <time>2025-01-19T11:00:39Z</time>
      </trkpt>
      <trkpt lat="43.39846" lon="6.64491">
        <ele>230.5</ele>
        <time>2025-01-19T11:00:40Z</time>
      </trkpt>
      <trkpt lat="43.39845" lon="6.64492">
        <ele>230.6</ele>
        <time>2025-01-19T11:00:41Z</time>
      </trkpt>
      <trkpt lat="43.39844" lon="6.64494">
        <ele>230.9</ele>
        <time>2025-01-19T11:00:42Z</time>
      </trkpt>
      <trkpt lat="43.39843" lon="6.64494">
        <ele>231.1</ele>
        <time>2025-01-19T11:00:43Z</time>
      </trkpt>
      <trkpt lat="43.39842" lon="6.64495">
        <ele>231.3</ele>
        <time>2025-01-19T11:00:44Z</time>
      </trkpt>
      <trkpt lat="43.39842" lon="6.64496">
        <ele>231.4</ele>
        <time>2025-01-19T11:00:45Z</time>
      </trkpt>
      <trkpt lat="43.39841" lon="6.64496">
        <ele>231.6</ele>
        <time>2025-01-19T11:00:46Z</time>
      </trkpt>
      <trkpt lat="43.3984" lon="6.64497">
        <ele>231.7</ele>
        <time>2025-01-19T11:00:47Z</time>
      </trkpt>
      <trkpt lat="43.3984" lon="6.64498">
        <ele>231.9</ele>
        <time>2025-01-19T11:00:48Z</time>
      </trkpt>
      <trkpt lat="43.3984" lon="6.64499">
        <ele>232</ele>
        <time>2025-01-19T11:00:49Z</time>
      </trkpt>
      <trkpt lat="43.39839" lon="6.64499">
        <ele>232.2</ele>
        <time>2025-01-19T11:00:50Z</time>
      </trkpt>
      <trkpt lat="43.39838" lon="6.645">
        <ele>232.4</ele>
        <time>2025-01-19T11:00:51Z</time>
      </trkpt>
      <trkpt lat="43.39838" lon="6.64501">
        <ele>232.4</ele>
        <time>2025-01-19T11:00:52Z</time>
      </trkpt>
      <trkpt lat="43.39837" lon="6.64502">
        <ele>232.5</ele>
        <time>2025-01-19T11:00:53Z</time>
      </trkpt>
      <trkpt lat="43.39836" lon="6.64502">
        <ele>232.6</ele>
        <time>2025-01-19T11:00:54Z</time>
      </trkpt>
      <trkpt lat="43.39836" lon="6.64503">
        <ele>232.7</ele>
        <time>2025-01-19T11:00:55Z</time>
      </trkpt>
      <trkpt lat="43.39834" lon="6.64503">
        <ele>232.8</ele>
        <time>2025-01-19T11:00:56Z</time>
      </trkpt>
      <trkpt lat="43.39833" lon="6.64504">
        <ele>232.9</ele>
        <time>2025-01-19T11:00:57Z</time>
      </trkpt>
      <trkpt lat="43.39832" lon="6.64504">
        <ele>233</ele>
        <time>2025-01-19T11:00:58Z</time>
      </trkpt>
      <trkpt lat="43.39831" lon="6.64504">
        <ele>233.1</ele>
        <time>2025-01-19T11:00:59Z</time>
      </trkpt>
      <trkpt lat="43.39831" lon="6.64504">
        <ele>233.2</ele>
        <time>2025-01-19T11:01:00Z</time>
      </trkpt>
      <trkpt lat="43.3983" lon="6.64504">
        <ele>233.4</ele>
        <time>2025-01-19T11:01:01Z</time>
      </trkpt>
      <trkpt lat="43.39829" lon="6.64505">
        <ele>233.5</ele>
        <time>2025-01-19T11:01:02Z</time>
      </trkpt>
      <trkpt lat="43.39828" lon="6.64507">
        <ele>233.6</ele>
        <time>2025-01-19T11:01:03Z</time>
      </trkpt>
      <trkpt lat="43.39826" lon="6.64508">
        <ele>233.7</ele>
        <time>2025-01-19T11:01:04Z</time>
      </trkpt>
      <trkpt lat="43.39826" lon="6.64509">
        <ele>233.7</ele>
        <time>2025-01-19T11:01:05Z</time>
      </trkpt>
      <trkpt lat="43.39825" lon="6.6451">
        <ele>233.9</ele>
        <time>2025-01-19T11:01:06Z</time>
      </trkpt>
      <trkpt lat="43.39825" lon="6.64509">
        <ele>233.9</ele>
        <time>2025-01-19T11:01:07Z</time>
      </trkpt>
      <trkpt lat="43.39824" lon="6.6451">
        <ele>234.1</ele>
        <time>2025-01-19T11:01:08Z</time>
      </trkpt>
      <trkpt lat="43.39823" lon="6.64511">
        <ele>234.2</ele>
        <time>2025-01-19T11:01:09Z</time>
      </trkpt>
      <trkpt lat="43.39823" lon="6.64512">
        <ele>234.4</ele>
        <time>2025-01-19T11:01:10Z</time>
      </trkpt>
      <trkpt lat="43.39822" lon="6.64512">
        <ele>234.5</ele>
        <time>2025-01-19T11:01:11Z</time>
      </trkpt>
      <trkpt lat="43.39821" lon="6.64513">
        <ele>234.6</ele>
        <time>2025-01-19T11:01:12Z</time>
      </trkpt>
      <trkpt lat="43.3982" lon="6.64513">
        <ele>234.7</ele>
        <time>2025-01-19T11:01:13Z</time>
      </trkpt>
      <trkpt lat="43.3982" lon="6.64513">
        <ele>234.9</ele>
        <time>2025-01-19T11:01:14Z</time>
      </trkpt>
      <trkpt lat="43.39819" lon="6.64513">
        <ele>235.1</ele>
        <time>2025-01-19T11:01:15Z</time>
      </trkpt>
      <trkpt lat="43.39818" lon="6.64514">
        <ele>235.2</ele>
        <time>2025-01-19T11:01:16Z</time>
      </trkpt>
      <trkpt lat="43.39818" lon="6.64515">
        <ele>235.4</ele>
        <time>2025-01-19T11:01:17Z</time>
      </trkpt>
      <trkpt lat="43.39818" lon="6.64516">
        <ele>235.5</ele>
        <time>2025-01-19T11:01:18Z</time>
      </trkpt>
      <trkpt lat="43.39817" lon="6.64516">
        <ele>235.6</ele>
        <time>2025-01-19T11:01:19Z</time>
      </trkpt>
      <trkpt lat="43.39817" lon="6.64516">
        <ele>235.8</ele>
        <time>2025-01-19T11:01:20Z</time>
      </trkpt>
      <trkpt lat="43.39816" lon="6.64517">
        <ele>235.8</ele>
        <time>2025-01-19T11:01:21Z</time>
      </trkpt>
      <trkpt lat="43.39817" lon="6.64518">
        <ele>236</ele>
        <time>2025-01-19T11:01:22Z</time>
      </trkpt>
      <trkpt lat="43.39817" lon="6.64518">
        <ele>236</ele>
        <time>2025-01-19T11:01:23Z</time>
      </trkpt>
      <trkpt lat="43.39816" lon="6.64519">
        <ele>236.1</ele>
        <time>2025-01-19T11:01:24Z</time>
      </trkpt>
      <trkpt lat="43.39816" lon="6.64519">
        <ele>236.2</ele>
        <time>2025-01-19T11:01:25Z</time>
      </trkpt>
      <trkpt lat="43.39816" lon="6.64519">
        <ele>236.2</ele>
        <time>2025-01-19T11:01:26Z</time>
      </trkpt>
      <trkpt lat="43.39816" lon="6.64519">
        <ele>236.2</ele>
        <time>2025-01-19T11:01:27Z</time>
      </trkpt>
      <trkpt lat="43.39816" lon="6.64519">
        <ele>236.3</ele>
        <time>2025-01-19T11:01:28Z</time>
      </trkpt>
      <trkpt lat="43.39816" lon="6.64519">
        <ele>236.4</ele>
        <time>2025-01-19T11:01:29Z</time>
      </trkpt>
      <trkpt lat="43.39816" lon="6.64519">
        <ele>236.4</ele>
        <time>2025-01-19T11:01:30Z</time>
      </trkpt>
      <trkpt lat="43.39816" lon="6.6452">
        <ele>236.5</ele>
        <time>2025-01-19T11:01:31Z</time>
      </trkpt>
      <trkpt lat="43.39815" lon="6.6452">
        <ele>236.5</ele>
        <time>2025-01-19T11:01:32Z</time>
      </trkpt>
      <trkpt lat="43.39815" lon="6.6452">
        <ele>236.5</ele>
        <time>2025-01-19T11:01:33Z</time>
      </trkpt>
      <trkpt lat="43.39815" lon="6.6452">
        <ele>236.5</ele>
        <time>2025-01-19T11:01:34Z</time>
      </trkpt>
      <trkpt lat="43.39815" lon="6.6452">
        <ele>236.5</ele>
        <time>2025-01-19T11:01:35Z</time>
      </trkpt>
      <trkpt lat="43.39814" lon="6.64521">
        <ele>236.6</ele>
        <time>2025-01-19T11:01:36Z</time>
      </trkpt>
      <trkpt lat="43.39814" lon="6.64521">
        <ele>236.6</ele>
        <time>2025-01-19T11:01:37Z</time>
      </trkpt>
      <trkpt lat="43.39814" lon="6.64521">
        <ele>236.5</ele>
        <time>2025-01-19T11:01:38Z</time>
      </trkpt>
      <trkpt lat="43.39814" lon="6.64521">
        <ele>236.5</ele>
        <time>2025-01-19T11:01:39Z</time>
      </trkpt>
      <trkpt lat="43.39814" lon="6.64521">
        <ele>236.4</ele>
        <time>2025-01-19T11:01:40Z</time>
      </trkpt>
      <trkpt lat="43.39814" lon="6.64521">
        <ele>236.4</ele>
        <time>2025-01-19T11:01:41Z</time>
      </trkpt>
      <trkpt lat="43.39814" lon="6.64522">
        <ele>236.5</ele>
        <time>2025-01-19T11:01:42Z</time>
      </trkpt>
      <trkpt lat="43.39814" lon="6.64522">
        <ele>236.5</ele>
        <time>2025-01-19T11:01:43Z</time>
      </trkpt>
      <trkpt lat="43.39814" lon="6.64522">
        <ele>236.5</ele>
        <time>2025-01-19T11:01:44Z</time>
      </trkpt>
      <trkpt lat="43.39814" lon="6.64522">
        <ele>236.5</ele>
        <time>2025-01-19T11:01:45Z</time>
      </trkpt>
      <trkpt lat="43.39814" lon="6.64522">
        <ele>236.5</ele>
        <time>2025-01-19T11:01:46Z</time>
      </trkpt>
      <trkpt lat="43.39813" lon="6.64523">
        <ele>236.5</ele>
        <time>2025-01-19T11:01:47Z</time>
      </trkpt>
      <trkpt lat="43.39813" lon="6.64523">
        <ele>236.5</ele>
        <time>2025-01-19T11:01:48Z</time>
      </trkpt>
      <trkpt lat="43.39813" lon="6.64523">
        <ele>236.5</ele>
        <time>2025-01-19T11:01:49Z</time>
      </trkpt>
      <trkpt lat="43.39813" lon="6.64523">
        <ele>236.6</ele>
        <time>2025-01-19T11:01:50Z</time>
      </trkpt>
      <trkpt lat="43.39813" lon="6.64523">
        <ele>236.6</ele>
        <time>2025-01-19T11:01:51Z</time>
      </trkpt>
      <trkpt lat="43.39813" lon="6.64524">
        <ele>236.6</ele>
        <time>2025-01-19T11:01:52Z</time>
      </trkpt>
      <trkpt lat="43.39813" lon="6.64524">
        <ele>236.6</ele>
        <time>2025-01-19T11:01:53Z</time>
      </trkpt>
      <trkpt lat="43.39813" lon="6.64524">
        <ele>236.6</ele>
        <time>2025-01-19T11:01:54Z</time>
      </trkpt>
      <trkpt lat="43.39812" lon="6.64524">
        <ele>236.6</ele>
        <time>2025-01-19T11:01:55Z</time>
      </trkpt>
      <trkpt lat="43.39812" lon="6.64524">
        <ele>236.6</ele>
        <time>2025-01-19T11:01:56Z</time>
      </trkpt>
      <trkpt lat="43.39812" lon="6.64524">
        <ele>236.6</ele>
        <time>2025-01-19T11:01:57Z</time>
      </trkpt>
      <trkpt lat="43.39812" lon="6.64524">
        <ele>236.6</ele>
        <time>2025-01-19T11:01:58Z</time>
      </trkpt>
      <trkpt lat="43.39812" lon="6.64524">
        <ele>236.6</ele>
        <time>2025-01-19T11:01:59Z</time>
      </trkpt>
      <trkpt lat="43.39812" lon="6.64524">
        <ele>236.6</ele>
        <time>2025-01-19T11:02:00Z</time>
      </trkpt>
      <trkpt lat="43.39812" lon="6.64524">
        <ele>236.6</ele>
        <time>2025-01-19T11:02:01Z</time>
      </trkpt>
      <trkpt lat="43.39811" lon="6.64524">
        <ele>236.7</ele>
        <time>2025-01-19T11:02:02Z</time>
      </trkpt>
      <trkpt lat="43.39811" lon="6.64524">
        <ele>236.6</ele>
        <time>2025-01-19T11:02:03Z</time>
      </trkpt>
      <trkpt lat="43.39812" lon="6.64524">
        <ele>236.6</ele>
        <time>2025-01-19T11:02:04Z</time>
      </trkpt>
      <trkpt lat="43.39811" lon="6.64524">
        <ele>236.6</ele>
        <time>2025-01-19T11:02:05Z</time>
      </trkpt>
      <trkpt lat="43.39811" lon="6.64524">
        <ele>236.6</ele>
        <time>2025-01-19T11:02:06Z</time>
      </trkpt>
      <trkpt lat="43.39811" lon="6.64525">
        <ele>236.7</ele>
        <time>2025-01-19T11:02:07Z</time>
      </trkpt>
      <trkpt lat="43.39811" lon="6.64525">
        <ele>236.7</ele>
        <time>2025-01-19T11:02:08Z</time>
      </trkpt>
      <trkpt lat="43.39811" lon="6.64525">
        <ele>236.7</ele>
        <time>2025-01-19T11:02:09Z</time>
      </trkpt>
      <trkpt lat="43.39811" lon="6.64525">
        <ele>236.7</ele>
        <time>2025-01-19T11:02:10Z</time>
      </trkpt>
      <trkpt lat="43.39811" lon="6.64525">
        <ele>236.8</ele>
        <time>2025-01-19T11:02:11Z</time>
      </trkpt>
      <trkpt lat="43.39811" lon="6.64525">
        <ele>236.8</ele>
        <time>2025-01-19T11:02:12Z</time>
      </trkpt>
      <trkpt lat="43.3981" lon="6.64525">
        <ele>236.9</ele>
        <time>2025-01-19T11:02:13Z</time>
      </trkpt>
      <trkpt lat="43.3981" lon="6.64526">
        <ele>236.9</ele>
        <time>2025-01-19T11:02:14Z</time>
      </trkpt>
      <trkpt lat="43.39811" lon="6.64526">
        <ele>236.9</ele>
        <time>2025-01-19T11:02:15Z</time>
      </trkpt>
      <trkpt lat="43.39811" lon="6.64526">
        <ele>236.8</ele>
        <time>2025-01-19T11:02:16Z</time>
      </trkpt>
      <trkpt lat="43.39811" lon="6.64526">
        <ele>236.7</ele>
        <time>2025-01-19T11:02:17Z</time>
      </trkpt>
      <trkpt lat="43.3981" lon="6.64526">
        <ele>236.7</ele>
        <time>2025-01-19T11:02:18Z</time>
      </trkpt>
      <trkpt lat="43.3981" lon="6.64526">
        <ele>236.6</ele>
        <time>2025-01-19T11:02:19Z</time>
      </trkpt>
      <trkpt lat="43.3981" lon="6.64526">
        <ele>236.6</ele>
        <time>2025-01-19T11:02:20Z</time>
      </trkpt>
      <trkpt lat="43.3981" lon="6.64526">
        <ele>236.6</ele>
        <time>2025-01-19T11:02:21Z</time>
      </trkpt>
      <trkpt lat="43.3981" lon="6.64526">
        <ele>236.6</ele>
        <time>2025-01-19T11:02:22Z</time>
      </trkpt>
      <trkpt lat="43.3981" lon="6.64526">
        <ele>236.5</ele>
        <time>2025-01-19T11:02:23Z</time>
      </trkpt>
      <trkpt lat="43.3981" lon="6.64526">
        <ele>236.5</ele>
        <time>2025-01-19T11:02:24Z</time>
      </trkpt>
      <trkpt lat="43.3981" lon="6.64526">
        <ele>236.5</ele>
        <time>2025-01-19T11:02:25Z</time>
      </trkpt>
      <trkpt lat="43.3981" lon="6.64526">
        <ele>236.4</ele>
        <time>2025-01-19T11:02:26Z</time>
      </trkpt>
      <trkpt lat="43.3981" lon="6.64526">
        <ele>236.4</ele>
        <time>2025-01-19T11:02:27Z</time>
      </trkpt>
      <trkpt lat="43.3981" lon="6.64526">
        <ele>236.5</ele>
        <time>2025-01-19T11:02:28Z</time>
      </trkpt>
      <trkpt lat="43.3981" lon="6.64526">
        <ele>236.5</ele>
        <time>2025-01-19T11:02:29Z</time>
      </trkpt>
      <trkpt lat="43.3981" lon="6.64526">
        <ele>236.5</ele>
        <time>2025-01-19T11:02:30Z</time>
      </trkpt>
      <trkpt lat="43.3981" lon="6.64526">
        <ele>236.5</ele>
        <time>2025-01-19T11:02:31Z</time>
      </trkpt>
      <trkpt lat="43.3981" lon="6.64526">
        <ele>236.5</ele>
        <time>2025-01-19T11:02:32Z</time>
      </trkpt>
      <trkpt lat="43.3981" lon="6.64526">
        <ele>236.3</ele>
        <time>2025-01-19T11:02:33Z</time>
      </trkpt>
      <trkpt lat="43.3981" lon="6.64526">
        <ele>236.2</ele>
        <time>2025-01-19T11:02:34Z</time>
      </trkpt>
      <trkpt lat="43.3981" lon="6.64526">
        <ele>236.2</ele>
        <time>2025-01-19T11:02:35Z</time>
      </trkpt>
      <trkpt lat="43.3981" lon="6.64526">
        <ele>236.1</ele>
        <time>2025-01-19T11:02:36Z</time>
      </trkpt>
      <trkpt lat="43.39809" lon="6.64527">
        <ele>236.2</ele>
        <time>2025-01-19T11:02:37Z</time>
      </trkpt>
      <trkpt lat="43.39809" lon="6.64527">
        <ele>236.2</ele>
        <time>2025-01-19T11:02:38Z</time>
      </trkpt>
      <trkpt lat="43.39809" lon="6.64527">
        <ele>236.2</ele>
        <time>2025-01-19T11:02:39Z</time>
      </trkpt>
      <trkpt lat="43.39809" lon="6.64527">
        <ele>236.2</ele>
        <time>2025-01-19T11:02:40Z</time>
      </trkpt>
      <trkpt lat="43.39809" lon="6.64527">
        <ele>236.2</ele>
        <time>2025-01-19T11:02:41Z</time>
      </trkpt>
      <trkpt lat="43.39809" lon="6.64527">
        <ele>236.2</ele>
        <time>2025-01-19T11:02:42Z</time>
      </trkpt>
      <trkpt lat="43.39809" lon="6.64528">
        <ele>236.2</ele>
        <time>2025-01-19T11:02:43Z</time>
      </trkpt>
      <trkpt lat="43.39809" lon="6.64528">
        <ele>236.2</ele>
        <time>2025-01-19T11:02:44Z</time>
      </trkpt>
      <trkpt lat="43.39809" lon="6.64528">
        <ele>236.3</ele>
        <time>2025-01-19T11:02:45Z</time>
      </trkpt>
      <trkpt lat="43.39809" lon="6.64528">
        <ele>236.3</ele>
        <time>2025-01-19T11:02:46Z</time>
      </trkpt>
      <trkpt lat="43.39809" lon="6.64528">
        <ele>236.3</ele>
        <time>2025-01-19T11:02:47Z</time>
      </trkpt>
      <trkpt lat="43.39809" lon="6.64528">
        <ele>236.3</ele>
        <time>2025-01-19T11:02:48Z</time>
      </trkpt>
      <trkpt lat="43.39809" lon="6.64528">
        <ele>236.4</ele>
        <time>2025-01-19T11:02:49Z</time>
      </trkpt>
      <trkpt lat="43.39809" lon="6.64528">
        <ele>236.4</ele>
        <time>2025-01-19T11:02:50Z</time>
      </trkpt>
      <trkpt lat="43.39809" lon="6.64528">
        <ele>236.5</ele>
        <time>2025-01-19T11:02:51Z</time>
      </trkpt>
      <trkpt lat="43.39809" lon="6.64528">
        <ele>236.5</ele>
        <time>2025-01-19T11:02:52Z</time>
      </trkpt>
      <trkpt lat="43.39809" lon="6.64528">
        <ele>236.4</ele>
        <time>2025-01-19T11:02:53Z</time>
      </trkpt>
      <trkpt lat="43.39809" lon="6.64528">
        <ele>236.4</ele>
        <time>2025-01-19T11:02:54Z</time>
      </trkpt>
      <trkpt lat="43.39809" lon="6.64528">
        <ele>236.4</ele>
        <time>2025-01-19T11:02:55Z</time>
      </trkpt>
      <trkpt lat="43.39809" lon="6.64528">
        <ele>236.4</ele>
        <time>2025-01-19T11:02:56Z</time>
      </trkpt>
      <trkpt lat="43.39809" lon="6.64528">
        <ele>236.5</ele>
        <time>2025-01-19T11:02:57Z</time>
      </trkpt>
      <trkpt lat="43.39809" lon="6.64528">
        <ele>236.5</ele>
        <time>2025-01-19T11:02:58Z</time>
      </trkpt>
      <trkpt lat="43.39809" lon="6.64528">
        <ele>236.4</ele>
        <time>2025-01-19T11:02:59Z</time>
      </trkpt>
      <trkpt lat="43.39809" lon="6.64528">
        <ele>236.3</ele>
        <time>2025-01-19T11:03:00Z</time>
      </trkpt>
      <trkpt lat="43.39809" lon="6.64529">
        <ele>236.3</ele>
        <time>2025-01-19T11:03:01Z</time>
      </trkpt>
      <trkpt lat="43.39809" lon="6.64529">
        <ele>236.3</ele>
        <time>2025-01-19T11:03:02Z</time>
      </trkpt>
      <trkpt lat="43.39809" lon="6.64529">
        <ele>236.3</ele>
        <time>2025-01-19T11:03:03Z</time>
      </trkpt>
      <trkpt lat="43.39809" lon="6.64529">
        <ele>236.3</ele>
        <time>2025-01-19T11:03:04Z</time>
      </trkpt>
      <trkpt lat="43.39809" lon="6.64529">
        <ele>236.4</ele>
        <time>2025-01-19T11:03:05Z</time>
      </trkpt>
      <trkpt lat="43.39809" lon="6.64529">
        <ele>236.4</ele>
        <time>2025-01-19T11:03:06Z</time>
      </trkpt>
      <trkpt lat="43.39809" lon="6.64529">
        <ele>236.4</ele>
        <time>2025-01-19T11:03:07Z</time>
      </trkpt>
      <trkpt lat="43.39809" lon="6.64529">
        <ele>236.4</ele>
        <time>2025-01-19T11:03:08Z</time>
      </trkpt>
      <trkpt lat="43.39808" lon="6.64529">
        <ele>236.4</ele>
        <time>2025-01-19T11:03:09Z</time>
      </trkpt>
      <trkpt lat="43.39808" lon="6.64529">
        <ele>236.5</ele>
        <time>2025-01-19T11:03:10Z</time>
      </trkpt>
      <trkpt lat="43.39808" lon="6.64529">
        <ele>236.5</ele>
        <time>2025-01-19T11:03:11Z</time>
      </trkpt>
      <trkpt lat="43.39808" lon="6.64529">
        <ele>236.5</ele>
        <time>2025-01-19T11:03:12Z</time>
      </trkpt>
      <trkpt lat="43.39808" lon="6.64529">
        <ele>236.4</ele>
        <time>2025-01-19T11:03:13Z</time>
      </trkpt>
      <trkpt lat="43.39808" lon="6.64529">
        <ele>236.4</ele>
        <time>2025-01-19T11:03:14Z</time>
      </trkpt>
      <trkpt lat="43.39808" lon="6.64529">
        <ele>236.5</ele>
        <time>2025-01-19T11:03:15Z</time>
      </trkpt>
      <trkpt lat="43.39808" lon="6.64529">
        <ele>236.5</ele>
        <time>2025-01-19T11:03:16Z</time>
      </trkpt>
      <trkpt lat="43.39808" lon="6.64529">
        <ele>236.5</ele>
        <time>2025-01-19T11:03:17Z</time>
      </trkpt>
      <trkpt lat="43.39808" lon="6.64529">
        <ele>236.6</ele>
        <time>2025-01-19T11:03:18Z</time>
      </trkpt>
      <trkpt lat="43.39808" lon="6.64529">
        <ele>236.7</ele>
        <time>2025-01-19T11:03:19Z</time>
      </trkpt>
      <trkpt lat="43.39808" lon="6.64529">
        <ele>236.7</ele>
        <time>2025-01-19T11:03:20Z</time>
      </trkpt>
      <trkpt lat="43.39808" lon="6.64529">
        <ele>236.7</ele>
        <time>2025-01-19T11:03:21Z</time>
      </trkpt>
      <trkpt lat="43.39808" lon="6.64529">
        <ele>236.7</ele>
        <time>2025-01-19T11:03:22Z</time>
      </trkpt>
      <trkpt lat="43.39808" lon="6.64529">
        <ele>236.7</ele>
        <time>2025-01-19T11:03:23Z</time>
      </trkpt>
      <trkpt lat="43.39808" lon="6.64529">
        <ele>236.8</ele>
        <time>2025-01-19T11:03:24Z</time>
      </trkpt>
      <trkpt lat="43.39808" lon="6.64529">
        <ele>236.8</ele>
        <time>2025-01-19T11:03:25Z</time>
      </trkpt>
      <trkpt lat="43.39808" lon="6.64529">
        <ele>236.8</ele>
        <time>2025-01-19T11:03:26Z</time>
      </trkpt>
      <trkpt lat="43.39808" lon="6.64529">
        <ele>236.8</ele>
        <time>2025-01-19T11:03:27Z</time>
      </trkpt>
      <trkpt lat="43.39808" lon="6.64529">
        <ele>236.7</ele>
        <time>2025-01-19T11:03:28Z</time>
      </trkpt>
      <trkpt lat="43.39808" lon="6.64529">
        <ele>236.7</ele>
        <time>2025-01-19T11:03:29Z</time>
      </trkpt>
      <trkpt lat="43.39808" lon="6.64529">
        <ele>236.7</ele>
        <time>2025-01-19T11:03:30Z</time>
      </trkpt>
      <trkpt lat="43.39808" lon="6.64529">
        <ele>236.7</ele>
        <time>2025-01-19T11:03:31Z</time>
      </trkpt>
      <trkpt lat="43.39808" lon="6.64529">
        <ele>236.7</ele>
        <time>2025-01-19T11:03:32Z</time>
      </trkpt>
      <trkpt lat="43.39808" lon="6.64529">
        <ele>236.7</ele>
        <time>2025-01-19T11:03:33Z</time>
      </trkpt>
      <trkpt lat="43.39808" lon="6.64529">
        <ele>236.7</ele>
        <time>2025-01-19T11:03:34Z</time>
      </trkpt>
      <trkpt lat="43.39808" lon="6.64529">
        <ele>236.7</ele>
        <time>2025-01-19T11:03:35Z</time>
      </trkpt>
      <trkpt lat="43.39808" lon="6.64529">
        <ele>236.7</ele>
        <time>2025-01-19T11:03:36Z</time>
      </trkpt>
      <trkpt lat="43.39808" lon="6.64529">
        <ele>236.8</ele>
        <time>2025-01-19T11:03:37Z</time>
      </trkpt>
      <trkpt lat="43.39808" lon="6.64529">
        <ele>236.7</ele>
        <time>2025-01-19T11:03:38Z</time>
      </trkpt>
      <trkpt lat="43.39808" lon="6.64529">
        <ele>236.7</ele>
        <time>2025-01-19T11:03:39Z</time>
      </trkpt>
      <trkpt lat="43.39808" lon="6.64529">
        <ele>236.7</ele>
        <time>2025-01-19T11:03:40Z</time>
      </trkpt>
      <trkpt lat="43.39808" lon="6.64529">
        <ele>236.7</ele>
        <time>2025-01-19T11:03:41Z</time>
      </trkpt>
      <trkpt lat="43.39808" lon="6.64529">
        <ele>236.7</ele>
        <time>2025-01-19T11:03:42Z</time>
      </trkpt>
      <trkpt lat="43.39808" lon="6.64529">
        <ele>236.8</ele>
        <time>2025-01-19T11:03:43Z</time>
      </trkpt>
      <trkpt lat="43.39808" lon="6.64529">
        <ele>236.8</ele>
        <time>2025-01-19T11:03:44Z</time>
      </trkpt>
      <trkpt lat="43.39809" lon="6.64529">
        <ele>236.8</ele>
        <time>2025-01-19T11:03:45Z</time>
      </trkpt>
      <trkpt lat="43.39809" lon="6.64529">
        <ele>236.7</ele>
        <time>2025-01-19T11:03:46Z</time>
      </trkpt>
      <trkpt lat="43.39809" lon="6.64529">
        <ele>236.7</ele>
        <time>2025-01-19T11:03:47Z</time>
      </trkpt>
      <trkpt lat="43.39809" lon="6.64529">
        <ele>236.8</ele>
        <time>2025-01-19T11:03:48Z</time>
      </trkpt>
      <trkpt lat="43.39809" lon="6.64529">
        <ele>236.9</ele>
        <time>2025-01-19T11:03:49Z</time>
      </trkpt>
      <trkpt lat="43.39809" lon="6.64528">
        <ele>236.9</ele>
        <time>2025-01-19T11:03:50Z</time>
      </trkpt>
      <trkpt lat="43.39809" lon="6.64529">
        <ele>237</ele>
        <time>2025-01-19T11:03:51Z</time>
      </trkpt>
      <trkpt lat="43.39808" lon="6.64529">
        <ele>237.1</ele>
        <time>2025-01-19T11:03:52Z</time>
      </trkpt>
      <trkpt lat="43.39808" lon="6.64529">
        <ele>237.1</ele>
        <time>2025-01-19T11:03:53Z</time>
      </trkpt>
      <trkpt lat="43.39808" lon="6.64529">
        <ele>237.1</ele>
        <time>2025-01-19T11:03:54Z</time>
      </trkpt>
      <trkpt lat="43.39808" lon="6.64529">
        <ele>237.1</ele>
        <time>2025-01-19T11:03:55Z</time>
      </trkpt>
      <trkpt lat="43.39808" lon="6.64529">
        <ele>237.1</ele>
        <time>2025-01-19T11:03:56Z</time>
      </trkpt>
      <trkpt lat="43.39808" lon="6.64529">
        <ele>237.1</ele>
        <time>2025-01-19T11:03:57Z</time>
      </trkpt>
      <trkpt lat="43.39808" lon="6.64529">
        <ele>237</ele>
        <time>2025-01-19T11:03:58Z</time>
      </trkpt>
      <trkpt lat="43.39808" lon="6.64529">
        <ele>237</ele>
        <time>2025-01-19T11:03:59Z</time>
      </trkpt>
      <trkpt lat="43.39808" lon="6.64529">
        <ele>237</ele>
        <time>2025-01-19T11:04:00Z</time>
      </trkpt>
      <trkpt lat="43.39809" lon="6.6453">
        <ele>237</ele>
        <time>2025-01-19T11:04:01Z</time>
      </trkpt>
      <trkpt lat="43.39809" lon="6.6453">
        <ele>237</ele>
        <time>2025-01-19T11:04:02Z</time>
      </trkpt>
      <trkpt lat="43.39809" lon="6.64531">
        <ele>237</ele>
        <time>2025-01-19T11:04:03Z</time>
      </trkpt>
      <trkpt lat="43.39809" lon="6.64532">
        <ele>237</ele>
        <time>2025-01-19T11:04:04Z</time>
      </trkpt>
      <trkpt lat="43.39809" lon="6.64532">
        <ele>237.1</ele>
        <time>2025-01-19T11:04:05Z</time>
      </trkpt>
      <trkpt lat="43.3981" lon="6.64532">
        <ele>237.1</ele>
        <time>2025-01-19T11:04:06Z</time>
      </trkpt>
      <trkpt lat="43.3981" lon="6.64532">
        <ele>237.1</ele>
        <time>2025-01-19T11:04:07Z</time>
      </trkpt>
      <trkpt lat="43.3981" lon="6.64532">
        <ele>237.1</ele>
        <time>2025-01-19T11:04:08Z</time>
      </trkpt>
      <trkpt lat="43.3981" lon="6.64532">
        <ele>237.1</ele>
        <time>2025-01-19T11:04:09Z</time>
      </trkpt>
      <trkpt lat="43.3981" lon="6.64532">
        <ele>237</ele>
        <time>2025-01-19T11:04:10Z</time>
      </trkpt>
      <trkpt lat="43.3981" lon="6.64532">
        <ele>237.1</ele>
        <time>2025-01-19T11:04:11Z</time>
      </trkpt>
      <trkpt lat="43.3981" lon="6.64533">
        <ele>237.1</ele>
        <time>2025-01-19T11:04:12Z</time>
      </trkpt>
      <trkpt lat="43.39811" lon="6.64533">
        <ele>237.2</ele>
        <time>2025-01-19T11:04:13Z</time>
      </trkpt>
      <trkpt lat="43.39811" lon="6.64534">
        <ele>237.2</ele>
        <time>2025-01-19T11:04:14Z</time>
      </trkpt>
      <trkpt lat="43.39812" lon="6.64535">
        <ele>237.3</ele>
        <time>2025-01-19T11:04:15Z</time>
      </trkpt>
      <trkpt lat="43.39812" lon="6.64536">
        <ele>237.3</ele>
        <time>2025-01-19T11:04:16Z</time>
      </trkpt>
      <trkpt lat="43.39813" lon="6.64537">
        <ele>237.4</ele>
        <time>2025-01-19T11:04:17Z</time>
      </trkpt>
      <trkpt lat="43.39813" lon="6.64538">
        <ele>237.4</ele>
        <time>2025-01-19T11:04:18Z</time>
      </trkpt>
      <trkpt lat="43.39813" lon="6.64538">
        <ele>237.5</ele>
        <time>2025-01-19T11:04:19Z</time>
      </trkpt>
      <trkpt lat="43.39814" lon="6.64539">
        <ele>237.6</ele>
        <time>2025-01-19T11:04:20Z</time>
      </trkpt>
      <trkpt lat="43.39814" lon="6.6454">
        <ele>237.6</ele>
        <time>2025-01-19T11:04:21Z</time>
      </trkpt>
      <trkpt lat="43.39814" lon="6.64541">
        <ele>237.6</ele>
        <time>2025-01-19T11:04:22Z</time>
      </trkpt>
      <trkpt lat="43.39815" lon="6.64541">
        <ele>237.7</ele>
        <time>2025-01-19T11:04:23Z</time>
      </trkpt>
      <trkpt lat="43.39815" lon="6.64542">
        <ele>237.8</ele>
        <time>2025-01-19T11:04:24Z</time>
      </trkpt>
      <trkpt lat="43.39816" lon="6.64542">
        <ele>237.9</ele>
        <time>2025-01-19T11:04:25Z</time>
      </trkpt>
      <trkpt lat="43.39816" lon="6.64543">
        <ele>237.9</ele>
        <time>2025-01-19T11:04:26Z</time>
      </trkpt>
      <trkpt lat="43.39817" lon="6.64544">
        <ele>238</ele>
        <time>2025-01-19T11:04:27Z</time>
      </trkpt>
      <trkpt lat="43.39817" lon="6.64545">
        <ele>238.1</ele>
        <time>2025-01-19T11:04:28Z</time>
      </trkpt>
      <trkpt lat="43.39817" lon="6.64546">
        <ele>238.3</ele>
        <time>2025-01-19T11:04:29Z</time>
      </trkpt>
      <trkpt lat="43.39818" lon="6.64547">
        <ele>238.4</ele>
        <time>2025-01-19T11:04:30Z</time>
      </trkpt>
      <trkpt lat="43.39818" lon="6.64548">
        <ele>238.5</ele>
        <time>2025-01-19T11:04:31Z</time>
      </trkpt>
      <trkpt lat="43.39819" lon="6.64549">
        <ele>238.6</ele>
        <time>2025-01-19T11:04:32Z</time>
      </trkpt>
      <trkpt lat="43.3982" lon="6.6455">
        <ele>238.8</ele>
        <time>2025-01-19T11:04:33Z</time>
      </trkpt>
      <trkpt lat="43.3982" lon="6.6455">
        <ele>238.9</ele>
        <time>2025-01-19T11:04:34Z</time>
      </trkpt>
      <trkpt lat="43.39821" lon="6.64551">
        <ele>239.1</ele>
        <time>2025-01-19T11:04:35Z</time>
      </trkpt>
      <trkpt lat="43.39821" lon="6.64552">
        <ele>239.2</ele>
        <time>2025-01-19T11:04:36Z</time>
      </trkpt>
      <trkpt lat="43.39821" lon="6.64553">
        <ele>239.3</ele>
        <time>2025-01-19T11:04:37Z</time>
      </trkpt>
      <trkpt lat="43.39821" lon="6.64555">
        <ele>239.5</ele>
        <time>2025-01-19T11:04:38Z</time>
      </trkpt>
      <trkpt lat="43.39822" lon="6.64555">
        <ele>239.6</ele>
        <time>2025-01-19T11:04:39Z</time>
      </trkpt>
      <trkpt lat="43.39822" lon="6.64556">
        <ele>239.7</ele>
        <time>2025-01-19T11:04:40Z</time>
      </trkpt>
      <trkpt lat="43.39823" lon="6.64557">
        <ele>239.8</ele>
        <time>2025-01-19T11:04:41Z</time>
      </trkpt>
      <trkpt lat="43.39823" lon="6.64558">
        <ele>239.9</ele>
        <time>2025-01-19T11:04:42Z</time>
      </trkpt>
      <trkpt lat="43.39823" lon="6.64559">
        <ele>240</ele>
        <time>2025-01-19T11:04:43Z</time>
      </trkpt>
      <trkpt lat="43.39823" lon="6.6456">
        <ele>240.1</ele>
        <time>2025-01-19T11:04:44Z</time>
      </trkpt>
      <trkpt lat="43.39824" lon="6.64561">
        <ele>240.2</ele>
        <time>2025-01-19T11:04:45Z</time>
      </trkpt>
      <trkpt lat="43.39824" lon="6.64561">
        <ele>240.4</ele>
        <time>2025-01-19T11:04:46Z</time>
      </trkpt>
      <trkpt lat="43.39825" lon="6.64562">
        <ele>240.6</ele>
        <time>2025-01-19T11:04:47Z</time>
      </trkpt>
      <trkpt lat="43.39825" lon="6.64563">
        <ele>240.8</ele>
        <time>2025-01-19T11:04:48Z</time>
      </trkpt>
      <trkpt lat="43.39826" lon="6.64564">
        <ele>241</ele>
        <time>2025-01-19T11:04:49Z</time>
      </trkpt>
      <trkpt lat="43.39826" lon="6.64564">
        <ele>241.1</ele>
        <time>2025-01-19T11:04:50Z</time>
      </trkpt>
      <trkpt lat="43.39827" lon="6.64565">
        <ele>241.3</ele>
        <time>2025-01-19T11:04:51Z</time>
      </trkpt>
      <trkpt lat="43.39827" lon="6.64566">
        <ele>241.5</ele>
        <time>2025-01-19T11:04:52Z</time>
      </trkpt>
      <trkpt lat="43.39827" lon="6.64567">
        <ele>241.7</ele>
        <time>2025-01-19T11:04:53Z</time>
      </trkpt>
      <trkpt lat="43.39827" lon="6.64568">
        <ele>241.9</ele>
        <time>2025-01-19T11:04:54Z</time>
      </trkpt>
      <trkpt lat="43.39827" lon="6.6457">
        <ele>242.2</ele>
        <time>2025-01-19T11:04:55Z</time>
      </trkpt>
      <trkpt lat="43.39827" lon="6.64571">
        <ele>242.5</ele>
        <time>2025-01-19T11:04:56Z</time>
      </trkpt>
      <trkpt lat="43.39826" lon="6.64573">
        <ele>242.7</ele>
        <time>2025-01-19T11:04:57Z</time>
      </trkpt>
      <trkpt lat="43.39826" lon="6.64574">
        <ele>243</ele>
        <time>2025-01-19T11:04:58Z</time>
      </trkpt>
      <trkpt lat="43.39826" lon="6.64575">
        <ele>243.1</ele>
        <time>2025-01-19T11:04:59Z</time>
      </trkpt>
      <trkpt lat="43.39826" lon="6.64576">
        <ele>243.2</ele>
        <time>2025-01-19T11:05:00Z</time>
      </trkpt>
      <trkpt lat="43.39825" lon="6.64578">
        <ele>243.4</ele>
        <time>2025-01-19T11:05:01Z</time>
      </trkpt>
      <trkpt lat="43.39824" lon="6.64579">
        <ele>243.5</ele>
        <time>2025-01-19T11:05:02Z</time>
      </trkpt>
      <trkpt lat="43.39824" lon="6.64581">
        <ele>243.6</ele>
        <time>2025-01-19T11:05:03Z</time>
      </trkpt>
      <trkpt lat="43.39824" lon="6.64582">
        <ele>243.7</ele>
        <time>2025-01-19T11:05:04Z</time>
      </trkpt>
      <trkpt lat="43.39824" lon="6.64583">
        <ele>243.7</ele>
        <time>2025-01-19T11:05:05Z</time>
      </trkpt>
      <trkpt lat="43.39824" lon="6.64584">
        <ele>243.7</ele>
        <time>2025-01-19T11:05:06Z</time>
      </trkpt>
      <trkpt lat="43.39824" lon="6.64586">
        <ele>243.8</ele>
        <time>2025-01-19T11:05:07Z</time>
      </trkpt>
      <trkpt lat="43.39824" lon="6.64587">
        <ele>243.8</ele>
        <time>2025-01-19T11:05:08Z</time>
      </trkpt>
      <trkpt lat="43.39824" lon="6.64589">
        <ele>244</ele>
        <time>2025-01-19T11:05:09Z</time>
      </trkpt>
      <trkpt lat="43.39825" lon="6.6459">
        <ele>244</ele>
        <time>2025-01-19T11:05:10Z</time>
      </trkpt>
      <trkpt lat="43.39825" lon="6.64591">
        <ele>244.1</ele>
        <time>2025-01-19T11:05:11Z</time>
      </trkpt>
      <trkpt lat="43.39825" lon="6.64592">
        <ele>244.1</ele>
        <time>2025-01-19T11:05:12Z</time>
      </trkpt>
      <trkpt lat="43.39826" lon="6.64593">
        <ele>244.1</ele>
        <time>2025-01-19T11:05:13Z</time>
      </trkpt>
      <trkpt lat="43.39827" lon="6.64594">
        <ele>244.1</ele>
        <time>2025-01-19T11:05:14Z</time>
      </trkpt>
      <trkpt lat="43.39828" lon="6.64595">
        <ele>244.2</ele>
        <time>2025-01-19T11:05:15Z</time>
      </trkpt>
      <trkpt lat="43.39829" lon="6.64596">
        <ele>244.2</ele>
        <time>2025-01-19T11:05:16Z</time>
      </trkpt>
      <trkpt lat="43.39829" lon="6.64596">
        <ele>244.3</ele>
        <time>2025-01-19T11:05:17Z</time>
      </trkpt>
      <trkpt lat="43.3983" lon="6.64596">
        <ele>244.5</ele>
        <time>2025-01-19T11:05:18Z</time>
      </trkpt>
      <trkpt lat="43.3983" lon="6.64596">
        <ele>244.6</ele>
        <time>2025-01-19T11:05:19Z</time>
      </trkpt>
      <trkpt lat="43.39831" lon="6.64596">
        <ele>244.7</ele>
        <time>2025-01-19T11:05:20Z</time>
      </trkpt>
      <trkpt lat="43.39832" lon="6.64597">
        <ele>244.9</ele>
        <time>2025-01-19T11:05:21Z</time>
      </trkpt>
      <trkpt lat="43.39832" lon="6.64598">
        <ele>244.9</ele>
        <time>2025-01-19T11:05:22Z</time>
      </trkpt>
      <trkpt lat="43.39833" lon="6.64598">
        <ele>245</ele>
        <time>2025-01-19T11:05:23Z</time>
      </trkpt>
      <trkpt lat="43.39833" lon="6.64598">
        <ele>245.1</ele>
        <time>2025-01-19T11:05:24Z</time>
      </trkpt>
      <trkpt lat="43.39834" lon="6.64597">
        <ele>245.3</ele>
        <time>2025-01-19T11:05:25Z</time>
      </trkpt>
      <trkpt lat="43.39835" lon="6.64597">
        <ele>245.5</ele>
        <time>2025-01-19T11:05:26Z</time>
      </trkpt>
      <trkpt lat="43.39835" lon="6.64598">
        <ele>245.6</ele>
        <time>2025-01-19T11:05:27Z</time>
      </trkpt>
      <trkpt lat="43.39836" lon="6.64598">
        <ele>245.6</ele>
        <time>2025-01-19T11:05:28Z</time>
      </trkpt>
      <trkpt lat="43.39837" lon="6.64598">
        <ele>245.7</ele>
        <time>2025-01-19T11:05:29Z</time>
      </trkpt>
      <trkpt lat="43.39838" lon="6.64597">
        <ele>245.9</ele>
        <time>2025-01-19T11:05:30Z</time>
      </trkpt>
      <trkpt lat="43.39838" lon="6.64598">
        <ele>245.9</ele>
        <time>2025-01-19T11:05:31Z</time>
      </trkpt>
      <trkpt lat="43.39839" lon="6.64597">
        <ele>245.9</ele>
        <time>2025-01-19T11:05:32Z</time>
      </trkpt>
      <trkpt lat="43.39839" lon="6.64598">
        <ele>246</ele>
        <time>2025-01-19T11:05:33Z</time>
      </trkpt>
      <trkpt lat="43.3984" lon="6.64598">
        <ele>246</ele>
        <time>2025-01-19T11:05:34Z</time>
      </trkpt>
      <trkpt lat="43.39841" lon="6.64598">
        <ele>246.1</ele>
        <time>2025-01-19T11:05:35Z</time>
      </trkpt>
      <trkpt lat="43.39842" lon="6.64598">
        <ele>246.3</ele>
        <time>2025-01-19T11:05:36Z</time>
      </trkpt>
      <trkpt lat="43.39842" lon="6.64598">
        <ele>246.4</ele>
        <time>2025-01-19T11:05:37Z</time>
      </trkpt>
      <trkpt lat="43.39843" lon="6.64598">
        <ele>246.5</ele>
        <time>2025-01-19T11:05:38Z</time>
      </trkpt>
      <trkpt lat="43.39844" lon="6.64598">
        <ele>246.7</ele>
        <time>2025-01-19T11:05:39Z</time>
      </trkpt>
      <trkpt lat="43.39845" lon="6.64598">
        <ele>246.8</ele>
        <time>2025-01-19T11:05:40Z</time>
      </trkpt>
      <trkpt lat="43.39846" lon="6.64598">
        <ele>246.9</ele>
        <time>2025-01-19T11:05:41Z</time>
      </trkpt>
      <trkpt lat="43.39846" lon="6.64598">
        <ele>247.1</ele>
        <time>2025-01-19T11:05:42Z</time>
      </trkpt>
      <trkpt lat="43.39847" lon="6.64598">
        <ele>247.2</ele>
        <time>2025-01-19T11:05:43Z</time>
      </trkpt>
      <trkpt lat="43.39848" lon="6.64598">
        <ele>247.4</ele>
        <time>2025-01-19T11:05:44Z</time>
      </trkpt>
      <trkpt lat="43.39849" lon="6.64598">
        <ele>247.5</ele>
        <time>2025-01-19T11:05:45Z</time>
      </trkpt>
      <trkpt lat="43.3985" lon="6.64598">
        <ele>247.5</ele>
        <time>2025-01-19T11:05:46Z</time>
      </trkpt>
      <trkpt lat="43.39851" lon="6.64598">
        <ele>247.7</ele>
        <time>2025-01-19T11:05:47Z</time>
      </trkpt>
      <trkpt lat="43.39851" lon="6.64598">
        <ele>247.8</ele>
        <time>2025-01-19T11:05:48Z</time>
      </trkpt>
      <trkpt lat="43.39852" lon="6.64598">
        <ele>247.9</ele>
        <time>2025-01-19T11:05:49Z</time>
      </trkpt>
      <trkpt lat="43.39852" lon="6.64598">
        <ele>247.9</ele>
        <time>2025-01-19T11:05:50Z</time>
      </trkpt>
      <trkpt lat="43.39853" lon="6.64598">
        <ele>248</ele>
        <time>2025-01-19T11:05:51Z</time>
      </trkpt>
      <trkpt lat="43.39854" lon="6.64599">
        <ele>248.1</ele>
        <time>2025-01-19T11:05:52Z</time>
      </trkpt>
      <trkpt lat="43.39854" lon="6.64599">
        <ele>248.3</ele>
        <time>2025-01-19T11:05:53Z</time>
      </trkpt>
      <trkpt lat="43.39855" lon="6.64599">
        <ele>248.4</ele>
        <time>2025-01-19T11:05:54Z</time>
      </trkpt>
      <trkpt lat="43.39855" lon="6.64599">
        <ele>248.5</ele>
        <time>2025-01-19T11:05:55Z</time>
      </trkpt>
      <trkpt lat="43.39856" lon="6.64599">
        <ele>248.6</ele>
        <time>2025-01-19T11:05:56Z</time>
      </trkpt>
      <trkpt lat="43.39857" lon="6.646">
        <ele>248.8</ele>
        <time>2025-01-19T11:05:57Z</time>
      </trkpt>
      <trkpt lat="43.39857" lon="6.64599">
        <ele>248.9</ele>
        <time>2025-01-19T11:05:58Z</time>
      </trkpt>
      <trkpt lat="43.39858" lon="6.64599">
        <ele>249.1</ele>
        <time>2025-01-19T11:05:59Z</time>
      </trkpt>
      <trkpt lat="43.39859" lon="6.64599">
        <ele>249.2</ele>
        <time>2025-01-19T11:06:00Z</time>
      </trkpt>
      <trkpt lat="43.39859" lon="6.64599">
        <ele>249.3</ele>
        <time>2025-01-19T11:06:01Z</time>
      </trkpt>
      <trkpt lat="43.3986" lon="6.64599">
        <ele>249.4</ele>
        <time>2025-01-19T11:06:02Z</time>
      </trkpt>
      <trkpt lat="43.3986" lon="6.646">
        <ele>249.6</ele>
        <time>2025-01-19T11:06:03Z</time>
      </trkpt>
      <trkpt lat="43.39861" lon="6.64599">
        <ele>249.8</ele>
        <time>2025-01-19T11:06:04Z</time>
      </trkpt>
      <trkpt lat="43.39861" lon="6.646">
        <ele>250</ele>
        <time>2025-01-19T11:06:05Z</time>
      </trkpt>
      <trkpt lat="43.39862" lon="6.646">
        <ele>250.2</ele>
        <time>2025-01-19T11:06:06Z</time>
      </trkpt>
      <trkpt lat="43.39862" lon="6.64599">
        <ele>250.4</ele>
        <time>2025-01-19T11:06:07Z</time>
      </trkpt>
      <trkpt lat="43.39862" lon="6.64599">
        <ele>250.4</ele>
        <time>2025-01-19T11:06:08Z</time>
      </trkpt>
      <trkpt lat="43.39863" lon="6.646">
        <ele>250.6</ele>
        <time>2025-01-19T11:06:09Z</time>
      </trkpt>
      <trkpt lat="43.39864" lon="6.646">
        <ele>250.7</ele>
        <time>2025-01-19T11:06:10Z</time>
      </trkpt>
      <trkpt lat="43.39864" lon="6.646">
        <ele>250.9</ele>
        <time>2025-01-19T11:06:11Z</time>
      </trkpt>
      <trkpt lat="43.39864" lon="6.646">
        <ele>251</ele>
        <time>2025-01-19T11:06:12Z</time>
      </trkpt>
      <trkpt lat="43.39865" lon="6.646">
        <ele>251.2</ele>
        <time>2025-01-19T11:06:13Z</time>
      </trkpt>
      <trkpt lat="43.39865" lon="6.646">
        <ele>251.4</ele>
        <time>2025-01-19T11:06:14Z</time>
      </trkpt>
      <trkpt lat="43.39866" lon="6.646">
        <ele>251.6</ele>
        <time>2025-01-19T11:06:15Z</time>
      </trkpt>
      <trkpt lat="43.39867" lon="6.646">
        <ele>251.8</ele>
        <time>2025-01-19T11:06:16Z</time>
      </trkpt>
      <trkpt lat="43.39867" lon="6.64599">
        <ele>251.9</ele>
        <time>2025-01-19T11:06:17Z</time>
      </trkpt>
      <trkpt lat="43.39868" lon="6.64599">
        <ele>252.1</ele>
        <time>2025-01-19T11:06:18Z</time>
      </trkpt>
      <trkpt lat="43.39868" lon="6.64599">
        <ele>252.2</ele>
        <time>2025-01-19T11:06:19Z</time>
      </trkpt>
      <trkpt lat="43.39869" lon="6.646">
        <ele>252.4</ele>
        <time>2025-01-19T11:06:20Z</time>
      </trkpt>
      <trkpt lat="43.3987" lon="6.646">
        <ele>252.7</ele>
        <time>2025-01-19T11:06:21Z</time>
      </trkpt>
      <trkpt lat="43.39871" lon="6.646">
        <ele>252.8</ele>
        <time>2025-01-19T11:06:22Z</time>
      </trkpt>
      <trkpt lat="43.39871" lon="6.646">
        <ele>252.9</ele>
        <time>2025-01-19T11:06:23Z</time>
      </trkpt>
      <trkpt lat="43.39872" lon="6.646">
        <ele>253.1</ele>
        <time>2025-01-19T11:06:24Z</time>
      </trkpt>
      <trkpt lat="43.39873" lon="6.646">
        <ele>253.2</ele>
        <time>2025-01-19T11:06:25Z</time>
      </trkpt>
      <trkpt lat="43.39873" lon="6.646">
        <ele>253.4</ele>
        <time>2025-01-19T11:06:26Z</time>
      </trkpt>
      <trkpt lat="43.39874" lon="6.646">
        <ele>253.6</ele>
        <time>2025-01-19T11:06:27Z</time>
      </trkpt>
      <trkpt lat="43.39875" lon="6.646">
        <ele>253.8</ele>
        <time>2025-01-19T11:06:28Z</time>
      </trkpt>
      <trkpt lat="43.39875" lon="6.646">
        <ele>254</ele>
        <time>2025-01-19T11:06:29Z</time>
      </trkpt>
      <trkpt lat="43.39876" lon="6.646">
        <ele>254.1</ele>
        <time>2025-01-19T11:06:30Z</time>
      </trkpt>
      <trkpt lat="43.39877" lon="6.646">
        <ele>254.2</ele>
        <time>2025-01-19T11:06:31Z</time>
      </trkpt>
      <trkpt lat="43.39877" lon="6.646">
        <ele>254.4</ele>
        <time>2025-01-19T11:06:32Z</time>
      </trkpt>
      <trkpt lat="43.39878" lon="6.646">
        <ele>254.5</ele>
        <time>2025-01-19T11:06:33Z</time>
      </trkpt>
      <trkpt lat="43.39878" lon="6.646">
        <ele>254.6</ele>
        <time>2025-01-19T11:06:34Z</time>
      </trkpt>
      <trkpt lat="43.39879" lon="6.646">
        <ele>254.7</ele>
        <time>2025-01-19T11:06:35Z</time>
      </trkpt>
      <trkpt lat="43.39879" lon="6.646">
        <ele>254.8</ele>
        <time>2025-01-19T11:06:36Z</time>
      </trkpt>
      <trkpt lat="43.3988" lon="6.646">
        <ele>254.9</ele>
        <time>2025-01-19T11:06:37Z</time>
      </trkpt>
      <trkpt lat="43.3988" lon="6.646">
        <ele>255.1</ele>
        <time>2025-01-19T11:06:38Z</time>
      </trkpt>
      <trkpt lat="43.39881" lon="6.646">
        <ele>255.2</ele>
        <time>2025-01-19T11:06:39Z</time>
      </trkpt>
      <trkpt lat="43.39881" lon="6.64601">
        <ele>255.3</ele>
        <time>2025-01-19T11:06:40Z</time>
      </trkpt>
      <trkpt lat="43.39882" lon="6.64601">
        <ele>255.5</ele>
        <time>2025-01-19T11:06:41Z</time>
      </trkpt>
      <trkpt lat="43.39882" lon="6.64601">
        <ele>255.5</ele>
        <time>2025-01-19T11:06:42Z</time>
      </trkpt>
      <trkpt lat="43.39883" lon="6.64602">
        <ele>255.7</ele>
        <time>2025-01-19T11:06:43Z</time>
      </trkpt>
      <trkpt lat="43.39883" lon="6.64602">
        <ele>255.9</ele>
        <time>2025-01-19T11:06:44Z</time>
      </trkpt>
      <trkpt lat="43.39884" lon="6.64603">
        <ele>256.1</ele>
        <time>2025-01-19T11:06:45Z</time>
      </trkpt>
      <trkpt lat="43.39884" lon="6.64603">
        <ele>256.2</ele>
        <time>2025-01-19T11:06:46Z</time>
      </trkpt>
      <trkpt lat="43.39884" lon="6.64604">
        <ele>256.4</ele>
        <time>2025-01-19T11:06:47Z</time>
      </trkpt>
      <trkpt lat="43.39885" lon="6.64604">
        <ele>256.6</ele>
        <time>2025-01-19T11:06:48Z</time>
      </trkpt>
      <trkpt lat="43.39885" lon="6.64604">
        <ele>256.8</ele>
        <time>2025-01-19T11:06:49Z</time>
      </trkpt>
      <trkpt lat="43.39886" lon="6.64605">
        <ele>256.9</ele>
        <time>2025-01-19T11:06:50Z</time>
      </trkpt>
      <trkpt lat="43.39886" lon="6.64605">
        <ele>257.1</ele>
        <time>2025-01-19T11:06:51Z</time>
      </trkpt>
      <trkpt lat="43.39886" lon="6.64606">
        <ele>257.3</ele>
        <time>2025-01-19T11:06:52Z</time>
      </trkpt>
      <trkpt lat="43.39886" lon="6.64606">
        <ele>257.5</ele>
        <time>2025-01-19T11:06:53Z</time>
      </trkpt>
      <trkpt lat="43.39887" lon="6.64606">
        <ele>257.7</ele>
        <time>2025-01-19T11:06:54Z</time>
      </trkpt>
      <trkpt lat="43.39887" lon="6.64606">
        <ele>257.8</ele>
        <time>2025-01-19T11:06:55Z</time>
      </trkpt>
      <trkpt lat="43.39887" lon="6.64607">
        <ele>257.9</ele>
        <time>2025-01-19T11:06:56Z</time>
      </trkpt>
      <trkpt lat="43.39887" lon="6.64608">
        <ele>258.1</ele>
        <time>2025-01-19T11:06:57Z</time>
      </trkpt>
      <trkpt lat="43.39888" lon="6.64609">
        <ele>258.2</ele>
        <time>2025-01-19T11:06:58Z</time>
      </trkpt>
      <trkpt lat="43.39888" lon="6.6461">
        <ele>258.4</ele>
        <time>2025-01-19T11:06:59Z</time>
      </trkpt>
      <trkpt lat="43.39888" lon="6.6461">
        <ele>258.6</ele>
        <time>2025-01-19T11:07:00Z</time>
      </trkpt>
      <trkpt lat="43.39889" lon="6.64611">
        <ele>258.8</ele>
        <time>2025-01-19T11:07:01Z</time>
      </trkpt>
      <trkpt lat="43.39889" lon="6.64611">
        <ele>258.9</ele>
        <time>2025-01-19T11:07:02Z</time>
      </trkpt>
      <trkpt lat="43.39889" lon="6.64611">
        <ele>259</ele>
        <time>2025-01-19T11:07:03Z</time>
      </trkpt>
      <trkpt lat="43.39889" lon="6.64611">
        <ele>259.1</ele>
        <time>2025-01-19T11:07:04Z</time>
      </trkpt>
      <trkpt lat="43.39889" lon="6.64612">
        <ele>259.2</ele>
        <time>2025-01-19T11:07:05Z</time>
      </trkpt>
      <trkpt lat="43.39889" lon="6.64612">
        <ele>259.3</ele>
        <time>2025-01-19T11:07:06Z</time>
      </trkpt>
      <trkpt lat="43.3989" lon="6.64612">
        <ele>259.3</ele>
        <time>2025-01-19T11:07:07Z</time>
      </trkpt>
      <trkpt lat="43.39889" lon="6.64612">
        <ele>259.4</ele>
        <time>2025-01-19T11:07:08Z</time>
      </trkpt>
      <trkpt lat="43.3989" lon="6.64612">
        <ele>259.5</ele>
        <time>2025-01-19T11:07:09Z</time>
      </trkpt>
      <trkpt lat="43.3989" lon="6.64612">
        <ele>259.5</ele>
        <time>2025-01-19T11:07:10Z</time>
      </trkpt>
      <trkpt lat="43.3989" lon="6.64613">
        <ele>259.7</ele>
        <time>2025-01-19T11:07:11Z</time>
      </trkpt>
      <trkpt lat="43.3989" lon="6.64613">
        <ele>259.8</ele>
        <time>2025-01-19T11:07:12Z</time>
      </trkpt>
      <trkpt lat="43.39891" lon="6.64614">
        <ele>259.9</ele>
        <time>2025-01-19T11:07:13Z</time>
      </trkpt>
      <trkpt lat="43.39891" lon="6.64614">
        <ele>260</ele>
        <time>2025-01-19T11:07:14Z</time>
      </trkpt>
      <trkpt lat="43.3989" lon="6.64615">
        <ele>260.2</ele>
        <time>2025-01-19T11:07:15Z</time>
      </trkpt>
      <trkpt lat="43.3989" lon="6.64616">
        <ele>260.5</ele>
        <time>2025-01-19T11:07:16Z</time>
      </trkpt>
      <trkpt lat="43.3989" lon="6.64617">
        <ele>260.7</ele>
        <time>2025-01-19T11:07:17Z</time>
      </trkpt>
      <trkpt lat="43.3989" lon="6.64617">
        <ele>260.8</ele>
        <time>2025-01-19T11:07:18Z</time>
      </trkpt>
      <trkpt lat="43.39891" lon="6.64617">
        <ele>261</ele>
        <time>2025-01-19T11:07:19Z</time>
      </trkpt>
      <trkpt lat="43.39891" lon="6.64618">
        <ele>261.2</ele>
        <time>2025-01-19T11:07:20Z</time>
      </trkpt>
      <trkpt lat="43.39891" lon="6.64618">
        <ele>261.4</ele>
        <time>2025-01-19T11:07:21Z</time>
      </trkpt>
      <trkpt lat="43.39892" lon="6.64619">
        <ele>261.6</ele>
        <time>2025-01-19T11:07:22Z</time>
      </trkpt>
      <trkpt lat="43.39892" lon="6.64619">
        <ele>261.8</ele>
        <time>2025-01-19T11:07:23Z</time>
      </trkpt>
      <trkpt lat="43.39892" lon="6.6462">
        <ele>262.1</ele>
        <time>2025-01-19T11:07:24Z</time>
      </trkpt>
      <trkpt lat="43.39893" lon="6.64621">
        <ele>262.2</ele>
        <time>2025-01-19T11:07:25Z</time>
      </trkpt>
      <trkpt lat="43.39893" lon="6.64621">
        <ele>262.6</ele>
        <time>2025-01-19T11:07:26Z</time>
      </trkpt>
      <trkpt lat="43.39893" lon="6.64622">
        <ele>262.7</ele>
        <time>2025-01-19T11:07:27Z</time>
      </trkpt>
      <trkpt lat="43.39893" lon="6.64622">
        <ele>262.8</ele>
        <time>2025-01-19T11:07:28Z</time>
      </trkpt>
      <trkpt lat="43.39894" lon="6.64622">
        <ele>263</ele>
        <time>2025-01-19T11:07:29Z</time>
      </trkpt>
      <trkpt lat="43.39894" lon="6.64623">
        <ele>263.2</ele>
        <time>2025-01-19T11:07:30Z</time>
      </trkpt>
      <trkpt lat="43.39894" lon="6.64624">
        <ele>263.3</ele>
        <time>2025-01-19T11:07:31Z</time>
      </trkpt>
      <trkpt lat="43.39895" lon="6.64625">
        <ele>263.6</ele>
        <time>2025-01-19T11:07:32Z</time>
      </trkpt>
      <trkpt lat="43.39895" lon="6.64626">
        <ele>263.8</ele>
        <time>2025-01-19T11:07:33Z</time>
      </trkpt>
      <trkpt lat="43.39895" lon="6.64626">
        <ele>264</ele>
        <time>2025-01-19T11:07:34Z</time>
      </trkpt>
      <trkpt lat="43.39896" lon="6.64627">
        <ele>264.2</ele>
        <time>2025-01-19T11:07:35Z</time>
      </trkpt>
      <trkpt lat="43.39896" lon="6.64627">
        <ele>264.4</ele>
        <time>2025-01-19T11:07:36Z</time>
      </trkpt>
      <trkpt lat="43.39897" lon="6.64627">
        <ele>264.6</ele>
        <time>2025-01-19T11:07:37Z</time>
      </trkpt>
      <trkpt lat="43.39897" lon="6.64628">
        <ele>264.7</ele>
        <time>2025-01-19T11:07:38Z</time>
      </trkpt>
      <trkpt lat="43.39898" lon="6.64628">
        <ele>264.9</ele>
        <time>2025-01-19T11:07:39Z</time>
      </trkpt>
      <trkpt lat="43.39898" lon="6.64629">
        <ele>265.2</ele>
        <time>2025-01-19T11:07:40Z</time>
      </trkpt>
      <trkpt lat="43.39898" lon="6.6463">
        <ele>265.3</ele>
        <time>2025-01-19T11:07:41Z</time>
      </trkpt>
      <trkpt lat="43.39899" lon="6.64631">
        <ele>265.5</ele>
        <time>2025-01-19T11:07:42Z</time>
      </trkpt>
      <trkpt lat="43.39899" lon="6.64633">
        <ele>265.7</ele>
        <time>2025-01-19T11:07:43Z</time>
      </trkpt>
      <trkpt lat="43.39899" lon="6.64633">
        <ele>266</ele>
        <time>2025-01-19T11:07:44Z</time>
      </trkpt>
      <trkpt lat="43.399" lon="6.64634">
        <ele>266.3</ele>
        <time>2025-01-19T11:07:45Z</time>
      </trkpt>
      <trkpt lat="43.399" lon="6.64635">
        <ele>266.5</ele>
        <time>2025-01-19T11:07:46Z</time>
      </trkpt>
      <trkpt lat="43.39901" lon="6.64636">
        <ele>266.8</ele>
        <time>2025-01-19T11:07:47Z</time>
      </trkpt>
      <trkpt lat="43.39901" lon="6.64637">
        <ele>267</ele>
        <time>2025-01-19T11:07:48Z</time>
      </trkpt>
      <trkpt lat="43.39902" lon="6.64637">
        <ele>267.1</ele>
        <time>2025-01-19T11:07:49Z</time>
      </trkpt>
      <trkpt lat="43.39902" lon="6.64638">
        <ele>267.2</ele>
        <time>2025-01-19T11:07:50Z</time>
      </trkpt>
      <trkpt lat="43.39903" lon="6.64638">
        <ele>267.6</ele>
        <time>2025-01-19T11:07:51Z</time>
      </trkpt>
      <trkpt lat="43.39903" lon="6.64638">
        <ele>267.9</ele>
        <time>2025-01-19T11:07:52Z</time>
      </trkpt>
      <trkpt lat="43.39903" lon="6.64639">
        <ele>268.2</ele>
        <time>2025-01-19T11:07:53Z</time>
      </trkpt>
      <trkpt lat="43.39903" lon="6.64639">
        <ele>268.6</ele>
        <time>2025-01-19T11:07:54Z</time>
      </trkpt>
      <trkpt lat="43.39903" lon="6.6464">
        <ele>268.8</ele>
        <time>2025-01-19T11:07:55Z</time>
      </trkpt>
      <trkpt lat="43.39903" lon="6.64641">
        <ele>269.1</ele>
        <time>2025-01-19T11:07:56Z</time>
      </trkpt>
      <trkpt lat="43.39904" lon="6.64641">
        <ele>269.4</ele>
        <time>2025-01-19T11:07:57Z</time>
      </trkpt>
      <trkpt lat="43.39904" lon="6.64641">
        <ele>269.6</ele>
        <time>2025-01-19T11:07:58Z</time>
      </trkpt>
      <trkpt lat="43.39904" lon="6.64641">
        <ele>269.8</ele>
        <time>2025-01-19T11:07:59Z</time>
      </trkpt>
      <trkpt lat="43.39904" lon="6.64642">
        <ele>270.1</ele>
        <time>2025-01-19T11:08:00Z</time>
      </trkpt>
      <trkpt lat="43.39904" lon="6.64642">
        <ele>270.3</ele>
        <time>2025-01-19T11:08:01Z</time>
      </trkpt>
      <trkpt lat="43.39905" lon="6.64642">
        <ele>270.4</ele>
        <time>2025-01-19T11:08:02Z</time>
      </trkpt>
      <trkpt lat="43.39905" lon="6.64643">
        <ele>270.6</ele>
        <time>2025-01-19T11:08:03Z</time>
      </trkpt>
      <trkpt lat="43.39905" lon="6.64643">
        <ele>270.7</ele>
        <time>2025-01-19T11:08:04Z</time>
      </trkpt>
      <trkpt lat="43.39906" lon="6.64644">
        <ele>270.9</ele>
        <time>2025-01-19T11:08:05Z</time>
      </trkpt>
      <trkpt lat="43.39906" lon="6.64645">
        <ele>271</ele>
        <time>2025-01-19T11:08:06Z</time>
      </trkpt>
      <trkpt lat="43.39907" lon="6.64646">
        <ele>271.1</ele>
        <time>2025-01-19T11:08:07Z</time>
      </trkpt>
      <trkpt lat="43.39907" lon="6.64646">
        <ele>271.4</ele>
        <time>2025-01-19T11:08:08Z</time>
      </trkpt>
      <trkpt lat="43.39907" lon="6.64647">
        <ele>271.7</ele>
        <time>2025-01-19T11:08:09Z</time>
      </trkpt>
      <trkpt lat="43.39908" lon="6.64647">
        <ele>271.9</ele>
        <time>2025-01-19T11:08:10Z</time>
      </trkpt>
      <trkpt lat="43.39908" lon="6.64648">
        <ele>272.3</ele>
        <time>2025-01-19T11:08:11Z</time>
      </trkpt>
      <trkpt lat="43.39909" lon="6.64648">
        <ele>272.5</ele>
        <time>2025-01-19T11:08:12Z</time>
      </trkpt>
      <trkpt lat="43.39909" lon="6.64649">
        <ele>272.8</ele>
        <time>2025-01-19T11:08:13Z</time>
      </trkpt>
      <trkpt lat="43.39909" lon="6.6465">
        <ele>273.1</ele>
        <time>2025-01-19T11:08:14Z</time>
      </trkpt>
      <trkpt lat="43.39909" lon="6.6465">
        <ele>273.4</ele>
        <time>2025-01-19T11:08:15Z</time>
      </trkpt>
      <trkpt lat="43.39909" lon="6.64651">
        <ele>273.6</ele>
        <time>2025-01-19T11:08:16Z</time>
      </trkpt>
      <trkpt lat="43.3991" lon="6.64651">
        <ele>273.8</ele>
        <time>2025-01-19T11:08:17Z</time>
      </trkpt>
      <trkpt lat="43.3991" lon="6.64652">
        <ele>274</ele>
        <time>2025-01-19T11:08:18Z</time>
      </trkpt>
      <trkpt lat="43.3991" lon="6.64652">
        <ele>274.1</ele>
        <time>2025-01-19T11:08:19Z</time>
      </trkpt>
      <trkpt lat="43.3991" lon="6.64653">
        <ele>274.4</ele>
        <time>2025-01-19T11:08:20Z</time>
      </trkpt>
      <trkpt lat="43.39911" lon="6.64654">
        <ele>274.6</ele>
        <time>2025-01-19T11:08:21Z</time>
      </trkpt>
      <trkpt lat="43.39911" lon="6.64654">
        <ele>274.7</ele>
        <time>2025-01-19T11:08:22Z</time>
      </trkpt>
      <trkpt lat="43.39911" lon="6.64655">
        <ele>275</ele>
        <time>2025-01-19T11:08:23Z</time>
      </trkpt>
      <trkpt lat="43.39911" lon="6.64656">
        <ele>275.2</ele>
        <time>2025-01-19T11:08:24Z</time>
      </trkpt>
      <trkpt lat="43.39912" lon="6.64656">
        <ele>275.4</ele>
        <time>2025-01-19T11:08:25Z</time>
      </trkpt>
      <trkpt lat="43.39912" lon="6.64657">
        <ele>275.7</ele>
        <time>2025-01-19T11:08:26Z</time>
      </trkpt>
      <trkpt lat="43.39912" lon="6.64657">
        <ele>275.9</ele>
        <time>2025-01-19T11:08:27Z</time>
      </trkpt>
      <trkpt lat="43.39912" lon="6.64658">
        <ele>276</ele>
        <time>2025-01-19T11:08:28Z</time>
      </trkpt>
      <trkpt lat="43.39913" lon="6.64659">
        <ele>276.1</ele>
        <time>2025-01-19T11:08:29Z</time>
      </trkpt>
      <trkpt lat="43.39913" lon="6.6466">
        <ele>276.1</ele>
        <time>2025-01-19T11:08:30Z</time>
      </trkpt>
      <trkpt lat="43.39914" lon="6.6466">
        <ele>276.3</ele>
        <time>2025-01-19T11:08:31Z</time>
      </trkpt>
      <trkpt lat="43.39914" lon="6.64661">
        <ele>276.5</ele>
        <time>2025-01-19T11:08:32Z</time>
      </trkpt>
      <trkpt lat="43.39914" lon="6.64661">
        <ele>276.7</ele>
        <time>2025-01-19T11:08:33Z</time>
      </trkpt>
      <trkpt lat="43.39914" lon="6.64662">
        <ele>276.9</ele>
        <time>2025-01-19T11:08:34Z</time>
      </trkpt>
      <trkpt lat="43.39915" lon="6.64663">
        <ele>277.1</ele>
        <time>2025-01-19T11:08:35Z</time>
      </trkpt>
      <trkpt lat="43.39915" lon="6.64664">
        <ele>277.3</ele>
        <time>2025-01-19T11:08:36Z</time>
      </trkpt>
      <trkpt lat="43.39915" lon="6.64665">
        <ele>277.4</ele>
        <time>2025-01-19T11:08:37Z</time>
      </trkpt>
      <trkpt lat="43.39915" lon="6.64665">
        <ele>277.5</ele>
        <time>2025-01-19T11:08:38Z</time>
      </trkpt>
      <trkpt lat="43.39916" lon="6.64667">
        <ele>277.7</ele>
        <time>2025-01-19T11:08:39Z</time>
      </trkpt>
      <trkpt lat="43.39916" lon="6.64667">
        <ele>277.9</ele>
        <time>2025-01-19T11:08:40Z</time>
      </trkpt>
      <trkpt lat="43.39916" lon="6.64668">
        <ele>278.1</ele>
        <time>2025-01-19T11:08:41Z</time>
      </trkpt>
      <trkpt lat="43.39917" lon="6.64669">
        <ele>278.3</ele>
        <time>2025-01-19T11:08:42Z</time>
      </trkpt>
      <trkpt lat="43.39917" lon="6.64669">
        <ele>278.5</ele>
        <time>2025-01-19T11:08:43Z</time>
      </trkpt>
      <trkpt lat="43.39918" lon="6.6467">
        <ele>278.7</ele>
        <time>2025-01-19T11:08:44Z</time>
      </trkpt>
      <trkpt lat="43.39918" lon="6.64671">
        <ele>278.8</ele>
        <time>2025-01-19T11:08:45Z</time>
      </trkpt>
      <trkpt lat="43.39918" lon="6.64672">
        <ele>279.1</ele>
        <time>2025-01-19T11:08:46Z</time>
      </trkpt>
      <trkpt lat="43.39918" lon="6.64673">
        <ele>279.4</ele>
        <time>2025-01-19T11:08:47Z</time>
      </trkpt>
      <trkpt lat="43.39918" lon="6.64673">
        <ele>279.5</ele>
        <time>2025-01-19T11:08:48Z</time>
      </trkpt>
      <trkpt lat="43.39919" lon="6.64673">
        <ele>279.7</ele>
        <time>2025-01-19T11:08:49Z</time>
      </trkpt>
      <trkpt lat="43.39919" lon="6.64674">
        <ele>279.8</ele>
        <time>2025-01-19T11:08:50Z</time>
      </trkpt>
      <trkpt lat="43.39919" lon="6.64674">
        <ele>280</ele>
        <time>2025-01-19T11:08:51Z</time>
      </trkpt>
      <trkpt lat="43.3992" lon="6.64675">
        <ele>280.1</ele>
        <time>2025-01-19T11:08:52Z</time>
      </trkpt>
      <trkpt lat="43.3992" lon="6.64675">
        <ele>280.2</ele>
        <time>2025-01-19T11:08:53Z</time>
      </trkpt>
      <trkpt lat="43.3992" lon="6.64675">
        <ele>280.3</ele>
        <time>2025-01-19T11:08:54Z</time>
      </trkpt>
      <trkpt lat="43.3992" lon="6.64675">
        <ele>280.4</ele>
        <time>2025-01-19T11:08:55Z</time>
      </trkpt>
      <trkpt lat="43.39921" lon="6.64676">
        <ele>280.5</ele>
        <time>2025-01-19T11:08:56Z</time>
      </trkpt>
      <trkpt lat="43.39922" lon="6.64676">
        <ele>280.7</ele>
        <time>2025-01-19T11:08:57Z</time>
      </trkpt>
      <trkpt lat="43.39923" lon="6.64677">
        <ele>280.9</ele>
        <time>2025-01-19T11:08:58Z</time>
      </trkpt>
      <trkpt lat="43.39923" lon="6.64677">
        <ele>281.1</ele>
        <time>2025-01-19T11:08:59Z</time>
      </trkpt>
      <trkpt lat="43.39923" lon="6.64678">
        <ele>281.4</ele>
        <time>2025-01-19T11:09:00Z</time>
      </trkpt>
      <trkpt lat="43.39924" lon="6.64678">
        <ele>281.6</ele>
        <time>2025-01-19T11:09:01Z</time>
      </trkpt>
      <trkpt lat="43.39925" lon="6.64678">
        <ele>281.9</ele>
        <time>2025-01-19T11:09:02Z</time>
      </trkpt>
      <trkpt lat="43.39925" lon="6.64678">
        <ele>282.1</ele>
        <time>2025-01-19T11:09:03Z</time>
      </trkpt>
      <trkpt lat="43.39926" lon="6.64678">
        <ele>282.3</ele>
        <time>2025-01-19T11:09:04Z</time>
      </trkpt>
      <trkpt lat="43.39926" lon="6.64679">
        <ele>282.5</ele>
        <time>2025-01-19T11:09:05Z</time>
      </trkpt>
      <trkpt lat="43.39927" lon="6.64679">
        <ele>282.7</ele>
        <time>2025-01-19T11:09:06Z</time>
      </trkpt>
      <trkpt lat="43.39927" lon="6.64679">
        <ele>282.9</ele>
        <time>2025-01-19T11:09:07Z</time>
      </trkpt>
      <trkpt lat="43.39928" lon="6.6468">
        <ele>283.2</ele>
        <time>2025-01-19T11:09:08Z</time>
      </trkpt>
      <trkpt lat="43.39928" lon="6.64681">
        <ele>283.5</ele>
        <time>2025-01-19T11:09:09Z</time>
      </trkpt>
      <trkpt lat="43.39928" lon="6.64682">
        <ele>283.8</ele>
        <time>2025-01-19T11:09:10Z</time>
      </trkpt>
      <trkpt lat="43.39929" lon="6.64683">
        <ele>284</ele>
        <time>2025-01-19T11:09:11Z</time>
      </trkpt>
      <trkpt lat="43.3993" lon="6.64681">
        <ele>284.2</ele>
        <time>2025-01-19T11:09:12Z</time>
      </trkpt>
      <trkpt lat="43.3993" lon="6.64681">
        <ele>284.5</ele>
        <time>2025-01-19T11:09:13Z</time>
      </trkpt>
      <trkpt lat="43.39931" lon="6.64681">
        <ele>284.6</ele>
        <time>2025-01-19T11:09:14Z</time>
      </trkpt>
      <trkpt lat="43.39932" lon="6.64682">
        <ele>284.9</ele>
        <time>2025-01-19T11:09:15Z</time>
      </trkpt>
      <trkpt lat="43.39933" lon="6.64683">
        <ele>285.2</ele>
        <time>2025-01-19T11:09:16Z</time>
      </trkpt>
      <trkpt lat="43.39933" lon="6.64683">
        <ele>285.6</ele>
        <time>2025-01-19T11:09:17Z</time>
      </trkpt>
      <trkpt lat="43.39934" lon="6.64684">
        <ele>285.9</ele>
        <time>2025-01-19T11:09:18Z</time>
      </trkpt>
      <trkpt lat="43.39934" lon="6.64684">
        <ele>286.2</ele>
        <time>2025-01-19T11:09:19Z</time>
      </trkpt>
      <trkpt lat="43.39935" lon="6.64685">
        <ele>286.5</ele>
        <time>2025-01-19T11:09:20Z</time>
      </trkpt>
      <trkpt lat="43.39935" lon="6.64685">
        <ele>286.7</ele>
        <time>2025-01-19T11:09:21Z</time>
      </trkpt>
      <trkpt lat="43.39936" lon="6.64687">
        <ele>287</ele>
        <time>2025-01-19T11:09:22Z</time>
      </trkpt>
      <trkpt lat="43.39936" lon="6.64688">
        <ele>287.3</ele>
        <time>2025-01-19T11:09:23Z</time>
      </trkpt>
      <trkpt lat="43.39936" lon="6.64688">
        <ele>287.6</ele>
        <time>2025-01-19T11:09:24Z</time>
      </trkpt>
      <trkpt lat="43.39937" lon="6.64689">
        <ele>287.9</ele>
        <time>2025-01-19T11:09:25Z</time>
      </trkpt>
      <trkpt lat="43.39937" lon="6.64689">
        <ele>288.2</ele>
        <time>2025-01-19T11:09:26Z</time>
      </trkpt>
      <trkpt lat="43.39937" lon="6.6469">
        <ele>288.4</ele>
        <time>2025-01-19T11:09:27Z</time>
      </trkpt>
      <trkpt lat="43.39938" lon="6.6469">
        <ele>288.9</ele>
        <time>2025-01-19T11:09:28Z</time>
      </trkpt>
      <trkpt lat="43.39939" lon="6.6469">
        <ele>289.2</ele>
        <time>2025-01-19T11:09:29Z</time>
      </trkpt>
      <trkpt lat="43.39939" lon="6.6469">
        <ele>289.5</ele>
        <time>2025-01-19T11:09:30Z</time>
      </trkpt>
      <trkpt lat="43.3994" lon="6.6469">
        <ele>289.7</ele>
        <time>2025-01-19T11:09:31Z</time>
      </trkpt>
      <trkpt lat="43.3994" lon="6.6469">
        <ele>289.9</ele>
        <time>2025-01-19T11:09:32Z</time>
      </trkpt>
      <trkpt lat="43.3994" lon="6.64689">
        <ele>290</ele>
        <time>2025-01-19T11:09:33Z</time>
      </trkpt>
      <trkpt lat="43.3994" lon="6.64689">
        <ele>290.1</ele>
        <time>2025-01-19T11:09:34Z</time>
      </trkpt>
      <trkpt lat="43.3994" lon="6.64689">
        <ele>290.3</ele>
        <time>2025-01-19T11:09:35Z</time>
      </trkpt>
      <trkpt lat="43.39941" lon="6.64689">
        <ele>290.4</ele>
        <time>2025-01-19T11:09:36Z</time>
      </trkpt>
      <trkpt lat="43.39941" lon="6.64689">
        <ele>290.4</ele>
        <time>2025-01-19T11:09:37Z</time>
      </trkpt>
      <trkpt lat="43.39941" lon="6.64689">
        <ele>290.4</ele>
        <time>2025-01-19T11:09:38Z</time>
      </trkpt>
      <trkpt lat="43.39942" lon="6.6469">
        <ele>290.5</ele>
        <time>2025-01-19T11:09:39Z</time>
      </trkpt>
      <trkpt lat="43.39942" lon="6.64691">
        <ele>290.7</ele>
        <time>2025-01-19T11:09:40Z</time>
      </trkpt>
      <trkpt lat="43.39943" lon="6.64691">
        <ele>290.9</ele>
        <time>2025-01-19T11:09:41Z</time>
      </trkpt>
      <trkpt lat="43.39943" lon="6.64691">
        <ele>291.1</ele>
        <time>2025-01-19T11:09:42Z</time>
      </trkpt>
      <trkpt lat="43.39944" lon="6.64692">
        <ele>291.2</ele>
        <time>2025-01-19T11:09:43Z</time>
      </trkpt>
      <trkpt lat="43.39944" lon="6.64692">
        <ele>291.4</ele>
        <time>2025-01-19T11:09:44Z</time>
      </trkpt>
      <trkpt lat="43.39945" lon="6.64693">
        <ele>291.5</ele>
        <time>2025-01-19T11:09:45Z</time>
      </trkpt>
      <trkpt lat="43.39946" lon="6.64693">
        <ele>291.7</ele>
        <time>2025-01-19T11:09:46Z</time>
      </trkpt>
      <trkpt lat="43.39946" lon="6.64693">
        <ele>291.9</ele>
        <time>2025-01-19T11:09:47Z</time>
      </trkpt>
      <trkpt lat="43.39947" lon="6.64693">
        <ele>292.2</ele>
        <time>2025-01-19T11:09:48Z</time>
      </trkpt>
      <trkpt lat="43.39947" lon="6.64693">
        <ele>292.4</ele>
        <time>2025-01-19T11:09:49Z</time>
      </trkpt>
      <trkpt lat="43.39948" lon="6.64692">
        <ele>292.6</ele>
        <time>2025-01-19T11:09:50Z</time>
      </trkpt>
      <trkpt lat="43.39949" lon="6.64692">
        <ele>292.9</ele>
        <time>2025-01-19T11:09:51Z</time>
      </trkpt>
      <trkpt lat="43.3995" lon="6.64692">
        <ele>293.1</ele>
        <time>2025-01-19T11:09:52Z</time>
      </trkpt>
      <trkpt lat="43.3995" lon="6.64693">
        <ele>293.3</ele>
        <time>2025-01-19T11:09:53Z</time>
      </trkpt>
      <trkpt lat="43.39951" lon="6.64693">
        <ele>293.5</ele>
        <time>2025-01-19T11:09:54Z</time>
      </trkpt>
      <trkpt lat="43.39951" lon="6.64693">
        <ele>293.8</ele>
        <time>2025-01-19T11:09:55Z</time>
      </trkpt>
      <trkpt lat="43.39952" lon="6.64694">
        <ele>294</ele>
        <time>2025-01-19T11:09:56Z</time>
      </trkpt>
      <trkpt lat="43.39952" lon="6.64694">
        <ele>294.3</ele>
        <time>2025-01-19T11:09:57Z</time>
      </trkpt>
      <trkpt lat="43.39952" lon="6.64695">
        <ele>294.6</ele>
        <time>2025-01-19T11:09:58Z</time>
      </trkpt>
      <trkpt lat="43.39953" lon="6.64696">
        <ele>294.8</ele>
        <time>2025-01-19T11:09:59Z</time>
      </trkpt>
      <trkpt lat="43.39953" lon="6.64696">
        <ele>295</ele>
        <time>2025-01-19T11:10:00Z</time>
      </trkpt>
      <trkpt lat="43.39954" lon="6.64696">
        <ele>295.1</ele>
        <time>2025-01-19T11:10:01Z</time>
      </trkpt>
      <trkpt lat="43.39955" lon="6.64696">
        <ele>295.3</ele>
        <time>2025-01-19T11:10:02Z</time>
      </trkpt>
      <trkpt lat="43.39955" lon="6.64695">
        <ele>295.5</ele>
        <time>2025-01-19T11:10:03Z</time>
      </trkpt>
      <trkpt lat="43.39956" lon="6.64695">
        <ele>295.7</ele>
        <time>2025-01-19T11:10:04Z</time>
      </trkpt>
      <trkpt lat="43.39956" lon="6.64696">
        <ele>295.9</ele>
        <time>2025-01-19T11:10:05Z</time>
      </trkpt>
      <trkpt lat="43.39956" lon="6.64697">
        <ele>296.2</ele>
        <time>2025-01-19T11:10:06Z</time>
      </trkpt>
      <trkpt lat="43.39956" lon="6.64698">
        <ele>296.4</ele>
        <time>2025-01-19T11:10:07Z</time>
      </trkpt>
      <trkpt lat="43.39956" lon="6.64698">
        <ele>296.6</ele>
        <time>2025-01-19T11:10:08Z</time>
      </trkpt>
      <trkpt lat="43.39956" lon="6.64698">
        <ele>296.8</ele>
        <time>2025-01-19T11:10:09Z</time>
      </trkpt>
      <trkpt lat="43.39956" lon="6.64698">
        <ele>296.9</ele>
        <time>2025-01-19T11:10:10Z</time>
      </trkpt>
      <trkpt lat="43.39956" lon="6.64698">
        <ele>297</ele>
        <time>2025-01-19T11:10:11Z</time>
      </trkpt>
      <trkpt lat="43.39956" lon="6.64698">
        <ele>297.2</ele>
        <time>2025-01-19T11:10:12Z</time>
      </trkpt>
      <trkpt lat="43.39956" lon="6.64698">
        <ele>297.2</ele>
        <time>2025-01-19T11:10:13Z</time>
      </trkpt>
      <trkpt lat="43.39956" lon="6.64698">
        <ele>297.2</ele>
        <time>2025-01-19T11:10:14Z</time>
      </trkpt>
      <trkpt lat="43.39956" lon="6.64699">
        <ele>297.3</ele>
        <time>2025-01-19T11:10:15Z</time>
      </trkpt>
      <trkpt lat="43.39956" lon="6.64699">
        <ele>297.4</ele>
        <time>2025-01-19T11:10:16Z</time>
      </trkpt>
      <trkpt lat="43.39956" lon="6.647">
        <ele>297.5</ele>
        <time>2025-01-19T11:10:17Z</time>
      </trkpt>
      <trkpt lat="43.39956" lon="6.647">
        <ele>297.6</ele>
        <time>2025-01-19T11:10:18Z</time>
      </trkpt>
      <trkpt lat="43.39956" lon="6.647">
        <ele>297.6</ele>
        <time>2025-01-19T11:10:19Z</time>
      </trkpt>
      <trkpt lat="43.39956" lon="6.647">
        <ele>297.7</ele>
        <time>2025-01-19T11:10:20Z</time>
      </trkpt>
      <trkpt lat="43.39957" lon="6.64699">
        <ele>297.7</ele>
        <time>2025-01-19T11:10:21Z</time>
      </trkpt>
      <trkpt lat="43.39957" lon="6.64699">
        <ele>297.7</ele>
        <time>2025-01-19T11:10:22Z</time>
      </trkpt>
      <trkpt lat="43.39957" lon="6.64699">
        <ele>297.8</ele>
        <time>2025-01-19T11:10:23Z</time>
      </trkpt>
      <trkpt lat="43.39957" lon="6.64699">
        <ele>297.9</ele>
        <time>2025-01-19T11:10:24Z</time>
      </trkpt>
      <trkpt lat="43.39957" lon="6.64699">
        <ele>298</ele>
        <time>2025-01-19T11:10:25Z</time>
      </trkpt>
      <trkpt lat="43.39957" lon="6.64699">
        <ele>298</ele>
        <time>2025-01-19T11:10:26Z</time>
      </trkpt>
      <trkpt lat="43.39957" lon="6.647">
        <ele>298.1</ele>
        <time>2025-01-19T11:10:27Z</time>
      </trkpt>
      <trkpt lat="43.39958" lon="6.64701">
        <ele>298.2</ele>
        <time>2025-01-19T11:10:28Z</time>
      </trkpt>
      <trkpt lat="43.39958" lon="6.64701">
        <ele>298.2</ele>
        <time>2025-01-19T11:10:29Z</time>
      </trkpt>
      <trkpt lat="43.39959" lon="6.64702">
        <ele>298.3</ele>
        <time>2025-01-19T11:10:30Z</time>
      </trkpt>
      <trkpt lat="43.39958" lon="6.64703">
        <ele>298.4</ele>
        <time>2025-01-19T11:10:31Z</time>
      </trkpt>
      <trkpt lat="43.39959" lon="6.64704">
        <ele>298.5</ele>
        <time>2025-01-19T11:10:32Z</time>
      </trkpt>
      <trkpt lat="43.39959" lon="6.64705">
        <ele>298.7</ele>
        <time>2025-01-19T11:10:33Z</time>
      </trkpt>
      <trkpt lat="43.3996" lon="6.64706">
        <ele>298.8</ele>
        <time>2025-01-19T11:10:34Z</time>
      </trkpt>
      <trkpt lat="43.39961" lon="6.64705">
        <ele>298.9</ele>
        <time>2025-01-19T11:10:35Z</time>
      </trkpt>
      <trkpt lat="43.39962" lon="6.64705">
        <ele>299</ele>
        <time>2025-01-19T11:10:36Z</time>
      </trkpt>
      <trkpt lat="43.39962" lon="6.64705">
        <ele>299</ele>
        <time>2025-01-19T11:10:37Z</time>
      </trkpt>
      <trkpt lat="43.39963" lon="6.64705">
        <ele>299.1</ele>
        <time>2025-01-19T11:10:38Z</time>
      </trkpt>
      <trkpt lat="43.39964" lon="6.64706">
        <ele>299.2</ele>
        <time>2025-01-19T11:10:39Z</time>
      </trkpt>
      <trkpt lat="43.39965" lon="6.64706">
        <ele>299.5</ele>
        <time>2025-01-19T11:10:40Z</time>
      </trkpt>
      <trkpt lat="43.39965" lon="6.64707">
        <ele>299.7</ele>
        <time>2025-01-19T11:10:41Z</time>
      </trkpt>
      <trkpt lat="43.39966" lon="6.64708">
        <ele>299.9</ele>
        <time>2025-01-19T11:10:42Z</time>
      </trkpt>
      <trkpt lat="43.39966" lon="6.64708">
        <ele>300.1</ele>
        <time>2025-01-19T11:10:43Z</time>
      </trkpt>
      <trkpt lat="43.39967" lon="6.64709">
        <ele>300.3</ele>
        <time>2025-01-19T11:10:44Z</time>
      </trkpt>
      <trkpt lat="43.39967" lon="6.6471">
        <ele>300.6</ele>
        <time>2025-01-19T11:10:45Z</time>
      </trkpt>
      <trkpt lat="43.39968" lon="6.6471">
        <ele>300.8</ele>
        <time>2025-01-19T11:10:46Z</time>
      </trkpt>
      <trkpt lat="43.39969" lon="6.64711">
        <ele>300.9</ele>
        <time>2025-01-19T11:10:47Z</time>
      </trkpt>
      <trkpt lat="43.39969" lon="6.64712">
        <ele>301.2</ele>
        <time>2025-01-19T11:10:48Z</time>
      </trkpt>
      <trkpt lat="43.3997" lon="6.64713">
        <ele>301.4</ele>
        <time>2025-01-19T11:10:49Z</time>
      </trkpt>
      <trkpt lat="43.3997" lon="6.64714">
        <ele>301.5</ele>
        <time>2025-01-19T11:10:50Z</time>
      </trkpt>
      <trkpt lat="43.39971" lon="6.64714">
        <ele>301.7</ele>
        <time>2025-01-19T11:10:51Z</time>
      </trkpt>
      <trkpt lat="43.39972" lon="6.64714">
        <ele>301.9</ele>
        <time>2025-01-19T11:10:52Z</time>
      </trkpt>
      <trkpt lat="43.39972" lon="6.64715">
        <ele>302</ele>
        <time>2025-01-19T11:10:53Z</time>
      </trkpt>
      <trkpt lat="43.39973" lon="6.64715">
        <ele>302.1</ele>
        <time>2025-01-19T11:10:54Z</time>
      </trkpt>
      <trkpt lat="43.39974" lon="6.64716">
        <ele>302.3</ele>
        <time>2025-01-19T11:10:55Z</time>
      </trkpt>
      <trkpt lat="43.39974" lon="6.64716">
        <ele>302.4</ele>
        <time>2025-01-19T11:10:56Z</time>
      </trkpt>
      <trkpt lat="43.39974" lon="6.64715">
        <ele>302.5</ele>
        <time>2025-01-19T11:10:57Z</time>
      </trkpt>
      <trkpt lat="43.39974" lon="6.64714">
        <ele>302.7</ele>
        <time>2025-01-19T11:10:58Z</time>
      </trkpt>
      <trkpt lat="43.39974" lon="6.64714">
        <ele>302.9</ele>
        <time>2025-01-19T11:10:59Z</time>
      </trkpt>
      <trkpt lat="43.39974" lon="6.64714">
        <ele>303</ele>
        <time>2025-01-19T11:11:00Z</time>
      </trkpt>
      <trkpt lat="43.39974" lon="6.64713">
        <ele>303.1</ele>
        <time>2025-01-19T11:11:01Z</time>
      </trkpt>
      <trkpt lat="43.39974" lon="6.64713">
        <ele>303.1</ele>
        <time>2025-01-19T11:11:02Z</time>
      </trkpt>
      <trkpt lat="43.39974" lon="6.64713">
        <ele>303.2</ele>
        <time>2025-01-19T11:11:03Z</time>
      </trkpt>
      <trkpt lat="43.39975" lon="6.64713">
        <ele>303.2</ele>
        <time>2025-01-19T11:11:04Z</time>
      </trkpt>
      <trkpt lat="43.39975" lon="6.64714">
        <ele>303.3</ele>
        <time>2025-01-19T11:11:05Z</time>
      </trkpt>
      <trkpt lat="43.39975" lon="6.64714">
        <ele>303.3</ele>
        <time>2025-01-19T11:11:06Z</time>
      </trkpt>
      <trkpt lat="43.39975" lon="6.64714">
        <ele>303.4</ele>
        <time>2025-01-19T11:11:07Z</time>
      </trkpt>
      <trkpt lat="43.39976" lon="6.64714">
        <ele>303.5</ele>
        <time>2025-01-19T11:11:08Z</time>
      </trkpt>
      <trkpt lat="43.39977" lon="6.64715">
        <ele>303.6</ele>
        <time>2025-01-19T11:11:09Z</time>
      </trkpt>
      <trkpt lat="43.39978" lon="6.64715">
        <ele>303.7</ele>
        <time>2025-01-19T11:11:10Z</time>
      </trkpt>
      <trkpt lat="43.39978" lon="6.64715">
        <ele>303.9</ele>
        <time>2025-01-19T11:11:11Z</time>
      </trkpt>
      <trkpt lat="43.39978" lon="6.64715">
        <ele>304.1</ele>
        <time>2025-01-19T11:11:12Z</time>
      </trkpt>
      <trkpt lat="43.39979" lon="6.64715">
        <ele>304.2</ele>
        <time>2025-01-19T11:11:13Z</time>
      </trkpt>
      <trkpt lat="43.3998" lon="6.64715">
        <ele>304.3</ele>
        <time>2025-01-19T11:11:14Z</time>
      </trkpt>
      <trkpt lat="43.3998" lon="6.64715">
        <ele>304.4</ele>
        <time>2025-01-19T11:11:15Z</time>
      </trkpt>
      <trkpt lat="43.39981" lon="6.64716">
        <ele>304.5</ele>
        <time>2025-01-19T11:11:16Z</time>
      </trkpt>
      <trkpt lat="43.39981" lon="6.64716">
        <ele>304.6</ele>
        <time>2025-01-19T11:11:17Z</time>
      </trkpt>
      <trkpt lat="43.39982" lon="6.64716">
        <ele>304.8</ele>
        <time>2025-01-19T11:11:18Z</time>
      </trkpt>
      <trkpt lat="43.39983" lon="6.64716">
        <ele>304.8</ele>
        <time>2025-01-19T11:11:19Z</time>
      </trkpt>
      <trkpt lat="43.39983" lon="6.64716">
        <ele>305</ele>
        <time>2025-01-19T11:11:20Z</time>
      </trkpt>
      <trkpt lat="43.39984" lon="6.64716">
        <ele>305.2</ele>
        <time>2025-01-19T11:11:21Z</time>
      </trkpt>
      <trkpt lat="43.39984" lon="6.64716">
        <ele>305.4</ele>
        <time>2025-01-19T11:11:22Z</time>
      </trkpt>
      <trkpt lat="43.39985" lon="6.64716">
        <ele>305.6</ele>
        <time>2025-01-19T11:11:23Z</time>
      </trkpt>
      <trkpt lat="43.39986" lon="6.64716">
        <ele>305.9</ele>
        <time>2025-01-19T11:11:24Z</time>
      </trkpt>
      <trkpt lat="43.39986" lon="6.64716">
        <ele>306</ele>
        <time>2025-01-19T11:11:25Z</time>
      </trkpt>
      <trkpt lat="43.39986" lon="6.64716">
        <ele>306.1</ele>
        <time>2025-01-19T11:11:26Z</time>
      </trkpt>
      <trkpt lat="43.39987" lon="6.64716">
        <ele>306.4</ele>
        <time>2025-01-19T11:11:27Z</time>
      </trkpt>
      <trkpt lat="43.39987" lon="6.64716">
        <ele>306.6</ele>
        <time>2025-01-19T11:11:28Z</time>
      </trkpt>
      <trkpt lat="43.39987" lon="6.64717">
        <ele>306.7</ele>
        <time>2025-01-19T11:11:29Z</time>
      </trkpt>
      <trkpt lat="43.39988" lon="6.64717">
        <ele>306.8</ele>
        <time>2025-01-19T11:11:30Z</time>
      </trkpt>
      <trkpt lat="43.39989" lon="6.64717">
        <ele>306.8</ele>
        <time>2025-01-19T11:11:31Z</time>
      </trkpt>
      <trkpt lat="43.3999" lon="6.64717">
        <ele>306.9</ele>
        <time>2025-01-19T11:11:32Z</time>
      </trkpt>
      <trkpt lat="43.3999" lon="6.64717">
        <ele>307</ele>
        <time>2025-01-19T11:11:33Z</time>
      </trkpt>
      <trkpt lat="43.39991" lon="6.64717">
        <ele>307</ele>
        <time>2025-01-19T11:11:34Z</time>
      </trkpt>
      <trkpt lat="43.39992" lon="6.64718">
        <ele>307.1</ele>
        <time>2025-01-19T11:11:35Z</time>
      </trkpt>
      <trkpt lat="43.39993" lon="6.64717">
        <ele>307.2</ele>
        <time>2025-01-19T11:11:36Z</time>
      </trkpt>
      <trkpt lat="43.39994" lon="6.64718">
        <ele>307.5</ele>
        <time>2025-01-19T11:11:37Z</time>
      </trkpt>
      <trkpt lat="43.39995" lon="6.64718">
        <ele>307.6</ele>
        <time>2025-01-19T11:11:38Z</time>
      </trkpt>
      <trkpt lat="43.39995" lon="6.64718">
        <ele>307.7</ele>
        <time>2025-01-19T11:11:39Z</time>
      </trkpt>
      <trkpt lat="43.39996" lon="6.64718">
        <ele>307.8</ele>
        <time>2025-01-19T11:11:40Z</time>
      </trkpt>
      <trkpt lat="43.39996" lon="6.64718">
        <ele>307.8</ele>
        <time>2025-01-19T11:11:41Z</time>
      </trkpt>
      <trkpt lat="43.39997" lon="6.64719">
        <ele>307.9</ele>
        <time>2025-01-19T11:11:42Z</time>
      </trkpt>
      <trkpt lat="43.39999" lon="6.64719">
        <ele>308</ele>
        <time>2025-01-19T11:11:43Z</time>
      </trkpt>
      <trkpt lat="43.39999" lon="6.64718">
        <ele>308.2</ele>
        <time>2025-01-19T11:11:44Z</time>
      </trkpt>
      <trkpt lat="43.4" lon="6.64719">
        <ele>308.3</ele>
        <time>2025-01-19T11:11:45Z</time>
      </trkpt>
      <trkpt lat="43.40001" lon="6.64719">
        <ele>308.5</ele>
        <time>2025-01-19T11:11:46Z</time>
      </trkpt>
      <trkpt lat="43.40002" lon="6.6472">
        <ele>308.7</ele>
        <time>2025-01-19T11:11:47Z</time>
      </trkpt>
      <trkpt lat="43.40003" lon="6.64721">
        <ele>308.8</ele>
        <time>2025-01-19T11:11:48Z</time>
      </trkpt>
      <trkpt lat="43.40003" lon="6.64722">
        <ele>309.1</ele>
        <time>2025-01-19T11:11:49Z</time>
      </trkpt>
      <trkpt lat="43.40003" lon="6.64722">
        <ele>309.3</ele>
        <time>2025-01-19T11:11:50Z</time>
      </trkpt>
      <trkpt lat="43.40004" lon="6.64723">
        <ele>309.5</ele>
        <time>2025-01-19T11:11:51Z</time>
      </trkpt>
      <trkpt lat="43.40004" lon="6.64724">
        <ele>309.7</ele>
        <time>2025-01-19T11:11:52Z</time>
      </trkpt>
      <trkpt lat="43.40005" lon="6.64725">
        <ele>309.9</ele>
        <time>2025-01-19T11:11:53Z</time>
      </trkpt>
      <trkpt lat="43.40005" lon="6.64726">
        <ele>310.1</ele>
        <time>2025-01-19T11:11:54Z</time>
      </trkpt>
      <trkpt lat="43.40006" lon="6.64727">
        <ele>310.2</ele>
        <time>2025-01-19T11:11:55Z</time>
      </trkpt>
      <trkpt lat="43.40006" lon="6.64728">
        <ele>310.5</ele>
        <time>2025-01-19T11:11:56Z</time>
      </trkpt>
      <trkpt lat="43.40007" lon="6.64728">
        <ele>310.7</ele>
        <time>2025-01-19T11:11:57Z</time>
      </trkpt>
      <trkpt lat="43.40007" lon="6.64728">
        <ele>311</ele>
        <time>2025-01-19T11:11:58Z</time>
      </trkpt>
      <trkpt lat="43.40007" lon="6.64729">
        <ele>311.2</ele>
        <time>2025-01-19T11:11:59Z</time>
      </trkpt>
      <trkpt lat="43.40007" lon="6.6473">
        <ele>311.4</ele>
        <time>2025-01-19T11:12:00Z</time>
      </trkpt>
      <trkpt lat="43.40007" lon="6.6473">
        <ele>311.4</ele>
        <time>2025-01-19T11:12:01Z</time>
      </trkpt>
      <trkpt lat="43.40008" lon="6.64731">
        <ele>311.5</ele>
        <time>2025-01-19T11:12:02Z</time>
      </trkpt>
      <trkpt lat="43.40008" lon="6.64731">
        <ele>311.8</ele>
        <time>2025-01-19T11:12:03Z</time>
      </trkpt>
      <trkpt lat="43.40008" lon="6.64731">
        <ele>311.9</ele>
        <time>2025-01-19T11:12:04Z</time>
      </trkpt>
      <trkpt lat="43.40008" lon="6.64732">
        <ele>312.2</ele>
        <time>2025-01-19T11:12:05Z</time>
      </trkpt>
      <trkpt lat="43.40008" lon="6.64733">
        <ele>312.4</ele>
        <time>2025-01-19T11:12:06Z</time>
      </trkpt>
      <trkpt lat="43.40008" lon="6.64734">
        <ele>312.6</ele>
        <time>2025-01-19T11:12:07Z</time>
      </trkpt>
      <trkpt lat="43.40009" lon="6.64735">
        <ele>312.7</ele>
        <time>2025-01-19T11:12:08Z</time>
      </trkpt>
      <trkpt lat="43.40009" lon="6.64735">
        <ele>312.9</ele>
        <time>2025-01-19T11:12:09Z</time>
      </trkpt>
      <trkpt lat="43.4001" lon="6.64736">
        <ele>313.1</ele>
        <time>2025-01-19T11:12:10Z</time>
      </trkpt>
      <trkpt lat="43.4001" lon="6.64737">
        <ele>313.3</ele>
        <time>2025-01-19T11:12:11Z</time>
      </trkpt>
      <trkpt lat="43.40011" lon="6.64738">
        <ele>313.5</ele>
        <time>2025-01-19T11:12:12Z</time>
      </trkpt>
      <trkpt lat="43.40011" lon="6.64738">
        <ele>313.6</ele>
        <time>2025-01-19T11:12:13Z</time>
      </trkpt>
      <trkpt lat="43.40011" lon="6.64739">
        <ele>313.7</ele>
        <time>2025-01-19T11:12:14Z</time>
      </trkpt>
      <trkpt lat="43.40012" lon="6.6474">
        <ele>313.9</ele>
        <time>2025-01-19T11:12:15Z</time>
      </trkpt>
      <trkpt lat="43.40012" lon="6.6474">
        <ele>314</ele>
        <time>2025-01-19T11:12:16Z</time>
      </trkpt>
      <trkpt lat="43.40013" lon="6.64741">
        <ele>314.1</ele>
        <time>2025-01-19T11:12:17Z</time>
      </trkpt>
      <trkpt lat="43.40013" lon="6.64741">
        <ele>314.3</ele>
        <time>2025-01-19T11:12:18Z</time>
      </trkpt>
      <trkpt lat="43.40014" lon="6.64742">
        <ele>314.5</ele>
        <time>2025-01-19T11:12:19Z</time>
      </trkpt>
      <trkpt lat="43.40014" lon="6.64742">
        <ele>314.7</ele>
        <time>2025-01-19T11:12:20Z</time>
      </trkpt>
      <trkpt lat="43.40015" lon="6.64743">
        <ele>315</ele>
        <time>2025-01-19T11:12:21Z</time>
      </trkpt>
      <trkpt lat="43.40015" lon="6.64743">
        <ele>315.2</ele>
        <time>2025-01-19T11:12:22Z</time>
      </trkpt>
      <trkpt lat="43.40015" lon="6.64744">
        <ele>315.5</ele>
        <time>2025-01-19T11:12:23Z</time>
      </trkpt>
      <trkpt lat="43.40016" lon="6.64744">
        <ele>315.8</ele>
        <time>2025-01-19T11:12:24Z</time>
      </trkpt>
      <trkpt lat="43.40016" lon="6.64745">
        <ele>316</ele>
        <time>2025-01-19T11:12:25Z</time>
      </trkpt>
      <trkpt lat="43.40016" lon="6.64746">
        <ele>316.2</ele>
        <time>2025-01-19T11:12:26Z</time>
      </trkpt>
      <trkpt lat="43.40017" lon="6.64747">
        <ele>316.4</ele>
        <time>2025-01-19T11:12:27Z</time>
      </trkpt>
      <trkpt lat="43.40017" lon="6.64748">
        <ele>316.6</ele>
        <time>2025-01-19T11:12:28Z</time>
      </trkpt>
      <trkpt lat="43.40018" lon="6.64748">
        <ele>316.9</ele>
        <time>2025-01-19T11:12:29Z</time>
      </trkpt>
      <trkpt lat="43.40018" lon="6.64749">
        <ele>317.1</ele>
        <time>2025-01-19T11:12:30Z</time>
      </trkpt>
      <trkpt lat="43.40018" lon="6.6475">
        <ele>317.3</ele>
        <time>2025-01-19T11:12:31Z</time>
      </trkpt>
      <trkpt lat="43.40018" lon="6.6475">
        <ele>317.6</ele>
        <time>2025-01-19T11:12:32Z</time>
      </trkpt>
      <trkpt lat="43.40019" lon="6.64751">
        <ele>317.9</ele>
        <time>2025-01-19T11:12:33Z</time>
      </trkpt>
      <trkpt lat="43.4002" lon="6.64751">
        <ele>318.1</ele>
        <time>2025-01-19T11:12:34Z</time>
      </trkpt>
      <trkpt lat="43.4002" lon="6.64751">
        <ele>318.3</ele>
        <time>2025-01-19T11:12:35Z</time>
      </trkpt>
      <trkpt lat="43.40021" lon="6.64751">
        <ele>318.6</ele>
        <time>2025-01-19T11:12:36Z</time>
      </trkpt>
      <trkpt lat="43.40021" lon="6.64752">
        <ele>318.9</ele>
        <time>2025-01-19T11:12:37Z</time>
      </trkpt>
      <trkpt lat="43.40022" lon="6.64753">
        <ele>319.1</ele>
        <time>2025-01-19T11:12:38Z</time>
      </trkpt>
      <trkpt lat="43.40023" lon="6.64754">
        <ele>319.4</ele>
        <time>2025-01-19T11:12:39Z</time>
      </trkpt>
      <trkpt lat="43.40023" lon="6.64755">
        <ele>319.6</ele>
        <time>2025-01-19T11:12:40Z</time>
      </trkpt>
      <trkpt lat="43.40023" lon="6.64755">
        <ele>319.9</ele>
        <time>2025-01-19T11:12:41Z</time>
      </trkpt>
      <trkpt lat="43.40024" lon="6.64756">
        <ele>320.2</ele>
        <time>2025-01-19T11:12:42Z</time>
      </trkpt>
      <trkpt lat="43.40025" lon="6.64756">
        <ele>320.4</ele>
        <time>2025-01-19T11:12:43Z</time>
      </trkpt>
      <trkpt lat="43.40026" lon="6.64757">
        <ele>320.7</ele>
        <time>2025-01-19T11:12:44Z</time>
      </trkpt>
      <trkpt lat="43.40026" lon="6.64757">
        <ele>321</ele>
        <time>2025-01-19T11:12:45Z</time>
      </trkpt>
      <trkpt lat="43.40027" lon="6.64758">
        <ele>321.5</ele>
        <time>2025-01-19T11:12:46Z</time>
      </trkpt>
      <trkpt lat="43.40028" lon="6.64759">
        <ele>321.8</ele>
        <time>2025-01-19T11:12:47Z</time>
      </trkpt>
      <trkpt lat="43.40029" lon="6.6476">
        <ele>322.1</ele>
        <time>2025-01-19T11:12:48Z</time>
      </trkpt>
      <trkpt lat="43.40029" lon="6.64761">
        <ele>322.4</ele>
        <time>2025-01-19T11:12:49Z</time>
      </trkpt>
      <trkpt lat="43.4003" lon="6.64761">
        <ele>322.6</ele>
        <time>2025-01-19T11:12:50Z</time>
      </trkpt>
      <trkpt lat="43.4003" lon="6.64761">
        <ele>322.9</ele>
        <time>2025-01-19T11:12:51Z</time>
      </trkpt>
      <trkpt lat="43.40031" lon="6.64762">
        <ele>323.2</ele>
        <time>2025-01-19T11:12:52Z</time>
      </trkpt>
      <trkpt lat="43.40032" lon="6.64761">
        <ele>323.4</ele>
        <time>2025-01-19T11:12:53Z</time>
      </trkpt>
      <trkpt lat="43.40033" lon="6.64761">
        <ele>323.7</ele>
        <time>2025-01-19T11:12:54Z</time>
      </trkpt>
      <trkpt lat="43.40034" lon="6.64761">
        <ele>324</ele>
        <time>2025-01-19T11:12:55Z</time>
      </trkpt>
      <trkpt lat="43.40035" lon="6.64761">
        <ele>324.1</ele>
        <time>2025-01-19T11:12:56Z</time>
      </trkpt>
      <trkpt lat="43.40036" lon="6.64762">
        <ele>324.4</ele>
        <time>2025-01-19T11:12:57Z</time>
      </trkpt>
      <trkpt lat="43.40037" lon="6.64762">
        <ele>324.6</ele>
        <time>2025-01-19T11:12:58Z</time>
      </trkpt>
      <trkpt lat="43.40038" lon="6.64762">
        <ele>324.8</ele>
        <time>2025-01-19T11:12:59Z</time>
      </trkpt>
      <trkpt lat="43.40039" lon="6.64763">
        <ele>325</ele>
        <time>2025-01-19T11:13:00Z</time>
      </trkpt>
      <trkpt lat="43.40039" lon="6.64763">
        <ele>325.1</ele>
        <time>2025-01-19T11:13:01Z</time>
      </trkpt>
      <trkpt lat="43.4004" lon="6.64764">
        <ele>325.3</ele>
        <time>2025-01-19T11:13:02Z</time>
      </trkpt>
      <trkpt lat="43.40041" lon="6.64764">
        <ele>325.6</ele>
        <time>2025-01-19T11:13:03Z</time>
      </trkpt>
      <trkpt lat="43.40041" lon="6.64764">
        <ele>325.8</ele>
        <time>2025-01-19T11:13:04Z</time>
      </trkpt>
      <trkpt lat="43.40042" lon="6.64765">
        <ele>326</ele>
        <time>2025-01-19T11:13:05Z</time>
      </trkpt>
      <trkpt lat="43.40043" lon="6.64765">
        <ele>326.3</ele>
        <time>2025-01-19T11:13:06Z</time>
      </trkpt>
      <trkpt lat="43.40044" lon="6.64765">
        <ele>326.5</ele>
        <time>2025-01-19T11:13:07Z</time>
      </trkpt>
      <trkpt lat="43.40045" lon="6.64766">
        <ele>326.7</ele>
        <time>2025-01-19T11:13:08Z</time>
      </trkpt>
      <trkpt lat="43.40045" lon="6.64766">
        <ele>326.9</ele>
        <time>2025-01-19T11:13:09Z</time>
      </trkpt>
      <trkpt lat="43.40046" lon="6.64766">
        <ele>327</ele>
        <time>2025-01-19T11:13:10Z</time>
      </trkpt>
      <trkpt lat="43.40047" lon="6.64767">
        <ele>327.1</ele>
        <time>2025-01-19T11:13:11Z</time>
      </trkpt>
      <trkpt lat="43.40048" lon="6.64767">
        <ele>327.2</ele>
        <time>2025-01-19T11:13:12Z</time>
      </trkpt>
      <trkpt lat="43.40048" lon="6.64767">
        <ele>327.3</ele>
        <time>2025-01-19T11:13:13Z</time>
      </trkpt>
      <trkpt lat="43.40049" lon="6.64767">
        <ele>327.4</ele>
        <time>2025-01-19T11:13:14Z</time>
      </trkpt>
      <trkpt lat="43.4005" lon="6.64767">
        <ele>327.5</ele>
        <time>2025-01-19T11:13:15Z</time>
      </trkpt>
      <trkpt lat="43.4005" lon="6.64767">
        <ele>327.6</ele>
        <time>2025-01-19T11:13:16Z</time>
      </trkpt>
      <trkpt lat="43.40051" lon="6.64767">
        <ele>327.6</ele>
        <time>2025-01-19T11:13:17Z</time>
      </trkpt>
      <trkpt lat="43.40052" lon="6.64767">
        <ele>327.6</ele>
        <time>2025-01-19T11:13:18Z</time>
      </trkpt>
      <trkpt lat="43.40052" lon="6.64767">
        <ele>327.8</ele>
        <time>2025-01-19T11:13:19Z</time>
      </trkpt>
      <trkpt lat="43.40052" lon="6.64766">
        <ele>327.9</ele>
        <time>2025-01-19T11:13:20Z</time>
      </trkpt>
      <trkpt lat="43.40053" lon="6.64766">
        <ele>327.9</ele>
        <time>2025-01-19T11:13:21Z</time>
      </trkpt>
      <trkpt lat="43.40053" lon="6.64766">
        <ele>328</ele>
        <time>2025-01-19T11:13:22Z</time>
      </trkpt>
      <trkpt lat="43.40053" lon="6.64766">
        <ele>328.1</ele>
        <time>2025-01-19T11:13:23Z</time>
      </trkpt>
      <trkpt lat="43.40053" lon="6.64766">
        <ele>328.2</ele>
        <time>2025-01-19T11:13:24Z</time>
      </trkpt>
      <trkpt lat="43.40053" lon="6.64766">
        <ele>328.2</ele>
        <time>2025-01-19T11:13:25Z</time>
      </trkpt>
      <trkpt lat="43.40054" lon="6.64765">
        <ele>328.3</ele>
        <time>2025-01-19T11:13:26Z</time>
      </trkpt>
      <trkpt lat="43.40054" lon="6.64765">
        <ele>328.3</ele>
        <time>2025-01-19T11:13:27Z</time>
      </trkpt>
      <trkpt lat="43.40054" lon="6.64765">
        <ele>328.2</ele>
        <time>2025-01-19T11:13:28Z</time>
      </trkpt>
      <trkpt lat="43.40054" lon="6.64765">
        <ele>328.2</ele>
        <time>2025-01-19T11:13:29Z</time>
      </trkpt>
      <trkpt lat="43.40054" lon="6.64765">
        <ele>328.2</ele>
        <time>2025-01-19T11:13:30Z</time>
      </trkpt>
      <trkpt lat="43.40054" lon="6.64765">
        <ele>328.2</ele>
        <time>2025-01-19T11:13:31Z</time>
      </trkpt>
      <trkpt lat="43.40054" lon="6.64765">
        <ele>328.3</ele>
        <time>2025-01-19T11:13:32Z</time>
      </trkpt>
      <trkpt lat="43.40054" lon="6.64765">
        <ele>328.4</ele>
        <time>2025-01-19T11:13:33Z</time>
      </trkpt>
      <trkpt lat="43.40054" lon="6.64765">
        <ele>328.4</ele>
        <time>2025-01-19T11:13:34Z</time>
      </trkpt>
      <trkpt lat="43.40055" lon="6.64765">
        <ele>328.4</ele>
        <time>2025-01-19T11:13:35Z</time>
      </trkpt>
      <trkpt lat="43.40055" lon="6.64765">
        <ele>328.5</ele>
        <time>2025-01-19T11:13:36Z</time>
      </trkpt>
      <trkpt lat="43.40055" lon="6.64765">
        <ele>328.5</ele>
        <time>2025-01-19T11:13:37Z</time>
      </trkpt>
      <trkpt lat="43.40055" lon="6.64765">
        <ele>328.6</ele>
        <time>2025-01-19T11:13:38Z</time>
      </trkpt>
      <trkpt lat="43.40055" lon="6.64765">
        <ele>328.5</ele>
        <time>2025-01-19T11:13:39Z</time>
      </trkpt>
      <trkpt lat="43.40055" lon="6.64765">
        <ele>328.5</ele>
        <time>2025-01-19T11:13:40Z</time>
      </trkpt>
      <trkpt lat="43.40055" lon="6.64765">
        <ele>328.5</ele>
        <time>2025-01-19T11:13:41Z</time>
      </trkpt>
      <trkpt lat="43.40055" lon="6.64765">
        <ele>328.4</ele>
        <time>2025-01-19T11:13:42Z</time>
      </trkpt>
      <trkpt lat="43.40055" lon="6.64765">
        <ele>328.4</ele>
        <time>2025-01-19T11:13:43Z</time>
      </trkpt>
      <trkpt lat="43.40055" lon="6.64765">
        <ele>328.4</ele>
        <time>2025-01-19T11:13:44Z</time>
      </trkpt>
      <trkpt lat="43.40055" lon="6.64765">
        <ele>328.4</ele>
        <time>2025-01-19T11:13:45Z</time>
      </trkpt>
      <trkpt lat="43.40055" lon="6.64765">
        <ele>328.4</ele>
        <time>2025-01-19T11:13:46Z</time>
      </trkpt>
      <trkpt lat="43.40055" lon="6.64765">
        <ele>328.4</ele>
        <time>2025-01-19T11:13:47Z</time>
      </trkpt>
      <trkpt lat="43.40055" lon="6.64765">
        <ele>328.4</ele>
        <time>2025-01-19T11:13:48Z</time>
      </trkpt>
      <trkpt lat="43.40055" lon="6.64765">
        <ele>328.5</ele>
        <time>2025-01-19T11:13:49Z</time>
      </trkpt>
      <trkpt lat="43.40055" lon="6.64764">
        <ele>328.5</ele>
        <time>2025-01-19T11:13:50Z</time>
      </trkpt>
      <trkpt lat="43.40055" lon="6.64764">
        <ele>328.5</ele>
        <time>2025-01-19T11:13:51Z</time>
      </trkpt>
      <trkpt lat="43.40055" lon="6.64764">
        <ele>328.5</ele>
        <time>2025-01-19T11:13:52Z</time>
      </trkpt>
      <trkpt lat="43.40055" lon="6.64764">
        <ele>328.4</ele>
        <time>2025-01-19T11:13:53Z</time>
      </trkpt>
      <trkpt lat="43.40055" lon="6.64764">
        <ele>328.4</ele>
        <time>2025-01-19T11:13:54Z</time>
      </trkpt>
      <trkpt lat="43.40055" lon="6.64764">
        <ele>328.4</ele>
        <time>2025-01-19T11:13:55Z</time>
      </trkpt>
      <trkpt lat="43.40055" lon="6.64764">
        <ele>328.4</ele>
        <time>2025-01-19T11:13:56Z</time>
      </trkpt>
      <trkpt lat="43.40056" lon="6.64764">
        <ele>328.4</ele>
        <time>2025-01-19T11:13:57Z</time>
      </trkpt>
      <trkpt lat="43.40056" lon="6.64764">
        <ele>328.3</ele>
        <time>2025-01-19T11:13:58Z</time>
      </trkpt>
      <trkpt lat="43.40056" lon="6.64764">
        <ele>328.3</ele>
        <time>2025-01-19T11:13:59Z</time>
      </trkpt>
      <trkpt lat="43.40056" lon="6.64764">
        <ele>328.2</ele>
        <time>2025-01-19T11:14:00Z</time>
      </trkpt>
      <trkpt lat="43.40056" lon="6.64764">
        <ele>328.2</ele>
        <time>2025-01-19T11:14:01Z</time>
      </trkpt>
      <trkpt lat="43.40056" lon="6.64764">
        <ele>328.2</ele>
        <time>2025-01-19T11:14:02Z</time>
      </trkpt>
      <trkpt lat="43.40056" lon="6.64764">
        <ele>328.1</ele>
        <time>2025-01-19T11:14:03Z</time>
      </trkpt>
      <trkpt lat="43.40056" lon="6.64764">
        <ele>328.1</ele>
        <time>2025-01-19T11:14:04Z</time>
      </trkpt>
      <trkpt lat="43.40056" lon="6.64764">
        <ele>328.1</ele>
        <time>2025-01-19T11:14:05Z</time>
      </trkpt>
      <trkpt lat="43.40056" lon="6.64764">
        <ele>328</ele>
        <time>2025-01-19T11:14:06Z</time>
      </trkpt>
      <trkpt lat="43.40056" lon="6.64764">
        <ele>327.9</ele>
        <time>2025-01-19T11:14:07Z</time>
      </trkpt>
      <trkpt lat="43.40056" lon="6.64764">
        <ele>327.8</ele>
        <time>2025-01-19T11:14:08Z</time>
      </trkpt>
      <trkpt lat="43.40056" lon="6.64764">
        <ele>327.9</ele>
        <time>2025-01-19T11:14:09Z</time>
      </trkpt>
      <trkpt lat="43.40056" lon="6.64764">
        <ele>327.9</ele>
        <time>2025-01-19T11:14:10Z</time>
      </trkpt>
      <trkpt lat="43.40056" lon="6.64764">
        <ele>327.9</ele>
        <time>2025-01-19T11:14:11Z</time>
      </trkpt>
      <trkpt lat="43.40056" lon="6.64764">
        <ele>327.9</ele>
        <time>2025-01-19T11:14:12Z</time>
      </trkpt>
      <trkpt lat="43.40056" lon="6.64764">
        <ele>327.8</ele>
        <time>2025-01-19T11:14:13Z</time>
      </trkpt>
      <trkpt lat="43.40056" lon="6.64764">
        <ele>327.8</ele>
        <time>2025-01-19T11:14:14Z</time>
      </trkpt>
      <trkpt lat="43.40056" lon="6.64764">
        <ele>327.8</ele>
        <time>2025-01-19T11:14:15Z</time>
      </trkpt>
      <trkpt lat="43.40056" lon="6.64764">
        <ele>327.8</ele>
        <time>2025-01-19T11:14:16Z</time>
      </trkpt>
      <trkpt lat="43.40056" lon="6.64764">
        <ele>327.8</ele>
        <time>2025-01-19T11:14:17Z</time>
      </trkpt>
      <trkpt lat="43.40056" lon="6.64764">
        <ele>327.8</ele>
        <time>2025-01-19T11:14:18Z</time>
      </trkpt>
      <trkpt lat="43.40056" lon="6.64763">
        <ele>327.8</ele>
        <time>2025-01-19T11:14:19Z</time>
      </trkpt>
      <trkpt lat="43.40056" lon="6.64763">
        <ele>327.9</ele>
        <time>2025-01-19T11:14:20Z</time>
      </trkpt>
      <trkpt lat="43.40056" lon="6.64763">
        <ele>328</ele>
        <time>2025-01-19T11:14:21Z</time>
      </trkpt>
      <trkpt lat="43.40056" lon="6.64763">
        <ele>328</ele>
        <time>2025-01-19T11:14:22Z</time>
      </trkpt>
      <trkpt lat="43.40056" lon="6.64764">
        <ele>328</ele>
        <time>2025-01-19T11:14:23Z</time>
      </trkpt>
      <trkpt lat="43.40056" lon="6.64764">
        <ele>328</ele>
        <time>2025-01-19T11:14:24Z</time>
      </trkpt>
      <trkpt lat="43.40056" lon="6.64763">
        <ele>328.1</ele>
        <time>2025-01-19T11:14:25Z</time>
      </trkpt>
      <trkpt lat="43.40056" lon="6.64763">
        <ele>328.1</ele>
        <time>2025-01-19T11:14:26Z</time>
      </trkpt>
      <trkpt lat="43.40056" lon="6.64763">
        <ele>328.1</ele>
        <time>2025-01-19T11:14:27Z</time>
      </trkpt>
      <trkpt lat="43.40056" lon="6.64763">
        <ele>328.1</ele>
        <time>2025-01-19T11:14:28Z</time>
      </trkpt>
      <trkpt lat="43.40056" lon="6.64763">
        <ele>328.1</ele>
        <time>2025-01-19T11:14:29Z</time>
      </trkpt>
      <trkpt lat="43.40056" lon="6.64763">
        <ele>328</ele>
        <time>2025-01-19T11:14:30Z</time>
      </trkpt>
      <trkpt lat="43.40056" lon="6.64763">
        <ele>328</ele>
        <time>2025-01-19T11:14:31Z</time>
      </trkpt>
      <trkpt lat="43.40056" lon="6.64763">
        <ele>328.1</ele>
        <time>2025-01-19T11:14:32Z</time>
      </trkpt>
      <trkpt lat="43.40056" lon="6.64763">
        <ele>328.1</ele>
        <time>2025-01-19T11:14:33Z</time>
      </trkpt>
      <trkpt lat="43.40056" lon="6.64763">
        <ele>328.1</ele>
        <time>2025-01-19T11:14:34Z</time>
      </trkpt>
      <trkpt lat="43.40056" lon="6.64763">
        <ele>328.1</ele>
        <time>2025-01-19T11:14:35Z</time>
      </trkpt>
      <trkpt lat="43.40056" lon="6.64763">
        <ele>328.1</ele>
        <time>2025-01-19T11:14:36Z</time>
      </trkpt>
      <trkpt lat="43.40055" lon="6.64763">
        <ele>328.1</ele>
        <time>2025-01-19T11:14:37Z</time>
      </trkpt>
      <trkpt lat="43.40055" lon="6.64762">
        <ele>328.1</ele>
        <time>2025-01-19T11:14:38Z</time>
      </trkpt>
      <trkpt lat="43.40055" lon="6.64762">
        <ele>328.1</ele>
        <time>2025-01-19T11:14:39Z</time>
      </trkpt>
      <trkpt lat="43.40055" lon="6.64762">
        <ele>328.1</ele>
        <time>2025-01-19T11:14:40Z</time>
      </trkpt>
      <trkpt lat="43.40055" lon="6.64762">
        <ele>328.1</ele>
        <time>2025-01-19T11:14:41Z</time>
      </trkpt>
      <trkpt lat="43.40055" lon="6.64762">
        <ele>328.1</ele>
        <time>2025-01-19T11:14:42Z</time>
      </trkpt>
      <trkpt lat="43.40055" lon="6.64762">
        <ele>328.2</ele>
        <time>2025-01-19T11:14:43Z</time>
      </trkpt>
      <trkpt lat="43.40056" lon="6.64762">
        <ele>328.3</ele>
        <time>2025-01-19T11:14:44Z</time>
      </trkpt>
      <trkpt lat="43.40056" lon="6.64762">
        <ele>328.3</ele>
        <time>2025-01-19T11:14:45Z</time>
      </trkpt>
      <trkpt lat="43.40056" lon="6.64763">
        <ele>328.2</ele>
        <time>2025-01-19T11:14:46Z</time>
      </trkpt>
      <trkpt lat="43.40056" lon="6.64763">
        <ele>328.1</ele>
        <time>2025-01-19T11:14:47Z</time>
      </trkpt>
      <trkpt lat="43.40056" lon="6.64763">
        <ele>328.1</ele>
        <time>2025-01-19T11:14:48Z</time>
      </trkpt>
      <trkpt lat="43.40056" lon="6.64763">
        <ele>328.1</ele>
        <time>2025-01-19T11:14:49Z</time>
      </trkpt>
      <trkpt lat="43.40056" lon="6.64763">
        <ele>328.1</ele>
        <time>2025-01-19T11:14:50Z</time>
      </trkpt>
      <trkpt lat="43.40056" lon="6.64763">
        <ele>328.1</ele>
        <time>2025-01-19T11:14:51Z</time>
      </trkpt>
      <trkpt lat="43.40057" lon="6.64764">
        <ele>328.1</ele>
        <time>2025-01-19T11:14:52Z</time>
      </trkpt>
      <trkpt lat="43.40056" lon="6.64764">
        <ele>328.2</ele>
        <time>2025-01-19T11:14:53Z</time>
      </trkpt>
      <trkpt lat="43.40057" lon="6.64764">
        <ele>328.3</ele>
        <time>2025-01-19T11:14:54Z</time>
      </trkpt>
      <trkpt lat="43.40057" lon="6.64764">
        <ele>328.2</ele>
        <time>2025-01-19T11:14:55Z</time>
      </trkpt>
      <trkpt lat="43.40057" lon="6.64764">
        <ele>328.2</ele>
        <time>2025-01-19T11:14:56Z</time>
      </trkpt>
      <trkpt lat="43.40057" lon="6.64764">
        <ele>328.1</ele>
        <time>2025-01-19T11:14:57Z</time>
      </trkpt>
      <trkpt lat="43.40057" lon="6.64763">
        <ele>328.1</ele>
        <time>2025-01-19T11:14:58Z</time>
      </trkpt>
      <trkpt lat="43.40057" lon="6.64763">
        <ele>328.1</ele>
        <time>2025-01-19T11:14:59Z</time>
      </trkpt>
      <trkpt lat="43.40057" lon="6.64763">
        <ele>328</ele>
        <time>2025-01-19T11:15:00Z</time>
      </trkpt>
      <trkpt lat="43.40057" lon="6.64763">
        <ele>328</ele>
        <time>2025-01-19T11:15:01Z</time>
      </trkpt>
      <trkpt lat="43.40057" lon="6.64763">
        <ele>328</ele>
        <time>2025-01-19T11:15:02Z</time>
      </trkpt>
      <trkpt lat="43.40057" lon="6.64763">
        <ele>328</ele>
        <time>2025-01-19T11:15:03Z</time>
      </trkpt>
      <trkpt lat="43.40057" lon="6.64763">
        <ele>328.1</ele>
        <time>2025-01-19T11:15:04Z</time>
      </trkpt>
      <trkpt lat="43.40056" lon="6.64763">
        <ele>328.1</ele>
        <time>2025-01-19T11:15:05Z</time>
      </trkpt>
      <trkpt lat="43.40056" lon="6.64763">
        <ele>328.1</ele>
        <time>2025-01-19T11:15:06Z</time>
      </trkpt>
      <trkpt lat="43.40056" lon="6.64763">
        <ele>328.1</ele>
        <time>2025-01-19T11:15:07Z</time>
      </trkpt>
      <trkpt lat="43.40056" lon="6.64762">
        <ele>328.1</ele>
        <time>2025-01-19T11:15:08Z</time>
      </trkpt>
      <trkpt lat="43.40056" lon="6.64762">
        <ele>328.1</ele>
        <time>2025-01-19T11:15:09Z</time>
      </trkpt>
      <trkpt lat="43.40056" lon="6.64762">
        <ele>328.1</ele>
        <time>2025-01-19T11:15:10Z</time>
      </trkpt>
      <trkpt lat="43.40056" lon="6.64762">
        <ele>328.1</ele>
        <time>2025-01-19T11:15:11Z</time>
      </trkpt>
      <trkpt lat="43.40056" lon="6.64762">
        <ele>328.1</ele>
        <time>2025-01-19T11:15:12Z</time>
      </trkpt>
      <trkpt lat="43.40056" lon="6.64762">
        <ele>328.1</ele>
        <time>2025-01-19T11:15:13Z</time>
      </trkpt>
      <trkpt lat="43.40056" lon="6.64762">
        <ele>328.1</ele>
        <time>2025-01-19T11:15:14Z</time>
      </trkpt>
      <trkpt lat="43.40056" lon="6.64762">
        <ele>328.1</ele>
        <time>2025-01-19T11:15:15Z</time>
      </trkpt>
      <trkpt lat="43.40056" lon="6.64762">
        <ele>328.2</ele>
        <time>2025-01-19T11:15:16Z</time>
      </trkpt>
      <trkpt lat="43.40056" lon="6.64762">
        <ele>328.2</ele>
        <time>2025-01-19T11:15:17Z</time>
      </trkpt>
      <trkpt lat="43.40056" lon="6.64762">
        <ele>328.1</ele>
        <time>2025-01-19T11:15:18Z</time>
      </trkpt>
      <trkpt lat="43.40055" lon="6.64762">
        <ele>328</ele>
        <time>2025-01-19T11:15:19Z</time>
      </trkpt>
      <trkpt lat="43.40055" lon="6.64762">
        <ele>328</ele>
        <time>2025-01-19T11:15:20Z</time>
      </trkpt>
      <trkpt lat="43.40055" lon="6.64761">
        <ele>328</ele>
        <time>2025-01-19T11:15:21Z</time>
      </trkpt>
      <trkpt lat="43.40055" lon="6.64761">
        <ele>328</ele>
        <time>2025-01-19T11:15:22Z</time>
      </trkpt>
      <trkpt lat="43.40055" lon="6.64761">
        <ele>328</ele>
        <time>2025-01-19T11:15:23Z</time>
      </trkpt>
      <trkpt lat="43.40055" lon="6.64761">
        <ele>328</ele>
        <time>2025-01-19T11:15:24Z</time>
      </trkpt>
      <trkpt lat="43.40055" lon="6.64761">
        <ele>328</ele>
        <time>2025-01-19T11:15:25Z</time>
      </trkpt>
      <trkpt lat="43.40055" lon="6.64761">
        <ele>328.1</ele>
        <time>2025-01-19T11:15:26Z</time>
      </trkpt>
      <trkpt lat="43.40055" lon="6.64761">
        <ele>328</ele>
        <time>2025-01-19T11:15:27Z</time>
      </trkpt>
      <trkpt lat="43.40055" lon="6.64761">
        <ele>328</ele>
        <time>2025-01-19T11:15:28Z</time>
      </trkpt>
      <trkpt lat="43.40055" lon="6.64762">
        <ele>328</ele>
        <time>2025-01-19T11:15:29Z</time>
      </trkpt>
      <trkpt lat="43.40055" lon="6.64761">
        <ele>327.9</ele>
        <time>2025-01-19T11:15:30Z</time>
      </trkpt>
      <trkpt lat="43.40055" lon="6.64761">
        <ele>327.9</ele>
        <time>2025-01-19T11:15:31Z</time>
      </trkpt>
      <trkpt lat="43.40055" lon="6.64761">
        <ele>327.9</ele>
        <time>2025-01-19T11:15:32Z</time>
      </trkpt>
      <trkpt lat="43.40055" lon="6.64761">
        <ele>327.9</ele>
        <time>2025-01-19T11:15:33Z</time>
      </trkpt>
      <trkpt lat="43.40055" lon="6.64762">
        <ele>327.9</ele>
        <time>2025-01-19T11:15:34Z</time>
      </trkpt>
      <trkpt lat="43.40056" lon="6.64762">
        <ele>327.9</ele>
        <time>2025-01-19T11:15:35Z</time>
      </trkpt>
      <trkpt lat="43.40056" lon="6.64762">
        <ele>327.9</ele>
        <time>2025-01-19T11:15:36Z</time>
      </trkpt>
      <trkpt lat="43.40056" lon="6.64762">
        <ele>327.9</ele>
        <time>2025-01-19T11:15:37Z</time>
      </trkpt>
      <trkpt lat="43.40056" lon="6.64761">
        <ele>327.9</ele>
        <time>2025-01-19T11:15:38Z</time>
      </trkpt>
      <trkpt lat="43.40056" lon="6.64761">
        <ele>327.8</ele>
        <time>2025-01-19T11:15:39Z</time>
      </trkpt>
      <trkpt lat="43.40056" lon="6.64761">
        <ele>327.8</ele>
        <time>2025-01-19T11:15:40Z</time>
      </trkpt>
      <trkpt lat="43.40056" lon="6.64761">
        <ele>327.8</ele>
        <time>2025-01-19T11:15:41Z</time>
      </trkpt>
      <trkpt lat="43.40056" lon="6.64761">
        <ele>327.8</ele>
        <time>2025-01-19T11:15:42Z</time>
      </trkpt>
      <trkpt lat="43.40056" lon="6.64761">
        <ele>327.8</ele>
        <time>2025-01-19T11:15:43Z</time>
      </trkpt>
      <trkpt lat="43.40056" lon="6.64761">
        <ele>327.8</ele>
        <time>2025-01-19T11:15:44Z</time>
      </trkpt>
      <trkpt lat="43.40056" lon="6.64761">
        <ele>327.8</ele>
        <time>2025-01-19T11:15:45Z</time>
      </trkpt>
      <trkpt lat="43.40056" lon="6.64761">
        <ele>327.8</ele>
        <time>2025-01-19T11:15:46Z</time>
      </trkpt>
      <trkpt lat="43.40056" lon="6.64761">
        <ele>327.8</ele>
        <time>2025-01-19T11:15:47Z</time>
      </trkpt>
      <trkpt lat="43.40056" lon="6.64761">
        <ele>327.9</ele>
        <time>2025-01-19T11:15:48Z</time>
      </trkpt>
      <trkpt lat="43.40056" lon="6.64761">
        <ele>327.8</ele>
        <time>2025-01-19T11:15:49Z</time>
      </trkpt>
      <trkpt lat="43.40056" lon="6.64761">
        <ele>327.8</ele>
        <time>2025-01-19T11:15:50Z</time>
      </trkpt>
      <trkpt lat="43.40056" lon="6.64761">
        <ele>327.8</ele>
        <time>2025-01-19T11:15:51Z</time>
      </trkpt>
      <trkpt lat="43.40056" lon="6.64761">
        <ele>327.8</ele>
        <time>2025-01-19T11:15:52Z</time>
      </trkpt>
      <trkpt lat="43.40056" lon="6.64761">
        <ele>327.8</ele>
        <time>2025-01-19T11:15:53Z</time>
      </trkpt>
      <trkpt lat="43.40056" lon="6.64761">
        <ele>327.9</ele>
        <time>2025-01-19T11:15:54Z</time>
      </trkpt>
      <trkpt lat="43.40056" lon="6.64761">
        <ele>328</ele>
        <time>2025-01-19T11:15:55Z</time>
      </trkpt>
      <trkpt lat="43.40057" lon="6.64761">
        <ele>328.1</ele>
        <time>2025-01-19T11:15:56Z</time>
      </trkpt>
      <trkpt lat="43.40056" lon="6.64761">
        <ele>328.1</ele>
        <time>2025-01-19T11:15:57Z</time>
      </trkpt>
      <trkpt lat="43.40056" lon="6.64761">
        <ele>328.2</ele>
        <time>2025-01-19T11:15:58Z</time>
      </trkpt>
      <trkpt lat="43.40056" lon="6.64761">
        <ele>328.2</ele>
        <time>2025-01-19T11:15:59Z</time>
      </trkpt>
      <trkpt lat="43.40056" lon="6.64761">
        <ele>328.2</ele>
        <time>2025-01-19T11:16:00Z</time>
      </trkpt>
      <trkpt lat="43.40057" lon="6.64761">
        <ele>328.2</ele>
        <time>2025-01-19T11:16:01Z</time>
      </trkpt>
      <trkpt lat="43.40057" lon="6.64761">
        <ele>328.2</ele>
        <time>2025-01-19T11:16:02Z</time>
      </trkpt>
      <trkpt lat="43.40057" lon="6.64761">
        <ele>328.1</ele>
        <time>2025-01-19T11:16:03Z</time>
      </trkpt>
      <trkpt lat="43.40057" lon="6.64761">
        <ele>328.2</ele>
        <time>2025-01-19T11:16:04Z</time>
      </trkpt>
      <trkpt lat="43.40057" lon="6.64761">
        <ele>328.1</ele>
        <time>2025-01-19T11:16:05Z</time>
      </trkpt>
      <trkpt lat="43.40057" lon="6.64761">
        <ele>328.1</ele>
        <time>2025-01-19T11:16:06Z</time>
      </trkpt>
      <trkpt lat="43.40057" lon="6.64761">
        <ele>328.1</ele>
        <time>2025-01-19T11:16:07Z</time>
      </trkpt>
      <trkpt lat="43.40057" lon="6.64761">
        <ele>328.1</ele>
        <time>2025-01-19T11:16:08Z</time>
      </trkpt>
      <trkpt lat="43.40057" lon="6.64761">
        <ele>328.1</ele>
        <time>2025-01-19T11:16:09Z</time>
      </trkpt>
      <trkpt lat="43.40057" lon="6.64761">
        <ele>328.1</ele>
        <time>2025-01-19T11:16:10Z</time>
      </trkpt>
      <trkpt lat="43.40056" lon="6.64761">
        <ele>328.1</ele>
        <time>2025-01-19T11:16:11Z</time>
      </trkpt>
      <trkpt lat="43.40056" lon="6.64761">
        <ele>328.1</ele>
        <time>2025-01-19T11:16:12Z</time>
      </trkpt>
      <trkpt lat="43.40056" lon="6.64761">
        <ele>328</ele>
        <time>2025-01-19T11:16:13Z</time>
      </trkpt>
      <trkpt lat="43.40056" lon="6.64761">
        <ele>328</ele>
        <time>2025-01-19T11:16:14Z</time>
      </trkpt>
      <trkpt lat="43.40056" lon="6.64761">
        <ele>328</ele>
        <time>2025-01-19T11:16:15Z</time>
      </trkpt>
      <trkpt lat="43.40056" lon="6.64761">
        <ele>328</ele>
        <time>2025-01-19T11:16:16Z</time>
      </trkpt>
      <trkpt lat="43.40057" lon="6.64761">
        <ele>328</ele>
        <time>2025-01-19T11:16:17Z</time>
      </trkpt>
      <trkpt lat="43.40057" lon="6.64761">
        <ele>328</ele>
        <time>2025-01-19T11:16:18Z</time>
      </trkpt>
      <trkpt lat="43.40057" lon="6.64761">
        <ele>327.9</ele>
        <time>2025-01-19T11:16:19Z</time>
      </trkpt>
      <trkpt lat="43.40057" lon="6.64761">
        <ele>327.9</ele>
        <time>2025-01-19T11:16:20Z</time>
      </trkpt>
      <trkpt lat="43.40057" lon="6.64761">
        <ele>327.9</ele>
        <time>2025-01-19T11:16:21Z</time>
      </trkpt>
      <trkpt lat="43.40057" lon="6.64761">
        <ele>327.9</ele>
        <time>2025-01-19T11:16:22Z</time>
      </trkpt>
      <trkpt lat="43.40057" lon="6.64761">
        <ele>327.8</ele>
        <time>2025-01-19T11:16:23Z</time>
      </trkpt>
      <trkpt lat="43.40057" lon="6.64761">
        <ele>327.7</ele>
        <time>2025-01-19T11:16:24Z</time>
      </trkpt>
      <trkpt lat="43.40057" lon="6.64761">
        <ele>327.7</ele>
        <time>2025-01-19T11:16:25Z</time>
      </trkpt>
      <trkpt lat="43.40057" lon="6.64761">
        <ele>327.7</ele>
        <time>2025-01-19T11:16:26Z</time>
      </trkpt>
      <trkpt lat="43.40057" lon="6.64762">
        <ele>327.7</ele>
        <time>2025-01-19T11:16:27Z</time>
      </trkpt>
      <trkpt lat="43.40057" lon="6.64762">
        <ele>327.7</ele>
        <time>2025-01-19T11:16:28Z</time>
      </trkpt>
      <trkpt lat="43.40057" lon="6.64762">
        <ele>327.6</ele>
        <time>2025-01-19T11:16:29Z</time>
      </trkpt>
      <trkpt lat="43.40057" lon="6.64762">
        <ele>327.5</ele>
        <time>2025-01-19T11:16:30Z</time>
      </trkpt>
      <trkpt lat="43.40057" lon="6.64762">
        <ele>327.5</ele>
        <time>2025-01-19T11:16:31Z</time>
      </trkpt>
      <trkpt lat="43.40057" lon="6.64762">
        <ele>327.5</ele>
        <time>2025-01-19T11:16:32Z</time>
      </trkpt>
      <trkpt lat="43.40057" lon="6.64762">
        <ele>327.5</ele>
        <time>2025-01-19T11:16:33Z</time>
      </trkpt>
      <trkpt lat="43.40057" lon="6.64762">
        <ele>327.6</ele>
        <time>2025-01-19T11:16:34Z</time>
      </trkpt>
      <trkpt lat="43.40057" lon="6.64763">
        <ele>327.5</ele>
        <time>2025-01-19T11:16:35Z</time>
      </trkpt>
      <trkpt lat="43.40057" lon="6.64763">
        <ele>327.5</ele>
        <time>2025-01-19T11:16:36Z</time>
      </trkpt>
      <trkpt lat="43.40057" lon="6.64763">
        <ele>327.6</ele>
        <time>2025-01-19T11:16:37Z</time>
      </trkpt>
      <trkpt lat="43.40057" lon="6.64763">
        <ele>327.6</ele>
        <time>2025-01-19T11:16:38Z</time>
      </trkpt>
      <trkpt lat="43.40057" lon="6.64763">
        <ele>327.7</ele>
        <time>2025-01-19T11:16:39Z</time>
      </trkpt>
      <trkpt lat="43.40058" lon="6.64763">
        <ele>327.7</ele>
        <time>2025-01-19T11:16:40Z</time>
      </trkpt>
      <trkpt lat="43.40058" lon="6.64763">
        <ele>327.7</ele>
        <time>2025-01-19T11:16:41Z</time>
      </trkpt>
      <trkpt lat="43.40058" lon="6.64763">
        <ele>327.6</ele>
        <time>2025-01-19T11:16:42Z</time>
      </trkpt>
      <trkpt lat="43.40058" lon="6.64763">
        <ele>327.7</ele>
        <time>2025-01-19T11:16:43Z</time>
      </trkpt>
      <trkpt lat="43.40058" lon="6.64763">
        <ele>327.6</ele>
        <time>2025-01-19T11:16:44Z</time>
      </trkpt>
      <trkpt lat="43.40058" lon="6.64763">
        <ele>327.6</ele>
        <time>2025-01-19T11:16:45Z</time>
      </trkpt>
      <trkpt lat="43.40058" lon="6.64763">
        <ele>327.5</ele>
        <time>2025-01-19T11:16:46Z</time>
      </trkpt>
      <trkpt lat="43.40058" lon="6.64763">
        <ele>327.5</ele>
        <time>2025-01-19T11:16:47Z</time>
      </trkpt>
      <trkpt lat="43.40058" lon="6.64763">
        <ele>327.5</ele>
        <time>2025-01-19T11:16:48Z</time>
      </trkpt>
      <trkpt lat="43.40058" lon="6.64763">
        <ele>327.4</ele>
        <time>2025-01-19T11:16:49Z</time>
      </trkpt>
      <trkpt lat="43.40058" lon="6.64763">
        <ele>327.4</ele>
        <time>2025-01-19T11:16:50Z</time>
      </trkpt>
      <trkpt lat="43.40058" lon="6.64763">
        <ele>327.4</ele>
        <time>2025-01-19T11:16:51Z</time>
      </trkpt>
      <trkpt lat="43.40058" lon="6.64763">
        <ele>327.3</ele>
        <time>2025-01-19T11:16:52Z</time>
      </trkpt>
      <trkpt lat="43.40058" lon="6.64763">
        <ele>327.3</ele>
        <time>2025-01-19T11:16:53Z</time>
      </trkpt>
      <trkpt lat="43.40058" lon="6.64764">
        <ele>327.3</ele>
        <time>2025-01-19T11:16:54Z</time>
      </trkpt>
      <trkpt lat="43.40058" lon="6.64764">
        <ele>327.3</ele>
        <time>2025-01-19T11:16:55Z</time>
      </trkpt>
      <trkpt lat="43.40058" lon="6.64764">
        <ele>327.4</ele>
        <time>2025-01-19T11:16:56Z</time>
      </trkpt>
      <trkpt lat="43.40058" lon="6.64764">
        <ele>327.4</ele>
        <time>2025-01-19T11:16:57Z</time>
      </trkpt>
      <trkpt lat="43.40058" lon="6.64764">
        <ele>327.4</ele>
        <time>2025-01-19T11:16:58Z</time>
      </trkpt>
      <trkpt lat="43.40058" lon="6.64764">
        <ele>327.5</ele>
        <time>2025-01-19T11:16:59Z</time>
      </trkpt>
      <trkpt lat="43.40058" lon="6.64764">
        <ele>327.5</ele>
        <time>2025-01-19T11:17:00Z</time>
      </trkpt>
      <trkpt lat="43.40058" lon="6.64764">
        <ele>327.5</ele>
        <time>2025-01-19T11:17:01Z</time>
      </trkpt>
      <trkpt lat="43.40058" lon="6.64764">
        <ele>327.6</ele>
        <time>2025-01-19T11:17:02Z</time>
      </trkpt>
      <trkpt lat="43.40058" lon="6.64764">
        <ele>327.5</ele>
        <time>2025-01-19T11:17:03Z</time>
      </trkpt>
      <trkpt lat="43.40058" lon="6.64764">
        <ele>327.6</ele>
        <time>2025-01-19T11:17:04Z</time>
      </trkpt>
      <trkpt lat="43.40058" lon="6.64764">
        <ele>327.6</ele>
        <time>2025-01-19T11:17:05Z</time>
      </trkpt>
      <trkpt lat="43.40058" lon="6.64764">
        <ele>327.6</ele>
        <time>2025-01-19T11:17:06Z</time>
      </trkpt>
      <trkpt lat="43.40058" lon="6.64764">
        <ele>327.6</ele>
        <time>2025-01-19T11:17:07Z</time>
      </trkpt>
      <trkpt lat="43.40058" lon="6.64764">
        <ele>327.5</ele>
        <time>2025-01-19T11:17:08Z</time>
      </trkpt>
      <trkpt lat="43.40058" lon="6.64764">
        <ele>327.4</ele>
        <time>2025-01-19T11:17:09Z</time>
      </trkpt>
      <trkpt lat="43.40058" lon="6.64764">
        <ele>327.4</ele>
        <time>2025-01-19T11:17:10Z</time>
      </trkpt>
      <trkpt lat="43.40058" lon="6.64763">
        <ele>327.4</ele>
        <time>2025-01-19T11:17:11Z</time>
      </trkpt>
      <trkpt lat="43.40058" lon="6.64763">
        <ele>327.4</ele>
        <time>2025-01-19T11:17:12Z</time>
      </trkpt>
      <trkpt lat="43.40059" lon="6.64763">
        <ele>327.5</ele>
        <time>2025-01-19T11:17:13Z</time>
      </trkpt>
      <trkpt lat="43.40059" lon="6.64763">
        <ele>327.5</ele>
        <time>2025-01-19T11:17:14Z</time>
      </trkpt>
      <trkpt lat="43.4006" lon="6.64762">
        <ele>327.4</ele>
        <time>2025-01-19T11:17:15Z</time>
      </trkpt>
      <trkpt lat="43.40061" lon="6.64762">
        <ele>327.4</ele>
        <time>2025-01-19T11:17:16Z</time>
      </trkpt>
      <trkpt lat="43.40062" lon="6.64761">
        <ele>327.4</ele>
        <time>2025-01-19T11:17:17Z</time>
      </trkpt>
      <trkpt lat="43.40062" lon="6.6476">
        <ele>327.4</ele>
        <time>2025-01-19T11:17:18Z</time>
      </trkpt>
      <trkpt lat="43.40063" lon="6.64759">
        <ele>327.4</ele>
        <time>2025-01-19T11:17:19Z</time>
      </trkpt>
      <trkpt lat="43.40064" lon="6.64758">
        <ele>327.4</ele>
        <time>2025-01-19T11:17:20Z</time>
      </trkpt>
      <trkpt lat="43.40064" lon="6.64757">
        <ele>327.3</ele>
        <time>2025-01-19T11:17:21Z</time>
      </trkpt>
      <trkpt lat="43.40065" lon="6.64756">
        <ele>327.2</ele>
        <time>2025-01-19T11:17:22Z</time>
      </trkpt>
      <trkpt lat="43.40066" lon="6.64755">
        <ele>327.2</ele>
        <time>2025-01-19T11:17:23Z</time>
      </trkpt>
      <trkpt lat="43.40067" lon="6.64754">
        <ele>327.2</ele>
        <time>2025-01-19T11:17:24Z</time>
      </trkpt>
      <trkpt lat="43.40068" lon="6.64753">
        <ele>327.3</ele>
        <time>2025-01-19T11:17:25Z</time>
      </trkpt>
      <trkpt lat="43.40068" lon="6.64753">
        <ele>327.2</ele>
        <time>2025-01-19T11:17:26Z</time>
      </trkpt>
      <trkpt lat="43.40069" lon="6.64752">
        <ele>327.2</ele>
        <time>2025-01-19T11:17:27Z</time>
      </trkpt>
      <trkpt lat="43.40069" lon="6.64751">
        <ele>327.2</ele>
        <time>2025-01-19T11:17:28Z</time>
      </trkpt>
      <trkpt lat="43.4007" lon="6.64749">
        <ele>327.2</ele>
        <time>2025-01-19T11:17:29Z</time>
      </trkpt>
      <trkpt lat="43.40071" lon="6.64748">
        <ele>327.2</ele>
        <time>2025-01-19T11:17:30Z</time>
      </trkpt>
      <trkpt lat="43.40071" lon="6.64747">
        <ele>327.2</ele>
        <time>2025-01-19T11:17:31Z</time>
      </trkpt>
      <trkpt lat="43.40072" lon="6.64746">
        <ele>327.3</ele>
        <time>2025-01-19T11:17:32Z</time>
      </trkpt>
      <trkpt lat="43.40073" lon="6.64745">
        <ele>327.3</ele>
        <time>2025-01-19T11:17:33Z</time>
      </trkpt>
      <trkpt lat="43.40074" lon="6.64744">
        <ele>327.3</ele>
        <time>2025-01-19T11:17:34Z</time>
      </trkpt>
      <trkpt lat="43.40074" lon="6.64743">
        <ele>327.3</ele>
        <time>2025-01-19T11:17:35Z</time>
      </trkpt>
      <trkpt lat="43.40075" lon="6.64742">
        <ele>327.2</ele>
        <time>2025-01-19T11:17:36Z</time>
      </trkpt>
      <trkpt lat="43.40075" lon="6.64741">
        <ele>327.2</ele>
        <time>2025-01-19T11:17:37Z</time>
      </trkpt>
      <trkpt lat="43.40076" lon="6.6474">
        <ele>327.1</ele>
        <time>2025-01-19T11:17:38Z</time>
      </trkpt>
      <trkpt lat="43.40077" lon="6.64739">
        <ele>327.1</ele>
        <time>2025-01-19T11:17:39Z</time>
      </trkpt>
      <trkpt lat="43.40078" lon="6.64738">
        <ele>327.1</ele>
        <time>2025-01-19T11:17:40Z</time>
      </trkpt>
      <trkpt lat="43.40079" lon="6.64737">
        <ele>327.1</ele>
        <time>2025-01-19T11:17:41Z</time>
      </trkpt>
      <trkpt lat="43.40079" lon="6.64736">
        <ele>327</ele>
        <time>2025-01-19T11:17:42Z</time>
      </trkpt>
      <trkpt lat="43.4008" lon="6.64735">
        <ele>327</ele>
        <time>2025-01-19T11:17:43Z</time>
      </trkpt>
      <trkpt lat="43.40081" lon="6.64734">
        <ele>326.9</ele>
        <time>2025-01-19T11:17:44Z</time>
      </trkpt>
      <trkpt lat="43.40082" lon="6.64733">
        <ele>326.9</ele>
        <time>2025-01-19T11:17:45Z</time>
      </trkpt>
      <trkpt lat="43.40083" lon="6.64732">
        <ele>326.9</ele>
        <time>2025-01-19T11:17:46Z</time>
      </trkpt>
      <trkpt lat="43.40083" lon="6.64731">
        <ele>326.9</ele>
        <time>2025-01-19T11:17:47Z</time>
      </trkpt>
      <trkpt lat="43.40084" lon="6.6473">
        <ele>327</ele>
        <time>2025-01-19T11:17:48Z</time>
      </trkpt>
      <trkpt lat="43.40085" lon="6.64729">
        <ele>327</ele>
        <time>2025-01-19T11:17:49Z</time>
      </trkpt>
      <trkpt lat="43.40086" lon="6.64728">
        <ele>327.1</ele>
        <time>2025-01-19T11:17:50Z</time>
      </trkpt>
      <trkpt lat="43.40087" lon="6.64726">
        <ele>327</ele>
        <time>2025-01-19T11:17:51Z</time>
      </trkpt>
      <trkpt lat="43.40088" lon="6.64725">
        <ele>327</ele>
        <time>2025-01-19T11:17:52Z</time>
      </trkpt>
      <trkpt lat="43.40089" lon="6.64724">
        <ele>327</ele>
        <time>2025-01-19T11:17:53Z</time>
      </trkpt>
      <trkpt lat="43.4009" lon="6.64723">
        <ele>327</ele>
        <time>2025-01-19T11:17:54Z</time>
      </trkpt>
      <trkpt lat="43.4009" lon="6.64722">
        <ele>327</ele>
        <time>2025-01-19T11:17:55Z</time>
      </trkpt>
      <trkpt lat="43.40092" lon="6.64721">
        <ele>326.9</ele>
        <time>2025-01-19T11:17:56Z</time>
      </trkpt>
      <trkpt lat="43.40093" lon="6.6472">
        <ele>326.9</ele>
        <time>2025-01-19T11:17:57Z</time>
      </trkpt>
      <trkpt lat="43.40093" lon="6.64719">
        <ele>326.9</ele>
        <time>2025-01-19T11:17:58Z</time>
      </trkpt>
      <trkpt lat="43.40094" lon="6.64718">
        <ele>326.9</ele>
        <time>2025-01-19T11:17:59Z</time>
      </trkpt>
      <trkpt lat="43.40095" lon="6.64717">
        <ele>326.9</ele>
        <time>2025-01-19T11:18:00Z</time>
      </trkpt>
      <trkpt lat="43.40095" lon="6.64717">
        <ele>327</ele>
        <time>2025-01-19T11:18:01Z</time>
      </trkpt>
      <trkpt lat="43.40096" lon="6.64716">
        <ele>326.9</ele>
        <time>2025-01-19T11:18:02Z</time>
      </trkpt>
      <trkpt lat="43.40097" lon="6.64715">
        <ele>326.9</ele>
        <time>2025-01-19T11:18:03Z</time>
      </trkpt>
      <trkpt lat="43.40099" lon="6.64715">
        <ele>326.9</ele>
        <time>2025-01-19T11:18:04Z</time>
      </trkpt>
      <trkpt lat="43.401" lon="6.64714">
        <ele>326.9</ele>
        <time>2025-01-19T11:18:05Z</time>
      </trkpt>
      <trkpt lat="43.40101" lon="6.64714">
        <ele>326.8</ele>
        <time>2025-01-19T11:18:06Z</time>
      </trkpt>
      <trkpt lat="43.40102" lon="6.64713">
        <ele>326.8</ele>
        <time>2025-01-19T11:18:07Z</time>
      </trkpt>
      <trkpt lat="43.40103" lon="6.64713">
        <ele>326.8</ele>
        <time>2025-01-19T11:18:08Z</time>
      </trkpt>
      <trkpt lat="43.40105" lon="6.64712">
        <ele>326.8</ele>
        <time>2025-01-19T11:18:09Z</time>
      </trkpt>
      <trkpt lat="43.40106" lon="6.64712">
        <ele>326.8</ele>
        <time>2025-01-19T11:18:10Z</time>
      </trkpt>
      <trkpt lat="43.40107" lon="6.64711">
        <ele>326.9</ele>
        <time>2025-01-19T11:18:11Z</time>
      </trkpt>
      <trkpt lat="43.40108" lon="6.6471">
        <ele>326.9</ele>
        <time>2025-01-19T11:18:12Z</time>
      </trkpt>
      <trkpt lat="43.40109" lon="6.6471">
        <ele>326.8</ele>
        <time>2025-01-19T11:18:13Z</time>
      </trkpt>
      <trkpt lat="43.40111" lon="6.64709">
        <ele>326.7</ele>
        <time>2025-01-19T11:18:14Z</time>
      </trkpt>
      <trkpt lat="43.40112" lon="6.64708">
        <ele>326.6</ele>
        <time>2025-01-19T11:18:15Z</time>
      </trkpt>
      <trkpt lat="43.40112" lon="6.64708">
        <ele>326.5</ele>
        <time>2025-01-19T11:18:16Z</time>
      </trkpt>
      <trkpt lat="43.40114" lon="6.64707">
        <ele>326.2</ele>
        <time>2025-01-19T11:18:17Z</time>
      </trkpt>
      <trkpt lat="43.40114" lon="6.64706">
        <ele>326.2</ele>
        <time>2025-01-19T11:18:18Z</time>
      </trkpt>
      <trkpt lat="43.40115" lon="6.64705">
        <ele>326.1</ele>
        <time>2025-01-19T11:18:19Z</time>
      </trkpt>
      <trkpt lat="43.40116" lon="6.64704">
        <ele>326</ele>
        <time>2025-01-19T11:18:20Z</time>
      </trkpt>
      <trkpt lat="43.40117" lon="6.64704">
        <ele>325.9</ele>
        <time>2025-01-19T11:18:21Z</time>
      </trkpt>
      <trkpt lat="43.40118" lon="6.64703">
        <ele>325.8</ele>
        <time>2025-01-19T11:18:22Z</time>
      </trkpt>
      <trkpt lat="43.40119" lon="6.64702">
        <ele>325.7</ele>
        <time>2025-01-19T11:18:23Z</time>
      </trkpt>
      <trkpt lat="43.4012" lon="6.64701">
        <ele>325.7</ele>
        <time>2025-01-19T11:18:24Z</time>
      </trkpt>
      <trkpt lat="43.40121" lon="6.647">
        <ele>325.6</ele>
        <time>2025-01-19T11:18:25Z</time>
      </trkpt>
      <trkpt lat="43.40122" lon="6.64699">
        <ele>325.5</ele>
        <time>2025-01-19T11:18:26Z</time>
      </trkpt>
      <trkpt lat="43.40123" lon="6.64698">
        <ele>325.5</ele>
        <time>2025-01-19T11:18:27Z</time>
      </trkpt>
      <trkpt lat="43.40124" lon="6.64697">
        <ele>325.5</ele>
        <time>2025-01-19T11:18:28Z</time>
      </trkpt>
      <trkpt lat="43.40124" lon="6.64696">
        <ele>325.4</ele>
        <time>2025-01-19T11:18:29Z</time>
      </trkpt>
      <trkpt lat="43.40125" lon="6.64695">
        <ele>325.4</ele>
        <time>2025-01-19T11:18:30Z</time>
      </trkpt>
      <trkpt lat="43.40126" lon="6.64694">
        <ele>325.4</ele>
        <time>2025-01-19T11:18:31Z</time>
      </trkpt>
      <trkpt lat="43.40127" lon="6.64692">
        <ele>325.4</ele>
        <time>2025-01-19T11:18:32Z</time>
      </trkpt>
      <trkpt lat="43.40127" lon="6.64691">
        <ele>325.4</ele>
        <time>2025-01-19T11:18:33Z</time>
      </trkpt>
      <trkpt lat="43.40128" lon="6.6469">
        <ele>325.5</ele>
        <time>2025-01-19T11:18:34Z</time>
      </trkpt>
      <trkpt lat="43.40128" lon="6.64689">
        <ele>325.5</ele>
        <time>2025-01-19T11:18:35Z</time>
      </trkpt>
      <trkpt lat="43.40129" lon="6.64688">
        <ele>325.6</ele>
        <time>2025-01-19T11:18:36Z</time>
      </trkpt>
      <trkpt lat="43.40129" lon="6.64687">
        <ele>325.6</ele>
        <time>2025-01-19T11:18:37Z</time>
      </trkpt>
      <trkpt lat="43.4013" lon="6.64686">
        <ele>325.7</ele>
        <time>2025-01-19T11:18:38Z</time>
      </trkpt>
      <trkpt lat="43.4013" lon="6.64685">
        <ele>325.7</ele>
        <time>2025-01-19T11:18:39Z</time>
      </trkpt>
      <trkpt lat="43.40131" lon="6.64684">
        <ele>325.6</ele>
        <time>2025-01-19T11:18:40Z</time>
      </trkpt>
      <trkpt lat="43.40132" lon="6.64683">
        <ele>325.5</ele>
        <time>2025-01-19T11:18:41Z</time>
      </trkpt>
      <trkpt lat="43.40133" lon="6.64681">
        <ele>325.5</ele>
        <time>2025-01-19T11:18:42Z</time>
      </trkpt>
      <trkpt lat="43.40134" lon="6.6468">
        <ele>325.3</ele>
        <time>2025-01-19T11:18:43Z</time>
      </trkpt>
      <trkpt lat="43.40135" lon="6.64679">
        <ele>325.2</ele>
        <time>2025-01-19T11:18:44Z</time>
      </trkpt>
      <trkpt lat="43.40137" lon="6.64678">
        <ele>325.2</ele>
        <time>2025-01-19T11:18:45Z</time>
      </trkpt>
      <trkpt lat="43.40138" lon="6.64677">
        <ele>325.1</ele>
        <time>2025-01-19T11:18:46Z</time>
      </trkpt>
      <trkpt lat="43.40138" lon="6.64676">
        <ele>325</ele>
        <time>2025-01-19T11:18:47Z</time>
      </trkpt>
      <trkpt lat="43.40138" lon="6.64674">
        <ele>324.9</ele>
        <time>2025-01-19T11:18:48Z</time>
      </trkpt>
      <trkpt lat="43.4014" lon="6.64673">
        <ele>325</ele>
        <time>2025-01-19T11:18:49Z</time>
      </trkpt>
      <trkpt lat="43.40141" lon="6.64672">
        <ele>325</ele>
        <time>2025-01-19T11:18:50Z</time>
      </trkpt>
      <trkpt lat="43.40142" lon="6.64671">
        <ele>324.9</ele>
        <time>2025-01-19T11:18:51Z</time>
      </trkpt>
      <trkpt lat="43.40142" lon="6.6467">
        <ele>324.9</ele>
        <time>2025-01-19T11:18:52Z</time>
      </trkpt>
      <trkpt lat="43.40143" lon="6.6467">
        <ele>324.9</ele>
        <time>2025-01-19T11:18:53Z</time>
      </trkpt>
      <trkpt lat="43.40143" lon="6.64669">
        <ele>324.9</ele>
        <time>2025-01-19T11:18:54Z</time>
      </trkpt>
      <trkpt lat="43.40145" lon="6.64668">
        <ele>325</ele>
        <time>2025-01-19T11:18:55Z</time>
      </trkpt>
      <trkpt lat="43.40146" lon="6.64667">
        <ele>324.9</ele>
        <time>2025-01-19T11:18:56Z</time>
      </trkpt>
      <trkpt lat="43.40148" lon="6.64666">
        <ele>324.9</ele>
        <time>2025-01-19T11:18:57Z</time>
      </trkpt>
      <trkpt lat="43.40149" lon="6.64666">
        <ele>324.9</ele>
        <time>2025-01-19T11:18:58Z</time>
      </trkpt>
      <trkpt lat="43.4015" lon="6.64665">
        <ele>325.1</ele>
        <time>2025-01-19T11:18:59Z</time>
      </trkpt>
      <trkpt lat="43.40151" lon="6.64664">
        <ele>325.1</ele>
        <time>2025-01-19T11:19:00Z</time>
      </trkpt>
      <trkpt lat="43.40152" lon="6.64664">
        <ele>325.2</ele>
        <time>2025-01-19T11:19:01Z</time>
      </trkpt>
      <trkpt lat="43.40153" lon="6.64663">
        <ele>325.2</ele>
        <time>2025-01-19T11:19:02Z</time>
      </trkpt>
      <trkpt lat="43.40154" lon="6.64663">
        <ele>325.1</ele>
        <time>2025-01-19T11:19:03Z</time>
      </trkpt>
      <trkpt lat="43.40155" lon="6.64662">
        <ele>325</ele>
        <time>2025-01-19T11:19:04Z</time>
      </trkpt>
      <trkpt lat="43.40156" lon="6.64661">
        <ele>325</ele>
        <time>2025-01-19T11:19:05Z</time>
      </trkpt>
      <trkpt lat="43.40157" lon="6.64661">
        <ele>325</ele>
        <time>2025-01-19T11:19:06Z</time>
      </trkpt>
      <trkpt lat="43.40157" lon="6.6466">
        <ele>325.1</ele>
        <time>2025-01-19T11:19:07Z</time>
      </trkpt>
      <trkpt lat="43.40158" lon="6.6466">
        <ele>325.1</ele>
        <time>2025-01-19T11:19:08Z</time>
      </trkpt>
      <trkpt lat="43.40159" lon="6.6466">
        <ele>325.1</ele>
        <time>2025-01-19T11:19:09Z</time>
      </trkpt>
      <trkpt lat="43.4016" lon="6.64659">
        <ele>325.2</ele>
        <time>2025-01-19T11:19:10Z</time>
      </trkpt>
      <trkpt lat="43.40161" lon="6.64658">
        <ele>325.2</ele>
        <time>2025-01-19T11:19:11Z</time>
      </trkpt>
      <trkpt lat="43.40162" lon="6.64658">
        <ele>325.3</ele>
        <time>2025-01-19T11:19:12Z</time>
      </trkpt>
      <trkpt lat="43.40163" lon="6.64657">
        <ele>325.4</ele>
        <time>2025-01-19T11:19:13Z</time>
      </trkpt>
      <trkpt lat="43.40164" lon="6.64657">
        <ele>325.5</ele>
        <time>2025-01-19T11:19:14Z</time>
      </trkpt>
      <trkpt lat="43.40165" lon="6.64657">
        <ele>325.6</ele>
        <time>2025-01-19T11:19:15Z</time>
      </trkpt>
      <trkpt lat="43.40166" lon="6.64657">
        <ele>325.7</ele>
        <time>2025-01-19T11:19:16Z</time>
      </trkpt>
      <trkpt lat="43.40167" lon="6.64656">
        <ele>325.8</ele>
        <time>2025-01-19T11:19:17Z</time>
      </trkpt>
      <trkpt lat="43.40168" lon="6.64655">
        <ele>325.9</ele>
        <time>2025-01-19T11:19:18Z</time>
      </trkpt>
      <trkpt lat="43.40169" lon="6.64655">
        <ele>326.2</ele>
        <time>2025-01-19T11:19:19Z</time>
      </trkpt>
      <trkpt lat="43.4017" lon="6.64655">
        <ele>326.2</ele>
        <time>2025-01-19T11:19:20Z</time>
      </trkpt>
      <trkpt lat="43.40171" lon="6.64654">
        <ele>326.3</ele>
        <time>2025-01-19T11:19:21Z</time>
      </trkpt>
      <trkpt lat="43.40172" lon="6.64654">
        <ele>326.5</ele>
        <time>2025-01-19T11:19:22Z</time>
      </trkpt>
      <trkpt lat="43.40173" lon="6.64654">
        <ele>326.6</ele>
        <time>2025-01-19T11:19:23Z</time>
      </trkpt>
      <trkpt lat="43.40174" lon="6.64654">
        <ele>326.7</ele>
        <time>2025-01-19T11:19:24Z</time>
      </trkpt>
      <trkpt lat="43.40175" lon="6.64653">
        <ele>326.8</ele>
        <time>2025-01-19T11:19:25Z</time>
      </trkpt>
      <trkpt lat="43.40176" lon="6.64653">
        <ele>326.8</ele>
        <time>2025-01-19T11:19:26Z</time>
      </trkpt>
      <trkpt lat="43.40177" lon="6.64653">
        <ele>326.9</ele>
        <time>2025-01-19T11:19:27Z</time>
      </trkpt>
      <trkpt lat="43.40178" lon="6.64652">
        <ele>326.9</ele>
        <time>2025-01-19T11:19:28Z</time>
      </trkpt>
      <trkpt lat="43.40179" lon="6.64652">
        <ele>327</ele>
        <time>2025-01-19T11:19:29Z</time>
      </trkpt>
      <trkpt lat="43.40181" lon="6.64652">
        <ele>327</ele>
        <time>2025-01-19T11:19:30Z</time>
      </trkpt>
      <trkpt lat="43.40182" lon="6.64651">
        <ele>327</ele>
        <time>2025-01-19T11:19:31Z</time>
      </trkpt>
      <trkpt lat="43.40183" lon="6.64651">
        <ele>326.9</ele>
        <time>2025-01-19T11:19:32Z</time>
      </trkpt>
      <trkpt lat="43.40184" lon="6.64652">
        <ele>326.9</ele>
        <time>2025-01-19T11:19:33Z</time>
      </trkpt>
      <trkpt lat="43.40185" lon="6.64652">
        <ele>326.9</ele>
        <time>2025-01-19T11:19:34Z</time>
      </trkpt>
      <trkpt lat="43.40186" lon="6.64653">
        <ele>326.8</ele>
        <time>2025-01-19T11:19:35Z</time>
      </trkpt>
      <trkpt lat="43.40187" lon="6.64653">
        <ele>326.8</ele>
        <time>2025-01-19T11:19:36Z</time>
      </trkpt>
      <trkpt lat="43.40189" lon="6.64653">
        <ele>326.6</ele>
        <time>2025-01-19T11:19:37Z</time>
      </trkpt>
      <trkpt lat="43.4019" lon="6.64653">
        <ele>326.6</ele>
        <time>2025-01-19T11:19:38Z</time>
      </trkpt>
      <trkpt lat="43.40191" lon="6.64653">
        <ele>326.6</ele>
        <time>2025-01-19T11:19:39Z</time>
      </trkpt>
      <trkpt lat="43.40192" lon="6.64653">
        <ele>326.5</ele>
        <time>2025-01-19T11:19:40Z</time>
      </trkpt>
      <trkpt lat="43.40194" lon="6.64653">
        <ele>326.4</ele>
        <time>2025-01-19T11:19:41Z</time>
      </trkpt>
      <trkpt lat="43.40195" lon="6.64653">
        <ele>326.3</ele>
        <time>2025-01-19T11:19:42Z</time>
      </trkpt>
      <trkpt lat="43.40196" lon="6.64653">
        <ele>326.3</ele>
        <time>2025-01-19T11:19:43Z</time>
      </trkpt>
      <trkpt lat="43.40197" lon="6.64653">
        <ele>326.3</ele>
        <time>2025-01-19T11:19:44Z</time>
      </trkpt>
      <trkpt lat="43.40198" lon="6.64653">
        <ele>326.2</ele>
        <time>2025-01-19T11:19:45Z</time>
      </trkpt>
      <trkpt lat="43.402" lon="6.64654">
        <ele>326.3</ele>
        <time>2025-01-19T11:19:46Z</time>
      </trkpt>
      <trkpt lat="43.40201" lon="6.64653">
        <ele>326.3</ele>
        <time>2025-01-19T11:19:47Z</time>
      </trkpt>
      <trkpt lat="43.40202" lon="6.64653">
        <ele>326.3</ele>
        <time>2025-01-19T11:19:48Z</time>
      </trkpt>
      <trkpt lat="43.40203" lon="6.64653">
        <ele>326.2</ele>
        <time>2025-01-19T11:19:49Z</time>
      </trkpt>
      <trkpt lat="43.40204" lon="6.64653">
        <ele>326.2</ele>
        <time>2025-01-19T11:19:50Z</time>
      </trkpt>
      <trkpt lat="43.40205" lon="6.64653">
        <ele>326.2</ele>
        <time>2025-01-19T11:19:51Z</time>
      </trkpt>
      <trkpt lat="43.40206" lon="6.64653">
        <ele>326.2</ele>
        <time>2025-01-19T11:19:52Z</time>
      </trkpt>
      <trkpt lat="43.40207" lon="6.64653">
        <ele>326.1</ele>
        <time>2025-01-19T11:19:53Z</time>
      </trkpt>
      <trkpt lat="43.40208" lon="6.64653">
        <ele>326.1</ele>
        <time>2025-01-19T11:19:54Z</time>
      </trkpt>
      <trkpt lat="43.40209" lon="6.64653">
        <ele>326.1</ele>
        <time>2025-01-19T11:19:55Z</time>
      </trkpt>
      <trkpt lat="43.40211" lon="6.64654">
        <ele>326</ele>
        <time>2025-01-19T11:19:56Z</time>
      </trkpt>
      <trkpt lat="43.40212" lon="6.64654">
        <ele>326</ele>
        <time>2025-01-19T11:19:57Z</time>
      </trkpt>
      <trkpt lat="43.40213" lon="6.64654">
        <ele>326</ele>
        <time>2025-01-19T11:19:58Z</time>
      </trkpt>
      <trkpt lat="43.40214" lon="6.64654">
        <ele>325.9</ele>
        <time>2025-01-19T11:19:59Z</time>
      </trkpt>
      <trkpt lat="43.40215" lon="6.64654">
        <ele>326</ele>
        <time>2025-01-19T11:20:00Z</time>
      </trkpt>
      <trkpt lat="43.40216" lon="6.64654">
        <ele>326</ele>
        <time>2025-01-19T11:20:01Z</time>
      </trkpt>
      <trkpt lat="43.40217" lon="6.64654">
        <ele>325.9</ele>
        <time>2025-01-19T11:20:02Z</time>
      </trkpt>
      <trkpt lat="43.40219" lon="6.64653">
        <ele>325.9</ele>
        <time>2025-01-19T11:20:03Z</time>
      </trkpt>
      <trkpt lat="43.4022" lon="6.64653">
        <ele>325.9</ele>
        <time>2025-01-19T11:20:04Z</time>
      </trkpt>
      <trkpt lat="43.40221" lon="6.64653">
        <ele>325.9</ele>
        <time>2025-01-19T11:20:05Z</time>
      </trkpt>
      <trkpt lat="43.40222" lon="6.64653">
        <ele>325.9</ele>
        <time>2025-01-19T11:20:06Z</time>
      </trkpt>
      <trkpt lat="43.40223" lon="6.64653">
        <ele>325.9</ele>
        <time>2025-01-19T11:20:07Z</time>
      </trkpt>
      <trkpt lat="43.40224" lon="6.64653">
        <ele>326</ele>
        <time>2025-01-19T11:20:08Z</time>
      </trkpt>
      <trkpt lat="43.40226" lon="6.64653">
        <ele>326</ele>
        <time>2025-01-19T11:20:09Z</time>
      </trkpt>
      <trkpt lat="43.40227" lon="6.64653">
        <ele>326.1</ele>
        <time>2025-01-19T11:20:10Z</time>
      </trkpt>
      <trkpt lat="43.40227" lon="6.64653">
        <ele>326.1</ele>
        <time>2025-01-19T11:20:11Z</time>
      </trkpt>
      <trkpt lat="43.40228" lon="6.64654">
        <ele>326.1</ele>
        <time>2025-01-19T11:20:12Z</time>
      </trkpt>
      <trkpt lat="43.4023" lon="6.64654">
        <ele>326.1</ele>
        <time>2025-01-19T11:20:13Z</time>
      </trkpt>
      <trkpt lat="43.40231" lon="6.64654">
        <ele>326.1</ele>
        <time>2025-01-19T11:20:14Z</time>
      </trkpt>
      <trkpt lat="43.40232" lon="6.64654">
        <ele>326.1</ele>
        <time>2025-01-19T11:20:15Z</time>
      </trkpt>
      <trkpt lat="43.40234" lon="6.64654">
        <ele>326.1</ele>
        <time>2025-01-19T11:20:16Z</time>
      </trkpt>
      <trkpt lat="43.40235" lon="6.64654">
        <ele>326.1</ele>
        <time>2025-01-19T11:20:17Z</time>
      </trkpt>
      <trkpt lat="43.40236" lon="6.64654">
        <ele>326</ele>
        <time>2025-01-19T11:20:18Z</time>
      </trkpt>
      <trkpt lat="43.40237" lon="6.64654">
        <ele>325.9</ele>
        <time>2025-01-19T11:20:19Z</time>
      </trkpt>
      <trkpt lat="43.40238" lon="6.64654">
        <ele>325.9</ele>
        <time>2025-01-19T11:20:20Z</time>
      </trkpt>
      <trkpt lat="43.40239" lon="6.64654">
        <ele>325.8</ele>
        <time>2025-01-19T11:20:21Z</time>
      </trkpt>
      <trkpt lat="43.4024" lon="6.64654">
        <ele>325.6</ele>
        <time>2025-01-19T11:20:22Z</time>
      </trkpt>
      <trkpt lat="43.40241" lon="6.64655">
        <ele>325.5</ele>
        <time>2025-01-19T11:20:23Z</time>
      </trkpt>
      <trkpt lat="43.40242" lon="6.64655">
        <ele>325.5</ele>
        <time>2025-01-19T11:20:24Z</time>
      </trkpt>
      <trkpt lat="43.40243" lon="6.64655">
        <ele>325.4</ele>
        <time>2025-01-19T11:20:25Z</time>
      </trkpt>
      <trkpt lat="43.40244" lon="6.64656">
        <ele>325.4</ele>
        <time>2025-01-19T11:20:26Z</time>
      </trkpt>
      <trkpt lat="43.40245" lon="6.64656">
        <ele>325.4</ele>
        <time>2025-01-19T11:20:27Z</time>
      </trkpt>
      <trkpt lat="43.40246" lon="6.64656">
        <ele>325.4</ele>
        <time>2025-01-19T11:20:28Z</time>
      </trkpt>
      <trkpt lat="43.40247" lon="6.64656">
        <ele>325.5</ele>
        <time>2025-01-19T11:20:29Z</time>
      </trkpt>
      <trkpt lat="43.40248" lon="6.64656">
        <ele>325.5</ele>
        <time>2025-01-19T11:20:30Z</time>
      </trkpt>
      <trkpt lat="43.40249" lon="6.64656">
        <ele>325.5</ele>
        <time>2025-01-19T11:20:31Z</time>
      </trkpt>
      <trkpt lat="43.40251" lon="6.64657">
        <ele>325.5</ele>
        <time>2025-01-19T11:20:32Z</time>
      </trkpt>
      <trkpt lat="43.40252" lon="6.64657">
        <ele>325.5</ele>
        <time>2025-01-19T11:20:33Z</time>
      </trkpt>
      <trkpt lat="43.40253" lon="6.64657">
        <ele>325.6</ele>
        <time>2025-01-19T11:20:34Z</time>
      </trkpt>
      <trkpt lat="43.40254" lon="6.64658">
        <ele>325.6</ele>
        <time>2025-01-19T11:20:35Z</time>
      </trkpt>
      <trkpt lat="43.40255" lon="6.64659">
        <ele>325.7</ele>
        <time>2025-01-19T11:20:36Z</time>
      </trkpt>
      <trkpt lat="43.40255" lon="6.64658">
        <ele>325.8</ele>
        <time>2025-01-19T11:20:37Z</time>
      </trkpt>
      <trkpt lat="43.40255" lon="6.64658">
        <ele>325.9</ele>
        <time>2025-01-19T11:20:38Z</time>
      </trkpt>
      <trkpt lat="43.40255" lon="6.64658">
        <ele>325.9</ele>
        <time>2025-01-19T11:20:39Z</time>
      </trkpt>
      <trkpt lat="43.40255" lon="6.64658">
        <ele>326</ele>
        <time>2025-01-19T11:20:40Z</time>
      </trkpt>
      <trkpt lat="43.40255" lon="6.64658">
        <ele>326</ele>
        <time>2025-01-19T11:20:41Z</time>
      </trkpt>
      <trkpt lat="43.40255" lon="6.64658">
        <ele>326.1</ele>
        <time>2025-01-19T11:20:42Z</time>
      </trkpt>
      <trkpt lat="43.40255" lon="6.64658">
        <ele>326.1</ele>
        <time>2025-01-19T11:20:43Z</time>
      </trkpt>
      <trkpt lat="43.40255" lon="6.64658">
        <ele>326.1</ele>
        <time>2025-01-19T11:20:44Z</time>
      </trkpt>
      <trkpt lat="43.40255" lon="6.64658">
        <ele>326.2</ele>
        <time>2025-01-19T11:20:45Z</time>
      </trkpt>
      <trkpt lat="43.40255" lon="6.64658">
        <ele>326.2</ele>
        <time>2025-01-19T11:20:46Z</time>
      </trkpt>
      <trkpt lat="43.40255" lon="6.64658">
        <ele>326.1</ele>
        <time>2025-01-19T11:20:47Z</time>
      </trkpt>
      <trkpt lat="43.40256" lon="6.64658">
        <ele>326.1</ele>
        <time>2025-01-19T11:20:48Z</time>
      </trkpt>
      <trkpt lat="43.40257" lon="6.64658">
        <ele>326.2</ele>
        <time>2025-01-19T11:20:49Z</time>
      </trkpt>
      <trkpt lat="43.40258" lon="6.64658">
        <ele>326.2</ele>
        <time>2025-01-19T11:20:50Z</time>
      </trkpt>
      <trkpt lat="43.40259" lon="6.64659">
        <ele>326.2</ele>
        <time>2025-01-19T11:20:51Z</time>
      </trkpt>
      <trkpt lat="43.4026" lon="6.6466">
        <ele>326.1</ele>
        <time>2025-01-19T11:20:52Z</time>
      </trkpt>
      <trkpt lat="43.40261" lon="6.64661">
        <ele>326.1</ele>
        <time>2025-01-19T11:20:53Z</time>
      </trkpt>
      <trkpt lat="43.40262" lon="6.64661">
        <ele>326</ele>
        <time>2025-01-19T11:20:54Z</time>
      </trkpt>
      <trkpt lat="43.40263" lon="6.64662">
        <ele>326</ele>
        <time>2025-01-19T11:20:55Z</time>
      </trkpt>
      <trkpt lat="43.40264" lon="6.64662">
        <ele>325.9</ele>
        <time>2025-01-19T11:20:56Z</time>
      </trkpt>
      <trkpt lat="43.40264" lon="6.64663">
        <ele>325.9</ele>
        <time>2025-01-19T11:20:57Z</time>
      </trkpt>
      <trkpt lat="43.40265" lon="6.64663">
        <ele>325.8</ele>
        <time>2025-01-19T11:20:58Z</time>
      </trkpt>
      <trkpt lat="43.40266" lon="6.64663">
        <ele>325.8</ele>
        <time>2025-01-19T11:20:59Z</time>
      </trkpt>
      <trkpt lat="43.40266" lon="6.64664">
        <ele>325.8</ele>
        <time>2025-01-19T11:21:00Z</time>
      </trkpt>
      <trkpt lat="43.40266" lon="6.64663">
        <ele>325.7</ele>
        <time>2025-01-19T11:21:01Z</time>
      </trkpt>
      <trkpt lat="43.40266" lon="6.64663">
        <ele>325.6</ele>
        <time>2025-01-19T11:21:02Z</time>
      </trkpt>
      <trkpt lat="43.40266" lon="6.64663">
        <ele>325.5</ele>
        <time>2025-01-19T11:21:03Z</time>
      </trkpt>
      <trkpt lat="43.40266" lon="6.64663">
        <ele>325.4</ele>
        <time>2025-01-19T11:21:04Z</time>
      </trkpt>
      <trkpt lat="43.40266" lon="6.64664">
        <ele>325.4</ele>
        <time>2025-01-19T11:21:05Z</time>
      </trkpt>
      <trkpt lat="43.40266" lon="6.64664">
        <ele>325.4</ele>
        <time>2025-01-19T11:21:06Z</time>
      </trkpt>
      <trkpt lat="43.40266" lon="6.64664">
        <ele>325.4</ele>
        <time>2025-01-19T11:21:07Z</time>
      </trkpt>
      <trkpt lat="43.40266" lon="6.64664">
        <ele>325.4</ele>
        <time>2025-01-19T11:21:08Z</time>
      </trkpt>
      <trkpt lat="43.40266" lon="6.64664">
        <ele>325.4</ele>
        <time>2025-01-19T11:21:09Z</time>
      </trkpt>
      <trkpt lat="43.40266" lon="6.64664">
        <ele>325.5</ele>
        <time>2025-01-19T11:21:10Z</time>
      </trkpt>
      <trkpt lat="43.40266" lon="6.64664">
        <ele>325.4</ele>
        <time>2025-01-19T11:21:11Z</time>
      </trkpt>
      <trkpt lat="43.40266" lon="6.64664">
        <ele>325.5</ele>
        <time>2025-01-19T11:21:12Z</time>
      </trkpt>
      <trkpt lat="43.40266" lon="6.64664">
        <ele>325.5</ele>
        <time>2025-01-19T11:21:13Z</time>
      </trkpt>
      <trkpt lat="43.40266" lon="6.64664">
        <ele>325.5</ele>
        <time>2025-01-19T11:21:14Z</time>
      </trkpt>
      <trkpt lat="43.40266" lon="6.64664">
        <ele>325.5</ele>
        <time>2025-01-19T11:21:15Z</time>
      </trkpt>
      <trkpt lat="43.40266" lon="6.64664">
        <ele>325.5</ele>
        <time>2025-01-19T11:21:16Z</time>
      </trkpt>
      <trkpt lat="43.40266" lon="6.64664">
        <ele>325.3</ele>
        <time>2025-01-19T11:21:17Z</time>
      </trkpt>
      <trkpt lat="43.40266" lon="6.64664">
        <ele>325.3</ele>
        <time>2025-01-19T11:21:18Z</time>
      </trkpt>
      <trkpt lat="43.40266" lon="6.64665">
        <ele>325.4</ele>
        <time>2025-01-19T11:21:19Z</time>
      </trkpt>
      <trkpt lat="43.40266" lon="6.64665">
        <ele>325.4</ele>
        <time>2025-01-19T11:21:20Z</time>
      </trkpt>
      <trkpt lat="43.40266" lon="6.64665">
        <ele>325.4</ele>
        <time>2025-01-19T11:21:21Z</time>
      </trkpt>
      <trkpt lat="43.40266" lon="6.64665">
        <ele>325.4</ele>
        <time>2025-01-19T11:21:22Z</time>
      </trkpt>
      <trkpt lat="43.40266" lon="6.64665">
        <ele>325.4</ele>
        <time>2025-01-19T11:21:23Z</time>
      </trkpt>
      <trkpt lat="43.40266" lon="6.64665">
        <ele>325.4</ele>
        <time>2025-01-19T11:21:24Z</time>
      </trkpt>
      <trkpt lat="43.40266" lon="6.64665">
        <ele>325.4</ele>
        <time>2025-01-19T11:21:25Z</time>
      </trkpt>
      <trkpt lat="43.40267" lon="6.64665">
        <ele>325.4</ele>
        <time>2025-01-19T11:21:26Z</time>
      </trkpt>
      <trkpt lat="43.40267" lon="6.64665">
        <ele>325.3</ele>
        <time>2025-01-19T11:21:27Z</time>
      </trkpt>
      <trkpt lat="43.40266" lon="6.64665">
        <ele>325.4</ele>
        <time>2025-01-19T11:21:28Z</time>
      </trkpt>
      <trkpt lat="43.40267" lon="6.64665">
        <ele>325.4</ele>
        <time>2025-01-19T11:21:29Z</time>
      </trkpt>
      <trkpt lat="43.40267" lon="6.64665">
        <ele>325.5</ele>
        <time>2025-01-19T11:21:30Z</time>
      </trkpt>
      <trkpt lat="43.40267" lon="6.64665">
        <ele>325.5</ele>
        <time>2025-01-19T11:21:31Z</time>
      </trkpt>
      <trkpt lat="43.40267" lon="6.64665">
        <ele>325.4</ele>
        <time>2025-01-19T11:21:32Z</time>
      </trkpt>
      <trkpt lat="43.40267" lon="6.64665">
        <ele>325.3</ele>
        <time>2025-01-19T11:21:33Z</time>
      </trkpt>
      <trkpt lat="43.40267" lon="6.64665">
        <ele>325.3</ele>
        <time>2025-01-19T11:21:34Z</time>
      </trkpt>
      <trkpt lat="43.40267" lon="6.64665">
        <ele>325.3</ele>
        <time>2025-01-19T11:21:35Z</time>
      </trkpt>
      <trkpt lat="43.40267" lon="6.64665">
        <ele>325.4</ele>
        <time>2025-01-19T11:21:36Z</time>
      </trkpt>
      <trkpt lat="43.40267" lon="6.64665">
        <ele>325.4</ele>
        <time>2025-01-19T11:21:37Z</time>
      </trkpt>
      <trkpt lat="43.40267" lon="6.64665">
        <ele>325.4</ele>
        <time>2025-01-19T11:21:38Z</time>
      </trkpt>
      <trkpt lat="43.40267" lon="6.64665">
        <ele>325.4</ele>
        <time>2025-01-19T11:21:39Z</time>
      </trkpt>
      <trkpt lat="43.40267" lon="6.64665">
        <ele>325.3</ele>
        <time>2025-01-19T11:21:40Z</time>
      </trkpt>
      <trkpt lat="43.40267" lon="6.64665">
        <ele>325.2</ele>
        <time>2025-01-19T11:21:41Z</time>
      </trkpt>
      <trkpt lat="43.40267" lon="6.64665">
        <ele>325.2</ele>
        <time>2025-01-19T11:21:42Z</time>
      </trkpt>
      <trkpt lat="43.40267" lon="6.64665">
        <ele>325.2</ele>
        <time>2025-01-19T11:21:43Z</time>
      </trkpt>
      <trkpt lat="43.40267" lon="6.64665">
        <ele>325.2</ele>
        <time>2025-01-19T11:21:44Z</time>
      </trkpt>
      <trkpt lat="43.40267" lon="6.64664">
        <ele>325.2</ele>
        <time>2025-01-19T11:21:45Z</time>
      </trkpt>
      <trkpt lat="43.40267" lon="6.64664">
        <ele>325.2</ele>
        <time>2025-01-19T11:21:46Z</time>
      </trkpt>
      <trkpt lat="43.40267" lon="6.64664">
        <ele>325.2</ele>
        <time>2025-01-19T11:21:47Z</time>
      </trkpt>
      <trkpt lat="43.40267" lon="6.64664">
        <ele>325.2</ele>
        <time>2025-01-19T11:21:48Z</time>
      </trkpt>
      <trkpt lat="43.40267" lon="6.64664">
        <ele>325.3</ele>
        <time>2025-01-19T11:21:49Z</time>
      </trkpt>
      <trkpt lat="43.40267" lon="6.64664">
        <ele>325.3</ele>
        <time>2025-01-19T11:21:50Z</time>
      </trkpt>
      <trkpt lat="43.40267" lon="6.64664">
        <ele>325.2</ele>
        <time>2025-01-19T11:21:51Z</time>
      </trkpt>
      <trkpt lat="43.40267" lon="6.64664">
        <ele>325.2</ele>
        <time>2025-01-19T11:21:52Z</time>
      </trkpt>
      <trkpt lat="43.40267" lon="6.64664">
        <ele>325.3</ele>
        <time>2025-01-19T11:21:53Z</time>
      </trkpt>
      <trkpt lat="43.40267" lon="6.64663">
        <ele>325.3</ele>
        <time>2025-01-19T11:21:54Z</time>
      </trkpt>
      <trkpt lat="43.40267" lon="6.64663">
        <ele>325.3</ele>
        <time>2025-01-19T11:21:55Z</time>
      </trkpt>
      <trkpt lat="43.40267" lon="6.64663">
        <ele>325.4</ele>
        <time>2025-01-19T11:21:56Z</time>
      </trkpt>
      <trkpt lat="43.40267" lon="6.64663">
        <ele>325.5</ele>
        <time>2025-01-19T11:21:57Z</time>
      </trkpt>
      <trkpt lat="43.40267" lon="6.64663">
        <ele>325.5</ele>
        <time>2025-01-19T11:21:58Z</time>
      </trkpt>
      <trkpt lat="43.40267" lon="6.64663">
        <ele>325.5</ele>
        <time>2025-01-19T11:21:59Z</time>
      </trkpt>
      <trkpt lat="43.40267" lon="6.64663">
        <ele>325.6</ele>
        <time>2025-01-19T11:22:00Z</time>
      </trkpt>
      <trkpt lat="43.40267" lon="6.64663">
        <ele>325.5</ele>
        <time>2025-01-19T11:22:01Z</time>
      </trkpt>
      <trkpt lat="43.40267" lon="6.64663">
        <ele>325.6</ele>
        <time>2025-01-19T11:22:02Z</time>
      </trkpt>
      <trkpt lat="43.40267" lon="6.64662">
        <ele>325.6</ele>
        <time>2025-01-19T11:22:03Z</time>
      </trkpt>
      <trkpt lat="43.40268" lon="6.64662">
        <ele>325.6</ele>
        <time>2025-01-19T11:22:04Z</time>
      </trkpt>
      <trkpt lat="43.40268" lon="6.64662">
        <ele>325.6</ele>
        <time>2025-01-19T11:22:05Z</time>
      </trkpt>
      <trkpt lat="43.40268" lon="6.64662">
        <ele>325.6</ele>
        <time>2025-01-19T11:22:06Z</time>
      </trkpt>
      <trkpt lat="43.40268" lon="6.64662">
        <ele>325.5</ele>
        <time>2025-01-19T11:22:07Z</time>
      </trkpt>
      <trkpt lat="43.40268" lon="6.64662">
        <ele>325.5</ele>
        <time>2025-01-19T11:22:08Z</time>
      </trkpt>
      <trkpt lat="43.40268" lon="6.64661">
        <ele>325.5</ele>
        <time>2025-01-19T11:22:09Z</time>
      </trkpt>
      <trkpt lat="43.40269" lon="6.64661">
        <ele>325.5</ele>
        <time>2025-01-19T11:22:10Z</time>
      </trkpt>
      <trkpt lat="43.40269" lon="6.64661">
        <ele>325.5</ele>
        <time>2025-01-19T11:22:11Z</time>
      </trkpt>
      <trkpt lat="43.40269" lon="6.64661">
        <ele>325.6</ele>
        <time>2025-01-19T11:22:12Z</time>
      </trkpt>
      <trkpt lat="43.40269" lon="6.64661">
        <ele>325.6</ele>
        <time>2025-01-19T11:22:13Z</time>
      </trkpt>
      <trkpt lat="43.40269" lon="6.64661">
        <ele>325.6</ele>
        <time>2025-01-19T11:22:14Z</time>
      </trkpt>
      <trkpt lat="43.4027" lon="6.64661">
        <ele>325.6</ele>
        <time>2025-01-19T11:22:15Z</time>
      </trkpt>
      <trkpt lat="43.4027" lon="6.64661">
        <ele>325.6</ele>
        <time>2025-01-19T11:22:16Z</time>
      </trkpt>
      <trkpt lat="43.4027" lon="6.64661">
        <ele>325.6</ele>
        <time>2025-01-19T11:22:17Z</time>
      </trkpt>
      <trkpt lat="43.4027" lon="6.64661">
        <ele>325.6</ele>
        <time>2025-01-19T11:22:18Z</time>
      </trkpt>
      <trkpt lat="43.40271" lon="6.64661">
        <ele>325.6</ele>
        <time>2025-01-19T11:22:19Z</time>
      </trkpt>
      <trkpt lat="43.40271" lon="6.64661">
        <ele>325.6</ele>
        <time>2025-01-19T11:22:20Z</time>
      </trkpt>
      <trkpt lat="43.40271" lon="6.64661">
        <ele>325.6</ele>
        <time>2025-01-19T11:22:21Z</time>
      </trkpt>
      <trkpt lat="43.40272" lon="6.64661">
        <ele>325.6</ele>
        <time>2025-01-19T11:22:22Z</time>
      </trkpt>
      <trkpt lat="43.40272" lon="6.64661">
        <ele>325.6</ele>
        <time>2025-01-19T11:22:23Z</time>
      </trkpt>
      <trkpt lat="43.40273" lon="6.64662">
        <ele>325.5</ele>
        <time>2025-01-19T11:22:24Z</time>
      </trkpt>
      <trkpt lat="43.40274" lon="6.64662">
        <ele>325.4</ele>
        <time>2025-01-19T11:22:25Z</time>
      </trkpt>
      <trkpt lat="43.40275" lon="6.64663">
        <ele>325.4</ele>
        <time>2025-01-19T11:22:26Z</time>
      </trkpt>
      <trkpt lat="43.40275" lon="6.64663">
        <ele>325.3</ele>
        <time>2025-01-19T11:22:27Z</time>
      </trkpt>
      <trkpt lat="43.40276" lon="6.64663">
        <ele>325.3</ele>
        <time>2025-01-19T11:22:28Z</time>
      </trkpt>
      <trkpt lat="43.40277" lon="6.64663">
        <ele>325.2</ele>
        <time>2025-01-19T11:22:29Z</time>
      </trkpt>
      <trkpt lat="43.40278" lon="6.64664">
        <ele>325</ele>
        <time>2025-01-19T11:22:30Z</time>
      </trkpt>
      <trkpt lat="43.40278" lon="6.64664">
        <ele>324.9</ele>
        <time>2025-01-19T11:22:31Z</time>
      </trkpt>
      <trkpt lat="43.40279" lon="6.64664">
        <ele>324.8</ele>
        <time>2025-01-19T11:22:32Z</time>
      </trkpt>
      <trkpt lat="43.4028" lon="6.64665">
        <ele>324.6</ele>
        <time>2025-01-19T11:22:33Z</time>
      </trkpt>
      <trkpt lat="43.4028" lon="6.64666">
        <ele>324.5</ele>
        <time>2025-01-19T11:22:34Z</time>
      </trkpt>
      <trkpt lat="43.40281" lon="6.64666">
        <ele>324.4</ele>
        <time>2025-01-19T11:22:35Z</time>
      </trkpt>
      <trkpt lat="43.40281" lon="6.64667">
        <ele>324.2</ele>
        <time>2025-01-19T11:22:36Z</time>
      </trkpt>
      <trkpt lat="43.40282" lon="6.64666">
        <ele>324.1</ele>
        <time>2025-01-19T11:22:37Z</time>
      </trkpt>
      <trkpt lat="43.40283" lon="6.64667">
        <ele>323.9</ele>
        <time>2025-01-19T11:22:38Z</time>
      </trkpt>
      <trkpt lat="43.40284" lon="6.64667">
        <ele>323.9</ele>
        <time>2025-01-19T11:22:39Z</time>
      </trkpt>
      <trkpt lat="43.40284" lon="6.64668">
        <ele>323.7</ele>
        <time>2025-01-19T11:22:40Z</time>
      </trkpt>
      <trkpt lat="43.40285" lon="6.64668">
        <ele>323.6</ele>
        <time>2025-01-19T11:22:41Z</time>
      </trkpt>
      <trkpt lat="43.40286" lon="6.64669">
        <ele>323.5</ele>
        <time>2025-01-19T11:22:42Z</time>
      </trkpt>
      <trkpt lat="43.40287" lon="6.6467">
        <ele>323.4</ele>
        <time>2025-01-19T11:22:43Z</time>
      </trkpt>
      <trkpt lat="43.40287" lon="6.6467">
        <ele>323.3</ele>
        <time>2025-01-19T11:22:44Z</time>
      </trkpt>
      <trkpt lat="43.40288" lon="6.6467">
        <ele>323.1</ele>
        <time>2025-01-19T11:22:45Z</time>
      </trkpt>
      <trkpt lat="43.40289" lon="6.64671">
        <ele>322.9</ele>
        <time>2025-01-19T11:22:46Z</time>
      </trkpt>
      <trkpt lat="43.4029" lon="6.64671">
        <ele>322.8</ele>
        <time>2025-01-19T11:22:47Z</time>
      </trkpt>
      <trkpt lat="43.40291" lon="6.64672">
        <ele>322.6</ele>
        <time>2025-01-19T11:22:48Z</time>
      </trkpt>
      <trkpt lat="43.40292" lon="6.64672">
        <ele>322.6</ele>
        <time>2025-01-19T11:22:49Z</time>
      </trkpt>
      <trkpt lat="43.40293" lon="6.64673">
        <ele>322.5</ele>
        <time>2025-01-19T11:22:50Z</time>
      </trkpt>
      <trkpt lat="43.40294" lon="6.64673">
        <ele>322.5</ele>
        <time>2025-01-19T11:22:51Z</time>
      </trkpt>
      <trkpt lat="43.40294" lon="6.64673">
        <ele>322.5</ele>
        <time>2025-01-19T11:22:52Z</time>
      </trkpt>
      <trkpt lat="43.40295" lon="6.64674">
        <ele>322.4</ele>
        <time>2025-01-19T11:22:53Z</time>
      </trkpt>
      <trkpt lat="43.40296" lon="6.64674">
        <ele>322.4</ele>
        <time>2025-01-19T11:22:54Z</time>
      </trkpt>
      <trkpt lat="43.40297" lon="6.64675">
        <ele>322.3</ele>
        <time>2025-01-19T11:22:55Z</time>
      </trkpt>
      <trkpt lat="43.40297" lon="6.64675">
        <ele>322.2</ele>
        <time>2025-01-19T11:22:56Z</time>
      </trkpt>
      <trkpt lat="43.40298" lon="6.64675">
        <ele>322.1</ele>
        <time>2025-01-19T11:22:57Z</time>
      </trkpt>
      <trkpt lat="43.40299" lon="6.64675">
        <ele>322.1</ele>
        <time>2025-01-19T11:22:58Z</time>
      </trkpt>
      <trkpt lat="43.40299" lon="6.64675">
        <ele>321.9</ele>
        <time>2025-01-19T11:22:59Z</time>
      </trkpt>
      <trkpt lat="43.403" lon="6.64675">
        <ele>321.7</ele>
        <time>2025-01-19T11:23:00Z</time>
      </trkpt>
      <trkpt lat="43.40301" lon="6.64676">
        <ele>321.6</ele>
        <time>2025-01-19T11:23:01Z</time>
      </trkpt>
      <trkpt lat="43.40302" lon="6.64676">
        <ele>321.4</ele>
        <time>2025-01-19T11:23:02Z</time>
      </trkpt>
      <trkpt lat="43.40303" lon="6.64676">
        <ele>321.3</ele>
        <time>2025-01-19T11:23:03Z</time>
      </trkpt>
      <trkpt lat="43.40304" lon="6.64676">
        <ele>321.2</ele>
        <time>2025-01-19T11:23:04Z</time>
      </trkpt>
      <trkpt lat="43.40305" lon="6.64677">
        <ele>321.1</ele>
        <time>2025-01-19T11:23:05Z</time>
      </trkpt>
      <trkpt lat="43.40305" lon="6.64677">
        <ele>320.9</ele>
        <time>2025-01-19T11:23:06Z</time>
      </trkpt>
      <trkpt lat="43.40306" lon="6.64677">
        <ele>320.8</ele>
        <time>2025-01-19T11:23:07Z</time>
      </trkpt>
      <trkpt lat="43.40306" lon="6.64677">
        <ele>320.6</ele>
        <time>2025-01-19T11:23:08Z</time>
      </trkpt>
      <trkpt lat="43.40307" lon="6.64677">
        <ele>320.4</ele>
        <time>2025-01-19T11:23:09Z</time>
      </trkpt>
      <trkpt lat="43.40308" lon="6.64678">
        <ele>320.3</ele>
        <time>2025-01-19T11:23:10Z</time>
      </trkpt>
      <trkpt lat="43.40309" lon="6.64678">
        <ele>320</ele>
        <time>2025-01-19T11:23:11Z</time>
      </trkpt>
      <trkpt lat="43.4031" lon="6.64678">
        <ele>319.9</ele>
        <time>2025-01-19T11:23:12Z</time>
      </trkpt>
      <trkpt lat="43.40311" lon="6.64678">
        <ele>319.7</ele>
        <time>2025-01-19T11:23:13Z</time>
      </trkpt>
      <trkpt lat="43.40312" lon="6.64678">
        <ele>319.5</ele>
        <time>2025-01-19T11:23:14Z</time>
      </trkpt>
      <trkpt lat="43.40313" lon="6.64678">
        <ele>319.3</ele>
        <time>2025-01-19T11:23:15Z</time>
      </trkpt>
      <trkpt lat="43.40314" lon="6.64678">
        <ele>319.2</ele>
        <time>2025-01-19T11:23:16Z</time>
      </trkpt>
      <trkpt lat="43.40315" lon="6.64679">
        <ele>319.2</ele>
        <time>2025-01-19T11:23:17Z</time>
      </trkpt>
      <trkpt lat="43.40317" lon="6.64679">
        <ele>319.1</ele>
        <time>2025-01-19T11:23:18Z</time>
      </trkpt>
      <trkpt lat="43.40318" lon="6.64679">
        <ele>319.1</ele>
        <time>2025-01-19T11:23:19Z</time>
      </trkpt>
      <trkpt lat="43.40319" lon="6.64679">
        <ele>319</ele>
        <time>2025-01-19T11:23:20Z</time>
      </trkpt>
      <trkpt lat="43.4032" lon="6.64679">
        <ele>318.9</ele>
        <time>2025-01-19T11:23:21Z</time>
      </trkpt>
      <trkpt lat="43.40321" lon="6.64679">
        <ele>318.8</ele>
        <time>2025-01-19T11:23:22Z</time>
      </trkpt>
      <trkpt lat="43.40322" lon="6.6468">
        <ele>318.7</ele>
        <time>2025-01-19T11:23:23Z</time>
      </trkpt>
      <trkpt lat="43.40323" lon="6.6468">
        <ele>318.4</ele>
        <time>2025-01-19T11:23:24Z</time>
      </trkpt>
      <trkpt lat="43.40324" lon="6.6468">
        <ele>318.2</ele>
        <time>2025-01-19T11:23:25Z</time>
      </trkpt>
      <trkpt lat="43.40325" lon="6.6468">
        <ele>318.2</ele>
        <time>2025-01-19T11:23:26Z</time>
      </trkpt>
      <trkpt lat="43.40326" lon="6.6468">
        <ele>318.1</ele>
        <time>2025-01-19T11:23:27Z</time>
      </trkpt>
      <trkpt lat="43.40327" lon="6.6468">
        <ele>318</ele>
        <time>2025-01-19T11:23:28Z</time>
      </trkpt>
      <trkpt lat="43.40328" lon="6.6468">
        <ele>317.9</ele>
        <time>2025-01-19T11:23:29Z</time>
      </trkpt>
      <trkpt lat="43.40329" lon="6.6468">
        <ele>317.8</ele>
        <time>2025-01-19T11:23:30Z</time>
      </trkpt>
      <trkpt lat="43.4033" lon="6.64679">
        <ele>317.8</ele>
        <time>2025-01-19T11:23:31Z</time>
      </trkpt>
      <trkpt lat="43.40332" lon="6.64678">
        <ele>317.7</ele>
        <time>2025-01-19T11:23:32Z</time>
      </trkpt>
      <trkpt lat="43.40333" lon="6.64678">
        <ele>317.7</ele>
        <time>2025-01-19T11:23:33Z</time>
      </trkpt>
      <trkpt lat="43.40334" lon="6.64677">
        <ele>317.7</ele>
        <time>2025-01-19T11:23:34Z</time>
      </trkpt>
      <trkpt lat="43.40334" lon="6.64677">
        <ele>317.7</ele>
        <time>2025-01-19T11:23:35Z</time>
      </trkpt>
      <trkpt lat="43.40335" lon="6.64677">
        <ele>317.6</ele>
        <time>2025-01-19T11:23:36Z</time>
      </trkpt>
      <trkpt lat="43.40336" lon="6.64677">
        <ele>317.7</ele>
        <time>2025-01-19T11:23:37Z</time>
      </trkpt>
      <trkpt lat="43.40336" lon="6.64677">
        <ele>317.7</ele>
        <time>2025-01-19T11:23:38Z</time>
      </trkpt>
      <trkpt lat="43.40338" lon="6.64676">
        <ele>317.7</ele>
        <time>2025-01-19T11:23:39Z</time>
      </trkpt>
      <trkpt lat="43.40339" lon="6.64676">
        <ele>317.7</ele>
        <time>2025-01-19T11:23:40Z</time>
      </trkpt>
      <trkpt lat="43.4034" lon="6.64675">
        <ele>317.8</ele>
        <time>2025-01-19T11:23:41Z</time>
      </trkpt>
      <trkpt lat="43.40341" lon="6.64674">
        <ele>317.9</ele>
        <time>2025-01-19T11:23:42Z</time>
      </trkpt>
      <trkpt lat="43.40342" lon="6.64674">
        <ele>317.9</ele>
        <time>2025-01-19T11:23:43Z</time>
      </trkpt>
      <trkpt lat="43.40342" lon="6.64673">
        <ele>318</ele>
        <time>2025-01-19T11:23:44Z</time>
      </trkpt>
      <trkpt lat="43.40343" lon="6.64672">
        <ele>318.1</ele>
        <time>2025-01-19T11:23:45Z</time>
      </trkpt>
      <trkpt lat="43.40344" lon="6.64672">
        <ele>318.1</ele>
        <time>2025-01-19T11:23:46Z</time>
      </trkpt>
      <trkpt lat="43.40345" lon="6.64671">
        <ele>318.1</ele>
        <time>2025-01-19T11:23:47Z</time>
      </trkpt>
      <trkpt lat="43.40345" lon="6.6467">
        <ele>318.1</ele>
        <time>2025-01-19T11:23:48Z</time>
      </trkpt>
      <trkpt lat="43.40347" lon="6.6467">
        <ele>318.1</ele>
        <time>2025-01-19T11:23:49Z</time>
      </trkpt>
      <trkpt lat="43.40348" lon="6.6467">
        <ele>318.1</ele>
        <time>2025-01-19T11:23:50Z</time>
      </trkpt>
      <trkpt lat="43.4035" lon="6.64669">
        <ele>318</ele>
        <time>2025-01-19T11:23:51Z</time>
      </trkpt>
      <trkpt lat="43.40351" lon="6.64669">
        <ele>317.9</ele>
        <time>2025-01-19T11:23:52Z</time>
      </trkpt>
      <trkpt lat="43.40352" lon="6.64669">
        <ele>317.9</ele>
        <time>2025-01-19T11:23:53Z</time>
      </trkpt>
      <trkpt lat="43.40353" lon="6.64669">
        <ele>317.8</ele>
        <time>2025-01-19T11:23:54Z</time>
      </trkpt>
      <trkpt lat="43.40354" lon="6.64668">
        <ele>317.8</ele>
        <time>2025-01-19T11:23:55Z</time>
      </trkpt>
      <trkpt lat="43.40355" lon="6.64668">
        <ele>317.7</ele>
        <time>2025-01-19T11:23:56Z</time>
      </trkpt>
      <trkpt lat="43.40356" lon="6.64668">
        <ele>317.7</ele>
        <time>2025-01-19T11:23:57Z</time>
      </trkpt>
      <trkpt lat="43.40357" lon="6.64668">
        <ele>317.6</ele>
        <time>2025-01-19T11:23:58Z</time>
      </trkpt>
      <trkpt lat="43.40358" lon="6.64668">
        <ele>317.5</ele>
        <time>2025-01-19T11:23:59Z</time>
      </trkpt>
      <trkpt lat="43.4036" lon="6.64667">
        <ele>317.4</ele>
        <time>2025-01-19T11:24:00Z</time>
      </trkpt>
      <trkpt lat="43.40361" lon="6.64667">
        <ele>317.2</ele>
        <time>2025-01-19T11:24:01Z</time>
      </trkpt>
      <trkpt lat="43.40361" lon="6.64667">
        <ele>317.1</ele>
        <time>2025-01-19T11:24:02Z</time>
      </trkpt>
      <trkpt lat="43.40363" lon="6.64667">
        <ele>317</ele>
        <time>2025-01-19T11:24:03Z</time>
      </trkpt>
      <trkpt lat="43.40364" lon="6.64667">
        <ele>316.8</ele>
        <time>2025-01-19T11:24:04Z</time>
      </trkpt>
      <trkpt lat="43.40365" lon="6.64667">
        <ele>316.7</ele>
        <time>2025-01-19T11:24:05Z</time>
      </trkpt>
      <trkpt lat="43.40366" lon="6.64667">
        <ele>316.6</ele>
        <time>2025-01-19T11:24:06Z</time>
      </trkpt>
      <trkpt lat="43.40367" lon="6.64666">
        <ele>316.5</ele>
        <time>2025-01-19T11:24:07Z</time>
      </trkpt>
      <trkpt lat="43.40368" lon="6.64666">
        <ele>316.4</ele>
        <time>2025-01-19T11:24:08Z</time>
      </trkpt>
      <trkpt lat="43.40369" lon="6.64666">
        <ele>316.2</ele>
        <time>2025-01-19T11:24:09Z</time>
      </trkpt>
      <trkpt lat="43.4037" lon="6.64666">
        <ele>316</ele>
        <time>2025-01-19T11:24:10Z</time>
      </trkpt>
      <trkpt lat="43.40372" lon="6.64665">
        <ele>315.9</ele>
        <time>2025-01-19T11:24:11Z</time>
      </trkpt>
      <trkpt lat="43.40373" lon="6.64665">
        <ele>315.8</ele>
        <time>2025-01-19T11:24:12Z</time>
      </trkpt>
      <trkpt lat="43.40374" lon="6.64665">
        <ele>315.6</ele>
        <time>2025-01-19T11:24:13Z</time>
      </trkpt>
      <trkpt lat="43.40375" lon="6.64665">
        <ele>315.4</ele>
        <time>2025-01-19T11:24:14Z</time>
      </trkpt>
      <trkpt lat="43.40376" lon="6.64664">
        <ele>315.3</ele>
        <time>2025-01-19T11:24:15Z</time>
      </trkpt>
      <trkpt lat="43.40377" lon="6.64664">
        <ele>315.2</ele>
        <time>2025-01-19T11:24:16Z</time>
      </trkpt>
      <trkpt lat="43.40378" lon="6.64664">
        <ele>315</ele>
        <time>2025-01-19T11:24:17Z</time>
      </trkpt>
      <trkpt lat="43.4038" lon="6.64664">
        <ele>314.8</ele>
        <time>2025-01-19T11:24:18Z</time>
      </trkpt>
      <trkpt lat="43.40381" lon="6.64665">
        <ele>314.7</ele>
        <time>2025-01-19T11:24:19Z</time>
      </trkpt>
      <trkpt lat="43.40382" lon="6.64665">
        <ele>314.5</ele>
        <time>2025-01-19T11:24:20Z</time>
      </trkpt>
      <trkpt lat="43.40384" lon="6.64665">
        <ele>314.4</ele>
        <time>2025-01-19T11:24:21Z</time>
      </trkpt>
      <trkpt lat="43.40385" lon="6.64666">
        <ele>314.3</ele>
        <time>2025-01-19T11:24:22Z</time>
      </trkpt>
      <trkpt lat="43.40387" lon="6.64665">
        <ele>314.2</ele>
        <time>2025-01-19T11:24:23Z</time>
      </trkpt>
      <trkpt lat="43.40388" lon="6.64665">
        <ele>314</ele>
        <time>2025-01-19T11:24:24Z</time>
      </trkpt>
      <trkpt lat="43.40389" lon="6.64665">
        <ele>313.9</ele>
        <time>2025-01-19T11:24:25Z</time>
      </trkpt>
      <trkpt lat="43.40389" lon="6.64665">
        <ele>313.7</ele>
        <time>2025-01-19T11:24:26Z</time>
      </trkpt>
      <trkpt lat="43.4039" lon="6.64665">
        <ele>313.5</ele>
        <time>2025-01-19T11:24:27Z</time>
      </trkpt>
      <trkpt lat="43.40391" lon="6.64666">
        <ele>313.4</ele>
        <time>2025-01-19T11:24:28Z</time>
      </trkpt>
      <trkpt lat="43.40392" lon="6.64666">
        <ele>313.2</ele>
        <time>2025-01-19T11:24:29Z</time>
      </trkpt>
      <trkpt lat="43.40393" lon="6.64667">
        <ele>313.1</ele>
        <time>2025-01-19T11:24:30Z</time>
      </trkpt>
      <trkpt lat="43.40394" lon="6.64667">
        <ele>313.1</ele>
        <time>2025-01-19T11:24:31Z</time>
      </trkpt>
      <trkpt lat="43.40396" lon="6.64668">
        <ele>313.1</ele>
        <time>2025-01-19T11:24:32Z</time>
      </trkpt>
      <trkpt lat="43.40397" lon="6.64668">
        <ele>313.1</ele>
        <time>2025-01-19T11:24:33Z</time>
      </trkpt>
      <trkpt lat="43.40398" lon="6.64668">
        <ele>313</ele>
        <time>2025-01-19T11:24:34Z</time>
      </trkpt>
      <trkpt lat="43.40399" lon="6.64669">
        <ele>312.9</ele>
        <time>2025-01-19T11:24:35Z</time>
      </trkpt>
      <trkpt lat="43.404" lon="6.64669">
        <ele>312.9</ele>
        <time>2025-01-19T11:24:36Z</time>
      </trkpt>
      <trkpt lat="43.40401" lon="6.64669">
        <ele>312.9</ele>
        <time>2025-01-19T11:24:37Z</time>
      </trkpt>
      <trkpt lat="43.40403" lon="6.64669">
        <ele>312.9</ele>
        <time>2025-01-19T11:24:38Z</time>
      </trkpt>
      <trkpt lat="43.40403" lon="6.64669">
        <ele>313</ele>
        <time>2025-01-19T11:24:39Z</time>
      </trkpt>
      <trkpt lat="43.40404" lon="6.64669">
        <ele>313.1</ele>
        <time>2025-01-19T11:24:40Z</time>
      </trkpt>
      <trkpt lat="43.40405" lon="6.64669">
        <ele>313</ele>
        <time>2025-01-19T11:24:41Z</time>
      </trkpt>
      <trkpt lat="43.40407" lon="6.64669">
        <ele>313</ele>
        <time>2025-01-19T11:24:42Z</time>
      </trkpt>
      <trkpt lat="43.40408" lon="6.64669">
        <ele>312.9</ele>
        <time>2025-01-19T11:24:43Z</time>
      </trkpt>
      <trkpt lat="43.40409" lon="6.64669">
        <ele>312.9</ele>
        <time>2025-01-19T11:24:44Z</time>
      </trkpt>
      <trkpt lat="43.4041" lon="6.64669">
        <ele>312.8</ele>
        <time>2025-01-19T11:24:45Z</time>
      </trkpt>
      <trkpt lat="43.40412" lon="6.6467">
        <ele>312.8</ele>
        <time>2025-01-19T11:24:46Z</time>
      </trkpt>
      <trkpt lat="43.40413" lon="6.6467">
        <ele>312.8</ele>
        <time>2025-01-19T11:24:47Z</time>
      </trkpt>
      <trkpt lat="43.40414" lon="6.6467">
        <ele>312.8</ele>
        <time>2025-01-19T11:24:48Z</time>
      </trkpt>
      <trkpt lat="43.40415" lon="6.64671">
        <ele>312.8</ele>
        <time>2025-01-19T11:24:49Z</time>
      </trkpt>
      <trkpt lat="43.40416" lon="6.64671">
        <ele>312.7</ele>
        <time>2025-01-19T11:24:50Z</time>
      </trkpt>
      <trkpt lat="43.40417" lon="6.64671">
        <ele>312.7</ele>
        <time>2025-01-19T11:24:51Z</time>
      </trkpt>
      <trkpt lat="43.40419" lon="6.64672">
        <ele>312.6</ele>
        <time>2025-01-19T11:24:52Z</time>
      </trkpt>
      <trkpt lat="43.40419" lon="6.64673">
        <ele>312.4</ele>
        <time>2025-01-19T11:24:53Z</time>
      </trkpt>
      <trkpt lat="43.40421" lon="6.64673">
        <ele>312.2</ele>
        <time>2025-01-19T11:24:54Z</time>
      </trkpt>
      <trkpt lat="43.40422" lon="6.64674">
        <ele>312</ele>
        <time>2025-01-19T11:24:55Z</time>
      </trkpt>
      <trkpt lat="43.40423" lon="6.64674">
        <ele>311.9</ele>
        <time>2025-01-19T11:24:56Z</time>
      </trkpt>
      <trkpt lat="43.40424" lon="6.64675">
        <ele>311.9</ele>
        <time>2025-01-19T11:24:57Z</time>
      </trkpt>
      <trkpt lat="43.40425" lon="6.64676">
        <ele>311.8</ele>
        <time>2025-01-19T11:24:58Z</time>
      </trkpt>
      <trkpt lat="43.40426" lon="6.64676">
        <ele>311.7</ele>
        <time>2025-01-19T11:24:59Z</time>
      </trkpt>
      <trkpt lat="43.40427" lon="6.64676">
        <ele>311.5</ele>
        <time>2025-01-19T11:25:00Z</time>
      </trkpt>
      <trkpt lat="43.40428" lon="6.64676">
        <ele>311.3</ele>
        <time>2025-01-19T11:25:01Z</time>
      </trkpt>
      <trkpt lat="43.40429" lon="6.64677">
        <ele>311.2</ele>
        <time>2025-01-19T11:25:02Z</time>
      </trkpt>
      <trkpt lat="43.4043" lon="6.64677">
        <ele>311</ele>
        <time>2025-01-19T11:25:03Z</time>
      </trkpt>
      <trkpt lat="43.40431" lon="6.64677">
        <ele>310.9</ele>
        <time>2025-01-19T11:25:04Z</time>
      </trkpt>
      <trkpt lat="43.40432" lon="6.64677">
        <ele>310.6</ele>
        <time>2025-01-19T11:25:05Z</time>
      </trkpt>
      <trkpt lat="43.40433" lon="6.64677">
        <ele>310.5</ele>
        <time>2025-01-19T11:25:06Z</time>
      </trkpt>
      <trkpt lat="43.40434" lon="6.64677">
        <ele>310.2</ele>
        <time>2025-01-19T11:25:07Z</time>
      </trkpt>
      <trkpt lat="43.40435" lon="6.64678">
        <ele>310.1</ele>
        <time>2025-01-19T11:25:08Z</time>
      </trkpt>
      <trkpt lat="43.40436" lon="6.64678">
        <ele>309.9</ele>
        <time>2025-01-19T11:25:09Z</time>
      </trkpt>
      <trkpt lat="43.40436" lon="6.6468">
        <ele>309.7</ele>
        <time>2025-01-19T11:25:10Z</time>
      </trkpt>
      <trkpt lat="43.40437" lon="6.6468">
        <ele>309.5</ele>
        <time>2025-01-19T11:25:11Z</time>
      </trkpt>
      <trkpt lat="43.40437" lon="6.6468">
        <ele>309.3</ele>
        <time>2025-01-19T11:25:12Z</time>
      </trkpt>
      <trkpt lat="43.40438" lon="6.64681">
        <ele>309.2</ele>
        <time>2025-01-19T11:25:13Z</time>
      </trkpt>
      <trkpt lat="43.40439" lon="6.64682">
        <ele>309.1</ele>
        <time>2025-01-19T11:25:14Z</time>
      </trkpt>
      <trkpt lat="43.4044" lon="6.64682">
        <ele>308.8</ele>
        <time>2025-01-19T11:25:15Z</time>
      </trkpt>
      <trkpt lat="43.40441" lon="6.64683">
        <ele>308.6</ele>
        <time>2025-01-19T11:25:16Z</time>
      </trkpt>
      <trkpt lat="43.40441" lon="6.64683">
        <ele>308.4</ele>
        <time>2025-01-19T11:25:17Z</time>
      </trkpt>
      <trkpt lat="43.40442" lon="6.64683">
        <ele>308.2</ele>
        <time>2025-01-19T11:25:18Z</time>
      </trkpt>
      <trkpt lat="43.40443" lon="6.64684">
        <ele>308.1</ele>
        <time>2025-01-19T11:25:19Z</time>
      </trkpt>
      <trkpt lat="43.40443" lon="6.64684">
        <ele>307.9</ele>
        <time>2025-01-19T11:25:20Z</time>
      </trkpt>
      <trkpt lat="43.40444" lon="6.64685">
        <ele>307.8</ele>
        <time>2025-01-19T11:25:21Z</time>
      </trkpt>
      <trkpt lat="43.40445" lon="6.64686">
        <ele>307.7</ele>
        <time>2025-01-19T11:25:22Z</time>
      </trkpt>
      <trkpt lat="43.40446" lon="6.64686">
        <ele>307.6</ele>
        <time>2025-01-19T11:25:23Z</time>
      </trkpt>
      <trkpt lat="43.40447" lon="6.64687">
        <ele>307.6</ele>
        <time>2025-01-19T11:25:24Z</time>
      </trkpt>
      <trkpt lat="43.40448" lon="6.64687">
        <ele>307.5</ele>
        <time>2025-01-19T11:25:25Z</time>
      </trkpt>
      <trkpt lat="43.40449" lon="6.64688">
        <ele>307.4</ele>
        <time>2025-01-19T11:25:26Z</time>
      </trkpt>
      <trkpt lat="43.40449" lon="6.64689">
        <ele>307.4</ele>
        <time>2025-01-19T11:25:27Z</time>
      </trkpt>
      <trkpt lat="43.4045" lon="6.6469">
        <ele>307.2</ele>
        <time>2025-01-19T11:25:28Z</time>
      </trkpt>
      <trkpt lat="43.40451" lon="6.6469">
        <ele>307.1</ele>
        <time>2025-01-19T11:25:29Z</time>
      </trkpt>
      <trkpt lat="43.40452" lon="6.64691">
        <ele>307</ele>
        <time>2025-01-19T11:25:30Z</time>
      </trkpt>
      <trkpt lat="43.40452" lon="6.64692">
        <ele>306.9</ele>
        <time>2025-01-19T11:25:31Z</time>
      </trkpt>
      <trkpt lat="43.40453" lon="6.64693">
        <ele>306.9</ele>
        <time>2025-01-19T11:25:32Z</time>
      </trkpt>
      <trkpt lat="43.40454" lon="6.64695">
        <ele>306.8</ele>
        <time>2025-01-19T11:25:33Z</time>
      </trkpt>
      <trkpt lat="43.40455" lon="6.64695">
        <ele>306.7</ele>
        <time>2025-01-19T11:25:34Z</time>
      </trkpt>
      <trkpt lat="43.40455" lon="6.64695">
        <ele>306.5</ele>
        <time>2025-01-19T11:25:35Z</time>
      </trkpt>
      <trkpt lat="43.40456" lon="6.64695">
        <ele>306.4</ele>
        <time>2025-01-19T11:25:36Z</time>
      </trkpt>
      <trkpt lat="43.40457" lon="6.64696">
        <ele>306.3</ele>
        <time>2025-01-19T11:25:37Z</time>
      </trkpt>
      <trkpt lat="43.40458" lon="6.64696">
        <ele>306.2</ele>
        <time>2025-01-19T11:25:38Z</time>
      </trkpt>
      <trkpt lat="43.40459" lon="6.64696">
        <ele>306.1</ele>
        <time>2025-01-19T11:25:39Z</time>
      </trkpt>
      <trkpt lat="43.4046" lon="6.64695">
        <ele>306</ele>
        <time>2025-01-19T11:25:40Z</time>
      </trkpt>
      <trkpt lat="43.40461" lon="6.64695">
        <ele>306</ele>
        <time>2025-01-19T11:25:41Z</time>
      </trkpt>
      <trkpt lat="43.40462" lon="6.64695">
        <ele>305.8</ele>
        <time>2025-01-19T11:25:42Z</time>
      </trkpt>
      <trkpt lat="43.40463" lon="6.64695">
        <ele>305.7</ele>
        <time>2025-01-19T11:25:43Z</time>
      </trkpt>
      <trkpt lat="43.40464" lon="6.64695">
        <ele>305.7</ele>
        <time>2025-01-19T11:25:44Z</time>
      </trkpt>
      <trkpt lat="43.40465" lon="6.64696">
        <ele>305.6</ele>
        <time>2025-01-19T11:25:45Z</time>
      </trkpt>
      <trkpt lat="43.40466" lon="6.64695">
        <ele>305.6</ele>
        <time>2025-01-19T11:25:46Z</time>
      </trkpt>
      <trkpt lat="43.40467" lon="6.64695">
        <ele>305.5</ele>
        <time>2025-01-19T11:25:47Z</time>
      </trkpt>
      <trkpt lat="43.40468" lon="6.64695">
        <ele>305.5</ele>
        <time>2025-01-19T11:25:48Z</time>
      </trkpt>
      <trkpt lat="43.40469" lon="6.64696">
        <ele>305.4</ele>
        <time>2025-01-19T11:25:49Z</time>
      </trkpt>
      <trkpt lat="43.4047" lon="6.64696">
        <ele>305.2</ele>
        <time>2025-01-19T11:25:50Z</time>
      </trkpt>
      <trkpt lat="43.40472" lon="6.64696">
        <ele>305.1</ele>
        <time>2025-01-19T11:25:51Z</time>
      </trkpt>
      <trkpt lat="43.40472" lon="6.64696">
        <ele>305</ele>
        <time>2025-01-19T11:25:52Z</time>
      </trkpt>
      <trkpt lat="43.40473" lon="6.64697">
        <ele>304.9</ele>
        <time>2025-01-19T11:25:53Z</time>
      </trkpt>
      <trkpt lat="43.40474" lon="6.64698">
        <ele>304.8</ele>
        <time>2025-01-19T11:25:54Z</time>
      </trkpt>
      <trkpt lat="43.40475" lon="6.64699">
        <ele>304.7</ele>
        <time>2025-01-19T11:25:55Z</time>
      </trkpt>
      <trkpt lat="43.40476" lon="6.64699">
        <ele>304.7</ele>
        <time>2025-01-19T11:25:56Z</time>
      </trkpt>
      <trkpt lat="43.40477" lon="6.64699">
        <ele>304.6</ele>
        <time>2025-01-19T11:25:57Z</time>
      </trkpt>
      <trkpt lat="43.40479" lon="6.647">
        <ele>304.6</ele>
        <time>2025-01-19T11:25:58Z</time>
      </trkpt>
      <trkpt lat="43.4048" lon="6.647">
        <ele>304.7</ele>
        <time>2025-01-19T11:25:59Z</time>
      </trkpt>
      <trkpt lat="43.40482" lon="6.64701">
        <ele>304.7</ele>
        <time>2025-01-19T11:26:00Z</time>
      </trkpt>
      <trkpt lat="43.40483" lon="6.64702">
        <ele>304.5</ele>
        <time>2025-01-19T11:26:01Z</time>
      </trkpt>
      <trkpt lat="43.40483" lon="6.64702">
        <ele>304.5</ele>
        <time>2025-01-19T11:26:02Z</time>
      </trkpt>
      <trkpt lat="43.40484" lon="6.64702">
        <ele>304.4</ele>
        <time>2025-01-19T11:26:03Z</time>
      </trkpt>
      <trkpt lat="43.40485" lon="6.64703">
        <ele>304.4</ele>
        <time>2025-01-19T11:26:04Z</time>
      </trkpt>
      <trkpt lat="43.40486" lon="6.64703">
        <ele>304.4</ele>
        <time>2025-01-19T11:26:05Z</time>
      </trkpt>
      <trkpt lat="43.40487" lon="6.64703">
        <ele>304.4</ele>
        <time>2025-01-19T11:26:06Z</time>
      </trkpt>
      <trkpt lat="43.40488" lon="6.64704">
        <ele>304.2</ele>
        <time>2025-01-19T11:26:07Z</time>
      </trkpt>
      <trkpt lat="43.40489" lon="6.64705">
        <ele>304.2</ele>
        <time>2025-01-19T11:26:08Z</time>
      </trkpt>
      <trkpt lat="43.40489" lon="6.64705">
        <ele>304.2</ele>
        <time>2025-01-19T11:26:09Z</time>
      </trkpt>
      <trkpt lat="43.4049" lon="6.64706">
        <ele>304.1</ele>
        <time>2025-01-19T11:26:10Z</time>
      </trkpt>
      <trkpt lat="43.40491" lon="6.64706">
        <ele>304</ele>
        <time>2025-01-19T11:26:11Z</time>
      </trkpt>
      <trkpt lat="43.40492" lon="6.64707">
        <ele>304</ele>
        <time>2025-01-19T11:26:12Z</time>
      </trkpt>
      <trkpt lat="43.40493" lon="6.64707">
        <ele>304</ele>
        <time>2025-01-19T11:26:13Z</time>
      </trkpt>
      <trkpt lat="43.40493" lon="6.64708">
        <ele>303.9</ele>
        <time>2025-01-19T11:26:14Z</time>
      </trkpt>
      <trkpt lat="43.40494" lon="6.64709">
        <ele>303.9</ele>
        <time>2025-01-19T11:26:15Z</time>
      </trkpt>
      <trkpt lat="43.40495" lon="6.64709">
        <ele>303.8</ele>
        <time>2025-01-19T11:26:16Z</time>
      </trkpt>
      <trkpt lat="43.40495" lon="6.6471">
        <ele>303.7</ele>
        <time>2025-01-19T11:26:17Z</time>
      </trkpt>
      <trkpt lat="43.40496" lon="6.6471">
        <ele>303.6</ele>
        <time>2025-01-19T11:26:18Z</time>
      </trkpt>
      <trkpt lat="43.40497" lon="6.64711">
        <ele>303.4</ele>
        <time>2025-01-19T11:26:19Z</time>
      </trkpt>
      <trkpt lat="43.40498" lon="6.64711">
        <ele>303.4</ele>
        <time>2025-01-19T11:26:20Z</time>
      </trkpt>
      <trkpt lat="43.405" lon="6.64711">
        <ele>303.2</ele>
        <time>2025-01-19T11:26:21Z</time>
      </trkpt>
      <trkpt lat="43.405" lon="6.64712">
        <ele>303.1</ele>
        <time>2025-01-19T11:26:22Z</time>
      </trkpt>
      <trkpt lat="43.40502" lon="6.64713">
        <ele>302.9</ele>
        <time>2025-01-19T11:26:23Z</time>
      </trkpt>
      <trkpt lat="43.40503" lon="6.64713">
        <ele>302.8</ele>
        <time>2025-01-19T11:26:24Z</time>
      </trkpt>
      <trkpt lat="43.40504" lon="6.64714">
        <ele>302.8</ele>
        <time>2025-01-19T11:26:25Z</time>
      </trkpt>
      <trkpt lat="43.40505" lon="6.64715">
        <ele>302.7</ele>
        <time>2025-01-19T11:26:26Z</time>
      </trkpt>
      <trkpt lat="43.40506" lon="6.64715">
        <ele>302.6</ele>
        <time>2025-01-19T11:26:27Z</time>
      </trkpt>
      <trkpt lat="43.40507" lon="6.64716">
        <ele>302.5</ele>
        <time>2025-01-19T11:26:28Z</time>
      </trkpt>
      <trkpt lat="43.40508" lon="6.64717">
        <ele>302.3</ele>
        <time>2025-01-19T11:26:29Z</time>
      </trkpt>
      <trkpt lat="43.40509" lon="6.64717">
        <ele>302.2</ele>
        <time>2025-01-19T11:26:30Z</time>
      </trkpt>
      <trkpt lat="43.4051" lon="6.64718">
        <ele>302</ele>
        <time>2025-01-19T11:26:31Z</time>
      </trkpt>
      <trkpt lat="43.40511" lon="6.64718">
        <ele>301.9</ele>
        <time>2025-01-19T11:26:32Z</time>
      </trkpt>
      <trkpt lat="43.40512" lon="6.64718">
        <ele>301.7</ele>
        <time>2025-01-19T11:26:33Z</time>
      </trkpt>
      <trkpt lat="43.40513" lon="6.64719">
        <ele>301.5</ele>
        <time>2025-01-19T11:26:34Z</time>
      </trkpt>
      <trkpt lat="43.40514" lon="6.64719">
        <ele>301.3</ele>
        <time>2025-01-19T11:26:35Z</time>
      </trkpt>
      <trkpt lat="43.40515" lon="6.6472">
        <ele>301.2</ele>
        <time>2025-01-19T11:26:36Z</time>
      </trkpt>
      <trkpt lat="43.40516" lon="6.6472">
        <ele>301</ele>
        <time>2025-01-19T11:26:37Z</time>
      </trkpt>
      <trkpt lat="43.40516" lon="6.64721">
        <ele>300.8</ele>
        <time>2025-01-19T11:26:38Z</time>
      </trkpt>
      <trkpt lat="43.40517" lon="6.64721">
        <ele>300.7</ele>
        <time>2025-01-19T11:26:39Z</time>
      </trkpt>
      <trkpt lat="43.40518" lon="6.64721">
        <ele>300.5</ele>
        <time>2025-01-19T11:26:40Z</time>
      </trkpt>
      <trkpt lat="43.40519" lon="6.64722">
        <ele>300.3</ele>
        <time>2025-01-19T11:26:41Z</time>
      </trkpt>
      <trkpt lat="43.4052" lon="6.64722">
        <ele>300.2</ele>
        <time>2025-01-19T11:26:42Z</time>
      </trkpt>
      <trkpt lat="43.40521" lon="6.64722">
        <ele>300.1</ele>
        <time>2025-01-19T11:26:43Z</time>
      </trkpt>
      <trkpt lat="43.40522" lon="6.64722">
        <ele>300</ele>
        <time>2025-01-19T11:26:44Z</time>
      </trkpt>
      <trkpt lat="43.40523" lon="6.64723">
        <ele>299.8</ele>
        <time>2025-01-19T11:26:45Z</time>
      </trkpt>
      <trkpt lat="43.40524" lon="6.64723">
        <ele>299.6</ele>
        <time>2025-01-19T11:26:46Z</time>
      </trkpt>
      <trkpt lat="43.40525" lon="6.64724">
        <ele>299.5</ele>
        <time>2025-01-19T11:26:47Z</time>
      </trkpt>
      <trkpt lat="43.40526" lon="6.64724">
        <ele>299.4</ele>
        <time>2025-01-19T11:26:48Z</time>
      </trkpt>
      <trkpt lat="43.40527" lon="6.64724">
        <ele>299.3</ele>
        <time>2025-01-19T11:26:49Z</time>
      </trkpt>
      <trkpt lat="43.40528" lon="6.64725">
        <ele>299.2</ele>
        <time>2025-01-19T11:26:50Z</time>
      </trkpt>
      <trkpt lat="43.40529" lon="6.64725">
        <ele>299.1</ele>
        <time>2025-01-19T11:26:51Z</time>
      </trkpt>
      <trkpt lat="43.4053" lon="6.64726">
        <ele>299</ele>
        <time>2025-01-19T11:26:52Z</time>
      </trkpt>
      <trkpt lat="43.40531" lon="6.64726">
        <ele>299</ele>
        <time>2025-01-19T11:26:53Z</time>
      </trkpt>
      <trkpt lat="43.40532" lon="6.64727">
        <ele>298.9</ele>
        <time>2025-01-19T11:26:54Z</time>
      </trkpt>
      <trkpt lat="43.40533" lon="6.64727">
        <ele>298.9</ele>
        <time>2025-01-19T11:26:55Z</time>
      </trkpt>
      <trkpt lat="43.40534" lon="6.64728">
        <ele>298.9</ele>
        <time>2025-01-19T11:26:56Z</time>
      </trkpt>
      <trkpt lat="43.40536" lon="6.64728">
        <ele>298.9</ele>
        <time>2025-01-19T11:26:57Z</time>
      </trkpt>
      <trkpt lat="43.40537" lon="6.64729">
        <ele>298.8</ele>
        <time>2025-01-19T11:26:58Z</time>
      </trkpt>
      <trkpt lat="43.40538" lon="6.6473">
        <ele>298.8</ele>
        <time>2025-01-19T11:26:59Z</time>
      </trkpt>
      <trkpt lat="43.40539" lon="6.64731">
        <ele>298.7</ele>
        <time>2025-01-19T11:27:00Z</time>
      </trkpt>
      <trkpt lat="43.4054" lon="6.64732">
        <ele>298.6</ele>
        <time>2025-01-19T11:27:01Z</time>
      </trkpt>
      <trkpt lat="43.40541" lon="6.64733">
        <ele>298.5</ele>
        <time>2025-01-19T11:27:02Z</time>
      </trkpt>
      <trkpt lat="43.40542" lon="6.64734">
        <ele>298.4</ele>
        <time>2025-01-19T11:27:03Z</time>
      </trkpt>
      <trkpt lat="43.40542" lon="6.64735">
        <ele>298.3</ele>
        <time>2025-01-19T11:27:04Z</time>
      </trkpt>
      <trkpt lat="43.40543" lon="6.64735">
        <ele>298.2</ele>
        <time>2025-01-19T11:27:05Z</time>
      </trkpt>
      <trkpt lat="43.40544" lon="6.64736">
        <ele>298</ele>
        <time>2025-01-19T11:27:06Z</time>
      </trkpt>
      <trkpt lat="43.40545" lon="6.64737">
        <ele>297.9</ele>
        <time>2025-01-19T11:27:07Z</time>
      </trkpt>
      <trkpt lat="43.40546" lon="6.64738">
        <ele>297.8</ele>
        <time>2025-01-19T11:27:08Z</time>
      </trkpt>
      <trkpt lat="43.40546" lon="6.64739">
        <ele>297.7</ele>
        <time>2025-01-19T11:27:09Z</time>
      </trkpt>
      <trkpt lat="43.40547" lon="6.6474">
        <ele>297.6</ele>
        <time>2025-01-19T11:27:10Z</time>
      </trkpt>
      <trkpt lat="43.40548" lon="6.64741">
        <ele>297.5</ele>
        <time>2025-01-19T11:27:11Z</time>
      </trkpt>
      <trkpt lat="43.4055" lon="6.64742">
        <ele>297.5</ele>
        <time>2025-01-19T11:27:12Z</time>
      </trkpt>
      <trkpt lat="43.40551" lon="6.64743">
        <ele>297.3</ele>
        <time>2025-01-19T11:27:13Z</time>
      </trkpt>
      <trkpt lat="43.40552" lon="6.64743">
        <ele>297.2</ele>
        <time>2025-01-19T11:27:14Z</time>
      </trkpt>
      <trkpt lat="43.40552" lon="6.64744">
        <ele>297.1</ele>
        <time>2025-01-19T11:27:15Z</time>
      </trkpt>
      <trkpt lat="43.40553" lon="6.64744">
        <ele>297</ele>
        <time>2025-01-19T11:27:16Z</time>
      </trkpt>
      <trkpt lat="43.40554" lon="6.64745">
        <ele>296.9</ele>
        <time>2025-01-19T11:27:17Z</time>
      </trkpt>
      <trkpt lat="43.40554" lon="6.64746">
        <ele>296.8</ele>
        <time>2025-01-19T11:27:18Z</time>
      </trkpt>
      <trkpt lat="43.40555" lon="6.64747">
        <ele>296.6</ele>
        <time>2025-01-19T11:27:19Z</time>
      </trkpt>
      <trkpt lat="43.40556" lon="6.64747">
        <ele>296.5</ele>
        <time>2025-01-19T11:27:20Z</time>
      </trkpt>
      <trkpt lat="43.40556" lon="6.64748">
        <ele>296.4</ele>
        <time>2025-01-19T11:27:21Z</time>
      </trkpt>
      <trkpt lat="43.40557" lon="6.64748">
        <ele>296.3</ele>
        <time>2025-01-19T11:27:22Z</time>
      </trkpt>
      <trkpt lat="43.40558" lon="6.64749">
        <ele>296.3</ele>
        <time>2025-01-19T11:27:23Z</time>
      </trkpt>
      <trkpt lat="43.40559" lon="6.6475">
        <ele>296.1</ele>
        <time>2025-01-19T11:27:24Z</time>
      </trkpt>
      <trkpt lat="43.4056" lon="6.64751">
        <ele>295.9</ele>
        <time>2025-01-19T11:27:25Z</time>
      </trkpt>
      <trkpt lat="43.40561" lon="6.64751">
        <ele>295.8</ele>
        <time>2025-01-19T11:27:26Z</time>
      </trkpt>
      <trkpt lat="43.40562" lon="6.64752">
        <ele>295.6</ele>
        <time>2025-01-19T11:27:27Z</time>
      </trkpt>
      <trkpt lat="43.40563" lon="6.64752">
        <ele>295.5</ele>
        <time>2025-01-19T11:27:28Z</time>
      </trkpt>
      <trkpt lat="43.40564" lon="6.64754">
        <ele>295.4</ele>
        <time>2025-01-19T11:27:29Z</time>
      </trkpt>
      <trkpt lat="43.40565" lon="6.64755">
        <ele>295.2</ele>
        <time>2025-01-19T11:27:30Z</time>
      </trkpt>
      <trkpt lat="43.40566" lon="6.64755">
        <ele>295.1</ele>
        <time>2025-01-19T11:27:31Z</time>
      </trkpt>
      <trkpt lat="43.40567" lon="6.64756">
        <ele>295</ele>
        <time>2025-01-19T11:27:32Z</time>
      </trkpt>
      <trkpt lat="43.40568" lon="6.64756">
        <ele>294.8</ele>
        <time>2025-01-19T11:27:33Z</time>
      </trkpt>
      <trkpt lat="43.40569" lon="6.64756">
        <ele>294.7</ele>
        <time>2025-01-19T11:27:34Z</time>
      </trkpt>
      <trkpt lat="43.4057" lon="6.64756">
        <ele>294.6</ele>
        <time>2025-01-19T11:27:35Z</time>
      </trkpt>
      <trkpt lat="43.40571" lon="6.64757">
        <ele>294.5</ele>
        <time>2025-01-19T11:27:36Z</time>
      </trkpt>
      <trkpt lat="43.40572" lon="6.64757">
        <ele>294.5</ele>
        <time>2025-01-19T11:27:37Z</time>
      </trkpt>
      <trkpt lat="43.40573" lon="6.64756">
        <ele>294.4</ele>
        <time>2025-01-19T11:27:38Z</time>
      </trkpt>
      <trkpt lat="43.40575" lon="6.64756">
        <ele>294.4</ele>
        <time>2025-01-19T11:27:39Z</time>
      </trkpt>
      <trkpt lat="43.40575" lon="6.64755">
        <ele>294.4</ele>
        <time>2025-01-19T11:27:40Z</time>
      </trkpt>
      <trkpt lat="43.40576" lon="6.64754">
        <ele>294.4</ele>
        <time>2025-01-19T11:27:41Z</time>
      </trkpt>
      <trkpt lat="43.40577" lon="6.64753">
        <ele>294.3</ele>
        <time>2025-01-19T11:27:42Z</time>
      </trkpt>
      <trkpt lat="43.40579" lon="6.64753">
        <ele>294.3</ele>
        <time>2025-01-19T11:27:43Z</time>
      </trkpt>
      <trkpt lat="43.4058" lon="6.64752">
        <ele>294.3</ele>
        <time>2025-01-19T11:27:44Z</time>
      </trkpt>
      <trkpt lat="43.40581" lon="6.64751">
        <ele>294.3</ele>
        <time>2025-01-19T11:27:45Z</time>
      </trkpt>
      <trkpt lat="43.40582" lon="6.6475">
        <ele>294.2</ele>
        <time>2025-01-19T11:27:46Z</time>
      </trkpt>
      <trkpt lat="43.40583" lon="6.64749">
        <ele>294.3</ele>
        <time>2025-01-19T11:27:47Z</time>
      </trkpt>
      <trkpt lat="43.40584" lon="6.64748">
        <ele>294.1</ele>
        <time>2025-01-19T11:27:48Z</time>
      </trkpt>
      <trkpt lat="43.40585" lon="6.64747">
        <ele>294.1</ele>
        <time>2025-01-19T11:27:49Z</time>
      </trkpt>
      <trkpt lat="43.40585" lon="6.64745">
        <ele>294.1</ele>
        <time>2025-01-19T11:27:50Z</time>
      </trkpt>
      <trkpt lat="43.40585" lon="6.64744">
        <ele>294.2</ele>
        <time>2025-01-19T11:27:51Z</time>
      </trkpt>
      <trkpt lat="43.40587" lon="6.64743">
        <ele>294.3</ele>
        <time>2025-01-19T11:27:52Z</time>
      </trkpt>
      <trkpt lat="43.40588" lon="6.64741">
        <ele>294.3</ele>
        <time>2025-01-19T11:27:53Z</time>
      </trkpt>
      <trkpt lat="43.40588" lon="6.6474">
        <ele>294.4</ele>
        <time>2025-01-19T11:27:54Z</time>
      </trkpt>
      <trkpt lat="43.40589" lon="6.64739">
        <ele>294.4</ele>
        <time>2025-01-19T11:27:55Z</time>
      </trkpt>
      <trkpt lat="43.4059" lon="6.64739">
        <ele>294.5</ele>
        <time>2025-01-19T11:27:56Z</time>
      </trkpt>
      <trkpt lat="43.40591" lon="6.64738">
        <ele>294.5</ele>
        <time>2025-01-19T11:27:57Z</time>
      </trkpt>
      <trkpt lat="43.40591" lon="6.64737">
        <ele>294.5</ele>
        <time>2025-01-19T11:27:58Z</time>
      </trkpt>
      <trkpt lat="43.40593" lon="6.64736">
        <ele>294.6</ele>
        <time>2025-01-19T11:27:59Z</time>
      </trkpt>
      <trkpt lat="43.40594" lon="6.64736">
        <ele>294.5</ele>
        <time>2025-01-19T11:28:00Z</time>
      </trkpt>
      <trkpt lat="43.40595" lon="6.64735">
        <ele>294.6</ele>
        <time>2025-01-19T11:28:01Z</time>
      </trkpt>
      <trkpt lat="43.40597" lon="6.64735">
        <ele>294.7</ele>
        <time>2025-01-19T11:28:02Z</time>
      </trkpt>
      <trkpt lat="43.40597" lon="6.64735">
        <ele>294.8</ele>
        <time>2025-01-19T11:28:03Z</time>
      </trkpt>
      <trkpt lat="43.40599" lon="6.64735">
        <ele>295</ele>
        <time>2025-01-19T11:28:04Z</time>
      </trkpt>
      <trkpt lat="43.406" lon="6.64736">
        <ele>295.1</ele>
        <time>2025-01-19T11:28:05Z</time>
      </trkpt>
      <trkpt lat="43.40601" lon="6.64736">
        <ele>295.3</ele>
        <time>2025-01-19T11:28:06Z</time>
      </trkpt>
      <trkpt lat="43.40602" lon="6.64735">
        <ele>295.4</ele>
        <time>2025-01-19T11:28:07Z</time>
      </trkpt>
      <trkpt lat="43.40603" lon="6.64736">
        <ele>295.5</ele>
        <time>2025-01-19T11:28:08Z</time>
      </trkpt>
      <trkpt lat="43.40604" lon="6.64736">
        <ele>295.6</ele>
        <time>2025-01-19T11:28:09Z</time>
      </trkpt>
      <trkpt lat="43.40604" lon="6.64737">
        <ele>295.7</ele>
        <time>2025-01-19T11:28:10Z</time>
      </trkpt>
      <trkpt lat="43.40605" lon="6.64737">
        <ele>295.9</ele>
        <time>2025-01-19T11:28:11Z</time>
      </trkpt>
      <trkpt lat="43.40606" lon="6.64738">
        <ele>296.1</ele>
        <time>2025-01-19T11:28:12Z</time>
      </trkpt>
      <trkpt lat="43.40607" lon="6.64739">
        <ele>296.2</ele>
        <time>2025-01-19T11:28:13Z</time>
      </trkpt>
      <trkpt lat="43.40608" lon="6.6474">
        <ele>296.4</ele>
        <time>2025-01-19T11:28:14Z</time>
      </trkpt>
      <trkpt lat="43.40609" lon="6.64741">
        <ele>296.6</ele>
        <time>2025-01-19T11:28:15Z</time>
      </trkpt>
      <trkpt lat="43.4061" lon="6.64742">
        <ele>296.8</ele>
        <time>2025-01-19T11:28:16Z</time>
      </trkpt>
      <trkpt lat="43.4061" lon="6.64743">
        <ele>296.9</ele>
        <time>2025-01-19T11:28:17Z</time>
      </trkpt>
      <trkpt lat="43.40611" lon="6.64744">
        <ele>297</ele>
        <time>2025-01-19T11:28:18Z</time>
      </trkpt>
      <trkpt lat="43.40612" lon="6.64745">
        <ele>297.1</ele>
        <time>2025-01-19T11:28:19Z</time>
      </trkpt>
      <trkpt lat="43.40613" lon="6.64746">
        <ele>297.2</ele>
        <time>2025-01-19T11:28:20Z</time>
      </trkpt>
      <trkpt lat="43.40614" lon="6.64747">
        <ele>297.3</ele>
        <time>2025-01-19T11:28:21Z</time>
      </trkpt>
      <trkpt lat="43.40614" lon="6.64748">
        <ele>297.3</ele>
        <time>2025-01-19T11:28:22Z</time>
      </trkpt>
      <trkpt lat="43.40615" lon="6.64749">
        <ele>297.4</ele>
        <time>2025-01-19T11:28:23Z</time>
      </trkpt>
      <trkpt lat="43.40617" lon="6.6475">
        <ele>297.5</ele>
        <time>2025-01-19T11:28:24Z</time>
      </trkpt>
      <trkpt lat="43.40617" lon="6.64751">
        <ele>297.6</ele>
        <time>2025-01-19T11:28:25Z</time>
      </trkpt>
      <trkpt lat="43.40618" lon="6.64751">
        <ele>297.7</ele>
        <time>2025-01-19T11:28:26Z</time>
      </trkpt>
      <trkpt lat="43.40618" lon="6.64752">
        <ele>297.8</ele>
        <time>2025-01-19T11:28:27Z</time>
      </trkpt>
      <trkpt lat="43.40619" lon="6.64753">
        <ele>297.9</ele>
        <time>2025-01-19T11:28:28Z</time>
      </trkpt>
      <trkpt lat="43.4062" lon="6.64754">
        <ele>297.9</ele>
        <time>2025-01-19T11:28:29Z</time>
      </trkpt>
      <trkpt lat="43.40621" lon="6.64756">
        <ele>298.1</ele>
        <time>2025-01-19T11:28:30Z</time>
      </trkpt>
      <trkpt lat="43.40622" lon="6.64757">
        <ele>298.2</ele>
        <time>2025-01-19T11:28:31Z</time>
      </trkpt>
      <trkpt lat="43.40623" lon="6.64758">
        <ele>298.2</ele>
        <time>2025-01-19T11:28:32Z</time>
      </trkpt>
      <trkpt lat="43.40624" lon="6.64758">
        <ele>298.2</ele>
        <time>2025-01-19T11:28:33Z</time>
      </trkpt>
      <trkpt lat="43.40625" lon="6.6476">
        <ele>298.2</ele>
        <time>2025-01-19T11:28:34Z</time>
      </trkpt>
      <trkpt lat="43.40625" lon="6.6476">
        <ele>298.3</ele>
        <time>2025-01-19T11:28:35Z</time>
      </trkpt>
      <trkpt lat="43.40626" lon="6.64761">
        <ele>298.3</ele>
        <time>2025-01-19T11:28:36Z</time>
      </trkpt>
      <trkpt lat="43.40627" lon="6.64762">
        <ele>298.4</ele>
        <time>2025-01-19T11:28:37Z</time>
      </trkpt>
      <trkpt lat="43.40628" lon="6.64763">
        <ele>298.5</ele>
        <time>2025-01-19T11:28:38Z</time>
      </trkpt>
      <trkpt lat="43.40629" lon="6.64764">
        <ele>298.5</ele>
        <time>2025-01-19T11:28:39Z</time>
      </trkpt>
      <trkpt lat="43.4063" lon="6.64764">
        <ele>298.6</ele>
        <time>2025-01-19T11:28:40Z</time>
      </trkpt>
      <trkpt lat="43.40631" lon="6.64765">
        <ele>298.7</ele>
        <time>2025-01-19T11:28:41Z</time>
      </trkpt>
      <trkpt lat="43.40632" lon="6.64766">
        <ele>298.7</ele>
        <time>2025-01-19T11:28:42Z</time>
      </trkpt>
      <trkpt lat="43.40633" lon="6.64767">
        <ele>298.8</ele>
        <time>2025-01-19T11:28:43Z</time>
      </trkpt>
      <trkpt lat="43.40634" lon="6.64767">
        <ele>298.9</ele>
        <time>2025-01-19T11:28:44Z</time>
      </trkpt>
      <trkpt lat="43.40635" lon="6.64768">
        <ele>299</ele>
        <time>2025-01-19T11:28:45Z</time>
      </trkpt>
      <trkpt lat="43.40636" lon="6.64768">
        <ele>299.1</ele>
        <time>2025-01-19T11:28:46Z</time>
      </trkpt>
      <trkpt lat="43.40637" lon="6.64769">
        <ele>299.1</ele>
        <time>2025-01-19T11:28:47Z</time>
      </trkpt>
      <trkpt lat="43.40638" lon="6.64769">
        <ele>299.1</ele>
        <time>2025-01-19T11:28:48Z</time>
      </trkpt>
      <trkpt lat="43.40638" lon="6.64769">
        <ele>299</ele>
        <time>2025-01-19T11:28:49Z</time>
      </trkpt>
      <trkpt lat="43.40639" lon="6.6477">
        <ele>299.1</ele>
        <time>2025-01-19T11:28:50Z</time>
      </trkpt>
      <trkpt lat="43.4064" lon="6.6477">
        <ele>299.2</ele>
        <time>2025-01-19T11:28:51Z</time>
      </trkpt>
      <trkpt lat="43.40641" lon="6.64771">
        <ele>299.3</ele>
        <time>2025-01-19T11:28:52Z</time>
      </trkpt>
      <trkpt lat="43.40641" lon="6.64771">
        <ele>299.3</ele>
        <time>2025-01-19T11:28:53Z</time>
      </trkpt>
      <trkpt lat="43.40642" lon="6.64771">
        <ele>299.3</ele>
        <time>2025-01-19T11:28:54Z</time>
      </trkpt>
      <trkpt lat="43.40643" lon="6.64771">
        <ele>299.5</ele>
        <time>2025-01-19T11:28:55Z</time>
      </trkpt>
      <trkpt lat="43.40644" lon="6.64771">
        <ele>299.6</ele>
        <time>2025-01-19T11:28:56Z</time>
      </trkpt>
      <trkpt lat="43.40645" lon="6.64771">
        <ele>299.8</ele>
        <time>2025-01-19T11:28:57Z</time>
      </trkpt>
      <trkpt lat="43.40646" lon="6.64771">
        <ele>300</ele>
        <time>2025-01-19T11:28:58Z</time>
      </trkpt>
      <trkpt lat="43.40647" lon="6.64771">
        <ele>300.2</ele>
        <time>2025-01-19T11:28:59Z</time>
      </trkpt>
      <trkpt lat="43.40648" lon="6.64771">
        <ele>300.4</ele>
        <time>2025-01-19T11:29:00Z</time>
      </trkpt>
      <trkpt lat="43.40649" lon="6.64771">
        <ele>300.6</ele>
        <time>2025-01-19T11:29:01Z</time>
      </trkpt>
      <trkpt lat="43.4065" lon="6.6477">
        <ele>300.8</ele>
        <time>2025-01-19T11:29:02Z</time>
      </trkpt>
      <trkpt lat="43.40651" lon="6.6477">
        <ele>301</ele>
        <time>2025-01-19T11:29:03Z</time>
      </trkpt>
      <trkpt lat="43.40652" lon="6.64769">
        <ele>301.2</ele>
        <time>2025-01-19T11:29:04Z</time>
      </trkpt>
      <trkpt lat="43.40653" lon="6.64769">
        <ele>301.3</ele>
        <time>2025-01-19T11:29:05Z</time>
      </trkpt>
      <trkpt lat="43.40654" lon="6.64768">
        <ele>301.4</ele>
        <time>2025-01-19T11:29:06Z</time>
      </trkpt>
      <trkpt lat="43.40655" lon="6.64767">
        <ele>301.5</ele>
        <time>2025-01-19T11:29:07Z</time>
      </trkpt>
      <trkpt lat="43.40656" lon="6.64767">
        <ele>301.6</ele>
        <time>2025-01-19T11:29:08Z</time>
      </trkpt>
      <trkpt lat="43.40657" lon="6.64766">
        <ele>301.8</ele>
        <time>2025-01-19T11:29:09Z</time>
      </trkpt>
      <trkpt lat="43.40658" lon="6.64765">
        <ele>302</ele>
        <time>2025-01-19T11:29:10Z</time>
      </trkpt>
      <trkpt lat="43.40659" lon="6.64764">
        <ele>302.1</ele>
        <time>2025-01-19T11:29:11Z</time>
      </trkpt>
      <trkpt lat="43.4066" lon="6.64764">
        <ele>302.2</ele>
        <time>2025-01-19T11:29:12Z</time>
      </trkpt>
      <trkpt lat="43.40661" lon="6.64762">
        <ele>302.3</ele>
        <time>2025-01-19T11:29:13Z</time>
      </trkpt>
      <trkpt lat="43.40661" lon="6.64761">
        <ele>302.4</ele>
        <time>2025-01-19T11:29:14Z</time>
      </trkpt>
      <trkpt lat="43.40662" lon="6.6476">
        <ele>302.5</ele>
        <time>2025-01-19T11:29:15Z</time>
      </trkpt>
      <trkpt lat="43.40663" lon="6.64759">
        <ele>302.6</ele>
        <time>2025-01-19T11:29:16Z</time>
      </trkpt>
      <trkpt lat="43.40664" lon="6.64758">
        <ele>302.6</ele>
        <time>2025-01-19T11:29:17Z</time>
      </trkpt>
      <trkpt lat="43.40665" lon="6.64757">
        <ele>302.8</ele>
        <time>2025-01-19T11:29:18Z</time>
      </trkpt>
      <trkpt lat="43.40666" lon="6.64756">
        <ele>303</ele>
        <time>2025-01-19T11:29:19Z</time>
      </trkpt>
      <trkpt lat="43.40667" lon="6.64755">
        <ele>303.1</ele>
        <time>2025-01-19T11:29:20Z</time>
      </trkpt>
      <trkpt lat="43.40667" lon="6.64754">
        <ele>303.3</ele>
        <time>2025-01-19T11:29:21Z</time>
      </trkpt>
      <trkpt lat="43.40668" lon="6.64753">
        <ele>303.4</ele>
        <time>2025-01-19T11:29:22Z</time>
      </trkpt>
      <trkpt lat="43.40669" lon="6.64753">
        <ele>303.5</ele>
        <time>2025-01-19T11:29:23Z</time>
      </trkpt>
      <trkpt lat="43.40669" lon="6.64752">
        <ele>303.7</ele>
        <time>2025-01-19T11:29:24Z</time>
      </trkpt>
      <trkpt lat="43.4067" lon="6.64752">
        <ele>303.9</ele>
        <time>2025-01-19T11:29:25Z</time>
      </trkpt>
      <trkpt lat="43.40671" lon="6.64751">
        <ele>304</ele>
        <time>2025-01-19T11:29:26Z</time>
      </trkpt>
      <trkpt lat="43.40671" lon="6.6475">
        <ele>304.1</ele>
        <time>2025-01-19T11:29:27Z</time>
      </trkpt>
      <trkpt lat="43.40672" lon="6.6475">
        <ele>304.3</ele>
        <time>2025-01-19T11:29:28Z</time>
      </trkpt>
      <trkpt lat="43.40672" lon="6.64749">
        <ele>304.4</ele>
        <time>2025-01-19T11:29:29Z</time>
      </trkpt>
      <trkpt lat="43.40673" lon="6.64749">
        <ele>304.5</ele>
        <time>2025-01-19T11:29:30Z</time>
      </trkpt>
      <trkpt lat="43.40673" lon="6.64748">
        <ele>304.6</ele>
        <time>2025-01-19T11:29:31Z</time>
      </trkpt>
      <trkpt lat="43.40673" lon="6.64747">
        <ele>304.8</ele>
        <time>2025-01-19T11:29:32Z</time>
      </trkpt>
      <trkpt lat="43.40674" lon="6.64747">
        <ele>304.9</ele>
        <time>2025-01-19T11:29:33Z</time>
      </trkpt>
      <trkpt lat="43.40675" lon="6.64746">
        <ele>305.1</ele>
        <time>2025-01-19T11:29:34Z</time>
      </trkpt>
      <trkpt lat="43.40675" lon="6.64744">
        <ele>305.3</ele>
        <time>2025-01-19T11:29:35Z</time>
      </trkpt>
      <trkpt lat="43.40675" lon="6.64744">
        <ele>305.5</ele>
        <time>2025-01-19T11:29:36Z</time>
      </trkpt>
      <trkpt lat="43.40676" lon="6.64743">
        <ele>305.6</ele>
        <time>2025-01-19T11:29:37Z</time>
      </trkpt>
      <trkpt lat="43.40676" lon="6.64743">
        <ele>305.8</ele>
        <time>2025-01-19T11:29:38Z</time>
      </trkpt>
      <trkpt lat="43.40677" lon="6.64742">
        <ele>305.9</ele>
        <time>2025-01-19T11:29:39Z</time>
      </trkpt>
      <trkpt lat="43.40677" lon="6.64742">
        <ele>306</ele>
        <time>2025-01-19T11:29:40Z</time>
      </trkpt>
      <trkpt lat="43.40678" lon="6.64741">
        <ele>306.2</ele>
        <time>2025-01-19T11:29:41Z</time>
      </trkpt>
      <trkpt lat="43.40678" lon="6.64741">
        <ele>306.3</ele>
        <time>2025-01-19T11:29:42Z</time>
      </trkpt>
      <trkpt lat="43.4068" lon="6.6474">
        <ele>306.4</ele>
        <time>2025-01-19T11:29:43Z</time>
      </trkpt>
      <trkpt lat="43.40681" lon="6.6474">
        <ele>306.5</ele>
        <time>2025-01-19T11:29:44Z</time>
      </trkpt>
      <trkpt lat="43.40681" lon="6.6474">
        <ele>306.7</ele>
        <time>2025-01-19T11:29:45Z</time>
      </trkpt>
      <trkpt lat="43.40682" lon="6.64739">
        <ele>306.9</ele>
        <time>2025-01-19T11:29:46Z</time>
      </trkpt>
      <trkpt lat="43.40683" lon="6.64738">
        <ele>307.1</ele>
        <time>2025-01-19T11:29:47Z</time>
      </trkpt>
      <trkpt lat="43.40683" lon="6.64738">
        <ele>307.3</ele>
        <time>2025-01-19T11:29:48Z</time>
      </trkpt>
      <trkpt lat="43.40684" lon="6.64737">
        <ele>307.5</ele>
        <time>2025-01-19T11:29:49Z</time>
      </trkpt>
      <trkpt lat="43.40684" lon="6.64736">
        <ele>307.6</ele>
        <time>2025-01-19T11:29:50Z</time>
      </trkpt>
      <trkpt lat="43.40685" lon="6.64735">
        <ele>307.8</ele>
        <time>2025-01-19T11:29:51Z</time>
      </trkpt>
      <trkpt lat="43.40686" lon="6.64734">
        <ele>307.9</ele>
        <time>2025-01-19T11:29:52Z</time>
      </trkpt>
      <trkpt lat="43.40686" lon="6.64733">
        <ele>308</ele>
        <time>2025-01-19T11:29:53Z</time>
      </trkpt>
      <trkpt lat="43.40687" lon="6.64732">
        <ele>308.2</ele>
        <time>2025-01-19T11:29:54Z</time>
      </trkpt>
      <trkpt lat="43.40687" lon="6.64731">
        <ele>308.4</ele>
        <time>2025-01-19T11:29:55Z</time>
      </trkpt>
      <trkpt lat="43.40688" lon="6.64729">
        <ele>308.5</ele>
        <time>2025-01-19T11:29:56Z</time>
      </trkpt>
      <trkpt lat="43.40689" lon="6.64728">
        <ele>308.6</ele>
        <time>2025-01-19T11:29:57Z</time>
      </trkpt>
      <trkpt lat="43.40689" lon="6.64727">
        <ele>308.8</ele>
        <time>2025-01-19T11:29:58Z</time>
      </trkpt>
      <trkpt lat="43.4069" lon="6.64726">
        <ele>309</ele>
        <time>2025-01-19T11:29:59Z</time>
      </trkpt>
      <trkpt lat="43.40691" lon="6.64725">
        <ele>309.1</ele>
        <time>2025-01-19T11:30:00Z</time>
      </trkpt>
      <trkpt lat="43.40692" lon="6.64725">
        <ele>309.2</ele>
        <time>2025-01-19T11:30:01Z</time>
      </trkpt>
      <trkpt lat="43.40692" lon="6.64724">
        <ele>309.4</ele>
        <time>2025-01-19T11:30:02Z</time>
      </trkpt>
      <trkpt lat="43.40693" lon="6.64723">
        <ele>309.5</ele>
        <time>2025-01-19T11:30:03Z</time>
      </trkpt>
      <trkpt lat="43.40694" lon="6.64722">
        <ele>309.7</ele>
        <time>2025-01-19T11:30:04Z</time>
      </trkpt>
      <trkpt lat="43.40695" lon="6.64721">
        <ele>309.9</ele>
        <time>2025-01-19T11:30:05Z</time>
      </trkpt>
      <trkpt lat="43.40695" lon="6.64721">
        <ele>310</ele>
        <time>2025-01-19T11:30:06Z</time>
      </trkpt>
      <trkpt lat="43.40696" lon="6.64719">
        <ele>310.2</ele>
        <time>2025-01-19T11:30:07Z</time>
      </trkpt>
      <trkpt lat="43.40697" lon="6.64719">
        <ele>310.3</ele>
        <time>2025-01-19T11:30:08Z</time>
      </trkpt>
      <trkpt lat="43.40697" lon="6.64718">
        <ele>310.2</ele>
        <time>2025-01-19T11:30:09Z</time>
      </trkpt>
      <trkpt lat="43.40699" lon="6.64717">
        <ele>310.3</ele>
        <time>2025-01-19T11:30:10Z</time>
      </trkpt>
      <trkpt lat="43.40699" lon="6.64716">
        <ele>310.3</ele>
        <time>2025-01-19T11:30:11Z</time>
      </trkpt>
      <trkpt lat="43.407" lon="6.64715">
        <ele>310.4</ele>
        <time>2025-01-19T11:30:12Z</time>
      </trkpt>
      <trkpt lat="43.407" lon="6.64714">
        <ele>310.5</ele>
        <time>2025-01-19T11:30:13Z</time>
      </trkpt>
      <trkpt lat="43.40701" lon="6.64713">
        <ele>310.6</ele>
        <time>2025-01-19T11:30:14Z</time>
      </trkpt>
      <trkpt lat="43.40701" lon="6.64713">
        <ele>310.7</ele>
        <time>2025-01-19T11:30:15Z</time>
      </trkpt>
      <trkpt lat="43.40701" lon="6.64713">
        <ele>310.7</ele>
        <time>2025-01-19T11:30:16Z</time>
      </trkpt>
      <trkpt lat="43.40701" lon="6.64713">
        <ele>310.8</ele>
        <time>2025-01-19T11:30:17Z</time>
      </trkpt>
      <trkpt lat="43.40702" lon="6.64713">
        <ele>310.9</ele>
        <time>2025-01-19T11:30:18Z</time>
      </trkpt>
      <trkpt lat="43.40702" lon="6.64713">
        <ele>310.9</ele>
        <time>2025-01-19T11:30:19Z</time>
      </trkpt>
      <trkpt lat="43.40703" lon="6.64712">
        <ele>311</ele>
        <time>2025-01-19T11:30:20Z</time>
      </trkpt>
      <trkpt lat="43.40703" lon="6.64711">
        <ele>311</ele>
        <time>2025-01-19T11:30:21Z</time>
      </trkpt>
      <trkpt lat="43.40704" lon="6.6471">
        <ele>311</ele>
        <time>2025-01-19T11:30:22Z</time>
      </trkpt>
      <trkpt lat="43.40704" lon="6.64709">
        <ele>311</ele>
        <time>2025-01-19T11:30:23Z</time>
      </trkpt>
      <trkpt lat="43.40704" lon="6.64708">
        <ele>311.1</ele>
        <time>2025-01-19T11:30:24Z</time>
      </trkpt>
      <trkpt lat="43.40704" lon="6.64706">
        <ele>311.2</ele>
        <time>2025-01-19T11:30:25Z</time>
      </trkpt>
      <trkpt lat="43.40704" lon="6.64706">
        <ele>311.3</ele>
        <time>2025-01-19T11:30:26Z</time>
      </trkpt>
      <trkpt lat="43.40705" lon="6.64704">
        <ele>311.3</ele>
        <time>2025-01-19T11:30:27Z</time>
      </trkpt>
      <trkpt lat="43.40705" lon="6.64703">
        <ele>311.3</ele>
        <time>2025-01-19T11:30:28Z</time>
      </trkpt>
      <trkpt lat="43.40705" lon="6.64702">
        <ele>311.4</ele>
        <time>2025-01-19T11:30:29Z</time>
      </trkpt>
      <trkpt lat="43.40705" lon="6.647">
        <ele>311.4</ele>
        <time>2025-01-19T11:30:30Z</time>
      </trkpt>
      <trkpt lat="43.40705" lon="6.64699">
        <ele>311.4</ele>
        <time>2025-01-19T11:30:31Z</time>
      </trkpt>
      <trkpt lat="43.40706" lon="6.64698">
        <ele>311.4</ele>
        <time>2025-01-19T11:30:32Z</time>
      </trkpt>
      <trkpt lat="43.40706" lon="6.64697">
        <ele>311.3</ele>
        <time>2025-01-19T11:30:33Z</time>
      </trkpt>
      <trkpt lat="43.40706" lon="6.64695">
        <ele>311.3</ele>
        <time>2025-01-19T11:30:34Z</time>
      </trkpt>
      <trkpt lat="43.40707" lon="6.64694">
        <ele>311.3</ele>
        <time>2025-01-19T11:30:35Z</time>
      </trkpt>
      <trkpt lat="43.40708" lon="6.64693">
        <ele>311.3</ele>
        <time>2025-01-19T11:30:36Z</time>
      </trkpt>
      <trkpt lat="43.40708" lon="6.64692">
        <ele>311.3</ele>
        <time>2025-01-19T11:30:37Z</time>
      </trkpt>
      <trkpt lat="43.40709" lon="6.64691">
        <ele>311.3</ele>
        <time>2025-01-19T11:30:38Z</time>
      </trkpt>
      <trkpt lat="43.4071" lon="6.64689">
        <ele>311.4</ele>
        <time>2025-01-19T11:30:39Z</time>
      </trkpt>
      <trkpt lat="43.40711" lon="6.64688">
        <ele>311.4</ele>
        <time>2025-01-19T11:30:40Z</time>
      </trkpt>
      <trkpt lat="43.40711" lon="6.64687">
        <ele>311.4</ele>
        <time>2025-01-19T11:30:41Z</time>
      </trkpt>
      <trkpt lat="43.40712" lon="6.64686">
        <ele>311.5</ele>
        <time>2025-01-19T11:30:42Z</time>
      </trkpt>
      <trkpt lat="43.40713" lon="6.64685">
        <ele>311.4</ele>
        <time>2025-01-19T11:30:43Z</time>
      </trkpt>
      <trkpt lat="43.40714" lon="6.64683">
        <ele>311.5</ele>
        <time>2025-01-19T11:30:44Z</time>
      </trkpt>
      <trkpt lat="43.40714" lon="6.64682">
        <ele>311.4</ele>
        <time>2025-01-19T11:30:45Z</time>
      </trkpt>
      <trkpt lat="43.40715" lon="6.64681">
        <ele>311.3</ele>
        <time>2025-01-19T11:30:46Z</time>
      </trkpt>
      <trkpt lat="43.40716" lon="6.64679">
        <ele>311.3</ele>
        <time>2025-01-19T11:30:47Z</time>
      </trkpt>
      <trkpt lat="43.40717" lon="6.64678">
        <ele>311.2</ele>
        <time>2025-01-19T11:30:48Z</time>
      </trkpt>
      <trkpt lat="43.40718" lon="6.64677">
        <ele>311.1</ele>
        <time>2025-01-19T11:30:49Z</time>
      </trkpt>
      <trkpt lat="43.40718" lon="6.64676">
        <ele>311</ele>
        <time>2025-01-19T11:30:50Z</time>
      </trkpt>
      <trkpt lat="43.40719" lon="6.64675">
        <ele>311</ele>
        <time>2025-01-19T11:30:51Z</time>
      </trkpt>
      <trkpt lat="43.4072" lon="6.64674">
        <ele>310.9</ele>
        <time>2025-01-19T11:30:52Z</time>
      </trkpt>
      <trkpt lat="43.40721" lon="6.64674">
        <ele>310.9</ele>
        <time>2025-01-19T11:30:53Z</time>
      </trkpt>
      <trkpt lat="43.40722" lon="6.64673">
        <ele>310.8</ele>
        <time>2025-01-19T11:30:54Z</time>
      </trkpt>
      <trkpt lat="43.40723" lon="6.64672">
        <ele>310.7</ele>
        <time>2025-01-19T11:30:55Z</time>
      </trkpt>
      <trkpt lat="43.40724" lon="6.6467">
        <ele>310.6</ele>
        <time>2025-01-19T11:30:56Z</time>
      </trkpt>
      <trkpt lat="43.40725" lon="6.64669">
        <ele>310.4</ele>
        <time>2025-01-19T11:30:57Z</time>
      </trkpt>
      <trkpt lat="43.40725" lon="6.64669">
        <ele>310.2</ele>
        <time>2025-01-19T11:30:58Z</time>
      </trkpt>
      <trkpt lat="43.40726" lon="6.64668">
        <ele>310</ele>
        <time>2025-01-19T11:30:59Z</time>
      </trkpt>
      <trkpt lat="43.40727" lon="6.64668">
        <ele>309.9</ele>
        <time>2025-01-19T11:31:00Z</time>
      </trkpt>
      <trkpt lat="43.40728" lon="6.64667">
        <ele>309.7</ele>
        <time>2025-01-19T11:31:01Z</time>
      </trkpt>
      <trkpt lat="43.40729" lon="6.64667">
        <ele>309.7</ele>
        <time>2025-01-19T11:31:02Z</time>
      </trkpt>
      <trkpt lat="43.4073" lon="6.64666">
        <ele>309.6</ele>
        <time>2025-01-19T11:31:03Z</time>
      </trkpt>
      <trkpt lat="43.40731" lon="6.64666">
        <ele>309.4</ele>
        <time>2025-01-19T11:31:04Z</time>
      </trkpt>
      <trkpt lat="43.40732" lon="6.64665">
        <ele>309.3</ele>
        <time>2025-01-19T11:31:05Z</time>
      </trkpt>
      <trkpt lat="43.40732" lon="6.64664">
        <ele>309.2</ele>
        <time>2025-01-19T11:31:06Z</time>
      </trkpt>
      <trkpt lat="43.40733" lon="6.64664">
        <ele>309.1</ele>
        <time>2025-01-19T11:31:07Z</time>
      </trkpt>
      <trkpt lat="43.40734" lon="6.64664">
        <ele>309.1</ele>
        <time>2025-01-19T11:31:08Z</time>
      </trkpt>
      <trkpt lat="43.40735" lon="6.64663">
        <ele>309</ele>
        <time>2025-01-19T11:31:09Z</time>
      </trkpt>
      <trkpt lat="43.40736" lon="6.64663">
        <ele>308.9</ele>
        <time>2025-01-19T11:31:10Z</time>
      </trkpt>
      <trkpt lat="43.40737" lon="6.64662">
        <ele>308.8</ele>
        <time>2025-01-19T11:31:11Z</time>
      </trkpt>
      <trkpt lat="43.40737" lon="6.64662">
        <ele>308.7</ele>
        <time>2025-01-19T11:31:12Z</time>
      </trkpt>
      <trkpt lat="43.40738" lon="6.64661">
        <ele>308.6</ele>
        <time>2025-01-19T11:31:13Z</time>
      </trkpt>
      <trkpt lat="43.40739" lon="6.64661">
        <ele>308.5</ele>
        <time>2025-01-19T11:31:14Z</time>
      </trkpt>
      <trkpt lat="43.40739" lon="6.6466">
        <ele>308.4</ele>
        <time>2025-01-19T11:31:15Z</time>
      </trkpt>
      <trkpt lat="43.4074" lon="6.64659">
        <ele>308.3</ele>
        <time>2025-01-19T11:31:16Z</time>
      </trkpt>
      <trkpt lat="43.40741" lon="6.64659">
        <ele>308.3</ele>
        <time>2025-01-19T11:31:17Z</time>
      </trkpt>
      <trkpt lat="43.40742" lon="6.64658">
        <ele>308.2</ele>
        <time>2025-01-19T11:31:18Z</time>
      </trkpt>
      <trkpt lat="43.40742" lon="6.64657">
        <ele>308.2</ele>
        <time>2025-01-19T11:31:19Z</time>
      </trkpt>
      <trkpt lat="43.40743" lon="6.64657">
        <ele>308</ele>
        <time>2025-01-19T11:31:20Z</time>
      </trkpt>
      <trkpt lat="43.40743" lon="6.64656">
        <ele>308</ele>
        <time>2025-01-19T11:31:21Z</time>
      </trkpt>
      <trkpt lat="43.40744" lon="6.64655">
        <ele>307.9</ele>
        <time>2025-01-19T11:31:22Z</time>
      </trkpt>
      <trkpt lat="43.40745" lon="6.64654">
        <ele>307.8</ele>
        <time>2025-01-19T11:31:23Z</time>
      </trkpt>
      <trkpt lat="43.40746" lon="6.64654">
        <ele>307.7</ele>
        <time>2025-01-19T11:31:24Z</time>
      </trkpt>
      <trkpt lat="43.40746" lon="6.64653">
        <ele>307.6</ele>
        <time>2025-01-19T11:31:25Z</time>
      </trkpt>
      <trkpt lat="43.40748" lon="6.64652">
        <ele>307.5</ele>
        <time>2025-01-19T11:31:26Z</time>
      </trkpt>
      <trkpt lat="43.40748" lon="6.64652">
        <ele>307.4</ele>
        <time>2025-01-19T11:31:27Z</time>
      </trkpt>
      <trkpt lat="43.40749" lon="6.64651">
        <ele>307.2</ele>
        <time>2025-01-19T11:31:28Z</time>
      </trkpt>
      <trkpt lat="43.40751" lon="6.64651">
        <ele>307.1</ele>
        <time>2025-01-19T11:31:29Z</time>
      </trkpt>
      <trkpt lat="43.40752" lon="6.64651">
        <ele>306.9</ele>
        <time>2025-01-19T11:31:30Z</time>
      </trkpt>
      <trkpt lat="43.40753" lon="6.64651">
        <ele>306.8</ele>
        <time>2025-01-19T11:31:31Z</time>
      </trkpt>
      <trkpt lat="43.40754" lon="6.64651">
        <ele>306.7</ele>
        <time>2025-01-19T11:31:32Z</time>
      </trkpt>
      <trkpt lat="43.40754" lon="6.6465">
        <ele>306.6</ele>
        <time>2025-01-19T11:31:33Z</time>
      </trkpt>
      <trkpt lat="43.40756" lon="6.6465">
        <ele>306.4</ele>
        <time>2025-01-19T11:31:34Z</time>
      </trkpt>
      <trkpt lat="43.40758" lon="6.6465">
        <ele>306.3</ele>
        <time>2025-01-19T11:31:35Z</time>
      </trkpt>
      <trkpt lat="43.40759" lon="6.64648">
        <ele>306.1</ele>
        <time>2025-01-19T11:31:36Z</time>
      </trkpt>
      <trkpt lat="43.4076" lon="6.64648">
        <ele>306</ele>
        <time>2025-01-19T11:31:37Z</time>
      </trkpt>
      <trkpt lat="43.40762" lon="6.64648">
        <ele>305.8</ele>
        <time>2025-01-19T11:31:38Z</time>
      </trkpt>
      <trkpt lat="43.40763" lon="6.64647">
        <ele>305.7</ele>
        <time>2025-01-19T11:31:39Z</time>
      </trkpt>
      <trkpt lat="43.40763" lon="6.64646">
        <ele>305.7</ele>
        <time>2025-01-19T11:31:40Z</time>
      </trkpt>
      <trkpt lat="43.40763" lon="6.64645">
        <ele>305.6</ele>
        <time>2025-01-19T11:31:41Z</time>
      </trkpt>
      <trkpt lat="43.40764" lon="6.64644">
        <ele>305.5</ele>
        <time>2025-01-19T11:31:42Z</time>
      </trkpt>
      <trkpt lat="43.40765" lon="6.64644">
        <ele>305.4</ele>
        <time>2025-01-19T11:31:43Z</time>
      </trkpt>
      <trkpt lat="43.40766" lon="6.64643">
        <ele>305.3</ele>
        <time>2025-01-19T11:31:44Z</time>
      </trkpt>
      <trkpt lat="43.40766" lon="6.64642">
        <ele>305.2</ele>
        <time>2025-01-19T11:31:45Z</time>
      </trkpt>
      <trkpt lat="43.40767" lon="6.64641">
        <ele>305.1</ele>
        <time>2025-01-19T11:31:46Z</time>
      </trkpt>
      <trkpt lat="43.40768" lon="6.64639">
        <ele>305</ele>
        <time>2025-01-19T11:31:47Z</time>
      </trkpt>
      <trkpt lat="43.40768" lon="6.64638">
        <ele>304.9</ele>
        <time>2025-01-19T11:31:48Z</time>
      </trkpt>
      <trkpt lat="43.40768" lon="6.64637">
        <ele>304.8</ele>
        <time>2025-01-19T11:31:49Z</time>
      </trkpt>
      <trkpt lat="43.40768" lon="6.64634">
        <ele>304.8</ele>
        <time>2025-01-19T11:31:50Z</time>
      </trkpt>
      <trkpt lat="43.40769" lon="6.64633">
        <ele>304.6</ele>
        <time>2025-01-19T11:31:51Z</time>
      </trkpt>
      <trkpt lat="43.4077" lon="6.64633">
        <ele>304.5</ele>
        <time>2025-01-19T11:31:52Z</time>
      </trkpt>
      <trkpt lat="43.40771" lon="6.64632">
        <ele>304.4</ele>
        <time>2025-01-19T11:31:53Z</time>
      </trkpt>
      <trkpt lat="43.40771" lon="6.64631">
        <ele>304.2</ele>
        <time>2025-01-19T11:31:54Z</time>
      </trkpt>
      <trkpt lat="43.40773" lon="6.6463">
        <ele>304.1</ele>
        <time>2025-01-19T11:31:55Z</time>
      </trkpt>
      <trkpt lat="43.40773" lon="6.6463">
        <ele>304</ele>
        <time>2025-01-19T11:31:56Z</time>
      </trkpt>
      <trkpt lat="43.40774" lon="6.64628">
        <ele>303.8</ele>
        <time>2025-01-19T11:31:57Z</time>
      </trkpt>
      <trkpt lat="43.40774" lon="6.64628">
        <ele>303.6</ele>
        <time>2025-01-19T11:31:58Z</time>
      </trkpt>
      <trkpt lat="43.40775" lon="6.64627">
        <ele>303.4</ele>
        <time>2025-01-19T11:31:59Z</time>
      </trkpt>
      <trkpt lat="43.40775" lon="6.64626">
        <ele>303.2</ele>
        <time>2025-01-19T11:32:00Z</time>
      </trkpt>
      <trkpt lat="43.40776" lon="6.64625">
        <ele>303</ele>
        <time>2025-01-19T11:32:01Z</time>
      </trkpt>
      <trkpt lat="43.40776" lon="6.64624">
        <ele>302.9</ele>
        <time>2025-01-19T11:32:02Z</time>
      </trkpt>
      <trkpt lat="43.40777" lon="6.64623">
        <ele>302.7</ele>
        <time>2025-01-19T11:32:03Z</time>
      </trkpt>
      <trkpt lat="43.40778" lon="6.64623">
        <ele>302.6</ele>
        <time>2025-01-19T11:32:04Z</time>
      </trkpt>
      <trkpt lat="43.40779" lon="6.64621">
        <ele>302.5</ele>
        <time>2025-01-19T11:32:05Z</time>
      </trkpt>
      <trkpt lat="43.40779" lon="6.6462">
        <ele>302.3</ele>
        <time>2025-01-19T11:32:06Z</time>
      </trkpt>
      <trkpt lat="43.4078" lon="6.64619">
        <ele>302</ele>
        <time>2025-01-19T11:32:07Z</time>
      </trkpt>
      <trkpt lat="43.40781" lon="6.64619">
        <ele>301.9</ele>
        <time>2025-01-19T11:32:08Z</time>
      </trkpt>
      <trkpt lat="43.40781" lon="6.64617">
        <ele>301.7</ele>
        <time>2025-01-19T11:32:09Z</time>
      </trkpt>
      <trkpt lat="43.40782" lon="6.64617">
        <ele>301.6</ele>
        <time>2025-01-19T11:32:10Z</time>
      </trkpt>
      <trkpt lat="43.40782" lon="6.64616">
        <ele>301.4</ele>
        <time>2025-01-19T11:32:11Z</time>
      </trkpt>
      <trkpt lat="43.40783" lon="6.64615">
        <ele>301.3</ele>
        <time>2025-01-19T11:32:12Z</time>
      </trkpt>
      <trkpt lat="43.40783" lon="6.64613">
        <ele>301.1</ele>
        <time>2025-01-19T11:32:13Z</time>
      </trkpt>
      <trkpt lat="43.40783" lon="6.64612">
        <ele>301.1</ele>
        <time>2025-01-19T11:32:14Z</time>
      </trkpt>
      <trkpt lat="43.40783" lon="6.64612">
        <ele>300.9</ele>
        <time>2025-01-19T11:32:15Z</time>
      </trkpt>
      <trkpt lat="43.40784" lon="6.64612">
        <ele>300.8</ele>
        <time>2025-01-19T11:32:16Z</time>
      </trkpt>
      <trkpt lat="43.40785" lon="6.64611">
        <ele>300.7</ele>
        <time>2025-01-19T11:32:17Z</time>
      </trkpt>
      <trkpt lat="43.40785" lon="6.64611">
        <ele>300.5</ele>
        <time>2025-01-19T11:32:18Z</time>
      </trkpt>
      <trkpt lat="43.40785" lon="6.6461">
        <ele>300.3</ele>
        <time>2025-01-19T11:32:19Z</time>
      </trkpt>
      <trkpt lat="43.40786" lon="6.6461">
        <ele>300.1</ele>
        <time>2025-01-19T11:32:20Z</time>
      </trkpt>
      <trkpt lat="43.40786" lon="6.6461">
        <ele>300</ele>
        <time>2025-01-19T11:32:21Z</time>
      </trkpt>
      <trkpt lat="43.40787" lon="6.6461">
        <ele>299.9</ele>
        <time>2025-01-19T11:32:22Z</time>
      </trkpt>
      <trkpt lat="43.40787" lon="6.64609">
        <ele>299.8</ele>
        <time>2025-01-19T11:32:23Z</time>
      </trkpt>
      <trkpt lat="43.40787" lon="6.64609">
        <ele>299.8</ele>
        <time>2025-01-19T11:32:24Z</time>
      </trkpt>
      <trkpt lat="43.40788" lon="6.64609">
        <ele>299.7</ele>
        <time>2025-01-19T11:32:25Z</time>
      </trkpt>
      <trkpt lat="43.40788" lon="6.64609">
        <ele>299.7</ele>
        <time>2025-01-19T11:32:26Z</time>
      </trkpt>
      <trkpt lat="43.40788" lon="6.64609">
        <ele>299.7</ele>
        <time>2025-01-19T11:32:27Z</time>
      </trkpt>
      <trkpt lat="43.40789" lon="6.64608">
        <ele>299.5</ele>
        <time>2025-01-19T11:32:28Z</time>
      </trkpt>
      <trkpt lat="43.4079" lon="6.64607">
        <ele>299.5</ele>
        <time>2025-01-19T11:32:29Z</time>
      </trkpt>
      <trkpt lat="43.40791" lon="6.64606">
        <ele>299.4</ele>
        <time>2025-01-19T11:32:30Z</time>
      </trkpt>
      <trkpt lat="43.40792" lon="6.64605">
        <ele>299.4</ele>
        <time>2025-01-19T11:32:31Z</time>
      </trkpt>
      <trkpt lat="43.40793" lon="6.64603">
        <ele>299.3</ele>
        <time>2025-01-19T11:32:32Z</time>
      </trkpt>
      <trkpt lat="43.40794" lon="6.64603">
        <ele>299.2</ele>
        <time>2025-01-19T11:32:33Z</time>
      </trkpt>
      <trkpt lat="43.40794" lon="6.64602">
        <ele>299</ele>
        <time>2025-01-19T11:32:34Z</time>
      </trkpt>
      <trkpt lat="43.40795" lon="6.64601">
        <ele>298.9</ele>
        <time>2025-01-19T11:32:35Z</time>
      </trkpt>
      <trkpt lat="43.40795" lon="6.64601">
        <ele>298.7</ele>
        <time>2025-01-19T11:32:36Z</time>
      </trkpt>
      <trkpt lat="43.40794" lon="6.646">
        <ele>298.6</ele>
        <time>2025-01-19T11:32:37Z</time>
      </trkpt>
      <trkpt lat="43.40796" lon="6.64601">
        <ele>298.4</ele>
        <time>2025-01-19T11:32:38Z</time>
      </trkpt>
      <trkpt lat="43.40797" lon="6.64599">
        <ele>298.3</ele>
        <time>2025-01-19T11:32:39Z</time>
      </trkpt>
      <trkpt lat="43.40798" lon="6.64599">
        <ele>298.2</ele>
        <time>2025-01-19T11:32:40Z</time>
      </trkpt>
      <trkpt lat="43.40799" lon="6.64599">
        <ele>298.1</ele>
        <time>2025-01-19T11:32:41Z</time>
      </trkpt>
      <trkpt lat="43.408" lon="6.64598">
        <ele>298.1</ele>
        <time>2025-01-19T11:32:42Z</time>
      </trkpt>
      <trkpt lat="43.40801" lon="6.64598">
        <ele>298</ele>
        <time>2025-01-19T11:32:43Z</time>
      </trkpt>
      <trkpt lat="43.40801" lon="6.64598">
        <ele>298</ele>
        <time>2025-01-19T11:32:44Z</time>
      </trkpt>
      <trkpt lat="43.40801" lon="6.64598">
        <ele>297.9</ele>
        <time>2025-01-19T11:32:45Z</time>
      </trkpt>
      <trkpt lat="43.40802" lon="6.64598">
        <ele>297.9</ele>
        <time>2025-01-19T11:32:46Z</time>
      </trkpt>
      <trkpt lat="43.40803" lon="6.64599">
        <ele>297.8</ele>
        <time>2025-01-19T11:32:47Z</time>
      </trkpt>
      <trkpt lat="43.40804" lon="6.64599">
        <ele>297.7</ele>
        <time>2025-01-19T11:32:48Z</time>
      </trkpt>
      <trkpt lat="43.40805" lon="6.64599">
        <ele>297.7</ele>
        <time>2025-01-19T11:32:49Z</time>
      </trkpt>
      <trkpt lat="43.40806" lon="6.64599">
        <ele>297.7</ele>
        <time>2025-01-19T11:32:50Z</time>
      </trkpt>
      <trkpt lat="43.40807" lon="6.64599">
        <ele>297.6</ele>
        <time>2025-01-19T11:32:51Z</time>
      </trkpt>
      <trkpt lat="43.40807" lon="6.64599">
        <ele>297.6</ele>
        <time>2025-01-19T11:32:52Z</time>
      </trkpt>
      <trkpt lat="43.40809" lon="6.64598">
        <ele>297.5</ele>
        <time>2025-01-19T11:32:53Z</time>
      </trkpt>
      <trkpt lat="43.40809" lon="6.64597">
        <ele>297.5</ele>
        <time>2025-01-19T11:32:54Z</time>
      </trkpt>
      <trkpt lat="43.4081" lon="6.64596">
        <ele>297.4</ele>
        <time>2025-01-19T11:32:55Z</time>
      </trkpt>
      <trkpt lat="43.40811" lon="6.64597">
        <ele>297.3</ele>
        <time>2025-01-19T11:32:56Z</time>
      </trkpt>
      <trkpt lat="43.40812" lon="6.64596">
        <ele>297.2</ele>
        <time>2025-01-19T11:32:57Z</time>
      </trkpt>
      <trkpt lat="43.40812" lon="6.64596">
        <ele>297.1</ele>
        <time>2025-01-19T11:32:58Z</time>
      </trkpt>
      <trkpt lat="43.40813" lon="6.64596">
        <ele>297.1</ele>
        <time>2025-01-19T11:32:59Z</time>
      </trkpt>
      <trkpt lat="43.40814" lon="6.64596">
        <ele>297.1</ele>
        <time>2025-01-19T11:33:00Z</time>
      </trkpt>
      <trkpt lat="43.40815" lon="6.64594">
        <ele>297</ele>
        <time>2025-01-19T11:33:01Z</time>
      </trkpt>
      <trkpt lat="43.40815" lon="6.64595">
        <ele>297</ele>
        <time>2025-01-19T11:33:02Z</time>
      </trkpt>
      <trkpt lat="43.40816" lon="6.64595">
        <ele>297</ele>
        <time>2025-01-19T11:33:03Z</time>
      </trkpt>
      <trkpt lat="43.40817" lon="6.64594">
        <ele>297</ele>
        <time>2025-01-19T11:33:04Z</time>
      </trkpt>
      <trkpt lat="43.40817" lon="6.64594">
        <ele>297</ele>
        <time>2025-01-19T11:33:05Z</time>
      </trkpt>
      <trkpt lat="43.40818" lon="6.64593">
        <ele>296.8</ele>
        <time>2025-01-19T11:33:06Z</time>
      </trkpt>
      <trkpt lat="43.40818" lon="6.64593">
        <ele>296.7</ele>
        <time>2025-01-19T11:33:07Z</time>
      </trkpt>
      <trkpt lat="43.40818" lon="6.64592">
        <ele>296.5</ele>
        <time>2025-01-19T11:33:08Z</time>
      </trkpt>
      <trkpt lat="43.40819" lon="6.64591">
        <ele>296.4</ele>
        <time>2025-01-19T11:33:09Z</time>
      </trkpt>
      <trkpt lat="43.40819" lon="6.6459">
        <ele>296.3</ele>
        <time>2025-01-19T11:33:10Z</time>
      </trkpt>
      <trkpt lat="43.4082" lon="6.6459">
        <ele>296.2</ele>
        <time>2025-01-19T11:33:11Z</time>
      </trkpt>
      <trkpt lat="43.40821" lon="6.6459">
        <ele>296.1</ele>
        <time>2025-01-19T11:33:12Z</time>
      </trkpt>
      <trkpt lat="43.40822" lon="6.6459">
        <ele>295.9</ele>
        <time>2025-01-19T11:33:13Z</time>
      </trkpt>
      <trkpt lat="43.40823" lon="6.6459">
        <ele>295.8</ele>
        <time>2025-01-19T11:33:14Z</time>
      </trkpt>
      <trkpt lat="43.40824" lon="6.64591">
        <ele>295.7</ele>
        <time>2025-01-19T11:33:15Z</time>
      </trkpt>
      <trkpt lat="43.40825" lon="6.64591">
        <ele>295.6</ele>
        <time>2025-01-19T11:33:16Z</time>
      </trkpt>
      <trkpt lat="43.40826" lon="6.6459">
        <ele>295.4</ele>
        <time>2025-01-19T11:33:17Z</time>
      </trkpt>
      <trkpt lat="43.40826" lon="6.64591">
        <ele>295.2</ele>
        <time>2025-01-19T11:33:18Z</time>
      </trkpt>
      <trkpt lat="43.40827" lon="6.6459">
        <ele>295.1</ele>
        <time>2025-01-19T11:33:19Z</time>
      </trkpt>
      <trkpt lat="43.40828" lon="6.6459">
        <ele>294.9</ele>
        <time>2025-01-19T11:33:20Z</time>
      </trkpt>
      <trkpt lat="43.40829" lon="6.64589">
        <ele>294.7</ele>
        <time>2025-01-19T11:33:21Z</time>
      </trkpt>
      <trkpt lat="43.4083" lon="6.64589">
        <ele>294.5</ele>
        <time>2025-01-19T11:33:22Z</time>
      </trkpt>
      <trkpt lat="43.40831" lon="6.64589">
        <ele>294.3</ele>
        <time>2025-01-19T11:33:23Z</time>
      </trkpt>
      <trkpt lat="43.40831" lon="6.6459">
        <ele>294.1</ele>
        <time>2025-01-19T11:33:24Z</time>
      </trkpt>
      <trkpt lat="43.40831" lon="6.64589">
        <ele>294.1</ele>
        <time>2025-01-19T11:33:25Z</time>
      </trkpt>
      <trkpt lat="43.40831" lon="6.64589">
        <ele>294.1</ele>
        <time>2025-01-19T11:33:26Z</time>
      </trkpt>
      <trkpt lat="43.40832" lon="6.64589">
        <ele>294.1</ele>
        <time>2025-01-19T11:33:27Z</time>
      </trkpt>
      <trkpt lat="43.40832" lon="6.64589">
        <ele>294.1</ele>
        <time>2025-01-19T11:33:28Z</time>
      </trkpt>
      <trkpt lat="43.40833" lon="6.64589">
        <ele>293.9</ele>
        <time>2025-01-19T11:33:29Z</time>
      </trkpt>
      <trkpt lat="43.40834" lon="6.64589">
        <ele>293.9</ele>
        <time>2025-01-19T11:33:30Z</time>
      </trkpt>
      <trkpt lat="43.40835" lon="6.64589">
        <ele>293.9</ele>
        <time>2025-01-19T11:33:31Z</time>
      </trkpt>
      <trkpt lat="43.40836" lon="6.64589">
        <ele>293.9</ele>
        <time>2025-01-19T11:33:32Z</time>
      </trkpt>
      <trkpt lat="43.40836" lon="6.64589">
        <ele>293.8</ele>
        <time>2025-01-19T11:33:33Z</time>
      </trkpt>
      <trkpt lat="43.40837" lon="6.64589">
        <ele>293.7</ele>
        <time>2025-01-19T11:33:34Z</time>
      </trkpt>
      <trkpt lat="43.40838" lon="6.64588">
        <ele>293.5</ele>
        <time>2025-01-19T11:33:35Z</time>
      </trkpt>
      <trkpt lat="43.40839" lon="6.64588">
        <ele>293.4</ele>
        <time>2025-01-19T11:33:36Z</time>
      </trkpt>
      <trkpt lat="43.40839" lon="6.64588">
        <ele>293.2</ele>
        <time>2025-01-19T11:33:37Z</time>
      </trkpt>
      <trkpt lat="43.40839" lon="6.64588">
        <ele>293.2</ele>
        <time>2025-01-19T11:33:38Z</time>
      </trkpt>
      <trkpt lat="43.40839" lon="6.64588">
        <ele>293.1</ele>
        <time>2025-01-19T11:33:39Z</time>
      </trkpt>
      <trkpt lat="43.4084" lon="6.64588">
        <ele>293</ele>
        <time>2025-01-19T11:33:40Z</time>
      </trkpt>
      <trkpt lat="43.4084" lon="6.64587">
        <ele>292.9</ele>
        <time>2025-01-19T11:33:41Z</time>
      </trkpt>
      <trkpt lat="43.4084" lon="6.64587">
        <ele>292.8</ele>
        <time>2025-01-19T11:33:42Z</time>
      </trkpt>
      <trkpt lat="43.40841" lon="6.64587">
        <ele>292.6</ele>
        <time>2025-01-19T11:33:43Z</time>
      </trkpt>
      <trkpt lat="43.40841" lon="6.64586">
        <ele>292.5</ele>
        <time>2025-01-19T11:33:44Z</time>
      </trkpt>
      <trkpt lat="43.40842" lon="6.64586">
        <ele>292.4</ele>
        <time>2025-01-19T11:33:45Z</time>
      </trkpt>
      <trkpt lat="43.40843" lon="6.64586">
        <ele>292.2</ele>
        <time>2025-01-19T11:33:46Z</time>
      </trkpt>
      <trkpt lat="43.40844" lon="6.64585">
        <ele>291.9</ele>
        <time>2025-01-19T11:33:47Z</time>
      </trkpt>
      <trkpt lat="43.40844" lon="6.64585">
        <ele>291.7</ele>
        <time>2025-01-19T11:33:48Z</time>
      </trkpt>
      <trkpt lat="43.40845" lon="6.64584">
        <ele>291.7</ele>
        <time>2025-01-19T11:33:49Z</time>
      </trkpt>
      <trkpt lat="43.40845" lon="6.64584">
        <ele>291.5</ele>
        <time>2025-01-19T11:33:50Z</time>
      </trkpt>
      <trkpt lat="43.40846" lon="6.64583">
        <ele>291.4</ele>
        <time>2025-01-19T11:33:51Z</time>
      </trkpt>
      <trkpt lat="43.40847" lon="6.64583">
        <ele>291.2</ele>
        <time>2025-01-19T11:33:52Z</time>
      </trkpt>
      <trkpt lat="43.40848" lon="6.64583">
        <ele>291.1</ele>
        <time>2025-01-19T11:33:53Z</time>
      </trkpt>
      <trkpt lat="43.40849" lon="6.64582">
        <ele>290.9</ele>
        <time>2025-01-19T11:33:54Z</time>
      </trkpt>
      <trkpt lat="43.40849" lon="6.64582">
        <ele>290.7</ele>
        <time>2025-01-19T11:33:55Z</time>
      </trkpt>
      <trkpt lat="43.40849" lon="6.64582">
        <ele>290.5</ele>
        <time>2025-01-19T11:33:56Z</time>
      </trkpt>
      <trkpt lat="43.4085" lon="6.64581">
        <ele>290.5</ele>
        <time>2025-01-19T11:33:57Z</time>
      </trkpt>
      <trkpt lat="43.40851" lon="6.64581">
        <ele>290.4</ele>
        <time>2025-01-19T11:33:58Z</time>
      </trkpt>
      <trkpt lat="43.40851" lon="6.6458">
        <ele>290.3</ele>
        <time>2025-01-19T11:33:59Z</time>
      </trkpt>
      <trkpt lat="43.40852" lon="6.6458">
        <ele>290.2</ele>
        <time>2025-01-19T11:34:00Z</time>
      </trkpt>
      <trkpt lat="43.40852" lon="6.64579">
        <ele>290.1</ele>
        <time>2025-01-19T11:34:01Z</time>
      </trkpt>
      <trkpt lat="43.40853" lon="6.64578">
        <ele>289.9</ele>
        <time>2025-01-19T11:34:02Z</time>
      </trkpt>
      <trkpt lat="43.40853" lon="6.64577">
        <ele>289.7</ele>
        <time>2025-01-19T11:34:03Z</time>
      </trkpt>
      <trkpt lat="43.40854" lon="6.64576">
        <ele>289.6</ele>
        <time>2025-01-19T11:34:04Z</time>
      </trkpt>
      <trkpt lat="43.40855" lon="6.64576">
        <ele>289.3</ele>
        <time>2025-01-19T11:34:05Z</time>
      </trkpt>
      <trkpt lat="43.40855" lon="6.64575">
        <ele>289</ele>
        <time>2025-01-19T11:34:06Z</time>
      </trkpt>
      <trkpt lat="43.40856" lon="6.64575">
        <ele>288.8</ele>
        <time>2025-01-19T11:34:07Z</time>
      </trkpt>
      <trkpt lat="43.40857" lon="6.64574">
        <ele>288.6</ele>
        <time>2025-01-19T11:34:08Z</time>
      </trkpt>
      <trkpt lat="43.40857" lon="6.64573">
        <ele>288.3</ele>
        <time>2025-01-19T11:34:09Z</time>
      </trkpt>
      <trkpt lat="43.40858" lon="6.64573">
        <ele>288</ele>
        <time>2025-01-19T11:34:10Z</time>
      </trkpt>
      <trkpt lat="43.40858" lon="6.64573">
        <ele>287.8</ele>
        <time>2025-01-19T11:34:11Z</time>
      </trkpt>
      <trkpt lat="43.40858" lon="6.64573">
        <ele>287.6</ele>
        <time>2025-01-19T11:34:12Z</time>
      </trkpt>
      <trkpt lat="43.40859" lon="6.64573">
        <ele>287.5</ele>
        <time>2025-01-19T11:34:13Z</time>
      </trkpt>
      <trkpt lat="43.40859" lon="6.64573">
        <ele>287.4</ele>
        <time>2025-01-19T11:34:14Z</time>
      </trkpt>
      <trkpt lat="43.40859" lon="6.64573">
        <ele>287.3</ele>
        <time>2025-01-19T11:34:15Z</time>
      </trkpt>
      <trkpt lat="43.40859" lon="6.64572">
        <ele>287.3</ele>
        <time>2025-01-19T11:34:16Z</time>
      </trkpt>
      <trkpt lat="43.4086" lon="6.64571">
        <ele>287.2</ele>
        <time>2025-01-19T11:34:17Z</time>
      </trkpt>
      <trkpt lat="43.4086" lon="6.64569">
        <ele>287.1</ele>
        <time>2025-01-19T11:34:18Z</time>
      </trkpt>
      <trkpt lat="43.40861" lon="6.64569">
        <ele>286.9</ele>
        <time>2025-01-19T11:34:19Z</time>
      </trkpt>
      <trkpt lat="43.40862" lon="6.64568">
        <ele>286.8</ele>
        <time>2025-01-19T11:34:20Z</time>
      </trkpt>
      <trkpt lat="43.40863" lon="6.64567">
        <ele>286.7</ele>
        <time>2025-01-19T11:34:21Z</time>
      </trkpt>
      <trkpt lat="43.40863" lon="6.64566">
        <ele>286.6</ele>
        <time>2025-01-19T11:34:22Z</time>
      </trkpt>
      <trkpt lat="43.40864" lon="6.64565">
        <ele>286.4</ele>
        <time>2025-01-19T11:34:23Z</time>
      </trkpt>
      <trkpt lat="43.40865" lon="6.64565">
        <ele>286.2</ele>
        <time>2025-01-19T11:34:24Z</time>
      </trkpt>
      <trkpt lat="43.40865" lon="6.64565">
        <ele>286.2</ele>
        <time>2025-01-19T11:34:25Z</time>
      </trkpt>
      <trkpt lat="43.40865" lon="6.64565">
        <ele>286.1</ele>
        <time>2025-01-19T11:34:26Z</time>
      </trkpt>
      <trkpt lat="43.40865" lon="6.64565">
        <ele>286</ele>
        <time>2025-01-19T11:34:27Z</time>
      </trkpt>
      <trkpt lat="43.40866" lon="6.64565">
        <ele>285.9</ele>
        <time>2025-01-19T11:34:28Z</time>
      </trkpt>
      <trkpt lat="43.40866" lon="6.64565">
        <ele>285.8</ele>
        <time>2025-01-19T11:34:29Z</time>
      </trkpt>
      <trkpt lat="43.40867" lon="6.64566">
        <ele>285.8</ele>
        <time>2025-01-19T11:34:30Z</time>
      </trkpt>
      <trkpt lat="43.40867" lon="6.64565">
        <ele>285.7</ele>
        <time>2025-01-19T11:34:31Z</time>
      </trkpt>
      <trkpt lat="43.40867" lon="6.64565">
        <ele>285.7</ele>
        <time>2025-01-19T11:34:32Z</time>
      </trkpt>
      <trkpt lat="43.40867" lon="6.64565">
        <ele>285.8</ele>
        <time>2025-01-19T11:34:33Z</time>
      </trkpt>
      <trkpt lat="43.40867" lon="6.64565">
        <ele>285.8</ele>
        <time>2025-01-19T11:34:34Z</time>
      </trkpt>
      <trkpt lat="43.40867" lon="6.64565">
        <ele>285.8</ele>
        <time>2025-01-19T11:34:35Z</time>
      </trkpt>
      <trkpt lat="43.40867" lon="6.64565">
        <ele>285.8</ele>
        <time>2025-01-19T11:34:36Z</time>
      </trkpt>
      <trkpt lat="43.40867" lon="6.64565">
        <ele>285.9</ele>
        <time>2025-01-19T11:34:37Z</time>
      </trkpt>
      <trkpt lat="43.40867" lon="6.64565">
        <ele>285.9</ele>
        <time>2025-01-19T11:34:38Z</time>
      </trkpt>
      <trkpt lat="43.40866" lon="6.64566">
        <ele>285.9</ele>
        <time>2025-01-19T11:34:39Z</time>
      </trkpt>
      <trkpt lat="43.40867" lon="6.64566">
        <ele>285.8</ele>
        <time>2025-01-19T11:34:40Z</time>
      </trkpt>
      <trkpt lat="43.40867" lon="6.64566">
        <ele>285.8</ele>
        <time>2025-01-19T11:34:41Z</time>
      </trkpt>
      <trkpt lat="43.40866" lon="6.64567">
        <ele>285.9</ele>
        <time>2025-01-19T11:34:42Z</time>
      </trkpt>
      <trkpt lat="43.40866" lon="6.64569">
        <ele>285.9</ele>
        <time>2025-01-19T11:34:43Z</time>
      </trkpt>
      <trkpt lat="43.40866" lon="6.6457">
        <ele>285.8</ele>
        <time>2025-01-19T11:34:44Z</time>
      </trkpt>
      <trkpt lat="43.40866" lon="6.64572">
        <ele>285.9</ele>
        <time>2025-01-19T11:34:45Z</time>
      </trkpt>
      <trkpt lat="43.40866" lon="6.64574">
        <ele>286.1</ele>
        <time>2025-01-19T11:34:46Z</time>
      </trkpt>
      <trkpt lat="43.40866" lon="6.64574">
        <ele>286.4</ele>
        <time>2025-01-19T11:34:47Z</time>
      </trkpt>
      <trkpt lat="43.40866" lon="6.64576">
        <ele>286.7</ele>
        <time>2025-01-19T11:34:48Z</time>
      </trkpt>
      <trkpt lat="43.40865" lon="6.64577">
        <ele>286.9</ele>
        <time>2025-01-19T11:34:49Z</time>
      </trkpt>
      <trkpt lat="43.40865" lon="6.64578">
        <ele>287.2</ele>
        <time>2025-01-19T11:34:50Z</time>
      </trkpt>
      <trkpt lat="43.40864" lon="6.64579">
        <ele>287.4</ele>
        <time>2025-01-19T11:34:51Z</time>
      </trkpt>
      <trkpt lat="43.40864" lon="6.6458">
        <ele>287.6</ele>
        <time>2025-01-19T11:34:52Z</time>
      </trkpt>
      <trkpt lat="43.40864" lon="6.64582">
        <ele>287.7</ele>
        <time>2025-01-19T11:34:53Z</time>
      </trkpt>
      <trkpt lat="43.40864" lon="6.64583">
        <ele>287.9</ele>
        <time>2025-01-19T11:34:54Z</time>
      </trkpt>
      <trkpt lat="43.40863" lon="6.64585">
        <ele>288.1</ele>
        <time>2025-01-19T11:34:55Z</time>
      </trkpt>
      <trkpt lat="43.40863" lon="6.64586">
        <ele>288.4</ele>
        <time>2025-01-19T11:34:56Z</time>
      </trkpt>
      <trkpt lat="43.40863" lon="6.64587">
        <ele>288.6</ele>
        <time>2025-01-19T11:34:57Z</time>
      </trkpt>
      <trkpt lat="43.40863" lon="6.64589">
        <ele>288.8</ele>
        <time>2025-01-19T11:34:58Z</time>
      </trkpt>
      <trkpt lat="43.40863" lon="6.6459">
        <ele>289.1</ele>
        <time>2025-01-19T11:34:59Z</time>
      </trkpt>
      <trkpt lat="43.40863" lon="6.64591">
        <ele>289.4</ele>
        <time>2025-01-19T11:35:00Z</time>
      </trkpt>
      <trkpt lat="43.40862" lon="6.64593">
        <ele>289.6</ele>
        <time>2025-01-19T11:35:01Z</time>
      </trkpt>
      <trkpt lat="43.40862" lon="6.64594">
        <ele>289.7</ele>
        <time>2025-01-19T11:35:02Z</time>
      </trkpt>
      <trkpt lat="43.40861" lon="6.64595">
        <ele>289.9</ele>
        <time>2025-01-19T11:35:03Z</time>
      </trkpt>
      <trkpt lat="43.40861" lon="6.64596">
        <ele>290.1</ele>
        <time>2025-01-19T11:35:04Z</time>
      </trkpt>
      <trkpt lat="43.40861" lon="6.64597">
        <ele>290.3</ele>
        <time>2025-01-19T11:35:05Z</time>
      </trkpt>
      <trkpt lat="43.40862" lon="6.64599">
        <ele>290.6</ele>
        <time>2025-01-19T11:35:06Z</time>
      </trkpt>
      <trkpt lat="43.40862" lon="6.64601">
        <ele>290.8</ele>
        <time>2025-01-19T11:35:07Z</time>
      </trkpt>
      <trkpt lat="43.40862" lon="6.64602">
        <ele>291.1</ele>
        <time>2025-01-19T11:35:08Z</time>
      </trkpt>
      <trkpt lat="43.40861" lon="6.64603">
        <ele>291.4</ele>
        <time>2025-01-19T11:35:09Z</time>
      </trkpt>
      <trkpt lat="43.4086" lon="6.64605">
        <ele>291.6</ele>
        <time>2025-01-19T11:35:10Z</time>
      </trkpt>
      <trkpt lat="43.40859" lon="6.64607">
        <ele>292</ele>
        <time>2025-01-19T11:35:11Z</time>
      </trkpt>
      <trkpt lat="43.40859" lon="6.64608">
        <ele>292.2</ele>
        <time>2025-01-19T11:35:12Z</time>
      </trkpt>
      <trkpt lat="43.40859" lon="6.64609">
        <ele>292.5</ele>
        <time>2025-01-19T11:35:13Z</time>
      </trkpt>
      <trkpt lat="43.40859" lon="6.6461">
        <ele>292.8</ele>
        <time>2025-01-19T11:35:14Z</time>
      </trkpt>
      <trkpt lat="43.40858" lon="6.64612">
        <ele>293.2</ele>
        <time>2025-01-19T11:35:15Z</time>
      </trkpt>
      <trkpt lat="43.40859" lon="6.64613">
        <ele>293.6</ele>
        <time>2025-01-19T11:35:16Z</time>
      </trkpt>
      <trkpt lat="43.40859" lon="6.64614">
        <ele>293.7</ele>
        <time>2025-01-19T11:35:17Z</time>
      </trkpt>
      <trkpt lat="43.40859" lon="6.64615">
        <ele>293.9</ele>
        <time>2025-01-19T11:35:18Z</time>
      </trkpt>
      <trkpt lat="43.40858" lon="6.64617">
        <ele>294.1</ele>
        <time>2025-01-19T11:35:19Z</time>
      </trkpt>
      <trkpt lat="43.40858" lon="6.64619">
        <ele>294.3</ele>
        <time>2025-01-19T11:35:20Z</time>
      </trkpt>
      <trkpt lat="43.40858" lon="6.6462">
        <ele>294.5</ele>
        <time>2025-01-19T11:35:21Z</time>
      </trkpt>
      <trkpt lat="43.40858" lon="6.64621">
        <ele>294.8</ele>
        <time>2025-01-19T11:35:22Z</time>
      </trkpt>
      <trkpt lat="43.40858" lon="6.64621">
        <ele>295</ele>
        <time>2025-01-19T11:35:23Z</time>
      </trkpt>
      <trkpt lat="43.40858" lon="6.64622">
        <ele>295.3</ele>
        <time>2025-01-19T11:35:24Z</time>
      </trkpt>
      <trkpt lat="43.40858" lon="6.64623">
        <ele>295.6</ele>
        <time>2025-01-19T11:35:25Z</time>
      </trkpt>
      <trkpt lat="43.40858" lon="6.64624">
        <ele>295.8</ele>
        <time>2025-01-19T11:35:26Z</time>
      </trkpt>
      <trkpt lat="43.40857" lon="6.64625">
        <ele>296</ele>
        <time>2025-01-19T11:35:27Z</time>
      </trkpt>
      <trkpt lat="43.40856" lon="6.64626">
        <ele>296.1</ele>
        <time>2025-01-19T11:35:28Z</time>
      </trkpt>
      <trkpt lat="43.40857" lon="6.64628">
        <ele>296.4</ele>
        <time>2025-01-19T11:35:29Z</time>
      </trkpt>
      <trkpt lat="43.40857" lon="6.64629">
        <ele>296.7</ele>
        <time>2025-01-19T11:35:30Z</time>
      </trkpt>
      <trkpt lat="43.40857" lon="6.64631">
        <ele>297</ele>
        <time>2025-01-19T11:35:31Z</time>
      </trkpt>
      <trkpt lat="43.40856" lon="6.64632">
        <ele>297.3</ele>
        <time>2025-01-19T11:35:32Z</time>
      </trkpt>
      <trkpt lat="43.40856" lon="6.64633">
        <ele>297.5</ele>
        <time>2025-01-19T11:35:33Z</time>
      </trkpt>
      <trkpt lat="43.40856" lon="6.64634">
        <ele>297.8</ele>
        <time>2025-01-19T11:35:34Z</time>
      </trkpt>
      <trkpt lat="43.40856" lon="6.64636">
        <ele>298.1</ele>
        <time>2025-01-19T11:35:35Z</time>
      </trkpt>
      <trkpt lat="43.40856" lon="6.64637">
        <ele>298.3</ele>
        <time>2025-01-19T11:35:36Z</time>
      </trkpt>
      <trkpt lat="43.40855" lon="6.64638">
        <ele>298.5</ele>
        <time>2025-01-19T11:35:37Z</time>
      </trkpt>
      <trkpt lat="43.40854" lon="6.64639">
        <ele>298.7</ele>
        <time>2025-01-19T11:35:38Z</time>
      </trkpt>
      <trkpt lat="43.40854" lon="6.6464">
        <ele>298.9</ele>
        <time>2025-01-19T11:35:39Z</time>
      </trkpt>
      <trkpt lat="43.40854" lon="6.64641">
        <ele>299.1</ele>
        <time>2025-01-19T11:35:40Z</time>
      </trkpt>
      <trkpt lat="43.40853" lon="6.64642">
        <ele>299.4</ele>
        <time>2025-01-19T11:35:41Z</time>
      </trkpt>
      <trkpt lat="43.40852" lon="6.64643">
        <ele>299.6</ele>
        <time>2025-01-19T11:35:42Z</time>
      </trkpt>
      <trkpt lat="43.40852" lon="6.64644">
        <ele>299.7</ele>
        <time>2025-01-19T11:35:43Z</time>
      </trkpt>
      <trkpt lat="43.40852" lon="6.64644">
        <ele>299.9</ele>
        <time>2025-01-19T11:35:44Z</time>
      </trkpt>
      <trkpt lat="43.40852" lon="6.64645">
        <ele>300.1</ele>
        <time>2025-01-19T11:35:45Z</time>
      </trkpt>
      <trkpt lat="43.40852" lon="6.64646">
        <ele>300.3</ele>
        <time>2025-01-19T11:35:46Z</time>
      </trkpt>
      <trkpt lat="43.40852" lon="6.64647">
        <ele>300.5</ele>
        <time>2025-01-19T11:35:47Z</time>
      </trkpt>
      <trkpt lat="43.40853" lon="6.64648">
        <ele>300.6</ele>
        <time>2025-01-19T11:35:48Z</time>
      </trkpt>
      <trkpt lat="43.40851" lon="6.6465">
        <ele>300.8</ele>
        <time>2025-01-19T11:35:49Z</time>
      </trkpt>
      <trkpt lat="43.40851" lon="6.6465">
        <ele>300.9</ele>
        <time>2025-01-19T11:35:50Z</time>
      </trkpt>
      <trkpt lat="43.40851" lon="6.6465">
        <ele>301</ele>
        <time>2025-01-19T11:35:51Z</time>
      </trkpt>
      <trkpt lat="43.40851" lon="6.6465">
        <ele>301</ele>
        <time>2025-01-19T11:35:52Z</time>
      </trkpt>
      <trkpt lat="43.4085" lon="6.64651">
        <ele>301.1</ele>
        <time>2025-01-19T11:35:53Z</time>
      </trkpt>
      <trkpt lat="43.40849" lon="6.64651">
        <ele>301.1</ele>
        <time>2025-01-19T11:35:54Z</time>
      </trkpt>
      <trkpt lat="43.40849" lon="6.64651">
        <ele>301.2</ele>
        <time>2025-01-19T11:35:55Z</time>
      </trkpt>
      <trkpt lat="43.40849" lon="6.64651">
        <ele>301.2</ele>
        <time>2025-01-19T11:35:56Z</time>
      </trkpt>
      <trkpt lat="43.40849" lon="6.64651">
        <ele>301.3</ele>
        <time>2025-01-19T11:35:57Z</time>
      </trkpt>
      <trkpt lat="43.40849" lon="6.64651">
        <ele>301.3</ele>
        <time>2025-01-19T11:35:58Z</time>
      </trkpt>
      <trkpt lat="43.40849" lon="6.64651">
        <ele>301.3</ele>
        <time>2025-01-19T11:35:59Z</time>
      </trkpt>
      <trkpt lat="43.40848" lon="6.64651">
        <ele>301.2</ele>
        <time>2025-01-19T11:36:00Z</time>
      </trkpt>
      <trkpt lat="43.40848" lon="6.64651">
        <ele>301.2</ele>
        <time>2025-01-19T11:36:01Z</time>
      </trkpt>
      <trkpt lat="43.40848" lon="6.64651">
        <ele>301.1</ele>
        <time>2025-01-19T11:36:02Z</time>
      </trkpt>
      <trkpt lat="43.40848" lon="6.64652">
        <ele>301.1</ele>
        <time>2025-01-19T11:36:03Z</time>
      </trkpt>
      <trkpt lat="43.40848" lon="6.64652">
        <ele>301.2</ele>
        <time>2025-01-19T11:36:04Z</time>
      </trkpt>
      <trkpt lat="43.40848" lon="6.64653">
        <ele>301.2</ele>
        <time>2025-01-19T11:36:05Z</time>
      </trkpt>
      <trkpt lat="43.40848" lon="6.64653">
        <ele>301.3</ele>
        <time>2025-01-19T11:36:06Z</time>
      </trkpt>
      <trkpt lat="43.40848" lon="6.64653">
        <ele>301.3</ele>
        <time>2025-01-19T11:36:07Z</time>
      </trkpt>
      <trkpt lat="43.40848" lon="6.64653">
        <ele>301.4</ele>
        <time>2025-01-19T11:36:08Z</time>
      </trkpt>
      <trkpt lat="43.40849" lon="6.64654">
        <ele>301.3</ele>
        <time>2025-01-19T11:36:09Z</time>
      </trkpt>
      <trkpt lat="43.40849" lon="6.64654">
        <ele>301.5</ele>
        <time>2025-01-19T11:36:10Z</time>
      </trkpt>
      <trkpt lat="43.40849" lon="6.64654">
        <ele>301.4</ele>
        <time>2025-01-19T11:36:11Z</time>
      </trkpt>
      <trkpt lat="43.40849" lon="6.64654">
        <ele>301.3</ele>
        <time>2025-01-19T11:36:12Z</time>
      </trkpt>
      <trkpt lat="43.40848" lon="6.64655">
        <ele>301.3</ele>
        <time>2025-01-19T11:36:13Z</time>
      </trkpt>
      <trkpt lat="43.40848" lon="6.64655">
        <ele>301.3</ele>
        <time>2025-01-19T11:36:14Z</time>
      </trkpt>
      <trkpt lat="43.40848" lon="6.64655">
        <ele>301.4</ele>
        <time>2025-01-19T11:36:15Z</time>
      </trkpt>
      <trkpt lat="43.40848" lon="6.64655">
        <ele>301.4</ele>
        <time>2025-01-19T11:36:16Z</time>
      </trkpt>
      <trkpt lat="43.40848" lon="6.64656">
        <ele>301.4</ele>
        <time>2025-01-19T11:36:17Z</time>
      </trkpt>
      <trkpt lat="43.40848" lon="6.64656">
        <ele>301.5</ele>
        <time>2025-01-19T11:36:18Z</time>
      </trkpt>
      <trkpt lat="43.40849" lon="6.64658">
        <ele>301.5</ele>
        <time>2025-01-19T11:36:19Z</time>
      </trkpt>
      <trkpt lat="43.4085" lon="6.64659">
        <ele>301.5</ele>
        <time>2025-01-19T11:36:20Z</time>
      </trkpt>
      <trkpt lat="43.4085" lon="6.6466">
        <ele>301.6</ele>
        <time>2025-01-19T11:36:21Z</time>
      </trkpt>
      <trkpt lat="43.4085" lon="6.64661">
        <ele>301.7</ele>
        <time>2025-01-19T11:36:22Z</time>
      </trkpt>
      <trkpt lat="43.4085" lon="6.64661">
        <ele>301.8</ele>
        <time>2025-01-19T11:36:23Z</time>
      </trkpt>
      <trkpt lat="43.4085" lon="6.64662">
        <ele>301.8</ele>
        <time>2025-01-19T11:36:24Z</time>
      </trkpt>
      <trkpt lat="43.4085" lon="6.64663">
        <ele>301.9</ele>
        <time>2025-01-19T11:36:25Z</time>
      </trkpt>
      <trkpt lat="43.40851" lon="6.64664">
        <ele>302</ele>
        <time>2025-01-19T11:36:26Z</time>
      </trkpt>
      <trkpt lat="43.40853" lon="6.64667">
        <ele>302</ele>
        <time>2025-01-19T11:36:27Z</time>
      </trkpt>
      <trkpt lat="43.40853" lon="6.64668">
        <ele>302</ele>
        <time>2025-01-19T11:36:28Z</time>
      </trkpt>
      <trkpt lat="43.40853" lon="6.64669">
        <ele>302</ele>
        <time>2025-01-19T11:36:29Z</time>
      </trkpt>
      <trkpt lat="43.40853" lon="6.64671">
        <ele>302</ele>
        <time>2025-01-19T11:36:30Z</time>
      </trkpt>
      <trkpt lat="43.40852" lon="6.64672">
        <ele>301.9</ele>
        <time>2025-01-19T11:36:31Z</time>
      </trkpt>
      <trkpt lat="43.40852" lon="6.64673">
        <ele>301.8</ele>
        <time>2025-01-19T11:36:32Z</time>
      </trkpt>
      <trkpt lat="43.40852" lon="6.64673">
        <ele>301.8</ele>
        <time>2025-01-19T11:36:33Z</time>
      </trkpt>
      <trkpt lat="43.40852" lon="6.64674">
        <ele>301.7</ele>
        <time>2025-01-19T11:36:34Z</time>
      </trkpt>
      <trkpt lat="43.40852" lon="6.64674">
        <ele>301.8</ele>
        <time>2025-01-19T11:36:35Z</time>
      </trkpt>
      <trkpt lat="43.40852" lon="6.64676">
        <ele>301.7</ele>
        <time>2025-01-19T11:36:36Z</time>
      </trkpt>
      <trkpt lat="43.40852" lon="6.64678">
        <ele>301.9</ele>
        <time>2025-01-19T11:36:37Z</time>
      </trkpt>
      <trkpt lat="43.40852" lon="6.64678">
        <ele>301.9</ele>
        <time>2025-01-19T11:36:38Z</time>
      </trkpt>
      <trkpt lat="43.40852" lon="6.64678">
        <ele>301.9</ele>
        <time>2025-01-19T11:36:39Z</time>
      </trkpt>
      <trkpt lat="43.40851" lon="6.64679">
        <ele>301.9</ele>
        <time>2025-01-19T11:36:40Z</time>
      </trkpt>
      <trkpt lat="43.40851" lon="6.64679">
        <ele>301.9</ele>
        <time>2025-01-19T11:36:41Z</time>
      </trkpt>
      <trkpt lat="43.40851" lon="6.64679">
        <ele>301.8</ele>
        <time>2025-01-19T11:36:42Z</time>
      </trkpt>
      <trkpt lat="43.40851" lon="6.64679">
        <ele>301.8</ele>
        <time>2025-01-19T11:36:43Z</time>
      </trkpt>
      <trkpt lat="43.4085" lon="6.6468">
        <ele>301.8</ele>
        <time>2025-01-19T11:36:44Z</time>
      </trkpt>
      <trkpt lat="43.4085" lon="6.6468">
        <ele>301.8</ele>
        <time>2025-01-19T11:36:45Z</time>
      </trkpt>
      <trkpt lat="43.4085" lon="6.64681">
        <ele>301.9</ele>
        <time>2025-01-19T11:36:46Z</time>
      </trkpt>
      <trkpt lat="43.4085" lon="6.64681">
        <ele>301.9</ele>
        <time>2025-01-19T11:36:47Z</time>
      </trkpt>
      <trkpt lat="43.40849" lon="6.64683">
        <ele>302</ele>
        <time>2025-01-19T11:36:48Z</time>
      </trkpt>
      <trkpt lat="43.40849" lon="6.64683">
        <ele>302</ele>
        <time>2025-01-19T11:36:49Z</time>
      </trkpt>
      <trkpt lat="43.40848" lon="6.64685">
        <ele>302.1</ele>
        <time>2025-01-19T11:36:50Z</time>
      </trkpt>
      <trkpt lat="43.40848" lon="6.64687">
        <ele>302.1</ele>
        <time>2025-01-19T11:36:51Z</time>
      </trkpt>
      <trkpt lat="43.40848" lon="6.64689">
        <ele>302.1</ele>
        <time>2025-01-19T11:36:52Z</time>
      </trkpt>
      <trkpt lat="43.40848" lon="6.64691">
        <ele>302.2</ele>
        <time>2025-01-19T11:36:53Z</time>
      </trkpt>
      <trkpt lat="43.40848" lon="6.64693">
        <ele>302.4</ele>
        <time>2025-01-19T11:36:54Z</time>
      </trkpt>
      <trkpt lat="43.40848" lon="6.64694">
        <ele>302.5</ele>
        <time>2025-01-19T11:36:55Z</time>
      </trkpt>
      <trkpt lat="43.40848" lon="6.64695">
        <ele>302.8</ele>
        <time>2025-01-19T11:36:56Z</time>
      </trkpt>
      <trkpt lat="43.40848" lon="6.64697">
        <ele>302.9</ele>
        <time>2025-01-19T11:36:57Z</time>
      </trkpt>
      <trkpt lat="43.40846" lon="6.64697">
        <ele>303.1</ele>
        <time>2025-01-19T11:36:58Z</time>
      </trkpt>
      <trkpt lat="43.40845" lon="6.64698">
        <ele>303.2</ele>
        <time>2025-01-19T11:36:59Z</time>
      </trkpt>
      <trkpt lat="43.40845" lon="6.64699">
        <ele>303.3</ele>
        <time>2025-01-19T11:37:00Z</time>
      </trkpt>
      <trkpt lat="43.40844" lon="6.647">
        <ele>303.4</ele>
        <time>2025-01-19T11:37:01Z</time>
      </trkpt>
      <trkpt lat="43.40844" lon="6.64702">
        <ele>303.6</ele>
        <time>2025-01-19T11:37:02Z</time>
      </trkpt>
      <trkpt lat="43.40843" lon="6.64702">
        <ele>303.8</ele>
        <time>2025-01-19T11:37:03Z</time>
      </trkpt>
      <trkpt lat="43.40843" lon="6.64703">
        <ele>303.9</ele>
        <time>2025-01-19T11:37:04Z</time>
      </trkpt>
      <trkpt lat="43.40842" lon="6.64704">
        <ele>304.1</ele>
        <time>2025-01-19T11:37:05Z</time>
      </trkpt>
      <trkpt lat="43.40842" lon="6.64706">
        <ele>304.2</ele>
        <time>2025-01-19T11:37:06Z</time>
      </trkpt>
      <trkpt lat="43.40842" lon="6.64708">
        <ele>304.3</ele>
        <time>2025-01-19T11:37:07Z</time>
      </trkpt>
      <trkpt lat="43.40842" lon="6.6471">
        <ele>304.4</ele>
        <time>2025-01-19T11:37:08Z</time>
      </trkpt>
      <trkpt lat="43.40841" lon="6.64711">
        <ele>304.5</ele>
        <time>2025-01-19T11:37:09Z</time>
      </trkpt>
      <trkpt lat="43.4084" lon="6.64713">
        <ele>304.6</ele>
        <time>2025-01-19T11:37:10Z</time>
      </trkpt>
      <trkpt lat="43.40841" lon="6.64715">
        <ele>304.9</ele>
        <time>2025-01-19T11:37:11Z</time>
      </trkpt>
      <trkpt lat="43.40841" lon="6.64716">
        <ele>305.1</ele>
        <time>2025-01-19T11:37:12Z</time>
      </trkpt>
      <trkpt lat="43.4084" lon="6.64717">
        <ele>305.3</ele>
        <time>2025-01-19T11:37:13Z</time>
      </trkpt>
      <trkpt lat="43.4084" lon="6.64718">
        <ele>305.5</ele>
        <time>2025-01-19T11:37:14Z</time>
      </trkpt>
      <trkpt lat="43.40839" lon="6.64719">
        <ele>305.6</ele>
        <time>2025-01-19T11:37:15Z</time>
      </trkpt>
      <trkpt lat="43.40838" lon="6.64719">
        <ele>305.8</ele>
        <time>2025-01-19T11:37:16Z</time>
      </trkpt>
      <trkpt lat="43.40838" lon="6.6472">
        <ele>306</ele>
        <time>2025-01-19T11:37:17Z</time>
      </trkpt>
      <trkpt lat="43.40837" lon="6.64722">
        <ele>306.2</ele>
        <time>2025-01-19T11:37:18Z</time>
      </trkpt>
      <trkpt lat="43.40836" lon="6.64723">
        <ele>306.4</ele>
        <time>2025-01-19T11:37:19Z</time>
      </trkpt>
      <trkpt lat="43.40836" lon="6.64725">
        <ele>306.5</ele>
        <time>2025-01-19T11:37:20Z</time>
      </trkpt>
      <trkpt lat="43.40835" lon="6.64726">
        <ele>306.5</ele>
        <time>2025-01-19T11:37:21Z</time>
      </trkpt>
      <trkpt lat="43.40835" lon="6.64727">
        <ele>306.6</ele>
        <time>2025-01-19T11:37:22Z</time>
      </trkpt>
      <trkpt lat="43.40834" lon="6.64728">
        <ele>306.7</ele>
        <time>2025-01-19T11:37:23Z</time>
      </trkpt>
      <trkpt lat="43.40834" lon="6.6473">
        <ele>306.9</ele>
        <time>2025-01-19T11:37:24Z</time>
      </trkpt>
      <trkpt lat="43.40834" lon="6.64732">
        <ele>307</ele>
        <time>2025-01-19T11:37:25Z</time>
      </trkpt>
      <trkpt lat="43.40833" lon="6.64733">
        <ele>307.2</ele>
        <time>2025-01-19T11:37:26Z</time>
      </trkpt>
      <trkpt lat="43.40832" lon="6.64734">
        <ele>307.3</ele>
        <time>2025-01-19T11:37:27Z</time>
      </trkpt>
      <trkpt lat="43.40832" lon="6.64735">
        <ele>307.4</ele>
        <time>2025-01-19T11:37:28Z</time>
      </trkpt>
      <trkpt lat="43.40832" lon="6.64736">
        <ele>307.4</ele>
        <time>2025-01-19T11:37:29Z</time>
      </trkpt>
      <trkpt lat="43.40831" lon="6.64736">
        <ele>307.5</ele>
        <time>2025-01-19T11:37:30Z</time>
      </trkpt>
      <trkpt lat="43.4083" lon="6.64737">
        <ele>307.5</ele>
        <time>2025-01-19T11:37:31Z</time>
      </trkpt>
      <trkpt lat="43.4083" lon="6.64738">
        <ele>307.6</ele>
        <time>2025-01-19T11:37:32Z</time>
      </trkpt>
      <trkpt lat="43.40831" lon="6.64739">
        <ele>307.7</ele>
        <time>2025-01-19T11:37:33Z</time>
      </trkpt>
      <trkpt lat="43.4083" lon="6.64739">
        <ele>307.9</ele>
        <time>2025-01-19T11:37:34Z</time>
      </trkpt>
      <trkpt lat="43.4083" lon="6.64739">
        <ele>307.9</ele>
        <time>2025-01-19T11:37:35Z</time>
      </trkpt>
      <trkpt lat="43.40829" lon="6.64739">
        <ele>308</ele>
        <time>2025-01-19T11:37:36Z</time>
      </trkpt>
      <trkpt lat="43.40829" lon="6.64739">
        <ele>308.1</ele>
        <time>2025-01-19T11:37:37Z</time>
      </trkpt>
      <trkpt lat="43.40829" lon="6.64738">
        <ele>308.1</ele>
        <time>2025-01-19T11:37:38Z</time>
      </trkpt>
      <trkpt lat="43.40829" lon="6.64739">
        <ele>308.1</ele>
        <time>2025-01-19T11:37:39Z</time>
      </trkpt>
      <trkpt lat="43.40829" lon="6.64739">
        <ele>308.1</ele>
        <time>2025-01-19T11:37:40Z</time>
      </trkpt>
      <trkpt lat="43.40829" lon="6.64741">
        <ele>308.1</ele>
        <time>2025-01-19T11:37:41Z</time>
      </trkpt>
      <trkpt lat="43.40828" lon="6.64741">
        <ele>308.1</ele>
        <time>2025-01-19T11:37:42Z</time>
      </trkpt>
      <trkpt lat="43.40828" lon="6.64742">
        <ele>308.1</ele>
        <time>2025-01-19T11:37:43Z</time>
      </trkpt>
      <trkpt lat="43.40828" lon="6.64742">
        <ele>308.2</ele>
        <time>2025-01-19T11:37:44Z</time>
      </trkpt>
      <trkpt lat="43.40828" lon="6.64742">
        <ele>308.2</ele>
        <time>2025-01-19T11:37:45Z</time>
      </trkpt>
      <trkpt lat="43.40828" lon="6.64743">
        <ele>308.3</ele>
        <time>2025-01-19T11:37:46Z</time>
      </trkpt>
      <trkpt lat="43.40828" lon="6.64743">
        <ele>308.3</ele>
        <time>2025-01-19T11:37:47Z</time>
      </trkpt>
      <trkpt lat="43.40828" lon="6.64743">
        <ele>308.3</ele>
        <time>2025-01-19T11:37:48Z</time>
      </trkpt>
      <trkpt lat="43.40829" lon="6.64743">
        <ele>308.3</ele>
        <time>2025-01-19T11:37:49Z</time>
      </trkpt>
      <trkpt lat="43.40829" lon="6.64743">
        <ele>308.3</ele>
        <time>2025-01-19T11:37:50Z</time>
      </trkpt>
      <trkpt lat="43.40829" lon="6.64743">
        <ele>308.3</ele>
        <time>2025-01-19T11:37:51Z</time>
      </trkpt>
      <trkpt lat="43.40829" lon="6.64743">
        <ele>308.3</ele>
        <time>2025-01-19T11:37:52Z</time>
      </trkpt>
      <trkpt lat="43.40828" lon="6.64744">
        <ele>308.3</ele>
        <time>2025-01-19T11:37:53Z</time>
      </trkpt>
      <trkpt lat="43.40828" lon="6.64744">
        <ele>308.3</ele>
        <time>2025-01-19T11:37:54Z</time>
      </trkpt>
      <trkpt lat="43.40827" lon="6.64745">
        <ele>308.3</ele>
        <time>2025-01-19T11:37:55Z</time>
      </trkpt>
      <trkpt lat="43.40827" lon="6.64745">
        <ele>308.3</ele>
        <time>2025-01-19T11:37:56Z</time>
      </trkpt>
      <trkpt lat="43.40827" lon="6.64745">
        <ele>308.3</ele>
        <time>2025-01-19T11:37:57Z</time>
      </trkpt>
      <trkpt lat="43.40827" lon="6.64745">
        <ele>308.2</ele>
        <time>2025-01-19T11:37:58Z</time>
      </trkpt>
      <trkpt lat="43.40827" lon="6.64746">
        <ele>308.1</ele>
        <time>2025-01-19T11:37:59Z</time>
      </trkpt>
      <trkpt lat="43.40827" lon="6.64745">
        <ele>308.1</ele>
        <time>2025-01-19T11:38:00Z</time>
      </trkpt>
      <trkpt lat="43.40827" lon="6.64745">
        <ele>308.1</ele>
        <time>2025-01-19T11:38:01Z</time>
      </trkpt>
      <trkpt lat="43.40827" lon="6.64746">
        <ele>308.1</ele>
        <time>2025-01-19T11:38:02Z</time>
      </trkpt>
      <trkpt lat="43.40827" lon="6.64746">
        <ele>308.1</ele>
        <time>2025-01-19T11:38:03Z</time>
      </trkpt>
      <trkpt lat="43.40827" lon="6.64746">
        <ele>308.2</ele>
        <time>2025-01-19T11:38:04Z</time>
      </trkpt>
      <trkpt lat="43.40826" lon="6.64746">
        <ele>308.2</ele>
        <time>2025-01-19T11:38:05Z</time>
      </trkpt>
      <trkpt lat="43.40827" lon="6.64746">
        <ele>308.3</ele>
        <time>2025-01-19T11:38:06Z</time>
      </trkpt>
      <trkpt lat="43.40827" lon="6.64746">
        <ele>308.3</ele>
        <time>2025-01-19T11:38:07Z</time>
      </trkpt>
      <trkpt lat="43.40827" lon="6.64746">
        <ele>308.3</ele>
        <time>2025-01-19T11:38:08Z</time>
      </trkpt>
      <trkpt lat="43.40827" lon="6.64747">
        <ele>308.2</ele>
        <time>2025-01-19T11:38:09Z</time>
      </trkpt>
      <trkpt lat="43.40827" lon="6.64747">
        <ele>308.1</ele>
        <time>2025-01-19T11:38:10Z</time>
      </trkpt>
      <trkpt lat="43.40827" lon="6.64747">
        <ele>308.1</ele>
        <time>2025-01-19T11:38:11Z</time>
      </trkpt>
      <trkpt lat="43.40827" lon="6.64747">
        <ele>308.1</ele>
        <time>2025-01-19T11:38:12Z</time>
      </trkpt>
      <trkpt lat="43.40827" lon="6.64747">
        <ele>308.1</ele>
        <time>2025-01-19T11:38:13Z</time>
      </trkpt>
      <trkpt lat="43.40826" lon="6.64747">
        <ele>308.1</ele>
        <time>2025-01-19T11:38:14Z</time>
      </trkpt>
      <trkpt lat="43.40826" lon="6.64747">
        <ele>308.1</ele>
        <time>2025-01-19T11:38:15Z</time>
      </trkpt>
      <trkpt lat="43.40826" lon="6.64747">
        <ele>308.2</ele>
        <time>2025-01-19T11:38:16Z</time>
      </trkpt>
      <trkpt lat="43.40826" lon="6.64747">
        <ele>308.2</ele>
        <time>2025-01-19T11:38:17Z</time>
      </trkpt>
      <trkpt lat="43.40826" lon="6.64747">
        <ele>308.2</ele>
        <time>2025-01-19T11:38:18Z</time>
      </trkpt>
      <trkpt lat="43.40826" lon="6.64747">
        <ele>308.1</ele>
        <time>2025-01-19T11:38:19Z</time>
      </trkpt>
      <trkpt lat="43.40826" lon="6.64747">
        <ele>308.1</ele>
        <time>2025-01-19T11:38:20Z</time>
      </trkpt>
      <trkpt lat="43.40827" lon="6.64747">
        <ele>308.1</ele>
        <time>2025-01-19T11:38:21Z</time>
      </trkpt>
      <trkpt lat="43.40827" lon="6.64747">
        <ele>308.1</ele>
        <time>2025-01-19T11:38:22Z</time>
      </trkpt>
      <trkpt lat="43.40828" lon="6.64747">
        <ele>308</ele>
        <time>2025-01-19T11:38:23Z</time>
      </trkpt>
      <trkpt lat="43.40828" lon="6.64747">
        <ele>308</ele>
        <time>2025-01-19T11:38:24Z</time>
      </trkpt>
      <trkpt lat="43.40828" lon="6.64747">
        <ele>307.9</ele>
        <time>2025-01-19T11:38:25Z</time>
      </trkpt>
      <trkpt lat="43.40828" lon="6.64747">
        <ele>307.9</ele>
        <time>2025-01-19T11:38:26Z</time>
      </trkpt>
      <trkpt lat="43.40827" lon="6.64747">
        <ele>308</ele>
        <time>2025-01-19T11:38:27Z</time>
      </trkpt>
      <trkpt lat="43.40827" lon="6.64747">
        <ele>308</ele>
        <time>2025-01-19T11:38:28Z</time>
      </trkpt>
      <trkpt lat="43.40827" lon="6.64747">
        <ele>308.2</ele>
        <time>2025-01-19T11:38:29Z</time>
      </trkpt>
      <trkpt lat="43.40827" lon="6.64747">
        <ele>308.3</ele>
        <time>2025-01-19T11:38:30Z</time>
      </trkpt>
      <trkpt lat="43.40826" lon="6.64748">
        <ele>308.4</ele>
        <time>2025-01-19T11:38:31Z</time>
      </trkpt>
      <trkpt lat="43.40826" lon="6.64748">
        <ele>308.4</ele>
        <time>2025-01-19T11:38:32Z</time>
      </trkpt>
      <trkpt lat="43.40827" lon="6.64748">
        <ele>308.5</ele>
        <time>2025-01-19T11:38:33Z</time>
      </trkpt>
      <trkpt lat="43.40827" lon="6.64748">
        <ele>308.5</ele>
        <time>2025-01-19T11:38:34Z</time>
      </trkpt>
      <trkpt lat="43.40827" lon="6.64748">
        <ele>308.6</ele>
        <time>2025-01-19T11:38:35Z</time>
      </trkpt>
      <trkpt lat="43.40827" lon="6.64748">
        <ele>308.7</ele>
        <time>2025-01-19T11:38:36Z</time>
      </trkpt>
      <trkpt lat="43.40827" lon="6.64748">
        <ele>308.7</ele>
        <time>2025-01-19T11:38:37Z</time>
      </trkpt>
      <trkpt lat="43.40827" lon="6.64748">
        <ele>308.7</ele>
        <time>2025-01-19T11:38:38Z</time>
      </trkpt>
      <trkpt lat="43.40827" lon="6.64748">
        <ele>308.7</ele>
        <time>2025-01-19T11:38:39Z</time>
      </trkpt>
      <trkpt lat="43.40828" lon="6.64748">
        <ele>308.7</ele>
        <time>2025-01-19T11:38:40Z</time>
      </trkpt>
      <trkpt lat="43.40828" lon="6.64748">
        <ele>308.7</ele>
        <time>2025-01-19T11:38:41Z</time>
      </trkpt>
      <trkpt lat="43.40828" lon="6.64748">
        <ele>308.6</ele>
        <time>2025-01-19T11:38:42Z</time>
      </trkpt>
      <trkpt lat="43.40828" lon="6.64748">
        <ele>308.6</ele>
        <time>2025-01-19T11:38:43Z</time>
      </trkpt>
      <trkpt lat="43.40828" lon="6.64749">
        <ele>308.6</ele>
        <time>2025-01-19T11:38:44Z</time>
      </trkpt>
      <trkpt lat="43.40828" lon="6.64749">
        <ele>308.8</ele>
        <time>2025-01-19T11:38:45Z</time>
      </trkpt>
      <trkpt lat="43.40828" lon="6.6475">
        <ele>308.9</ele>
        <time>2025-01-19T11:38:46Z</time>
      </trkpt>
      <trkpt lat="43.40828" lon="6.64751">
        <ele>308.9</ele>
        <time>2025-01-19T11:38:47Z</time>
      </trkpt>
      <trkpt lat="43.40828" lon="6.64751">
        <ele>309</ele>
        <time>2025-01-19T11:38:48Z</time>
      </trkpt>
      <trkpt lat="43.40828" lon="6.64751">
        <ele>309.1</ele>
        <time>2025-01-19T11:38:49Z</time>
      </trkpt>
      <trkpt lat="43.40827" lon="6.64751">
        <ele>309.1</ele>
        <time>2025-01-19T11:38:50Z</time>
      </trkpt>
      <trkpt lat="43.40827" lon="6.64751">
        <ele>309.1</ele>
        <time>2025-01-19T11:38:51Z</time>
      </trkpt>
      <trkpt lat="43.40827" lon="6.64751">
        <ele>309.1</ele>
        <time>2025-01-19T11:38:52Z</time>
      </trkpt>
      <trkpt lat="43.40827" lon="6.64751">
        <ele>309.1</ele>
        <time>2025-01-19T11:38:53Z</time>
      </trkpt>
      <trkpt lat="43.40827" lon="6.64751">
        <ele>309.1</ele>
        <time>2025-01-19T11:38:54Z</time>
      </trkpt>
      <trkpt lat="43.40827" lon="6.64752">
        <ele>309.1</ele>
        <time>2025-01-19T11:38:55Z</time>
      </trkpt>
      <trkpt lat="43.40827" lon="6.64752">
        <ele>309.1</ele>
        <time>2025-01-19T11:38:56Z</time>
      </trkpt>
      <trkpt lat="43.40826" lon="6.64752">
        <ele>309.1</ele>
        <time>2025-01-19T11:38:57Z</time>
      </trkpt>
      <trkpt lat="43.40826" lon="6.64752">
        <ele>309</ele>
        <time>2025-01-19T11:38:58Z</time>
      </trkpt>
      <trkpt lat="43.40826" lon="6.64753">
        <ele>309</ele>
        <time>2025-01-19T11:38:59Z</time>
      </trkpt>
      <trkpt lat="43.40825" lon="6.64755">
        <ele>309.1</ele>
        <time>2025-01-19T11:39:00Z</time>
      </trkpt>
      <trkpt lat="43.40825" lon="6.64756">
        <ele>309.1</ele>
        <time>2025-01-19T11:39:01Z</time>
      </trkpt>
      <trkpt lat="43.40824" lon="6.64757">
        <ele>309.1</ele>
        <time>2025-01-19T11:39:02Z</time>
      </trkpt>
      <trkpt lat="43.40823" lon="6.64758">
        <ele>309.2</ele>
        <time>2025-01-19T11:39:03Z</time>
      </trkpt>
      <trkpt lat="43.40822" lon="6.64759">
        <ele>309.3</ele>
        <time>2025-01-19T11:39:04Z</time>
      </trkpt>
      <trkpt lat="43.40821" lon="6.6476">
        <ele>309.4</ele>
        <time>2025-01-19T11:39:05Z</time>
      </trkpt>
      <trkpt lat="43.4082" lon="6.64761">
        <ele>309.5</ele>
        <time>2025-01-19T11:39:06Z</time>
      </trkpt>
      <trkpt lat="43.40819" lon="6.64763">
        <ele>309.6</ele>
        <time>2025-01-19T11:39:07Z</time>
      </trkpt>
      <trkpt lat="43.40819" lon="6.64764">
        <ele>309.7</ele>
        <time>2025-01-19T11:39:08Z</time>
      </trkpt>
      <trkpt lat="43.40816" lon="6.64765">
        <ele>309.7</ele>
        <time>2025-01-19T11:39:09Z</time>
      </trkpt>
      <trkpt lat="43.40816" lon="6.64766">
        <ele>309.9</ele>
        <time>2025-01-19T11:39:10Z</time>
      </trkpt>
      <trkpt lat="43.40815" lon="6.64768">
        <ele>310</ele>
        <time>2025-01-19T11:39:11Z</time>
      </trkpt>
      <trkpt lat="43.40815" lon="6.6477">
        <ele>310.1</ele>
        <time>2025-01-19T11:39:12Z</time>
      </trkpt>
      <trkpt lat="43.40814" lon="6.64771">
        <ele>310.3</ele>
        <time>2025-01-19T11:39:13Z</time>
      </trkpt>
      <trkpt lat="43.40813" lon="6.64772">
        <ele>310.5</ele>
        <time>2025-01-19T11:39:14Z</time>
      </trkpt>
      <trkpt lat="43.40812" lon="6.64774">
        <ele>310.6</ele>
        <time>2025-01-19T11:39:15Z</time>
      </trkpt>
      <trkpt lat="43.40811" lon="6.64774">
        <ele>310.7</ele>
        <time>2025-01-19T11:39:16Z</time>
      </trkpt>
      <trkpt lat="43.40811" lon="6.64775">
        <ele>310.8</ele>
        <time>2025-01-19T11:39:17Z</time>
      </trkpt>
      <trkpt lat="43.4081" lon="6.64777">
        <ele>310.9</ele>
        <time>2025-01-19T11:39:18Z</time>
      </trkpt>
      <trkpt lat="43.40809" lon="6.64778">
        <ele>310.9</ele>
        <time>2025-01-19T11:39:19Z</time>
      </trkpt>
      <trkpt lat="43.40808" lon="6.6478">
        <ele>311</ele>
        <time>2025-01-19T11:39:20Z</time>
      </trkpt>
      <trkpt lat="43.40808" lon="6.64781">
        <ele>310.9</ele>
        <time>2025-01-19T11:39:21Z</time>
      </trkpt>
      <trkpt lat="43.40808" lon="6.64783">
        <ele>311</ele>
        <time>2025-01-19T11:39:22Z</time>
      </trkpt>
      <trkpt lat="43.40807" lon="6.64784">
        <ele>311</ele>
        <time>2025-01-19T11:39:23Z</time>
      </trkpt>
      <trkpt lat="43.40806" lon="6.64786">
        <ele>311</ele>
        <time>2025-01-19T11:39:24Z</time>
      </trkpt>
      <trkpt lat="43.40806" lon="6.64787">
        <ele>310.9</ele>
        <time>2025-01-19T11:39:25Z</time>
      </trkpt>
      <trkpt lat="43.40805" lon="6.64789">
        <ele>310.9</ele>
        <time>2025-01-19T11:39:26Z</time>
      </trkpt>
      <trkpt lat="43.40804" lon="6.6479">
        <ele>311</ele>
        <time>2025-01-19T11:39:27Z</time>
      </trkpt>
      <trkpt lat="43.40803" lon="6.64791">
        <ele>311.1</ele>
        <time>2025-01-19T11:39:28Z</time>
      </trkpt>
      <trkpt lat="43.40803" lon="6.64793">
        <ele>311.1</ele>
        <time>2025-01-19T11:39:29Z</time>
      </trkpt>
      <trkpt lat="43.40802" lon="6.64794">
        <ele>311.2</ele>
        <time>2025-01-19T11:39:30Z</time>
      </trkpt>
      <trkpt lat="43.40802" lon="6.64795">
        <ele>311.2</ele>
        <time>2025-01-19T11:39:31Z</time>
      </trkpt>
      <trkpt lat="43.40801" lon="6.64797">
        <ele>311.2</ele>
        <time>2025-01-19T11:39:32Z</time>
      </trkpt>
      <trkpt lat="43.40801" lon="6.64798">
        <ele>311.2</ele>
        <time>2025-01-19T11:39:33Z</time>
      </trkpt>
      <trkpt lat="43.40801" lon="6.648">
        <ele>311.1</ele>
        <time>2025-01-19T11:39:34Z</time>
      </trkpt>
      <trkpt lat="43.40801" lon="6.64802">
        <ele>311.1</ele>
        <time>2025-01-19T11:39:35Z</time>
      </trkpt>
      <trkpt lat="43.40801" lon="6.64804">
        <ele>311</ele>
        <time>2025-01-19T11:39:36Z</time>
      </trkpt>
      <trkpt lat="43.40801" lon="6.64806">
        <ele>311.1</ele>
        <time>2025-01-19T11:39:37Z</time>
      </trkpt>
      <trkpt lat="43.40801" lon="6.64808">
        <ele>311.1</ele>
        <time>2025-01-19T11:39:38Z</time>
      </trkpt>
      <trkpt lat="43.40801" lon="6.6481">
        <ele>311.1</ele>
        <time>2025-01-19T11:39:39Z</time>
      </trkpt>
      <trkpt lat="43.408" lon="6.64812">
        <ele>311.2</ele>
        <time>2025-01-19T11:39:40Z</time>
      </trkpt>
      <trkpt lat="43.408" lon="6.64814">
        <ele>311.2</ele>
        <time>2025-01-19T11:39:41Z</time>
      </trkpt>
      <trkpt lat="43.40801" lon="6.64816">
        <ele>311.2</ele>
        <time>2025-01-19T11:39:42Z</time>
      </trkpt>
      <trkpt lat="43.40801" lon="6.64817">
        <ele>311.3</ele>
        <time>2025-01-19T11:39:43Z</time>
      </trkpt>
      <trkpt lat="43.40801" lon="6.64819">
        <ele>311.4</ele>
        <time>2025-01-19T11:39:44Z</time>
      </trkpt>
      <trkpt lat="43.40801" lon="6.64821">
        <ele>311.5</ele>
        <time>2025-01-19T11:39:45Z</time>
      </trkpt>
      <trkpt lat="43.40801" lon="6.64823">
        <ele>311.6</ele>
        <time>2025-01-19T11:39:46Z</time>
      </trkpt>
      <trkpt lat="43.40801" lon="6.64825">
        <ele>311.7</ele>
        <time>2025-01-19T11:39:47Z</time>
      </trkpt>
      <trkpt lat="43.40801" lon="6.64827">
        <ele>311.7</ele>
        <time>2025-01-19T11:39:48Z</time>
      </trkpt>
      <trkpt lat="43.40801" lon="6.64828">
        <ele>311.8</ele>
        <time>2025-01-19T11:39:49Z</time>
      </trkpt>
      <trkpt lat="43.40801" lon="6.6483">
        <ele>312</ele>
        <time>2025-01-19T11:39:50Z</time>
      </trkpt>
      <trkpt lat="43.40801" lon="6.64831">
        <ele>312.1</ele>
        <time>2025-01-19T11:39:51Z</time>
      </trkpt>
      <trkpt lat="43.40801" lon="6.64832">
        <ele>312.1</ele>
        <time>2025-01-19T11:39:52Z</time>
      </trkpt>
      <trkpt lat="43.40801" lon="6.64834">
        <ele>312.2</ele>
        <time>2025-01-19T11:39:53Z</time>
      </trkpt>
      <trkpt lat="43.408" lon="6.64836">
        <ele>312.2</ele>
        <time>2025-01-19T11:39:54Z</time>
      </trkpt>
      <trkpt lat="43.408" lon="6.64837">
        <ele>312.3</ele>
        <time>2025-01-19T11:39:55Z</time>
      </trkpt>
      <trkpt lat="43.40801" lon="6.64839">
        <ele>312.4</ele>
        <time>2025-01-19T11:39:56Z</time>
      </trkpt>
      <trkpt lat="43.40801" lon="6.6484">
        <ele>312.5</ele>
        <time>2025-01-19T11:39:57Z</time>
      </trkpt>
      <trkpt lat="43.40801" lon="6.64842">
        <ele>312.5</ele>
        <time>2025-01-19T11:39:58Z</time>
      </trkpt>
      <trkpt lat="43.40801" lon="6.64844">
        <ele>312.5</ele>
        <time>2025-01-19T11:39:59Z</time>
      </trkpt>
      <trkpt lat="43.408" lon="6.64845">
        <ele>312.6</ele>
        <time>2025-01-19T11:40:00Z</time>
      </trkpt>
      <trkpt lat="43.408" lon="6.64847">
        <ele>312.7</ele>
        <time>2025-01-19T11:40:01Z</time>
      </trkpt>
      <trkpt lat="43.408" lon="6.64849">
        <ele>312.7</ele>
        <time>2025-01-19T11:40:02Z</time>
      </trkpt>
      <trkpt lat="43.408" lon="6.6485">
        <ele>312.7</ele>
        <time>2025-01-19T11:40:03Z</time>
      </trkpt>
      <trkpt lat="43.408" lon="6.64852">
        <ele>312.8</ele>
        <time>2025-01-19T11:40:04Z</time>
      </trkpt>
      <trkpt lat="43.408" lon="6.64854">
        <ele>312.9</ele>
        <time>2025-01-19T11:40:05Z</time>
      </trkpt>
      <trkpt lat="43.408" lon="6.64855">
        <ele>312.8</ele>
        <time>2025-01-19T11:40:06Z</time>
      </trkpt>
      <trkpt lat="43.408" lon="6.64857">
        <ele>312.8</ele>
        <time>2025-01-19T11:40:07Z</time>
      </trkpt>
      <trkpt lat="43.408" lon="6.64858">
        <ele>312.8</ele>
        <time>2025-01-19T11:40:08Z</time>
      </trkpt>
      <trkpt lat="43.408" lon="6.6486">
        <ele>312.8</ele>
        <time>2025-01-19T11:40:09Z</time>
      </trkpt>
      <trkpt lat="43.408" lon="6.64861">
        <ele>312.8</ele>
        <time>2025-01-19T11:40:10Z</time>
      </trkpt>
      <trkpt lat="43.40799" lon="6.64863">
        <ele>312.8</ele>
        <time>2025-01-19T11:40:11Z</time>
      </trkpt>
      <trkpt lat="43.40799" lon="6.64865">
        <ele>312.8</ele>
        <time>2025-01-19T11:40:12Z</time>
      </trkpt>
      <trkpt lat="43.40799" lon="6.64867">
        <ele>312.8</ele>
        <time>2025-01-19T11:40:13Z</time>
      </trkpt>
      <trkpt lat="43.40798" lon="6.64868">
        <ele>312.7</ele>
        <time>2025-01-19T11:40:14Z</time>
      </trkpt>
      <trkpt lat="43.40798" lon="6.64869">
        <ele>312.6</ele>
        <time>2025-01-19T11:40:15Z</time>
      </trkpt>
      <trkpt lat="43.40798" lon="6.64871">
        <ele>312.6</ele>
        <time>2025-01-19T11:40:16Z</time>
      </trkpt>
      <trkpt lat="43.40797" lon="6.64872">
        <ele>312.5</ele>
        <time>2025-01-19T11:40:17Z</time>
      </trkpt>
      <trkpt lat="43.40797" lon="6.64874">
        <ele>312.4</ele>
        <time>2025-01-19T11:40:18Z</time>
      </trkpt>
      <trkpt lat="43.40797" lon="6.64876">
        <ele>312.2</ele>
        <time>2025-01-19T11:40:19Z</time>
      </trkpt>
      <trkpt lat="43.40797" lon="6.64878">
        <ele>312.2</ele>
        <time>2025-01-19T11:40:20Z</time>
      </trkpt>
      <trkpt lat="43.40797" lon="6.64879">
        <ele>312.1</ele>
        <time>2025-01-19T11:40:21Z</time>
      </trkpt>
      <trkpt lat="43.40797" lon="6.64881">
        <ele>312</ele>
        <time>2025-01-19T11:40:22Z</time>
      </trkpt>
      <trkpt lat="43.40797" lon="6.64882">
        <ele>311.9</ele>
        <time>2025-01-19T11:40:23Z</time>
      </trkpt>
      <trkpt lat="43.40797" lon="6.64884">
        <ele>311.9</ele>
        <time>2025-01-19T11:40:24Z</time>
      </trkpt>
      <trkpt lat="43.40797" lon="6.64886">
        <ele>311.8</ele>
        <time>2025-01-19T11:40:25Z</time>
      </trkpt>
      <trkpt lat="43.40797" lon="6.64887">
        <ele>311.7</ele>
        <time>2025-01-19T11:40:26Z</time>
      </trkpt>
      <trkpt lat="43.40798" lon="6.64889">
        <ele>311.7</ele>
        <time>2025-01-19T11:40:27Z</time>
      </trkpt>
      <trkpt lat="43.40798" lon="6.64891">
        <ele>311.7</ele>
        <time>2025-01-19T11:40:28Z</time>
      </trkpt>
      <trkpt lat="43.40799" lon="6.64892">
        <ele>311.7</ele>
        <time>2025-01-19T11:40:29Z</time>
      </trkpt>
      <trkpt lat="43.40799" lon="6.64894">
        <ele>311.7</ele>
        <time>2025-01-19T11:40:30Z</time>
      </trkpt>
      <trkpt lat="43.408" lon="6.64896">
        <ele>311.8</ele>
        <time>2025-01-19T11:40:31Z</time>
      </trkpt>
      <trkpt lat="43.408" lon="6.64897">
        <ele>311.9</ele>
        <time>2025-01-19T11:40:32Z</time>
      </trkpt>
      <trkpt lat="43.40801" lon="6.64898">
        <ele>312</ele>
        <time>2025-01-19T11:40:33Z</time>
      </trkpt>
      <trkpt lat="43.40801" lon="6.64899">
        <ele>312</ele>
        <time>2025-01-19T11:40:34Z</time>
      </trkpt>
      <trkpt lat="43.40802" lon="6.649">
        <ele>312.1</ele>
        <time>2025-01-19T11:40:35Z</time>
      </trkpt>
      <trkpt lat="43.40803" lon="6.64901">
        <ele>312.1</ele>
        <time>2025-01-19T11:40:36Z</time>
      </trkpt>
      <trkpt lat="43.40804" lon="6.64902">
        <ele>312.2</ele>
        <time>2025-01-19T11:40:37Z</time>
      </trkpt>
      <trkpt lat="43.40804" lon="6.64903">
        <ele>312.3</ele>
        <time>2025-01-19T11:40:38Z</time>
      </trkpt>
      <trkpt lat="43.40806" lon="6.64903">
        <ele>312.5</ele>
        <time>2025-01-19T11:40:39Z</time>
      </trkpt>
      <trkpt lat="43.40806" lon="6.64904">
        <ele>312.6</ele>
        <time>2025-01-19T11:40:40Z</time>
      </trkpt>
      <trkpt lat="43.40807" lon="6.64905">
        <ele>312.6</ele>
        <time>2025-01-19T11:40:41Z</time>
      </trkpt>
      <trkpt lat="43.40808" lon="6.64906">
        <ele>312.7</ele>
        <time>2025-01-19T11:40:42Z</time>
      </trkpt>
      <trkpt lat="43.40808" lon="6.64907">
        <ele>312.8</ele>
        <time>2025-01-19T11:40:43Z</time>
      </trkpt>
      <trkpt lat="43.40809" lon="6.64908">
        <ele>312.9</ele>
        <time>2025-01-19T11:40:44Z</time>
      </trkpt>
      <trkpt lat="43.40809" lon="6.64909">
        <ele>313</ele>
        <time>2025-01-19T11:40:45Z</time>
      </trkpt>
      <trkpt lat="43.40809" lon="6.6491">
        <ele>313.2</ele>
        <time>2025-01-19T11:40:46Z</time>
      </trkpt>
      <trkpt lat="43.4081" lon="6.64911">
        <ele>313.3</ele>
        <time>2025-01-19T11:40:47Z</time>
      </trkpt>
      <trkpt lat="43.4081" lon="6.64913">
        <ele>313.5</ele>
        <time>2025-01-19T11:40:48Z</time>
      </trkpt>
      <trkpt lat="43.40811" lon="6.64914">
        <ele>313.6</ele>
        <time>2025-01-19T11:40:49Z</time>
      </trkpt>
      <trkpt lat="43.40812" lon="6.64915">
        <ele>313.8</ele>
        <time>2025-01-19T11:40:50Z</time>
      </trkpt>
      <trkpt lat="43.40813" lon="6.64916">
        <ele>313.9</ele>
        <time>2025-01-19T11:40:51Z</time>
      </trkpt>
      <trkpt lat="43.40813" lon="6.64917">
        <ele>314.1</ele>
        <time>2025-01-19T11:40:52Z</time>
      </trkpt>
      <trkpt lat="43.40814" lon="6.64918">
        <ele>314.2</ele>
        <time>2025-01-19T11:40:53Z</time>
      </trkpt>
      <trkpt lat="43.40815" lon="6.64918">
        <ele>314.3</ele>
        <time>2025-01-19T11:40:54Z</time>
      </trkpt>
      <trkpt lat="43.40816" lon="6.6492">
        <ele>314.6</ele>
        <time>2025-01-19T11:40:55Z</time>
      </trkpt>
      <trkpt lat="43.40817" lon="6.64921">
        <ele>314.7</ele>
        <time>2025-01-19T11:40:56Z</time>
      </trkpt>
      <trkpt lat="43.40818" lon="6.64921">
        <ele>314.9</ele>
        <time>2025-01-19T11:40:57Z</time>
      </trkpt>
      <trkpt lat="43.40819" lon="6.64922">
        <ele>315.1</ele>
        <time>2025-01-19T11:40:58Z</time>
      </trkpt>
      <trkpt lat="43.4082" lon="6.64923">
        <ele>315.2</ele>
        <time>2025-01-19T11:40:59Z</time>
      </trkpt>
      <trkpt lat="43.40821" lon="6.64924">
        <ele>315.4</ele>
        <time>2025-01-19T11:41:00Z</time>
      </trkpt>
      <trkpt lat="43.40822" lon="6.64924">
        <ele>315.5</ele>
        <time>2025-01-19T11:41:01Z</time>
      </trkpt>
      <trkpt lat="43.40822" lon="6.64924">
        <ele>315.5</ele>
        <time>2025-01-19T11:41:02Z</time>
      </trkpt>
      <trkpt lat="43.40824" lon="6.64925">
        <ele>315.7</ele>
        <time>2025-01-19T11:41:03Z</time>
      </trkpt>
      <trkpt lat="43.40825" lon="6.64925">
        <ele>315.8</ele>
        <time>2025-01-19T11:41:04Z</time>
      </trkpt>
      <trkpt lat="43.40826" lon="6.64926">
        <ele>315.9</ele>
        <time>2025-01-19T11:41:05Z</time>
      </trkpt>
      <trkpt lat="43.40827" lon="6.64926">
        <ele>316</ele>
        <time>2025-01-19T11:41:06Z</time>
      </trkpt>
      <trkpt lat="43.40828" lon="6.64927">
        <ele>316.1</ele>
        <time>2025-01-19T11:41:07Z</time>
      </trkpt>
      <trkpt lat="43.40829" lon="6.64927">
        <ele>316.2</ele>
        <time>2025-01-19T11:41:08Z</time>
      </trkpt>
      <trkpt lat="43.4083" lon="6.64928">
        <ele>316.3</ele>
        <time>2025-01-19T11:41:09Z</time>
      </trkpt>
      <trkpt lat="43.40831" lon="6.64929">
        <ele>316.2</ele>
        <time>2025-01-19T11:41:10Z</time>
      </trkpt>
      <trkpt lat="43.40833" lon="6.6493">
        <ele>316.2</ele>
        <time>2025-01-19T11:41:11Z</time>
      </trkpt>
      <trkpt lat="43.40834" lon="6.64931">
        <ele>316.3</ele>
        <time>2025-01-19T11:41:12Z</time>
      </trkpt>
      <trkpt lat="43.40835" lon="6.64932">
        <ele>316.3</ele>
        <time>2025-01-19T11:41:13Z</time>
      </trkpt>
      <trkpt lat="43.40836" lon="6.64933">
        <ele>316.4</ele>
        <time>2025-01-19T11:41:14Z</time>
      </trkpt>
      <trkpt lat="43.40837" lon="6.64933">
        <ele>316.5</ele>
        <time>2025-01-19T11:41:15Z</time>
      </trkpt>
      <trkpt lat="43.40838" lon="6.64933">
        <ele>316.5</ele>
        <time>2025-01-19T11:41:16Z</time>
      </trkpt>
      <trkpt lat="43.4084" lon="6.64934">
        <ele>316.5</ele>
        <time>2025-01-19T11:41:17Z</time>
      </trkpt>
      <trkpt lat="43.40841" lon="6.64934">
        <ele>316.5</ele>
        <time>2025-01-19T11:41:18Z</time>
      </trkpt>
      <trkpt lat="43.40842" lon="6.64935">
        <ele>316.6</ele>
        <time>2025-01-19T11:41:19Z</time>
      </trkpt>
      <trkpt lat="43.40843" lon="6.64936">
        <ele>316.6</ele>
        <time>2025-01-19T11:41:20Z</time>
      </trkpt>
      <trkpt lat="43.40843" lon="6.64937">
        <ele>316.8</ele>
        <time>2025-01-19T11:41:21Z</time>
      </trkpt>
      <trkpt lat="43.40844" lon="6.64938">
        <ele>316.9</ele>
        <time>2025-01-19T11:41:22Z</time>
      </trkpt>
      <trkpt lat="43.40844" lon="6.64939">
        <ele>317</ele>
        <time>2025-01-19T11:41:23Z</time>
      </trkpt>
      <trkpt lat="43.40845" lon="6.6494">
        <ele>317.1</ele>
        <time>2025-01-19T11:41:24Z</time>
      </trkpt>
      <trkpt lat="43.40846" lon="6.64942">
        <ele>317.2</ele>
        <time>2025-01-19T11:41:25Z</time>
      </trkpt>
      <trkpt lat="43.40846" lon="6.64943">
        <ele>317.3</ele>
        <time>2025-01-19T11:41:26Z</time>
      </trkpt>
      <trkpt lat="43.40846" lon="6.64944">
        <ele>317.4</ele>
        <time>2025-01-19T11:41:27Z</time>
      </trkpt>
      <trkpt lat="43.40846" lon="6.64945">
        <ele>317.5</ele>
        <time>2025-01-19T11:41:28Z</time>
      </trkpt>
      <trkpt lat="43.40846" lon="6.64945">
        <ele>317.6</ele>
        <time>2025-01-19T11:41:29Z</time>
      </trkpt>
      <trkpt lat="43.40847" lon="6.64946">
        <ele>317.6</ele>
        <time>2025-01-19T11:41:30Z</time>
      </trkpt>
      <trkpt lat="43.40847" lon="6.64945">
        <ele>317.7</ele>
        <time>2025-01-19T11:41:31Z</time>
      </trkpt>
      <trkpt lat="43.40847" lon="6.64945">
        <ele>317.7</ele>
        <time>2025-01-19T11:41:32Z</time>
      </trkpt>
      <trkpt lat="43.40847" lon="6.64945">
        <ele>317.8</ele>
        <time>2025-01-19T11:41:33Z</time>
      </trkpt>
      <trkpt lat="43.40847" lon="6.64945">
        <ele>317.8</ele>
        <time>2025-01-19T11:41:34Z</time>
      </trkpt>
      <trkpt lat="43.40847" lon="6.64945">
        <ele>317.8</ele>
        <time>2025-01-19T11:41:35Z</time>
      </trkpt>
      <trkpt lat="43.40847" lon="6.64945">
        <ele>317.8</ele>
        <time>2025-01-19T11:41:36Z</time>
      </trkpt>
      <trkpt lat="43.40847" lon="6.64945">
        <ele>317.8</ele>
        <time>2025-01-19T11:41:37Z</time>
      </trkpt>
      <trkpt lat="43.40847" lon="6.64945">
        <ele>317.8</ele>
        <time>2025-01-19T11:41:38Z</time>
      </trkpt>
      <trkpt lat="43.40847" lon="6.64945">
        <ele>317.8</ele>
        <time>2025-01-19T11:41:39Z</time>
      </trkpt>
      <trkpt lat="43.40847" lon="6.64946">
        <ele>317.8</ele>
        <time>2025-01-19T11:41:40Z</time>
      </trkpt>
      <trkpt lat="43.40847" lon="6.64946">
        <ele>317.8</ele>
        <time>2025-01-19T11:41:41Z</time>
      </trkpt>
      <trkpt lat="43.40847" lon="6.64945">
        <ele>317.9</ele>
        <time>2025-01-19T11:41:42Z</time>
      </trkpt>
      <trkpt lat="43.40847" lon="6.64945">
        <ele>317.9</ele>
        <time>2025-01-19T11:41:43Z</time>
      </trkpt>
      <trkpt lat="43.40847" lon="6.64945">
        <ele>317.9</ele>
        <time>2025-01-19T11:41:44Z</time>
      </trkpt>
      <trkpt lat="43.40847" lon="6.64945">
        <ele>317.9</ele>
        <time>2025-01-19T11:41:45Z</time>
      </trkpt>
      <trkpt lat="43.40847" lon="6.64945">
        <ele>317.9</ele>
        <time>2025-01-19T11:41:46Z</time>
      </trkpt>
      <trkpt lat="43.40847" lon="6.64945">
        <ele>317.9</ele>
        <time>2025-01-19T11:41:47Z</time>
      </trkpt>
      <trkpt lat="43.40847" lon="6.64945">
        <ele>317.9</ele>
        <time>2025-01-19T11:41:48Z</time>
      </trkpt>
      <trkpt lat="43.40847" lon="6.64945">
        <ele>317.9</ele>
        <time>2025-01-19T11:41:49Z</time>
      </trkpt>
      <trkpt lat="43.40847" lon="6.64945">
        <ele>317.8</ele>
        <time>2025-01-19T11:41:50Z</time>
      </trkpt>
      <trkpt lat="43.40847" lon="6.64945">
        <ele>317.8</ele>
        <time>2025-01-19T11:41:51Z</time>
      </trkpt>
      <trkpt lat="43.40848" lon="6.64945">
        <ele>317.9</ele>
        <time>2025-01-19T11:41:52Z</time>
      </trkpt>
      <trkpt lat="43.40848" lon="6.64944">
        <ele>317.9</ele>
        <time>2025-01-19T11:41:53Z</time>
      </trkpt>
      <trkpt lat="43.40848" lon="6.64945">
        <ele>317.9</ele>
        <time>2025-01-19T11:41:54Z</time>
      </trkpt>
      <trkpt lat="43.40848" lon="6.64945">
        <ele>317.8</ele>
        <time>2025-01-19T11:41:55Z</time>
      </trkpt>
      <trkpt lat="43.40848" lon="6.64944">
        <ele>317.7</ele>
        <time>2025-01-19T11:41:56Z</time>
      </trkpt>
      <trkpt lat="43.40848" lon="6.64944">
        <ele>317.7</ele>
        <time>2025-01-19T11:41:57Z</time>
      </trkpt>
      <trkpt lat="43.40847" lon="6.64944">
        <ele>317.8</ele>
        <time>2025-01-19T11:41:58Z</time>
      </trkpt>
      <trkpt lat="43.40847" lon="6.64944">
        <ele>317.8</ele>
        <time>2025-01-19T11:41:59Z</time>
      </trkpt>
      <trkpt lat="43.40846" lon="6.64945">
        <ele>317.7</ele>
        <time>2025-01-19T11:42:00Z</time>
      </trkpt>
      <trkpt lat="43.40847" lon="6.64945">
        <ele>317.7</ele>
        <time>2025-01-19T11:42:01Z</time>
      </trkpt>
      <trkpt lat="43.40847" lon="6.64945">
        <ele>317.7</ele>
        <time>2025-01-19T11:42:02Z</time>
      </trkpt>
      <trkpt lat="43.40847" lon="6.64944">
        <ele>317.7</ele>
        <time>2025-01-19T11:42:03Z</time>
      </trkpt>
      <trkpt lat="43.40847" lon="6.64944">
        <ele>317.7</ele>
        <time>2025-01-19T11:42:04Z</time>
      </trkpt>
      <trkpt lat="43.40847" lon="6.64944">
        <ele>317.7</ele>
        <time>2025-01-19T11:42:05Z</time>
      </trkpt>
      <trkpt lat="43.40847" lon="6.64944">
        <ele>317.7</ele>
        <time>2025-01-19T11:42:06Z</time>
      </trkpt>
      <trkpt lat="43.40847" lon="6.64944">
        <ele>317.8</ele>
        <time>2025-01-19T11:42:07Z</time>
      </trkpt>
      <trkpt lat="43.40847" lon="6.64944">
        <ele>317.8</ele>
        <time>2025-01-19T11:42:08Z</time>
      </trkpt>
      <trkpt lat="43.40847" lon="6.64944">
        <ele>317.9</ele>
        <time>2025-01-19T11:42:09Z</time>
      </trkpt>
      <trkpt lat="43.40847" lon="6.64944">
        <ele>317.9</ele>
        <time>2025-01-19T11:42:10Z</time>
      </trkpt>
      <trkpt lat="43.40847" lon="6.64944">
        <ele>318</ele>
        <time>2025-01-19T11:42:11Z</time>
      </trkpt>
      <trkpt lat="43.40847" lon="6.64944">
        <ele>318.1</ele>
        <time>2025-01-19T11:42:12Z</time>
      </trkpt>
      <trkpt lat="43.40847" lon="6.64944">
        <ele>318.1</ele>
        <time>2025-01-19T11:42:13Z</time>
      </trkpt>
      <trkpt lat="43.40847" lon="6.64944">
        <ele>318.1</ele>
        <time>2025-01-19T11:42:14Z</time>
      </trkpt>
      <trkpt lat="43.40847" lon="6.64944">
        <ele>318</ele>
        <time>2025-01-19T11:42:15Z</time>
      </trkpt>
      <trkpt lat="43.40847" lon="6.64944">
        <ele>318</ele>
        <time>2025-01-19T11:42:16Z</time>
      </trkpt>
      <trkpt lat="43.40847" lon="6.64944">
        <ele>318</ele>
        <time>2025-01-19T11:42:17Z</time>
      </trkpt>
      <trkpt lat="43.40847" lon="6.64944">
        <ele>318</ele>
        <time>2025-01-19T11:42:18Z</time>
      </trkpt>
      <trkpt lat="43.40847" lon="6.64944">
        <ele>317.9</ele>
        <time>2025-01-19T11:42:19Z</time>
      </trkpt>
      <trkpt lat="43.40847" lon="6.64944">
        <ele>317.9</ele>
        <time>2025-01-19T11:42:20Z</time>
      </trkpt>
      <trkpt lat="43.40847" lon="6.64945">
        <ele>317.9</ele>
        <time>2025-01-19T11:42:21Z</time>
      </trkpt>
      <trkpt lat="43.40847" lon="6.64945">
        <ele>317.9</ele>
        <time>2025-01-19T11:42:22Z</time>
      </trkpt>
      <trkpt lat="43.40847" lon="6.64945">
        <ele>318</ele>
        <time>2025-01-19T11:42:23Z</time>
      </trkpt>
      <trkpt lat="43.40847" lon="6.64945">
        <ele>318</ele>
        <time>2025-01-19T11:42:24Z</time>
      </trkpt>
      <trkpt lat="43.40847" lon="6.64945">
        <ele>318</ele>
        <time>2025-01-19T11:42:25Z</time>
      </trkpt>
      <trkpt lat="43.40847" lon="6.64945">
        <ele>318.1</ele>
        <time>2025-01-19T11:42:26Z</time>
      </trkpt>
      <trkpt lat="43.40847" lon="6.64945">
        <ele>318.1</ele>
        <time>2025-01-19T11:42:27Z</time>
      </trkpt>
      <trkpt lat="43.40847" lon="6.64945">
        <ele>318.1</ele>
        <time>2025-01-19T11:42:28Z</time>
      </trkpt>
      <trkpt lat="43.40847" lon="6.64945">
        <ele>318.1</ele>
        <time>2025-01-19T11:42:29Z</time>
      </trkpt>
      <trkpt lat="43.40847" lon="6.64945">
        <ele>318.1</ele>
        <time>2025-01-19T11:42:30Z</time>
      </trkpt>
      <trkpt lat="43.40847" lon="6.64945">
        <ele>318.2</ele>
        <time>2025-01-19T11:42:31Z</time>
      </trkpt>
      <trkpt lat="43.40847" lon="6.64945">
        <ele>318.2</ele>
        <time>2025-01-19T11:42:32Z</time>
      </trkpt>
      <trkpt lat="43.40847" lon="6.64945">
        <ele>318.2</ele>
        <time>2025-01-19T11:42:33Z</time>
      </trkpt>
      <trkpt lat="43.40847" lon="6.64945">
        <ele>318.2</ele>
        <time>2025-01-19T11:42:34Z</time>
      </trkpt>
      <trkpt lat="43.40847" lon="6.64945">
        <ele>318.2</ele>
        <time>2025-01-19T11:42:35Z</time>
      </trkpt>
      <trkpt lat="43.40847" lon="6.64945">
        <ele>318.2</ele>
        <time>2025-01-19T11:42:36Z</time>
      </trkpt>
      <trkpt lat="43.40847" lon="6.64945">
        <ele>318.2</ele>
        <time>2025-01-19T11:42:37Z</time>
      </trkpt>
      <trkpt lat="43.40847" lon="6.64945">
        <ele>318.2</ele>
        <time>2025-01-19T11:42:38Z</time>
      </trkpt>
      <trkpt lat="43.40847" lon="6.64945">
        <ele>318.1</ele>
        <time>2025-01-19T11:42:39Z</time>
      </trkpt>
      <trkpt lat="43.40847" lon="6.64945">
        <ele>318.2</ele>
        <time>2025-01-19T11:42:40Z</time>
      </trkpt>
      <trkpt lat="43.40847" lon="6.64945">
        <ele>318.3</ele>
        <time>2025-01-19T11:42:41Z</time>
      </trkpt>
      <trkpt lat="43.40847" lon="6.64946">
        <ele>318.3</ele>
        <time>2025-01-19T11:42:42Z</time>
      </trkpt>
      <trkpt lat="43.40847" lon="6.64946">
        <ele>318.3</ele>
        <time>2025-01-19T11:42:43Z</time>
      </trkpt>
      <trkpt lat="43.40847" lon="6.64946">
        <ele>318.3</ele>
        <time>2025-01-19T11:42:44Z</time>
      </trkpt>
      <trkpt lat="43.40847" lon="6.64946">
        <ele>318.3</ele>
        <time>2025-01-19T11:42:45Z</time>
      </trkpt>
      <trkpt lat="43.40847" lon="6.64946">
        <ele>318.4</ele>
        <time>2025-01-19T11:42:46Z</time>
      </trkpt>
      <trkpt lat="43.40848" lon="6.64946">
        <ele>318.5</ele>
        <time>2025-01-19T11:42:47Z</time>
      </trkpt>
      <trkpt lat="43.40848" lon="6.64946">
        <ele>318.5</ele>
        <time>2025-01-19T11:42:48Z</time>
      </trkpt>
      <trkpt lat="43.40848" lon="6.64946">
        <ele>318.4</ele>
        <time>2025-01-19T11:42:49Z</time>
      </trkpt>
      <trkpt lat="43.40847" lon="6.64946">
        <ele>318.4</ele>
        <time>2025-01-19T11:42:50Z</time>
      </trkpt>
      <trkpt lat="43.40847" lon="6.64946">
        <ele>318.4</ele>
        <time>2025-01-19T11:42:51Z</time>
      </trkpt>
      <trkpt lat="43.40847" lon="6.64946">
        <ele>318.5</ele>
        <time>2025-01-19T11:42:52Z</time>
      </trkpt>
      <trkpt lat="43.40847" lon="6.64946">
        <ele>318.5</ele>
        <time>2025-01-19T11:42:53Z</time>
      </trkpt>
      <trkpt lat="43.40847" lon="6.64946">
        <ele>318.5</ele>
        <time>2025-01-19T11:42:54Z</time>
      </trkpt>
      <trkpt lat="43.40847" lon="6.64946">
        <ele>318.5</ele>
        <time>2025-01-19T11:42:55Z</time>
      </trkpt>
      <trkpt lat="43.40847" lon="6.64946">
        <ele>318.5</ele>
        <time>2025-01-19T11:42:56Z</time>
      </trkpt>
      <trkpt lat="43.40847" lon="6.64946">
        <ele>318.3</ele>
        <time>2025-01-19T11:42:57Z</time>
      </trkpt>
      <trkpt lat="43.40847" lon="6.64946">
        <ele>318.3</ele>
        <time>2025-01-19T11:42:58Z</time>
      </trkpt>
      <trkpt lat="43.40847" lon="6.64946">
        <ele>318.3</ele>
        <time>2025-01-19T11:42:59Z</time>
      </trkpt>
      <trkpt lat="43.40847" lon="6.64946">
        <ele>318.3</ele>
        <time>2025-01-19T11:43:00Z</time>
      </trkpt>
      <trkpt lat="43.40847" lon="6.64946">
        <ele>318.3</ele>
        <time>2025-01-19T11:43:01Z</time>
      </trkpt>
      <trkpt lat="43.40847" lon="6.64946">
        <ele>318.3</ele>
        <time>2025-01-19T11:43:02Z</time>
      </trkpt>
      <trkpt lat="43.40847" lon="6.64946">
        <ele>318.3</ele>
        <time>2025-01-19T11:43:03Z</time>
      </trkpt>
      <trkpt lat="43.40847" lon="6.64946">
        <ele>318.2</ele>
        <time>2025-01-19T11:43:04Z</time>
      </trkpt>
      <trkpt lat="43.40847" lon="6.64946">
        <ele>318.1</ele>
        <time>2025-01-19T11:43:05Z</time>
      </trkpt>
      <trkpt lat="43.40847" lon="6.64946">
        <ele>318</ele>
        <time>2025-01-19T11:43:06Z</time>
      </trkpt>
      <trkpt lat="43.40847" lon="6.64946">
        <ele>318</ele>
        <time>2025-01-19T11:43:07Z</time>
      </trkpt>
      <trkpt lat="43.40847" lon="6.64946">
        <ele>318</ele>
        <time>2025-01-19T11:43:08Z</time>
      </trkpt>
      <trkpt lat="43.40847" lon="6.64946">
        <ele>317.9</ele>
        <time>2025-01-19T11:43:09Z</time>
      </trkpt>
      <trkpt lat="43.40847" lon="6.64946">
        <ele>317.9</ele>
        <time>2025-01-19T11:43:10Z</time>
      </trkpt>
      <trkpt lat="43.40847" lon="6.64946">
        <ele>317.8</ele>
        <time>2025-01-19T11:43:11Z</time>
      </trkpt>
      <trkpt lat="43.40847" lon="6.64946">
        <ele>317.9</ele>
        <time>2025-01-19T11:43:12Z</time>
      </trkpt>
      <trkpt lat="43.40847" lon="6.64946">
        <ele>318</ele>
        <time>2025-01-19T11:43:13Z</time>
      </trkpt>
      <trkpt lat="43.40847" lon="6.64946">
        <ele>318.1</ele>
        <time>2025-01-19T11:43:14Z</time>
      </trkpt>
      <trkpt lat="43.40847" lon="6.64946">
        <ele>318.1</ele>
        <time>2025-01-19T11:43:15Z</time>
      </trkpt>
      <trkpt lat="43.40847" lon="6.64946">
        <ele>318.1</ele>
        <time>2025-01-19T11:43:16Z</time>
      </trkpt>
      <trkpt lat="43.40847" lon="6.64946">
        <ele>318.2</ele>
        <time>2025-01-19T11:43:17Z</time>
      </trkpt>
      <trkpt lat="43.40847" lon="6.64946">
        <ele>318.3</ele>
        <time>2025-01-19T11:43:18Z</time>
      </trkpt>
      <trkpt lat="43.40847" lon="6.64946">
        <ele>318.3</ele>
        <time>2025-01-19T11:43:19Z</time>
      </trkpt>
      <trkpt lat="43.40847" lon="6.64946">
        <ele>318.3</ele>
        <time>2025-01-19T11:43:20Z</time>
      </trkpt>
      <trkpt lat="43.40847" lon="6.64946">
        <ele>318.3</ele>
        <time>2025-01-19T11:43:21Z</time>
      </trkpt>
      <trkpt lat="43.40846" lon="6.64946">
        <ele>318.3</ele>
        <time>2025-01-19T11:43:22Z</time>
      </trkpt>
      <trkpt lat="43.40846" lon="6.64946">
        <ele>318.3</ele>
        <time>2025-01-19T11:43:23Z</time>
      </trkpt>
      <trkpt lat="43.40846" lon="6.64946">
        <ele>318.3</ele>
        <time>2025-01-19T11:43:24Z</time>
      </trkpt>
      <trkpt lat="43.40846" lon="6.64946">
        <ele>318.3</ele>
        <time>2025-01-19T11:43:25Z</time>
      </trkpt>
      <trkpt lat="43.40846" lon="6.64946">
        <ele>318.3</ele>
        <time>2025-01-19T11:43:26Z</time>
      </trkpt>
      <trkpt lat="43.40846" lon="6.64946">
        <ele>318.3</ele>
        <time>2025-01-19T11:43:27Z</time>
      </trkpt>
      <trkpt lat="43.40845" lon="6.64946">
        <ele>318.2</ele>
        <time>2025-01-19T11:43:28Z</time>
      </trkpt>
      <trkpt lat="43.40845" lon="6.64946">
        <ele>318.1</ele>
        <time>2025-01-19T11:43:29Z</time>
      </trkpt>
      <trkpt lat="43.40845" lon="6.64946">
        <ele>318.1</ele>
        <time>2025-01-19T11:43:30Z</time>
      </trkpt>
      <trkpt lat="43.40845" lon="6.64946">
        <ele>318</ele>
        <time>2025-01-19T11:43:31Z</time>
      </trkpt>
      <trkpt lat="43.40845" lon="6.64946">
        <ele>318</ele>
        <time>2025-01-19T11:43:32Z</time>
      </trkpt>
      <trkpt lat="43.40845" lon="6.64946">
        <ele>318</ele>
        <time>2025-01-19T11:43:33Z</time>
      </trkpt>
      <trkpt lat="43.40845" lon="6.64946">
        <ele>318</ele>
        <time>2025-01-19T11:43:34Z</time>
      </trkpt>
      <trkpt lat="43.40845" lon="6.64946">
        <ele>318</ele>
        <time>2025-01-19T11:43:35Z</time>
      </trkpt>
      <trkpt lat="43.40845" lon="6.64946">
        <ele>318</ele>
        <time>2025-01-19T11:43:36Z</time>
      </trkpt>
      <trkpt lat="43.40845" lon="6.64946">
        <ele>318</ele>
        <time>2025-01-19T11:43:37Z</time>
      </trkpt>
      <trkpt lat="43.40844" lon="6.64947">
        <ele>317.9</ele>
        <time>2025-01-19T11:43:38Z</time>
      </trkpt>
      <trkpt lat="43.40844" lon="6.64947">
        <ele>318</ele>
        <time>2025-01-19T11:43:39Z</time>
      </trkpt>
      <trkpt lat="43.40844" lon="6.64947">
        <ele>318</ele>
        <time>2025-01-19T11:43:40Z</time>
      </trkpt>
      <trkpt lat="43.40844" lon="6.64947">
        <ele>318</ele>
        <time>2025-01-19T11:43:41Z</time>
      </trkpt>
      <trkpt lat="43.40844" lon="6.64947">
        <ele>318.1</ele>
        <time>2025-01-19T11:43:42Z</time>
      </trkpt>
      <trkpt lat="43.40844" lon="6.64948">
        <ele>318.1</ele>
        <time>2025-01-19T11:43:43Z</time>
      </trkpt>
      <trkpt lat="43.40844" lon="6.64949">
        <ele>318.1</ele>
        <time>2025-01-19T11:43:44Z</time>
      </trkpt>
      <trkpt lat="43.40844" lon="6.6495">
        <ele>318.3</ele>
        <time>2025-01-19T11:43:45Z</time>
      </trkpt>
      <trkpt lat="43.40844" lon="6.64951">
        <ele>318.3</ele>
        <time>2025-01-19T11:43:46Z</time>
      </trkpt>
      <trkpt lat="43.40844" lon="6.64951">
        <ele>318.5</ele>
        <time>2025-01-19T11:43:47Z</time>
      </trkpt>
      <trkpt lat="43.40843" lon="6.64952">
        <ele>318.6</ele>
        <time>2025-01-19T11:43:48Z</time>
      </trkpt>
      <trkpt lat="43.40843" lon="6.64953">
        <ele>318.8</ele>
        <time>2025-01-19T11:43:49Z</time>
      </trkpt>
      <trkpt lat="43.40842" lon="6.64954">
        <ele>319</ele>
        <time>2025-01-19T11:43:50Z</time>
      </trkpt>
      <trkpt lat="43.40841" lon="6.64955">
        <ele>319.3</ele>
        <time>2025-01-19T11:43:51Z</time>
      </trkpt>
      <trkpt lat="43.40841" lon="6.64956">
        <ele>319.4</ele>
        <time>2025-01-19T11:43:52Z</time>
      </trkpt>
      <trkpt lat="43.40841" lon="6.64957">
        <ele>319.6</ele>
        <time>2025-01-19T11:43:53Z</time>
      </trkpt>
      <trkpt lat="43.4084" lon="6.64958">
        <ele>319.8</ele>
        <time>2025-01-19T11:43:54Z</time>
      </trkpt>
      <trkpt lat="43.4084" lon="6.64958">
        <ele>320</ele>
        <time>2025-01-19T11:43:55Z</time>
      </trkpt>
      <trkpt lat="43.40839" lon="6.6496">
        <ele>320.1</ele>
        <time>2025-01-19T11:43:56Z</time>
      </trkpt>
      <trkpt lat="43.40839" lon="6.64961">
        <ele>320.2</ele>
        <time>2025-01-19T11:43:57Z</time>
      </trkpt>
      <trkpt lat="43.40838" lon="6.64963">
        <ele>320.3</ele>
        <time>2025-01-19T11:43:58Z</time>
      </trkpt>
      <trkpt lat="43.40838" lon="6.64964">
        <ele>320.4</ele>
        <time>2025-01-19T11:43:59Z</time>
      </trkpt>
      <trkpt lat="43.40837" lon="6.64966">
        <ele>320.6</ele>
        <time>2025-01-19T11:44:00Z</time>
      </trkpt>
      <trkpt lat="43.40837" lon="6.64967">
        <ele>320.7</ele>
        <time>2025-01-19T11:44:01Z</time>
      </trkpt>
      <trkpt lat="43.40837" lon="6.64969">
        <ele>320.8</ele>
        <time>2025-01-19T11:44:02Z</time>
      </trkpt>
      <trkpt lat="43.40837" lon="6.64971">
        <ele>320.9</ele>
        <time>2025-01-19T11:44:03Z</time>
      </trkpt>
      <trkpt lat="43.40837" lon="6.64973">
        <ele>320.9</ele>
        <time>2025-01-19T11:44:04Z</time>
      </trkpt>
      <trkpt lat="43.40837" lon="6.64974">
        <ele>321.1</ele>
        <time>2025-01-19T11:44:05Z</time>
      </trkpt>
      <trkpt lat="43.40837" lon="6.64976">
        <ele>321.2</ele>
        <time>2025-01-19T11:44:06Z</time>
      </trkpt>
      <trkpt lat="43.40837" lon="6.64978">
        <ele>321.3</ele>
        <time>2025-01-19T11:44:07Z</time>
      </trkpt>
      <trkpt lat="43.40837" lon="6.6498">
        <ele>321.3</ele>
        <time>2025-01-19T11:44:08Z</time>
      </trkpt>
      <trkpt lat="43.40837" lon="6.64981">
        <ele>321.4</ele>
        <time>2025-01-19T11:44:09Z</time>
      </trkpt>
      <trkpt lat="43.40836" lon="6.64983">
        <ele>321.5</ele>
        <time>2025-01-19T11:44:10Z</time>
      </trkpt>
      <trkpt lat="43.40836" lon="6.64984">
        <ele>321.5</ele>
        <time>2025-01-19T11:44:11Z</time>
      </trkpt>
      <trkpt lat="43.40837" lon="6.64986">
        <ele>321.6</ele>
        <time>2025-01-19T11:44:12Z</time>
      </trkpt>
      <trkpt lat="43.40836" lon="6.64987">
        <ele>321.7</ele>
        <time>2025-01-19T11:44:13Z</time>
      </trkpt>
      <trkpt lat="43.40837" lon="6.64989">
        <ele>321.9</ele>
        <time>2025-01-19T11:44:14Z</time>
      </trkpt>
      <trkpt lat="43.40837" lon="6.64991">
        <ele>322</ele>
        <time>2025-01-19T11:44:15Z</time>
      </trkpt>
      <trkpt lat="43.40837" lon="6.64992">
        <ele>322.1</ele>
        <time>2025-01-19T11:44:16Z</time>
      </trkpt>
      <trkpt lat="43.40837" lon="6.64994">
        <ele>322.3</ele>
        <time>2025-01-19T11:44:17Z</time>
      </trkpt>
      <trkpt lat="43.40838" lon="6.64995">
        <ele>322.4</ele>
        <time>2025-01-19T11:44:18Z</time>
      </trkpt>
      <trkpt lat="43.40838" lon="6.64997">
        <ele>322.6</ele>
        <time>2025-01-19T11:44:19Z</time>
      </trkpt>
      <trkpt lat="43.40838" lon="6.64998">
        <ele>322.8</ele>
        <time>2025-01-19T11:44:20Z</time>
      </trkpt>
      <trkpt lat="43.40837" lon="6.65">
        <ele>323</ele>
        <time>2025-01-19T11:44:21Z</time>
      </trkpt>
      <trkpt lat="43.40837" lon="6.65002">
        <ele>323.2</ele>
        <time>2025-01-19T11:44:22Z</time>
      </trkpt>
      <trkpt lat="43.40838" lon="6.65003">
        <ele>323.5</ele>
        <time>2025-01-19T11:44:23Z</time>
      </trkpt>
      <trkpt lat="43.40838" lon="6.65005">
        <ele>323.7</ele>
        <time>2025-01-19T11:44:24Z</time>
      </trkpt>
      <trkpt lat="43.40838" lon="6.65006">
        <ele>323.9</ele>
        <time>2025-01-19T11:44:25Z</time>
      </trkpt>
      <trkpt lat="43.40838" lon="6.65008">
        <ele>324.1</ele>
        <time>2025-01-19T11:44:26Z</time>
      </trkpt>
      <trkpt lat="43.40839" lon="6.6501">
        <ele>324.2</ele>
        <time>2025-01-19T11:44:27Z</time>
      </trkpt>
      <trkpt lat="43.40839" lon="6.65011">
        <ele>324.3</ele>
        <time>2025-01-19T11:44:28Z</time>
      </trkpt>
      <trkpt lat="43.4084" lon="6.65012">
        <ele>324.4</ele>
        <time>2025-01-19T11:44:29Z</time>
      </trkpt>
      <trkpt lat="43.4084" lon="6.65013">
        <ele>324.5</ele>
        <time>2025-01-19T11:44:30Z</time>
      </trkpt>
      <trkpt lat="43.4084" lon="6.65015">
        <ele>324.7</ele>
        <time>2025-01-19T11:44:31Z</time>
      </trkpt>
      <trkpt lat="43.40841" lon="6.65017">
        <ele>324.8</ele>
        <time>2025-01-19T11:44:32Z</time>
      </trkpt>
      <trkpt lat="43.40841" lon="6.65019">
        <ele>325</ele>
        <time>2025-01-19T11:44:33Z</time>
      </trkpt>
      <trkpt lat="43.40841" lon="6.6502">
        <ele>325.2</ele>
        <time>2025-01-19T11:44:34Z</time>
      </trkpt>
      <trkpt lat="43.40842" lon="6.65022">
        <ele>325.3</ele>
        <time>2025-01-19T11:44:35Z</time>
      </trkpt>
      <trkpt lat="43.40842" lon="6.65023">
        <ele>325.4</ele>
        <time>2025-01-19T11:44:36Z</time>
      </trkpt>
      <trkpt lat="43.40843" lon="6.65025">
        <ele>325.5</ele>
        <time>2025-01-19T11:44:37Z</time>
      </trkpt>
      <trkpt lat="43.40843" lon="6.65027">
        <ele>325.6</ele>
        <time>2025-01-19T11:44:38Z</time>
      </trkpt>
      <trkpt lat="43.40844" lon="6.65028">
        <ele>325.7</ele>
        <time>2025-01-19T11:44:39Z</time>
      </trkpt>
      <trkpt lat="43.40844" lon="6.6503">
        <ele>325.8</ele>
        <time>2025-01-19T11:44:40Z</time>
      </trkpt>
      <trkpt lat="43.40845" lon="6.65031">
        <ele>325.8</ele>
        <time>2025-01-19T11:44:41Z</time>
      </trkpt>
      <trkpt lat="43.40845" lon="6.65032">
        <ele>325.8</ele>
        <time>2025-01-19T11:44:42Z</time>
      </trkpt>
      <trkpt lat="43.40845" lon="6.65034">
        <ele>325.9</ele>
        <time>2025-01-19T11:44:43Z</time>
      </trkpt>
      <trkpt lat="43.40846" lon="6.65036">
        <ele>325.9</ele>
        <time>2025-01-19T11:44:44Z</time>
      </trkpt>
      <trkpt lat="43.40846" lon="6.65037">
        <ele>325.9</ele>
        <time>2025-01-19T11:44:45Z</time>
      </trkpt>
      <trkpt lat="43.40846" lon="6.65039">
        <ele>325.9</ele>
        <time>2025-01-19T11:44:46Z</time>
      </trkpt>
      <trkpt lat="43.40846" lon="6.65041">
        <ele>325.9</ele>
        <time>2025-01-19T11:44:47Z</time>
      </trkpt>
      <trkpt lat="43.40847" lon="6.65043">
        <ele>325.9</ele>
        <time>2025-01-19T11:44:48Z</time>
      </trkpt>
      <trkpt lat="43.40847" lon="6.65045">
        <ele>325.8</ele>
        <time>2025-01-19T11:44:49Z</time>
      </trkpt>
      <trkpt lat="43.40847" lon="6.65047">
        <ele>325.7</ele>
        <time>2025-01-19T11:44:50Z</time>
      </trkpt>
      <trkpt lat="43.40848" lon="6.65048">
        <ele>325.7</ele>
        <time>2025-01-19T11:44:51Z</time>
      </trkpt>
      <trkpt lat="43.40848" lon="6.65049">
        <ele>325.6</ele>
        <time>2025-01-19T11:44:52Z</time>
      </trkpt>
      <trkpt lat="43.40849" lon="6.65051">
        <ele>325.6</ele>
        <time>2025-01-19T11:44:53Z</time>
      </trkpt>
      <trkpt lat="43.40849" lon="6.65052">
        <ele>325.6</ele>
        <time>2025-01-19T11:44:54Z</time>
      </trkpt>
      <trkpt lat="43.4085" lon="6.65053">
        <ele>325.6</ele>
        <time>2025-01-19T11:44:55Z</time>
      </trkpt>
      <trkpt lat="43.4085" lon="6.65054">
        <ele>325.5</ele>
        <time>2025-01-19T11:44:56Z</time>
      </trkpt>
      <trkpt lat="43.40851" lon="6.65055">
        <ele>325.6</ele>
        <time>2025-01-19T11:44:57Z</time>
      </trkpt>
      <trkpt lat="43.40852" lon="6.65055">
        <ele>325.6</ele>
        <time>2025-01-19T11:44:58Z</time>
      </trkpt>
      <trkpt lat="43.40853" lon="6.65056">
        <ele>325.6</ele>
        <time>2025-01-19T11:44:59Z</time>
      </trkpt>
      <trkpt lat="43.40854" lon="6.65056">
        <ele>325.6</ele>
        <time>2025-01-19T11:45:00Z</time>
      </trkpt>
      <trkpt lat="43.40855" lon="6.65056">
        <ele>325.6</ele>
        <time>2025-01-19T11:45:01Z</time>
      </trkpt>
      <trkpt lat="43.40856" lon="6.65056">
        <ele>325.6</ele>
        <time>2025-01-19T11:45:02Z</time>
      </trkpt>
      <trkpt lat="43.40857" lon="6.65056">
        <ele>325.7</ele>
        <time>2025-01-19T11:45:03Z</time>
      </trkpt>
      <trkpt lat="43.40858" lon="6.65055">
        <ele>325.8</ele>
        <time>2025-01-19T11:45:04Z</time>
      </trkpt>
      <trkpt lat="43.40859" lon="6.65055">
        <ele>325.8</ele>
        <time>2025-01-19T11:45:05Z</time>
      </trkpt>
      <trkpt lat="43.4086" lon="6.65055">
        <ele>325.8</ele>
        <time>2025-01-19T11:45:06Z</time>
      </trkpt>
      <trkpt lat="43.40861" lon="6.65055">
        <ele>325.8</ele>
        <time>2025-01-19T11:45:07Z</time>
      </trkpt>
      <trkpt lat="43.40862" lon="6.65055">
        <ele>325.9</ele>
        <time>2025-01-19T11:45:08Z</time>
      </trkpt>
      <trkpt lat="43.40863" lon="6.65055">
        <ele>326</ele>
        <time>2025-01-19T11:45:09Z</time>
      </trkpt>
      <trkpt lat="43.40864" lon="6.65055">
        <ele>326</ele>
        <time>2025-01-19T11:45:10Z</time>
      </trkpt>
      <trkpt lat="43.40865" lon="6.65055">
        <ele>326.1</ele>
        <time>2025-01-19T11:45:11Z</time>
      </trkpt>
      <trkpt lat="43.40865" lon="6.65055">
        <ele>326.1</ele>
        <time>2025-01-19T11:45:12Z</time>
      </trkpt>
      <trkpt lat="43.40866" lon="6.65055">
        <ele>326.1</ele>
        <time>2025-01-19T11:45:13Z</time>
      </trkpt>
      <trkpt lat="43.40867" lon="6.65055">
        <ele>326.2</ele>
        <time>2025-01-19T11:45:14Z</time>
      </trkpt>
      <trkpt lat="43.40867" lon="6.65055">
        <ele>326.4</ele>
        <time>2025-01-19T11:45:15Z</time>
      </trkpt>
      <trkpt lat="43.40868" lon="6.65055">
        <ele>326.5</ele>
        <time>2025-01-19T11:45:16Z</time>
      </trkpt>
      <trkpt lat="43.40869" lon="6.65055">
        <ele>326.6</ele>
        <time>2025-01-19T11:45:17Z</time>
      </trkpt>
      <trkpt lat="43.40869" lon="6.65055">
        <ele>326.7</ele>
        <time>2025-01-19T11:45:18Z</time>
      </trkpt>
      <trkpt lat="43.4087" lon="6.65055">
        <ele>326.8</ele>
        <time>2025-01-19T11:45:19Z</time>
      </trkpt>
      <trkpt lat="43.40871" lon="6.65055">
        <ele>326.9</ele>
        <time>2025-01-19T11:45:20Z</time>
      </trkpt>
      <trkpt lat="43.40872" lon="6.65055">
        <ele>327</ele>
        <time>2025-01-19T11:45:21Z</time>
      </trkpt>
      <trkpt lat="43.40873" lon="6.65055">
        <ele>327.1</ele>
        <time>2025-01-19T11:45:22Z</time>
      </trkpt>
      <trkpt lat="43.40874" lon="6.65054">
        <ele>327.1</ele>
        <time>2025-01-19T11:45:23Z</time>
      </trkpt>
      <trkpt lat="43.40875" lon="6.65054">
        <ele>327.2</ele>
        <time>2025-01-19T11:45:24Z</time>
      </trkpt>
      <trkpt lat="43.40876" lon="6.65055">
        <ele>327.3</ele>
        <time>2025-01-19T11:45:25Z</time>
      </trkpt>
      <trkpt lat="43.40877" lon="6.65055">
        <ele>327.4</ele>
        <time>2025-01-19T11:45:26Z</time>
      </trkpt>
      <trkpt lat="43.40878" lon="6.65055">
        <ele>327.5</ele>
        <time>2025-01-19T11:45:27Z</time>
      </trkpt>
      <trkpt lat="43.40878" lon="6.65056">
        <ele>327.6</ele>
        <time>2025-01-19T11:45:28Z</time>
      </trkpt>
      <trkpt lat="43.40879" lon="6.65056">
        <ele>327.7</ele>
        <time>2025-01-19T11:45:29Z</time>
      </trkpt>
      <trkpt lat="43.4088" lon="6.65056">
        <ele>327.8</ele>
        <time>2025-01-19T11:45:30Z</time>
      </trkpt>
      <trkpt lat="43.40881" lon="6.65056">
        <ele>327.9</ele>
        <time>2025-01-19T11:45:31Z</time>
      </trkpt>
      <trkpt lat="43.40882" lon="6.65056">
        <ele>327.9</ele>
        <time>2025-01-19T11:45:32Z</time>
      </trkpt>
      <trkpt lat="43.40883" lon="6.65056">
        <ele>328</ele>
        <time>2025-01-19T11:45:33Z</time>
      </trkpt>
      <trkpt lat="43.40884" lon="6.65056">
        <ele>328.1</ele>
        <time>2025-01-19T11:45:34Z</time>
      </trkpt>
      <trkpt lat="43.40885" lon="6.65056">
        <ele>328.2</ele>
        <time>2025-01-19T11:45:35Z</time>
      </trkpt>
      <trkpt lat="43.40886" lon="6.65056">
        <ele>328.4</ele>
        <time>2025-01-19T11:45:36Z</time>
      </trkpt>
      <trkpt lat="43.40887" lon="6.65056">
        <ele>328.5</ele>
        <time>2025-01-19T11:45:37Z</time>
      </trkpt>
      <trkpt lat="43.40888" lon="6.65056">
        <ele>328.6</ele>
        <time>2025-01-19T11:45:38Z</time>
      </trkpt>
      <trkpt lat="43.40889" lon="6.65056">
        <ele>328.7</ele>
        <time>2025-01-19T11:45:39Z</time>
      </trkpt>
      <trkpt lat="43.4089" lon="6.65055">
        <ele>328.7</ele>
        <time>2025-01-19T11:45:40Z</time>
      </trkpt>
      <trkpt lat="43.40891" lon="6.65055">
        <ele>328.7</ele>
        <time>2025-01-19T11:45:41Z</time>
      </trkpt>
      <trkpt lat="43.40892" lon="6.65055">
        <ele>328.7</ele>
        <time>2025-01-19T11:45:42Z</time>
      </trkpt>
      <trkpt lat="43.40893" lon="6.65056">
        <ele>328.7</ele>
        <time>2025-01-19T11:45:43Z</time>
      </trkpt>
      <trkpt lat="43.40895" lon="6.65056">
        <ele>328.8</ele>
        <time>2025-01-19T11:45:44Z</time>
      </trkpt>
      <trkpt lat="43.40896" lon="6.65055">
        <ele>328.8</ele>
        <time>2025-01-19T11:45:45Z</time>
      </trkpt>
      <trkpt lat="43.40898" lon="6.65055">
        <ele>328.7</ele>
        <time>2025-01-19T11:45:46Z</time>
      </trkpt>
      <trkpt lat="43.40899" lon="6.65055">
        <ele>328.6</ele>
        <time>2025-01-19T11:45:47Z</time>
      </trkpt>
      <trkpt lat="43.409" lon="6.65055">
        <ele>328.6</ele>
        <time>2025-01-19T11:45:48Z</time>
      </trkpt>
      <trkpt lat="43.40901" lon="6.65055">
        <ele>328.6</ele>
        <time>2025-01-19T11:45:49Z</time>
      </trkpt>
      <trkpt lat="43.40903" lon="6.65055">
        <ele>328.6</ele>
        <time>2025-01-19T11:45:50Z</time>
      </trkpt>
      <trkpt lat="43.40904" lon="6.65055">
        <ele>328.5</ele>
        <time>2025-01-19T11:45:51Z</time>
      </trkpt>
      <trkpt lat="43.40905" lon="6.65055">
        <ele>328.4</ele>
        <time>2025-01-19T11:45:52Z</time>
      </trkpt>
      <trkpt lat="43.40906" lon="6.65056">
        <ele>328.3</ele>
        <time>2025-01-19T11:45:53Z</time>
      </trkpt>
      <trkpt lat="43.40907" lon="6.65056">
        <ele>328.3</ele>
        <time>2025-01-19T11:45:54Z</time>
      </trkpt>
      <trkpt lat="43.40908" lon="6.65056">
        <ele>328.1</ele>
        <time>2025-01-19T11:45:55Z</time>
      </trkpt>
      <trkpt lat="43.40909" lon="6.65056">
        <ele>328</ele>
        <time>2025-01-19T11:45:56Z</time>
      </trkpt>
      <trkpt lat="43.40909" lon="6.65055">
        <ele>327.9</ele>
        <time>2025-01-19T11:45:57Z</time>
      </trkpt>
      <trkpt lat="43.4091" lon="6.65055">
        <ele>327.9</ele>
        <time>2025-01-19T11:45:58Z</time>
      </trkpt>
      <trkpt lat="43.40911" lon="6.65055">
        <ele>327.7</ele>
        <time>2025-01-19T11:45:59Z</time>
      </trkpt>
      <trkpt lat="43.40912" lon="6.65055">
        <ele>327.6</ele>
        <time>2025-01-19T11:46:00Z</time>
      </trkpt>
      <trkpt lat="43.40913" lon="6.65055">
        <ele>327.6</ele>
        <time>2025-01-19T11:46:01Z</time>
      </trkpt>
      <trkpt lat="43.40915" lon="6.65054">
        <ele>327.5</ele>
        <time>2025-01-19T11:46:02Z</time>
      </trkpt>
      <trkpt lat="43.40916" lon="6.65055">
        <ele>327.6</ele>
        <time>2025-01-19T11:46:03Z</time>
      </trkpt>
      <trkpt lat="43.40917" lon="6.65055">
        <ele>327.7</ele>
        <time>2025-01-19T11:46:04Z</time>
      </trkpt>
      <trkpt lat="43.40919" lon="6.65055">
        <ele>327.8</ele>
        <time>2025-01-19T11:46:05Z</time>
      </trkpt>
      <trkpt lat="43.4092" lon="6.65055">
        <ele>327.9</ele>
        <time>2025-01-19T11:46:06Z</time>
      </trkpt>
      <trkpt lat="43.40921" lon="6.65056">
        <ele>328.1</ele>
        <time>2025-01-19T11:46:07Z</time>
      </trkpt>
      <trkpt lat="43.40921" lon="6.65057">
        <ele>328.1</ele>
        <time>2025-01-19T11:46:08Z</time>
      </trkpt>
      <trkpt lat="43.40922" lon="6.65057">
        <ele>328.2</ele>
        <time>2025-01-19T11:46:09Z</time>
      </trkpt>
      <trkpt lat="43.40923" lon="6.65058">
        <ele>328.3</ele>
        <time>2025-01-19T11:46:10Z</time>
      </trkpt>
      <trkpt lat="43.40924" lon="6.65058">
        <ele>328.4</ele>
        <time>2025-01-19T11:46:11Z</time>
      </trkpt>
      <trkpt lat="43.40924" lon="6.65058">
        <ele>328.4</ele>
        <time>2025-01-19T11:46:12Z</time>
      </trkpt>
      <trkpt lat="43.40925" lon="6.65058">
        <ele>328.5</ele>
        <time>2025-01-19T11:46:13Z</time>
      </trkpt>
      <trkpt lat="43.40926" lon="6.65058">
        <ele>328.6</ele>
        <time>2025-01-19T11:46:14Z</time>
      </trkpt>
      <trkpt lat="43.40927" lon="6.65059">
        <ele>328.7</ele>
        <time>2025-01-19T11:46:15Z</time>
      </trkpt>
      <trkpt lat="43.40928" lon="6.6506">
        <ele>329</ele>
        <time>2025-01-19T11:46:16Z</time>
      </trkpt>
      <trkpt lat="43.40929" lon="6.65061">
        <ele>329.2</ele>
        <time>2025-01-19T11:46:17Z</time>
      </trkpt>
      <trkpt lat="43.4093" lon="6.65061">
        <ele>329.4</ele>
        <time>2025-01-19T11:46:18Z</time>
      </trkpt>
      <trkpt lat="43.40931" lon="6.65062">
        <ele>329.6</ele>
        <time>2025-01-19T11:46:19Z</time>
      </trkpt>
      <trkpt lat="43.40932" lon="6.65062">
        <ele>329.8</ele>
        <time>2025-01-19T11:46:20Z</time>
      </trkpt>
      <trkpt lat="43.40933" lon="6.65063">
        <ele>330.1</ele>
        <time>2025-01-19T11:46:21Z</time>
      </trkpt>
      <trkpt lat="43.40933" lon="6.65063">
        <ele>330.2</ele>
        <time>2025-01-19T11:46:22Z</time>
      </trkpt>
      <trkpt lat="43.40934" lon="6.65063">
        <ele>330.3</ele>
        <time>2025-01-19T11:46:23Z</time>
      </trkpt>
      <trkpt lat="43.40935" lon="6.65064">
        <ele>330.4</ele>
        <time>2025-01-19T11:46:24Z</time>
      </trkpt>
      <trkpt lat="43.40935" lon="6.65064">
        <ele>330.5</ele>
        <time>2025-01-19T11:46:25Z</time>
      </trkpt>
      <trkpt lat="43.40936" lon="6.65064">
        <ele>330.7</ele>
        <time>2025-01-19T11:46:26Z</time>
      </trkpt>
      <trkpt lat="43.40937" lon="6.65065">
        <ele>330.7</ele>
        <time>2025-01-19T11:46:27Z</time>
      </trkpt>
      <trkpt lat="43.40937" lon="6.65065">
        <ele>330.8</ele>
        <time>2025-01-19T11:46:28Z</time>
      </trkpt>
      <trkpt lat="43.40938" lon="6.65065">
        <ele>330.9</ele>
        <time>2025-01-19T11:46:29Z</time>
      </trkpt>
      <trkpt lat="43.40938" lon="6.65065">
        <ele>330.9</ele>
        <time>2025-01-19T11:46:30Z</time>
      </trkpt>
      <trkpt lat="43.40938" lon="6.65065">
        <ele>330.9</ele>
        <time>2025-01-19T11:46:31Z</time>
      </trkpt>
      <trkpt lat="43.40938" lon="6.65065">
        <ele>331.1</ele>
        <time>2025-01-19T11:46:32Z</time>
      </trkpt>
      <trkpt lat="43.40938" lon="6.65065">
        <ele>331.3</ele>
        <time>2025-01-19T11:46:33Z</time>
      </trkpt>
      <trkpt lat="43.40938" lon="6.65066">
        <ele>331.5</ele>
        <time>2025-01-19T11:46:34Z</time>
      </trkpt>
      <trkpt lat="43.40937" lon="6.65066">
        <ele>331.6</ele>
        <time>2025-01-19T11:46:35Z</time>
      </trkpt>
      <trkpt lat="43.40937" lon="6.65066">
        <ele>331.8</ele>
        <time>2025-01-19T11:46:36Z</time>
      </trkpt>
      <trkpt lat="43.40937" lon="6.65065">
        <ele>332</ele>
        <time>2025-01-19T11:46:37Z</time>
      </trkpt>
      <trkpt lat="43.40937" lon="6.65066">
        <ele>332.2</ele>
        <time>2025-01-19T11:46:38Z</time>
      </trkpt>
      <trkpt lat="43.40937" lon="6.65067">
        <ele>332.3</ele>
        <time>2025-01-19T11:46:39Z</time>
      </trkpt>
      <trkpt lat="43.40937" lon="6.65067">
        <ele>332.5</ele>
        <time>2025-01-19T11:46:40Z</time>
      </trkpt>
      <trkpt lat="43.40938" lon="6.65068">
        <ele>332.7</ele>
        <time>2025-01-19T11:46:41Z</time>
      </trkpt>
      <trkpt lat="43.40938" lon="6.65068">
        <ele>332.8</ele>
        <time>2025-01-19T11:46:42Z</time>
      </trkpt>
      <trkpt lat="43.40937" lon="6.65069">
        <ele>333</ele>
        <time>2025-01-19T11:46:43Z</time>
      </trkpt>
      <trkpt lat="43.40937" lon="6.65069">
        <ele>333.2</ele>
        <time>2025-01-19T11:46:44Z</time>
      </trkpt>
      <trkpt lat="43.40937" lon="6.6507">
        <ele>333.3</ele>
        <time>2025-01-19T11:46:45Z</time>
      </trkpt>
      <trkpt lat="43.40936" lon="6.65071">
        <ele>333.6</ele>
        <time>2025-01-19T11:46:46Z</time>
      </trkpt>
      <trkpt lat="43.40936" lon="6.65071">
        <ele>333.9</ele>
        <time>2025-01-19T11:46:47Z</time>
      </trkpt>
      <trkpt lat="43.40936" lon="6.65072">
        <ele>334.1</ele>
        <time>2025-01-19T11:46:48Z</time>
      </trkpt>
      <trkpt lat="43.40936" lon="6.65073">
        <ele>334.4</ele>
        <time>2025-01-19T11:46:49Z</time>
      </trkpt>
      <trkpt lat="43.40935" lon="6.65074">
        <ele>334.5</ele>
        <time>2025-01-19T11:46:50Z</time>
      </trkpt>
      <trkpt lat="43.40935" lon="6.65075">
        <ele>334.6</ele>
        <time>2025-01-19T11:46:51Z</time>
      </trkpt>
      <trkpt lat="43.40935" lon="6.65076">
        <ele>334.7</ele>
        <time>2025-01-19T11:46:52Z</time>
      </trkpt>
      <trkpt lat="43.40935" lon="6.65077">
        <ele>334.8</ele>
        <time>2025-01-19T11:46:53Z</time>
      </trkpt>
      <trkpt lat="43.40936" lon="6.65078">
        <ele>334.8</ele>
        <time>2025-01-19T11:46:54Z</time>
      </trkpt>
      <trkpt lat="43.40936" lon="6.65078">
        <ele>334.9</ele>
        <time>2025-01-19T11:46:55Z</time>
      </trkpt>
      <trkpt lat="43.40936" lon="6.65079">
        <ele>335.1</ele>
        <time>2025-01-19T11:46:56Z</time>
      </trkpt>
      <trkpt lat="43.40936" lon="6.65079">
        <ele>335.3</ele>
        <time>2025-01-19T11:46:57Z</time>
      </trkpt>
      <trkpt lat="43.40937" lon="6.65079">
        <ele>335.4</ele>
        <time>2025-01-19T11:46:58Z</time>
      </trkpt>
      <trkpt lat="43.40936" lon="6.65079">
        <ele>335.5</ele>
        <time>2025-01-19T11:46:59Z</time>
      </trkpt>
      <trkpt lat="43.40936" lon="6.6508">
        <ele>335.7</ele>
        <time>2025-01-19T11:47:00Z</time>
      </trkpt>
      <trkpt lat="43.40936" lon="6.65081">
        <ele>335.9</ele>
        <time>2025-01-19T11:47:01Z</time>
      </trkpt>
      <trkpt lat="43.40936" lon="6.65082">
        <ele>336.1</ele>
        <time>2025-01-19T11:47:02Z</time>
      </trkpt>
      <trkpt lat="43.40936" lon="6.65082">
        <ele>336.4</ele>
        <time>2025-01-19T11:47:03Z</time>
      </trkpt>
      <trkpt lat="43.40935" lon="6.65083">
        <ele>336.6</ele>
        <time>2025-01-19T11:47:04Z</time>
      </trkpt>
      <trkpt lat="43.40935" lon="6.65084">
        <ele>336.8</ele>
        <time>2025-01-19T11:47:05Z</time>
      </trkpt>
      <trkpt lat="43.40936" lon="6.65084">
        <ele>336.9</ele>
        <time>2025-01-19T11:47:06Z</time>
      </trkpt>
      <trkpt lat="43.40936" lon="6.65083">
        <ele>337</ele>
        <time>2025-01-19T11:47:07Z</time>
      </trkpt>
      <trkpt lat="43.40936" lon="6.65083">
        <ele>337</ele>
        <time>2025-01-19T11:47:08Z</time>
      </trkpt>
      <trkpt lat="43.40936" lon="6.65084">
        <ele>337.1</ele>
        <time>2025-01-19T11:47:09Z</time>
      </trkpt>
      <trkpt lat="43.40936" lon="6.65085">
        <ele>337.2</ele>
        <time>2025-01-19T11:47:10Z</time>
      </trkpt>
      <trkpt lat="43.40935" lon="6.65086">
        <ele>337.2</ele>
        <time>2025-01-19T11:47:11Z</time>
      </trkpt>
      <trkpt lat="43.40935" lon="6.65086">
        <ele>337.3</ele>
        <time>2025-01-19T11:47:12Z</time>
      </trkpt>
      <trkpt lat="43.40935" lon="6.65087">
        <ele>337.4</ele>
        <time>2025-01-19T11:47:13Z</time>
      </trkpt>
      <trkpt lat="43.40935" lon="6.65088">
        <ele>337.5</ele>
        <time>2025-01-19T11:47:14Z</time>
      </trkpt>
      <trkpt lat="43.40934" lon="6.65089">
        <ele>337.5</ele>
        <time>2025-01-19T11:47:15Z</time>
      </trkpt>
      <trkpt lat="43.40934" lon="6.65089">
        <ele>337.8</ele>
        <time>2025-01-19T11:47:16Z</time>
      </trkpt>
      <trkpt lat="43.40933" lon="6.6509">
        <ele>337.9</ele>
        <time>2025-01-19T11:47:17Z</time>
      </trkpt>
      <trkpt lat="43.40933" lon="6.6509">
        <ele>338.1</ele>
        <time>2025-01-19T11:47:18Z</time>
      </trkpt>
      <trkpt lat="43.40933" lon="6.6509">
        <ele>338.1</ele>
        <time>2025-01-19T11:47:19Z</time>
      </trkpt>
      <trkpt lat="43.40933" lon="6.65091">
        <ele>338.2</ele>
        <time>2025-01-19T11:47:20Z</time>
      </trkpt>
      <trkpt lat="43.40933" lon="6.65092">
        <ele>338.3</ele>
        <time>2025-01-19T11:47:21Z</time>
      </trkpt>
      <trkpt lat="43.40933" lon="6.65094">
        <ele>338.5</ele>
        <time>2025-01-19T11:47:22Z</time>
      </trkpt>
      <trkpt lat="43.40933" lon="6.65095">
        <ele>338.6</ele>
        <time>2025-01-19T11:47:23Z</time>
      </trkpt>
      <trkpt lat="43.40933" lon="6.65096">
        <ele>338.7</ele>
        <time>2025-01-19T11:47:24Z</time>
      </trkpt>
      <trkpt lat="43.40934" lon="6.65097">
        <ele>338.8</ele>
        <time>2025-01-19T11:47:25Z</time>
      </trkpt>
      <trkpt lat="43.40935" lon="6.65097">
        <ele>338.9</ele>
        <time>2025-01-19T11:47:26Z</time>
      </trkpt>
      <trkpt lat="43.40935" lon="6.65097">
        <ele>339.1</ele>
        <time>2025-01-19T11:47:27Z</time>
      </trkpt>
      <trkpt lat="43.40936" lon="6.65097">
        <ele>339.3</ele>
        <time>2025-01-19T11:47:28Z</time>
      </trkpt>
      <trkpt lat="43.40937" lon="6.65097">
        <ele>339.4</ele>
        <time>2025-01-19T11:47:29Z</time>
      </trkpt>
      <trkpt lat="43.40937" lon="6.65097">
        <ele>339.6</ele>
        <time>2025-01-19T11:47:30Z</time>
      </trkpt>
      <trkpt lat="43.40938" lon="6.65098">
        <ele>339.7</ele>
        <time>2025-01-19T11:47:31Z</time>
      </trkpt>
      <trkpt lat="43.40939" lon="6.65098">
        <ele>339.8</ele>
        <time>2025-01-19T11:47:32Z</time>
      </trkpt>
      <trkpt lat="43.4094" lon="6.651">
        <ele>339.9</ele>
        <time>2025-01-19T11:47:33Z</time>
      </trkpt>
      <trkpt lat="43.40941" lon="6.651">
        <ele>340</ele>
        <time>2025-01-19T11:47:34Z</time>
      </trkpt>
      <trkpt lat="43.40942" lon="6.65101">
        <ele>340.1</ele>
        <time>2025-01-19T11:47:35Z</time>
      </trkpt>
      <trkpt lat="43.40943" lon="6.65102">
        <ele>340.1</ele>
        <time>2025-01-19T11:47:36Z</time>
      </trkpt>
      <trkpt lat="43.40944" lon="6.65103">
        <ele>340.2</ele>
        <time>2025-01-19T11:47:37Z</time>
      </trkpt>
      <trkpt lat="43.40944" lon="6.65104">
        <ele>340.2</ele>
        <time>2025-01-19T11:47:38Z</time>
      </trkpt>
      <trkpt lat="43.40945" lon="6.65105">
        <ele>340.2</ele>
        <time>2025-01-19T11:47:39Z</time>
      </trkpt>
      <trkpt lat="43.40945" lon="6.65105">
        <ele>340.2</ele>
        <time>2025-01-19T11:47:40Z</time>
      </trkpt>
      <trkpt lat="43.40946" lon="6.65106">
        <ele>340.3</ele>
        <time>2025-01-19T11:47:41Z</time>
      </trkpt>
      <trkpt lat="43.40947" lon="6.65106">
        <ele>340.4</ele>
        <time>2025-01-19T11:47:42Z</time>
      </trkpt>
      <trkpt lat="43.40948" lon="6.65106">
        <ele>340.5</ele>
        <time>2025-01-19T11:47:43Z</time>
      </trkpt>
      <trkpt lat="43.40948" lon="6.65107">
        <ele>340.6</ele>
        <time>2025-01-19T11:47:44Z</time>
      </trkpt>
      <trkpt lat="43.40948" lon="6.65107">
        <ele>340.6</ele>
        <time>2025-01-19T11:47:45Z</time>
      </trkpt>
      <trkpt lat="43.40948" lon="6.65107">
        <ele>340.6</ele>
        <time>2025-01-19T11:47:46Z</time>
      </trkpt>
      <trkpt lat="43.40949" lon="6.65107">
        <ele>340.6</ele>
        <time>2025-01-19T11:47:47Z</time>
      </trkpt>
      <trkpt lat="43.40949" lon="6.65107">
        <ele>340.7</ele>
        <time>2025-01-19T11:47:48Z</time>
      </trkpt>
      <trkpt lat="43.40949" lon="6.65107">
        <ele>340.8</ele>
        <time>2025-01-19T11:47:49Z</time>
      </trkpt>
      <trkpt lat="43.4095" lon="6.65107">
        <ele>340.8</ele>
        <time>2025-01-19T11:47:50Z</time>
      </trkpt>
      <trkpt lat="43.4095" lon="6.65108">
        <ele>340.8</ele>
        <time>2025-01-19T11:47:51Z</time>
      </trkpt>
      <trkpt lat="43.4095" lon="6.65108">
        <ele>340.8</ele>
        <time>2025-01-19T11:47:52Z</time>
      </trkpt>
      <trkpt lat="43.4095" lon="6.65108">
        <ele>340.8</ele>
        <time>2025-01-19T11:47:53Z</time>
      </trkpt>
      <trkpt lat="43.4095" lon="6.65108">
        <ele>340.8</ele>
        <time>2025-01-19T11:47:54Z</time>
      </trkpt>
      <trkpt lat="43.4095" lon="6.65108">
        <ele>340.9</ele>
        <time>2025-01-19T11:47:55Z</time>
      </trkpt>
      <trkpt lat="43.4095" lon="6.65108">
        <ele>340.9</ele>
        <time>2025-01-19T11:47:56Z</time>
      </trkpt>
      <trkpt lat="43.4095" lon="6.65108">
        <ele>340.8</ele>
        <time>2025-01-19T11:47:57Z</time>
      </trkpt>
      <trkpt lat="43.4095" lon="6.65108">
        <ele>340.8</ele>
        <time>2025-01-19T11:47:58Z</time>
      </trkpt>
      <trkpt lat="43.4095" lon="6.65108">
        <ele>340.8</ele>
        <time>2025-01-19T11:47:59Z</time>
      </trkpt>
      <trkpt lat="43.40951" lon="6.65108">
        <ele>340.8</ele>
        <time>2025-01-19T11:48:00Z</time>
      </trkpt>
      <trkpt lat="43.40951" lon="6.65109">
        <ele>340.8</ele>
        <time>2025-01-19T11:48:01Z</time>
      </trkpt>
      <trkpt lat="43.40951" lon="6.65109">
        <ele>340.9</ele>
        <time>2025-01-19T11:48:02Z</time>
      </trkpt>
      <trkpt lat="43.40952" lon="6.65109">
        <ele>340.9</ele>
        <time>2025-01-19T11:48:03Z</time>
      </trkpt>
      <trkpt lat="43.40952" lon="6.65109">
        <ele>340.9</ele>
        <time>2025-01-19T11:48:04Z</time>
      </trkpt>
      <trkpt lat="43.40953" lon="6.65109">
        <ele>341</ele>
        <time>2025-01-19T11:48:05Z</time>
      </trkpt>
      <trkpt lat="43.40953" lon="6.65109">
        <ele>341</ele>
        <time>2025-01-19T11:48:06Z</time>
      </trkpt>
      <trkpt lat="43.40953" lon="6.65109">
        <ele>341.1</ele>
        <time>2025-01-19T11:48:07Z</time>
      </trkpt>
      <trkpt lat="43.40953" lon="6.65109">
        <ele>341.1</ele>
        <time>2025-01-19T11:48:08Z</time>
      </trkpt>
      <trkpt lat="43.40953" lon="6.65109">
        <ele>341.1</ele>
        <time>2025-01-19T11:48:09Z</time>
      </trkpt>
      <trkpt lat="43.40953" lon="6.65109">
        <ele>341.1</ele>
        <time>2025-01-19T11:48:10Z</time>
      </trkpt>
      <trkpt lat="43.40953" lon="6.6511">
        <ele>341.1</ele>
        <time>2025-01-19T11:48:11Z</time>
      </trkpt>
      <trkpt lat="43.40953" lon="6.6511">
        <ele>341.1</ele>
        <time>2025-01-19T11:48:12Z</time>
      </trkpt>
      <trkpt lat="43.40953" lon="6.6511">
        <ele>341.1</ele>
        <time>2025-01-19T11:48:13Z</time>
      </trkpt>
      <trkpt lat="43.40953" lon="6.6511">
        <ele>341.2</ele>
        <time>2025-01-19T11:48:14Z</time>
      </trkpt>
      <trkpt lat="43.40954" lon="6.6511">
        <ele>341.2</ele>
        <time>2025-01-19T11:48:15Z</time>
      </trkpt>
      <trkpt lat="43.40954" lon="6.6511">
        <ele>341.2</ele>
        <time>2025-01-19T11:48:16Z</time>
      </trkpt>
      <trkpt lat="43.40954" lon="6.6511">
        <ele>341.2</ele>
        <time>2025-01-19T11:48:17Z</time>
      </trkpt>
      <trkpt lat="43.40954" lon="6.6511">
        <ele>341.2</ele>
        <time>2025-01-19T11:48:18Z</time>
      </trkpt>
      <trkpt lat="43.40954" lon="6.6511">
        <ele>341.2</ele>
        <time>2025-01-19T11:48:19Z</time>
      </trkpt>
      <trkpt lat="43.40954" lon="6.6511">
        <ele>341.1</ele>
        <time>2025-01-19T11:48:20Z</time>
      </trkpt>
      <trkpt lat="43.40954" lon="6.65111">
        <ele>341.1</ele>
        <time>2025-01-19T11:48:21Z</time>
      </trkpt>
      <trkpt lat="43.40954" lon="6.65111">
        <ele>341.1</ele>
        <time>2025-01-19T11:48:22Z</time>
      </trkpt>
      <trkpt lat="43.40954" lon="6.65111">
        <ele>341.1</ele>
        <time>2025-01-19T11:48:23Z</time>
      </trkpt>
      <trkpt lat="43.40954" lon="6.65111">
        <ele>341</ele>
        <time>2025-01-19T11:48:24Z</time>
      </trkpt>
      <trkpt lat="43.40954" lon="6.65111">
        <ele>341.1</ele>
        <time>2025-01-19T11:48:25Z</time>
      </trkpt>
      <trkpt lat="43.40955" lon="6.65111">
        <ele>341.1</ele>
        <time>2025-01-19T11:48:26Z</time>
      </trkpt>
      <trkpt lat="43.40955" lon="6.65111">
        <ele>341.1</ele>
        <time>2025-01-19T11:48:27Z</time>
      </trkpt>
      <trkpt lat="43.40955" lon="6.65111">
        <ele>341.1</ele>
        <time>2025-01-19T11:48:28Z</time>
      </trkpt>
      <trkpt lat="43.40955" lon="6.65111">
        <ele>341.1</ele>
        <time>2025-01-19T11:48:29Z</time>
      </trkpt>
      <trkpt lat="43.40955" lon="6.65111">
        <ele>341.1</ele>
        <time>2025-01-19T11:48:30Z</time>
      </trkpt>
      <trkpt lat="43.40955" lon="6.65111">
        <ele>341.2</ele>
        <time>2025-01-19T11:48:31Z</time>
      </trkpt>
      <trkpt lat="43.40955" lon="6.6511">
        <ele>341.2</ele>
        <time>2025-01-19T11:48:32Z</time>
      </trkpt>
      <trkpt lat="43.40955" lon="6.6511">
        <ele>341.3</ele>
        <time>2025-01-19T11:48:33Z</time>
      </trkpt>
      <trkpt lat="43.40956" lon="6.6511">
        <ele>341.4</ele>
        <time>2025-01-19T11:48:34Z</time>
      </trkpt>
      <trkpt lat="43.40956" lon="6.65109">
        <ele>341.4</ele>
        <time>2025-01-19T11:48:35Z</time>
      </trkpt>
      <trkpt lat="43.40956" lon="6.65109">
        <ele>341.4</ele>
        <time>2025-01-19T11:48:36Z</time>
      </trkpt>
      <trkpt lat="43.40956" lon="6.65109">
        <ele>341.5</ele>
        <time>2025-01-19T11:48:37Z</time>
      </trkpt>
      <trkpt lat="43.40956" lon="6.65109">
        <ele>341.5</ele>
        <time>2025-01-19T11:48:38Z</time>
      </trkpt>
      <trkpt lat="43.40956" lon="6.65109">
        <ele>341.4</ele>
        <time>2025-01-19T11:48:39Z</time>
      </trkpt>
      <trkpt lat="43.40956" lon="6.65109">
        <ele>341.5</ele>
        <time>2025-01-19T11:48:40Z</time>
      </trkpt>
      <trkpt lat="43.40956" lon="6.65109">
        <ele>341.5</ele>
        <time>2025-01-19T11:48:41Z</time>
      </trkpt>
      <trkpt lat="43.40956" lon="6.65109">
        <ele>341.5</ele>
        <time>2025-01-19T11:48:42Z</time>
      </trkpt>
      <trkpt lat="43.40957" lon="6.65109">
        <ele>341.6</ele>
        <time>2025-01-19T11:48:43Z</time>
      </trkpt>
      <trkpt lat="43.40956" lon="6.65109">
        <ele>341.6</ele>
        <time>2025-01-19T11:48:44Z</time>
      </trkpt>
      <trkpt lat="43.40956" lon="6.65109">
        <ele>341.6</ele>
        <time>2025-01-19T11:48:45Z</time>
      </trkpt>
      <trkpt lat="43.40956" lon="6.65109">
        <ele>341.6</ele>
        <time>2025-01-19T11:48:46Z</time>
      </trkpt>
      <trkpt lat="43.40956" lon="6.6511">
        <ele>341.7</ele>
        <time>2025-01-19T11:48:47Z</time>
      </trkpt>
      <trkpt lat="43.40957" lon="6.6511">
        <ele>341.6</ele>
        <time>2025-01-19T11:48:48Z</time>
      </trkpt>
      <trkpt lat="43.40957" lon="6.65111">
        <ele>341.6</ele>
        <time>2025-01-19T11:48:49Z</time>
      </trkpt>
      <trkpt lat="43.40958" lon="6.65111">
        <ele>341.4</ele>
        <time>2025-01-19T11:48:50Z</time>
      </trkpt>
      <trkpt lat="43.40958" lon="6.65112">
        <ele>341.3</ele>
        <time>2025-01-19T11:48:51Z</time>
      </trkpt>
      <trkpt lat="43.40958" lon="6.65112">
        <ele>341.2</ele>
        <time>2025-01-19T11:48:52Z</time>
      </trkpt>
      <trkpt lat="43.40958" lon="6.65112">
        <ele>341.2</ele>
        <time>2025-01-19T11:48:53Z</time>
      </trkpt>
      <trkpt lat="43.40958" lon="6.65112">
        <ele>341.1</ele>
        <time>2025-01-19T11:48:54Z</time>
      </trkpt>
      <trkpt lat="43.40958" lon="6.65112">
        <ele>341.1</ele>
        <time>2025-01-19T11:48:55Z</time>
      </trkpt>
      <trkpt lat="43.40958" lon="6.65112">
        <ele>341.2</ele>
        <time>2025-01-19T11:48:56Z</time>
      </trkpt>
      <trkpt lat="43.40958" lon="6.65112">
        <ele>341.1</ele>
        <time>2025-01-19T11:48:57Z</time>
      </trkpt>
      <trkpt lat="43.40959" lon="6.65111">
        <ele>341</ele>
        <time>2025-01-19T11:48:58Z</time>
      </trkpt>
      <trkpt lat="43.40959" lon="6.65112">
        <ele>340.9</ele>
        <time>2025-01-19T11:48:59Z</time>
      </trkpt>
      <trkpt lat="43.40959" lon="6.65112">
        <ele>340.9</ele>
        <time>2025-01-19T11:49:00Z</time>
      </trkpt>
      <trkpt lat="43.40959" lon="6.65112">
        <ele>340.8</ele>
        <time>2025-01-19T11:49:01Z</time>
      </trkpt>
      <trkpt lat="43.40959" lon="6.65112">
        <ele>340.8</ele>
        <time>2025-01-19T11:49:02Z</time>
      </trkpt>
      <trkpt lat="43.40959" lon="6.65111">
        <ele>340.8</ele>
        <time>2025-01-19T11:49:03Z</time>
      </trkpt>
      <trkpt lat="43.40959" lon="6.65111">
        <ele>340.9</ele>
        <time>2025-01-19T11:49:04Z</time>
      </trkpt>
      <trkpt lat="43.40959" lon="6.65111">
        <ele>340.9</ele>
        <time>2025-01-19T11:49:05Z</time>
      </trkpt>
      <trkpt lat="43.40959" lon="6.65111">
        <ele>340.9</ele>
        <time>2025-01-19T11:49:06Z</time>
      </trkpt>
      <trkpt lat="43.40959" lon="6.65111">
        <ele>340.9</ele>
        <time>2025-01-19T11:49:07Z</time>
      </trkpt>
      <trkpt lat="43.40959" lon="6.65111">
        <ele>340.9</ele>
        <time>2025-01-19T11:49:08Z</time>
      </trkpt>
      <trkpt lat="43.40959" lon="6.65111">
        <ele>340.8</ele>
        <time>2025-01-19T11:49:09Z</time>
      </trkpt>
      <trkpt lat="43.4096" lon="6.65111">
        <ele>340.8</ele>
        <time>2025-01-19T11:49:10Z</time>
      </trkpt>
      <trkpt lat="43.4096" lon="6.6511">
        <ele>340.8</ele>
        <time>2025-01-19T11:49:11Z</time>
      </trkpt>
      <trkpt lat="43.4096" lon="6.6511">
        <ele>340.8</ele>
        <time>2025-01-19T11:49:12Z</time>
      </trkpt>
      <trkpt lat="43.4096" lon="6.6511">
        <ele>340.9</ele>
        <time>2025-01-19T11:49:13Z</time>
      </trkpt>
      <trkpt lat="43.4096" lon="6.6511">
        <ele>340.9</ele>
        <time>2025-01-19T11:49:14Z</time>
      </trkpt>
      <trkpt lat="43.4096" lon="6.6511">
        <ele>340.9</ele>
        <time>2025-01-19T11:49:15Z</time>
      </trkpt>
      <trkpt lat="43.4096" lon="6.65111">
        <ele>341</ele>
        <time>2025-01-19T11:49:16Z</time>
      </trkpt>
      <trkpt lat="43.4096" lon="6.65111">
        <ele>341</ele>
        <time>2025-01-19T11:49:17Z</time>
      </trkpt>
      <trkpt lat="43.4096" lon="6.6511">
        <ele>341</ele>
        <time>2025-01-19T11:49:18Z</time>
      </trkpt>
      <trkpt lat="43.40959" lon="6.6511">
        <ele>341</ele>
        <time>2025-01-19T11:49:19Z</time>
      </trkpt>
      <trkpt lat="43.40959" lon="6.6511">
        <ele>341</ele>
        <time>2025-01-19T11:49:20Z</time>
      </trkpt>
      <trkpt lat="43.4096" lon="6.6511">
        <ele>341</ele>
        <time>2025-01-19T11:49:21Z</time>
      </trkpt>
      <trkpt lat="43.4096" lon="6.6511">
        <ele>341</ele>
        <time>2025-01-19T11:49:22Z</time>
      </trkpt>
      <trkpt lat="43.4096" lon="6.6511">
        <ele>341</ele>
        <time>2025-01-19T11:49:23Z</time>
      </trkpt>
      <trkpt lat="43.4096" lon="6.6511">
        <ele>340.9</ele>
        <time>2025-01-19T11:49:24Z</time>
      </trkpt>
      <trkpt lat="43.40959" lon="6.65111">
        <ele>340.9</ele>
        <time>2025-01-19T11:49:25Z</time>
      </trkpt>
      <trkpt lat="43.40959" lon="6.65111">
        <ele>340.9</ele>
        <time>2025-01-19T11:49:26Z</time>
      </trkpt>
      <trkpt lat="43.40959" lon="6.65111">
        <ele>340.8</ele>
        <time>2025-01-19T11:49:27Z</time>
      </trkpt>
      <trkpt lat="43.40959" lon="6.65111">
        <ele>340.8</ele>
        <time>2025-01-19T11:49:28Z</time>
      </trkpt>
      <trkpt lat="43.40959" lon="6.65111">
        <ele>340.8</ele>
        <time>2025-01-19T11:49:29Z</time>
      </trkpt>
      <trkpt lat="43.40959" lon="6.65111">
        <ele>340.8</ele>
        <time>2025-01-19T11:49:30Z</time>
      </trkpt>
      <trkpt lat="43.40959" lon="6.65112">
        <ele>340.6</ele>
        <time>2025-01-19T11:49:31Z</time>
      </trkpt>
      <trkpt lat="43.40959" lon="6.65112">
        <ele>340.6</ele>
        <time>2025-01-19T11:49:32Z</time>
      </trkpt>
      <trkpt lat="43.40959" lon="6.65112">
        <ele>340.6</ele>
        <time>2025-01-19T11:49:33Z</time>
      </trkpt>
      <trkpt lat="43.40959" lon="6.65112">
        <ele>340.6</ele>
        <time>2025-01-19T11:49:34Z</time>
      </trkpt>
      <trkpt lat="43.40959" lon="6.65112">
        <ele>340.6</ele>
        <time>2025-01-19T11:49:35Z</time>
      </trkpt>
      <trkpt lat="43.40959" lon="6.65112">
        <ele>340.6</ele>
        <time>2025-01-19T11:49:36Z</time>
      </trkpt>
      <trkpt lat="43.4096" lon="6.65112">
        <ele>340.6</ele>
        <time>2025-01-19T11:49:37Z</time>
      </trkpt>
      <trkpt lat="43.4096" lon="6.65112">
        <ele>340.6</ele>
        <time>2025-01-19T11:49:38Z</time>
      </trkpt>
      <trkpt lat="43.4096" lon="6.65112">
        <ele>340.6</ele>
        <time>2025-01-19T11:49:39Z</time>
      </trkpt>
      <trkpt lat="43.4096" lon="6.65112">
        <ele>340.6</ele>
        <time>2025-01-19T11:49:40Z</time>
      </trkpt>
      <trkpt lat="43.4096" lon="6.65112">
        <ele>340.6</ele>
        <time>2025-01-19T11:49:41Z</time>
      </trkpt>
      <trkpt lat="43.4096" lon="6.65112">
        <ele>340.6</ele>
        <time>2025-01-19T11:49:42Z</time>
      </trkpt>
      <trkpt lat="43.4096" lon="6.65112">
        <ele>340.6</ele>
        <time>2025-01-19T11:49:43Z</time>
      </trkpt>
      <trkpt lat="43.4096" lon="6.65111">
        <ele>340.6</ele>
        <time>2025-01-19T11:49:44Z</time>
      </trkpt>
      <trkpt lat="43.4096" lon="6.65111">
        <ele>340.6</ele>
        <time>2025-01-19T11:49:45Z</time>
      </trkpt>
      <trkpt lat="43.4096" lon="6.65111">
        <ele>340.6</ele>
        <time>2025-01-19T11:49:46Z</time>
      </trkpt>
      <trkpt lat="43.4096" lon="6.65111">
        <ele>340.6</ele>
        <time>2025-01-19T11:49:47Z</time>
      </trkpt>
      <trkpt lat="43.4096" lon="6.65111">
        <ele>340.5</ele>
        <time>2025-01-19T11:49:48Z</time>
      </trkpt>
      <trkpt lat="43.4096" lon="6.65111">
        <ele>340.5</ele>
        <time>2025-01-19T11:49:49Z</time>
      </trkpt>
      <trkpt lat="43.4096" lon="6.65112">
        <ele>340.5</ele>
        <time>2025-01-19T11:49:50Z</time>
      </trkpt>
      <trkpt lat="43.4096" lon="6.65112">
        <ele>340.5</ele>
        <time>2025-01-19T11:49:51Z</time>
      </trkpt>
      <trkpt lat="43.4096" lon="6.65112">
        <ele>340.5</ele>
        <time>2025-01-19T11:49:52Z</time>
      </trkpt>
      <trkpt lat="43.4096" lon="6.65112">
        <ele>340.4</ele>
        <time>2025-01-19T11:49:53Z</time>
      </trkpt>
      <trkpt lat="43.4096" lon="6.65112">
        <ele>340.4</ele>
        <time>2025-01-19T11:49:54Z</time>
      </trkpt>
      <trkpt lat="43.4096" lon="6.65112">
        <ele>340.4</ele>
        <time>2025-01-19T11:49:55Z</time>
      </trkpt>
      <trkpt lat="43.4096" lon="6.65112">
        <ele>340.4</ele>
        <time>2025-01-19T11:49:56Z</time>
      </trkpt>
      <trkpt lat="43.4096" lon="6.65112">
        <ele>340.4</ele>
        <time>2025-01-19T11:49:57Z</time>
      </trkpt>
      <trkpt lat="43.4096" lon="6.65112">
        <ele>340.3</ele>
        <time>2025-01-19T11:49:58Z</time>
      </trkpt>
      <trkpt lat="43.4096" lon="6.65112">
        <ele>340.3</ele>
        <time>2025-01-19T11:49:59Z</time>
      </trkpt>
      <trkpt lat="43.4096" lon="6.65112">
        <ele>340.3</ele>
        <time>2025-01-19T11:50:00Z</time>
      </trkpt>
      <trkpt lat="43.4096" lon="6.65112">
        <ele>340.3</ele>
        <time>2025-01-19T11:50:01Z</time>
      </trkpt>
      <trkpt lat="43.4096" lon="6.65112">
        <ele>340.3</ele>
        <time>2025-01-19T11:50:02Z</time>
      </trkpt>
      <trkpt lat="43.4096" lon="6.65112">
        <ele>340.2</ele>
        <time>2025-01-19T11:50:03Z</time>
      </trkpt>
      <trkpt lat="43.4096" lon="6.65112">
        <ele>340.2</ele>
        <time>2025-01-19T11:50:04Z</time>
      </trkpt>
      <trkpt lat="43.4096" lon="6.65112">
        <ele>340.1</ele>
        <time>2025-01-19T11:50:05Z</time>
      </trkpt>
      <trkpt lat="43.4096" lon="6.65112">
        <ele>340.1</ele>
        <time>2025-01-19T11:50:06Z</time>
      </trkpt>
      <trkpt lat="43.4096" lon="6.65112">
        <ele>340.1</ele>
        <time>2025-01-19T11:50:07Z</time>
      </trkpt>
      <trkpt lat="43.4096" lon="6.65112">
        <ele>340.1</ele>
        <time>2025-01-19T11:50:08Z</time>
      </trkpt>
      <trkpt lat="43.4096" lon="6.65112">
        <ele>340.1</ele>
        <time>2025-01-19T11:50:09Z</time>
      </trkpt>
      <trkpt lat="43.4096" lon="6.65111">
        <ele>340</ele>
        <time>2025-01-19T11:50:10Z</time>
      </trkpt>
      <trkpt lat="43.4096" lon="6.65111">
        <ele>340.1</ele>
        <time>2025-01-19T11:50:11Z</time>
      </trkpt>
      <trkpt lat="43.4096" lon="6.65111">
        <ele>340.1</ele>
        <time>2025-01-19T11:50:12Z</time>
      </trkpt>
      <trkpt lat="43.40961" lon="6.65111">
        <ele>340.1</ele>
        <time>2025-01-19T11:50:13Z</time>
      </trkpt>
      <trkpt lat="43.40961" lon="6.65112">
        <ele>340.1</ele>
        <time>2025-01-19T11:50:14Z</time>
      </trkpt>
      <trkpt lat="43.40961" lon="6.65112">
        <ele>340.1</ele>
        <time>2025-01-19T11:50:15Z</time>
      </trkpt>
      <trkpt lat="43.40961" lon="6.65112">
        <ele>340.2</ele>
        <time>2025-01-19T11:50:16Z</time>
      </trkpt>
      <trkpt lat="43.40961" lon="6.65112">
        <ele>340.2</ele>
        <time>2025-01-19T11:50:17Z</time>
      </trkpt>
      <trkpt lat="43.40961" lon="6.65112">
        <ele>340.2</ele>
        <time>2025-01-19T11:50:18Z</time>
      </trkpt>
      <trkpt lat="43.40961" lon="6.65112">
        <ele>340.2</ele>
        <time>2025-01-19T11:50:19Z</time>
      </trkpt>
      <trkpt lat="43.40961" lon="6.65112">
        <ele>340.3</ele>
        <time>2025-01-19T11:50:20Z</time>
      </trkpt>
      <trkpt lat="43.40961" lon="6.65112">
        <ele>340.3</ele>
        <time>2025-01-19T11:50:21Z</time>
      </trkpt>
      <trkpt lat="43.40961" lon="6.65112">
        <ele>340.3</ele>
        <time>2025-01-19T11:50:22Z</time>
      </trkpt>
      <trkpt lat="43.40961" lon="6.65112">
        <ele>340.3</ele>
        <time>2025-01-19T11:50:23Z</time>
      </trkpt>
      <trkpt lat="43.40961" lon="6.65112">
        <ele>340.3</ele>
        <time>2025-01-19T11:50:24Z</time>
      </trkpt>
      <trkpt lat="43.40961" lon="6.65112">
        <ele>340.4</ele>
        <time>2025-01-19T11:50:25Z</time>
      </trkpt>
      <trkpt lat="43.40961" lon="6.65113">
        <ele>340.4</ele>
        <time>2025-01-19T11:50:26Z</time>
      </trkpt>
      <trkpt lat="43.40961" lon="6.65113">
        <ele>340.4</ele>
        <time>2025-01-19T11:50:27Z</time>
      </trkpt>
      <trkpt lat="43.40961" lon="6.65113">
        <ele>340.4</ele>
        <time>2025-01-19T11:50:28Z</time>
      </trkpt>
      <trkpt lat="43.40961" lon="6.65113">
        <ele>340.4</ele>
        <time>2025-01-19T11:50:29Z</time>
      </trkpt>
      <trkpt lat="43.40961" lon="6.65113">
        <ele>340.4</ele>
        <time>2025-01-19T11:50:30Z</time>
      </trkpt>
      <trkpt lat="43.40962" lon="6.65114">
        <ele>340.4</ele>
        <time>2025-01-19T11:50:31Z</time>
      </trkpt>
      <trkpt lat="43.40962" lon="6.65113">
        <ele>340.4</ele>
        <time>2025-01-19T11:50:32Z</time>
      </trkpt>
      <trkpt lat="43.40962" lon="6.65113">
        <ele>340.4</ele>
        <time>2025-01-19T11:50:33Z</time>
      </trkpt>
      <trkpt lat="43.40962" lon="6.65113">
        <ele>340.5</ele>
        <time>2025-01-19T11:50:34Z</time>
      </trkpt>
      <trkpt lat="43.40962" lon="6.65113">
        <ele>340.5</ele>
        <time>2025-01-19T11:50:35Z</time>
      </trkpt>
      <trkpt lat="43.40962" lon="6.65113">
        <ele>340.5</ele>
        <time>2025-01-19T11:50:36Z</time>
      </trkpt>
      <trkpt lat="43.40962" lon="6.65113">
        <ele>340.5</ele>
        <time>2025-01-19T11:50:37Z</time>
      </trkpt>
      <trkpt lat="43.40962" lon="6.65113">
        <ele>340.5</ele>
        <time>2025-01-19T11:50:38Z</time>
      </trkpt>
      <trkpt lat="43.40962" lon="6.65113">
        <ele>340.4</ele>
        <time>2025-01-19T11:50:39Z</time>
      </trkpt>
      <trkpt lat="43.40962" lon="6.65113">
        <ele>340.3</ele>
        <time>2025-01-19T11:50:40Z</time>
      </trkpt>
      <trkpt lat="43.40962" lon="6.65113">
        <ele>340.3</ele>
        <time>2025-01-19T11:50:41Z</time>
      </trkpt>
      <trkpt lat="43.40962" lon="6.65113">
        <ele>340.3</ele>
        <time>2025-01-19T11:50:42Z</time>
      </trkpt>
      <trkpt lat="43.40962" lon="6.65113">
        <ele>340.3</ele>
        <time>2025-01-19T11:50:43Z</time>
      </trkpt>
      <trkpt lat="43.40962" lon="6.65113">
        <ele>340.3</ele>
        <time>2025-01-19T11:50:44Z</time>
      </trkpt>
      <trkpt lat="43.40962" lon="6.65113">
        <ele>340.3</ele>
        <time>2025-01-19T11:50:45Z</time>
      </trkpt>
      <trkpt lat="43.40962" lon="6.65113">
        <ele>340.3</ele>
        <time>2025-01-19T11:50:46Z</time>
      </trkpt>
      <trkpt lat="43.40962" lon="6.65113">
        <ele>340.3</ele>
        <time>2025-01-19T11:50:47Z</time>
      </trkpt>
      <trkpt lat="43.40962" lon="6.65113">
        <ele>340.3</ele>
        <time>2025-01-19T11:50:48Z</time>
      </trkpt>
      <trkpt lat="43.40962" lon="6.65113">
        <ele>340.2</ele>
        <time>2025-01-19T11:50:49Z</time>
      </trkpt>
      <trkpt lat="43.40962" lon="6.65113">
        <ele>340.2</ele>
        <time>2025-01-19T11:50:50Z</time>
      </trkpt>
      <trkpt lat="43.40962" lon="6.65113">
        <ele>340.2</ele>
        <time>2025-01-19T11:50:51Z</time>
      </trkpt>
      <trkpt lat="43.40962" lon="6.65113">
        <ele>340.2</ele>
        <time>2025-01-19T11:50:52Z</time>
      </trkpt>
      <trkpt lat="43.40962" lon="6.65113">
        <ele>340.2</ele>
        <time>2025-01-19T11:50:53Z</time>
      </trkpt>
      <trkpt lat="43.40962" lon="6.65113">
        <ele>340.3</ele>
        <time>2025-01-19T11:50:54Z</time>
      </trkpt>
      <trkpt lat="43.40962" lon="6.65113">
        <ele>340.3</ele>
        <time>2025-01-19T11:50:55Z</time>
      </trkpt>
      <trkpt lat="43.40962" lon="6.65113">
        <ele>340.4</ele>
        <time>2025-01-19T11:50:56Z</time>
      </trkpt>
      <trkpt lat="43.40962" lon="6.65113">
        <ele>340.5</ele>
        <time>2025-01-19T11:50:57Z</time>
      </trkpt>
      <trkpt lat="43.40962" lon="6.65113">
        <ele>340.5</ele>
        <time>2025-01-19T11:50:58Z</time>
      </trkpt>
      <trkpt lat="43.40962" lon="6.65113">
        <ele>340.6</ele>
        <time>2025-01-19T11:50:59Z</time>
      </trkpt>
      <trkpt lat="43.40962" lon="6.65113">
        <ele>340.5</ele>
        <time>2025-01-19T11:51:00Z</time>
      </trkpt>
      <trkpt lat="43.40962" lon="6.65114">
        <ele>340.5</ele>
        <time>2025-01-19T11:51:01Z</time>
      </trkpt>
      <trkpt lat="43.40962" lon="6.65114">
        <ele>340.5</ele>
        <time>2025-01-19T11:51:02Z</time>
      </trkpt>
      <trkpt lat="43.40962" lon="6.65114">
        <ele>340.5</ele>
        <time>2025-01-19T11:51:03Z</time>
      </trkpt>
      <trkpt lat="43.40962" lon="6.65114">
        <ele>340.5</ele>
        <time>2025-01-19T11:51:04Z</time>
      </trkpt>
      <trkpt lat="43.40962" lon="6.65114">
        <ele>340.5</ele>
        <time>2025-01-19T11:51:05Z</time>
      </trkpt>
      <trkpt lat="43.40962" lon="6.65114">
        <ele>340.5</ele>
        <time>2025-01-19T11:51:06Z</time>
      </trkpt>
      <trkpt lat="43.40963" lon="6.65114">
        <ele>340.5</ele>
        <time>2025-01-19T11:51:07Z</time>
      </trkpt>
      <trkpt lat="43.40963" lon="6.65115">
        <ele>340.5</ele>
        <time>2025-01-19T11:51:08Z</time>
      </trkpt>
      <trkpt lat="43.40963" lon="6.65115">
        <ele>340.5</ele>
        <time>2025-01-19T11:51:09Z</time>
      </trkpt>
      <trkpt lat="43.40963" lon="6.65115">
        <ele>340.6</ele>
        <time>2025-01-19T11:51:10Z</time>
      </trkpt>
      <trkpt lat="43.40963" lon="6.65115">
        <ele>340.6</ele>
        <time>2025-01-19T11:51:11Z</time>
      </trkpt>
      <trkpt lat="43.40963" lon="6.65115">
        <ele>340.6</ele>
        <time>2025-01-19T11:51:12Z</time>
      </trkpt>
      <trkpt lat="43.40963" lon="6.65116">
        <ele>340.7</ele>
        <time>2025-01-19T11:51:13Z</time>
      </trkpt>
      <trkpt lat="43.40964" lon="6.65115">
        <ele>340.7</ele>
        <time>2025-01-19T11:51:14Z</time>
      </trkpt>
      <trkpt lat="43.40964" lon="6.65115">
        <ele>340.7</ele>
        <time>2025-01-19T11:51:15Z</time>
      </trkpt>
      <trkpt lat="43.40964" lon="6.65116">
        <ele>340.7</ele>
        <time>2025-01-19T11:51:16Z</time>
      </trkpt>
      <trkpt lat="43.40964" lon="6.65116">
        <ele>340.8</ele>
        <time>2025-01-19T11:51:17Z</time>
      </trkpt>
      <trkpt lat="43.40963" lon="6.65116">
        <ele>340.7</ele>
        <time>2025-01-19T11:51:18Z</time>
      </trkpt>
      <trkpt lat="43.40963" lon="6.65116">
        <ele>340.7</ele>
        <time>2025-01-19T11:51:19Z</time>
      </trkpt>
      <trkpt lat="43.40963" lon="6.65116">
        <ele>340.7</ele>
        <time>2025-01-19T11:51:20Z</time>
      </trkpt>
      <trkpt lat="43.40963" lon="6.65116">
        <ele>340.6</ele>
        <time>2025-01-19T11:51:21Z</time>
      </trkpt>
      <trkpt lat="43.40963" lon="6.65116">
        <ele>340.6</ele>
        <time>2025-01-19T11:51:22Z</time>
      </trkpt>
      <trkpt lat="43.40963" lon="6.65116">
        <ele>340.7</ele>
        <time>2025-01-19T11:51:23Z</time>
      </trkpt>
      <trkpt lat="43.40963" lon="6.65116">
        <ele>340.7</ele>
        <time>2025-01-19T11:51:24Z</time>
      </trkpt>
      <trkpt lat="43.40963" lon="6.65116">
        <ele>340.7</ele>
        <time>2025-01-19T11:51:25Z</time>
      </trkpt>
      <trkpt lat="43.40963" lon="6.65116">
        <ele>340.6</ele>
        <time>2025-01-19T11:51:26Z</time>
      </trkpt>
      <trkpt lat="43.40963" lon="6.65116">
        <ele>340.4</ele>
        <time>2025-01-19T11:51:27Z</time>
      </trkpt>
      <trkpt lat="43.40963" lon="6.65116">
        <ele>340.4</ele>
        <time>2025-01-19T11:51:28Z</time>
      </trkpt>
      <trkpt lat="43.40963" lon="6.65116">
        <ele>340.4</ele>
        <time>2025-01-19T11:51:29Z</time>
      </trkpt>
      <trkpt lat="43.40963" lon="6.65116">
        <ele>340.3</ele>
        <time>2025-01-19T11:51:30Z</time>
      </trkpt>
      <trkpt lat="43.40963" lon="6.65116">
        <ele>340.3</ele>
        <time>2025-01-19T11:51:31Z</time>
      </trkpt>
      <trkpt lat="43.40963" lon="6.65116">
        <ele>340.3</ele>
        <time>2025-01-19T11:51:32Z</time>
      </trkpt>
      <trkpt lat="43.40963" lon="6.65115">
        <ele>340.4</ele>
        <time>2025-01-19T11:51:33Z</time>
      </trkpt>
      <trkpt lat="43.40963" lon="6.65116">
        <ele>340.4</ele>
        <time>2025-01-19T11:51:34Z</time>
      </trkpt>
      <trkpt lat="43.40963" lon="6.65116">
        <ele>340.4</ele>
        <time>2025-01-19T11:51:35Z</time>
      </trkpt>
      <trkpt lat="43.40963" lon="6.65116">
        <ele>340.4</ele>
        <time>2025-01-19T11:51:36Z</time>
      </trkpt>
      <trkpt lat="43.40963" lon="6.65116">
        <ele>340.5</ele>
        <time>2025-01-19T11:51:37Z</time>
      </trkpt>
      <trkpt lat="43.40964" lon="6.65116">
        <ele>340.5</ele>
        <time>2025-01-19T11:51:38Z</time>
      </trkpt>
      <trkpt lat="43.40964" lon="6.65116">
        <ele>340.5</ele>
        <time>2025-01-19T11:51:39Z</time>
      </trkpt>
      <trkpt lat="43.40964" lon="6.65116">
        <ele>340.5</ele>
        <time>2025-01-19T11:51:40Z</time>
      </trkpt>
      <trkpt lat="43.40964" lon="6.65116">
        <ele>340.6</ele>
        <time>2025-01-19T11:51:41Z</time>
      </trkpt>
      <trkpt lat="43.40964" lon="6.65116">
        <ele>340.5</ele>
        <time>2025-01-19T11:51:42Z</time>
      </trkpt>
      <trkpt lat="43.40964" lon="6.65116">
        <ele>340.4</ele>
        <time>2025-01-19T11:51:43Z</time>
      </trkpt>
      <trkpt lat="43.40964" lon="6.65116">
        <ele>340.4</ele>
        <time>2025-01-19T11:51:44Z</time>
      </trkpt>
      <trkpt lat="43.40963" lon="6.65116">
        <ele>340.4</ele>
        <time>2025-01-19T11:51:45Z</time>
      </trkpt>
      <trkpt lat="43.40963" lon="6.65116">
        <ele>340.5</ele>
        <time>2025-01-19T11:51:46Z</time>
      </trkpt>
      <trkpt lat="43.40963" lon="6.65116">
        <ele>340.5</ele>
        <time>2025-01-19T11:51:47Z</time>
      </trkpt>
      <trkpt lat="43.40963" lon="6.65116">
        <ele>340.6</ele>
        <time>2025-01-19T11:51:48Z</time>
      </trkpt>
      <trkpt lat="43.40963" lon="6.65116">
        <ele>340.5</ele>
        <time>2025-01-19T11:51:49Z</time>
      </trkpt>
      <trkpt lat="43.40963" lon="6.65116">
        <ele>340.5</ele>
        <time>2025-01-19T11:51:50Z</time>
      </trkpt>
      <trkpt lat="43.40963" lon="6.65116">
        <ele>340.4</ele>
        <time>2025-01-19T11:51:51Z</time>
      </trkpt>
      <trkpt lat="43.40963" lon="6.65116">
        <ele>340.4</ele>
        <time>2025-01-19T11:51:52Z</time>
      </trkpt>
      <trkpt lat="43.40963" lon="6.65116">
        <ele>340.4</ele>
        <time>2025-01-19T11:51:53Z</time>
      </trkpt>
      <trkpt lat="43.40963" lon="6.65116">
        <ele>340.4</ele>
        <time>2025-01-19T11:51:54Z</time>
      </trkpt>
      <trkpt lat="43.40963" lon="6.65116">
        <ele>340.3</ele>
        <time>2025-01-19T11:51:55Z</time>
      </trkpt>
      <trkpt lat="43.40963" lon="6.65116">
        <ele>340.3</ele>
        <time>2025-01-19T11:51:56Z</time>
      </trkpt>
      <trkpt lat="43.40963" lon="6.65116">
        <ele>340.2</ele>
        <time>2025-01-19T11:51:57Z</time>
      </trkpt>
      <trkpt lat="43.40963" lon="6.65117">
        <ele>340.2</ele>
        <time>2025-01-19T11:51:58Z</time>
      </trkpt>
      <trkpt lat="43.40963" lon="6.65117">
        <ele>340.2</ele>
        <time>2025-01-19T11:51:59Z</time>
      </trkpt>
      <trkpt lat="43.40963" lon="6.65117">
        <ele>340.2</ele>
        <time>2025-01-19T11:52:00Z</time>
      </trkpt>
      <trkpt lat="43.40963" lon="6.65117">
        <ele>340.2</ele>
        <time>2025-01-19T11:52:01Z</time>
      </trkpt>
      <trkpt lat="43.40963" lon="6.65117">
        <ele>340.1</ele>
        <time>2025-01-19T11:52:02Z</time>
      </trkpt>
      <trkpt lat="43.40963" lon="6.65117">
        <ele>340.2</ele>
        <time>2025-01-19T11:52:03Z</time>
      </trkpt>
      <trkpt lat="43.40963" lon="6.65117">
        <ele>340.2</ele>
        <time>2025-01-19T11:52:04Z</time>
      </trkpt>
      <trkpt lat="43.40963" lon="6.65117">
        <ele>340.1</ele>
        <time>2025-01-19T11:52:05Z</time>
      </trkpt>
      <trkpt lat="43.40963" lon="6.65118">
        <ele>340.1</ele>
        <time>2025-01-19T11:52:06Z</time>
      </trkpt>
      <trkpt lat="43.40963" lon="6.65118">
        <ele>340.1</ele>
        <time>2025-01-19T11:52:07Z</time>
      </trkpt>
      <trkpt lat="43.40963" lon="6.65118">
        <ele>340.1</ele>
        <time>2025-01-19T11:52:08Z</time>
      </trkpt>
      <trkpt lat="43.40963" lon="6.65118">
        <ele>340</ele>
        <time>2025-01-19T11:52:09Z</time>
      </trkpt>
      <trkpt lat="43.40963" lon="6.65118">
        <ele>340</ele>
        <time>2025-01-19T11:52:10Z</time>
      </trkpt>
      <trkpt lat="43.40963" lon="6.65118">
        <ele>340</ele>
        <time>2025-01-19T11:52:11Z</time>
      </trkpt>
      <trkpt lat="43.40963" lon="6.65118">
        <ele>340</ele>
        <time>2025-01-19T11:52:12Z</time>
      </trkpt>
      <trkpt lat="43.40963" lon="6.65118">
        <ele>340</ele>
        <time>2025-01-19T11:52:13Z</time>
      </trkpt>
      <trkpt lat="43.40963" lon="6.65118">
        <ele>340</ele>
        <time>2025-01-19T11:52:14Z</time>
      </trkpt>
      <trkpt lat="43.40963" lon="6.65119">
        <ele>340</ele>
        <time>2025-01-19T11:52:15Z</time>
      </trkpt>
      <trkpt lat="43.40963" lon="6.65119">
        <ele>340.1</ele>
        <time>2025-01-19T11:52:16Z</time>
      </trkpt>
      <trkpt lat="43.40963" lon="6.65119">
        <ele>340.1</ele>
        <time>2025-01-19T11:52:17Z</time>
      </trkpt>
      <trkpt lat="43.40963" lon="6.65119">
        <ele>340.2</ele>
        <time>2025-01-19T11:52:18Z</time>
      </trkpt>
      <trkpt lat="43.40962" lon="6.65119">
        <ele>340.3</ele>
        <time>2025-01-19T11:52:19Z</time>
      </trkpt>
      <trkpt lat="43.40962" lon="6.65119">
        <ele>340.3</ele>
        <time>2025-01-19T11:52:20Z</time>
      </trkpt>
      <trkpt lat="43.40962" lon="6.65119">
        <ele>340.3</ele>
        <time>2025-01-19T11:52:21Z</time>
      </trkpt>
      <trkpt lat="43.40962" lon="6.65119">
        <ele>340.3</ele>
        <time>2025-01-19T11:52:22Z</time>
      </trkpt>
      <trkpt lat="43.40962" lon="6.65119">
        <ele>340.4</ele>
        <time>2025-01-19T11:52:23Z</time>
      </trkpt>
      <trkpt lat="43.40962" lon="6.65119">
        <ele>340.4</ele>
        <time>2025-01-19T11:52:24Z</time>
      </trkpt>
      <trkpt lat="43.40962" lon="6.65119">
        <ele>340.4</ele>
        <time>2025-01-19T11:52:25Z</time>
      </trkpt>
      <trkpt lat="43.40962" lon="6.65119">
        <ele>340.5</ele>
        <time>2025-01-19T11:52:26Z</time>
      </trkpt>
      <trkpt lat="43.40962" lon="6.65119">
        <ele>340.4</ele>
        <time>2025-01-19T11:52:27Z</time>
      </trkpt>
      <trkpt lat="43.40962" lon="6.65119">
        <ele>340.4</ele>
        <time>2025-01-19T11:52:28Z</time>
      </trkpt>
      <trkpt lat="43.40962" lon="6.65119">
        <ele>340.4</ele>
        <time>2025-01-19T11:52:29Z</time>
      </trkpt>
      <trkpt lat="43.40962" lon="6.65119">
        <ele>340.4</ele>
        <time>2025-01-19T11:52:30Z</time>
      </trkpt>
      <trkpt lat="43.40962" lon="6.65118">
        <ele>340.5</ele>
        <time>2025-01-19T11:52:31Z</time>
      </trkpt>
      <trkpt lat="43.40962" lon="6.65118">
        <ele>340.5</ele>
        <time>2025-01-19T11:52:32Z</time>
      </trkpt>
      <trkpt lat="43.40962" lon="6.65118">
        <ele>340.5</ele>
        <time>2025-01-19T11:52:33Z</time>
      </trkpt>
      <trkpt lat="43.40962" lon="6.65118">
        <ele>340.5</ele>
        <time>2025-01-19T11:52:34Z</time>
      </trkpt>
      <trkpt lat="43.40961" lon="6.65118">
        <ele>340.5</ele>
        <time>2025-01-19T11:52:35Z</time>
      </trkpt>
      <trkpt lat="43.40961" lon="6.65118">
        <ele>340.5</ele>
        <time>2025-01-19T11:52:36Z</time>
      </trkpt>
      <trkpt lat="43.40961" lon="6.65118">
        <ele>340.5</ele>
        <time>2025-01-19T11:52:37Z</time>
      </trkpt>
      <trkpt lat="43.40961" lon="6.65118">
        <ele>340.5</ele>
        <time>2025-01-19T11:52:38Z</time>
      </trkpt>
      <trkpt lat="43.40961" lon="6.65118">
        <ele>340.6</ele>
        <time>2025-01-19T11:52:39Z</time>
      </trkpt>
      <trkpt lat="43.40961" lon="6.65118">
        <ele>340.7</ele>
        <time>2025-01-19T11:52:40Z</time>
      </trkpt>
      <trkpt lat="43.40961" lon="6.65118">
        <ele>340.7</ele>
        <time>2025-01-19T11:52:41Z</time>
      </trkpt>
      <trkpt lat="43.40961" lon="6.65117">
        <ele>340.7</ele>
        <time>2025-01-19T11:52:42Z</time>
      </trkpt>
      <trkpt lat="43.40961" lon="6.65117">
        <ele>340.7</ele>
        <time>2025-01-19T11:52:43Z</time>
      </trkpt>
      <trkpt lat="43.40961" lon="6.65117">
        <ele>340.7</ele>
        <time>2025-01-19T11:52:44Z</time>
      </trkpt>
      <trkpt lat="43.40961" lon="6.65117">
        <ele>340.6</ele>
        <time>2025-01-19T11:52:45Z</time>
      </trkpt>
      <trkpt lat="43.40961" lon="6.65117">
        <ele>340.6</ele>
        <time>2025-01-19T11:52:46Z</time>
      </trkpt>
      <trkpt lat="43.40961" lon="6.65117">
        <ele>340.6</ele>
        <time>2025-01-19T11:52:47Z</time>
      </trkpt>
      <trkpt lat="43.40961" lon="6.65117">
        <ele>340.6</ele>
        <time>2025-01-19T11:52:48Z</time>
      </trkpt>
      <trkpt lat="43.40961" lon="6.65117">
        <ele>340.6</ele>
        <time>2025-01-19T11:52:49Z</time>
      </trkpt>
      <trkpt lat="43.40961" lon="6.65117">
        <ele>340.6</ele>
        <time>2025-01-19T11:52:50Z</time>
      </trkpt>
      <trkpt lat="43.40961" lon="6.65117">
        <ele>340.6</ele>
        <time>2025-01-19T11:52:51Z</time>
      </trkpt>
      <trkpt lat="43.40961" lon="6.65117">
        <ele>340.6</ele>
        <time>2025-01-19T11:52:52Z</time>
      </trkpt>
      <trkpt lat="43.40961" lon="6.65117">
        <ele>340.6</ele>
        <time>2025-01-19T11:52:53Z</time>
      </trkpt>
      <trkpt lat="43.40961" lon="6.65117">
        <ele>340.7</ele>
        <time>2025-01-19T11:52:54Z</time>
      </trkpt>
      <trkpt lat="43.40961" lon="6.65117">
        <ele>340.7</ele>
        <time>2025-01-19T11:52:55Z</time>
      </trkpt>
      <trkpt lat="43.40961" lon="6.65117">
        <ele>340.7</ele>
        <time>2025-01-19T11:52:56Z</time>
      </trkpt>
      <trkpt lat="43.40961" lon="6.65117">
        <ele>340.7</ele>
        <time>2025-01-19T11:52:57Z</time>
      </trkpt>
      <trkpt lat="43.40961" lon="6.65117">
        <ele>340.7</ele>
        <time>2025-01-19T11:52:58Z</time>
      </trkpt>
      <trkpt lat="43.40961" lon="6.65117">
        <ele>340.7</ele>
        <time>2025-01-19T11:52:59Z</time>
      </trkpt>
      <trkpt lat="43.40961" lon="6.65117">
        <ele>340.7</ele>
        <time>2025-01-19T11:53:00Z</time>
      </trkpt>
      <trkpt lat="43.40961" lon="6.65117">
        <ele>340.7</ele>
        <time>2025-01-19T11:53:01Z</time>
      </trkpt>
      <trkpt lat="43.40961" lon="6.65117">
        <ele>340.7</ele>
        <time>2025-01-19T11:53:02Z</time>
      </trkpt>
      <trkpt lat="43.40961" lon="6.65117">
        <ele>340.7</ele>
        <time>2025-01-19T11:53:03Z</time>
      </trkpt>
      <trkpt lat="43.40961" lon="6.65117">
        <ele>340.7</ele>
        <time>2025-01-19T11:53:04Z</time>
      </trkpt>
      <trkpt lat="43.4096" lon="6.65117">
        <ele>340.8</ele>
        <time>2025-01-19T11:53:05Z</time>
      </trkpt>
      <trkpt lat="43.4096" lon="6.65116">
        <ele>340.7</ele>
        <time>2025-01-19T11:53:06Z</time>
      </trkpt>
      <trkpt lat="43.4096" lon="6.65116">
        <ele>340.7</ele>
        <time>2025-01-19T11:53:07Z</time>
      </trkpt>
      <trkpt lat="43.4096" lon="6.65116">
        <ele>340.7</ele>
        <time>2025-01-19T11:53:08Z</time>
      </trkpt>
      <trkpt lat="43.4096" lon="6.65116">
        <ele>340.8</ele>
        <time>2025-01-19T11:53:09Z</time>
      </trkpt>
      <trkpt lat="43.4096" lon="6.65116">
        <ele>340.8</ele>
        <time>2025-01-19T11:53:10Z</time>
      </trkpt>
      <trkpt lat="43.4096" lon="6.65116">
        <ele>340.8</ele>
        <time>2025-01-19T11:53:11Z</time>
      </trkpt>
      <trkpt lat="43.4096" lon="6.65116">
        <ele>340.8</ele>
        <time>2025-01-19T11:53:12Z</time>
      </trkpt>
      <trkpt lat="43.4096" lon="6.65116">
        <ele>340.8</ele>
        <time>2025-01-19T11:53:13Z</time>
      </trkpt>
      <trkpt lat="43.4096" lon="6.65116">
        <ele>340.8</ele>
        <time>2025-01-19T11:53:14Z</time>
      </trkpt>
      <trkpt lat="43.4096" lon="6.65116">
        <ele>340.7</ele>
        <time>2025-01-19T11:53:15Z</time>
      </trkpt>
      <trkpt lat="43.4096" lon="6.65116">
        <ele>340.7</ele>
        <time>2025-01-19T11:53:16Z</time>
      </trkpt>
      <trkpt lat="43.40961" lon="6.65116">
        <ele>340.7</ele>
        <time>2025-01-19T11:53:17Z</time>
      </trkpt>
      <trkpt lat="43.40961" lon="6.65116">
        <ele>340.7</ele>
        <time>2025-01-19T11:53:18Z</time>
      </trkpt>
      <trkpt lat="43.40961" lon="6.65116">
        <ele>340.7</ele>
        <time>2025-01-19T11:53:19Z</time>
      </trkpt>
      <trkpt lat="43.40961" lon="6.65116">
        <ele>340.7</ele>
        <time>2025-01-19T11:53:20Z</time>
      </trkpt>
      <trkpt lat="43.40961" lon="6.65116">
        <ele>340.7</ele>
        <time>2025-01-19T11:53:21Z</time>
      </trkpt>
      <trkpt lat="43.40961" lon="6.65116">
        <ele>340.7</ele>
        <time>2025-01-19T11:53:22Z</time>
      </trkpt>
      <trkpt lat="43.40961" lon="6.65116">
        <ele>340.7</ele>
        <time>2025-01-19T11:53:23Z</time>
      </trkpt>
      <trkpt lat="43.40961" lon="6.65116">
        <ele>340.7</ele>
        <time>2025-01-19T11:53:24Z</time>
      </trkpt>
      <trkpt lat="43.40961" lon="6.65117">
        <ele>340.7</ele>
        <time>2025-01-19T11:53:25Z</time>
      </trkpt>
      <trkpt lat="43.40961" lon="6.65117">
        <ele>340.7</ele>
        <time>2025-01-19T11:53:26Z</time>
      </trkpt>
      <trkpt lat="43.40961" lon="6.65117">
        <ele>340.6</ele>
        <time>2025-01-19T11:53:27Z</time>
      </trkpt>
      <trkpt lat="43.40961" lon="6.65117">
        <ele>340.5</ele>
        <time>2025-01-19T11:53:28Z</time>
      </trkpt>
      <trkpt lat="43.40961" lon="6.65117">
        <ele>340.6</ele>
        <time>2025-01-19T11:53:29Z</time>
      </trkpt>
      <trkpt lat="43.40961" lon="6.65117">
        <ele>340.6</ele>
        <time>2025-01-19T11:53:30Z</time>
      </trkpt>
      <trkpt lat="43.4096" lon="6.65117">
        <ele>340.5</ele>
        <time>2025-01-19T11:53:31Z</time>
      </trkpt>
      <trkpt lat="43.4096" lon="6.65117">
        <ele>340.5</ele>
        <time>2025-01-19T11:53:32Z</time>
      </trkpt>
      <trkpt lat="43.4096" lon="6.65117">
        <ele>340.6</ele>
        <time>2025-01-19T11:53:33Z</time>
      </trkpt>
      <trkpt lat="43.40961" lon="6.65117">
        <ele>340.6</ele>
        <time>2025-01-19T11:53:34Z</time>
      </trkpt>
      <trkpt lat="43.40961" lon="6.65117">
        <ele>340.6</ele>
        <time>2025-01-19T11:53:35Z</time>
      </trkpt>
      <trkpt lat="43.40961" lon="6.65117">
        <ele>340.7</ele>
        <time>2025-01-19T11:53:36Z</time>
      </trkpt>
      <trkpt lat="43.40961" lon="6.65117">
        <ele>340.7</ele>
        <time>2025-01-19T11:53:37Z</time>
      </trkpt>
      <trkpt lat="43.40961" lon="6.65117">
        <ele>340.7</ele>
        <time>2025-01-19T11:53:38Z</time>
      </trkpt>
      <trkpt lat="43.40961" lon="6.65117">
        <ele>340.6</ele>
        <time>2025-01-19T11:53:39Z</time>
      </trkpt>
      <trkpt lat="43.40961" lon="6.65117">
        <ele>340.6</ele>
        <time>2025-01-19T11:53:40Z</time>
      </trkpt>
      <trkpt lat="43.40961" lon="6.65117">
        <ele>340.6</ele>
        <time>2025-01-19T11:53:41Z</time>
      </trkpt>
      <trkpt lat="43.40961" lon="6.65117">
        <ele>340.6</ele>
        <time>2025-01-19T11:53:42Z</time>
      </trkpt>
      <trkpt lat="43.40961" lon="6.65117">
        <ele>340.6</ele>
        <time>2025-01-19T11:53:43Z</time>
      </trkpt>
      <trkpt lat="43.40961" lon="6.65117">
        <ele>340.6</ele>
        <time>2025-01-19T11:53:44Z</time>
      </trkpt>
      <trkpt lat="43.40961" lon="6.65116">
        <ele>340.6</ele>
        <time>2025-01-19T11:53:45Z</time>
      </trkpt>
      <trkpt lat="43.40961" lon="6.65116">
        <ele>340.7</ele>
        <time>2025-01-19T11:53:46Z</time>
      </trkpt>
      <trkpt lat="43.40961" lon="6.65116">
        <ele>340.7</ele>
        <time>2025-01-19T11:53:47Z</time>
      </trkpt>
      <trkpt lat="43.40961" lon="6.65116">
        <ele>340.7</ele>
        <time>2025-01-19T11:53:48Z</time>
      </trkpt>
      <trkpt lat="43.40961" lon="6.65116">
        <ele>340.6</ele>
        <time>2025-01-19T11:53:49Z</time>
      </trkpt>
      <trkpt lat="43.40961" lon="6.65116">
        <ele>340.6</ele>
        <time>2025-01-19T11:53:50Z</time>
      </trkpt>
      <trkpt lat="43.40961" lon="6.65116">
        <ele>340.6</ele>
        <time>2025-01-19T11:53:51Z</time>
      </trkpt>
      <trkpt lat="43.40961" lon="6.65116">
        <ele>340.6</ele>
        <time>2025-01-19T11:53:52Z</time>
      </trkpt>
      <trkpt lat="43.40961" lon="6.65116">
        <ele>340.5</ele>
        <time>2025-01-19T11:53:53Z</time>
      </trkpt>
      <trkpt lat="43.40961" lon="6.65116">
        <ele>340.5</ele>
        <time>2025-01-19T11:53:54Z</time>
      </trkpt>
      <trkpt lat="43.40961" lon="6.65116">
        <ele>340.5</ele>
        <time>2025-01-19T11:53:55Z</time>
      </trkpt>
      <trkpt lat="43.40961" lon="6.65116">
        <ele>340.5</ele>
        <time>2025-01-19T11:53:56Z</time>
      </trkpt>
      <trkpt lat="43.40961" lon="6.65116">
        <ele>340.6</ele>
        <time>2025-01-19T11:53:57Z</time>
      </trkpt>
      <trkpt lat="43.40961" lon="6.65116">
        <ele>340.6</ele>
        <time>2025-01-19T11:53:58Z</time>
      </trkpt>
      <trkpt lat="43.40961" lon="6.65116">
        <ele>340.6</ele>
        <time>2025-01-19T11:53:59Z</time>
      </trkpt>
      <trkpt lat="43.40961" lon="6.65116">
        <ele>340.5</ele>
        <time>2025-01-19T11:54:00Z</time>
      </trkpt>
      <trkpt lat="43.40961" lon="6.65116">
        <ele>340.5</ele>
        <time>2025-01-19T11:54:01Z</time>
      </trkpt>
      <trkpt lat="43.40961" lon="6.65116">
        <ele>340.6</ele>
        <time>2025-01-19T11:54:02Z</time>
      </trkpt>
      <trkpt lat="43.40961" lon="6.65116">
        <ele>340.7</ele>
        <time>2025-01-19T11:54:03Z</time>
      </trkpt>
      <trkpt lat="43.40961" lon="6.65116">
        <ele>340.7</ele>
        <time>2025-01-19T11:54:04Z</time>
      </trkpt>
      <trkpt lat="43.40961" lon="6.65116">
        <ele>340.7</ele>
        <time>2025-01-19T11:54:05Z</time>
      </trkpt>
      <trkpt lat="43.40961" lon="6.65117">
        <ele>340.7</ele>
        <time>2025-01-19T11:54:06Z</time>
      </trkpt>
      <trkpt lat="43.40961" lon="6.65117">
        <ele>340.7</ele>
        <time>2025-01-19T11:54:07Z</time>
      </trkpt>
      <trkpt lat="43.40961" lon="6.65117">
        <ele>340.8</ele>
        <time>2025-01-19T11:54:08Z</time>
      </trkpt>
      <trkpt lat="43.40961" lon="6.65117">
        <ele>340.8</ele>
        <time>2025-01-19T11:54:09Z</time>
      </trkpt>
      <trkpt lat="43.40961" lon="6.65117">
        <ele>340.8</ele>
        <time>2025-01-19T11:54:10Z</time>
      </trkpt>
      <trkpt lat="43.40961" lon="6.65117">
        <ele>340.8</ele>
        <time>2025-01-19T11:54:11Z</time>
      </trkpt>
      <trkpt lat="43.40961" lon="6.65117">
        <ele>340.8</ele>
        <time>2025-01-19T11:54:12Z</time>
      </trkpt>
      <trkpt lat="43.40961" lon="6.65117">
        <ele>340.8</ele>
        <time>2025-01-19T11:54:13Z</time>
      </trkpt>
      <trkpt lat="43.40961" lon="6.65117">
        <ele>340.8</ele>
        <time>2025-01-19T11:54:14Z</time>
      </trkpt>
      <trkpt lat="43.40961" lon="6.65117">
        <ele>340.8</ele>
        <time>2025-01-19T11:54:15Z</time>
      </trkpt>
      <trkpt lat="43.40961" lon="6.65117">
        <ele>340.8</ele>
        <time>2025-01-19T11:54:16Z</time>
      </trkpt>
      <trkpt lat="43.40961" lon="6.65117">
        <ele>340.8</ele>
        <time>2025-01-19T11:54:17Z</time>
      </trkpt>
      <trkpt lat="43.40961" lon="6.65117">
        <ele>340.7</ele>
        <time>2025-01-19T11:54:18Z</time>
      </trkpt>
      <trkpt lat="43.40961" lon="6.65117">
        <ele>340.7</ele>
        <time>2025-01-19T11:54:19Z</time>
      </trkpt>
      <trkpt lat="43.40961" lon="6.65117">
        <ele>340.6</ele>
        <time>2025-01-19T11:54:20Z</time>
      </trkpt>
      <trkpt lat="43.40961" lon="6.65116">
        <ele>340.6</ele>
        <time>2025-01-19T11:54:21Z</time>
      </trkpt>
      <trkpt lat="43.40961" lon="6.65116">
        <ele>340.6</ele>
        <time>2025-01-19T11:54:22Z</time>
      </trkpt>
      <trkpt lat="43.40961" lon="6.65116">
        <ele>340.6</ele>
        <time>2025-01-19T11:54:23Z</time>
      </trkpt>
      <trkpt lat="43.40961" lon="6.65116">
        <ele>340.6</ele>
        <time>2025-01-19T11:54:24Z</time>
      </trkpt>
      <trkpt lat="43.40961" lon="6.65116">
        <ele>340.6</ele>
        <time>2025-01-19T11:54:25Z</time>
      </trkpt>
      <trkpt lat="43.40961" lon="6.65116">
        <ele>340.6</ele>
        <time>2025-01-19T11:54:26Z</time>
      </trkpt>
      <trkpt lat="43.40961" lon="6.65116">
        <ele>340.6</ele>
        <time>2025-01-19T11:54:27Z</time>
      </trkpt>
      <trkpt lat="43.40961" lon="6.65116">
        <ele>340.6</ele>
        <time>2025-01-19T11:54:28Z</time>
      </trkpt>
      <trkpt lat="43.40961" lon="6.65116">
        <ele>340.6</ele>
        <time>2025-01-19T11:54:29Z</time>
      </trkpt>
      <trkpt lat="43.40961" lon="6.65116">
        <ele>340.6</ele>
        <time>2025-01-19T11:54:30Z</time>
      </trkpt>
      <trkpt lat="43.40961" lon="6.65116">
        <ele>340.6</ele>
        <time>2025-01-19T11:54:31Z</time>
      </trkpt>
      <trkpt lat="43.40961" lon="6.65116">
        <ele>340.6</ele>
        <time>2025-01-19T11:54:32Z</time>
      </trkpt>
      <trkpt lat="43.40961" lon="6.65116">
        <ele>340.6</ele>
        <time>2025-01-19T11:54:33Z</time>
      </trkpt>
      <trkpt lat="43.40961" lon="6.65115">
        <ele>340.6</ele>
        <time>2025-01-19T11:54:34Z</time>
      </trkpt>
      <trkpt lat="43.40961" lon="6.65115">
        <ele>340.6</ele>
        <time>2025-01-19T11:54:35Z</time>
      </trkpt>
      <trkpt lat="43.40961" lon="6.65115">
        <ele>340.6</ele>
        <time>2025-01-19T11:54:36Z</time>
      </trkpt>
      <trkpt lat="43.40961" lon="6.65115">
        <ele>340.7</ele>
        <time>2025-01-19T11:54:37Z</time>
      </trkpt>
      <trkpt lat="43.40961" lon="6.65115">
        <ele>340.6</ele>
        <time>2025-01-19T11:54:38Z</time>
      </trkpt>
      <trkpt lat="43.40961" lon="6.65115">
        <ele>340.6</ele>
        <time>2025-01-19T11:54:39Z</time>
      </trkpt>
      <trkpt lat="43.40961" lon="6.65115">
        <ele>340.6</ele>
        <time>2025-01-19T11:54:40Z</time>
      </trkpt>
      <trkpt lat="43.40961" lon="6.65115">
        <ele>340.5</ele>
        <time>2025-01-19T11:54:41Z</time>
      </trkpt>
      <trkpt lat="43.40961" lon="6.65115">
        <ele>340.5</ele>
        <time>2025-01-19T11:54:42Z</time>
      </trkpt>
      <trkpt lat="43.40961" lon="6.65115">
        <ele>340.5</ele>
        <time>2025-01-19T11:54:43Z</time>
      </trkpt>
      <trkpt lat="43.40961" lon="6.65115">
        <ele>340.5</ele>
        <time>2025-01-19T11:54:44Z</time>
      </trkpt>
      <trkpt lat="43.40961" lon="6.65115">
        <ele>340.5</ele>
        <time>2025-01-19T11:54:45Z</time>
      </trkpt>
      <trkpt lat="43.40961" lon="6.65115">
        <ele>340.4</ele>
        <time>2025-01-19T11:54:46Z</time>
      </trkpt>
      <trkpt lat="43.40961" lon="6.65115">
        <ele>340.4</ele>
        <time>2025-01-19T11:54:47Z</time>
      </trkpt>
      <trkpt lat="43.4096" lon="6.65115">
        <ele>340.4</ele>
        <time>2025-01-19T11:54:48Z</time>
      </trkpt>
      <trkpt lat="43.4096" lon="6.65115">
        <ele>340.4</ele>
        <time>2025-01-19T11:54:49Z</time>
      </trkpt>
      <trkpt lat="43.4096" lon="6.65115">
        <ele>340.4</ele>
        <time>2025-01-19T11:54:50Z</time>
      </trkpt>
      <trkpt lat="43.4096" lon="6.65115">
        <ele>340.3</ele>
        <time>2025-01-19T11:54:51Z</time>
      </trkpt>
      <trkpt lat="43.4096" lon="6.65115">
        <ele>340.3</ele>
        <time>2025-01-19T11:54:52Z</time>
      </trkpt>
      <trkpt lat="43.4096" lon="6.65115">
        <ele>340.3</ele>
        <time>2025-01-19T11:54:53Z</time>
      </trkpt>
      <trkpt lat="43.4096" lon="6.65115">
        <ele>340.3</ele>
        <time>2025-01-19T11:54:54Z</time>
      </trkpt>
      <trkpt lat="43.4096" lon="6.65115">
        <ele>340.3</ele>
        <time>2025-01-19T11:54:55Z</time>
      </trkpt>
      <trkpt lat="43.4096" lon="6.65115">
        <ele>340.3</ele>
        <time>2025-01-19T11:54:56Z</time>
      </trkpt>
      <trkpt lat="43.4096" lon="6.65115">
        <ele>340.4</ele>
        <time>2025-01-19T11:54:57Z</time>
      </trkpt>
      <trkpt lat="43.4096" lon="6.65115">
        <ele>340.4</ele>
        <time>2025-01-19T11:54:58Z</time>
      </trkpt>
      <trkpt lat="43.4096" lon="6.65115">
        <ele>340.4</ele>
        <time>2025-01-19T11:54:59Z</time>
      </trkpt>
      <trkpt lat="43.4096" lon="6.65115">
        <ele>340.3</ele>
        <time>2025-01-19T11:55:00Z</time>
      </trkpt>
      <trkpt lat="43.4096" lon="6.65115">
        <ele>340.2</ele>
        <time>2025-01-19T11:55:01Z</time>
      </trkpt>
      <trkpt lat="43.4096" lon="6.65115">
        <ele>340.2</ele>
        <time>2025-01-19T11:55:02Z</time>
      </trkpt>
      <trkpt lat="43.40959" lon="6.65115">
        <ele>340.2</ele>
        <time>2025-01-19T11:55:03Z</time>
      </trkpt>
      <trkpt lat="43.40959" lon="6.65115">
        <ele>340.2</ele>
        <time>2025-01-19T11:55:04Z</time>
      </trkpt>
      <trkpt lat="43.40959" lon="6.65115">
        <ele>340.2</ele>
        <time>2025-01-19T11:55:05Z</time>
      </trkpt>
      <trkpt lat="43.40959" lon="6.65115">
        <ele>340.2</ele>
        <time>2025-01-19T11:55:06Z</time>
      </trkpt>
      <trkpt lat="43.40959" lon="6.65116">
        <ele>340.3</ele>
        <time>2025-01-19T11:55:07Z</time>
      </trkpt>
      <trkpt lat="43.40959" lon="6.65116">
        <ele>340.3</ele>
        <time>2025-01-19T11:55:08Z</time>
      </trkpt>
      <trkpt lat="43.40959" lon="6.65116">
        <ele>340.3</ele>
        <time>2025-01-19T11:55:09Z</time>
      </trkpt>
      <trkpt lat="43.40959" lon="6.65116">
        <ele>340.4</ele>
        <time>2025-01-19T11:55:10Z</time>
      </trkpt>
      <trkpt lat="43.40959" lon="6.65116">
        <ele>340.4</ele>
        <time>2025-01-19T11:55:11Z</time>
      </trkpt>
      <trkpt lat="43.40959" lon="6.65116">
        <ele>340.4</ele>
        <time>2025-01-19T11:55:12Z</time>
      </trkpt>
      <trkpt lat="43.40959" lon="6.65116">
        <ele>340.4</ele>
        <time>2025-01-19T11:55:13Z</time>
      </trkpt>
      <trkpt lat="43.40959" lon="6.65116">
        <ele>340.5</ele>
        <time>2025-01-19T11:55:14Z</time>
      </trkpt>
      <trkpt lat="43.40959" lon="6.65116">
        <ele>340.5</ele>
        <time>2025-01-19T11:55:15Z</time>
      </trkpt>
      <trkpt lat="43.40959" lon="6.65116">
        <ele>340.5</ele>
        <time>2025-01-19T11:55:16Z</time>
      </trkpt>
      <trkpt lat="43.40959" lon="6.65116">
        <ele>340.5</ele>
        <time>2025-01-19T11:55:17Z</time>
      </trkpt>
      <trkpt lat="43.40959" lon="6.65116">
        <ele>340.5</ele>
        <time>2025-01-19T11:55:18Z</time>
      </trkpt>
      <trkpt lat="43.40959" lon="6.65116">
        <ele>340.4</ele>
        <time>2025-01-19T11:55:19Z</time>
      </trkpt>
      <trkpt lat="43.40959" lon="6.65116">
        <ele>340.4</ele>
        <time>2025-01-19T11:55:20Z</time>
      </trkpt>
      <trkpt lat="43.40959" lon="6.65116">
        <ele>340.4</ele>
        <time>2025-01-19T11:55:21Z</time>
      </trkpt>
      <trkpt lat="43.40959" lon="6.65116">
        <ele>340.3</ele>
        <time>2025-01-19T11:55:22Z</time>
      </trkpt>
      <trkpt lat="43.40959" lon="6.65115">
        <ele>340.3</ele>
        <time>2025-01-19T11:55:23Z</time>
      </trkpt>
      <trkpt lat="43.40959" lon="6.65115">
        <ele>340.2</ele>
        <time>2025-01-19T11:55:24Z</time>
      </trkpt>
      <trkpt lat="43.40959" lon="6.65115">
        <ele>340.2</ele>
        <time>2025-01-19T11:55:25Z</time>
      </trkpt>
      <trkpt lat="43.40959" lon="6.65115">
        <ele>340.2</ele>
        <time>2025-01-19T11:55:26Z</time>
      </trkpt>
      <trkpt lat="43.40959" lon="6.65115">
        <ele>340.2</ele>
        <time>2025-01-19T11:55:27Z</time>
      </trkpt>
      <trkpt lat="43.40959" lon="6.65115">
        <ele>340.2</ele>
        <time>2025-01-19T11:55:28Z</time>
      </trkpt>
      <trkpt lat="43.40959" lon="6.65115">
        <ele>340.3</ele>
        <time>2025-01-19T11:55:29Z</time>
      </trkpt>
      <trkpt lat="43.40959" lon="6.65115">
        <ele>340.3</ele>
        <time>2025-01-19T11:55:30Z</time>
      </trkpt>
      <trkpt lat="43.40959" lon="6.65115">
        <ele>340.2</ele>
        <time>2025-01-19T11:55:31Z</time>
      </trkpt>
      <trkpt lat="43.40959" lon="6.65115">
        <ele>340.2</ele>
        <time>2025-01-19T11:55:32Z</time>
      </trkpt>
      <trkpt lat="43.40959" lon="6.65115">
        <ele>340.2</ele>
        <time>2025-01-19T11:55:33Z</time>
      </trkpt>
      <trkpt lat="43.40959" lon="6.65115">
        <ele>340.1</ele>
        <time>2025-01-19T11:55:34Z</time>
      </trkpt>
      <trkpt lat="43.40959" lon="6.65115">
        <ele>340.1</ele>
        <time>2025-01-19T11:55:35Z</time>
      </trkpt>
      <trkpt lat="43.40959" lon="6.65115">
        <ele>340.1</ele>
        <time>2025-01-19T11:55:36Z</time>
      </trkpt>
      <trkpt lat="43.40959" lon="6.65115">
        <ele>340.1</ele>
        <time>2025-01-19T11:55:37Z</time>
      </trkpt>
      <trkpt lat="43.40959" lon="6.65115">
        <ele>340</ele>
        <time>2025-01-19T11:55:38Z</time>
      </trkpt>
      <trkpt lat="43.40959" lon="6.65115">
        <ele>340</ele>
        <time>2025-01-19T11:55:39Z</time>
      </trkpt>
      <trkpt lat="43.40959" lon="6.65115">
        <ele>340</ele>
        <time>2025-01-19T11:55:40Z</time>
      </trkpt>
      <trkpt lat="43.40959" lon="6.65115">
        <ele>340</ele>
        <time>2025-01-19T11:55:41Z</time>
      </trkpt>
      <trkpt lat="43.40959" lon="6.65115">
        <ele>339.9</ele>
        <time>2025-01-19T11:55:42Z</time>
      </trkpt>
      <trkpt lat="43.40959" lon="6.65115">
        <ele>340</ele>
        <time>2025-01-19T11:55:43Z</time>
      </trkpt>
      <trkpt lat="43.40959" lon="6.65115">
        <ele>339.9</ele>
        <time>2025-01-19T11:55:44Z</time>
      </trkpt>
      <trkpt lat="43.40959" lon="6.65115">
        <ele>339.9</ele>
        <time>2025-01-19T11:55:45Z</time>
      </trkpt>
      <trkpt lat="43.40959" lon="6.65115">
        <ele>339.9</ele>
        <time>2025-01-19T11:55:46Z</time>
      </trkpt>
      <trkpt lat="43.40959" lon="6.65115">
        <ele>340</ele>
        <time>2025-01-19T11:55:47Z</time>
      </trkpt>
      <trkpt lat="43.40959" lon="6.65115">
        <ele>340</ele>
        <time>2025-01-19T11:55:48Z</time>
      </trkpt>
      <trkpt lat="43.40959" lon="6.65115">
        <ele>339.9</ele>
        <time>2025-01-19T11:55:49Z</time>
      </trkpt>
      <trkpt lat="43.40959" lon="6.65115">
        <ele>339.9</ele>
        <time>2025-01-19T11:55:50Z</time>
      </trkpt>
      <trkpt lat="43.40959" lon="6.65115">
        <ele>339.8</ele>
        <time>2025-01-19T11:55:51Z</time>
      </trkpt>
      <trkpt lat="43.40959" lon="6.65116">
        <ele>339.8</ele>
        <time>2025-01-19T11:55:52Z</time>
      </trkpt>
      <trkpt lat="43.40959" lon="6.65116">
        <ele>339.8</ele>
        <time>2025-01-19T11:55:53Z</time>
      </trkpt>
      <trkpt lat="43.40959" lon="6.65116">
        <ele>339.8</ele>
        <time>2025-01-19T11:55:54Z</time>
      </trkpt>
      <trkpt lat="43.40959" lon="6.65116">
        <ele>339.9</ele>
        <time>2025-01-19T11:55:55Z</time>
      </trkpt>
      <trkpt lat="43.40959" lon="6.65116">
        <ele>339.9</ele>
        <time>2025-01-19T11:55:56Z</time>
      </trkpt>
      <trkpt lat="43.40959" lon="6.65116">
        <ele>339.9</ele>
        <time>2025-01-19T11:55:57Z</time>
      </trkpt>
      <trkpt lat="43.40959" lon="6.65116">
        <ele>339.9</ele>
        <time>2025-01-19T11:55:58Z</time>
      </trkpt>
      <trkpt lat="43.40959" lon="6.65116">
        <ele>340</ele>
        <time>2025-01-19T11:55:59Z</time>
      </trkpt>
      <trkpt lat="43.40959" lon="6.65116">
        <ele>340</ele>
        <time>2025-01-19T11:56:00Z</time>
      </trkpt>
      <trkpt lat="43.40959" lon="6.65116">
        <ele>340.1</ele>
        <time>2025-01-19T11:56:01Z</time>
      </trkpt>
      <trkpt lat="43.40959" lon="6.65116">
        <ele>340.1</ele>
        <time>2025-01-19T11:56:02Z</time>
      </trkpt>
      <trkpt lat="43.40959" lon="6.65116">
        <ele>340.1</ele>
        <time>2025-01-19T11:56:03Z</time>
      </trkpt>
      <trkpt lat="43.40959" lon="6.65116">
        <ele>340.2</ele>
        <time>2025-01-19T11:56:04Z</time>
      </trkpt>
      <trkpt lat="43.40959" lon="6.65116">
        <ele>340.2</ele>
        <time>2025-01-19T11:56:05Z</time>
      </trkpt>
      <trkpt lat="43.40959" lon="6.65116">
        <ele>340.2</ele>
        <time>2025-01-19T11:56:06Z</time>
      </trkpt>
      <trkpt lat="43.40959" lon="6.65116">
        <ele>340.2</ele>
        <time>2025-01-19T11:56:07Z</time>
      </trkpt>
      <trkpt lat="43.40959" lon="6.65116">
        <ele>340.3</ele>
        <time>2025-01-19T11:56:08Z</time>
      </trkpt>
      <trkpt lat="43.40959" lon="6.65116">
        <ele>340.3</ele>
        <time>2025-01-19T11:56:09Z</time>
      </trkpt>
      <trkpt lat="43.40959" lon="6.65116">
        <ele>340.3</ele>
        <time>2025-01-19T11:56:10Z</time>
      </trkpt>
      <trkpt lat="43.40959" lon="6.65116">
        <ele>340.3</ele>
        <time>2025-01-19T11:56:11Z</time>
      </trkpt>
      <trkpt lat="43.40959" lon="6.65116">
        <ele>340.4</ele>
        <time>2025-01-19T11:56:12Z</time>
      </trkpt>
      <trkpt lat="43.40959" lon="6.65116">
        <ele>340.4</ele>
        <time>2025-01-19T11:56:13Z</time>
      </trkpt>
      <trkpt lat="43.40959" lon="6.65116">
        <ele>340.4</ele>
        <time>2025-01-19T11:56:14Z</time>
      </trkpt>
      <trkpt lat="43.40959" lon="6.65116">
        <ele>340.4</ele>
        <time>2025-01-19T11:56:15Z</time>
      </trkpt>
      <trkpt lat="43.40959" lon="6.65116">
        <ele>340.4</ele>
        <time>2025-01-19T11:56:16Z</time>
      </trkpt>
      <trkpt lat="43.40959" lon="6.65116">
        <ele>340.4</ele>
        <time>2025-01-19T11:56:17Z</time>
      </trkpt>
      <trkpt lat="43.40959" lon="6.65116">
        <ele>340.3</ele>
        <time>2025-01-19T11:56:18Z</time>
      </trkpt>
      <trkpt lat="43.40959" lon="6.65116">
        <ele>340.3</ele>
        <time>2025-01-19T11:56:19Z</time>
      </trkpt>
      <trkpt lat="43.40959" lon="6.65116">
        <ele>340.3</ele>
        <time>2025-01-19T11:56:20Z</time>
      </trkpt>
      <trkpt lat="43.40959" lon="6.65116">
        <ele>340.3</ele>
        <time>2025-01-19T11:56:21Z</time>
      </trkpt>
      <trkpt lat="43.40959" lon="6.65116">
        <ele>340.3</ele>
        <time>2025-01-19T11:56:22Z</time>
      </trkpt>
      <trkpt lat="43.40959" lon="6.65116">
        <ele>340.3</ele>
        <time>2025-01-19T11:56:23Z</time>
      </trkpt>
      <trkpt lat="43.40959" lon="6.65116">
        <ele>340.4</ele>
        <time>2025-01-19T11:56:24Z</time>
      </trkpt>
      <trkpt lat="43.4096" lon="6.65116">
        <ele>340.4</ele>
        <time>2025-01-19T11:56:25Z</time>
      </trkpt>
      <trkpt lat="43.4096" lon="6.65116">
        <ele>340.4</ele>
        <time>2025-01-19T11:56:26Z</time>
      </trkpt>
      <trkpt lat="43.4096" lon="6.65116">
        <ele>340.3</ele>
        <time>2025-01-19T11:56:27Z</time>
      </trkpt>
      <trkpt lat="43.4096" lon="6.65115">
        <ele>340.3</ele>
        <time>2025-01-19T11:56:28Z</time>
      </trkpt>
      <trkpt lat="43.4096" lon="6.65115">
        <ele>340.3</ele>
        <time>2025-01-19T11:56:29Z</time>
      </trkpt>
      <trkpt lat="43.4096" lon="6.65115">
        <ele>340.3</ele>
        <time>2025-01-19T11:56:30Z</time>
      </trkpt>
      <trkpt lat="43.4096" lon="6.65115">
        <ele>340.3</ele>
        <time>2025-01-19T11:56:31Z</time>
      </trkpt>
      <trkpt lat="43.4096" lon="6.65115">
        <ele>340.3</ele>
        <time>2025-01-19T11:56:32Z</time>
      </trkpt>
      <trkpt lat="43.4096" lon="6.65115">
        <ele>340.3</ele>
        <time>2025-01-19T11:56:33Z</time>
      </trkpt>
      <trkpt lat="43.4096" lon="6.65115">
        <ele>340.3</ele>
        <time>2025-01-19T11:56:34Z</time>
      </trkpt>
      <trkpt lat="43.4096" lon="6.65115">
        <ele>340.2</ele>
        <time>2025-01-19T11:56:35Z</time>
      </trkpt>
      <trkpt lat="43.4096" lon="6.65115">
        <ele>340.2</ele>
        <time>2025-01-19T11:56:36Z</time>
      </trkpt>
      <trkpt lat="43.4096" lon="6.65115">
        <ele>340.2</ele>
        <time>2025-01-19T11:56:37Z</time>
      </trkpt>
      <trkpt lat="43.4096" lon="6.65115">
        <ele>340.2</ele>
        <time>2025-01-19T11:56:38Z</time>
      </trkpt>
      <trkpt lat="43.4096" lon="6.65115">
        <ele>340.1</ele>
        <time>2025-01-19T11:56:39Z</time>
      </trkpt>
      <trkpt lat="43.4096" lon="6.65115">
        <ele>340.1</ele>
        <time>2025-01-19T11:56:40Z</time>
      </trkpt>
      <trkpt lat="43.4096" lon="6.65115">
        <ele>340</ele>
        <time>2025-01-19T11:56:41Z</time>
      </trkpt>
      <trkpt lat="43.4096" lon="6.65115">
        <ele>340</ele>
        <time>2025-01-19T11:56:42Z</time>
      </trkpt>
      <trkpt lat="43.4096" lon="6.65115">
        <ele>340.1</ele>
        <time>2025-01-19T11:56:43Z</time>
      </trkpt>
      <trkpt lat="43.4096" lon="6.65115">
        <ele>340</ele>
        <time>2025-01-19T11:56:44Z</time>
      </trkpt>
      <trkpt lat="43.4096" lon="6.65115">
        <ele>340</ele>
        <time>2025-01-19T11:56:45Z</time>
      </trkpt>
      <trkpt lat="43.4096" lon="6.65115">
        <ele>340</ele>
        <time>2025-01-19T11:56:46Z</time>
      </trkpt>
      <trkpt lat="43.4096" lon="6.65115">
        <ele>340</ele>
        <time>2025-01-19T11:56:47Z</time>
      </trkpt>
      <trkpt lat="43.4096" lon="6.65116">
        <ele>340.1</ele>
        <time>2025-01-19T11:56:48Z</time>
      </trkpt>
      <trkpt lat="43.4096" lon="6.65116">
        <ele>340.1</ele>
        <time>2025-01-19T11:56:49Z</time>
      </trkpt>
      <trkpt lat="43.4096" lon="6.65116">
        <ele>340.1</ele>
        <time>2025-01-19T11:56:50Z</time>
      </trkpt>
      <trkpt lat="43.4096" lon="6.65116">
        <ele>340.1</ele>
        <time>2025-01-19T11:56:51Z</time>
      </trkpt>
      <trkpt lat="43.4096" lon="6.65116">
        <ele>340.1</ele>
        <time>2025-01-19T11:56:52Z</time>
      </trkpt>
      <trkpt lat="43.4096" lon="6.65116">
        <ele>340.1</ele>
        <time>2025-01-19T11:56:53Z</time>
      </trkpt>
      <trkpt lat="43.4096" lon="6.65117">
        <ele>340.2</ele>
        <time>2025-01-19T11:56:54Z</time>
      </trkpt>
      <trkpt lat="43.40959" lon="6.65117">
        <ele>340.2</ele>
        <time>2025-01-19T11:56:55Z</time>
      </trkpt>
      <trkpt lat="43.40959" lon="6.65117">
        <ele>340.1</ele>
        <time>2025-01-19T11:56:56Z</time>
      </trkpt>
      <trkpt lat="43.40959" lon="6.65117">
        <ele>340.1</ele>
        <time>2025-01-19T11:56:57Z</time>
      </trkpt>
      <trkpt lat="43.40959" lon="6.65117">
        <ele>340.1</ele>
        <time>2025-01-19T11:56:58Z</time>
      </trkpt>
      <trkpt lat="43.40959" lon="6.65117">
        <ele>340.2</ele>
        <time>2025-01-19T11:56:59Z</time>
      </trkpt>
      <trkpt lat="43.40959" lon="6.65117">
        <ele>340.2</ele>
        <time>2025-01-19T11:57:00Z</time>
      </trkpt>
      <trkpt lat="43.40959" lon="6.65117">
        <ele>340.2</ele>
        <time>2025-01-19T11:57:01Z</time>
      </trkpt>
      <trkpt lat="43.40959" lon="6.65118">
        <ele>340.2</ele>
        <time>2025-01-19T11:57:02Z</time>
      </trkpt>
      <trkpt lat="43.40959" lon="6.65118">
        <ele>340.2</ele>
        <time>2025-01-19T11:57:03Z</time>
      </trkpt>
      <trkpt lat="43.40959" lon="6.65118">
        <ele>340.2</ele>
        <time>2025-01-19T11:57:04Z</time>
      </trkpt>
      <trkpt lat="43.40959" lon="6.65118">
        <ele>340.2</ele>
        <time>2025-01-19T11:57:05Z</time>
      </trkpt>
      <trkpt lat="43.40959" lon="6.65118">
        <ele>340.2</ele>
        <time>2025-01-19T11:57:06Z</time>
      </trkpt>
      <trkpt lat="43.40959" lon="6.65118">
        <ele>340.3</ele>
        <time>2025-01-19T11:57:07Z</time>
      </trkpt>
      <trkpt lat="43.40959" lon="6.65118">
        <ele>340.3</ele>
        <time>2025-01-19T11:57:08Z</time>
      </trkpt>
      <trkpt lat="43.40959" lon="6.65118">
        <ele>340.3</ele>
        <time>2025-01-19T11:57:09Z</time>
      </trkpt>
      <trkpt lat="43.40959" lon="6.65118">
        <ele>340.3</ele>
        <time>2025-01-19T11:57:10Z</time>
      </trkpt>
      <trkpt lat="43.40959" lon="6.65118">
        <ele>340.4</ele>
        <time>2025-01-19T11:57:11Z</time>
      </trkpt>
      <trkpt lat="43.40959" lon="6.65119">
        <ele>340.4</ele>
        <time>2025-01-19T11:57:12Z</time>
      </trkpt>
      <trkpt lat="43.40959" lon="6.65119">
        <ele>340.5</ele>
        <time>2025-01-19T11:57:13Z</time>
      </trkpt>
      <trkpt lat="43.40959" lon="6.65119">
        <ele>340.4</ele>
        <time>2025-01-19T11:57:14Z</time>
      </trkpt>
      <trkpt lat="43.40959" lon="6.65119">
        <ele>340.4</ele>
        <time>2025-01-19T11:57:15Z</time>
      </trkpt>
      <trkpt lat="43.40959" lon="6.65119">
        <ele>340.5</ele>
        <time>2025-01-19T11:57:16Z</time>
      </trkpt>
      <trkpt lat="43.40959" lon="6.65119">
        <ele>340.6</ele>
        <time>2025-01-19T11:57:17Z</time>
      </trkpt>
      <trkpt lat="43.40959" lon="6.65119">
        <ele>340.6</ele>
        <time>2025-01-19T11:57:18Z</time>
      </trkpt>
      <trkpt lat="43.40959" lon="6.65119">
        <ele>340.6</ele>
        <time>2025-01-19T11:57:19Z</time>
      </trkpt>
      <trkpt lat="43.40959" lon="6.65119">
        <ele>340.6</ele>
        <time>2025-01-19T11:57:20Z</time>
      </trkpt>
      <trkpt lat="43.40959" lon="6.65119">
        <ele>340.6</ele>
        <time>2025-01-19T11:57:21Z</time>
      </trkpt>
      <trkpt lat="43.40959" lon="6.65119">
        <ele>340.7</ele>
        <time>2025-01-19T11:57:22Z</time>
      </trkpt>
      <trkpt lat="43.40959" lon="6.65119">
        <ele>340.7</ele>
        <time>2025-01-19T11:57:23Z</time>
      </trkpt>
      <trkpt lat="43.4096" lon="6.65118">
        <ele>340.6</ele>
        <time>2025-01-19T11:57:24Z</time>
      </trkpt>
      <trkpt lat="43.4096" lon="6.65118">
        <ele>340.6</ele>
        <time>2025-01-19T11:57:25Z</time>
      </trkpt>
      <trkpt lat="43.4096" lon="6.65118">
        <ele>340.5</ele>
        <time>2025-01-19T11:57:26Z</time>
      </trkpt>
      <trkpt lat="43.4096" lon="6.65118">
        <ele>340.5</ele>
        <time>2025-01-19T11:57:27Z</time>
      </trkpt>
      <trkpt lat="43.4096" lon="6.65118">
        <ele>340.4</ele>
        <time>2025-01-19T11:57:28Z</time>
      </trkpt>
      <trkpt lat="43.4096" lon="6.65118">
        <ele>340.4</ele>
        <time>2025-01-19T11:57:29Z</time>
      </trkpt>
      <trkpt lat="43.4096" lon="6.65118">
        <ele>340.4</ele>
        <time>2025-01-19T11:57:30Z</time>
      </trkpt>
      <trkpt lat="43.4096" lon="6.65118">
        <ele>340.4</ele>
        <time>2025-01-19T11:57:31Z</time>
      </trkpt>
      <trkpt lat="43.4096" lon="6.65118">
        <ele>340.5</ele>
        <time>2025-01-19T11:57:32Z</time>
      </trkpt>
      <trkpt lat="43.4096" lon="6.65117">
        <ele>340.4</ele>
        <time>2025-01-19T11:57:33Z</time>
      </trkpt>
      <trkpt lat="43.4096" lon="6.65117">
        <ele>340.4</ele>
        <time>2025-01-19T11:57:34Z</time>
      </trkpt>
      <trkpt lat="43.4096" lon="6.65117">
        <ele>340.4</ele>
        <time>2025-01-19T11:57:35Z</time>
      </trkpt>
      <trkpt lat="43.4096" lon="6.65117">
        <ele>340.4</ele>
        <time>2025-01-19T11:57:36Z</time>
      </trkpt>
      <trkpt lat="43.4096" lon="6.65117">
        <ele>340.4</ele>
        <time>2025-01-19T11:57:37Z</time>
      </trkpt>
      <trkpt lat="43.4096" lon="6.65117">
        <ele>340.5</ele>
        <time>2025-01-19T11:57:38Z</time>
      </trkpt>
      <trkpt lat="43.4096" lon="6.65117">
        <ele>340.5</ele>
        <time>2025-01-19T11:57:39Z</time>
      </trkpt>
      <trkpt lat="43.4096" lon="6.65117">
        <ele>340.5</ele>
        <time>2025-01-19T11:57:40Z</time>
      </trkpt>
      <trkpt lat="43.4096" lon="6.65116">
        <ele>340.5</ele>
        <time>2025-01-19T11:57:41Z</time>
      </trkpt>
      <trkpt lat="43.4096" lon="6.65116">
        <ele>340.4</ele>
        <time>2025-01-19T11:57:42Z</time>
      </trkpt>
      <trkpt lat="43.4096" lon="6.65116">
        <ele>340.4</ele>
        <time>2025-01-19T11:57:43Z</time>
      </trkpt>
      <trkpt lat="43.4096" lon="6.65116">
        <ele>340.4</ele>
        <time>2025-01-19T11:57:44Z</time>
      </trkpt>
      <trkpt lat="43.4096" lon="6.65116">
        <ele>340.4</ele>
        <time>2025-01-19T11:57:45Z</time>
      </trkpt>
      <trkpt lat="43.4096" lon="6.65116">
        <ele>340.6</ele>
        <time>2025-01-19T11:57:46Z</time>
      </trkpt>
      <trkpt lat="43.4096" lon="6.65116">
        <ele>340.6</ele>
        <time>2025-01-19T11:57:47Z</time>
      </trkpt>
      <trkpt lat="43.4096" lon="6.65116">
        <ele>340.7</ele>
        <time>2025-01-19T11:57:48Z</time>
      </trkpt>
      <trkpt lat="43.4096" lon="6.65116">
        <ele>340.7</ele>
        <time>2025-01-19T11:57:49Z</time>
      </trkpt>
      <trkpt lat="43.4096" lon="6.65115">
        <ele>340.7</ele>
        <time>2025-01-19T11:57:50Z</time>
      </trkpt>
      <trkpt lat="43.40961" lon="6.65115">
        <ele>340.7</ele>
        <time>2025-01-19T11:57:51Z</time>
      </trkpt>
      <trkpt lat="43.40961" lon="6.65115">
        <ele>340.6</ele>
        <time>2025-01-19T11:57:52Z</time>
      </trkpt>
      <trkpt lat="43.40961" lon="6.65115">
        <ele>340.6</ele>
        <time>2025-01-19T11:57:53Z</time>
      </trkpt>
      <trkpt lat="43.40961" lon="6.65115">
        <ele>340.5</ele>
        <time>2025-01-19T11:57:54Z</time>
      </trkpt>
      <trkpt lat="43.40961" lon="6.65115">
        <ele>340.5</ele>
        <time>2025-01-19T11:57:55Z</time>
      </trkpt>
      <trkpt lat="43.40961" lon="6.65115">
        <ele>340.5</ele>
        <time>2025-01-19T11:57:56Z</time>
      </trkpt>
      <trkpt lat="43.40961" lon="6.65115">
        <ele>340.6</ele>
        <time>2025-01-19T11:57:57Z</time>
      </trkpt>
      <trkpt lat="43.40961" lon="6.65115">
        <ele>340.6</ele>
        <time>2025-01-19T11:57:58Z</time>
      </trkpt>
      <trkpt lat="43.40961" lon="6.65115">
        <ele>340.6</ele>
        <time>2025-01-19T11:57:59Z</time>
      </trkpt>
      <trkpt lat="43.40961" lon="6.65115">
        <ele>340.5</ele>
        <time>2025-01-19T11:58:00Z</time>
      </trkpt>
      <trkpt lat="43.40961" lon="6.65115">
        <ele>340.5</ele>
        <time>2025-01-19T11:58:01Z</time>
      </trkpt>
      <trkpt lat="43.40961" lon="6.65114">
        <ele>340.4</ele>
        <time>2025-01-19T11:58:02Z</time>
      </trkpt>
      <trkpt lat="43.40961" lon="6.65114">
        <ele>340.4</ele>
        <time>2025-01-19T11:58:03Z</time>
      </trkpt>
      <trkpt lat="43.40961" lon="6.65114">
        <ele>340.4</ele>
        <time>2025-01-19T11:58:04Z</time>
      </trkpt>
      <trkpt lat="43.40961" lon="6.65114">
        <ele>340.4</ele>
        <time>2025-01-19T11:58:05Z</time>
      </trkpt>
      <trkpt lat="43.40961" lon="6.65114">
        <ele>340.4</ele>
        <time>2025-01-19T11:58:06Z</time>
      </trkpt>
      <trkpt lat="43.40961" lon="6.65114">
        <ele>340.4</ele>
        <time>2025-01-19T11:58:07Z</time>
      </trkpt>
      <trkpt lat="43.40961" lon="6.65114">
        <ele>340.5</ele>
        <time>2025-01-19T11:58:08Z</time>
      </trkpt>
      <trkpt lat="43.40961" lon="6.65114">
        <ele>340.5</ele>
        <time>2025-01-19T11:58:09Z</time>
      </trkpt>
      <trkpt lat="43.40961" lon="6.65114">
        <ele>340.5</ele>
        <time>2025-01-19T11:58:10Z</time>
      </trkpt>
      <trkpt lat="43.40961" lon="6.65114">
        <ele>340.4</ele>
        <time>2025-01-19T11:58:11Z</time>
      </trkpt>
      <trkpt lat="43.40961" lon="6.65114">
        <ele>340.4</ele>
        <time>2025-01-19T11:58:12Z</time>
      </trkpt>
      <trkpt lat="43.40961" lon="6.65114">
        <ele>340.4</ele>
        <time>2025-01-19T11:58:13Z</time>
      </trkpt>
      <trkpt lat="43.40961" lon="6.65114">
        <ele>340.4</ele>
        <time>2025-01-19T11:58:14Z</time>
      </trkpt>
      <trkpt lat="43.40961" lon="6.65114">
        <ele>340.4</ele>
        <time>2025-01-19T11:58:15Z</time>
      </trkpt>
      <trkpt lat="43.40961" lon="6.65114">
        <ele>340.4</ele>
        <time>2025-01-19T11:58:16Z</time>
      </trkpt>
      <trkpt lat="43.40961" lon="6.65114">
        <ele>340.5</ele>
        <time>2025-01-19T11:58:17Z</time>
      </trkpt>
      <trkpt lat="43.40961" lon="6.65114">
        <ele>340.4</ele>
        <time>2025-01-19T11:58:18Z</time>
      </trkpt>
      <trkpt lat="43.40961" lon="6.65114">
        <ele>340.4</ele>
        <time>2025-01-19T11:58:19Z</time>
      </trkpt>
      <trkpt lat="43.40961" lon="6.65114">
        <ele>340.4</ele>
        <time>2025-01-19T11:58:20Z</time>
      </trkpt>
      <trkpt lat="43.40961" lon="6.65114">
        <ele>340.4</ele>
        <time>2025-01-19T11:58:21Z</time>
      </trkpt>
      <trkpt lat="43.40961" lon="6.65114">
        <ele>340.4</ele>
        <time>2025-01-19T11:58:22Z</time>
      </trkpt>
      <trkpt lat="43.40961" lon="6.65114">
        <ele>340.4</ele>
        <time>2025-01-19T11:58:23Z</time>
      </trkpt>
      <trkpt lat="43.40961" lon="6.65114">
        <ele>340.4</ele>
        <time>2025-01-19T11:58:24Z</time>
      </trkpt>
      <trkpt lat="43.40962" lon="6.65114">
        <ele>340.5</ele>
        <time>2025-01-19T11:58:25Z</time>
      </trkpt>
      <trkpt lat="43.40962" lon="6.65114">
        <ele>340.5</ele>
        <time>2025-01-19T11:58:26Z</time>
      </trkpt>
      <trkpt lat="43.40962" lon="6.65114">
        <ele>340.5</ele>
        <time>2025-01-19T11:58:27Z</time>
      </trkpt>
      <trkpt lat="43.40962" lon="6.65114">
        <ele>340.5</ele>
        <time>2025-01-19T11:58:28Z</time>
      </trkpt>
      <trkpt lat="43.40962" lon="6.65114">
        <ele>340.5</ele>
        <time>2025-01-19T11:58:29Z</time>
      </trkpt>
      <trkpt lat="43.40962" lon="6.65114">
        <ele>340.5</ele>
        <time>2025-01-19T11:58:30Z</time>
      </trkpt>
      <trkpt lat="43.40962" lon="6.65114">
        <ele>340.4</ele>
        <time>2025-01-19T11:58:31Z</time>
      </trkpt>
      <trkpt lat="43.40962" lon="6.65114">
        <ele>340.5</ele>
        <time>2025-01-19T11:58:32Z</time>
      </trkpt>
      <trkpt lat="43.40962" lon="6.65114">
        <ele>340.4</ele>
        <time>2025-01-19T11:58:33Z</time>
      </trkpt>
      <trkpt lat="43.40962" lon="6.65114">
        <ele>340.3</ele>
        <time>2025-01-19T11:58:34Z</time>
      </trkpt>
      <trkpt lat="43.40962" lon="6.65114">
        <ele>340.3</ele>
        <time>2025-01-19T11:58:35Z</time>
      </trkpt>
      <trkpt lat="43.40962" lon="6.65114">
        <ele>340.3</ele>
        <time>2025-01-19T11:58:36Z</time>
      </trkpt>
      <trkpt lat="43.40962" lon="6.65114">
        <ele>340.2</ele>
        <time>2025-01-19T11:58:37Z</time>
      </trkpt>
      <trkpt lat="43.40962" lon="6.65114">
        <ele>340.2</ele>
        <time>2025-01-19T11:58:38Z</time>
      </trkpt>
      <trkpt lat="43.40962" lon="6.65114">
        <ele>340.1</ele>
        <time>2025-01-19T11:58:39Z</time>
      </trkpt>
      <trkpt lat="43.40962" lon="6.65114">
        <ele>340.1</ele>
        <time>2025-01-19T11:58:40Z</time>
      </trkpt>
      <trkpt lat="43.40962" lon="6.65114">
        <ele>340.1</ele>
        <time>2025-01-19T11:58:41Z</time>
      </trkpt>
      <trkpt lat="43.40962" lon="6.65114">
        <ele>340</ele>
        <time>2025-01-19T11:58:42Z</time>
      </trkpt>
      <trkpt lat="43.40962" lon="6.65114">
        <ele>340</ele>
        <time>2025-01-19T11:58:43Z</time>
      </trkpt>
      <trkpt lat="43.40962" lon="6.65114">
        <ele>340</ele>
        <time>2025-01-19T11:58:44Z</time>
      </trkpt>
      <trkpt lat="43.40962" lon="6.65114">
        <ele>340</ele>
        <time>2025-01-19T11:58:45Z</time>
      </trkpt>
      <trkpt lat="43.40962" lon="6.65114">
        <ele>340.1</ele>
        <time>2025-01-19T11:58:46Z</time>
      </trkpt>
      <trkpt lat="43.40962" lon="6.65114">
        <ele>340.1</ele>
        <time>2025-01-19T11:58:47Z</time>
      </trkpt>
      <trkpt lat="43.40962" lon="6.65114">
        <ele>340.1</ele>
        <time>2025-01-19T11:58:48Z</time>
      </trkpt>
      <trkpt lat="43.40962" lon="6.65114">
        <ele>340.1</ele>
        <time>2025-01-19T11:58:49Z</time>
      </trkpt>
      <trkpt lat="43.40962" lon="6.65114">
        <ele>340.1</ele>
        <time>2025-01-19T11:58:50Z</time>
      </trkpt>
      <trkpt lat="43.40962" lon="6.65114">
        <ele>340.2</ele>
        <time>2025-01-19T11:58:51Z</time>
      </trkpt>
      <trkpt lat="43.40962" lon="6.65114">
        <ele>340.2</ele>
        <time>2025-01-19T11:58:52Z</time>
      </trkpt>
      <trkpt lat="43.40962" lon="6.65114">
        <ele>340.2</ele>
        <time>2025-01-19T11:58:53Z</time>
      </trkpt>
      <trkpt lat="43.40962" lon="6.65114">
        <ele>340.1</ele>
        <time>2025-01-19T11:58:54Z</time>
      </trkpt>
      <trkpt lat="43.40962" lon="6.65114">
        <ele>340.2</ele>
        <time>2025-01-19T11:58:55Z</time>
      </trkpt>
      <trkpt lat="43.40962" lon="6.65114">
        <ele>340.2</ele>
        <time>2025-01-19T11:58:56Z</time>
      </trkpt>
      <trkpt lat="43.40962" lon="6.65114">
        <ele>340.2</ele>
        <time>2025-01-19T11:58:57Z</time>
      </trkpt>
      <trkpt lat="43.40962" lon="6.65114">
        <ele>340.2</ele>
        <time>2025-01-19T11:58:58Z</time>
      </trkpt>
      <trkpt lat="43.40962" lon="6.65114">
        <ele>340.1</ele>
        <time>2025-01-19T11:58:59Z</time>
      </trkpt>
      <trkpt lat="43.40962" lon="6.65114">
        <ele>340.1</ele>
        <time>2025-01-19T11:59:00Z</time>
      </trkpt>
      <trkpt lat="43.40962" lon="6.65114">
        <ele>340</ele>
        <time>2025-01-19T11:59:01Z</time>
      </trkpt>
      <trkpt lat="43.40962" lon="6.65114">
        <ele>340.1</ele>
        <time>2025-01-19T11:59:02Z</time>
      </trkpt>
      <trkpt lat="43.40962" lon="6.65114">
        <ele>340.1</ele>
        <time>2025-01-19T11:59:03Z</time>
      </trkpt>
      <trkpt lat="43.40962" lon="6.65114">
        <ele>340.1</ele>
        <time>2025-01-19T11:59:04Z</time>
      </trkpt>
      <trkpt lat="43.40962" lon="6.65114">
        <ele>340.2</ele>
        <time>2025-01-19T11:59:05Z</time>
      </trkpt>
      <trkpt lat="43.40962" lon="6.65114">
        <ele>340.2</ele>
        <time>2025-01-19T11:59:06Z</time>
      </trkpt>
      <trkpt lat="43.40962" lon="6.65114">
        <ele>340.2</ele>
        <time>2025-01-19T11:59:07Z</time>
      </trkpt>
      <trkpt lat="43.40962" lon="6.65114">
        <ele>340.3</ele>
        <time>2025-01-19T11:59:08Z</time>
      </trkpt>
      <trkpt lat="43.40962" lon="6.65114">
        <ele>340.4</ele>
        <time>2025-01-19T11:59:09Z</time>
      </trkpt>
      <trkpt lat="43.40962" lon="6.65114">
        <ele>340.5</ele>
        <time>2025-01-19T11:59:10Z</time>
      </trkpt>
      <trkpt lat="43.40962" lon="6.65114">
        <ele>340.5</ele>
        <time>2025-01-19T11:59:11Z</time>
      </trkpt>
      <trkpt lat="43.40962" lon="6.65114">
        <ele>340.5</ele>
        <time>2025-01-19T11:59:12Z</time>
      </trkpt>
      <trkpt lat="43.40962" lon="6.65114">
        <ele>340.5</ele>
        <time>2025-01-19T11:59:13Z</time>
      </trkpt>
      <trkpt lat="43.40962" lon="6.65114">
        <ele>340.5</ele>
        <time>2025-01-19T11:59:14Z</time>
      </trkpt>
      <trkpt lat="43.40962" lon="6.65114">
        <ele>340.5</ele>
        <time>2025-01-19T11:59:15Z</time>
      </trkpt>
      <trkpt lat="43.40962" lon="6.65114">
        <ele>340.5</ele>
        <time>2025-01-19T11:59:16Z</time>
      </trkpt>
      <trkpt lat="43.40962" lon="6.65114">
        <ele>340.6</ele>
        <time>2025-01-19T11:59:17Z</time>
      </trkpt>
      <trkpt lat="43.40962" lon="6.65114">
        <ele>340.6</ele>
        <time>2025-01-19T11:59:18Z</time>
      </trkpt>
      <trkpt lat="43.40962" lon="6.65114">
        <ele>340.6</ele>
        <time>2025-01-19T11:59:19Z</time>
      </trkpt>
      <trkpt lat="43.40962" lon="6.65114">
        <ele>340.6</ele>
        <time>2025-01-19T11:59:20Z</time>
      </trkpt>
      <trkpt lat="43.40962" lon="6.65114">
        <ele>340.5</ele>
        <time>2025-01-19T11:59:21Z</time>
      </trkpt>
      <trkpt lat="43.40962" lon="6.65114">
        <ele>340.5</ele>
        <time>2025-01-19T11:59:22Z</time>
      </trkpt>
      <trkpt lat="43.40962" lon="6.65114">
        <ele>340.6</ele>
        <time>2025-01-19T11:59:23Z</time>
      </trkpt>
      <trkpt lat="43.40962" lon="6.65113">
        <ele>340.6</ele>
        <time>2025-01-19T11:59:24Z</time>
      </trkpt>
      <trkpt lat="43.40962" lon="6.65113">
        <ele>340.6</ele>
        <time>2025-01-19T11:59:25Z</time>
      </trkpt>
      <trkpt lat="43.40962" lon="6.65113">
        <ele>340.6</ele>
        <time>2025-01-19T11:59:26Z</time>
      </trkpt>
      <trkpt lat="43.40962" lon="6.65113">
        <ele>340.6</ele>
        <time>2025-01-19T11:59:27Z</time>
      </trkpt>
      <trkpt lat="43.40962" lon="6.65113">
        <ele>340.7</ele>
        <time>2025-01-19T11:59:28Z</time>
      </trkpt>
      <trkpt lat="43.40962" lon="6.65113">
        <ele>340.7</ele>
        <time>2025-01-19T11:59:29Z</time>
      </trkpt>
      <trkpt lat="43.40962" lon="6.65113">
        <ele>340.7</ele>
        <time>2025-01-19T11:59:30Z</time>
      </trkpt>
      <trkpt lat="43.40962" lon="6.65113">
        <ele>340.7</ele>
        <time>2025-01-19T11:59:31Z</time>
      </trkpt>
      <trkpt lat="43.40962" lon="6.65113">
        <ele>340.7</ele>
        <time>2025-01-19T11:59:32Z</time>
      </trkpt>
      <trkpt lat="43.40962" lon="6.65113">
        <ele>340.6</ele>
        <time>2025-01-19T11:59:33Z</time>
      </trkpt>
      <trkpt lat="43.40962" lon="6.65113">
        <ele>340.6</ele>
        <time>2025-01-19T11:59:34Z</time>
      </trkpt>
      <trkpt lat="43.40962" lon="6.65113">
        <ele>340.5</ele>
        <time>2025-01-19T11:59:35Z</time>
      </trkpt>
      <trkpt lat="43.40962" lon="6.65113">
        <ele>340.4</ele>
        <time>2025-01-19T11:59:36Z</time>
      </trkpt>
      <trkpt lat="43.40962" lon="6.65113">
        <ele>340.4</ele>
        <time>2025-01-19T11:59:37Z</time>
      </trkpt>
      <trkpt lat="43.40962" lon="6.65113">
        <ele>340.4</ele>
        <time>2025-01-19T11:59:38Z</time>
      </trkpt>
      <trkpt lat="43.40962" lon="6.65113">
        <ele>340.4</ele>
        <time>2025-01-19T11:59:39Z</time>
      </trkpt>
      <trkpt lat="43.40962" lon="6.65113">
        <ele>340.4</ele>
        <time>2025-01-19T11:59:40Z</time>
      </trkpt>
      <trkpt lat="43.40962" lon="6.65113">
        <ele>340.4</ele>
        <time>2025-01-19T11:59:41Z</time>
      </trkpt>
      <trkpt lat="43.40962" lon="6.65113">
        <ele>340.4</ele>
        <time>2025-01-19T11:59:42Z</time>
      </trkpt>
      <trkpt lat="43.40962" lon="6.65113">
        <ele>340.4</ele>
        <time>2025-01-19T11:59:43Z</time>
      </trkpt>
      <trkpt lat="43.40962" lon="6.65113">
        <ele>340.5</ele>
        <time>2025-01-19T11:59:44Z</time>
      </trkpt>
      <trkpt lat="43.40962" lon="6.65113">
        <ele>340.5</ele>
        <time>2025-01-19T11:59:45Z</time>
      </trkpt>
      <trkpt lat="43.40962" lon="6.65113">
        <ele>340.5</ele>
        <time>2025-01-19T11:59:46Z</time>
      </trkpt>
      <trkpt lat="43.40962" lon="6.65113">
        <ele>340.6</ele>
        <time>2025-01-19T11:59:47Z</time>
      </trkpt>
      <trkpt lat="43.40962" lon="6.65113">
        <ele>340.6</ele>
        <time>2025-01-19T11:59:48Z</time>
      </trkpt>
      <trkpt lat="43.40962" lon="6.65113">
        <ele>340.7</ele>
        <time>2025-01-19T11:59:49Z</time>
      </trkpt>
      <trkpt lat="43.40962" lon="6.65113">
        <ele>340.6</ele>
        <time>2025-01-19T11:59:50Z</time>
      </trkpt>
      <trkpt lat="43.40962" lon="6.65113">
        <ele>340.6</ele>
        <time>2025-01-19T11:59:51Z</time>
      </trkpt>
      <trkpt lat="43.40962" lon="6.65113">
        <ele>340.6</ele>
        <time>2025-01-19T11:59:52Z</time>
      </trkpt>
      <trkpt lat="43.40962" lon="6.65114">
        <ele>340.6</ele>
        <time>2025-01-19T11:59:53Z</time>
      </trkpt>
      <trkpt lat="43.40962" lon="6.65114">
        <ele>340.5</ele>
        <time>2025-01-19T11:59:54Z</time>
      </trkpt>
      <trkpt lat="43.40961" lon="6.65114">
        <ele>340.6</ele>
        <time>2025-01-19T11:59:55Z</time>
      </trkpt>
      <trkpt lat="43.40961" lon="6.65114">
        <ele>340.6</ele>
        <time>2025-01-19T11:59:56Z</time>
      </trkpt>
      <trkpt lat="43.40961" lon="6.65114">
        <ele>340.5</ele>
        <time>2025-01-19T11:59:57Z</time>
      </trkpt>
      <trkpt lat="43.40961" lon="6.65114">
        <ele>340.5</ele>
        <time>2025-01-19T11:59:58Z</time>
      </trkpt>
      <trkpt lat="43.40961" lon="6.65114">
        <ele>340.6</ele>
        <time>2025-01-19T11:59:59Z</time>
      </trkpt>
      <trkpt lat="43.40961" lon="6.65114">
        <ele>340.5</ele>
        <time>2025-01-19T12:00:00Z</time>
      </trkpt>
      <trkpt lat="43.40961" lon="6.65114">
        <ele>340.5</ele>
        <time>2025-01-19T12:00:01Z</time>
      </trkpt>
      <trkpt lat="43.40961" lon="6.65114">
        <ele>340.4</ele>
        <time>2025-01-19T12:00:02Z</time>
      </trkpt>
      <trkpt lat="43.40961" lon="6.65114">
        <ele>340.4</ele>
        <time>2025-01-19T12:00:03Z</time>
      </trkpt>
      <trkpt lat="43.40961" lon="6.65114">
        <ele>340.4</ele>
        <time>2025-01-19T12:00:04Z</time>
      </trkpt>
      <trkpt lat="43.40961" lon="6.65114">
        <ele>340.4</ele>
        <time>2025-01-19T12:00:05Z</time>
      </trkpt>
      <trkpt lat="43.40961" lon="6.65114">
        <ele>340.4</ele>
        <time>2025-01-19T12:00:06Z</time>
      </trkpt>
      <trkpt lat="43.40961" lon="6.65114">
        <ele>340.3</ele>
        <time>2025-01-19T12:00:07Z</time>
      </trkpt>
      <trkpt lat="43.40961" lon="6.65114">
        <ele>340.3</ele>
        <time>2025-01-19T12:00:08Z</time>
      </trkpt>
      <trkpt lat="43.40961" lon="6.65114">
        <ele>340.3</ele>
        <time>2025-01-19T12:00:09Z</time>
      </trkpt>
      <trkpt lat="43.40961" lon="6.65114">
        <ele>340.4</ele>
        <time>2025-01-19T12:00:10Z</time>
      </trkpt>
      <trkpt lat="43.40961" lon="6.65114">
        <ele>340.4</ele>
        <time>2025-01-19T12:00:11Z</time>
      </trkpt>
      <trkpt lat="43.40961" lon="6.65114">
        <ele>340.3</ele>
        <time>2025-01-19T12:00:12Z</time>
      </trkpt>
      <trkpt lat="43.40961" lon="6.65114">
        <ele>340.3</ele>
        <time>2025-01-19T12:00:13Z</time>
      </trkpt>
      <trkpt lat="43.40961" lon="6.65114">
        <ele>340.2</ele>
        <time>2025-01-19T12:00:14Z</time>
      </trkpt>
      <trkpt lat="43.4096" lon="6.65114">
        <ele>340.2</ele>
        <time>2025-01-19T12:00:15Z</time>
      </trkpt>
      <trkpt lat="43.4096" lon="6.65114">
        <ele>340.3</ele>
        <time>2025-01-19T12:00:16Z</time>
      </trkpt>
      <trkpt lat="43.4096" lon="6.65114">
        <ele>340.3</ele>
        <time>2025-01-19T12:00:17Z</time>
      </trkpt>
      <trkpt lat="43.4096" lon="6.65114">
        <ele>340.3</ele>
        <time>2025-01-19T12:00:18Z</time>
      </trkpt>
      <trkpt lat="43.4096" lon="6.65114">
        <ele>340.3</ele>
        <time>2025-01-19T12:00:19Z</time>
      </trkpt>
      <trkpt lat="43.4096" lon="6.65114">
        <ele>340.3</ele>
        <time>2025-01-19T12:00:20Z</time>
      </trkpt>
      <trkpt lat="43.4096" lon="6.65114">
        <ele>340.3</ele>
        <time>2025-01-19T12:00:21Z</time>
      </trkpt>
      <trkpt lat="43.4096" lon="6.65114">
        <ele>340.3</ele>
        <time>2025-01-19T12:00:22Z</time>
      </trkpt>
      <trkpt lat="43.4096" lon="6.65114">
        <ele>340.3</ele>
        <time>2025-01-19T12:00:23Z</time>
      </trkpt>
      <trkpt lat="43.4096" lon="6.65114">
        <ele>340.3</ele>
        <time>2025-01-19T12:00:24Z</time>
      </trkpt>
      <trkpt lat="43.4096" lon="6.65114">
        <ele>340.3</ele>
        <time>2025-01-19T12:00:25Z</time>
      </trkpt>
      <trkpt lat="43.4096" lon="6.65114">
        <ele>340.2</ele>
        <time>2025-01-19T12:00:26Z</time>
      </trkpt>
      <trkpt lat="43.4096" lon="6.65114">
        <ele>340.2</ele>
        <time>2025-01-19T12:00:27Z</time>
      </trkpt>
      <trkpt lat="43.4096" lon="6.65114">
        <ele>340.2</ele>
        <time>2025-01-19T12:00:28Z</time>
      </trkpt>
      <trkpt lat="43.4096" lon="6.65114">
        <ele>340.3</ele>
        <time>2025-01-19T12:00:29Z</time>
      </trkpt>
      <trkpt lat="43.4096" lon="6.65114">
        <ele>340.3</ele>
        <time>2025-01-19T12:00:30Z</time>
      </trkpt>
      <trkpt lat="43.4096" lon="6.65114">
        <ele>340.4</ele>
        <time>2025-01-19T12:00:31Z</time>
      </trkpt>
      <trkpt lat="43.4096" lon="6.65114">
        <ele>340.4</ele>
        <time>2025-01-19T12:00:32Z</time>
      </trkpt>
      <trkpt lat="43.4096" lon="6.65115">
        <ele>340.5</ele>
        <time>2025-01-19T12:00:33Z</time>
      </trkpt>
      <trkpt lat="43.4096" lon="6.65115">
        <ele>340.5</ele>
        <time>2025-01-19T12:00:34Z</time>
      </trkpt>
      <trkpt lat="43.4096" lon="6.65115">
        <ele>340.6</ele>
        <time>2025-01-19T12:00:35Z</time>
      </trkpt>
      <trkpt lat="43.4096" lon="6.65115">
        <ele>340.5</ele>
        <time>2025-01-19T12:00:36Z</time>
      </trkpt>
      <trkpt lat="43.40959" lon="6.65115">
        <ele>340.5</ele>
        <time>2025-01-19T12:00:37Z</time>
      </trkpt>
      <trkpt lat="43.40959" lon="6.65115">
        <ele>340.4</ele>
        <time>2025-01-19T12:00:38Z</time>
      </trkpt>
      <trkpt lat="43.40959" lon="6.65115">
        <ele>340.4</ele>
        <time>2025-01-19T12:00:39Z</time>
      </trkpt>
      <trkpt lat="43.40959" lon="6.65115">
        <ele>340.4</ele>
        <time>2025-01-19T12:00:40Z</time>
      </trkpt>
      <trkpt lat="43.40959" lon="6.65115">
        <ele>340.4</ele>
        <time>2025-01-19T12:00:41Z</time>
      </trkpt>
      <trkpt lat="43.40959" lon="6.65115">
        <ele>340.4</ele>
        <time>2025-01-19T12:00:42Z</time>
      </trkpt>
      <trkpt lat="43.40959" lon="6.65115">
        <ele>340.3</ele>
        <time>2025-01-19T12:00:43Z</time>
      </trkpt>
      <trkpt lat="43.40959" lon="6.65115">
        <ele>340.3</ele>
        <time>2025-01-19T12:00:44Z</time>
      </trkpt>
      <trkpt lat="43.40959" lon="6.65115">
        <ele>340.2</ele>
        <time>2025-01-19T12:00:45Z</time>
      </trkpt>
      <trkpt lat="43.40959" lon="6.65115">
        <ele>340.2</ele>
        <time>2025-01-19T12:00:46Z</time>
      </trkpt>
      <trkpt lat="43.40959" lon="6.65115">
        <ele>340.2</ele>
        <time>2025-01-19T12:00:47Z</time>
      </trkpt>
      <trkpt lat="43.40959" lon="6.65115">
        <ele>340.2</ele>
        <time>2025-01-19T12:00:48Z</time>
      </trkpt>
      <trkpt lat="43.40959" lon="6.65115">
        <ele>340.2</ele>
        <time>2025-01-19T12:00:49Z</time>
      </trkpt>
      <trkpt lat="43.40959" lon="6.65115">
        <ele>340.2</ele>
        <time>2025-01-19T12:00:50Z</time>
      </trkpt>
      <trkpt lat="43.40959" lon="6.65115">
        <ele>340.2</ele>
        <time>2025-01-19T12:00:51Z</time>
      </trkpt>
      <trkpt lat="43.40959" lon="6.65115">
        <ele>340.2</ele>
        <time>2025-01-19T12:00:52Z</time>
      </trkpt>
      <trkpt lat="43.40959" lon="6.65114">
        <ele>340.2</ele>
        <time>2025-01-19T12:00:53Z</time>
      </trkpt>
      <trkpt lat="43.40959" lon="6.65114">
        <ele>340.2</ele>
        <time>2025-01-19T12:00:54Z</time>
      </trkpt>
      <trkpt lat="43.40959" lon="6.65115">
        <ele>340.3</ele>
        <time>2025-01-19T12:00:55Z</time>
      </trkpt>
      <trkpt lat="43.40959" lon="6.65115">
        <ele>340.3</ele>
        <time>2025-01-19T12:00:56Z</time>
      </trkpt>
      <trkpt lat="43.40959" lon="6.65115">
        <ele>340.3</ele>
        <time>2025-01-19T12:00:57Z</time>
      </trkpt>
      <trkpt lat="43.40959" lon="6.65115">
        <ele>340.3</ele>
        <time>2025-01-19T12:00:58Z</time>
      </trkpt>
      <trkpt lat="43.40959" lon="6.65115">
        <ele>340.3</ele>
        <time>2025-01-19T12:00:59Z</time>
      </trkpt>
      <trkpt lat="43.40959" lon="6.65115">
        <ele>340.3</ele>
        <time>2025-01-19T12:01:00Z</time>
      </trkpt>
      <trkpt lat="43.40959" lon="6.65115">
        <ele>340.3</ele>
        <time>2025-01-19T12:01:01Z</time>
      </trkpt>
      <trkpt lat="43.40959" lon="6.65115">
        <ele>340.3</ele>
        <time>2025-01-19T12:01:02Z</time>
      </trkpt>
      <trkpt lat="43.40959" lon="6.65115">
        <ele>340.3</ele>
        <time>2025-01-19T12:01:03Z</time>
      </trkpt>
      <trkpt lat="43.40959" lon="6.65115">
        <ele>340.3</ele>
        <time>2025-01-19T12:01:04Z</time>
      </trkpt>
      <trkpt lat="43.40959" lon="6.65116">
        <ele>340.4</ele>
        <time>2025-01-19T12:01:05Z</time>
      </trkpt>
      <trkpt lat="43.40958" lon="6.65116">
        <ele>340.4</ele>
        <time>2025-01-19T12:01:06Z</time>
      </trkpt>
      <trkpt lat="43.40958" lon="6.65116">
        <ele>340.4</ele>
        <time>2025-01-19T12:01:07Z</time>
      </trkpt>
      <trkpt lat="43.40958" lon="6.65116">
        <ele>340.5</ele>
        <time>2025-01-19T12:01:08Z</time>
      </trkpt>
      <trkpt lat="43.40958" lon="6.65116">
        <ele>340.5</ele>
        <time>2025-01-19T12:01:09Z</time>
      </trkpt>
      <trkpt lat="43.40958" lon="6.65116">
        <ele>340.5</ele>
        <time>2025-01-19T12:01:10Z</time>
      </trkpt>
      <trkpt lat="43.40958" lon="6.65116">
        <ele>340.6</ele>
        <time>2025-01-19T12:01:11Z</time>
      </trkpt>
      <trkpt lat="43.40958" lon="6.65117">
        <ele>340.6</ele>
        <time>2025-01-19T12:01:12Z</time>
      </trkpt>
      <trkpt lat="43.40958" lon="6.65117">
        <ele>340.6</ele>
        <time>2025-01-19T12:01:13Z</time>
      </trkpt>
      <trkpt lat="43.40958" lon="6.65117">
        <ele>340.5</ele>
        <time>2025-01-19T12:01:14Z</time>
      </trkpt>
      <trkpt lat="43.40958" lon="6.65117">
        <ele>340.5</ele>
        <time>2025-01-19T12:01:15Z</time>
      </trkpt>
      <trkpt lat="43.40958" lon="6.65117">
        <ele>340.5</ele>
        <time>2025-01-19T12:01:16Z</time>
      </trkpt>
      <trkpt lat="43.40958" lon="6.65117">
        <ele>340.5</ele>
        <time>2025-01-19T12:01:17Z</time>
      </trkpt>
      <trkpt lat="43.40958" lon="6.65116">
        <ele>340.5</ele>
        <time>2025-01-19T12:01:18Z</time>
      </trkpt>
      <trkpt lat="43.40958" lon="6.65116">
        <ele>340.5</ele>
        <time>2025-01-19T12:01:19Z</time>
      </trkpt>
      <trkpt lat="43.40958" lon="6.65116">
        <ele>340.5</ele>
        <time>2025-01-19T12:01:20Z</time>
      </trkpt>
      <trkpt lat="43.40958" lon="6.65116">
        <ele>340.5</ele>
        <time>2025-01-19T12:01:21Z</time>
      </trkpt>
      <trkpt lat="43.40958" lon="6.65116">
        <ele>340.6</ele>
        <time>2025-01-19T12:01:22Z</time>
      </trkpt>
      <trkpt lat="43.40958" lon="6.65116">
        <ele>340.6</ele>
        <time>2025-01-19T12:01:23Z</time>
      </trkpt>
      <trkpt lat="43.40958" lon="6.65116">
        <ele>340.6</ele>
        <time>2025-01-19T12:01:24Z</time>
      </trkpt>
      <trkpt lat="43.40958" lon="6.65115">
        <ele>340.6</ele>
        <time>2025-01-19T12:01:25Z</time>
      </trkpt>
      <trkpt lat="43.40958" lon="6.65115">
        <ele>340.6</ele>
        <time>2025-01-19T12:01:26Z</time>
      </trkpt>
      <trkpt lat="43.40958" lon="6.65115">
        <ele>340.5</ele>
        <time>2025-01-19T12:01:27Z</time>
      </trkpt>
      <trkpt lat="43.40958" lon="6.65115">
        <ele>340.5</ele>
        <time>2025-01-19T12:01:28Z</time>
      </trkpt>
      <trkpt lat="43.40958" lon="6.65115">
        <ele>340.5</ele>
        <time>2025-01-19T12:01:29Z</time>
      </trkpt>
      <trkpt lat="43.40959" lon="6.65115">
        <ele>340.5</ele>
        <time>2025-01-19T12:01:30Z</time>
      </trkpt>
      <trkpt lat="43.40959" lon="6.65115">
        <ele>340.5</ele>
        <time>2025-01-19T12:01:31Z</time>
      </trkpt>
      <trkpt lat="43.40959" lon="6.65115">
        <ele>340.5</ele>
        <time>2025-01-19T12:01:32Z</time>
      </trkpt>
      <trkpt lat="43.40959" lon="6.65115">
        <ele>340.6</ele>
        <time>2025-01-19T12:01:33Z</time>
      </trkpt>
      <trkpt lat="43.40959" lon="6.65115">
        <ele>340.6</ele>
        <time>2025-01-19T12:01:34Z</time>
      </trkpt>
      <trkpt lat="43.40959" lon="6.65115">
        <ele>340.6</ele>
        <time>2025-01-19T12:01:35Z</time>
      </trkpt>
      <trkpt lat="43.40959" lon="6.65115">
        <ele>340.7</ele>
        <time>2025-01-19T12:01:36Z</time>
      </trkpt>
      <trkpt lat="43.4096" lon="6.65115">
        <ele>340.6</ele>
        <time>2025-01-19T12:01:37Z</time>
      </trkpt>
      <trkpt lat="43.4096" lon="6.65115">
        <ele>340.6</ele>
        <time>2025-01-19T12:01:38Z</time>
      </trkpt>
      <trkpt lat="43.4096" lon="6.65115">
        <ele>340.6</ele>
        <time>2025-01-19T12:01:39Z</time>
      </trkpt>
      <trkpt lat="43.4096" lon="6.65115">
        <ele>340.6</ele>
        <time>2025-01-19T12:01:40Z</time>
      </trkpt>
      <trkpt lat="43.4096" lon="6.65115">
        <ele>340.6</ele>
        <time>2025-01-19T12:01:41Z</time>
      </trkpt>
      <trkpt lat="43.4096" lon="6.65115">
        <ele>340.5</ele>
        <time>2025-01-19T12:01:42Z</time>
      </trkpt>
      <trkpt lat="43.4096" lon="6.65115">
        <ele>340.5</ele>
        <time>2025-01-19T12:01:43Z</time>
      </trkpt>
      <trkpt lat="43.4096" lon="6.65115">
        <ele>340.5</ele>
        <time>2025-01-19T12:01:44Z</time>
      </trkpt>
      <trkpt lat="43.4096" lon="6.65115">
        <ele>340.5</ele>
        <time>2025-01-19T12:01:45Z</time>
      </trkpt>
      <trkpt lat="43.40961" lon="6.65115">
        <ele>340.5</ele>
        <time>2025-01-19T12:01:46Z</time>
      </trkpt>
      <trkpt lat="43.40961" lon="6.65115">
        <ele>340.5</ele>
        <time>2025-01-19T12:01:47Z</time>
      </trkpt>
      <trkpt lat="43.40961" lon="6.65115">
        <ele>340.5</ele>
        <time>2025-01-19T12:01:48Z</time>
      </trkpt>
      <trkpt lat="43.40961" lon="6.65115">
        <ele>340.5</ele>
        <time>2025-01-19T12:01:49Z</time>
      </trkpt>
      <trkpt lat="43.40961" lon="6.65115">
        <ele>340.5</ele>
        <time>2025-01-19T12:01:50Z</time>
      </trkpt>
      <trkpt lat="43.40961" lon="6.65115">
        <ele>340.5</ele>
        <time>2025-01-19T12:01:51Z</time>
      </trkpt>
      <trkpt lat="43.40961" lon="6.65115">
        <ele>340.6</ele>
        <time>2025-01-19T12:01:52Z</time>
      </trkpt>
      <trkpt lat="43.40961" lon="6.65115">
        <ele>340.6</ele>
        <time>2025-01-19T12:01:53Z</time>
      </trkpt>
      <trkpt lat="43.40961" lon="6.65115">
        <ele>340.5</ele>
        <time>2025-01-19T12:01:54Z</time>
      </trkpt>
      <trkpt lat="43.40961" lon="6.65115">
        <ele>340.5</ele>
        <time>2025-01-19T12:01:55Z</time>
      </trkpt>
      <trkpt lat="43.40961" lon="6.65115">
        <ele>340.5</ele>
        <time>2025-01-19T12:01:56Z</time>
      </trkpt>
      <trkpt lat="43.40961" lon="6.65115">
        <ele>340.5</ele>
        <time>2025-01-19T12:01:57Z</time>
      </trkpt>
      <trkpt lat="43.40961" lon="6.65115">
        <ele>340.4</ele>
        <time>2025-01-19T12:01:58Z</time>
      </trkpt>
      <trkpt lat="43.40961" lon="6.65115">
        <ele>340.4</ele>
        <time>2025-01-19T12:01:59Z</time>
      </trkpt>
      <trkpt lat="43.40961" lon="6.65115">
        <ele>340.3</ele>
        <time>2025-01-19T12:02:00Z</time>
      </trkpt>
      <trkpt lat="43.40961" lon="6.65115">
        <ele>340.3</ele>
        <time>2025-01-19T12:02:01Z</time>
      </trkpt>
      <trkpt lat="43.40961" lon="6.65115">
        <ele>340.3</ele>
        <time>2025-01-19T12:02:02Z</time>
      </trkpt>
      <trkpt lat="43.40961" lon="6.65115">
        <ele>340.3</ele>
        <time>2025-01-19T12:02:03Z</time>
      </trkpt>
      <trkpt lat="43.40961" lon="6.65115">
        <ele>340.3</ele>
        <time>2025-01-19T12:02:04Z</time>
      </trkpt>
      <trkpt lat="43.40961" lon="6.65116">
        <ele>340.3</ele>
        <time>2025-01-19T12:02:05Z</time>
      </trkpt>
      <trkpt lat="43.40961" lon="6.65116">
        <ele>340.3</ele>
        <time>2025-01-19T12:02:06Z</time>
      </trkpt>
      <trkpt lat="43.40961" lon="6.65116">
        <ele>340.2</ele>
        <time>2025-01-19T12:02:07Z</time>
      </trkpt>
      <trkpt lat="43.40961" lon="6.65116">
        <ele>340.3</ele>
        <time>2025-01-19T12:02:08Z</time>
      </trkpt>
      <trkpt lat="43.40961" lon="6.65116">
        <ele>340.3</ele>
        <time>2025-01-19T12:02:09Z</time>
      </trkpt>
      <trkpt lat="43.40961" lon="6.65116">
        <ele>340.3</ele>
        <time>2025-01-19T12:02:10Z</time>
      </trkpt>
      <trkpt lat="43.40961" lon="6.65116">
        <ele>340.4</ele>
        <time>2025-01-19T12:02:11Z</time>
      </trkpt>
      <trkpt lat="43.40961" lon="6.65116">
        <ele>340.4</ele>
        <time>2025-01-19T12:02:12Z</time>
      </trkpt>
      <trkpt lat="43.40961" lon="6.65116">
        <ele>340.4</ele>
        <time>2025-01-19T12:02:13Z</time>
      </trkpt>
      <trkpt lat="43.40961" lon="6.65116">
        <ele>340.4</ele>
        <time>2025-01-19T12:02:14Z</time>
      </trkpt>
      <trkpt lat="43.40961" lon="6.65116">
        <ele>340.4</ele>
        <time>2025-01-19T12:02:15Z</time>
      </trkpt>
      <trkpt lat="43.40961" lon="6.65116">
        <ele>340.4</ele>
        <time>2025-01-19T12:02:16Z</time>
      </trkpt>
      <trkpt lat="43.40961" lon="6.65116">
        <ele>340.4</ele>
        <time>2025-01-19T12:02:17Z</time>
      </trkpt>
      <trkpt lat="43.40961" lon="6.65117">
        <ele>340.4</ele>
        <time>2025-01-19T12:02:18Z</time>
      </trkpt>
      <trkpt lat="43.40961" lon="6.65116">
        <ele>340.4</ele>
        <time>2025-01-19T12:02:19Z</time>
      </trkpt>
      <trkpt lat="43.40961" lon="6.65117">
        <ele>340.3</ele>
        <time>2025-01-19T12:02:20Z</time>
      </trkpt>
      <trkpt lat="43.40961" lon="6.65117">
        <ele>340.3</ele>
        <time>2025-01-19T12:02:21Z</time>
      </trkpt>
      <trkpt lat="43.40961" lon="6.65117">
        <ele>340.4</ele>
        <time>2025-01-19T12:02:22Z</time>
      </trkpt>
      <trkpt lat="43.40961" lon="6.65117">
        <ele>340.3</ele>
        <time>2025-01-19T12:02:23Z</time>
      </trkpt>
      <trkpt lat="43.40961" lon="6.65117">
        <ele>340.2</ele>
        <time>2025-01-19T12:02:24Z</time>
      </trkpt>
      <trkpt lat="43.40961" lon="6.65117">
        <ele>340.1</ele>
        <time>2025-01-19T12:02:25Z</time>
      </trkpt>
      <trkpt lat="43.40961" lon="6.65117">
        <ele>340.1</ele>
        <time>2025-01-19T12:02:26Z</time>
      </trkpt>
      <trkpt lat="43.40961" lon="6.65117">
        <ele>340.1</ele>
        <time>2025-01-19T12:02:27Z</time>
      </trkpt>
      <trkpt lat="43.40961" lon="6.65116">
        <ele>340.1</ele>
        <time>2025-01-19T12:02:28Z</time>
      </trkpt>
      <trkpt lat="43.40961" lon="6.65116">
        <ele>340.1</ele>
        <time>2025-01-19T12:02:29Z</time>
      </trkpt>
      <trkpt lat="43.40961" lon="6.65116">
        <ele>340</ele>
        <time>2025-01-19T12:02:30Z</time>
      </trkpt>
      <trkpt lat="43.40961" lon="6.65116">
        <ele>340</ele>
        <time>2025-01-19T12:02:31Z</time>
      </trkpt>
      <trkpt lat="43.40961" lon="6.65116">
        <ele>340</ele>
        <time>2025-01-19T12:02:32Z</time>
      </trkpt>
      <trkpt lat="43.40961" lon="6.65116">
        <ele>340.1</ele>
        <time>2025-01-19T12:02:33Z</time>
      </trkpt>
      <trkpt lat="43.40961" lon="6.65116">
        <ele>340.1</ele>
        <time>2025-01-19T12:02:34Z</time>
      </trkpt>
      <trkpt lat="43.40961" lon="6.65116">
        <ele>340.2</ele>
        <time>2025-01-19T12:02:35Z</time>
      </trkpt>
      <trkpt lat="43.4096" lon="6.65116">
        <ele>340.2</ele>
        <time>2025-01-19T12:02:36Z</time>
      </trkpt>
      <trkpt lat="43.4096" lon="6.65116">
        <ele>340.3</ele>
        <time>2025-01-19T12:02:37Z</time>
      </trkpt>
      <trkpt lat="43.4096" lon="6.65116">
        <ele>340.3</ele>
        <time>2025-01-19T12:02:38Z</time>
      </trkpt>
      <trkpt lat="43.4096" lon="6.65116">
        <ele>340.3</ele>
        <time>2025-01-19T12:02:39Z</time>
      </trkpt>
      <trkpt lat="43.4096" lon="6.65116">
        <ele>340.4</ele>
        <time>2025-01-19T12:02:40Z</time>
      </trkpt>
      <trkpt lat="43.4096" lon="6.65116">
        <ele>340.3</ele>
        <time>2025-01-19T12:02:41Z</time>
      </trkpt>
      <trkpt lat="43.4096" lon="6.65116">
        <ele>340.3</ele>
        <time>2025-01-19T12:02:42Z</time>
      </trkpt>
      <trkpt lat="43.4096" lon="6.65116">
        <ele>340.3</ele>
        <time>2025-01-19T12:02:43Z</time>
      </trkpt>
      <trkpt lat="43.4096" lon="6.65116">
        <ele>340.3</ele>
        <time>2025-01-19T12:02:44Z</time>
      </trkpt>
      <trkpt lat="43.4096" lon="6.65116">
        <ele>340.3</ele>
        <time>2025-01-19T12:02:45Z</time>
      </trkpt>
      <trkpt lat="43.4096" lon="6.65116">
        <ele>340.3</ele>
        <time>2025-01-19T12:02:46Z</time>
      </trkpt>
      <trkpt lat="43.4096" lon="6.65116">
        <ele>340.3</ele>
        <time>2025-01-19T12:02:47Z</time>
      </trkpt>
      <trkpt lat="43.4096" lon="6.65116">
        <ele>340.3</ele>
        <time>2025-01-19T12:02:48Z</time>
      </trkpt>
      <trkpt lat="43.4096" lon="6.65116">
        <ele>340.3</ele>
        <time>2025-01-19T12:02:49Z</time>
      </trkpt>
      <trkpt lat="43.4096" lon="6.65116">
        <ele>340.4</ele>
        <time>2025-01-19T12:02:50Z</time>
      </trkpt>
      <trkpt lat="43.4096" lon="6.65116">
        <ele>340.5</ele>
        <time>2025-01-19T12:02:51Z</time>
      </trkpt>
      <trkpt lat="43.4096" lon="6.65116">
        <ele>340.4</ele>
        <time>2025-01-19T12:02:52Z</time>
      </trkpt>
      <trkpt lat="43.4096" lon="6.65115">
        <ele>340.4</ele>
        <time>2025-01-19T12:02:53Z</time>
      </trkpt>
      <trkpt lat="43.40961" lon="6.65115">
        <ele>340.4</ele>
        <time>2025-01-19T12:02:54Z</time>
      </trkpt>
      <trkpt lat="43.40961" lon="6.65115">
        <ele>340.4</ele>
        <time>2025-01-19T12:02:55Z</time>
      </trkpt>
      <trkpt lat="43.40961" lon="6.65115">
        <ele>340.4</ele>
        <time>2025-01-19T12:02:56Z</time>
      </trkpt>
      <trkpt lat="43.40961" lon="6.65115">
        <ele>340.5</ele>
        <time>2025-01-19T12:02:57Z</time>
      </trkpt>
      <trkpt lat="43.40961" lon="6.65115">
        <ele>340.5</ele>
        <time>2025-01-19T12:02:58Z</time>
      </trkpt>
      <trkpt lat="43.40961" lon="6.65115">
        <ele>340.5</ele>
        <time>2025-01-19T12:02:59Z</time>
      </trkpt>
      <trkpt lat="43.40961" lon="6.65115">
        <ele>340.5</ele>
        <time>2025-01-19T12:03:00Z</time>
      </trkpt>
      <trkpt lat="43.40961" lon="6.65115">
        <ele>340.5</ele>
        <time>2025-01-19T12:03:01Z</time>
      </trkpt>
      <trkpt lat="43.40961" lon="6.65115">
        <ele>340.5</ele>
        <time>2025-01-19T12:03:02Z</time>
      </trkpt>
      <trkpt lat="43.40961" lon="6.65115">
        <ele>340.5</ele>
        <time>2025-01-19T12:03:03Z</time>
      </trkpt>
      <trkpt lat="43.40961" lon="6.65115">
        <ele>340.5</ele>
        <time>2025-01-19T12:03:04Z</time>
      </trkpt>
      <trkpt lat="43.40961" lon="6.65115">
        <ele>340.5</ele>
        <time>2025-01-19T12:03:05Z</time>
      </trkpt>
      <trkpt lat="43.40961" lon="6.65115">
        <ele>340.5</ele>
        <time>2025-01-19T12:03:06Z</time>
      </trkpt>
      <trkpt lat="43.40961" lon="6.65115">
        <ele>340.5</ele>
        <time>2025-01-19T12:03:07Z</time>
      </trkpt>
      <trkpt lat="43.40961" lon="6.65115">
        <ele>340.5</ele>
        <time>2025-01-19T12:03:08Z</time>
      </trkpt>
      <trkpt lat="43.40961" lon="6.65115">
        <ele>340.5</ele>
        <time>2025-01-19T12:03:09Z</time>
      </trkpt>
      <trkpt lat="43.40961" lon="6.65115">
        <ele>340.3</ele>
        <time>2025-01-19T12:03:10Z</time>
      </trkpt>
      <trkpt lat="43.40961" lon="6.65115">
        <ele>340.3</ele>
        <time>2025-01-19T12:03:11Z</time>
      </trkpt>
      <trkpt lat="43.40961" lon="6.65115">
        <ele>340.2</ele>
        <time>2025-01-19T12:03:12Z</time>
      </trkpt>
      <trkpt lat="43.40961" lon="6.65115">
        <ele>340.2</ele>
        <time>2025-01-19T12:03:13Z</time>
      </trkpt>
      <trkpt lat="43.40961" lon="6.65115">
        <ele>340.2</ele>
        <time>2025-01-19T12:03:14Z</time>
      </trkpt>
      <trkpt lat="43.40961" lon="6.65115">
        <ele>340.2</ele>
        <time>2025-01-19T12:03:15Z</time>
      </trkpt>
      <trkpt lat="43.40961" lon="6.65115">
        <ele>340.2</ele>
        <time>2025-01-19T12:03:16Z</time>
      </trkpt>
      <trkpt lat="43.40962" lon="6.65115">
        <ele>340.3</ele>
        <time>2025-01-19T12:03:17Z</time>
      </trkpt>
      <trkpt lat="43.40962" lon="6.65115">
        <ele>340.4</ele>
        <time>2025-01-19T12:03:18Z</time>
      </trkpt>
      <trkpt lat="43.40962" lon="6.65115">
        <ele>340.4</ele>
        <time>2025-01-19T12:03:19Z</time>
      </trkpt>
      <trkpt lat="43.40962" lon="6.65115">
        <ele>340.4</ele>
        <time>2025-01-19T12:03:20Z</time>
      </trkpt>
      <trkpt lat="43.40962" lon="6.65115">
        <ele>340.4</ele>
        <time>2025-01-19T12:03:21Z</time>
      </trkpt>
      <trkpt lat="43.40962" lon="6.65115">
        <ele>340.4</ele>
        <time>2025-01-19T12:03:22Z</time>
      </trkpt>
      <trkpt lat="43.40962" lon="6.65115">
        <ele>340.5</ele>
        <time>2025-01-19T12:03:23Z</time>
      </trkpt>
      <trkpt lat="43.40962" lon="6.65115">
        <ele>340.5</ele>
        <time>2025-01-19T12:03:24Z</time>
      </trkpt>
      <trkpt lat="43.40962" lon="6.65115">
        <ele>340.5</ele>
        <time>2025-01-19T12:03:25Z</time>
      </trkpt>
      <trkpt lat="43.40962" lon="6.65115">
        <ele>340.4</ele>
        <time>2025-01-19T12:03:26Z</time>
      </trkpt>
      <trkpt lat="43.40962" lon="6.65115">
        <ele>340.4</ele>
        <time>2025-01-19T12:03:27Z</time>
      </trkpt>
      <trkpt lat="43.40962" lon="6.65115">
        <ele>340.4</ele>
        <time>2025-01-19T12:03:28Z</time>
      </trkpt>
      <trkpt lat="43.40962" lon="6.65115">
        <ele>340.4</ele>
        <time>2025-01-19T12:03:29Z</time>
      </trkpt>
      <trkpt lat="43.40962" lon="6.65115">
        <ele>340.4</ele>
        <time>2025-01-19T12:03:30Z</time>
      </trkpt>
      <trkpt lat="43.40962" lon="6.65115">
        <ele>340.5</ele>
        <time>2025-01-19T12:03:31Z</time>
      </trkpt>
      <trkpt lat="43.40962" lon="6.65115">
        <ele>340.5</ele>
        <time>2025-01-19T12:03:32Z</time>
      </trkpt>
      <trkpt lat="43.40962" lon="6.65115">
        <ele>340.7</ele>
        <time>2025-01-19T12:03:33Z</time>
      </trkpt>
      <trkpt lat="43.40962" lon="6.65115">
        <ele>340.7</ele>
        <time>2025-01-19T12:03:34Z</time>
      </trkpt>
      <trkpt lat="43.40962" lon="6.65115">
        <ele>340.8</ele>
        <time>2025-01-19T12:03:35Z</time>
      </trkpt>
      <trkpt lat="43.40962" lon="6.65115">
        <ele>340.8</ele>
        <time>2025-01-19T12:03:36Z</time>
      </trkpt>
      <trkpt lat="43.40962" lon="6.65115">
        <ele>340.8</ele>
        <time>2025-01-19T12:03:37Z</time>
      </trkpt>
      <trkpt lat="43.40962" lon="6.65115">
        <ele>340.9</ele>
        <time>2025-01-19T12:03:38Z</time>
      </trkpt>
      <trkpt lat="43.40962" lon="6.65115">
        <ele>340.8</ele>
        <time>2025-01-19T12:03:39Z</time>
      </trkpt>
      <trkpt lat="43.40962" lon="6.65115">
        <ele>340.7</ele>
        <time>2025-01-19T12:03:40Z</time>
      </trkpt>
      <trkpt lat="43.40962" lon="6.65114">
        <ele>340.7</ele>
        <time>2025-01-19T12:03:41Z</time>
      </trkpt>
      <trkpt lat="43.40962" lon="6.65114">
        <ele>340.6</ele>
        <time>2025-01-19T12:03:42Z</time>
      </trkpt>
      <trkpt lat="43.40962" lon="6.65114">
        <ele>340.5</ele>
        <time>2025-01-19T12:03:43Z</time>
      </trkpt>
      <trkpt lat="43.40962" lon="6.65114">
        <ele>340.4</ele>
        <time>2025-01-19T12:03:44Z</time>
      </trkpt>
      <trkpt lat="43.40962" lon="6.65114">
        <ele>340.4</ele>
        <time>2025-01-19T12:03:45Z</time>
      </trkpt>
      <trkpt lat="43.40962" lon="6.65114">
        <ele>340.4</ele>
        <time>2025-01-19T12:03:46Z</time>
      </trkpt>
      <trkpt lat="43.40962" lon="6.65114">
        <ele>340.3</ele>
        <time>2025-01-19T12:03:47Z</time>
      </trkpt>
      <trkpt lat="43.40962" lon="6.65114">
        <ele>340.3</ele>
        <time>2025-01-19T12:03:48Z</time>
      </trkpt>
      <trkpt lat="43.40962" lon="6.65114">
        <ele>340.3</ele>
        <time>2025-01-19T12:03:49Z</time>
      </trkpt>
      <trkpt lat="43.40962" lon="6.65114">
        <ele>340.4</ele>
        <time>2025-01-19T12:03:50Z</time>
      </trkpt>
      <trkpt lat="43.40962" lon="6.65114">
        <ele>340.5</ele>
        <time>2025-01-19T12:03:51Z</time>
      </trkpt>
      <trkpt lat="43.40962" lon="6.65114">
        <ele>340.5</ele>
        <time>2025-01-19T12:03:52Z</time>
      </trkpt>
      <trkpt lat="43.40962" lon="6.65114">
        <ele>340.5</ele>
        <time>2025-01-19T12:03:53Z</time>
      </trkpt>
      <trkpt lat="43.40962" lon="6.65114">
        <ele>340.5</ele>
        <time>2025-01-19T12:03:54Z</time>
      </trkpt>
      <trkpt lat="43.40962" lon="6.65114">
        <ele>340.5</ele>
        <time>2025-01-19T12:03:55Z</time>
      </trkpt>
      <trkpt lat="43.40962" lon="6.65114">
        <ele>340.6</ele>
        <time>2025-01-19T12:03:56Z</time>
      </trkpt>
      <trkpt lat="43.40962" lon="6.65114">
        <ele>340.6</ele>
        <time>2025-01-19T12:03:57Z</time>
      </trkpt>
      <trkpt lat="43.40962" lon="6.65114">
        <ele>340.6</ele>
        <time>2025-01-19T12:03:58Z</time>
      </trkpt>
      <trkpt lat="43.40962" lon="6.65114">
        <ele>340.6</ele>
        <time>2025-01-19T12:03:59Z</time>
      </trkpt>
      <trkpt lat="43.40963" lon="6.65114">
        <ele>340.6</ele>
        <time>2025-01-19T12:04:00Z</time>
      </trkpt>
      <trkpt lat="43.40963" lon="6.65114">
        <ele>340.5</ele>
        <time>2025-01-19T12:04:01Z</time>
      </trkpt>
      <trkpt lat="43.40963" lon="6.65114">
        <ele>340.5</ele>
        <time>2025-01-19T12:04:02Z</time>
      </trkpt>
      <trkpt lat="43.40963" lon="6.65114">
        <ele>340.5</ele>
        <time>2025-01-19T12:04:03Z</time>
      </trkpt>
      <trkpt lat="43.40963" lon="6.65114">
        <ele>340.5</ele>
        <time>2025-01-19T12:04:04Z</time>
      </trkpt>
      <trkpt lat="43.40963" lon="6.65114">
        <ele>340.5</ele>
        <time>2025-01-19T12:04:05Z</time>
      </trkpt>
      <trkpt lat="43.40963" lon="6.65114">
        <ele>340.6</ele>
        <time>2025-01-19T12:04:06Z</time>
      </trkpt>
      <trkpt lat="43.40963" lon="6.65114">
        <ele>340.6</ele>
        <time>2025-01-19T12:04:07Z</time>
      </trkpt>
      <trkpt lat="43.40963" lon="6.65114">
        <ele>340.5</ele>
        <time>2025-01-19T12:04:08Z</time>
      </trkpt>
      <trkpt lat="43.40963" lon="6.65114">
        <ele>340.5</ele>
        <time>2025-01-19T12:04:09Z</time>
      </trkpt>
      <trkpt lat="43.40963" lon="6.65113">
        <ele>340.4</ele>
        <time>2025-01-19T12:04:10Z</time>
      </trkpt>
      <trkpt lat="43.40963" lon="6.65113">
        <ele>340.6</ele>
        <time>2025-01-19T12:04:11Z</time>
      </trkpt>
      <trkpt lat="43.40962" lon="6.65114">
        <ele>340.6</ele>
        <time>2025-01-19T12:04:12Z</time>
      </trkpt>
      <trkpt lat="43.40963" lon="6.65114">
        <ele>340.6</ele>
        <time>2025-01-19T12:04:13Z</time>
      </trkpt>
      <trkpt lat="43.40962" lon="6.65114">
        <ele>340.7</ele>
        <time>2025-01-19T12:04:14Z</time>
      </trkpt>
      <trkpt lat="43.40962" lon="6.65114">
        <ele>340.7</ele>
        <time>2025-01-19T12:04:15Z</time>
      </trkpt>
      <trkpt lat="43.40962" lon="6.65114">
        <ele>340.7</ele>
        <time>2025-01-19T12:04:16Z</time>
      </trkpt>
      <trkpt lat="43.40963" lon="6.65114">
        <ele>340.7</ele>
        <time>2025-01-19T12:04:17Z</time>
      </trkpt>
      <trkpt lat="43.40963" lon="6.65114">
        <ele>340.7</ele>
        <time>2025-01-19T12:04:18Z</time>
      </trkpt>
      <trkpt lat="43.40963" lon="6.65114">
        <ele>340.7</ele>
        <time>2025-01-19T12:04:19Z</time>
      </trkpt>
      <trkpt lat="43.40962" lon="6.65114">
        <ele>340.6</ele>
        <time>2025-01-19T12:04:20Z</time>
      </trkpt>
      <trkpt lat="43.40962" lon="6.65114">
        <ele>340.6</ele>
        <time>2025-01-19T12:04:21Z</time>
      </trkpt>
      <trkpt lat="43.40962" lon="6.65114">
        <ele>340.5</ele>
        <time>2025-01-19T12:04:22Z</time>
      </trkpt>
      <trkpt lat="43.40962" lon="6.65114">
        <ele>340.5</ele>
        <time>2025-01-19T12:04:23Z</time>
      </trkpt>
      <trkpt lat="43.40962" lon="6.65114">
        <ele>340.5</ele>
        <time>2025-01-19T12:04:24Z</time>
      </trkpt>
      <trkpt lat="43.40962" lon="6.65114">
        <ele>340.6</ele>
        <time>2025-01-19T12:04:25Z</time>
      </trkpt>
      <trkpt lat="43.40962" lon="6.65114">
        <ele>340.6</ele>
        <time>2025-01-19T12:04:26Z</time>
      </trkpt>
      <trkpt lat="43.40962" lon="6.65114">
        <ele>340.6</ele>
        <time>2025-01-19T12:04:27Z</time>
      </trkpt>
      <trkpt lat="43.40962" lon="6.65114">
        <ele>340.6</ele>
        <time>2025-01-19T12:04:28Z</time>
      </trkpt>
      <trkpt lat="43.40962" lon="6.65114">
        <ele>340.5</ele>
        <time>2025-01-19T12:04:29Z</time>
      </trkpt>
      <trkpt lat="43.40962" lon="6.65114">
        <ele>340.4</ele>
        <time>2025-01-19T12:04:30Z</time>
      </trkpt>
      <trkpt lat="43.40962" lon="6.65114">
        <ele>340.4</ele>
        <time>2025-01-19T12:04:31Z</time>
      </trkpt>
      <trkpt lat="43.40962" lon="6.65114">
        <ele>340.3</ele>
        <time>2025-01-19T12:04:32Z</time>
      </trkpt>
      <trkpt lat="43.40962" lon="6.65114">
        <ele>340.3</ele>
        <time>2025-01-19T12:04:33Z</time>
      </trkpt>
      <trkpt lat="43.40962" lon="6.65114">
        <ele>340.3</ele>
        <time>2025-01-19T12:04:34Z</time>
      </trkpt>
      <trkpt lat="43.40962" lon="6.65114">
        <ele>340.3</ele>
        <time>2025-01-19T12:04:35Z</time>
      </trkpt>
      <trkpt lat="43.40962" lon="6.65114">
        <ele>340.4</ele>
        <time>2025-01-19T12:04:36Z</time>
      </trkpt>
      <trkpt lat="43.40962" lon="6.65114">
        <ele>340.5</ele>
        <time>2025-01-19T12:04:37Z</time>
      </trkpt>
      <trkpt lat="43.40962" lon="6.65114">
        <ele>340.5</ele>
        <time>2025-01-19T12:04:38Z</time>
      </trkpt>
      <trkpt lat="43.40962" lon="6.65114">
        <ele>340.5</ele>
        <time>2025-01-19T12:04:39Z</time>
      </trkpt>
      <trkpt lat="43.40962" lon="6.65114">
        <ele>340.5</ele>
        <time>2025-01-19T12:04:40Z</time>
      </trkpt>
      <trkpt lat="43.40962" lon="6.65114">
        <ele>340.6</ele>
        <time>2025-01-19T12:04:41Z</time>
      </trkpt>
      <trkpt lat="43.40962" lon="6.65114">
        <ele>340.6</ele>
        <time>2025-01-19T12:04:42Z</time>
      </trkpt>
      <trkpt lat="43.40962" lon="6.65114">
        <ele>340.6</ele>
        <time>2025-01-19T12:04:43Z</time>
      </trkpt>
      <trkpt lat="43.40962" lon="6.65114">
        <ele>340.6</ele>
        <time>2025-01-19T12:04:44Z</time>
      </trkpt>
      <trkpt lat="43.40962" lon="6.65114">
        <ele>340.7</ele>
        <time>2025-01-19T12:04:45Z</time>
      </trkpt>
      <trkpt lat="43.40962" lon="6.65114">
        <ele>340.7</ele>
        <time>2025-01-19T12:04:46Z</time>
      </trkpt>
      <trkpt lat="43.40962" lon="6.65114">
        <ele>340.7</ele>
        <time>2025-01-19T12:04:47Z</time>
      </trkpt>
      <trkpt lat="43.40962" lon="6.65114">
        <ele>340.7</ele>
        <time>2025-01-19T12:04:48Z</time>
      </trkpt>
      <trkpt lat="43.40962" lon="6.65114">
        <ele>340.7</ele>
        <time>2025-01-19T12:04:49Z</time>
      </trkpt>
      <trkpt lat="43.40962" lon="6.65114">
        <ele>340.7</ele>
        <time>2025-01-19T12:04:50Z</time>
      </trkpt>
      <trkpt lat="43.40962" lon="6.65114">
        <ele>340.7</ele>
        <time>2025-01-19T12:04:51Z</time>
      </trkpt>
      <trkpt lat="43.40962" lon="6.65114">
        <ele>340.7</ele>
        <time>2025-01-19T12:04:52Z</time>
      </trkpt>
      <trkpt lat="43.40962" lon="6.65114">
        <ele>340.7</ele>
        <time>2025-01-19T12:04:53Z</time>
      </trkpt>
      <trkpt lat="43.40962" lon="6.65114">
        <ele>340.6</ele>
        <time>2025-01-19T12:04:54Z</time>
      </trkpt>
      <trkpt lat="43.40962" lon="6.65114">
        <ele>340.6</ele>
        <time>2025-01-19T12:04:55Z</time>
      </trkpt>
      <trkpt lat="43.40962" lon="6.65114">
        <ele>340.6</ele>
        <time>2025-01-19T12:04:56Z</time>
      </trkpt>
      <trkpt lat="43.40962" lon="6.65114">
        <ele>340.5</ele>
        <time>2025-01-19T12:04:57Z</time>
      </trkpt>
      <trkpt lat="43.40962" lon="6.65114">
        <ele>340.7</ele>
        <time>2025-01-19T12:04:58Z</time>
      </trkpt>
      <trkpt lat="43.40962" lon="6.65114">
        <ele>340.6</ele>
        <time>2025-01-19T12:04:59Z</time>
      </trkpt>
      <trkpt lat="43.40962" lon="6.65114">
        <ele>340.6</ele>
        <time>2025-01-19T12:05:00Z</time>
      </trkpt>
      <trkpt lat="43.40962" lon="6.65114">
        <ele>340.6</ele>
        <time>2025-01-19T12:05:01Z</time>
      </trkpt>
      <trkpt lat="43.40962" lon="6.65114">
        <ele>340.5</ele>
        <time>2025-01-19T12:05:02Z</time>
      </trkpt>
      <trkpt lat="43.40962" lon="6.65114">
        <ele>340.5</ele>
        <time>2025-01-19T12:05:03Z</time>
      </trkpt>
      <trkpt lat="43.40962" lon="6.65114">
        <ele>340.6</ele>
        <time>2025-01-19T12:05:04Z</time>
      </trkpt>
      <trkpt lat="43.40962" lon="6.65114">
        <ele>340.6</ele>
        <time>2025-01-19T12:05:05Z</time>
      </trkpt>
      <trkpt lat="43.40962" lon="6.65114">
        <ele>340.6</ele>
        <time>2025-01-19T12:05:06Z</time>
      </trkpt>
      <trkpt lat="43.40962" lon="6.65114">
        <ele>340.6</ele>
        <time>2025-01-19T12:05:07Z</time>
      </trkpt>
      <trkpt lat="43.40962" lon="6.65114">
        <ele>340.6</ele>
        <time>2025-01-19T12:05:08Z</time>
      </trkpt>
      <trkpt lat="43.40962" lon="6.65114">
        <ele>340.7</ele>
        <time>2025-01-19T12:05:09Z</time>
      </trkpt>
      <trkpt lat="43.40962" lon="6.65114">
        <ele>340.7</ele>
        <time>2025-01-19T12:05:10Z</time>
      </trkpt>
      <trkpt lat="43.40962" lon="6.65114">
        <ele>340.7</ele>
        <time>2025-01-19T12:05:11Z</time>
      </trkpt>
      <trkpt lat="43.40962" lon="6.65114">
        <ele>340.6</ele>
        <time>2025-01-19T12:05:12Z</time>
      </trkpt>
      <trkpt lat="43.40962" lon="6.65114">
        <ele>340.6</ele>
        <time>2025-01-19T12:05:13Z</time>
      </trkpt>
      <trkpt lat="43.40962" lon="6.65114">
        <ele>340.6</ele>
        <time>2025-01-19T12:05:14Z</time>
      </trkpt>
      <trkpt lat="43.40962" lon="6.65114">
        <ele>340.5</ele>
        <time>2025-01-19T12:05:15Z</time>
      </trkpt>
      <trkpt lat="43.40962" lon="6.65114">
        <ele>340.5</ele>
        <time>2025-01-19T12:05:16Z</time>
      </trkpt>
      <trkpt lat="43.40962" lon="6.65115">
        <ele>340.5</ele>
        <time>2025-01-19T12:05:17Z</time>
      </trkpt>
      <trkpt lat="43.40962" lon="6.65115">
        <ele>340.5</ele>
        <time>2025-01-19T12:05:18Z</time>
      </trkpt>
      <trkpt lat="43.40962" lon="6.65115">
        <ele>340.5</ele>
        <time>2025-01-19T12:05:19Z</time>
      </trkpt>
      <trkpt lat="43.40962" lon="6.65115">
        <ele>340.5</ele>
        <time>2025-01-19T12:05:20Z</time>
      </trkpt>
      <trkpt lat="43.40962" lon="6.65115">
        <ele>340.5</ele>
        <time>2025-01-19T12:05:21Z</time>
      </trkpt>
      <trkpt lat="43.40962" lon="6.65115">
        <ele>340.6</ele>
        <time>2025-01-19T12:05:22Z</time>
      </trkpt>
      <trkpt lat="43.40962" lon="6.65115">
        <ele>340.5</ele>
        <time>2025-01-19T12:05:23Z</time>
      </trkpt>
      <trkpt lat="43.40962" lon="6.65115">
        <ele>340.6</ele>
        <time>2025-01-19T12:05:24Z</time>
      </trkpt>
      <trkpt lat="43.40962" lon="6.65115">
        <ele>340.6</ele>
        <time>2025-01-19T12:05:25Z</time>
      </trkpt>
      <trkpt lat="43.40962" lon="6.65115">
        <ele>340.6</ele>
        <time>2025-01-19T12:05:26Z</time>
      </trkpt>
      <trkpt lat="43.40962" lon="6.65115">
        <ele>340.6</ele>
        <time>2025-01-19T12:05:27Z</time>
      </trkpt>
      <trkpt lat="43.40962" lon="6.65115">
        <ele>340.6</ele>
        <time>2025-01-19T12:05:28Z</time>
      </trkpt>
      <trkpt lat="43.40962" lon="6.65115">
        <ele>340.6</ele>
        <time>2025-01-19T12:05:29Z</time>
      </trkpt>
      <trkpt lat="43.40962" lon="6.65115">
        <ele>340.6</ele>
        <time>2025-01-19T12:05:30Z</time>
      </trkpt>
      <trkpt lat="43.40962" lon="6.65115">
        <ele>340.6</ele>
        <time>2025-01-19T12:05:31Z</time>
      </trkpt>
      <trkpt lat="43.40962" lon="6.65115">
        <ele>340.6</ele>
        <time>2025-01-19T12:05:32Z</time>
      </trkpt>
      <trkpt lat="43.40962" lon="6.65115">
        <ele>340.6</ele>
        <time>2025-01-19T12:05:33Z</time>
      </trkpt>
      <trkpt lat="43.40962" lon="6.65115">
        <ele>340.5</ele>
        <time>2025-01-19T12:05:34Z</time>
      </trkpt>
      <trkpt lat="43.40962" lon="6.65115">
        <ele>340.5</ele>
        <time>2025-01-19T12:05:35Z</time>
      </trkpt>
      <trkpt lat="43.40962" lon="6.65115">
        <ele>340.5</ele>
        <time>2025-01-19T12:05:36Z</time>
      </trkpt>
      <trkpt lat="43.40961" lon="6.65115">
        <ele>340.5</ele>
        <time>2025-01-19T12:05:37Z</time>
      </trkpt>
      <trkpt lat="43.40962" lon="6.65115">
        <ele>340.5</ele>
        <time>2025-01-19T12:05:38Z</time>
      </trkpt>
      <trkpt lat="43.40962" lon="6.65115">
        <ele>340.5</ele>
        <time>2025-01-19T12:05:39Z</time>
      </trkpt>
      <trkpt lat="43.40962" lon="6.65115">
        <ele>340.5</ele>
        <time>2025-01-19T12:05:40Z</time>
      </trkpt>
      <trkpt lat="43.40962" lon="6.65115">
        <ele>340.4</ele>
        <time>2025-01-19T12:05:41Z</time>
      </trkpt>
      <trkpt lat="43.40961" lon="6.65115">
        <ele>340.4</ele>
        <time>2025-01-19T12:05:42Z</time>
      </trkpt>
      <trkpt lat="43.40961" lon="6.65115">
        <ele>340.4</ele>
        <time>2025-01-19T12:05:43Z</time>
      </trkpt>
      <trkpt lat="43.40961" lon="6.65115">
        <ele>340.5</ele>
        <time>2025-01-19T12:05:44Z</time>
      </trkpt>
      <trkpt lat="43.40961" lon="6.65115">
        <ele>340.5</ele>
        <time>2025-01-19T12:05:45Z</time>
      </trkpt>
      <trkpt lat="43.40961" lon="6.65115">
        <ele>340.5</ele>
        <time>2025-01-19T12:05:46Z</time>
      </trkpt>
      <trkpt lat="43.40961" lon="6.65115">
        <ele>340.5</ele>
        <time>2025-01-19T12:05:47Z</time>
      </trkpt>
      <trkpt lat="43.40961" lon="6.65115">
        <ele>340.6</ele>
        <time>2025-01-19T12:05:48Z</time>
      </trkpt>
      <trkpt lat="43.40961" lon="6.65115">
        <ele>340.6</ele>
        <time>2025-01-19T12:05:49Z</time>
      </trkpt>
      <trkpt lat="43.40961" lon="6.65115">
        <ele>340.6</ele>
        <time>2025-01-19T12:05:50Z</time>
      </trkpt>
      <trkpt lat="43.40961" lon="6.65115">
        <ele>340.6</ele>
        <time>2025-01-19T12:05:51Z</time>
      </trkpt>
      <trkpt lat="43.40962" lon="6.65115">
        <ele>340.6</ele>
        <time>2025-01-19T12:05:52Z</time>
      </trkpt>
      <trkpt lat="43.40962" lon="6.65114">
        <ele>340.5</ele>
        <time>2025-01-19T12:05:53Z</time>
      </trkpt>
      <trkpt lat="43.40962" lon="6.65114">
        <ele>340.5</ele>
        <time>2025-01-19T12:05:54Z</time>
      </trkpt>
      <trkpt lat="43.40962" lon="6.65114">
        <ele>340.5</ele>
        <time>2025-01-19T12:05:55Z</time>
      </trkpt>
      <trkpt lat="43.40962" lon="6.65114">
        <ele>340.5</ele>
        <time>2025-01-19T12:05:56Z</time>
      </trkpt>
      <trkpt lat="43.40962" lon="6.65114">
        <ele>340.5</ele>
        <time>2025-01-19T12:05:57Z</time>
      </trkpt>
      <trkpt lat="43.40962" lon="6.65114">
        <ele>340.5</ele>
        <time>2025-01-19T12:05:58Z</time>
      </trkpt>
      <trkpt lat="43.40962" lon="6.65114">
        <ele>340.5</ele>
        <time>2025-01-19T12:05:59Z</time>
      </trkpt>
      <trkpt lat="43.40962" lon="6.65114">
        <ele>340.5</ele>
        <time>2025-01-19T12:06:00Z</time>
      </trkpt>
      <trkpt lat="43.40962" lon="6.65114">
        <ele>340.4</ele>
        <time>2025-01-19T12:06:01Z</time>
      </trkpt>
      <trkpt lat="43.40962" lon="6.65114">
        <ele>340.5</ele>
        <time>2025-01-19T12:06:02Z</time>
      </trkpt>
      <trkpt lat="43.40962" lon="6.65114">
        <ele>340.6</ele>
        <time>2025-01-19T12:06:03Z</time>
      </trkpt>
      <trkpt lat="43.40962" lon="6.65114">
        <ele>340.6</ele>
        <time>2025-01-19T12:06:04Z</time>
      </trkpt>
      <trkpt lat="43.40962" lon="6.65114">
        <ele>340.5</ele>
        <time>2025-01-19T12:06:05Z</time>
      </trkpt>
      <trkpt lat="43.40962" lon="6.65114">
        <ele>340.4</ele>
        <time>2025-01-19T12:06:06Z</time>
      </trkpt>
      <trkpt lat="43.40962" lon="6.65114">
        <ele>340.4</ele>
        <time>2025-01-19T12:06:07Z</time>
      </trkpt>
      <trkpt lat="43.40962" lon="6.65114">
        <ele>340.3</ele>
        <time>2025-01-19T12:06:08Z</time>
      </trkpt>
      <trkpt lat="43.40962" lon="6.65113">
        <ele>340.3</ele>
        <time>2025-01-19T12:06:09Z</time>
      </trkpt>
      <trkpt lat="43.40962" lon="6.65114">
        <ele>340.4</ele>
        <time>2025-01-19T12:06:10Z</time>
      </trkpt>
      <trkpt lat="43.40962" lon="6.65113">
        <ele>340.4</ele>
        <time>2025-01-19T12:06:11Z</time>
      </trkpt>
      <trkpt lat="43.40962" lon="6.65114">
        <ele>340.5</ele>
        <time>2025-01-19T12:06:12Z</time>
      </trkpt>
      <trkpt lat="43.40962" lon="6.65114">
        <ele>340.5</ele>
        <time>2025-01-19T12:06:13Z</time>
      </trkpt>
      <trkpt lat="43.40962" lon="6.65114">
        <ele>340.5</ele>
        <time>2025-01-19T12:06:14Z</time>
      </trkpt>
      <trkpt lat="43.40962" lon="6.65114">
        <ele>340.5</ele>
        <time>2025-01-19T12:06:15Z</time>
      </trkpt>
      <trkpt lat="43.40962" lon="6.65114">
        <ele>340.6</ele>
        <time>2025-01-19T12:06:16Z</time>
      </trkpt>
      <trkpt lat="43.40962" lon="6.65114">
        <ele>340.6</ele>
        <time>2025-01-19T12:06:17Z</time>
      </trkpt>
      <trkpt lat="43.40962" lon="6.65114">
        <ele>340.6</ele>
        <time>2025-01-19T12:06:18Z</time>
      </trkpt>
      <trkpt lat="43.40961" lon="6.65114">
        <ele>340.6</ele>
        <time>2025-01-19T12:06:19Z</time>
      </trkpt>
      <trkpt lat="43.40962" lon="6.65114">
        <ele>340.6</ele>
        <time>2025-01-19T12:06:20Z</time>
      </trkpt>
      <trkpt lat="43.40962" lon="6.65114">
        <ele>340.5</ele>
        <time>2025-01-19T12:06:21Z</time>
      </trkpt>
      <trkpt lat="43.40962" lon="6.65114">
        <ele>340.7</ele>
        <time>2025-01-19T12:06:22Z</time>
      </trkpt>
      <trkpt lat="43.40962" lon="6.65114">
        <ele>340.8</ele>
        <time>2025-01-19T12:06:23Z</time>
      </trkpt>
      <trkpt lat="43.40962" lon="6.65115">
        <ele>340.8</ele>
        <time>2025-01-19T12:06:24Z</time>
      </trkpt>
      <trkpt lat="43.40962" lon="6.65115">
        <ele>340.8</ele>
        <time>2025-01-19T12:06:25Z</time>
      </trkpt>
      <trkpt lat="43.40962" lon="6.65115">
        <ele>340.8</ele>
        <time>2025-01-19T12:06:26Z</time>
      </trkpt>
      <trkpt lat="43.40962" lon="6.65115">
        <ele>340.8</ele>
        <time>2025-01-19T12:06:27Z</time>
      </trkpt>
      <trkpt lat="43.40962" lon="6.65115">
        <ele>340.8</ele>
        <time>2025-01-19T12:06:28Z</time>
      </trkpt>
      <trkpt lat="43.40962" lon="6.65115">
        <ele>340.8</ele>
        <time>2025-01-19T12:06:29Z</time>
      </trkpt>
      <trkpt lat="43.40962" lon="6.65115">
        <ele>340.8</ele>
        <time>2025-01-19T12:06:30Z</time>
      </trkpt>
      <trkpt lat="43.40962" lon="6.65116">
        <ele>340.8</ele>
        <time>2025-01-19T12:06:31Z</time>
      </trkpt>
      <trkpt lat="43.40962" lon="6.65116">
        <ele>340.8</ele>
        <time>2025-01-19T12:06:32Z</time>
      </trkpt>
      <trkpt lat="43.40962" lon="6.65116">
        <ele>340.8</ele>
        <time>2025-01-19T12:06:33Z</time>
      </trkpt>
      <trkpt lat="43.40962" lon="6.65116">
        <ele>340.8</ele>
        <time>2025-01-19T12:06:34Z</time>
      </trkpt>
      <trkpt lat="43.40962" lon="6.65116">
        <ele>340.8</ele>
        <time>2025-01-19T12:06:35Z</time>
      </trkpt>
      <trkpt lat="43.40962" lon="6.65116">
        <ele>340.9</ele>
        <time>2025-01-19T12:06:36Z</time>
      </trkpt>
      <trkpt lat="43.40962" lon="6.65116">
        <ele>340.9</ele>
        <time>2025-01-19T12:06:37Z</time>
      </trkpt>
      <trkpt lat="43.40962" lon="6.65116">
        <ele>340.9</ele>
        <time>2025-01-19T12:06:38Z</time>
      </trkpt>
      <trkpt lat="43.40962" lon="6.65116">
        <ele>340.9</ele>
        <time>2025-01-19T12:06:39Z</time>
      </trkpt>
      <trkpt lat="43.40962" lon="6.65116">
        <ele>340.9</ele>
        <time>2025-01-19T12:06:40Z</time>
      </trkpt>
      <trkpt lat="43.40962" lon="6.65116">
        <ele>340.9</ele>
        <time>2025-01-19T12:06:41Z</time>
      </trkpt>
      <trkpt lat="43.40962" lon="6.65116">
        <ele>341</ele>
        <time>2025-01-19T12:06:42Z</time>
      </trkpt>
      <trkpt lat="43.40962" lon="6.65116">
        <ele>341</ele>
        <time>2025-01-19T12:06:43Z</time>
      </trkpt>
      <trkpt lat="43.40962" lon="6.65116">
        <ele>341</ele>
        <time>2025-01-19T12:06:44Z</time>
      </trkpt>
      <trkpt lat="43.40961" lon="6.65116">
        <ele>341</ele>
        <time>2025-01-19T12:06:45Z</time>
      </trkpt>
      <trkpt lat="43.40961" lon="6.65116">
        <ele>340.9</ele>
        <time>2025-01-19T12:06:46Z</time>
      </trkpt>
      <trkpt lat="43.40961" lon="6.65116">
        <ele>340.9</ele>
        <time>2025-01-19T12:06:47Z</time>
      </trkpt>
      <trkpt lat="43.40962" lon="6.65116">
        <ele>340.8</ele>
        <time>2025-01-19T12:06:48Z</time>
      </trkpt>
      <trkpt lat="43.40962" lon="6.65116">
        <ele>340.8</ele>
        <time>2025-01-19T12:06:49Z</time>
      </trkpt>
      <trkpt lat="43.40962" lon="6.65116">
        <ele>340.8</ele>
        <time>2025-01-19T12:06:50Z</time>
      </trkpt>
      <trkpt lat="43.40962" lon="6.65116">
        <ele>340.8</ele>
        <time>2025-01-19T12:06:51Z</time>
      </trkpt>
      <trkpt lat="43.40962" lon="6.65116">
        <ele>340.8</ele>
        <time>2025-01-19T12:06:52Z</time>
      </trkpt>
      <trkpt lat="43.40962" lon="6.65116">
        <ele>340.8</ele>
        <time>2025-01-19T12:06:53Z</time>
      </trkpt>
      <trkpt lat="43.40962" lon="6.65116">
        <ele>340.8</ele>
        <time>2025-01-19T12:06:54Z</time>
      </trkpt>
      <trkpt lat="43.40961" lon="6.65116">
        <ele>340.8</ele>
        <time>2025-01-19T12:06:55Z</time>
      </trkpt>
      <trkpt lat="43.40961" lon="6.65116">
        <ele>340.8</ele>
        <time>2025-01-19T12:06:56Z</time>
      </trkpt>
      <trkpt lat="43.40961" lon="6.65116">
        <ele>340.8</ele>
        <time>2025-01-19T12:06:57Z</time>
      </trkpt>
      <trkpt lat="43.40961" lon="6.65116">
        <ele>340.8</ele>
        <time>2025-01-19T12:06:58Z</time>
      </trkpt>
      <trkpt lat="43.40961" lon="6.65116">
        <ele>340.8</ele>
        <time>2025-01-19T12:06:59Z</time>
      </trkpt>
      <trkpt lat="43.40961" lon="6.65116">
        <ele>340.7</ele>
        <time>2025-01-19T12:07:00Z</time>
      </trkpt>
      <trkpt lat="43.40961" lon="6.65116">
        <ele>340.6</ele>
        <time>2025-01-19T12:07:01Z</time>
      </trkpt>
      <trkpt lat="43.40961" lon="6.65116">
        <ele>340.6</ele>
        <time>2025-01-19T12:07:02Z</time>
      </trkpt>
      <trkpt lat="43.40961" lon="6.65116">
        <ele>340.6</ele>
        <time>2025-01-19T12:07:03Z</time>
      </trkpt>
      <trkpt lat="43.40961" lon="6.65116">
        <ele>340.6</ele>
        <time>2025-01-19T12:07:04Z</time>
      </trkpt>
      <trkpt lat="43.40961" lon="6.65116">
        <ele>340.6</ele>
        <time>2025-01-19T12:07:05Z</time>
      </trkpt>
      <trkpt lat="43.40961" lon="6.65116">
        <ele>340.6</ele>
        <time>2025-01-19T12:07:06Z</time>
      </trkpt>
      <trkpt lat="43.40961" lon="6.65116">
        <ele>340.6</ele>
        <time>2025-01-19T12:07:07Z</time>
      </trkpt>
      <trkpt lat="43.40962" lon="6.65116">
        <ele>340.5</ele>
        <time>2025-01-19T12:07:08Z</time>
      </trkpt>
      <trkpt lat="43.40962" lon="6.65116">
        <ele>340.5</ele>
        <time>2025-01-19T12:07:09Z</time>
      </trkpt>
      <trkpt lat="43.40962" lon="6.65116">
        <ele>340.5</ele>
        <time>2025-01-19T12:07:10Z</time>
      </trkpt>
      <trkpt lat="43.40962" lon="6.65116">
        <ele>340.5</ele>
        <time>2025-01-19T12:07:11Z</time>
      </trkpt>
      <trkpt lat="43.40962" lon="6.65116">
        <ele>340.6</ele>
        <time>2025-01-19T12:07:12Z</time>
      </trkpt>
      <trkpt lat="43.40962" lon="6.65115">
        <ele>340.6</ele>
        <time>2025-01-19T12:07:13Z</time>
      </trkpt>
      <trkpt lat="43.40962" lon="6.65115">
        <ele>340.6</ele>
        <time>2025-01-19T12:07:14Z</time>
      </trkpt>
      <trkpt lat="43.40962" lon="6.65115">
        <ele>340.6</ele>
        <time>2025-01-19T12:07:15Z</time>
      </trkpt>
      <trkpt lat="43.40962" lon="6.65115">
        <ele>340.6</ele>
        <time>2025-01-19T12:07:16Z</time>
      </trkpt>
      <trkpt lat="43.40962" lon="6.65115">
        <ele>340.6</ele>
        <time>2025-01-19T12:07:17Z</time>
      </trkpt>
      <trkpt lat="43.40962" lon="6.65115">
        <ele>340.5</ele>
        <time>2025-01-19T12:07:18Z</time>
      </trkpt>
      <trkpt lat="43.40962" lon="6.65115">
        <ele>340.5</ele>
        <time>2025-01-19T12:07:19Z</time>
      </trkpt>
      <trkpt lat="43.40962" lon="6.65115">
        <ele>340.5</ele>
        <time>2025-01-19T12:07:20Z</time>
      </trkpt>
      <trkpt lat="43.40962" lon="6.65115">
        <ele>340.5</ele>
        <time>2025-01-19T12:07:21Z</time>
      </trkpt>
      <trkpt lat="43.40962" lon="6.65115">
        <ele>340.6</ele>
        <time>2025-01-19T12:07:22Z</time>
      </trkpt>
      <trkpt lat="43.40962" lon="6.65115">
        <ele>340.6</ele>
        <time>2025-01-19T12:07:23Z</time>
      </trkpt>
      <trkpt lat="43.40962" lon="6.65115">
        <ele>340.6</ele>
        <time>2025-01-19T12:07:24Z</time>
      </trkpt>
      <trkpt lat="43.40962" lon="6.65115">
        <ele>340.6</ele>
        <time>2025-01-19T12:07:25Z</time>
      </trkpt>
      <trkpt lat="43.40962" lon="6.65115">
        <ele>340.6</ele>
        <time>2025-01-19T12:07:26Z</time>
      </trkpt>
      <trkpt lat="43.40962" lon="6.65115">
        <ele>340.6</ele>
        <time>2025-01-19T12:07:27Z</time>
      </trkpt>
      <trkpt lat="43.40962" lon="6.65115">
        <ele>340.5</ele>
        <time>2025-01-19T12:07:28Z</time>
      </trkpt>
      <trkpt lat="43.40962" lon="6.65114">
        <ele>340.5</ele>
        <time>2025-01-19T12:07:29Z</time>
      </trkpt>
      <trkpt lat="43.40962" lon="6.65114">
        <ele>340.4</ele>
        <time>2025-01-19T12:07:30Z</time>
      </trkpt>
      <trkpt lat="43.40962" lon="6.65114">
        <ele>340.4</ele>
        <time>2025-01-19T12:07:31Z</time>
      </trkpt>
      <trkpt lat="43.40962" lon="6.65114">
        <ele>340.4</ele>
        <time>2025-01-19T12:07:32Z</time>
      </trkpt>
      <trkpt lat="43.40962" lon="6.65114">
        <ele>340.4</ele>
        <time>2025-01-19T12:07:33Z</time>
      </trkpt>
      <trkpt lat="43.40962" lon="6.65114">
        <ele>340.4</ele>
        <time>2025-01-19T12:07:34Z</time>
      </trkpt>
      <trkpt lat="43.40962" lon="6.65114">
        <ele>340.4</ele>
        <time>2025-01-19T12:07:35Z</time>
      </trkpt>
      <trkpt lat="43.40962" lon="6.65114">
        <ele>340.4</ele>
        <time>2025-01-19T12:07:36Z</time>
      </trkpt>
      <trkpt lat="43.40962" lon="6.65114">
        <ele>340.5</ele>
        <time>2025-01-19T12:07:37Z</time>
      </trkpt>
      <trkpt lat="43.40962" lon="6.65114">
        <ele>340.4</ele>
        <time>2025-01-19T12:07:38Z</time>
      </trkpt>
      <trkpt lat="43.40962" lon="6.65114">
        <ele>340.4</ele>
        <time>2025-01-19T12:07:39Z</time>
      </trkpt>
      <trkpt lat="43.40962" lon="6.65114">
        <ele>340.4</ele>
        <time>2025-01-19T12:07:40Z</time>
      </trkpt>
      <trkpt lat="43.40962" lon="6.65114">
        <ele>340.4</ele>
        <time>2025-01-19T12:07:41Z</time>
      </trkpt>
      <trkpt lat="43.40962" lon="6.65114">
        <ele>340.5</ele>
        <time>2025-01-19T12:07:42Z</time>
      </trkpt>
      <trkpt lat="43.40962" lon="6.65114">
        <ele>340.5</ele>
        <time>2025-01-19T12:07:43Z</time>
      </trkpt>
      <trkpt lat="43.40962" lon="6.65114">
        <ele>340.5</ele>
        <time>2025-01-19T12:07:44Z</time>
      </trkpt>
      <trkpt lat="43.40962" lon="6.65113">
        <ele>340.4</ele>
        <time>2025-01-19T12:07:45Z</time>
      </trkpt>
      <trkpt lat="43.40962" lon="6.65113">
        <ele>340.4</ele>
        <time>2025-01-19T12:07:46Z</time>
      </trkpt>
      <trkpt lat="43.40962" lon="6.65113">
        <ele>340.4</ele>
        <time>2025-01-19T12:07:47Z</time>
      </trkpt>
      <trkpt lat="43.40962" lon="6.65113">
        <ele>340.4</ele>
        <time>2025-01-19T12:07:48Z</time>
      </trkpt>
      <trkpt lat="43.40962" lon="6.65113">
        <ele>340.4</ele>
        <time>2025-01-19T12:07:49Z</time>
      </trkpt>
      <trkpt lat="43.40962" lon="6.65113">
        <ele>340.5</ele>
        <time>2025-01-19T12:07:50Z</time>
      </trkpt>
      <trkpt lat="43.40962" lon="6.65113">
        <ele>340.6</ele>
        <time>2025-01-19T12:07:51Z</time>
      </trkpt>
      <trkpt lat="43.40963" lon="6.65113">
        <ele>340.6</ele>
        <time>2025-01-19T12:07:52Z</time>
      </trkpt>
      <trkpt lat="43.40963" lon="6.65113">
        <ele>340.5</ele>
        <time>2025-01-19T12:07:53Z</time>
      </trkpt>
      <trkpt lat="43.40963" lon="6.65113">
        <ele>340.5</ele>
        <time>2025-01-19T12:07:54Z</time>
      </trkpt>
      <trkpt lat="43.40963" lon="6.65113">
        <ele>340.5</ele>
        <time>2025-01-19T12:07:55Z</time>
      </trkpt>
      <trkpt lat="43.40963" lon="6.65113">
        <ele>340.5</ele>
        <time>2025-01-19T12:07:56Z</time>
      </trkpt>
      <trkpt lat="43.40963" lon="6.65113">
        <ele>340.6</ele>
        <time>2025-01-19T12:07:57Z</time>
      </trkpt>
      <trkpt lat="43.40963" lon="6.65113">
        <ele>340.6</ele>
        <time>2025-01-19T12:07:58Z</time>
      </trkpt>
      <trkpt lat="43.40963" lon="6.65113">
        <ele>340.6</ele>
        <time>2025-01-19T12:07:59Z</time>
      </trkpt>
      <trkpt lat="43.40963" lon="6.65113">
        <ele>340.6</ele>
        <time>2025-01-19T12:08:00Z</time>
      </trkpt>
      <trkpt lat="43.40963" lon="6.65113">
        <ele>340.5</ele>
        <time>2025-01-19T12:08:01Z</time>
      </trkpt>
      <trkpt lat="43.40963" lon="6.65113">
        <ele>340.4</ele>
        <time>2025-01-19T12:08:02Z</time>
      </trkpt>
      <trkpt lat="43.40963" lon="6.65113">
        <ele>340.4</ele>
        <time>2025-01-19T12:08:03Z</time>
      </trkpt>
      <trkpt lat="43.40963" lon="6.65113">
        <ele>340.5</ele>
        <time>2025-01-19T12:08:04Z</time>
      </trkpt>
      <trkpt lat="43.40963" lon="6.65113">
        <ele>340.5</ele>
        <time>2025-01-19T12:08:05Z</time>
      </trkpt>
      <trkpt lat="43.40963" lon="6.65113">
        <ele>340.5</ele>
        <time>2025-01-19T12:08:06Z</time>
      </trkpt>
      <trkpt lat="43.40963" lon="6.65113">
        <ele>340.5</ele>
        <time>2025-01-19T12:08:07Z</time>
      </trkpt>
      <trkpt lat="43.40963" lon="6.65113">
        <ele>340.5</ele>
        <time>2025-01-19T12:08:08Z</time>
      </trkpt>
      <trkpt lat="43.40963" lon="6.65113">
        <ele>340.5</ele>
        <time>2025-01-19T12:08:09Z</time>
      </trkpt>
      <trkpt lat="43.40963" lon="6.65113">
        <ele>340.5</ele>
        <time>2025-01-19T12:08:10Z</time>
      </trkpt>
      <trkpt lat="43.40963" lon="6.65113">
        <ele>340.6</ele>
        <time>2025-01-19T12:08:11Z</time>
      </trkpt>
      <trkpt lat="43.40963" lon="6.65113">
        <ele>340.7</ele>
        <time>2025-01-19T12:08:12Z</time>
      </trkpt>
      <trkpt lat="43.40963" lon="6.65113">
        <ele>340.7</ele>
        <time>2025-01-19T12:08:13Z</time>
      </trkpt>
      <trkpt lat="43.40963" lon="6.65113">
        <ele>340.7</ele>
        <time>2025-01-19T12:08:14Z</time>
      </trkpt>
      <trkpt lat="43.40963" lon="6.65113">
        <ele>340.6</ele>
        <time>2025-01-19T12:08:15Z</time>
      </trkpt>
      <trkpt lat="43.40963" lon="6.65112">
        <ele>340.6</ele>
        <time>2025-01-19T12:08:16Z</time>
      </trkpt>
      <trkpt lat="43.40963" lon="6.65112">
        <ele>340.7</ele>
        <time>2025-01-19T12:08:17Z</time>
      </trkpt>
      <trkpt lat="43.40963" lon="6.65112">
        <ele>340.6</ele>
        <time>2025-01-19T12:08:18Z</time>
      </trkpt>
      <trkpt lat="43.40963" lon="6.65112">
        <ele>340.5</ele>
        <time>2025-01-19T12:08:19Z</time>
      </trkpt>
      <trkpt lat="43.40963" lon="6.65112">
        <ele>340.4</ele>
        <time>2025-01-19T12:08:20Z</time>
      </trkpt>
      <trkpt lat="43.40963" lon="6.65112">
        <ele>340.3</ele>
        <time>2025-01-19T12:08:21Z</time>
      </trkpt>
      <trkpt lat="43.40963" lon="6.65112">
        <ele>340.3</ele>
        <time>2025-01-19T12:08:22Z</time>
      </trkpt>
      <trkpt lat="43.40963" lon="6.65111">
        <ele>340.3</ele>
        <time>2025-01-19T12:08:23Z</time>
      </trkpt>
      <trkpt lat="43.40963" lon="6.65111">
        <ele>340.4</ele>
        <time>2025-01-19T12:08:24Z</time>
      </trkpt>
      <trkpt lat="43.40963" lon="6.65111">
        <ele>340.4</ele>
        <time>2025-01-19T12:08:25Z</time>
      </trkpt>
      <trkpt lat="43.40963" lon="6.65111">
        <ele>340.5</ele>
        <time>2025-01-19T12:08:26Z</time>
      </trkpt>
      <trkpt lat="43.40963" lon="6.65111">
        <ele>340.5</ele>
        <time>2025-01-19T12:08:27Z</time>
      </trkpt>
      <trkpt lat="43.40963" lon="6.65111">
        <ele>340.5</ele>
        <time>2025-01-19T12:08:28Z</time>
      </trkpt>
      <trkpt lat="43.40963" lon="6.65111">
        <ele>340.4</ele>
        <time>2025-01-19T12:08:29Z</time>
      </trkpt>
      <trkpt lat="43.40963" lon="6.65111">
        <ele>340.4</ele>
        <time>2025-01-19T12:08:30Z</time>
      </trkpt>
      <trkpt lat="43.40963" lon="6.65111">
        <ele>340.3</ele>
        <time>2025-01-19T12:08:31Z</time>
      </trkpt>
      <trkpt lat="43.40963" lon="6.65111">
        <ele>340.3</ele>
        <time>2025-01-19T12:08:32Z</time>
      </trkpt>
      <trkpt lat="43.40963" lon="6.65111">
        <ele>340.3</ele>
        <time>2025-01-19T12:08:33Z</time>
      </trkpt>
      <trkpt lat="43.40963" lon="6.65111">
        <ele>340.3</ele>
        <time>2025-01-19T12:08:34Z</time>
      </trkpt>
      <trkpt lat="43.40963" lon="6.65111">
        <ele>340.3</ele>
        <time>2025-01-19T12:08:35Z</time>
      </trkpt>
      <trkpt lat="43.40963" lon="6.65111">
        <ele>340.3</ele>
        <time>2025-01-19T12:08:36Z</time>
      </trkpt>
      <trkpt lat="43.40963" lon="6.65111">
        <ele>340.3</ele>
        <time>2025-01-19T12:08:37Z</time>
      </trkpt>
      <trkpt lat="43.40963" lon="6.65112">
        <ele>340.3</ele>
        <time>2025-01-19T12:08:38Z</time>
      </trkpt>
      <trkpt lat="43.40963" lon="6.65112">
        <ele>340.4</ele>
        <time>2025-01-19T12:08:39Z</time>
      </trkpt>
      <trkpt lat="43.40963" lon="6.65112">
        <ele>340.4</ele>
        <time>2025-01-19T12:08:40Z</time>
      </trkpt>
      <trkpt lat="43.40962" lon="6.65112">
        <ele>340.4</ele>
        <time>2025-01-19T12:08:41Z</time>
      </trkpt>
      <trkpt lat="43.40963" lon="6.65112">
        <ele>340.4</ele>
        <time>2025-01-19T12:08:42Z</time>
      </trkpt>
      <trkpt lat="43.40963" lon="6.65112">
        <ele>340.4</ele>
        <time>2025-01-19T12:08:43Z</time>
      </trkpt>
      <trkpt lat="43.40963" lon="6.65112">
        <ele>340.4</ele>
        <time>2025-01-19T12:08:44Z</time>
      </trkpt>
      <trkpt lat="43.40962" lon="6.65112">
        <ele>340.4</ele>
        <time>2025-01-19T12:08:45Z</time>
      </trkpt>
      <trkpt lat="43.40962" lon="6.65112">
        <ele>340.4</ele>
        <time>2025-01-19T12:08:46Z</time>
      </trkpt>
      <trkpt lat="43.40962" lon="6.65112">
        <ele>340.4</ele>
        <time>2025-01-19T12:08:47Z</time>
      </trkpt>
      <trkpt lat="43.40962" lon="6.65112">
        <ele>340.4</ele>
        <time>2025-01-19T12:08:48Z</time>
      </trkpt>
      <trkpt lat="43.40962" lon="6.65113">
        <ele>340.5</ele>
        <time>2025-01-19T12:08:49Z</time>
      </trkpt>
      <trkpt lat="43.40962" lon="6.65113">
        <ele>340.5</ele>
        <time>2025-01-19T12:08:50Z</time>
      </trkpt>
      <trkpt lat="43.40962" lon="6.65113">
        <ele>340.5</ele>
        <time>2025-01-19T12:08:51Z</time>
      </trkpt>
      <trkpt lat="43.40962" lon="6.65113">
        <ele>340.5</ele>
        <time>2025-01-19T12:08:52Z</time>
      </trkpt>
      <trkpt lat="43.40962" lon="6.65113">
        <ele>340.5</ele>
        <time>2025-01-19T12:08:53Z</time>
      </trkpt>
      <trkpt lat="43.40962" lon="6.65113">
        <ele>340.5</ele>
        <time>2025-01-19T12:08:54Z</time>
      </trkpt>
      <trkpt lat="43.40962" lon="6.65113">
        <ele>340.5</ele>
        <time>2025-01-19T12:08:55Z</time>
      </trkpt>
      <trkpt lat="43.40962" lon="6.65113">
        <ele>340.4</ele>
        <time>2025-01-19T12:08:56Z</time>
      </trkpt>
      <trkpt lat="43.40962" lon="6.65113">
        <ele>340.5</ele>
        <time>2025-01-19T12:08:57Z</time>
      </trkpt>
      <trkpt lat="43.40962" lon="6.65113">
        <ele>340.5</ele>
        <time>2025-01-19T12:08:58Z</time>
      </trkpt>
      <trkpt lat="43.40962" lon="6.65113">
        <ele>340.5</ele>
        <time>2025-01-19T12:08:59Z</time>
      </trkpt>
      <trkpt lat="43.40962" lon="6.65113">
        <ele>340.6</ele>
        <time>2025-01-19T12:09:00Z</time>
      </trkpt>
      <trkpt lat="43.40962" lon="6.65113">
        <ele>340.6</ele>
        <time>2025-01-19T12:09:01Z</time>
      </trkpt>
      <trkpt lat="43.40962" lon="6.65113">
        <ele>340.7</ele>
        <time>2025-01-19T12:09:02Z</time>
      </trkpt>
      <trkpt lat="43.40962" lon="6.65113">
        <ele>340.6</ele>
        <time>2025-01-19T12:09:03Z</time>
      </trkpt>
      <trkpt lat="43.40962" lon="6.65113">
        <ele>340.7</ele>
        <time>2025-01-19T12:09:04Z</time>
      </trkpt>
      <trkpt lat="43.40962" lon="6.65113">
        <ele>340.7</ele>
        <time>2025-01-19T12:09:05Z</time>
      </trkpt>
      <trkpt lat="43.40962" lon="6.65113">
        <ele>340.7</ele>
        <time>2025-01-19T12:09:06Z</time>
      </trkpt>
      <trkpt lat="43.40962" lon="6.65113">
        <ele>340.7</ele>
        <time>2025-01-19T12:09:07Z</time>
      </trkpt>
      <trkpt lat="43.40962" lon="6.65113">
        <ele>340.7</ele>
        <time>2025-01-19T12:09:08Z</time>
      </trkpt>
      <trkpt lat="43.40962" lon="6.65113">
        <ele>340.7</ele>
        <time>2025-01-19T12:09:09Z</time>
      </trkpt>
      <trkpt lat="43.40961" lon="6.65113">
        <ele>340.7</ele>
        <time>2025-01-19T12:09:10Z</time>
      </trkpt>
      <trkpt lat="43.40961" lon="6.65113">
        <ele>340.7</ele>
        <time>2025-01-19T12:09:11Z</time>
      </trkpt>
      <trkpt lat="43.40961" lon="6.65113">
        <ele>340.7</ele>
        <time>2025-01-19T12:09:12Z</time>
      </trkpt>
      <trkpt lat="43.40961" lon="6.65113">
        <ele>340.7</ele>
        <time>2025-01-19T12:09:13Z</time>
      </trkpt>
      <trkpt lat="43.40961" lon="6.65113">
        <ele>340.7</ele>
        <time>2025-01-19T12:09:14Z</time>
      </trkpt>
      <trkpt lat="43.40961" lon="6.65113">
        <ele>340.7</ele>
        <time>2025-01-19T12:09:15Z</time>
      </trkpt>
      <trkpt lat="43.40961" lon="6.65113">
        <ele>340.6</ele>
        <time>2025-01-19T12:09:16Z</time>
      </trkpt>
      <trkpt lat="43.40961" lon="6.65113">
        <ele>340.6</ele>
        <time>2025-01-19T12:09:17Z</time>
      </trkpt>
      <trkpt lat="43.40961" lon="6.65113">
        <ele>340.6</ele>
        <time>2025-01-19T12:09:18Z</time>
      </trkpt>
      <trkpt lat="43.40961" lon="6.65113">
        <ele>340.6</ele>
        <time>2025-01-19T12:09:19Z</time>
      </trkpt>
      <trkpt lat="43.40961" lon="6.65113">
        <ele>340.6</ele>
        <time>2025-01-19T12:09:20Z</time>
      </trkpt>
      <trkpt lat="43.40961" lon="6.65113">
        <ele>340.6</ele>
        <time>2025-01-19T12:09:21Z</time>
      </trkpt>
      <trkpt lat="43.40961" lon="6.65113">
        <ele>340.6</ele>
        <time>2025-01-19T12:09:22Z</time>
      </trkpt>
      <trkpt lat="43.40961" lon="6.65113">
        <ele>340.6</ele>
        <time>2025-01-19T12:09:23Z</time>
      </trkpt>
      <trkpt lat="43.40961" lon="6.65113">
        <ele>340.6</ele>
        <time>2025-01-19T12:09:24Z</time>
      </trkpt>
      <trkpt lat="43.40961" lon="6.65113">
        <ele>340.6</ele>
        <time>2025-01-19T12:09:25Z</time>
      </trkpt>
      <trkpt lat="43.40961" lon="6.65113">
        <ele>340.6</ele>
        <time>2025-01-19T12:09:26Z</time>
      </trkpt>
      <trkpt lat="43.40961" lon="6.65112">
        <ele>340.6</ele>
        <time>2025-01-19T12:09:27Z</time>
      </trkpt>
      <trkpt lat="43.40961" lon="6.65112">
        <ele>340.6</ele>
        <time>2025-01-19T12:09:28Z</time>
      </trkpt>
      <trkpt lat="43.40961" lon="6.65112">
        <ele>340.6</ele>
        <time>2025-01-19T12:09:29Z</time>
      </trkpt>
      <trkpt lat="43.40961" lon="6.65112">
        <ele>340.6</ele>
        <time>2025-01-19T12:09:30Z</time>
      </trkpt>
      <trkpt lat="43.40961" lon="6.65112">
        <ele>340.6</ele>
        <time>2025-01-19T12:09:31Z</time>
      </trkpt>
      <trkpt lat="43.40961" lon="6.65112">
        <ele>340.7</ele>
        <time>2025-01-19T12:09:32Z</time>
      </trkpt>
      <trkpt lat="43.40961" lon="6.65112">
        <ele>340.6</ele>
        <time>2025-01-19T12:09:33Z</time>
      </trkpt>
      <trkpt lat="43.40961" lon="6.65112">
        <ele>340.5</ele>
        <time>2025-01-19T12:09:34Z</time>
      </trkpt>
      <trkpt lat="43.40961" lon="6.65112">
        <ele>340.6</ele>
        <time>2025-01-19T12:09:35Z</time>
      </trkpt>
      <trkpt lat="43.40961" lon="6.65112">
        <ele>340.5</ele>
        <time>2025-01-19T12:09:36Z</time>
      </trkpt>
      <trkpt lat="43.40961" lon="6.65112">
        <ele>340.4</ele>
        <time>2025-01-19T12:09:37Z</time>
      </trkpt>
      <trkpt lat="43.40961" lon="6.65112">
        <ele>340.4</ele>
        <time>2025-01-19T12:09:38Z</time>
      </trkpt>
      <trkpt lat="43.40961" lon="6.65112">
        <ele>340.5</ele>
        <time>2025-01-19T12:09:39Z</time>
      </trkpt>
      <trkpt lat="43.40961" lon="6.65112">
        <ele>340.4</ele>
        <time>2025-01-19T12:09:40Z</time>
      </trkpt>
      <trkpt lat="43.40961" lon="6.65112">
        <ele>340.5</ele>
        <time>2025-01-19T12:09:41Z</time>
      </trkpt>
      <trkpt lat="43.40961" lon="6.65112">
        <ele>340.5</ele>
        <time>2025-01-19T12:09:42Z</time>
      </trkpt>
      <trkpt lat="43.40961" lon="6.65112">
        <ele>340.5</ele>
        <time>2025-01-19T12:09:43Z</time>
      </trkpt>
      <trkpt lat="43.40961" lon="6.65112">
        <ele>340.5</ele>
        <time>2025-01-19T12:09:44Z</time>
      </trkpt>
      <trkpt lat="43.40961" lon="6.65112">
        <ele>340.4</ele>
        <time>2025-01-19T12:09:45Z</time>
      </trkpt>
      <trkpt lat="43.40961" lon="6.65111">
        <ele>340.4</ele>
        <time>2025-01-19T12:09:46Z</time>
      </trkpt>
      <trkpt lat="43.40961" lon="6.65111">
        <ele>340.4</ele>
        <time>2025-01-19T12:09:47Z</time>
      </trkpt>
      <trkpt lat="43.40961" lon="6.65111">
        <ele>340.4</ele>
        <time>2025-01-19T12:09:48Z</time>
      </trkpt>
      <trkpt lat="43.40961" lon="6.65111">
        <ele>340.5</ele>
        <time>2025-01-19T12:09:49Z</time>
      </trkpt>
      <trkpt lat="43.40962" lon="6.65111">
        <ele>340.5</ele>
        <time>2025-01-19T12:09:50Z</time>
      </trkpt>
      <trkpt lat="43.40962" lon="6.65111">
        <ele>340.5</ele>
        <time>2025-01-19T12:09:51Z</time>
      </trkpt>
      <trkpt lat="43.40962" lon="6.65111">
        <ele>340.5</ele>
        <time>2025-01-19T12:09:52Z</time>
      </trkpt>
      <trkpt lat="43.40962" lon="6.65111">
        <ele>340.5</ele>
        <time>2025-01-19T12:09:53Z</time>
      </trkpt>
      <trkpt lat="43.40962" lon="6.65111">
        <ele>340.6</ele>
        <time>2025-01-19T12:09:54Z</time>
      </trkpt>
      <trkpt lat="43.40962" lon="6.65111">
        <ele>340.6</ele>
        <time>2025-01-19T12:09:55Z</time>
      </trkpt>
      <trkpt lat="43.40962" lon="6.65111">
        <ele>340.7</ele>
        <time>2025-01-19T12:09:56Z</time>
      </trkpt>
      <trkpt lat="43.40962" lon="6.65111">
        <ele>340.7</ele>
        <time>2025-01-19T12:09:57Z</time>
      </trkpt>
      <trkpt lat="43.40962" lon="6.65111">
        <ele>340.8</ele>
        <time>2025-01-19T12:09:58Z</time>
      </trkpt>
      <trkpt lat="43.40962" lon="6.65111">
        <ele>340.8</ele>
        <time>2025-01-19T12:09:59Z</time>
      </trkpt>
      <trkpt lat="43.40962" lon="6.65111">
        <ele>340.7</ele>
        <time>2025-01-19T12:10:00Z</time>
      </trkpt>
      <trkpt lat="43.40962" lon="6.65111">
        <ele>340.7</ele>
        <time>2025-01-19T12:10:01Z</time>
      </trkpt>
      <trkpt lat="43.40962" lon="6.65111">
        <ele>340.7</ele>
        <time>2025-01-19T12:10:02Z</time>
      </trkpt>
      <trkpt lat="43.40962" lon="6.65111">
        <ele>340.7</ele>
        <time>2025-01-19T12:10:03Z</time>
      </trkpt>
      <trkpt lat="43.40962" lon="6.65111">
        <ele>340.7</ele>
        <time>2025-01-19T12:10:04Z</time>
      </trkpt>
      <trkpt lat="43.40962" lon="6.65111">
        <ele>340.7</ele>
        <time>2025-01-19T12:10:05Z</time>
      </trkpt>
      <trkpt lat="43.40962" lon="6.65111">
        <ele>340.6</ele>
        <time>2025-01-19T12:10:06Z</time>
      </trkpt>
      <trkpt lat="43.40962" lon="6.65111">
        <ele>340.7</ele>
        <time>2025-01-19T12:10:07Z</time>
      </trkpt>
      <trkpt lat="43.40962" lon="6.65112">
        <ele>340.7</ele>
        <time>2025-01-19T12:10:08Z</time>
      </trkpt>
      <trkpt lat="43.40962" lon="6.65112">
        <ele>340.7</ele>
        <time>2025-01-19T12:10:09Z</time>
      </trkpt>
      <trkpt lat="43.40962" lon="6.65112">
        <ele>340.7</ele>
        <time>2025-01-19T12:10:10Z</time>
      </trkpt>
      <trkpt lat="43.40961" lon="6.65112">
        <ele>340.7</ele>
        <time>2025-01-19T12:10:11Z</time>
      </trkpt>
      <trkpt lat="43.40961" lon="6.65112">
        <ele>340.6</ele>
        <time>2025-01-19T12:10:12Z</time>
      </trkpt>
      <trkpt lat="43.40961" lon="6.65112">
        <ele>340.6</ele>
        <time>2025-01-19T12:10:13Z</time>
      </trkpt>
      <trkpt lat="43.40961" lon="6.65112">
        <ele>340.5</ele>
        <time>2025-01-19T12:10:14Z</time>
      </trkpt>
      <trkpt lat="43.40961" lon="6.65113">
        <ele>340.5</ele>
        <time>2025-01-19T12:10:15Z</time>
      </trkpt>
      <trkpt lat="43.40961" lon="6.65113">
        <ele>340.4</ele>
        <time>2025-01-19T12:10:16Z</time>
      </trkpt>
      <trkpt lat="43.40961" lon="6.65113">
        <ele>340.4</ele>
        <time>2025-01-19T12:10:17Z</time>
      </trkpt>
      <trkpt lat="43.40961" lon="6.65113">
        <ele>340.4</ele>
        <time>2025-01-19T12:10:18Z</time>
      </trkpt>
      <trkpt lat="43.40961" lon="6.65113">
        <ele>340.4</ele>
        <time>2025-01-19T12:10:19Z</time>
      </trkpt>
      <trkpt lat="43.40961" lon="6.65113">
        <ele>340.4</ele>
        <time>2025-01-19T12:10:20Z</time>
      </trkpt>
      <trkpt lat="43.40961" lon="6.65113">
        <ele>340.4</ele>
        <time>2025-01-19T12:10:21Z</time>
      </trkpt>
      <trkpt lat="43.40961" lon="6.65113">
        <ele>340.3</ele>
        <time>2025-01-19T12:10:22Z</time>
      </trkpt>
      <trkpt lat="43.40961" lon="6.65114">
        <ele>340.3</ele>
        <time>2025-01-19T12:10:23Z</time>
      </trkpt>
      <trkpt lat="43.40961" lon="6.65114">
        <ele>340.3</ele>
        <time>2025-01-19T12:10:24Z</time>
      </trkpt>
      <trkpt lat="43.40961" lon="6.65114">
        <ele>340.3</ele>
        <time>2025-01-19T12:10:25Z</time>
      </trkpt>
      <trkpt lat="43.40961" lon="6.65114">
        <ele>340.3</ele>
        <time>2025-01-19T12:10:26Z</time>
      </trkpt>
      <trkpt lat="43.40961" lon="6.65114">
        <ele>340.3</ele>
        <time>2025-01-19T12:10:27Z</time>
      </trkpt>
      <trkpt lat="43.40961" lon="6.65114">
        <ele>340.2</ele>
        <time>2025-01-19T12:10:28Z</time>
      </trkpt>
      <trkpt lat="43.40961" lon="6.65114">
        <ele>340.3</ele>
        <time>2025-01-19T12:10:29Z</time>
      </trkpt>
      <trkpt lat="43.40961" lon="6.65114">
        <ele>340.3</ele>
        <time>2025-01-19T12:10:30Z</time>
      </trkpt>
      <trkpt lat="43.40961" lon="6.65114">
        <ele>340.3</ele>
        <time>2025-01-19T12:10:31Z</time>
      </trkpt>
      <trkpt lat="43.40961" lon="6.65114">
        <ele>340.4</ele>
        <time>2025-01-19T12:10:32Z</time>
      </trkpt>
      <trkpt lat="43.40961" lon="6.65113">
        <ele>340.5</ele>
        <time>2025-01-19T12:10:33Z</time>
      </trkpt>
      <trkpt lat="43.40961" lon="6.65113">
        <ele>340.5</ele>
        <time>2025-01-19T12:10:34Z</time>
      </trkpt>
      <trkpt lat="43.40961" lon="6.65113">
        <ele>340.6</ele>
        <time>2025-01-19T12:10:35Z</time>
      </trkpt>
      <trkpt lat="43.40961" lon="6.65113">
        <ele>340.7</ele>
        <time>2025-01-19T12:10:36Z</time>
      </trkpt>
      <trkpt lat="43.4096" lon="6.65113">
        <ele>340.7</ele>
        <time>2025-01-19T12:10:37Z</time>
      </trkpt>
      <trkpt lat="43.4096" lon="6.65113">
        <ele>340.7</ele>
        <time>2025-01-19T12:10:38Z</time>
      </trkpt>
      <trkpt lat="43.4096" lon="6.65113">
        <ele>340.8</ele>
        <time>2025-01-19T12:10:39Z</time>
      </trkpt>
      <trkpt lat="43.4096" lon="6.65113">
        <ele>340.8</ele>
        <time>2025-01-19T12:10:40Z</time>
      </trkpt>
      <trkpt lat="43.4096" lon="6.65114">
        <ele>340.7</ele>
        <time>2025-01-19T12:10:41Z</time>
      </trkpt>
      <trkpt lat="43.4096" lon="6.65114">
        <ele>340.7</ele>
        <time>2025-01-19T12:10:42Z</time>
      </trkpt>
      <trkpt lat="43.4096" lon="6.65114">
        <ele>340.7</ele>
        <time>2025-01-19T12:10:43Z</time>
      </trkpt>
      <trkpt lat="43.4096" lon="6.65114">
        <ele>340.7</ele>
        <time>2025-01-19T12:10:44Z</time>
      </trkpt>
      <trkpt lat="43.4096" lon="6.65114">
        <ele>340.7</ele>
        <time>2025-01-19T12:10:45Z</time>
      </trkpt>
      <trkpt lat="43.4096" lon="6.65114">
        <ele>340.7</ele>
        <time>2025-01-19T12:10:46Z</time>
      </trkpt>
      <trkpt lat="43.4096" lon="6.65114">
        <ele>340.7</ele>
        <time>2025-01-19T12:10:47Z</time>
      </trkpt>
      <trkpt lat="43.4096" lon="6.65114">
        <ele>340.8</ele>
        <time>2025-01-19T12:10:48Z</time>
      </trkpt>
      <trkpt lat="43.4096" lon="6.65114">
        <ele>340.8</ele>
        <time>2025-01-19T12:10:49Z</time>
      </trkpt>
      <trkpt lat="43.4096" lon="6.65114">
        <ele>340.8</ele>
        <time>2025-01-19T12:10:50Z</time>
      </trkpt>
      <trkpt lat="43.4096" lon="6.65114">
        <ele>340.8</ele>
        <time>2025-01-19T12:10:51Z</time>
      </trkpt>
      <trkpt lat="43.40961" lon="6.65114">
        <ele>340.8</ele>
        <time>2025-01-19T12:10:52Z</time>
      </trkpt>
      <trkpt lat="43.40961" lon="6.65114">
        <ele>340.7</ele>
        <time>2025-01-19T12:10:53Z</time>
      </trkpt>
      <trkpt lat="43.40961" lon="6.65114">
        <ele>340.7</ele>
        <time>2025-01-19T12:10:54Z</time>
      </trkpt>
      <trkpt lat="43.40961" lon="6.65114">
        <ele>340.7</ele>
        <time>2025-01-19T12:10:55Z</time>
      </trkpt>
      <trkpt lat="43.40961" lon="6.65114">
        <ele>340.7</ele>
        <time>2025-01-19T12:10:56Z</time>
      </trkpt>
      <trkpt lat="43.40961" lon="6.65114">
        <ele>340.7</ele>
        <time>2025-01-19T12:10:57Z</time>
      </trkpt>
      <trkpt lat="43.40961" lon="6.65114">
        <ele>340.6</ele>
        <time>2025-01-19T12:10:58Z</time>
      </trkpt>
      <trkpt lat="43.40961" lon="6.65114">
        <ele>340.6</ele>
        <time>2025-01-19T12:10:59Z</time>
      </trkpt>
      <trkpt lat="43.40961" lon="6.65114">
        <ele>340.6</ele>
        <time>2025-01-19T12:11:00Z</time>
      </trkpt>
      <trkpt lat="43.40961" lon="6.65114">
        <ele>340.6</ele>
        <time>2025-01-19T12:11:01Z</time>
      </trkpt>
      <trkpt lat="43.40961" lon="6.65114">
        <ele>340.7</ele>
        <time>2025-01-19T12:11:02Z</time>
      </trkpt>
      <trkpt lat="43.40961" lon="6.65114">
        <ele>340.7</ele>
        <time>2025-01-19T12:11:03Z</time>
      </trkpt>
      <trkpt lat="43.40961" lon="6.65115">
        <ele>340.7</ele>
        <time>2025-01-19T12:11:04Z</time>
      </trkpt>
      <trkpt lat="43.40961" lon="6.65115">
        <ele>340.7</ele>
        <time>2025-01-19T12:11:05Z</time>
      </trkpt>
      <trkpt lat="43.40961" lon="6.65115">
        <ele>340.8</ele>
        <time>2025-01-19T12:11:06Z</time>
      </trkpt>
      <trkpt lat="43.40961" lon="6.65115">
        <ele>340.8</ele>
        <time>2025-01-19T12:11:07Z</time>
      </trkpt>
      <trkpt lat="43.40961" lon="6.65115">
        <ele>340.8</ele>
        <time>2025-01-19T12:11:08Z</time>
      </trkpt>
      <trkpt lat="43.40961" lon="6.65115">
        <ele>340.8</ele>
        <time>2025-01-19T12:11:09Z</time>
      </trkpt>
      <trkpt lat="43.40961" lon="6.65115">
        <ele>340.8</ele>
        <time>2025-01-19T12:11:10Z</time>
      </trkpt>
      <trkpt lat="43.40961" lon="6.65115">
        <ele>340.8</ele>
        <time>2025-01-19T12:11:11Z</time>
      </trkpt>
      <trkpt lat="43.40962" lon="6.65115">
        <ele>340.7</ele>
        <time>2025-01-19T12:11:12Z</time>
      </trkpt>
      <trkpt lat="43.40962" lon="6.65115">
        <ele>340.7</ele>
        <time>2025-01-19T12:11:13Z</time>
      </trkpt>
      <trkpt lat="43.40962" lon="6.65115">
        <ele>340.8</ele>
        <time>2025-01-19T12:11:14Z</time>
      </trkpt>
      <trkpt lat="43.40962" lon="6.65115">
        <ele>340.7</ele>
        <time>2025-01-19T12:11:15Z</time>
      </trkpt>
      <trkpt lat="43.40962" lon="6.65115">
        <ele>340.7</ele>
        <time>2025-01-19T12:11:16Z</time>
      </trkpt>
      <trkpt lat="43.40962" lon="6.65115">
        <ele>340.6</ele>
        <time>2025-01-19T12:11:17Z</time>
      </trkpt>
      <trkpt lat="43.40962" lon="6.65115">
        <ele>340.6</ele>
        <time>2025-01-19T12:11:18Z</time>
      </trkpt>
      <trkpt lat="43.40962" lon="6.65115">
        <ele>340.6</ele>
        <time>2025-01-19T12:11:19Z</time>
      </trkpt>
      <trkpt lat="43.40962" lon="6.65115">
        <ele>340.6</ele>
        <time>2025-01-19T12:11:20Z</time>
      </trkpt>
      <trkpt lat="43.40962" lon="6.65115">
        <ele>340.6</ele>
        <time>2025-01-19T12:11:21Z</time>
      </trkpt>
      <trkpt lat="43.40962" lon="6.65115">
        <ele>340.7</ele>
        <time>2025-01-19T12:11:22Z</time>
      </trkpt>
      <trkpt lat="43.40962" lon="6.65115">
        <ele>340.7</ele>
        <time>2025-01-19T12:11:23Z</time>
      </trkpt>
      <trkpt lat="43.40962" lon="6.65115">
        <ele>340.7</ele>
        <time>2025-01-19T12:11:24Z</time>
      </trkpt>
      <trkpt lat="43.40962" lon="6.65115">
        <ele>340.7</ele>
        <time>2025-01-19T12:11:25Z</time>
      </trkpt>
      <trkpt lat="43.40962" lon="6.65115">
        <ele>340.7</ele>
        <time>2025-01-19T12:11:26Z</time>
      </trkpt>
      <trkpt lat="43.40962" lon="6.65115">
        <ele>340.8</ele>
        <time>2025-01-19T12:11:27Z</time>
      </trkpt>
      <trkpt lat="43.40962" lon="6.65115">
        <ele>340.8</ele>
        <time>2025-01-19T12:11:28Z</time>
      </trkpt>
      <trkpt lat="43.40962" lon="6.65115">
        <ele>340.9</ele>
        <time>2025-01-19T12:11:29Z</time>
      </trkpt>
      <trkpt lat="43.40962" lon="6.65115">
        <ele>341</ele>
        <time>2025-01-19T12:11:30Z</time>
      </trkpt>
      <trkpt lat="43.40962" lon="6.65115">
        <ele>340.9</ele>
        <time>2025-01-19T12:11:31Z</time>
      </trkpt>
      <trkpt lat="43.40962" lon="6.65115">
        <ele>340.9</ele>
        <time>2025-01-19T12:11:32Z</time>
      </trkpt>
      <trkpt lat="43.40962" lon="6.65115">
        <ele>340.9</ele>
        <time>2025-01-19T12:11:33Z</time>
      </trkpt>
      <trkpt lat="43.40961" lon="6.65115">
        <ele>340.8</ele>
        <time>2025-01-19T12:11:34Z</time>
      </trkpt>
      <trkpt lat="43.40961" lon="6.65115">
        <ele>340.8</ele>
        <time>2025-01-19T12:11:35Z</time>
      </trkpt>
      <trkpt lat="43.40962" lon="6.65115">
        <ele>340.7</ele>
        <time>2025-01-19T12:11:36Z</time>
      </trkpt>
      <trkpt lat="43.40962" lon="6.65115">
        <ele>340.7</ele>
        <time>2025-01-19T12:11:37Z</time>
      </trkpt>
      <trkpt lat="43.40962" lon="6.65115">
        <ele>340.8</ele>
        <time>2025-01-19T12:11:38Z</time>
      </trkpt>
      <trkpt lat="43.40962" lon="6.65115">
        <ele>340.8</ele>
        <time>2025-01-19T12:11:39Z</time>
      </trkpt>
      <trkpt lat="43.40962" lon="6.65115">
        <ele>340.9</ele>
        <time>2025-01-19T12:11:40Z</time>
      </trkpt>
      <trkpt lat="43.40962" lon="6.65115">
        <ele>340.8</ele>
        <time>2025-01-19T12:11:41Z</time>
      </trkpt>
      <trkpt lat="43.40962" lon="6.65116">
        <ele>340.8</ele>
        <time>2025-01-19T12:11:42Z</time>
      </trkpt>
      <trkpt lat="43.40962" lon="6.65116">
        <ele>340.8</ele>
        <time>2025-01-19T12:11:43Z</time>
      </trkpt>
      <trkpt lat="43.40962" lon="6.65116">
        <ele>340.8</ele>
        <time>2025-01-19T12:11:44Z</time>
      </trkpt>
      <trkpt lat="43.40962" lon="6.65116">
        <ele>340.8</ele>
        <time>2025-01-19T12:11:45Z</time>
      </trkpt>
      <trkpt lat="43.40962" lon="6.65116">
        <ele>340.7</ele>
        <time>2025-01-19T12:11:46Z</time>
      </trkpt>
      <trkpt lat="43.40962" lon="6.65116">
        <ele>340.7</ele>
        <time>2025-01-19T12:11:47Z</time>
      </trkpt>
      <trkpt lat="43.40962" lon="6.65116">
        <ele>340.7</ele>
        <time>2025-01-19T12:11:48Z</time>
      </trkpt>
      <trkpt lat="43.40962" lon="6.65116">
        <ele>340.7</ele>
        <time>2025-01-19T12:11:49Z</time>
      </trkpt>
      <trkpt lat="43.40962" lon="6.65116">
        <ele>340.7</ele>
        <time>2025-01-19T12:11:50Z</time>
      </trkpt>
      <trkpt lat="43.40961" lon="6.65116">
        <ele>340.7</ele>
        <time>2025-01-19T12:11:51Z</time>
      </trkpt>
      <trkpt lat="43.40962" lon="6.65116">
        <ele>340.9</ele>
        <time>2025-01-19T12:11:52Z</time>
      </trkpt>
      <trkpt lat="43.40962" lon="6.65115">
        <ele>340.9</ele>
        <time>2025-01-19T12:11:53Z</time>
      </trkpt>
      <trkpt lat="43.40962" lon="6.65116">
        <ele>340.9</ele>
        <time>2025-01-19T12:11:54Z</time>
      </trkpt>
      <trkpt lat="43.40962" lon="6.65116">
        <ele>341</ele>
        <time>2025-01-19T12:11:55Z</time>
      </trkpt>
      <trkpt lat="43.40961" lon="6.65116">
        <ele>341</ele>
        <time>2025-01-19T12:11:56Z</time>
      </trkpt>
      <trkpt lat="43.40961" lon="6.65116">
        <ele>340.9</ele>
        <time>2025-01-19T12:11:57Z</time>
      </trkpt>
      <trkpt lat="43.40961" lon="6.65116">
        <ele>340.9</ele>
        <time>2025-01-19T12:11:58Z</time>
      </trkpt>
      <trkpt lat="43.40961" lon="6.65116">
        <ele>340.9</ele>
        <time>2025-01-19T12:11:59Z</time>
      </trkpt>
      <trkpt lat="43.40961" lon="6.65116">
        <ele>340.9</ele>
        <time>2025-01-19T12:12:00Z</time>
      </trkpt>
      <trkpt lat="43.40961" lon="6.65116">
        <ele>340.9</ele>
        <time>2025-01-19T12:12:01Z</time>
      </trkpt>
      <trkpt lat="43.40961" lon="6.65116">
        <ele>340.8</ele>
        <time>2025-01-19T12:12:02Z</time>
      </trkpt>
      <trkpt lat="43.40961" lon="6.65116">
        <ele>340.8</ele>
        <time>2025-01-19T12:12:03Z</time>
      </trkpt>
      <trkpt lat="43.40961" lon="6.65116">
        <ele>340.7</ele>
        <time>2025-01-19T12:12:04Z</time>
      </trkpt>
      <trkpt lat="43.40961" lon="6.65116">
        <ele>340.7</ele>
        <time>2025-01-19T12:12:05Z</time>
      </trkpt>
      <trkpt lat="43.40961" lon="6.65116">
        <ele>340.6</ele>
        <time>2025-01-19T12:12:06Z</time>
      </trkpt>
      <trkpt lat="43.40961" lon="6.65116">
        <ele>340.7</ele>
        <time>2025-01-19T12:12:07Z</time>
      </trkpt>
      <trkpt lat="43.40961" lon="6.65115">
        <ele>340.7</ele>
        <time>2025-01-19T12:12:08Z</time>
      </trkpt>
      <trkpt lat="43.40961" lon="6.65115">
        <ele>340.7</ele>
        <time>2025-01-19T12:12:09Z</time>
      </trkpt>
      <trkpt lat="43.40961" lon="6.65115">
        <ele>340.6</ele>
        <time>2025-01-19T12:12:10Z</time>
      </trkpt>
      <trkpt lat="43.40961" lon="6.65115">
        <ele>340.6</ele>
        <time>2025-01-19T12:12:11Z</time>
      </trkpt>
      <trkpt lat="43.40961" lon="6.65115">
        <ele>340.5</ele>
        <time>2025-01-19T12:12:12Z</time>
      </trkpt>
      <trkpt lat="43.40961" lon="6.65115">
        <ele>340.5</ele>
        <time>2025-01-19T12:12:13Z</time>
      </trkpt>
      <trkpt lat="43.40961" lon="6.65115">
        <ele>340.5</ele>
        <time>2025-01-19T12:12:14Z</time>
      </trkpt>
      <trkpt lat="43.40961" lon="6.65115">
        <ele>340.6</ele>
        <time>2025-01-19T12:12:15Z</time>
      </trkpt>
      <trkpt lat="43.40961" lon="6.65115">
        <ele>340.6</ele>
        <time>2025-01-19T12:12:16Z</time>
      </trkpt>
      <trkpt lat="43.40961" lon="6.65115">
        <ele>340.7</ele>
        <time>2025-01-19T12:12:17Z</time>
      </trkpt>
      <trkpt lat="43.40961" lon="6.65115">
        <ele>340.7</ele>
        <time>2025-01-19T12:12:18Z</time>
      </trkpt>
      <trkpt lat="43.40961" lon="6.65115">
        <ele>340.7</ele>
        <time>2025-01-19T12:12:19Z</time>
      </trkpt>
      <trkpt lat="43.40961" lon="6.65115">
        <ele>340.7</ele>
        <time>2025-01-19T12:12:20Z</time>
      </trkpt>
      <trkpt lat="43.40961" lon="6.65115">
        <ele>340.7</ele>
        <time>2025-01-19T12:12:21Z</time>
      </trkpt>
      <trkpt lat="43.40961" lon="6.65115">
        <ele>340.7</ele>
        <time>2025-01-19T12:12:22Z</time>
      </trkpt>
      <trkpt lat="43.40961" lon="6.65115">
        <ele>340.7</ele>
        <time>2025-01-19T12:12:23Z</time>
      </trkpt>
      <trkpt lat="43.40961" lon="6.65115">
        <ele>340.7</ele>
        <time>2025-01-19T12:12:24Z</time>
      </trkpt>
      <trkpt lat="43.40961" lon="6.65115">
        <ele>340.6</ele>
        <time>2025-01-19T12:12:25Z</time>
      </trkpt>
      <trkpt lat="43.40961" lon="6.65115">
        <ele>340.6</ele>
        <time>2025-01-19T12:12:26Z</time>
      </trkpt>
      <trkpt lat="43.40961" lon="6.65115">
        <ele>340.6</ele>
        <time>2025-01-19T12:12:27Z</time>
      </trkpt>
      <trkpt lat="43.40961" lon="6.65115">
        <ele>340.6</ele>
        <time>2025-01-19T12:12:28Z</time>
      </trkpt>
      <trkpt lat="43.40961" lon="6.65115">
        <ele>340.6</ele>
        <time>2025-01-19T12:12:29Z</time>
      </trkpt>
      <trkpt lat="43.40961" lon="6.65115">
        <ele>340.7</ele>
        <time>2025-01-19T12:12:30Z</time>
      </trkpt>
      <trkpt lat="43.40961" lon="6.65115">
        <ele>340.7</ele>
        <time>2025-01-19T12:12:31Z</time>
      </trkpt>
      <trkpt lat="43.40961" lon="6.65115">
        <ele>340.8</ele>
        <time>2025-01-19T12:12:32Z</time>
      </trkpt>
      <trkpt lat="43.40961" lon="6.65115">
        <ele>340.8</ele>
        <time>2025-01-19T12:12:33Z</time>
      </trkpt>
      <trkpt lat="43.40961" lon="6.65115">
        <ele>340.8</ele>
        <time>2025-01-19T12:12:34Z</time>
      </trkpt>
      <trkpt lat="43.40961" lon="6.65115">
        <ele>340.9</ele>
        <time>2025-01-19T12:12:35Z</time>
      </trkpt>
      <trkpt lat="43.40961" lon="6.65115">
        <ele>340.9</ele>
        <time>2025-01-19T12:12:36Z</time>
      </trkpt>
      <trkpt lat="43.40961" lon="6.65115">
        <ele>340.9</ele>
        <time>2025-01-19T12:12:37Z</time>
      </trkpt>
      <trkpt lat="43.40961" lon="6.65115">
        <ele>340.9</ele>
        <time>2025-01-19T12:12:38Z</time>
      </trkpt>
      <trkpt lat="43.40961" lon="6.65115">
        <ele>340.9</ele>
        <time>2025-01-19T12:12:39Z</time>
      </trkpt>
      <trkpt lat="43.4096" lon="6.65115">
        <ele>340.8</ele>
        <time>2025-01-19T12:12:40Z</time>
      </trkpt>
      <trkpt lat="43.4096" lon="6.65115">
        <ele>340.8</ele>
        <time>2025-01-19T12:12:41Z</time>
      </trkpt>
      <trkpt lat="43.4096" lon="6.65115">
        <ele>340.8</ele>
        <time>2025-01-19T12:12:42Z</time>
      </trkpt>
      <trkpt lat="43.4096" lon="6.65114">
        <ele>340.8</ele>
        <time>2025-01-19T12:12:43Z</time>
      </trkpt>
      <trkpt lat="43.4096" lon="6.65114">
        <ele>340.8</ele>
        <time>2025-01-19T12:12:44Z</time>
      </trkpt>
      <trkpt lat="43.4096" lon="6.65114">
        <ele>340.7</ele>
        <time>2025-01-19T12:12:45Z</time>
      </trkpt>
      <trkpt lat="43.4096" lon="6.65114">
        <ele>340.7</ele>
        <time>2025-01-19T12:12:46Z</time>
      </trkpt>
      <trkpt lat="43.4096" lon="6.65114">
        <ele>340.7</ele>
        <time>2025-01-19T12:12:47Z</time>
      </trkpt>
      <trkpt lat="43.4096" lon="6.65113">
        <ele>340.6</ele>
        <time>2025-01-19T12:12:48Z</time>
      </trkpt>
      <trkpt lat="43.4096" lon="6.65113">
        <ele>340.6</ele>
        <time>2025-01-19T12:12:49Z</time>
      </trkpt>
      <trkpt lat="43.4096" lon="6.65113">
        <ele>340.6</ele>
        <time>2025-01-19T12:12:50Z</time>
      </trkpt>
      <trkpt lat="43.4096" lon="6.65113">
        <ele>340.6</ele>
        <time>2025-01-19T12:12:51Z</time>
      </trkpt>
      <trkpt lat="43.4096" lon="6.65113">
        <ele>340.6</ele>
        <time>2025-01-19T12:12:52Z</time>
      </trkpt>
      <trkpt lat="43.4096" lon="6.65113">
        <ele>340.5</ele>
        <time>2025-01-19T12:12:53Z</time>
      </trkpt>
      <trkpt lat="43.4096" lon="6.65113">
        <ele>340.5</ele>
        <time>2025-01-19T12:12:54Z</time>
      </trkpt>
      <trkpt lat="43.4096" lon="6.65113">
        <ele>340.5</ele>
        <time>2025-01-19T12:12:55Z</time>
      </trkpt>
      <trkpt lat="43.4096" lon="6.65113">
        <ele>340.5</ele>
        <time>2025-01-19T12:12:56Z</time>
      </trkpt>
      <trkpt lat="43.4096" lon="6.65113">
        <ele>340.5</ele>
        <time>2025-01-19T12:12:57Z</time>
      </trkpt>
      <trkpt lat="43.4096" lon="6.65113">
        <ele>340.6</ele>
        <time>2025-01-19T12:12:58Z</time>
      </trkpt>
      <trkpt lat="43.4096" lon="6.65113">
        <ele>340.6</ele>
        <time>2025-01-19T12:12:59Z</time>
      </trkpt>
      <trkpt lat="43.4096" lon="6.65113">
        <ele>340.6</ele>
        <time>2025-01-19T12:13:00Z</time>
      </trkpt>
      <trkpt lat="43.4096" lon="6.65113">
        <ele>340.7</ele>
        <time>2025-01-19T12:13:01Z</time>
      </trkpt>
      <trkpt lat="43.4096" lon="6.65113">
        <ele>340.7</ele>
        <time>2025-01-19T12:13:02Z</time>
      </trkpt>
      <trkpt lat="43.4096" lon="6.65113">
        <ele>340.7</ele>
        <time>2025-01-19T12:13:03Z</time>
      </trkpt>
      <trkpt lat="43.4096" lon="6.65113">
        <ele>340.7</ele>
        <time>2025-01-19T12:13:04Z</time>
      </trkpt>
      <trkpt lat="43.4096" lon="6.65113">
        <ele>340.7</ele>
        <time>2025-01-19T12:13:05Z</time>
      </trkpt>
      <trkpt lat="43.4096" lon="6.65113">
        <ele>340.7</ele>
        <time>2025-01-19T12:13:06Z</time>
      </trkpt>
      <trkpt lat="43.4096" lon="6.65113">
        <ele>340.8</ele>
        <time>2025-01-19T12:13:07Z</time>
      </trkpt>
      <trkpt lat="43.4096" lon="6.65113">
        <ele>340.8</ele>
        <time>2025-01-19T12:13:08Z</time>
      </trkpt>
      <trkpt lat="43.4096" lon="6.65113">
        <ele>340.8</ele>
        <time>2025-01-19T12:13:09Z</time>
      </trkpt>
      <trkpt lat="43.4096" lon="6.65113">
        <ele>340.9</ele>
        <time>2025-01-19T12:13:10Z</time>
      </trkpt>
      <trkpt lat="43.4096" lon="6.65113">
        <ele>340.9</ele>
        <time>2025-01-19T12:13:11Z</time>
      </trkpt>
      <trkpt lat="43.4096" lon="6.65113">
        <ele>340.9</ele>
        <time>2025-01-19T12:13:12Z</time>
      </trkpt>
      <trkpt lat="43.40959" lon="6.65113">
        <ele>340.9</ele>
        <time>2025-01-19T12:13:13Z</time>
      </trkpt>
      <trkpt lat="43.40959" lon="6.65113">
        <ele>340.8</ele>
        <time>2025-01-19T12:13:14Z</time>
      </trkpt>
      <trkpt lat="43.40959" lon="6.65113">
        <ele>340.8</ele>
        <time>2025-01-19T12:13:15Z</time>
      </trkpt>
      <trkpt lat="43.40959" lon="6.65113">
        <ele>340.8</ele>
        <time>2025-01-19T12:13:16Z</time>
      </trkpt>
      <trkpt lat="43.40959" lon="6.65113">
        <ele>340.8</ele>
        <time>2025-01-19T12:13:17Z</time>
      </trkpt>
      <trkpt lat="43.40959" lon="6.65113">
        <ele>340.7</ele>
        <time>2025-01-19T12:13:18Z</time>
      </trkpt>
      <trkpt lat="43.40959" lon="6.65113">
        <ele>340.6</ele>
        <time>2025-01-19T12:13:19Z</time>
      </trkpt>
      <trkpt lat="43.40959" lon="6.65113">
        <ele>340.6</ele>
        <time>2025-01-19T12:13:20Z</time>
      </trkpt>
      <trkpt lat="43.40959" lon="6.65113">
        <ele>340.5</ele>
        <time>2025-01-19T12:13:21Z</time>
      </trkpt>
      <trkpt lat="43.40959" lon="6.65113">
        <ele>340.5</ele>
        <time>2025-01-19T12:13:22Z</time>
      </trkpt>
      <trkpt lat="43.40959" lon="6.65113">
        <ele>340.6</ele>
        <time>2025-01-19T12:13:23Z</time>
      </trkpt>
      <trkpt lat="43.40959" lon="6.65113">
        <ele>340.6</ele>
        <time>2025-01-19T12:13:24Z</time>
      </trkpt>
      <trkpt lat="43.40959" lon="6.65113">
        <ele>340.7</ele>
        <time>2025-01-19T12:13:25Z</time>
      </trkpt>
      <trkpt lat="43.40959" lon="6.65113">
        <ele>340.8</ele>
        <time>2025-01-19T12:13:26Z</time>
      </trkpt>
      <trkpt lat="43.40958" lon="6.65113">
        <ele>340.8</ele>
        <time>2025-01-19T12:13:27Z</time>
      </trkpt>
      <trkpt lat="43.40958" lon="6.65113">
        <ele>340.9</ele>
        <time>2025-01-19T12:13:28Z</time>
      </trkpt>
      <trkpt lat="43.40958" lon="6.65113">
        <ele>340.8</ele>
        <time>2025-01-19T12:13:29Z</time>
      </trkpt>
      <trkpt lat="43.40958" lon="6.65112">
        <ele>340.9</ele>
        <time>2025-01-19T12:13:30Z</time>
      </trkpt>
      <trkpt lat="43.40959" lon="6.65112">
        <ele>341</ele>
        <time>2025-01-19T12:13:31Z</time>
      </trkpt>
      <trkpt lat="43.40959" lon="6.65112">
        <ele>341.1</ele>
        <time>2025-01-19T12:13:32Z</time>
      </trkpt>
      <trkpt lat="43.40959" lon="6.65112">
        <ele>341.2</ele>
        <time>2025-01-19T12:13:33Z</time>
      </trkpt>
      <trkpt lat="43.40959" lon="6.65112">
        <ele>341.3</ele>
        <time>2025-01-19T12:13:34Z</time>
      </trkpt>
      <trkpt lat="43.40959" lon="6.65111">
        <ele>341.4</ele>
        <time>2025-01-19T12:13:35Z</time>
      </trkpt>
      <trkpt lat="43.40959" lon="6.65111">
        <ele>341.5</ele>
        <time>2025-01-19T12:13:36Z</time>
      </trkpt>
      <trkpt lat="43.40959" lon="6.65111">
        <ele>341.7</ele>
        <time>2025-01-19T12:13:37Z</time>
      </trkpt>
      <trkpt lat="43.40959" lon="6.65111">
        <ele>341.8</ele>
        <time>2025-01-19T12:13:38Z</time>
      </trkpt>
      <trkpt lat="43.40959" lon="6.65111">
        <ele>341.9</ele>
        <time>2025-01-19T12:13:39Z</time>
      </trkpt>
      <trkpt lat="43.4096" lon="6.65111">
        <ele>341.8</ele>
        <time>2025-01-19T12:13:40Z</time>
      </trkpt>
      <trkpt lat="43.4096" lon="6.65111">
        <ele>341.8</ele>
        <time>2025-01-19T12:13:41Z</time>
      </trkpt>
      <trkpt lat="43.4096" lon="6.65111">
        <ele>341.7</ele>
        <time>2025-01-19T12:13:42Z</time>
      </trkpt>
      <trkpt lat="43.4096" lon="6.65111">
        <ele>341.8</ele>
        <time>2025-01-19T12:13:43Z</time>
      </trkpt>
      <trkpt lat="43.4096" lon="6.65111">
        <ele>341.8</ele>
        <time>2025-01-19T12:13:44Z</time>
      </trkpt>
      <trkpt lat="43.40959" lon="6.65111">
        <ele>341.8</ele>
        <time>2025-01-19T12:13:45Z</time>
      </trkpt>
      <trkpt lat="43.40959" lon="6.65111">
        <ele>341.9</ele>
        <time>2025-01-19T12:13:46Z</time>
      </trkpt>
      <trkpt lat="43.40959" lon="6.6511">
        <ele>341.9</ele>
        <time>2025-01-19T12:13:47Z</time>
      </trkpt>
      <trkpt lat="43.40959" lon="6.6511">
        <ele>341.9</ele>
        <time>2025-01-19T12:13:48Z</time>
      </trkpt>
      <trkpt lat="43.4096" lon="6.6511">
        <ele>341.9</ele>
        <time>2025-01-19T12:13:49Z</time>
      </trkpt>
      <trkpt lat="43.40959" lon="6.6511">
        <ele>341.9</ele>
        <time>2025-01-19T12:13:50Z</time>
      </trkpt>
      <trkpt lat="43.40959" lon="6.6511">
        <ele>341.9</ele>
        <time>2025-01-19T12:13:51Z</time>
      </trkpt>
      <trkpt lat="43.40959" lon="6.6511">
        <ele>341.9</ele>
        <time>2025-01-19T12:13:52Z</time>
      </trkpt>
      <trkpt lat="43.40959" lon="6.6511">
        <ele>341.8</ele>
        <time>2025-01-19T12:13:53Z</time>
      </trkpt>
      <trkpt lat="43.40959" lon="6.6511">
        <ele>341.9</ele>
        <time>2025-01-19T12:13:54Z</time>
      </trkpt>
      <trkpt lat="43.40959" lon="6.6511">
        <ele>341.9</ele>
        <time>2025-01-19T12:13:55Z</time>
      </trkpt>
      <trkpt lat="43.40959" lon="6.6511">
        <ele>342</ele>
        <time>2025-01-19T12:13:56Z</time>
      </trkpt>
      <trkpt lat="43.4096" lon="6.6511">
        <ele>342</ele>
        <time>2025-01-19T12:13:57Z</time>
      </trkpt>
      <trkpt lat="43.40959" lon="6.6511">
        <ele>342</ele>
        <time>2025-01-19T12:13:58Z</time>
      </trkpt>
      <trkpt lat="43.40959" lon="6.65109">
        <ele>342</ele>
        <time>2025-01-19T12:13:59Z</time>
      </trkpt>
      <trkpt lat="43.4096" lon="6.65109">
        <ele>342</ele>
        <time>2025-01-19T12:14:00Z</time>
      </trkpt>
      <trkpt lat="43.40959" lon="6.65109">
        <ele>341.9</ele>
        <time>2025-01-19T12:14:01Z</time>
      </trkpt>
      <trkpt lat="43.40959" lon="6.65109">
        <ele>342</ele>
        <time>2025-01-19T12:14:02Z</time>
      </trkpt>
      <trkpt lat="43.40959" lon="6.65109">
        <ele>342</ele>
        <time>2025-01-19T12:14:03Z</time>
      </trkpt>
      <trkpt lat="43.40959" lon="6.65108">
        <ele>342</ele>
        <time>2025-01-19T12:14:04Z</time>
      </trkpt>
      <trkpt lat="43.40959" lon="6.65108">
        <ele>342</ele>
        <time>2025-01-19T12:14:05Z</time>
      </trkpt>
      <trkpt lat="43.4096" lon="6.65108">
        <ele>342.1</ele>
        <time>2025-01-19T12:14:06Z</time>
      </trkpt>
      <trkpt lat="43.4096" lon="6.65108">
        <ele>342.1</ele>
        <time>2025-01-19T12:14:07Z</time>
      </trkpt>
      <trkpt lat="43.4096" lon="6.65108">
        <ele>342</ele>
        <time>2025-01-19T12:14:08Z</time>
      </trkpt>
      <trkpt lat="43.4096" lon="6.65108">
        <ele>342</ele>
        <time>2025-01-19T12:14:09Z</time>
      </trkpt>
      <trkpt lat="43.4096" lon="6.65108">
        <ele>342</ele>
        <time>2025-01-19T12:14:10Z</time>
      </trkpt>
      <trkpt lat="43.4096" lon="6.65108">
        <ele>342</ele>
        <time>2025-01-19T12:14:11Z</time>
      </trkpt>
      <trkpt lat="43.4096" lon="6.65108">
        <ele>342</ele>
        <time>2025-01-19T12:14:12Z</time>
      </trkpt>
      <trkpt lat="43.4096" lon="6.65108">
        <ele>342</ele>
        <time>2025-01-19T12:14:13Z</time>
      </trkpt>
      <trkpt lat="43.4096" lon="6.65108">
        <ele>342</ele>
        <time>2025-01-19T12:14:14Z</time>
      </trkpt>
      <trkpt lat="43.4096" lon="6.65108">
        <ele>342</ele>
        <time>2025-01-19T12:14:15Z</time>
      </trkpt>
      <trkpt lat="43.4096" lon="6.65108">
        <ele>342</ele>
        <time>2025-01-19T12:14:16Z</time>
      </trkpt>
      <trkpt lat="43.4096" lon="6.65108">
        <ele>342</ele>
        <time>2025-01-19T12:14:17Z</time>
      </trkpt>
      <trkpt lat="43.4096" lon="6.65108">
        <ele>342</ele>
        <time>2025-01-19T12:14:18Z</time>
      </trkpt>
      <trkpt lat="43.4096" lon="6.65108">
        <ele>342.1</ele>
        <time>2025-01-19T12:14:19Z</time>
      </trkpt>
      <trkpt lat="43.4096" lon="6.65108">
        <ele>342</ele>
        <time>2025-01-19T12:14:20Z</time>
      </trkpt>
      <trkpt lat="43.4096" lon="6.65108">
        <ele>342.1</ele>
        <time>2025-01-19T12:14:21Z</time>
      </trkpt>
      <trkpt lat="43.4096" lon="6.65108">
        <ele>342.1</ele>
        <time>2025-01-19T12:14:22Z</time>
      </trkpt>
      <trkpt lat="43.4096" lon="6.65108">
        <ele>342.2</ele>
        <time>2025-01-19T12:14:23Z</time>
      </trkpt>
      <trkpt lat="43.4096" lon="6.65108">
        <ele>342.2</ele>
        <time>2025-01-19T12:14:24Z</time>
      </trkpt>
      <trkpt lat="43.4096" lon="6.65108">
        <ele>342.2</ele>
        <time>2025-01-19T12:14:25Z</time>
      </trkpt>
      <trkpt lat="43.4096" lon="6.65109">
        <ele>342.2</ele>
        <time>2025-01-19T12:14:26Z</time>
      </trkpt>
      <trkpt lat="43.4096" lon="6.65109">
        <ele>342.2</ele>
        <time>2025-01-19T12:14:27Z</time>
      </trkpt>
      <trkpt lat="43.40959" lon="6.65109">
        <ele>342.1</ele>
        <time>2025-01-19T12:14:28Z</time>
      </trkpt>
      <trkpt lat="43.40959" lon="6.65109">
        <ele>342.2</ele>
        <time>2025-01-19T12:14:29Z</time>
      </trkpt>
      <trkpt lat="43.40959" lon="6.65109">
        <ele>342.2</ele>
        <time>2025-01-19T12:14:30Z</time>
      </trkpt>
      <trkpt lat="43.40959" lon="6.65109">
        <ele>342.2</ele>
        <time>2025-01-19T12:14:31Z</time>
      </trkpt>
      <trkpt lat="43.40959" lon="6.65109">
        <ele>342.2</ele>
        <time>2025-01-19T12:14:32Z</time>
      </trkpt>
      <trkpt lat="43.40959" lon="6.65109">
        <ele>342.2</ele>
        <time>2025-01-19T12:14:33Z</time>
      </trkpt>
      <trkpt lat="43.40959" lon="6.65109">
        <ele>342.2</ele>
        <time>2025-01-19T12:14:34Z</time>
      </trkpt>
      <trkpt lat="43.40959" lon="6.65109">
        <ele>342.1</ele>
        <time>2025-01-19T12:14:35Z</time>
      </trkpt>
      <trkpt lat="43.40959" lon="6.65109">
        <ele>342.1</ele>
        <time>2025-01-19T12:14:36Z</time>
      </trkpt>
      <trkpt lat="43.40959" lon="6.65109">
        <ele>342.2</ele>
        <time>2025-01-19T12:14:37Z</time>
      </trkpt>
      <trkpt lat="43.4096" lon="6.65109">
        <ele>342.2</ele>
        <time>2025-01-19T12:14:38Z</time>
      </trkpt>
      <trkpt lat="43.4096" lon="6.65109">
        <ele>342.2</ele>
        <time>2025-01-19T12:14:39Z</time>
      </trkpt>
      <trkpt lat="43.4096" lon="6.65109">
        <ele>342.2</ele>
        <time>2025-01-19T12:14:40Z</time>
      </trkpt>
      <trkpt lat="43.4096" lon="6.65109">
        <ele>342.2</ele>
        <time>2025-01-19T12:14:41Z</time>
      </trkpt>
      <trkpt lat="43.4096" lon="6.6511">
        <ele>342.2</ele>
        <time>2025-01-19T12:14:42Z</time>
      </trkpt>
      <trkpt lat="43.4096" lon="6.6511">
        <ele>342.1</ele>
        <time>2025-01-19T12:14:43Z</time>
      </trkpt>
      <trkpt lat="43.4096" lon="6.6511">
        <ele>342.1</ele>
        <time>2025-01-19T12:14:44Z</time>
      </trkpt>
      <trkpt lat="43.4096" lon="6.6511">
        <ele>342</ele>
        <time>2025-01-19T12:14:45Z</time>
      </trkpt>
      <trkpt lat="43.4096" lon="6.6511">
        <ele>342.1</ele>
        <time>2025-01-19T12:14:46Z</time>
      </trkpt>
      <trkpt lat="43.4096" lon="6.6511">
        <ele>342.1</ele>
        <time>2025-01-19T12:14:47Z</time>
      </trkpt>
      <trkpt lat="43.4096" lon="6.6511">
        <ele>342.1</ele>
        <time>2025-01-19T12:14:48Z</time>
      </trkpt>
      <trkpt lat="43.4096" lon="6.65111">
        <ele>342.2</ele>
        <time>2025-01-19T12:14:49Z</time>
      </trkpt>
      <trkpt lat="43.40961" lon="6.65111">
        <ele>342.2</ele>
        <time>2025-01-19T12:14:50Z</time>
      </trkpt>
      <trkpt lat="43.4096" lon="6.65111">
        <ele>342.2</ele>
        <time>2025-01-19T12:14:51Z</time>
      </trkpt>
      <trkpt lat="43.40961" lon="6.65111">
        <ele>342.1</ele>
        <time>2025-01-19T12:14:52Z</time>
      </trkpt>
      <trkpt lat="43.40961" lon="6.65111">
        <ele>342</ele>
        <time>2025-01-19T12:14:53Z</time>
      </trkpt>
      <trkpt lat="43.40961" lon="6.65111">
        <ele>342</ele>
        <time>2025-01-19T12:14:54Z</time>
      </trkpt>
      <trkpt lat="43.40961" lon="6.65111">
        <ele>341.9</ele>
        <time>2025-01-19T12:14:55Z</time>
      </trkpt>
      <trkpt lat="43.40961" lon="6.65111">
        <ele>341.9</ele>
        <time>2025-01-19T12:14:56Z</time>
      </trkpt>
      <trkpt lat="43.40961" lon="6.65111">
        <ele>341.8</ele>
        <time>2025-01-19T12:14:57Z</time>
      </trkpt>
      <trkpt lat="43.40961" lon="6.6511">
        <ele>341.8</ele>
        <time>2025-01-19T12:14:58Z</time>
      </trkpt>
      <trkpt lat="43.40961" lon="6.6511">
        <ele>341.8</ele>
        <time>2025-01-19T12:14:59Z</time>
      </trkpt>
      <trkpt lat="43.40961" lon="6.6511">
        <ele>341.8</ele>
        <time>2025-01-19T12:15:00Z</time>
      </trkpt>
      <trkpt lat="43.40961" lon="6.65111">
        <ele>341.8</ele>
        <time>2025-01-19T12:15:01Z</time>
      </trkpt>
      <trkpt lat="43.40961" lon="6.6511">
        <ele>341.8</ele>
        <time>2025-01-19T12:15:02Z</time>
      </trkpt>
      <trkpt lat="43.40961" lon="6.6511">
        <ele>341.8</ele>
        <time>2025-01-19T12:15:03Z</time>
      </trkpt>
      <trkpt lat="43.40961" lon="6.6511">
        <ele>341.8</ele>
        <time>2025-01-19T12:15:04Z</time>
      </trkpt>
      <trkpt lat="43.40961" lon="6.6511">
        <ele>341.8</ele>
        <time>2025-01-19T12:15:05Z</time>
      </trkpt>
      <trkpt lat="43.40962" lon="6.6511">
        <ele>341.7</ele>
        <time>2025-01-19T12:15:06Z</time>
      </trkpt>
      <trkpt lat="43.40962" lon="6.6511">
        <ele>341.7</ele>
        <time>2025-01-19T12:15:07Z</time>
      </trkpt>
      <trkpt lat="43.40962" lon="6.6511">
        <ele>341.7</ele>
        <time>2025-01-19T12:15:08Z</time>
      </trkpt>
      <trkpt lat="43.40962" lon="6.6511">
        <ele>341.7</ele>
        <time>2025-01-19T12:15:09Z</time>
      </trkpt>
      <trkpt lat="43.40962" lon="6.6511">
        <ele>341.6</ele>
        <time>2025-01-19T12:15:10Z</time>
      </trkpt>
      <trkpt lat="43.40962" lon="6.6511">
        <ele>341.6</ele>
        <time>2025-01-19T12:15:11Z</time>
      </trkpt>
      <trkpt lat="43.40962" lon="6.6511">
        <ele>341.6</ele>
        <time>2025-01-19T12:15:12Z</time>
      </trkpt>
      <trkpt lat="43.40962" lon="6.6511">
        <ele>341.6</ele>
        <time>2025-01-19T12:15:13Z</time>
      </trkpt>
      <trkpt lat="43.40962" lon="6.6511">
        <ele>341.5</ele>
        <time>2025-01-19T12:15:14Z</time>
      </trkpt>
      <trkpt lat="43.40962" lon="6.6511">
        <ele>341.5</ele>
        <time>2025-01-19T12:15:15Z</time>
      </trkpt>
      <trkpt lat="43.40962" lon="6.6511">
        <ele>341.5</ele>
        <time>2025-01-19T12:15:16Z</time>
      </trkpt>
      <trkpt lat="43.40962" lon="6.6511">
        <ele>341.6</ele>
        <time>2025-01-19T12:15:17Z</time>
      </trkpt>
      <trkpt lat="43.40962" lon="6.6511">
        <ele>341.6</ele>
        <time>2025-01-19T12:15:18Z</time>
      </trkpt>
      <trkpt lat="43.40962" lon="6.6511">
        <ele>341.6</ele>
        <time>2025-01-19T12:15:19Z</time>
      </trkpt>
      <trkpt lat="43.40962" lon="6.6511">
        <ele>341.5</ele>
        <time>2025-01-19T12:15:20Z</time>
      </trkpt>
      <trkpt lat="43.40962" lon="6.6511">
        <ele>341.5</ele>
        <time>2025-01-19T12:15:21Z</time>
      </trkpt>
      <trkpt lat="43.40962" lon="6.6511">
        <ele>341.5</ele>
        <time>2025-01-19T12:15:22Z</time>
      </trkpt>
      <trkpt lat="43.40962" lon="6.6511">
        <ele>341.4</ele>
        <time>2025-01-19T12:15:23Z</time>
      </trkpt>
      <trkpt lat="43.40962" lon="6.6511">
        <ele>341.4</ele>
        <time>2025-01-19T12:15:24Z</time>
      </trkpt>
      <trkpt lat="43.40963" lon="6.6511">
        <ele>341.4</ele>
        <time>2025-01-19T12:15:25Z</time>
      </trkpt>
      <trkpt lat="43.40963" lon="6.6511">
        <ele>341.4</ele>
        <time>2025-01-19T12:15:26Z</time>
      </trkpt>
      <trkpt lat="43.40962" lon="6.6511">
        <ele>341.5</ele>
        <time>2025-01-19T12:15:27Z</time>
      </trkpt>
      <trkpt lat="43.40962" lon="6.6511">
        <ele>341.5</ele>
        <time>2025-01-19T12:15:28Z</time>
      </trkpt>
      <trkpt lat="43.40962" lon="6.6511">
        <ele>341.6</ele>
        <time>2025-01-19T12:15:29Z</time>
      </trkpt>
      <trkpt lat="43.40962" lon="6.6511">
        <ele>341.6</ele>
        <time>2025-01-19T12:15:30Z</time>
      </trkpt>
      <trkpt lat="43.40962" lon="6.6511">
        <ele>341.6</ele>
        <time>2025-01-19T12:15:31Z</time>
      </trkpt>
      <trkpt lat="43.40962" lon="6.6511">
        <ele>341.6</ele>
        <time>2025-01-19T12:15:32Z</time>
      </trkpt>
      <trkpt lat="43.40962" lon="6.6511">
        <ele>341.6</ele>
        <time>2025-01-19T12:15:33Z</time>
      </trkpt>
      <trkpt lat="43.40962" lon="6.6511">
        <ele>341.6</ele>
        <time>2025-01-19T12:15:34Z</time>
      </trkpt>
      <trkpt lat="43.40962" lon="6.6511">
        <ele>341.6</ele>
        <time>2025-01-19T12:15:35Z</time>
      </trkpt>
      <trkpt lat="43.40962" lon="6.6511">
        <ele>341.7</ele>
        <time>2025-01-19T12:15:36Z</time>
      </trkpt>
      <trkpt lat="43.40962" lon="6.6511">
        <ele>341.5</ele>
        <time>2025-01-19T12:15:37Z</time>
      </trkpt>
      <trkpt lat="43.40962" lon="6.6511">
        <ele>341.5</ele>
        <time>2025-01-19T12:15:38Z</time>
      </trkpt>
      <trkpt lat="43.40962" lon="6.6511">
        <ele>341.4</ele>
        <time>2025-01-19T12:15:39Z</time>
      </trkpt>
      <trkpt lat="43.40961" lon="6.6511">
        <ele>341.3</ele>
        <time>2025-01-19T12:15:40Z</time>
      </trkpt>
      <trkpt lat="43.40961" lon="6.6511">
        <ele>341.3</ele>
        <time>2025-01-19T12:15:41Z</time>
      </trkpt>
      <trkpt lat="43.40961" lon="6.6511">
        <ele>341.2</ele>
        <time>2025-01-19T12:15:42Z</time>
      </trkpt>
      <trkpt lat="43.40961" lon="6.6511">
        <ele>341.2</ele>
        <time>2025-01-19T12:15:43Z</time>
      </trkpt>
      <trkpt lat="43.40961" lon="6.6511">
        <ele>341.2</ele>
        <time>2025-01-19T12:15:44Z</time>
      </trkpt>
      <trkpt lat="43.40962" lon="6.6511">
        <ele>341.2</ele>
        <time>2025-01-19T12:15:45Z</time>
      </trkpt>
      <trkpt lat="43.40962" lon="6.6511">
        <ele>341.2</ele>
        <time>2025-01-19T12:15:46Z</time>
      </trkpt>
      <trkpt lat="43.40962" lon="6.6511">
        <ele>341.2</ele>
        <time>2025-01-19T12:15:47Z</time>
      </trkpt>
      <trkpt lat="43.40962" lon="6.6511">
        <ele>341.3</ele>
        <time>2025-01-19T12:15:48Z</time>
      </trkpt>
      <trkpt lat="43.40962" lon="6.6511">
        <ele>341.2</ele>
        <time>2025-01-19T12:15:49Z</time>
      </trkpt>
      <trkpt lat="43.40962" lon="6.6511">
        <ele>341.2</ele>
        <time>2025-01-19T12:15:50Z</time>
      </trkpt>
      <trkpt lat="43.40962" lon="6.65109">
        <ele>341.2</ele>
        <time>2025-01-19T12:15:51Z</time>
      </trkpt>
      <trkpt lat="43.40962" lon="6.65109">
        <ele>341.2</ele>
        <time>2025-01-19T12:15:52Z</time>
      </trkpt>
      <trkpt lat="43.40962" lon="6.65109">
        <ele>341.2</ele>
        <time>2025-01-19T12:15:53Z</time>
      </trkpt>
      <trkpt lat="43.40962" lon="6.65109">
        <ele>341.2</ele>
        <time>2025-01-19T12:15:54Z</time>
      </trkpt>
      <trkpt lat="43.40962" lon="6.65109">
        <ele>341.2</ele>
        <time>2025-01-19T12:15:55Z</time>
      </trkpt>
      <trkpt lat="43.40962" lon="6.65109">
        <ele>341.1</ele>
        <time>2025-01-19T12:15:56Z</time>
      </trkpt>
      <trkpt lat="43.40962" lon="6.6511">
        <ele>341.1</ele>
        <time>2025-01-19T12:15:57Z</time>
      </trkpt>
      <trkpt lat="43.40962" lon="6.6511">
        <ele>341.1</ele>
        <time>2025-01-19T12:15:58Z</time>
      </trkpt>
      <trkpt lat="43.40962" lon="6.65109">
        <ele>341.1</ele>
        <time>2025-01-19T12:15:59Z</time>
      </trkpt>
      <trkpt lat="43.40962" lon="6.65109">
        <ele>341.2</ele>
        <time>2025-01-19T12:16:00Z</time>
      </trkpt>
      <trkpt lat="43.40962" lon="6.65109">
        <ele>341.1</ele>
        <time>2025-01-19T12:16:01Z</time>
      </trkpt>
      <trkpt lat="43.40962" lon="6.6511">
        <ele>341.1</ele>
        <time>2025-01-19T12:16:02Z</time>
      </trkpt>
      <trkpt lat="43.40962" lon="6.6511">
        <ele>341.1</ele>
        <time>2025-01-19T12:16:03Z</time>
      </trkpt>
      <trkpt lat="43.40962" lon="6.6511">
        <ele>341.1</ele>
        <time>2025-01-19T12:16:04Z</time>
      </trkpt>
      <trkpt lat="43.40962" lon="6.6511">
        <ele>341.2</ele>
        <time>2025-01-19T12:16:05Z</time>
      </trkpt>
      <trkpt lat="43.40962" lon="6.6511">
        <ele>341.2</ele>
        <time>2025-01-19T12:16:06Z</time>
      </trkpt>
      <trkpt lat="43.40962" lon="6.6511">
        <ele>341.2</ele>
        <time>2025-01-19T12:16:07Z</time>
      </trkpt>
      <trkpt lat="43.40962" lon="6.6511">
        <ele>341.2</ele>
        <time>2025-01-19T12:16:08Z</time>
      </trkpt>
      <trkpt lat="43.40962" lon="6.6511">
        <ele>341.3</ele>
        <time>2025-01-19T12:16:09Z</time>
      </trkpt>
      <trkpt lat="43.40962" lon="6.6511">
        <ele>341.3</ele>
        <time>2025-01-19T12:16:10Z</time>
      </trkpt>
      <trkpt lat="43.40962" lon="6.6511">
        <ele>341.3</ele>
        <time>2025-01-19T12:16:11Z</time>
      </trkpt>
      <trkpt lat="43.40962" lon="6.6511">
        <ele>341.2</ele>
        <time>2025-01-19T12:16:12Z</time>
      </trkpt>
      <trkpt lat="43.40962" lon="6.6511">
        <ele>341.1</ele>
        <time>2025-01-19T12:16:13Z</time>
      </trkpt>
      <trkpt lat="43.40962" lon="6.6511">
        <ele>341</ele>
        <time>2025-01-19T12:16:14Z</time>
      </trkpt>
      <trkpt lat="43.40962" lon="6.6511">
        <ele>341</ele>
        <time>2025-01-19T12:16:15Z</time>
      </trkpt>
      <trkpt lat="43.40962" lon="6.6511">
        <ele>341</ele>
        <time>2025-01-19T12:16:16Z</time>
      </trkpt>
      <trkpt lat="43.40962" lon="6.65111">
        <ele>341</ele>
        <time>2025-01-19T12:16:17Z</time>
      </trkpt>
      <trkpt lat="43.40962" lon="6.65111">
        <ele>341.1</ele>
        <time>2025-01-19T12:16:18Z</time>
      </trkpt>
      <trkpt lat="43.40962" lon="6.65111">
        <ele>341.1</ele>
        <time>2025-01-19T12:16:19Z</time>
      </trkpt>
      <trkpt lat="43.40962" lon="6.65111">
        <ele>341.1</ele>
        <time>2025-01-19T12:16:20Z</time>
      </trkpt>
      <trkpt lat="43.40962" lon="6.65111">
        <ele>341.1</ele>
        <time>2025-01-19T12:16:21Z</time>
      </trkpt>
      <trkpt lat="43.40962" lon="6.65111">
        <ele>341.2</ele>
        <time>2025-01-19T12:16:22Z</time>
      </trkpt>
      <trkpt lat="43.40962" lon="6.65111">
        <ele>341.3</ele>
        <time>2025-01-19T12:16:23Z</time>
      </trkpt>
      <trkpt lat="43.40962" lon="6.65111">
        <ele>341.2</ele>
        <time>2025-01-19T12:16:24Z</time>
      </trkpt>
      <trkpt lat="43.40962" lon="6.65111">
        <ele>341.2</ele>
        <time>2025-01-19T12:16:25Z</time>
      </trkpt>
      <trkpt lat="43.40962" lon="6.65111">
        <ele>341.1</ele>
        <time>2025-01-19T12:16:26Z</time>
      </trkpt>
      <trkpt lat="43.40962" lon="6.65111">
        <ele>341.1</ele>
        <time>2025-01-19T12:16:27Z</time>
      </trkpt>
      <trkpt lat="43.40962" lon="6.65111">
        <ele>341.2</ele>
        <time>2025-01-19T12:16:28Z</time>
      </trkpt>
      <trkpt lat="43.40962" lon="6.65111">
        <ele>341.2</ele>
        <time>2025-01-19T12:16:29Z</time>
      </trkpt>
      <trkpt lat="43.40962" lon="6.65111">
        <ele>341.2</ele>
        <time>2025-01-19T12:16:30Z</time>
      </trkpt>
      <trkpt lat="43.40962" lon="6.65111">
        <ele>341.2</ele>
        <time>2025-01-19T12:16:31Z</time>
      </trkpt>
      <trkpt lat="43.40962" lon="6.65111">
        <ele>341.1</ele>
        <time>2025-01-19T12:16:32Z</time>
      </trkpt>
      <trkpt lat="43.40962" lon="6.65111">
        <ele>341.1</ele>
        <time>2025-01-19T12:16:33Z</time>
      </trkpt>
      <trkpt lat="43.40962" lon="6.65111">
        <ele>341.2</ele>
        <time>2025-01-19T12:16:34Z</time>
      </trkpt>
      <trkpt lat="43.40962" lon="6.65111">
        <ele>341.2</ele>
        <time>2025-01-19T12:16:35Z</time>
      </trkpt>
      <trkpt lat="43.40962" lon="6.65111">
        <ele>341.2</ele>
        <time>2025-01-19T12:16:36Z</time>
      </trkpt>
      <trkpt lat="43.40962" lon="6.65111">
        <ele>341.3</ele>
        <time>2025-01-19T12:16:37Z</time>
      </trkpt>
      <trkpt lat="43.40962" lon="6.65111">
        <ele>341.4</ele>
        <time>2025-01-19T12:16:38Z</time>
      </trkpt>
      <trkpt lat="43.40962" lon="6.65111">
        <ele>341.4</ele>
        <time>2025-01-19T12:16:39Z</time>
      </trkpt>
      <trkpt lat="43.40962" lon="6.65111">
        <ele>341.4</ele>
        <time>2025-01-19T12:16:40Z</time>
      </trkpt>
      <trkpt lat="43.40962" lon="6.6511">
        <ele>341.5</ele>
        <time>2025-01-19T12:16:41Z</time>
      </trkpt>
      <trkpt lat="43.40962" lon="6.6511">
        <ele>341.5</ele>
        <time>2025-01-19T12:16:42Z</time>
      </trkpt>
      <trkpt lat="43.40961" lon="6.6511">
        <ele>341.6</ele>
        <time>2025-01-19T12:16:43Z</time>
      </trkpt>
      <trkpt lat="43.40961" lon="6.65111">
        <ele>341.6</ele>
        <time>2025-01-19T12:16:44Z</time>
      </trkpt>
      <trkpt lat="43.40961" lon="6.65111">
        <ele>341.7</ele>
        <time>2025-01-19T12:16:45Z</time>
      </trkpt>
      <trkpt lat="43.40961" lon="6.65111">
        <ele>341.7</ele>
        <time>2025-01-19T12:16:46Z</time>
      </trkpt>
      <trkpt lat="43.40961" lon="6.65111">
        <ele>341.6</ele>
        <time>2025-01-19T12:16:47Z</time>
      </trkpt>
      <trkpt lat="43.40961" lon="6.65112">
        <ele>341.5</ele>
        <time>2025-01-19T12:16:48Z</time>
      </trkpt>
      <trkpt lat="43.40961" lon="6.65112">
        <ele>341.4</ele>
        <time>2025-01-19T12:16:49Z</time>
      </trkpt>
      <trkpt lat="43.40961" lon="6.65112">
        <ele>341.4</ele>
        <time>2025-01-19T12:16:50Z</time>
      </trkpt>
      <trkpt lat="43.40961" lon="6.65112">
        <ele>341.3</ele>
        <time>2025-01-19T12:16:51Z</time>
      </trkpt>
      <trkpt lat="43.40961" lon="6.65112">
        <ele>341.2</ele>
        <time>2025-01-19T12:16:52Z</time>
      </trkpt>
      <trkpt lat="43.40962" lon="6.65112">
        <ele>341.2</ele>
        <time>2025-01-19T12:16:53Z</time>
      </trkpt>
      <trkpt lat="43.40962" lon="6.65112">
        <ele>341.2</ele>
        <time>2025-01-19T12:16:54Z</time>
      </trkpt>
      <trkpt lat="43.40962" lon="6.65112">
        <ele>341.1</ele>
        <time>2025-01-19T12:16:55Z</time>
      </trkpt>
      <trkpt lat="43.40962" lon="6.65112">
        <ele>341.1</ele>
        <time>2025-01-19T12:16:56Z</time>
      </trkpt>
      <trkpt lat="43.40962" lon="6.65113">
        <ele>341.1</ele>
        <time>2025-01-19T12:16:57Z</time>
      </trkpt>
      <trkpt lat="43.40962" lon="6.65113">
        <ele>341.1</ele>
        <time>2025-01-19T12:16:58Z</time>
      </trkpt>
      <trkpt lat="43.40962" lon="6.65113">
        <ele>341.1</ele>
        <time>2025-01-19T12:16:59Z</time>
      </trkpt>
      <trkpt lat="43.40962" lon="6.65113">
        <ele>341.1</ele>
        <time>2025-01-19T12:17:00Z</time>
      </trkpt>
      <trkpt lat="43.40962" lon="6.65113">
        <ele>341</ele>
        <time>2025-01-19T12:17:01Z</time>
      </trkpt>
      <trkpt lat="43.40962" lon="6.65113">
        <ele>341.1</ele>
        <time>2025-01-19T12:17:02Z</time>
      </trkpt>
      <trkpt lat="43.40962" lon="6.65113">
        <ele>341.1</ele>
        <time>2025-01-19T12:17:03Z</time>
      </trkpt>
      <trkpt lat="43.40962" lon="6.65113">
        <ele>341.2</ele>
        <time>2025-01-19T12:17:04Z</time>
      </trkpt>
      <trkpt lat="43.40962" lon="6.65113">
        <ele>341.2</ele>
        <time>2025-01-19T12:17:05Z</time>
      </trkpt>
      <trkpt lat="43.40962" lon="6.65113">
        <ele>341.1</ele>
        <time>2025-01-19T12:17:06Z</time>
      </trkpt>
      <trkpt lat="43.40962" lon="6.65113">
        <ele>341.1</ele>
        <time>2025-01-19T12:17:07Z</time>
      </trkpt>
      <trkpt lat="43.40962" lon="6.65113">
        <ele>341.1</ele>
        <time>2025-01-19T12:17:08Z</time>
      </trkpt>
      <trkpt lat="43.40962" lon="6.65113">
        <ele>341.1</ele>
        <time>2025-01-19T12:17:09Z</time>
      </trkpt>
      <trkpt lat="43.40962" lon="6.65113">
        <ele>341.2</ele>
        <time>2025-01-19T12:17:10Z</time>
      </trkpt>
      <trkpt lat="43.40962" lon="6.65113">
        <ele>341.2</ele>
        <time>2025-01-19T12:17:11Z</time>
      </trkpt>
      <trkpt lat="43.40962" lon="6.65113">
        <ele>341.2</ele>
        <time>2025-01-19T12:17:12Z</time>
      </trkpt>
      <trkpt lat="43.40962" lon="6.65113">
        <ele>341.2</ele>
        <time>2025-01-19T12:17:13Z</time>
      </trkpt>
      <trkpt lat="43.40962" lon="6.65113">
        <ele>341.2</ele>
        <time>2025-01-19T12:17:14Z</time>
      </trkpt>
      <trkpt lat="43.40961" lon="6.65113">
        <ele>341.2</ele>
        <time>2025-01-19T12:17:15Z</time>
      </trkpt>
      <trkpt lat="43.40961" lon="6.65113">
        <ele>341.1</ele>
        <time>2025-01-19T12:17:16Z</time>
      </trkpt>
      <trkpt lat="43.40962" lon="6.65113">
        <ele>341</ele>
        <time>2025-01-19T12:17:17Z</time>
      </trkpt>
      <trkpt lat="43.40962" lon="6.65113">
        <ele>341</ele>
        <time>2025-01-19T12:17:18Z</time>
      </trkpt>
      <trkpt lat="43.40962" lon="6.65113">
        <ele>341</ele>
        <time>2025-01-19T12:17:19Z</time>
      </trkpt>
      <trkpt lat="43.40962" lon="6.65113">
        <ele>341</ele>
        <time>2025-01-19T12:17:20Z</time>
      </trkpt>
      <trkpt lat="43.40962" lon="6.65112">
        <ele>341</ele>
        <time>2025-01-19T12:17:21Z</time>
      </trkpt>
      <trkpt lat="43.40962" lon="6.65112">
        <ele>341</ele>
        <time>2025-01-19T12:17:22Z</time>
      </trkpt>
      <trkpt lat="43.40962" lon="6.65112">
        <ele>341</ele>
        <time>2025-01-19T12:17:23Z</time>
      </trkpt>
      <trkpt lat="43.40961" lon="6.65112">
        <ele>341</ele>
        <time>2025-01-19T12:17:24Z</time>
      </trkpt>
      <trkpt lat="43.40961" lon="6.65112">
        <ele>341</ele>
        <time>2025-01-19T12:17:25Z</time>
      </trkpt>
      <trkpt lat="43.40961" lon="6.65112">
        <ele>340.9</ele>
        <time>2025-01-19T12:17:26Z</time>
      </trkpt>
      <trkpt lat="43.40961" lon="6.65112">
        <ele>340.9</ele>
        <time>2025-01-19T12:17:27Z</time>
      </trkpt>
      <trkpt lat="43.40961" lon="6.65112">
        <ele>340.9</ele>
        <time>2025-01-19T12:17:28Z</time>
      </trkpt>
      <trkpt lat="43.40961" lon="6.65112">
        <ele>340.9</ele>
        <time>2025-01-19T12:17:29Z</time>
      </trkpt>
      <trkpt lat="43.40961" lon="6.65112">
        <ele>340.9</ele>
        <time>2025-01-19T12:17:30Z</time>
      </trkpt>
      <trkpt lat="43.40961" lon="6.65112">
        <ele>340.9</ele>
        <time>2025-01-19T12:17:31Z</time>
      </trkpt>
      <trkpt lat="43.40961" lon="6.65112">
        <ele>341</ele>
        <time>2025-01-19T12:17:32Z</time>
      </trkpt>
      <trkpt lat="43.40961" lon="6.65112">
        <ele>341</ele>
        <time>2025-01-19T12:17:33Z</time>
      </trkpt>
      <trkpt lat="43.40961" lon="6.65113">
        <ele>341</ele>
        <time>2025-01-19T12:17:34Z</time>
      </trkpt>
      <trkpt lat="43.40961" lon="6.65113">
        <ele>341.1</ele>
        <time>2025-01-19T12:17:35Z</time>
      </trkpt>
      <trkpt lat="43.40961" lon="6.65113">
        <ele>341.1</ele>
        <time>2025-01-19T12:17:36Z</time>
      </trkpt>
      <trkpt lat="43.40961" lon="6.65113">
        <ele>341.1</ele>
        <time>2025-01-19T12:17:37Z</time>
      </trkpt>
      <trkpt lat="43.40961" lon="6.65113">
        <ele>341.1</ele>
        <time>2025-01-19T12:17:38Z</time>
      </trkpt>
      <trkpt lat="43.40961" lon="6.65113">
        <ele>341.2</ele>
        <time>2025-01-19T12:17:39Z</time>
      </trkpt>
      <trkpt lat="43.40961" lon="6.65113">
        <ele>341.2</ele>
        <time>2025-01-19T12:17:40Z</time>
      </trkpt>
      <trkpt lat="43.40961" lon="6.65114">
        <ele>341.2</ele>
        <time>2025-01-19T12:17:41Z</time>
      </trkpt>
      <trkpt lat="43.40961" lon="6.65114">
        <ele>341.2</ele>
        <time>2025-01-19T12:17:42Z</time>
      </trkpt>
      <trkpt lat="43.40962" lon="6.65114">
        <ele>341.1</ele>
        <time>2025-01-19T12:17:43Z</time>
      </trkpt>
      <trkpt lat="43.40962" lon="6.65114">
        <ele>341.1</ele>
        <time>2025-01-19T12:17:44Z</time>
      </trkpt>
      <trkpt lat="43.40962" lon="6.65114">
        <ele>341.1</ele>
        <time>2025-01-19T12:17:45Z</time>
      </trkpt>
      <trkpt lat="43.40962" lon="6.65115">
        <ele>341.1</ele>
        <time>2025-01-19T12:17:46Z</time>
      </trkpt>
      <trkpt lat="43.40962" lon="6.65114">
        <ele>341.1</ele>
        <time>2025-01-19T12:17:47Z</time>
      </trkpt>
      <trkpt lat="43.40962" lon="6.65115">
        <ele>341.2</ele>
        <time>2025-01-19T12:17:48Z</time>
      </trkpt>
      <trkpt lat="43.40962" lon="6.65115">
        <ele>341.2</ele>
        <time>2025-01-19T12:17:49Z</time>
      </trkpt>
      <trkpt lat="43.40962" lon="6.65115">
        <ele>341.2</ele>
        <time>2025-01-19T12:17:50Z</time>
      </trkpt>
      <trkpt lat="43.40962" lon="6.65115">
        <ele>341.2</ele>
        <time>2025-01-19T12:17:51Z</time>
      </trkpt>
      <trkpt lat="43.40962" lon="6.65115">
        <ele>341.1</ele>
        <time>2025-01-19T12:17:52Z</time>
      </trkpt>
      <trkpt lat="43.40962" lon="6.65115">
        <ele>341.1</ele>
        <time>2025-01-19T12:17:53Z</time>
      </trkpt>
      <trkpt lat="43.40962" lon="6.65115">
        <ele>341</ele>
        <time>2025-01-19T12:17:54Z</time>
      </trkpt>
      <trkpt lat="43.40962" lon="6.65115">
        <ele>341</ele>
        <time>2025-01-19T12:17:55Z</time>
      </trkpt>
      <trkpt lat="43.40962" lon="6.65115">
        <ele>341.1</ele>
        <time>2025-01-19T12:17:56Z</time>
      </trkpt>
      <trkpt lat="43.40962" lon="6.65116">
        <ele>341.1</ele>
        <time>2025-01-19T12:17:57Z</time>
      </trkpt>
      <trkpt lat="43.40962" lon="6.65116">
        <ele>341.1</ele>
        <time>2025-01-19T12:17:58Z</time>
      </trkpt>
      <trkpt lat="43.40962" lon="6.65116">
        <ele>341.1</ele>
        <time>2025-01-19T12:17:59Z</time>
      </trkpt>
      <trkpt lat="43.40963" lon="6.65116">
        <ele>341.1</ele>
        <time>2025-01-19T12:18:00Z</time>
      </trkpt>
      <trkpt lat="43.40963" lon="6.65116">
        <ele>341.2</ele>
        <time>2025-01-19T12:18:01Z</time>
      </trkpt>
      <trkpt lat="43.40963" lon="6.65116">
        <ele>341.3</ele>
        <time>2025-01-19T12:18:02Z</time>
      </trkpt>
      <trkpt lat="43.40963" lon="6.65116">
        <ele>341.3</ele>
        <time>2025-01-19T12:18:03Z</time>
      </trkpt>
      <trkpt lat="43.40963" lon="6.65116">
        <ele>341.3</ele>
        <time>2025-01-19T12:18:04Z</time>
      </trkpt>
      <trkpt lat="43.40963" lon="6.65116">
        <ele>341.4</ele>
        <time>2025-01-19T12:18:05Z</time>
      </trkpt>
      <trkpt lat="43.40963" lon="6.65116">
        <ele>341.3</ele>
        <time>2025-01-19T12:18:06Z</time>
      </trkpt>
      <trkpt lat="43.40963" lon="6.65116">
        <ele>341.2</ele>
        <time>2025-01-19T12:18:07Z</time>
      </trkpt>
      <trkpt lat="43.40963" lon="6.65116">
        <ele>341.2</ele>
        <time>2025-01-19T12:18:08Z</time>
      </trkpt>
      <trkpt lat="43.40963" lon="6.65116">
        <ele>341.2</ele>
        <time>2025-01-19T12:18:09Z</time>
      </trkpt>
      <trkpt lat="43.40963" lon="6.65115">
        <ele>341.2</ele>
        <time>2025-01-19T12:18:10Z</time>
      </trkpt>
      <trkpt lat="43.40963" lon="6.65115">
        <ele>341.2</ele>
        <time>2025-01-19T12:18:11Z</time>
      </trkpt>
      <trkpt lat="43.40963" lon="6.65115">
        <ele>341.1</ele>
        <time>2025-01-19T12:18:12Z</time>
      </trkpt>
      <trkpt lat="43.40963" lon="6.65115">
        <ele>341.1</ele>
        <time>2025-01-19T12:18:13Z</time>
      </trkpt>
      <trkpt lat="43.40963" lon="6.65115">
        <ele>341.1</ele>
        <time>2025-01-19T12:18:14Z</time>
      </trkpt>
      <trkpt lat="43.40963" lon="6.65115">
        <ele>341</ele>
        <time>2025-01-19T12:18:15Z</time>
      </trkpt>
      <trkpt lat="43.40963" lon="6.65115">
        <ele>341</ele>
        <time>2025-01-19T12:18:16Z</time>
      </trkpt>
      <trkpt lat="43.40963" lon="6.65115">
        <ele>340.9</ele>
        <time>2025-01-19T12:18:17Z</time>
      </trkpt>
      <trkpt lat="43.40963" lon="6.65115">
        <ele>340.9</ele>
        <time>2025-01-19T12:18:18Z</time>
      </trkpt>
      <trkpt lat="43.40963" lon="6.65115">
        <ele>340.8</ele>
        <time>2025-01-19T12:18:19Z</time>
      </trkpt>
      <trkpt lat="43.40963" lon="6.65115">
        <ele>340.9</ele>
        <time>2025-01-19T12:18:20Z</time>
      </trkpt>
      <trkpt lat="43.40963" lon="6.65115">
        <ele>340.9</ele>
        <time>2025-01-19T12:18:21Z</time>
      </trkpt>
      <trkpt lat="43.40963" lon="6.65115">
        <ele>340.9</ele>
        <time>2025-01-19T12:18:22Z</time>
      </trkpt>
      <trkpt lat="43.40963" lon="6.65115">
        <ele>340.9</ele>
        <time>2025-01-19T12:18:23Z</time>
      </trkpt>
      <trkpt lat="43.40963" lon="6.65115">
        <ele>340.9</ele>
        <time>2025-01-19T12:18:24Z</time>
      </trkpt>
      <trkpt lat="43.40963" lon="6.65114">
        <ele>340.9</ele>
        <time>2025-01-19T12:18:25Z</time>
      </trkpt>
      <trkpt lat="43.40963" lon="6.65114">
        <ele>340.9</ele>
        <time>2025-01-19T12:18:26Z</time>
      </trkpt>
      <trkpt lat="43.40963" lon="6.65114">
        <ele>340.9</ele>
        <time>2025-01-19T12:18:27Z</time>
      </trkpt>
      <trkpt lat="43.40963" lon="6.65115">
        <ele>340.9</ele>
        <time>2025-01-19T12:18:28Z</time>
      </trkpt>
      <trkpt lat="43.40963" lon="6.65114">
        <ele>340.9</ele>
        <time>2025-01-19T12:18:29Z</time>
      </trkpt>
      <trkpt lat="43.40963" lon="6.65114">
        <ele>340.9</ele>
        <time>2025-01-19T12:18:30Z</time>
      </trkpt>
      <trkpt lat="43.40963" lon="6.65114">
        <ele>341</ele>
        <time>2025-01-19T12:18:31Z</time>
      </trkpt>
      <trkpt lat="43.40963" lon="6.65114">
        <ele>341.1</ele>
        <time>2025-01-19T12:18:32Z</time>
      </trkpt>
      <trkpt lat="43.40963" lon="6.65114">
        <ele>341.1</ele>
        <time>2025-01-19T12:18:33Z</time>
      </trkpt>
      <trkpt lat="43.40963" lon="6.65114">
        <ele>341.2</ele>
        <time>2025-01-19T12:18:34Z</time>
      </trkpt>
      <trkpt lat="43.40963" lon="6.65114">
        <ele>341.2</ele>
        <time>2025-01-19T12:18:35Z</time>
      </trkpt>
      <trkpt lat="43.40963" lon="6.65114">
        <ele>341.3</ele>
        <time>2025-01-19T12:18:36Z</time>
      </trkpt>
      <trkpt lat="43.40963" lon="6.65114">
        <ele>341.3</ele>
        <time>2025-01-19T12:18:37Z</time>
      </trkpt>
      <trkpt lat="43.40963" lon="6.65114">
        <ele>341.3</ele>
        <time>2025-01-19T12:18:38Z</time>
      </trkpt>
      <trkpt lat="43.40963" lon="6.65114">
        <ele>341.3</ele>
        <time>2025-01-19T12:18:39Z</time>
      </trkpt>
      <trkpt lat="43.40963" lon="6.65114">
        <ele>341.3</ele>
        <time>2025-01-19T12:18:40Z</time>
      </trkpt>
      <trkpt lat="43.40963" lon="6.65114">
        <ele>341.3</ele>
        <time>2025-01-19T12:18:41Z</time>
      </trkpt>
      <trkpt lat="43.40963" lon="6.65114">
        <ele>341.3</ele>
        <time>2025-01-19T12:18:42Z</time>
      </trkpt>
      <trkpt lat="43.40963" lon="6.65114">
        <ele>341.3</ele>
        <time>2025-01-19T12:18:43Z</time>
      </trkpt>
      <trkpt lat="43.40963" lon="6.65114">
        <ele>341.3</ele>
        <time>2025-01-19T12:18:44Z</time>
      </trkpt>
      <trkpt lat="43.40963" lon="6.65114">
        <ele>341.3</ele>
        <time>2025-01-19T12:18:45Z</time>
      </trkpt>
      <trkpt lat="43.40963" lon="6.65114">
        <ele>341.3</ele>
        <time>2025-01-19T12:18:46Z</time>
      </trkpt>
      <trkpt lat="43.40963" lon="6.65114">
        <ele>341.3</ele>
        <time>2025-01-19T12:18:47Z</time>
      </trkpt>
      <trkpt lat="43.40963" lon="6.65114">
        <ele>341.3</ele>
        <time>2025-01-19T12:18:48Z</time>
      </trkpt>
      <trkpt lat="43.40963" lon="6.65115">
        <ele>341.3</ele>
        <time>2025-01-19T12:18:49Z</time>
      </trkpt>
      <trkpt lat="43.40963" lon="6.65115">
        <ele>341.4</ele>
        <time>2025-01-19T12:18:50Z</time>
      </trkpt>
      <trkpt lat="43.40963" lon="6.65115">
        <ele>341.5</ele>
        <time>2025-01-19T12:18:51Z</time>
      </trkpt>
      <trkpt lat="43.40963" lon="6.65115">
        <ele>341.5</ele>
        <time>2025-01-19T12:18:52Z</time>
      </trkpt>
      <trkpt lat="43.40963" lon="6.65115">
        <ele>341.5</ele>
        <time>2025-01-19T12:18:53Z</time>
      </trkpt>
      <trkpt lat="43.40964" lon="6.65115">
        <ele>341.5</ele>
        <time>2025-01-19T12:18:54Z</time>
      </trkpt>
      <trkpt lat="43.40964" lon="6.65115">
        <ele>341.5</ele>
        <time>2025-01-19T12:18:55Z</time>
      </trkpt>
      <trkpt lat="43.40964" lon="6.65115">
        <ele>341.5</ele>
        <time>2025-01-19T12:18:56Z</time>
      </trkpt>
      <trkpt lat="43.40964" lon="6.65116">
        <ele>341.5</ele>
        <time>2025-01-19T12:18:57Z</time>
      </trkpt>
      <trkpt lat="43.40964" lon="6.65116">
        <ele>341.5</ele>
        <time>2025-01-19T12:18:58Z</time>
      </trkpt>
      <trkpt lat="43.40964" lon="6.65116">
        <ele>341.5</ele>
        <time>2025-01-19T12:18:59Z</time>
      </trkpt>
      <trkpt lat="43.40964" lon="6.65116">
        <ele>341.4</ele>
        <time>2025-01-19T12:19:00Z</time>
      </trkpt>
      <trkpt lat="43.40964" lon="6.65116">
        <ele>341.4</ele>
        <time>2025-01-19T12:19:01Z</time>
      </trkpt>
      <trkpt lat="43.40964" lon="6.65116">
        <ele>341.3</ele>
        <time>2025-01-19T12:19:02Z</time>
      </trkpt>
      <trkpt lat="43.40964" lon="6.65116">
        <ele>341.3</ele>
        <time>2025-01-19T12:19:03Z</time>
      </trkpt>
      <trkpt lat="43.40964" lon="6.65116">
        <ele>341.3</ele>
        <time>2025-01-19T12:19:04Z</time>
      </trkpt>
      <trkpt lat="43.40964" lon="6.65116">
        <ele>341.3</ele>
        <time>2025-01-19T12:19:05Z</time>
      </trkpt>
      <trkpt lat="43.40964" lon="6.65116">
        <ele>341.4</ele>
        <time>2025-01-19T12:19:06Z</time>
      </trkpt>
      <trkpt lat="43.40964" lon="6.65116">
        <ele>341.4</ele>
        <time>2025-01-19T12:19:07Z</time>
      </trkpt>
      <trkpt lat="43.40964" lon="6.65116">
        <ele>341.4</ele>
        <time>2025-01-19T12:19:08Z</time>
      </trkpt>
      <trkpt lat="43.40964" lon="6.65116">
        <ele>341.4</ele>
        <time>2025-01-19T12:19:09Z</time>
      </trkpt>
      <trkpt lat="43.40964" lon="6.65116">
        <ele>341.5</ele>
        <time>2025-01-19T12:19:10Z</time>
      </trkpt>
      <trkpt lat="43.40965" lon="6.65116">
        <ele>341.5</ele>
        <time>2025-01-19T12:19:11Z</time>
      </trkpt>
      <trkpt lat="43.40965" lon="6.65116">
        <ele>341.6</ele>
        <time>2025-01-19T12:19:12Z</time>
      </trkpt>
      <trkpt lat="43.40965" lon="6.65116">
        <ele>341.6</ele>
        <time>2025-01-19T12:19:13Z</time>
      </trkpt>
      <trkpt lat="43.40965" lon="6.65116">
        <ele>341.7</ele>
        <time>2025-01-19T12:19:14Z</time>
      </trkpt>
      <trkpt lat="43.40965" lon="6.65116">
        <ele>341.7</ele>
        <time>2025-01-19T12:19:15Z</time>
      </trkpt>
      <trkpt lat="43.40965" lon="6.65116">
        <ele>341.6</ele>
        <time>2025-01-19T12:19:16Z</time>
      </trkpt>
      <trkpt lat="43.40965" lon="6.65116">
        <ele>341.6</ele>
        <time>2025-01-19T12:19:17Z</time>
      </trkpt>
      <trkpt lat="43.40965" lon="6.65116">
        <ele>341.5</ele>
        <time>2025-01-19T12:19:18Z</time>
      </trkpt>
      <trkpt lat="43.40965" lon="6.65116">
        <ele>341.5</ele>
        <time>2025-01-19T12:19:19Z</time>
      </trkpt>
      <trkpt lat="43.40965" lon="6.65116">
        <ele>341.4</ele>
        <time>2025-01-19T12:19:20Z</time>
      </trkpt>
      <trkpt lat="43.40965" lon="6.65116">
        <ele>341.4</ele>
        <time>2025-01-19T12:19:21Z</time>
      </trkpt>
      <trkpt lat="43.40965" lon="6.65116">
        <ele>341.4</ele>
        <time>2025-01-19T12:19:22Z</time>
      </trkpt>
      <trkpt lat="43.40965" lon="6.65116">
        <ele>341.5</ele>
        <time>2025-01-19T12:19:23Z</time>
      </trkpt>
      <trkpt lat="43.40965" lon="6.65116">
        <ele>341.4</ele>
        <time>2025-01-19T12:19:24Z</time>
      </trkpt>
      <trkpt lat="43.40965" lon="6.65116">
        <ele>341.3</ele>
        <time>2025-01-19T12:19:25Z</time>
      </trkpt>
      <trkpt lat="43.40965" lon="6.65116">
        <ele>341.3</ele>
        <time>2025-01-19T12:19:26Z</time>
      </trkpt>
      <trkpt lat="43.40965" lon="6.65116">
        <ele>341.3</ele>
        <time>2025-01-19T12:19:27Z</time>
      </trkpt>
      <trkpt lat="43.40965" lon="6.65116">
        <ele>341.2</ele>
        <time>2025-01-19T12:19:28Z</time>
      </trkpt>
      <trkpt lat="43.40965" lon="6.65116">
        <ele>341.2</ele>
        <time>2025-01-19T12:19:29Z</time>
      </trkpt>
      <trkpt lat="43.40965" lon="6.65116">
        <ele>341.2</ele>
        <time>2025-01-19T12:19:30Z</time>
      </trkpt>
      <trkpt lat="43.40965" lon="6.65116">
        <ele>341.3</ele>
        <time>2025-01-19T12:19:31Z</time>
      </trkpt>
      <trkpt lat="43.40965" lon="6.65116">
        <ele>341.2</ele>
        <time>2025-01-19T12:19:32Z</time>
      </trkpt>
      <trkpt lat="43.40965" lon="6.65116">
        <ele>341.2</ele>
        <time>2025-01-19T12:19:33Z</time>
      </trkpt>
      <trkpt lat="43.40965" lon="6.65116">
        <ele>341.2</ele>
        <time>2025-01-19T12:19:34Z</time>
      </trkpt>
      <trkpt lat="43.40965" lon="6.65116">
        <ele>341.2</ele>
        <time>2025-01-19T12:19:35Z</time>
      </trkpt>
      <trkpt lat="43.40965" lon="6.65116">
        <ele>341.3</ele>
        <time>2025-01-19T12:19:36Z</time>
      </trkpt>
      <trkpt lat="43.40964" lon="6.65116">
        <ele>341.4</ele>
        <time>2025-01-19T12:19:37Z</time>
      </trkpt>
      <trkpt lat="43.40964" lon="6.65116">
        <ele>341.3</ele>
        <time>2025-01-19T12:19:38Z</time>
      </trkpt>
      <trkpt lat="43.40964" lon="6.65116">
        <ele>341.4</ele>
        <time>2025-01-19T12:19:39Z</time>
      </trkpt>
      <trkpt lat="43.40964" lon="6.65116">
        <ele>341.4</ele>
        <time>2025-01-19T12:19:40Z</time>
      </trkpt>
      <trkpt lat="43.40964" lon="6.65116">
        <ele>341.4</ele>
        <time>2025-01-19T12:19:41Z</time>
      </trkpt>
      <trkpt lat="43.40964" lon="6.65116">
        <ele>341.3</ele>
        <time>2025-01-19T12:19:42Z</time>
      </trkpt>
      <trkpt lat="43.40964" lon="6.65116">
        <ele>341.3</ele>
        <time>2025-01-19T12:19:43Z</time>
      </trkpt>
      <trkpt lat="43.40964" lon="6.65117">
        <ele>341.3</ele>
        <time>2025-01-19T12:19:44Z</time>
      </trkpt>
      <trkpt lat="43.40964" lon="6.65117">
        <ele>341.4</ele>
        <time>2025-01-19T12:19:45Z</time>
      </trkpt>
      <trkpt lat="43.40964" lon="6.65117">
        <ele>341.4</ele>
        <time>2025-01-19T12:19:46Z</time>
      </trkpt>
      <trkpt lat="43.40964" lon="6.65117">
        <ele>341.4</ele>
        <time>2025-01-19T12:19:47Z</time>
      </trkpt>
      <trkpt lat="43.40964" lon="6.65117">
        <ele>341.4</ele>
        <time>2025-01-19T12:19:48Z</time>
      </trkpt>
      <trkpt lat="43.40964" lon="6.65117">
        <ele>341.4</ele>
        <time>2025-01-19T12:19:49Z</time>
      </trkpt>
      <trkpt lat="43.40964" lon="6.65117">
        <ele>341.5</ele>
        <time>2025-01-19T12:19:50Z</time>
      </trkpt>
      <trkpt lat="43.40964" lon="6.65117">
        <ele>341.5</ele>
        <time>2025-01-19T12:19:51Z</time>
      </trkpt>
      <trkpt lat="43.40964" lon="6.65118">
        <ele>341.5</ele>
        <time>2025-01-19T12:19:52Z</time>
      </trkpt>
      <trkpt lat="43.40964" lon="6.65118">
        <ele>341.5</ele>
        <time>2025-01-19T12:19:53Z</time>
      </trkpt>
      <trkpt lat="43.40964" lon="6.65118">
        <ele>341.5</ele>
        <time>2025-01-19T12:19:54Z</time>
      </trkpt>
      <trkpt lat="43.40964" lon="6.65118">
        <ele>341.6</ele>
        <time>2025-01-19T12:19:55Z</time>
      </trkpt>
      <trkpt lat="43.40963" lon="6.65118">
        <ele>341.6</ele>
        <time>2025-01-19T12:19:56Z</time>
      </trkpt>
      <trkpt lat="43.40963" lon="6.65118">
        <ele>341.6</ele>
        <time>2025-01-19T12:19:57Z</time>
      </trkpt>
      <trkpt lat="43.40963" lon="6.65118">
        <ele>341.6</ele>
        <time>2025-01-19T12:19:58Z</time>
      </trkpt>
      <trkpt lat="43.40963" lon="6.65118">
        <ele>341.6</ele>
        <time>2025-01-19T12:19:59Z</time>
      </trkpt>
      <trkpt lat="43.40963" lon="6.65118">
        <ele>341.6</ele>
        <time>2025-01-19T12:20:00Z</time>
      </trkpt>
      <trkpt lat="43.40963" lon="6.65118">
        <ele>341.5</ele>
        <time>2025-01-19T12:20:01Z</time>
      </trkpt>
      <trkpt lat="43.40963" lon="6.65118">
        <ele>341.5</ele>
        <time>2025-01-19T12:20:02Z</time>
      </trkpt>
      <trkpt lat="43.40963" lon="6.65118">
        <ele>341.5</ele>
        <time>2025-01-19T12:20:03Z</time>
      </trkpt>
      <trkpt lat="43.40963" lon="6.65118">
        <ele>341.5</ele>
        <time>2025-01-19T12:20:04Z</time>
      </trkpt>
      <trkpt lat="43.40963" lon="6.65118">
        <ele>341.6</ele>
        <time>2025-01-19T12:20:05Z</time>
      </trkpt>
      <trkpt lat="43.40963" lon="6.65117">
        <ele>341.6</ele>
        <time>2025-01-19T12:20:06Z</time>
      </trkpt>
      <trkpt lat="43.40963" lon="6.65117">
        <ele>341.6</ele>
        <time>2025-01-19T12:20:07Z</time>
      </trkpt>
      <trkpt lat="43.40963" lon="6.65117">
        <ele>341.6</ele>
        <time>2025-01-19T12:20:08Z</time>
      </trkpt>
      <trkpt lat="43.40963" lon="6.65117">
        <ele>341.5</ele>
        <time>2025-01-19T12:20:09Z</time>
      </trkpt>
      <trkpt lat="43.40963" lon="6.65117">
        <ele>341.5</ele>
        <time>2025-01-19T12:20:10Z</time>
      </trkpt>
      <trkpt lat="43.40963" lon="6.65117">
        <ele>341.5</ele>
        <time>2025-01-19T12:20:11Z</time>
      </trkpt>
      <trkpt lat="43.40963" lon="6.65117">
        <ele>341.5</ele>
        <time>2025-01-19T12:20:12Z</time>
      </trkpt>
      <trkpt lat="43.40963" lon="6.65117">
        <ele>341.5</ele>
        <time>2025-01-19T12:20:13Z</time>
      </trkpt>
      <trkpt lat="43.40963" lon="6.65117">
        <ele>341.5</ele>
        <time>2025-01-19T12:20:14Z</time>
      </trkpt>
      <trkpt lat="43.40963" lon="6.65117">
        <ele>341.4</ele>
        <time>2025-01-19T12:20:15Z</time>
      </trkpt>
      <trkpt lat="43.40963" lon="6.65117">
        <ele>341.3</ele>
        <time>2025-01-19T12:20:16Z</time>
      </trkpt>
      <trkpt lat="43.40963" lon="6.65117">
        <ele>341.2</ele>
        <time>2025-01-19T12:20:17Z</time>
      </trkpt>
      <trkpt lat="43.40963" lon="6.65117">
        <ele>341.2</ele>
        <time>2025-01-19T12:20:18Z</time>
      </trkpt>
      <trkpt lat="43.40963" lon="6.65117">
        <ele>341.2</ele>
        <time>2025-01-19T12:20:19Z</time>
      </trkpt>
      <trkpt lat="43.40963" lon="6.65117">
        <ele>341.3</ele>
        <time>2025-01-19T12:20:20Z</time>
      </trkpt>
      <trkpt lat="43.40963" lon="6.65117">
        <ele>341.3</ele>
        <time>2025-01-19T12:20:21Z</time>
      </trkpt>
      <trkpt lat="43.40963" lon="6.65117">
        <ele>341.3</ele>
        <time>2025-01-19T12:20:22Z</time>
      </trkpt>
      <trkpt lat="43.40963" lon="6.65117">
        <ele>341.3</ele>
        <time>2025-01-19T12:20:23Z</time>
      </trkpt>
      <trkpt lat="43.40963" lon="6.65117">
        <ele>341.3</ele>
        <time>2025-01-19T12:20:24Z</time>
      </trkpt>
      <trkpt lat="43.40963" lon="6.65117">
        <ele>341.3</ele>
        <time>2025-01-19T12:20:25Z</time>
      </trkpt>
      <trkpt lat="43.40963" lon="6.65117">
        <ele>341.3</ele>
        <time>2025-01-19T12:20:26Z</time>
      </trkpt>
      <trkpt lat="43.40963" lon="6.65117">
        <ele>341.3</ele>
        <time>2025-01-19T12:20:27Z</time>
      </trkpt>
      <trkpt lat="43.40963" lon="6.65117">
        <ele>341.3</ele>
        <time>2025-01-19T12:20:28Z</time>
      </trkpt>
      <trkpt lat="43.40963" lon="6.65117">
        <ele>341.3</ele>
        <time>2025-01-19T12:20:29Z</time>
      </trkpt>
      <trkpt lat="43.40963" lon="6.65117">
        <ele>341.4</ele>
        <time>2025-01-19T12:20:30Z</time>
      </trkpt>
      <trkpt lat="43.40963" lon="6.65117">
        <ele>341.5</ele>
        <time>2025-01-19T12:20:31Z</time>
      </trkpt>
      <trkpt lat="43.40963" lon="6.65117">
        <ele>341.5</ele>
        <time>2025-01-19T12:20:32Z</time>
      </trkpt>
      <trkpt lat="43.40963" lon="6.65116">
        <ele>341.5</ele>
        <time>2025-01-19T12:20:33Z</time>
      </trkpt>
      <trkpt lat="43.40963" lon="6.65116">
        <ele>341.5</ele>
        <time>2025-01-19T12:20:34Z</time>
      </trkpt>
      <trkpt lat="43.40963" lon="6.65116">
        <ele>341.5</ele>
        <time>2025-01-19T12:20:35Z</time>
      </trkpt>
      <trkpt lat="43.40963" lon="6.65116">
        <ele>341.5</ele>
        <time>2025-01-19T12:20:36Z</time>
      </trkpt>
      <trkpt lat="43.40963" lon="6.65116">
        <ele>341.6</ele>
        <time>2025-01-19T12:20:37Z</time>
      </trkpt>
      <trkpt lat="43.40963" lon="6.65116">
        <ele>341.6</ele>
        <time>2025-01-19T12:20:38Z</time>
      </trkpt>
      <trkpt lat="43.40963" lon="6.65115">
        <ele>341.7</ele>
        <time>2025-01-19T12:20:39Z</time>
      </trkpt>
      <trkpt lat="43.40963" lon="6.65115">
        <ele>341.7</ele>
        <time>2025-01-19T12:20:40Z</time>
      </trkpt>
      <trkpt lat="43.40963" lon="6.65114">
        <ele>341.8</ele>
        <time>2025-01-19T12:20:41Z</time>
      </trkpt>
      <trkpt lat="43.40963" lon="6.65114">
        <ele>341.8</ele>
        <time>2025-01-19T12:20:42Z</time>
      </trkpt>
      <trkpt lat="43.40963" lon="6.65114">
        <ele>341.9</ele>
        <time>2025-01-19T12:20:43Z</time>
      </trkpt>
      <trkpt lat="43.40963" lon="6.65114">
        <ele>341.9</ele>
        <time>2025-01-19T12:20:44Z</time>
      </trkpt>
      <trkpt lat="43.40963" lon="6.65114">
        <ele>342</ele>
        <time>2025-01-19T12:20:45Z</time>
      </trkpt>
      <trkpt lat="43.40963" lon="6.65114">
        <ele>342.1</ele>
        <time>2025-01-19T12:20:46Z</time>
      </trkpt>
      <trkpt lat="43.40963" lon="6.65114">
        <ele>342.1</ele>
        <time>2025-01-19T12:20:47Z</time>
      </trkpt>
      <trkpt lat="43.40963" lon="6.65114">
        <ele>342.1</ele>
        <time>2025-01-19T12:20:48Z</time>
      </trkpt>
      <trkpt lat="43.40963" lon="6.65114">
        <ele>342.1</ele>
        <time>2025-01-19T12:20:49Z</time>
      </trkpt>
      <trkpt lat="43.40963" lon="6.65114">
        <ele>342.1</ele>
        <time>2025-01-19T12:20:50Z</time>
      </trkpt>
      <trkpt lat="43.40963" lon="6.65114">
        <ele>342.1</ele>
        <time>2025-01-19T12:20:51Z</time>
      </trkpt>
      <trkpt lat="43.40963" lon="6.65114">
        <ele>342.2</ele>
        <time>2025-01-19T12:20:52Z</time>
      </trkpt>
      <trkpt lat="43.40963" lon="6.65113">
        <ele>342.2</ele>
        <time>2025-01-19T12:20:53Z</time>
      </trkpt>
      <trkpt lat="43.40963" lon="6.65114">
        <ele>342.2</ele>
        <time>2025-01-19T12:20:54Z</time>
      </trkpt>
      <trkpt lat="43.40963" lon="6.65114">
        <ele>342.2</ele>
        <time>2025-01-19T12:20:55Z</time>
      </trkpt>
      <trkpt lat="43.40963" lon="6.65114">
        <ele>342.1</ele>
        <time>2025-01-19T12:20:56Z</time>
      </trkpt>
      <trkpt lat="43.40963" lon="6.65114">
        <ele>342</ele>
        <time>2025-01-19T12:20:57Z</time>
      </trkpt>
      <trkpt lat="43.40963" lon="6.65114">
        <ele>341.9</ele>
        <time>2025-01-19T12:20:58Z</time>
      </trkpt>
      <trkpt lat="43.40963" lon="6.65114">
        <ele>341.8</ele>
        <time>2025-01-19T12:20:59Z</time>
      </trkpt>
      <trkpt lat="43.40963" lon="6.65114">
        <ele>341.8</ele>
        <time>2025-01-19T12:21:00Z</time>
      </trkpt>
      <trkpt lat="43.40963" lon="6.65114">
        <ele>341.9</ele>
        <time>2025-01-19T12:21:01Z</time>
      </trkpt>
      <trkpt lat="43.40963" lon="6.65114">
        <ele>341.9</ele>
        <time>2025-01-19T12:21:02Z</time>
      </trkpt>
      <trkpt lat="43.40963" lon="6.65114">
        <ele>341.9</ele>
        <time>2025-01-19T12:21:03Z</time>
      </trkpt>
      <trkpt lat="43.40963" lon="6.65114">
        <ele>341.9</ele>
        <time>2025-01-19T12:21:04Z</time>
      </trkpt>
      <trkpt lat="43.40963" lon="6.65114">
        <ele>341.9</ele>
        <time>2025-01-19T12:21:05Z</time>
      </trkpt>
      <trkpt lat="43.40962" lon="6.65114">
        <ele>341.8</ele>
        <time>2025-01-19T12:21:06Z</time>
      </trkpt>
      <trkpt lat="43.40962" lon="6.65114">
        <ele>341.7</ele>
        <time>2025-01-19T12:21:07Z</time>
      </trkpt>
      <trkpt lat="43.40962" lon="6.65114">
        <ele>341.6</ele>
        <time>2025-01-19T12:21:08Z</time>
      </trkpt>
      <trkpt lat="43.40962" lon="6.65114">
        <ele>341.5</ele>
        <time>2025-01-19T12:21:09Z</time>
      </trkpt>
      <trkpt lat="43.40962" lon="6.65114">
        <ele>341.5</ele>
        <time>2025-01-19T12:21:10Z</time>
      </trkpt>
      <trkpt lat="43.40962" lon="6.65114">
        <ele>341.4</ele>
        <time>2025-01-19T12:21:11Z</time>
      </trkpt>
      <trkpt lat="43.40962" lon="6.65114">
        <ele>341.5</ele>
        <time>2025-01-19T12:21:12Z</time>
      </trkpt>
      <trkpt lat="43.40962" lon="6.65114">
        <ele>341.6</ele>
        <time>2025-01-19T12:21:13Z</time>
      </trkpt>
      <trkpt lat="43.40962" lon="6.65114">
        <ele>341.5</ele>
        <time>2025-01-19T12:21:14Z</time>
      </trkpt>
      <trkpt lat="43.40962" lon="6.65114">
        <ele>341.5</ele>
        <time>2025-01-19T12:21:15Z</time>
      </trkpt>
      <trkpt lat="43.40962" lon="6.65114">
        <ele>341.5</ele>
        <time>2025-01-19T12:21:16Z</time>
      </trkpt>
      <trkpt lat="43.40962" lon="6.65114">
        <ele>341.4</ele>
        <time>2025-01-19T12:21:17Z</time>
      </trkpt>
      <trkpt lat="43.40962" lon="6.65113">
        <ele>341.4</ele>
        <time>2025-01-19T12:21:18Z</time>
      </trkpt>
      <trkpt lat="43.40962" lon="6.65113">
        <ele>341.4</ele>
        <time>2025-01-19T12:21:19Z</time>
      </trkpt>
      <trkpt lat="43.40962" lon="6.65113">
        <ele>341.5</ele>
        <time>2025-01-19T12:21:20Z</time>
      </trkpt>
      <trkpt lat="43.40962" lon="6.65113">
        <ele>341.5</ele>
        <time>2025-01-19T12:21:21Z</time>
      </trkpt>
      <trkpt lat="43.40962" lon="6.65113">
        <ele>341.5</ele>
        <time>2025-01-19T12:21:22Z</time>
      </trkpt>
      <trkpt lat="43.40962" lon="6.65113">
        <ele>341.5</ele>
        <time>2025-01-19T12:21:23Z</time>
      </trkpt>
      <trkpt lat="43.40962" lon="6.65113">
        <ele>341.6</ele>
        <time>2025-01-19T12:21:24Z</time>
      </trkpt>
      <trkpt lat="43.40962" lon="6.65113">
        <ele>341.6</ele>
        <time>2025-01-19T12:21:25Z</time>
      </trkpt>
      <trkpt lat="43.40962" lon="6.65113">
        <ele>341.6</ele>
        <time>2025-01-19T12:21:26Z</time>
      </trkpt>
      <trkpt lat="43.40962" lon="6.65113">
        <ele>341.6</ele>
        <time>2025-01-19T12:21:27Z</time>
      </trkpt>
      <trkpt lat="43.40962" lon="6.65113">
        <ele>341.5</ele>
        <time>2025-01-19T12:21:28Z</time>
      </trkpt>
      <trkpt lat="43.40962" lon="6.65113">
        <ele>341.5</ele>
        <time>2025-01-19T12:21:29Z</time>
      </trkpt>
      <trkpt lat="43.40962" lon="6.65113">
        <ele>341.5</ele>
        <time>2025-01-19T12:21:30Z</time>
      </trkpt>
      <trkpt lat="43.40962" lon="6.65113">
        <ele>341.6</ele>
        <time>2025-01-19T12:21:31Z</time>
      </trkpt>
      <trkpt lat="43.40961" lon="6.65113">
        <ele>341.7</ele>
        <time>2025-01-19T12:21:32Z</time>
      </trkpt>
      <trkpt lat="43.40961" lon="6.65113">
        <ele>341.6</ele>
        <time>2025-01-19T12:21:33Z</time>
      </trkpt>
      <trkpt lat="43.40961" lon="6.65113">
        <ele>341.6</ele>
        <time>2025-01-19T12:21:34Z</time>
      </trkpt>
      <trkpt lat="43.40961" lon="6.65113">
        <ele>341.5</ele>
        <time>2025-01-19T12:21:35Z</time>
      </trkpt>
      <trkpt lat="43.40961" lon="6.65113">
        <ele>341.5</ele>
        <time>2025-01-19T12:21:36Z</time>
      </trkpt>
      <trkpt lat="43.40961" lon="6.65113">
        <ele>341.5</ele>
        <time>2025-01-19T12:21:37Z</time>
      </trkpt>
      <trkpt lat="43.40961" lon="6.65113">
        <ele>341.4</ele>
        <time>2025-01-19T12:21:38Z</time>
      </trkpt>
      <trkpt lat="43.40961" lon="6.65113">
        <ele>341.4</ele>
        <time>2025-01-19T12:21:39Z</time>
      </trkpt>
      <trkpt lat="43.40961" lon="6.65113">
        <ele>341.5</ele>
        <time>2025-01-19T12:21:40Z</time>
      </trkpt>
      <trkpt lat="43.40961" lon="6.65113">
        <ele>341.6</ele>
        <time>2025-01-19T12:21:41Z</time>
      </trkpt>
      <trkpt lat="43.40961" lon="6.65113">
        <ele>341.6</ele>
        <time>2025-01-19T12:21:42Z</time>
      </trkpt>
      <trkpt lat="43.40961" lon="6.65114">
        <ele>341.6</ele>
        <time>2025-01-19T12:21:43Z</time>
      </trkpt>
      <trkpt lat="43.40961" lon="6.65114">
        <ele>341.7</ele>
        <time>2025-01-19T12:21:44Z</time>
      </trkpt>
      <trkpt lat="43.40961" lon="6.65114">
        <ele>341.7</ele>
        <time>2025-01-19T12:21:45Z</time>
      </trkpt>
      <trkpt lat="43.40961" lon="6.65114">
        <ele>341.7</ele>
        <time>2025-01-19T12:21:46Z</time>
      </trkpt>
      <trkpt lat="43.40961" lon="6.65114">
        <ele>341.7</ele>
        <time>2025-01-19T12:21:47Z</time>
      </trkpt>
      <trkpt lat="43.40961" lon="6.65114">
        <ele>341.7</ele>
        <time>2025-01-19T12:21:48Z</time>
      </trkpt>
      <trkpt lat="43.40961" lon="6.65114">
        <ele>341.7</ele>
        <time>2025-01-19T12:21:49Z</time>
      </trkpt>
      <trkpt lat="43.40961" lon="6.65114">
        <ele>341.7</ele>
        <time>2025-01-19T12:21:50Z</time>
      </trkpt>
      <trkpt lat="43.40961" lon="6.65114">
        <ele>341.7</ele>
        <time>2025-01-19T12:21:51Z</time>
      </trkpt>
      <trkpt lat="43.40961" lon="6.65114">
        <ele>341.8</ele>
        <time>2025-01-19T12:21:52Z</time>
      </trkpt>
      <trkpt lat="43.40961" lon="6.65114">
        <ele>341.9</ele>
        <time>2025-01-19T12:21:53Z</time>
      </trkpt>
      <trkpt lat="43.40961" lon="6.65114">
        <ele>341.8</ele>
        <time>2025-01-19T12:21:54Z</time>
      </trkpt>
      <trkpt lat="43.40961" lon="6.65115">
        <ele>341.8</ele>
        <time>2025-01-19T12:21:55Z</time>
      </trkpt>
      <trkpt lat="43.40961" lon="6.65115">
        <ele>341.8</ele>
        <time>2025-01-19T12:21:56Z</time>
      </trkpt>
      <trkpt lat="43.40961" lon="6.65115">
        <ele>341.8</ele>
        <time>2025-01-19T12:21:57Z</time>
      </trkpt>
      <trkpt lat="43.40961" lon="6.65115">
        <ele>341.8</ele>
        <time>2025-01-19T12:21:58Z</time>
      </trkpt>
      <trkpt lat="43.40961" lon="6.65115">
        <ele>341.8</ele>
        <time>2025-01-19T12:21:59Z</time>
      </trkpt>
      <trkpt lat="43.40961" lon="6.65115">
        <ele>341.7</ele>
        <time>2025-01-19T12:22:00Z</time>
      </trkpt>
      <trkpt lat="43.40961" lon="6.65115">
        <ele>341.7</ele>
        <time>2025-01-19T12:22:01Z</time>
      </trkpt>
      <trkpt lat="43.40961" lon="6.65115">
        <ele>341.8</ele>
        <time>2025-01-19T12:22:02Z</time>
      </trkpt>
      <trkpt lat="43.40961" lon="6.65115">
        <ele>341.8</ele>
        <time>2025-01-19T12:22:03Z</time>
      </trkpt>
      <trkpt lat="43.40961" lon="6.65115">
        <ele>341.8</ele>
        <time>2025-01-19T12:22:04Z</time>
      </trkpt>
      <trkpt lat="43.40961" lon="6.65115">
        <ele>341.8</ele>
        <time>2025-01-19T12:22:05Z</time>
      </trkpt>
      <trkpt lat="43.40961" lon="6.65115">
        <ele>341.8</ele>
        <time>2025-01-19T12:22:06Z</time>
      </trkpt>
      <trkpt lat="43.40961" lon="6.65115">
        <ele>341.8</ele>
        <time>2025-01-19T12:22:07Z</time>
      </trkpt>
      <trkpt lat="43.40961" lon="6.65115">
        <ele>341.8</ele>
        <time>2025-01-19T12:22:08Z</time>
      </trkpt>
      <trkpt lat="43.40961" lon="6.65115">
        <ele>341.8</ele>
        <time>2025-01-19T12:22:09Z</time>
      </trkpt>
      <trkpt lat="43.4096" lon="6.65115">
        <ele>341.8</ele>
        <time>2025-01-19T12:22:10Z</time>
      </trkpt>
      <trkpt lat="43.4096" lon="6.65115">
        <ele>341.8</ele>
        <time>2025-01-19T12:22:11Z</time>
      </trkpt>
      <trkpt lat="43.4096" lon="6.65115">
        <ele>341.8</ele>
        <time>2025-01-19T12:22:12Z</time>
      </trkpt>
      <trkpt lat="43.4096" lon="6.65115">
        <ele>341.7</ele>
        <time>2025-01-19T12:22:13Z</time>
      </trkpt>
      <trkpt lat="43.4096" lon="6.65115">
        <ele>341.7</ele>
        <time>2025-01-19T12:22:14Z</time>
      </trkpt>
      <trkpt lat="43.4096" lon="6.65115">
        <ele>341.8</ele>
        <time>2025-01-19T12:22:15Z</time>
      </trkpt>
      <trkpt lat="43.4096" lon="6.65115">
        <ele>341.8</ele>
        <time>2025-01-19T12:22:16Z</time>
      </trkpt>
      <trkpt lat="43.4096" lon="6.65116">
        <ele>341.8</ele>
        <time>2025-01-19T12:22:17Z</time>
      </trkpt>
      <trkpt lat="43.4096" lon="6.65116">
        <ele>341.8</ele>
        <time>2025-01-19T12:22:18Z</time>
      </trkpt>
      <trkpt lat="43.4096" lon="6.65116">
        <ele>341.8</ele>
        <time>2025-01-19T12:22:19Z</time>
      </trkpt>
      <trkpt lat="43.4096" lon="6.65116">
        <ele>341.8</ele>
        <time>2025-01-19T12:22:20Z</time>
      </trkpt>
      <trkpt lat="43.4096" lon="6.65116">
        <ele>341.9</ele>
        <time>2025-01-19T12:22:21Z</time>
      </trkpt>
      <trkpt lat="43.4096" lon="6.65116">
        <ele>341.8</ele>
        <time>2025-01-19T12:22:22Z</time>
      </trkpt>
      <trkpt lat="43.40959" lon="6.65116">
        <ele>341.8</ele>
        <time>2025-01-19T12:22:23Z</time>
      </trkpt>
      <trkpt lat="43.40959" lon="6.65116">
        <ele>341.8</ele>
        <time>2025-01-19T12:22:24Z</time>
      </trkpt>
      <trkpt lat="43.40959" lon="6.65116">
        <ele>341.7</ele>
        <time>2025-01-19T12:22:25Z</time>
      </trkpt>
      <trkpt lat="43.40959" lon="6.65116">
        <ele>341.7</ele>
        <time>2025-01-19T12:22:26Z</time>
      </trkpt>
      <trkpt lat="43.40959" lon="6.65116">
        <ele>341.7</ele>
        <time>2025-01-19T12:22:27Z</time>
      </trkpt>
      <trkpt lat="43.40959" lon="6.65116">
        <ele>341.8</ele>
        <time>2025-01-19T12:22:28Z</time>
      </trkpt>
      <trkpt lat="43.40959" lon="6.65116">
        <ele>341.9</ele>
        <time>2025-01-19T12:22:29Z</time>
      </trkpt>
      <trkpt lat="43.4096" lon="6.65116">
        <ele>341.9</ele>
        <time>2025-01-19T12:22:30Z</time>
      </trkpt>
      <trkpt lat="43.4096" lon="6.65116">
        <ele>342</ele>
        <time>2025-01-19T12:22:31Z</time>
      </trkpt>
      <trkpt lat="43.4096" lon="6.65116">
        <ele>342.1</ele>
        <time>2025-01-19T12:22:32Z</time>
      </trkpt>
      <trkpt lat="43.4096" lon="6.65116">
        <ele>342.1</ele>
        <time>2025-01-19T12:22:33Z</time>
      </trkpt>
      <trkpt lat="43.4096" lon="6.65116">
        <ele>342.2</ele>
        <time>2025-01-19T12:22:34Z</time>
      </trkpt>
      <trkpt lat="43.4096" lon="6.65116">
        <ele>342.3</ele>
        <time>2025-01-19T12:22:35Z</time>
      </trkpt>
      <trkpt lat="43.4096" lon="6.65116">
        <ele>342.3</ele>
        <time>2025-01-19T12:22:36Z</time>
      </trkpt>
      <trkpt lat="43.4096" lon="6.65117">
        <ele>342.4</ele>
        <time>2025-01-19T12:22:37Z</time>
      </trkpt>
      <trkpt lat="43.4096" lon="6.65117">
        <ele>342.4</ele>
        <time>2025-01-19T12:22:38Z</time>
      </trkpt>
      <trkpt lat="43.4096" lon="6.65117">
        <ele>342.4</ele>
        <time>2025-01-19T12:22:39Z</time>
      </trkpt>
      <trkpt lat="43.4096" lon="6.65117">
        <ele>342.4</ele>
        <time>2025-01-19T12:22:40Z</time>
      </trkpt>
      <trkpt lat="43.4096" lon="6.65117">
        <ele>342.4</ele>
        <time>2025-01-19T12:22:41Z</time>
      </trkpt>
      <trkpt lat="43.4096" lon="6.65117">
        <ele>342.5</ele>
        <time>2025-01-19T12:22:42Z</time>
      </trkpt>
      <trkpt lat="43.4096" lon="6.65117">
        <ele>342.5</ele>
        <time>2025-01-19T12:22:43Z</time>
      </trkpt>
      <trkpt lat="43.4096" lon="6.65117">
        <ele>342.5</ele>
        <time>2025-01-19T12:22:44Z</time>
      </trkpt>
      <trkpt lat="43.4096" lon="6.65117">
        <ele>342.5</ele>
        <time>2025-01-19T12:22:45Z</time>
      </trkpt>
      <trkpt lat="43.4096" lon="6.65117">
        <ele>342.5</ele>
        <time>2025-01-19T12:22:46Z</time>
      </trkpt>
      <trkpt lat="43.4096" lon="6.65117">
        <ele>342.5</ele>
        <time>2025-01-19T12:22:47Z</time>
      </trkpt>
      <trkpt lat="43.4096" lon="6.65117">
        <ele>342.5</ele>
        <time>2025-01-19T12:22:48Z</time>
      </trkpt>
      <trkpt lat="43.4096" lon="6.65117">
        <ele>342.4</ele>
        <time>2025-01-19T12:22:49Z</time>
      </trkpt>
      <trkpt lat="43.4096" lon="6.65117">
        <ele>342.3</ele>
        <time>2025-01-19T12:22:50Z</time>
      </trkpt>
      <trkpt lat="43.4096" lon="6.65117">
        <ele>342.2</ele>
        <time>2025-01-19T12:22:51Z</time>
      </trkpt>
      <trkpt lat="43.4096" lon="6.65117">
        <ele>342.2</ele>
        <time>2025-01-19T12:22:52Z</time>
      </trkpt>
      <trkpt lat="43.4096" lon="6.65117">
        <ele>342.1</ele>
        <time>2025-01-19T12:22:53Z</time>
      </trkpt>
      <trkpt lat="43.40961" lon="6.65117">
        <ele>342</ele>
        <time>2025-01-19T12:22:54Z</time>
      </trkpt>
      <trkpt lat="43.40961" lon="6.65117">
        <ele>341.9</ele>
        <time>2025-01-19T12:22:55Z</time>
      </trkpt>
      <trkpt lat="43.40961" lon="6.65117">
        <ele>341.8</ele>
        <time>2025-01-19T12:22:56Z</time>
      </trkpt>
      <trkpt lat="43.40961" lon="6.65117">
        <ele>341.7</ele>
        <time>2025-01-19T12:22:57Z</time>
      </trkpt>
      <trkpt lat="43.40961" lon="6.65117">
        <ele>341.7</ele>
        <time>2025-01-19T12:22:58Z</time>
      </trkpt>
      <trkpt lat="43.40961" lon="6.65117">
        <ele>341.7</ele>
        <time>2025-01-19T12:22:59Z</time>
      </trkpt>
      <trkpt lat="43.40962" lon="6.65117">
        <ele>341.6</ele>
        <time>2025-01-19T12:23:00Z</time>
      </trkpt>
      <trkpt lat="43.40962" lon="6.65117">
        <ele>341.6</ele>
        <time>2025-01-19T12:23:01Z</time>
      </trkpt>
      <trkpt lat="43.40962" lon="6.65117">
        <ele>341.6</ele>
        <time>2025-01-19T12:23:02Z</time>
      </trkpt>
      <trkpt lat="43.40962" lon="6.65117">
        <ele>341.5</ele>
        <time>2025-01-19T12:23:03Z</time>
      </trkpt>
      <trkpt lat="43.40962" lon="6.65117">
        <ele>341.6</ele>
        <time>2025-01-19T12:23:04Z</time>
      </trkpt>
      <trkpt lat="43.40962" lon="6.65117">
        <ele>341.6</ele>
        <time>2025-01-19T12:23:05Z</time>
      </trkpt>
      <trkpt lat="43.40962" lon="6.65117">
        <ele>341.5</ele>
        <time>2025-01-19T12:23:06Z</time>
      </trkpt>
      <trkpt lat="43.40963" lon="6.65117">
        <ele>341.5</ele>
        <time>2025-01-19T12:23:07Z</time>
      </trkpt>
      <trkpt lat="43.40963" lon="6.65117">
        <ele>341.5</ele>
        <time>2025-01-19T12:23:08Z</time>
      </trkpt>
      <trkpt lat="43.40963" lon="6.65118">
        <ele>341.5</ele>
        <time>2025-01-19T12:23:09Z</time>
      </trkpt>
      <trkpt lat="43.40963" lon="6.65118">
        <ele>341.5</ele>
        <time>2025-01-19T12:23:10Z</time>
      </trkpt>
      <trkpt lat="43.40963" lon="6.65118">
        <ele>341.5</ele>
        <time>2025-01-19T12:23:11Z</time>
      </trkpt>
      <trkpt lat="43.40963" lon="6.65118">
        <ele>341.4</ele>
        <time>2025-01-19T12:23:12Z</time>
      </trkpt>
      <trkpt lat="43.40963" lon="6.65118">
        <ele>341.4</ele>
        <time>2025-01-19T12:23:13Z</time>
      </trkpt>
      <trkpt lat="43.40963" lon="6.65118">
        <ele>341.3</ele>
        <time>2025-01-19T12:23:14Z</time>
      </trkpt>
      <trkpt lat="43.40964" lon="6.65118">
        <ele>341.3</ele>
        <time>2025-01-19T12:23:15Z</time>
      </trkpt>
      <trkpt lat="43.40964" lon="6.65118">
        <ele>341.4</ele>
        <time>2025-01-19T12:23:16Z</time>
      </trkpt>
      <trkpt lat="43.40964" lon="6.65118">
        <ele>341.5</ele>
        <time>2025-01-19T12:23:17Z</time>
      </trkpt>
      <trkpt lat="43.40964" lon="6.65118">
        <ele>341.5</ele>
        <time>2025-01-19T12:23:18Z</time>
      </trkpt>
      <trkpt lat="43.40964" lon="6.65118">
        <ele>341.5</ele>
        <time>2025-01-19T12:23:19Z</time>
      </trkpt>
      <trkpt lat="43.40964" lon="6.65118">
        <ele>341.5</ele>
        <time>2025-01-19T12:23:20Z</time>
      </trkpt>
      <trkpt lat="43.40964" lon="6.65118">
        <ele>341.5</ele>
        <time>2025-01-19T12:23:21Z</time>
      </trkpt>
      <trkpt lat="43.40964" lon="6.65118">
        <ele>341.5</ele>
        <time>2025-01-19T12:23:22Z</time>
      </trkpt>
      <trkpt lat="43.40964" lon="6.65118">
        <ele>341.6</ele>
        <time>2025-01-19T12:23:23Z</time>
      </trkpt>
      <trkpt lat="43.40964" lon="6.65117">
        <ele>341.7</ele>
        <time>2025-01-19T12:23:24Z</time>
      </trkpt>
      <trkpt lat="43.40964" lon="6.65117">
        <ele>341.7</ele>
        <time>2025-01-19T12:23:25Z</time>
      </trkpt>
      <trkpt lat="43.40964" lon="6.65117">
        <ele>341.8</ele>
        <time>2025-01-19T12:23:26Z</time>
      </trkpt>
      <trkpt lat="43.40964" lon="6.65117">
        <ele>341.8</ele>
        <time>2025-01-19T12:23:27Z</time>
      </trkpt>
      <trkpt lat="43.40964" lon="6.65117">
        <ele>341.7</ele>
        <time>2025-01-19T12:23:28Z</time>
      </trkpt>
      <trkpt lat="43.40964" lon="6.65117">
        <ele>341.7</ele>
        <time>2025-01-19T12:23:29Z</time>
      </trkpt>
      <trkpt lat="43.40964" lon="6.65117">
        <ele>341.7</ele>
        <time>2025-01-19T12:23:30Z</time>
      </trkpt>
      <trkpt lat="43.40964" lon="6.65118">
        <ele>341.6</ele>
        <time>2025-01-19T12:23:31Z</time>
      </trkpt>
      <trkpt lat="43.40963" lon="6.65118">
        <ele>341.6</ele>
        <time>2025-01-19T12:23:32Z</time>
      </trkpt>
      <trkpt lat="43.40963" lon="6.65118">
        <ele>341.5</ele>
        <time>2025-01-19T12:23:33Z</time>
      </trkpt>
      <trkpt lat="43.40963" lon="6.65118">
        <ele>341.4</ele>
        <time>2025-01-19T12:23:34Z</time>
      </trkpt>
      <trkpt lat="43.40963" lon="6.65118">
        <ele>341.3</ele>
        <time>2025-01-19T12:23:35Z</time>
      </trkpt>
      <trkpt lat="43.40963" lon="6.65118">
        <ele>341.3</ele>
        <time>2025-01-19T12:23:36Z</time>
      </trkpt>
      <trkpt lat="43.40963" lon="6.65118">
        <ele>341.4</ele>
        <time>2025-01-19T12:23:37Z</time>
      </trkpt>
      <trkpt lat="43.40963" lon="6.65119">
        <ele>341.3</ele>
        <time>2025-01-19T12:23:38Z</time>
      </trkpt>
      <trkpt lat="43.40963" lon="6.65119">
        <ele>341.3</ele>
        <time>2025-01-19T12:23:39Z</time>
      </trkpt>
      <trkpt lat="43.40963" lon="6.65119">
        <ele>341.3</ele>
        <time>2025-01-19T12:23:40Z</time>
      </trkpt>
      <trkpt lat="43.40963" lon="6.65119">
        <ele>341.3</ele>
        <time>2025-01-19T12:23:41Z</time>
      </trkpt>
      <trkpt lat="43.40963" lon="6.65119">
        <ele>341.4</ele>
        <time>2025-01-19T12:23:42Z</time>
      </trkpt>
      <trkpt lat="43.40963" lon="6.65119">
        <ele>341.5</ele>
        <time>2025-01-19T12:23:43Z</time>
      </trkpt>
      <trkpt lat="43.40963" lon="6.65119">
        <ele>341.5</ele>
        <time>2025-01-19T12:23:44Z</time>
      </trkpt>
      <trkpt lat="43.40963" lon="6.65119">
        <ele>341.5</ele>
        <time>2025-01-19T12:23:45Z</time>
      </trkpt>
      <trkpt lat="43.40963" lon="6.65119">
        <ele>341.5</ele>
        <time>2025-01-19T12:23:46Z</time>
      </trkpt>
      <trkpt lat="43.40963" lon="6.65119">
        <ele>341.5</ele>
        <time>2025-01-19T12:23:47Z</time>
      </trkpt>
      <trkpt lat="43.40963" lon="6.65119">
        <ele>341.5</ele>
        <time>2025-01-19T12:23:48Z</time>
      </trkpt>
      <trkpt lat="43.40963" lon="6.65119">
        <ele>341.6</ele>
        <time>2025-01-19T12:23:49Z</time>
      </trkpt>
      <trkpt lat="43.40963" lon="6.65119">
        <ele>341.5</ele>
        <time>2025-01-19T12:23:50Z</time>
      </trkpt>
      <trkpt lat="43.40963" lon="6.65119">
        <ele>341.5</ele>
        <time>2025-01-19T12:23:51Z</time>
      </trkpt>
      <trkpt lat="43.40963" lon="6.65119">
        <ele>341.6</ele>
        <time>2025-01-19T12:23:52Z</time>
      </trkpt>
      <trkpt lat="43.40963" lon="6.65119">
        <ele>341.6</ele>
        <time>2025-01-19T12:23:53Z</time>
      </trkpt>
      <trkpt lat="43.40963" lon="6.65119">
        <ele>341.7</ele>
        <time>2025-01-19T12:23:54Z</time>
      </trkpt>
      <trkpt lat="43.40963" lon="6.65119">
        <ele>341.7</ele>
        <time>2025-01-19T12:23:55Z</time>
      </trkpt>
      <trkpt lat="43.40963" lon="6.65119">
        <ele>341.8</ele>
        <time>2025-01-19T12:23:56Z</time>
      </trkpt>
      <trkpt lat="43.40963" lon="6.65119">
        <ele>341.8</ele>
        <time>2025-01-19T12:23:57Z</time>
      </trkpt>
      <trkpt lat="43.40963" lon="6.65118">
        <ele>341.8</ele>
        <time>2025-01-19T12:23:58Z</time>
      </trkpt>
      <trkpt lat="43.40963" lon="6.65118">
        <ele>341.9</ele>
        <time>2025-01-19T12:23:59Z</time>
      </trkpt>
      <trkpt lat="43.40963" lon="6.65117">
        <ele>342</ele>
        <time>2025-01-19T12:24:00Z</time>
      </trkpt>
      <trkpt lat="43.40964" lon="6.65117">
        <ele>342.1</ele>
        <time>2025-01-19T12:24:01Z</time>
      </trkpt>
      <trkpt lat="43.40964" lon="6.65116">
        <ele>342.2</ele>
        <time>2025-01-19T12:24:02Z</time>
      </trkpt>
      <trkpt lat="43.40964" lon="6.65116">
        <ele>342.3</ele>
        <time>2025-01-19T12:24:03Z</time>
      </trkpt>
      <trkpt lat="43.40964" lon="6.65116">
        <ele>342.3</ele>
        <time>2025-01-19T12:24:04Z</time>
      </trkpt>
      <trkpt lat="43.40963" lon="6.65116">
        <ele>342.3</ele>
        <time>2025-01-19T12:24:05Z</time>
      </trkpt>
      <trkpt lat="43.40963" lon="6.65116">
        <ele>342.3</ele>
        <time>2025-01-19T12:24:06Z</time>
      </trkpt>
      <trkpt lat="43.40963" lon="6.65115">
        <ele>342.3</ele>
        <time>2025-01-19T12:24:07Z</time>
      </trkpt>
      <trkpt lat="43.40963" lon="6.65115">
        <ele>342.3</ele>
        <time>2025-01-19T12:24:08Z</time>
      </trkpt>
      <trkpt lat="43.40963" lon="6.65115">
        <ele>342.3</ele>
        <time>2025-01-19T12:24:09Z</time>
      </trkpt>
      <trkpt lat="43.40963" lon="6.65115">
        <ele>342.3</ele>
        <time>2025-01-19T12:24:10Z</time>
      </trkpt>
      <trkpt lat="43.40963" lon="6.65115">
        <ele>342.3</ele>
        <time>2025-01-19T12:24:11Z</time>
      </trkpt>
      <trkpt lat="43.40963" lon="6.65115">
        <ele>342.3</ele>
        <time>2025-01-19T12:24:12Z</time>
      </trkpt>
      <trkpt lat="43.40963" lon="6.65115">
        <ele>342.3</ele>
        <time>2025-01-19T12:24:13Z</time>
      </trkpt>
      <trkpt lat="43.40963" lon="6.65115">
        <ele>342.3</ele>
        <time>2025-01-19T12:24:14Z</time>
      </trkpt>
      <trkpt lat="43.40963" lon="6.65115">
        <ele>342.3</ele>
        <time>2025-01-19T12:24:15Z</time>
      </trkpt>
      <trkpt lat="43.40963" lon="6.65114">
        <ele>342.3</ele>
        <time>2025-01-19T12:24:16Z</time>
      </trkpt>
      <trkpt lat="43.40963" lon="6.65114">
        <ele>342.3</ele>
        <time>2025-01-19T12:24:17Z</time>
      </trkpt>
      <trkpt lat="43.40963" lon="6.65113">
        <ele>342.3</ele>
        <time>2025-01-19T12:24:18Z</time>
      </trkpt>
      <trkpt lat="43.40962" lon="6.65113">
        <ele>342.2</ele>
        <time>2025-01-19T12:24:19Z</time>
      </trkpt>
      <trkpt lat="43.40962" lon="6.65113">
        <ele>342.3</ele>
        <time>2025-01-19T12:24:20Z</time>
      </trkpt>
      <trkpt lat="43.40962" lon="6.65113">
        <ele>342.3</ele>
        <time>2025-01-19T12:24:21Z</time>
      </trkpt>
      <trkpt lat="43.40962" lon="6.65113">
        <ele>342.2</ele>
        <time>2025-01-19T12:24:22Z</time>
      </trkpt>
      <trkpt lat="43.40961" lon="6.65113">
        <ele>342.1</ele>
        <time>2025-01-19T12:24:23Z</time>
      </trkpt>
      <trkpt lat="43.40961" lon="6.65113">
        <ele>342</ele>
        <time>2025-01-19T12:24:24Z</time>
      </trkpt>
      <trkpt lat="43.40961" lon="6.65112">
        <ele>342</ele>
        <time>2025-01-19T12:24:25Z</time>
      </trkpt>
      <trkpt lat="43.40961" lon="6.65112">
        <ele>342</ele>
        <time>2025-01-19T12:24:26Z</time>
      </trkpt>
      <trkpt lat="43.40961" lon="6.65112">
        <ele>342</ele>
        <time>2025-01-19T12:24:27Z</time>
      </trkpt>
      <trkpt lat="43.40961" lon="6.65112">
        <ele>341.9</ele>
        <time>2025-01-19T12:24:28Z</time>
      </trkpt>
      <trkpt lat="43.4096" lon="6.65112">
        <ele>341.9</ele>
        <time>2025-01-19T12:24:29Z</time>
      </trkpt>
      <trkpt lat="43.4096" lon="6.65111">
        <ele>341.9</ele>
        <time>2025-01-19T12:24:30Z</time>
      </trkpt>
      <trkpt lat="43.4096" lon="6.65111">
        <ele>341.9</ele>
        <time>2025-01-19T12:24:31Z</time>
      </trkpt>
      <trkpt lat="43.4096" lon="6.65111">
        <ele>341.8</ele>
        <time>2025-01-19T12:24:32Z</time>
      </trkpt>
      <trkpt lat="43.4096" lon="6.65111">
        <ele>341.8</ele>
        <time>2025-01-19T12:24:33Z</time>
      </trkpt>
      <trkpt lat="43.4096" lon="6.65111">
        <ele>341.8</ele>
        <time>2025-01-19T12:24:34Z</time>
      </trkpt>
      <trkpt lat="43.4096" lon="6.6511">
        <ele>341.9</ele>
        <time>2025-01-19T12:24:35Z</time>
      </trkpt>
      <trkpt lat="43.4096" lon="6.6511">
        <ele>341.9</ele>
        <time>2025-01-19T12:24:36Z</time>
      </trkpt>
      <trkpt lat="43.4096" lon="6.6511">
        <ele>342</ele>
        <time>2025-01-19T12:24:37Z</time>
      </trkpt>
      <trkpt lat="43.40959" lon="6.6511">
        <ele>342</ele>
        <time>2025-01-19T12:24:38Z</time>
      </trkpt>
      <trkpt lat="43.40959" lon="6.6511">
        <ele>342</ele>
        <time>2025-01-19T12:24:39Z</time>
      </trkpt>
      <trkpt lat="43.40959" lon="6.6511">
        <ele>341.9</ele>
        <time>2025-01-19T12:24:40Z</time>
      </trkpt>
      <trkpt lat="43.40959" lon="6.6511">
        <ele>342</ele>
        <time>2025-01-19T12:24:41Z</time>
      </trkpt>
      <trkpt lat="43.40959" lon="6.6511">
        <ele>342</ele>
        <time>2025-01-19T12:24:42Z</time>
      </trkpt>
      <trkpt lat="43.40959" lon="6.6511">
        <ele>342</ele>
        <time>2025-01-19T12:24:43Z</time>
      </trkpt>
      <trkpt lat="43.40959" lon="6.6511">
        <ele>342</ele>
        <time>2025-01-19T12:24:44Z</time>
      </trkpt>
      <trkpt lat="43.40959" lon="6.6511">
        <ele>342</ele>
        <time>2025-01-19T12:24:45Z</time>
      </trkpt>
      <trkpt lat="43.40959" lon="6.6511">
        <ele>342</ele>
        <time>2025-01-19T12:24:46Z</time>
      </trkpt>
      <trkpt lat="43.40959" lon="6.6511">
        <ele>341.9</ele>
        <time>2025-01-19T12:24:47Z</time>
      </trkpt>
      <trkpt lat="43.40959" lon="6.6511">
        <ele>341.8</ele>
        <time>2025-01-19T12:24:48Z</time>
      </trkpt>
      <trkpt lat="43.40959" lon="6.6511">
        <ele>341.8</ele>
        <time>2025-01-19T12:24:49Z</time>
      </trkpt>
      <trkpt lat="43.40959" lon="6.6511">
        <ele>341.7</ele>
        <time>2025-01-19T12:24:50Z</time>
      </trkpt>
      <trkpt lat="43.40959" lon="6.6511">
        <ele>341.8</ele>
        <time>2025-01-19T12:24:51Z</time>
      </trkpt>
      <trkpt lat="43.40959" lon="6.6511">
        <ele>341.9</ele>
        <time>2025-01-19T12:24:52Z</time>
      </trkpt>
      <trkpt lat="43.4096" lon="6.6511">
        <ele>342</ele>
        <time>2025-01-19T12:24:53Z</time>
      </trkpt>
      <trkpt lat="43.4096" lon="6.65109">
        <ele>342.1</ele>
        <time>2025-01-19T12:24:54Z</time>
      </trkpt>
      <trkpt lat="43.4096" lon="6.65109">
        <ele>342.2</ele>
        <time>2025-01-19T12:24:55Z</time>
      </trkpt>
      <trkpt lat="43.4096" lon="6.65109">
        <ele>342.2</ele>
        <time>2025-01-19T12:24:56Z</time>
      </trkpt>
      <trkpt lat="43.4096" lon="6.65109">
        <ele>342.2</ele>
        <time>2025-01-19T12:24:57Z</time>
      </trkpt>
      <trkpt lat="43.4096" lon="6.65109">
        <ele>342.3</ele>
        <time>2025-01-19T12:24:58Z</time>
      </trkpt>
      <trkpt lat="43.4096" lon="6.65109">
        <ele>342.4</ele>
        <time>2025-01-19T12:24:59Z</time>
      </trkpt>
      <trkpt lat="43.4096" lon="6.65109">
        <ele>342.4</ele>
        <time>2025-01-19T12:25:00Z</time>
      </trkpt>
      <trkpt lat="43.4096" lon="6.65109">
        <ele>342.5</ele>
        <time>2025-01-19T12:25:01Z</time>
      </trkpt>
      <trkpt lat="43.4096" lon="6.65109">
        <ele>342.5</ele>
        <time>2025-01-19T12:25:02Z</time>
      </trkpt>
      <trkpt lat="43.4096" lon="6.65109">
        <ele>342.5</ele>
        <time>2025-01-19T12:25:03Z</time>
      </trkpt>
      <trkpt lat="43.4096" lon="6.65108">
        <ele>342.5</ele>
        <time>2025-01-19T12:25:04Z</time>
      </trkpt>
      <trkpt lat="43.4096" lon="6.65108">
        <ele>342.5</ele>
        <time>2025-01-19T12:25:05Z</time>
      </trkpt>
      <trkpt lat="43.4096" lon="6.65108">
        <ele>342.5</ele>
        <time>2025-01-19T12:25:06Z</time>
      </trkpt>
      <trkpt lat="43.4096" lon="6.65108">
        <ele>342.4</ele>
        <time>2025-01-19T12:25:07Z</time>
      </trkpt>
      <trkpt lat="43.4096" lon="6.65108">
        <ele>342.5</ele>
        <time>2025-01-19T12:25:08Z</time>
      </trkpt>
      <trkpt lat="43.4096" lon="6.65108">
        <ele>342.5</ele>
        <time>2025-01-19T12:25:09Z</time>
      </trkpt>
      <trkpt lat="43.4096" lon="6.65108">
        <ele>342.6</ele>
        <time>2025-01-19T12:25:10Z</time>
      </trkpt>
      <trkpt lat="43.4096" lon="6.65108">
        <ele>342.7</ele>
        <time>2025-01-19T12:25:11Z</time>
      </trkpt>
      <trkpt lat="43.4096" lon="6.65108">
        <ele>342.7</ele>
        <time>2025-01-19T12:25:12Z</time>
      </trkpt>
      <trkpt lat="43.4096" lon="6.65108">
        <ele>342.7</ele>
        <time>2025-01-19T12:25:13Z</time>
      </trkpt>
      <trkpt lat="43.4096" lon="6.65108">
        <ele>342.8</ele>
        <time>2025-01-19T12:25:14Z</time>
      </trkpt>
      <trkpt lat="43.40961" lon="6.65108">
        <ele>342.8</ele>
        <time>2025-01-19T12:25:15Z</time>
      </trkpt>
      <trkpt lat="43.40961" lon="6.65108">
        <ele>342.7</ele>
        <time>2025-01-19T12:25:16Z</time>
      </trkpt>
      <trkpt lat="43.40961" lon="6.65108">
        <ele>342.7</ele>
        <time>2025-01-19T12:25:17Z</time>
      </trkpt>
      <trkpt lat="43.40961" lon="6.65108">
        <ele>342.7</ele>
        <time>2025-01-19T12:25:18Z</time>
      </trkpt>
      <trkpt lat="43.40961" lon="6.65108">
        <ele>342.7</ele>
        <time>2025-01-19T12:25:19Z</time>
      </trkpt>
      <trkpt lat="43.40961" lon="6.65108">
        <ele>342.7</ele>
        <time>2025-01-19T12:25:20Z</time>
      </trkpt>
      <trkpt lat="43.40961" lon="6.65108">
        <ele>342.6</ele>
        <time>2025-01-19T12:25:21Z</time>
      </trkpt>
      <trkpt lat="43.40961" lon="6.65108">
        <ele>342.6</ele>
        <time>2025-01-19T12:25:22Z</time>
      </trkpt>
      <trkpt lat="43.40961" lon="6.65108">
        <ele>342.6</ele>
        <time>2025-01-19T12:25:23Z</time>
      </trkpt>
      <trkpt lat="43.40961" lon="6.65108">
        <ele>342.7</ele>
        <time>2025-01-19T12:25:24Z</time>
      </trkpt>
      <trkpt lat="43.40961" lon="6.65108">
        <ele>342.7</ele>
        <time>2025-01-19T12:25:25Z</time>
      </trkpt>
      <trkpt lat="43.40962" lon="6.65108">
        <ele>342.7</ele>
        <time>2025-01-19T12:25:26Z</time>
      </trkpt>
      <trkpt lat="43.40962" lon="6.65108">
        <ele>342.7</ele>
        <time>2025-01-19T12:25:27Z</time>
      </trkpt>
      <trkpt lat="43.40962" lon="6.65108">
        <ele>342.6</ele>
        <time>2025-01-19T12:25:28Z</time>
      </trkpt>
      <trkpt lat="43.40962" lon="6.65108">
        <ele>342.6</ele>
        <time>2025-01-19T12:25:29Z</time>
      </trkpt>
      <trkpt lat="43.40962" lon="6.65109">
        <ele>342.6</ele>
        <time>2025-01-19T12:25:30Z</time>
      </trkpt>
      <trkpt lat="43.40962" lon="6.65109">
        <ele>342.6</ele>
        <time>2025-01-19T12:25:31Z</time>
      </trkpt>
      <trkpt lat="43.40962" lon="6.6511">
        <ele>342.6</ele>
        <time>2025-01-19T12:25:32Z</time>
      </trkpt>
      <trkpt lat="43.40962" lon="6.6511">
        <ele>342.6</ele>
        <time>2025-01-19T12:25:33Z</time>
      </trkpt>
      <trkpt lat="43.40962" lon="6.6511">
        <ele>342.6</ele>
        <time>2025-01-19T12:25:34Z</time>
      </trkpt>
      <trkpt lat="43.40962" lon="6.6511">
        <ele>342.7</ele>
        <time>2025-01-19T12:25:35Z</time>
      </trkpt>
      <trkpt lat="43.40962" lon="6.6511">
        <ele>342.7</ele>
        <time>2025-01-19T12:25:36Z</time>
      </trkpt>
      <trkpt lat="43.40962" lon="6.6511">
        <ele>342.7</ele>
        <time>2025-01-19T12:25:37Z</time>
      </trkpt>
      <trkpt lat="43.40962" lon="6.6511">
        <ele>342.7</ele>
        <time>2025-01-19T12:25:38Z</time>
      </trkpt>
      <trkpt lat="43.40962" lon="6.6511">
        <ele>342.7</ele>
        <time>2025-01-19T12:25:39Z</time>
      </trkpt>
      <trkpt lat="43.40962" lon="6.65111">
        <ele>342.8</ele>
        <time>2025-01-19T12:25:40Z</time>
      </trkpt>
      <trkpt lat="43.40962" lon="6.65111">
        <ele>342.8</ele>
        <time>2025-01-19T12:25:41Z</time>
      </trkpt>
      <trkpt lat="43.40962" lon="6.65111">
        <ele>342.8</ele>
        <time>2025-01-19T12:25:42Z</time>
      </trkpt>
      <trkpt lat="43.40962" lon="6.65111">
        <ele>342.8</ele>
        <time>2025-01-19T12:25:43Z</time>
      </trkpt>
      <trkpt lat="43.40962" lon="6.65111">
        <ele>342.8</ele>
        <time>2025-01-19T12:25:44Z</time>
      </trkpt>
      <trkpt lat="43.40962" lon="6.65111">
        <ele>342.7</ele>
        <time>2025-01-19T12:25:45Z</time>
      </trkpt>
      <trkpt lat="43.40962" lon="6.65111">
        <ele>342.7</ele>
        <time>2025-01-19T12:25:46Z</time>
      </trkpt>
      <trkpt lat="43.40962" lon="6.65111">
        <ele>342.8</ele>
        <time>2025-01-19T12:25:47Z</time>
      </trkpt>
      <trkpt lat="43.40962" lon="6.65111">
        <ele>342.7</ele>
        <time>2025-01-19T12:25:48Z</time>
      </trkpt>
      <trkpt lat="43.40962" lon="6.6511">
        <ele>342.7</ele>
        <time>2025-01-19T12:25:49Z</time>
      </trkpt>
      <trkpt lat="43.40962" lon="6.65111">
        <ele>342.6</ele>
        <time>2025-01-19T12:25:50Z</time>
      </trkpt>
      <trkpt lat="43.40962" lon="6.65111">
        <ele>342.5</ele>
        <time>2025-01-19T12:25:51Z</time>
      </trkpt>
      <trkpt lat="43.40962" lon="6.65111">
        <ele>342.5</ele>
        <time>2025-01-19T12:25:52Z</time>
      </trkpt>
      <trkpt lat="43.40963" lon="6.65111">
        <ele>342.4</ele>
        <time>2025-01-19T12:25:53Z</time>
      </trkpt>
      <trkpt lat="43.40963" lon="6.65111">
        <ele>342.4</ele>
        <time>2025-01-19T12:25:54Z</time>
      </trkpt>
      <trkpt lat="43.40963" lon="6.65111">
        <ele>342.4</ele>
        <time>2025-01-19T12:25:55Z</time>
      </trkpt>
      <trkpt lat="43.40963" lon="6.65111">
        <ele>342.4</ele>
        <time>2025-01-19T12:25:56Z</time>
      </trkpt>
      <trkpt lat="43.40963" lon="6.65111">
        <ele>342.5</ele>
        <time>2025-01-19T12:25:57Z</time>
      </trkpt>
      <trkpt lat="43.40964" lon="6.65111">
        <ele>342.6</ele>
        <time>2025-01-19T12:25:58Z</time>
      </trkpt>
      <trkpt lat="43.40964" lon="6.65111">
        <ele>342.6</ele>
        <time>2025-01-19T12:25:59Z</time>
      </trkpt>
      <trkpt lat="43.40963" lon="6.65111">
        <ele>342.7</ele>
        <time>2025-01-19T12:26:00Z</time>
      </trkpt>
      <trkpt lat="43.40963" lon="6.6511">
        <ele>342.7</ele>
        <time>2025-01-19T12:26:01Z</time>
      </trkpt>
      <trkpt lat="43.40963" lon="6.6511">
        <ele>342.8</ele>
        <time>2025-01-19T12:26:02Z</time>
      </trkpt>
      <trkpt lat="43.40963" lon="6.6511">
        <ele>342.8</ele>
        <time>2025-01-19T12:26:03Z</time>
      </trkpt>
      <trkpt lat="43.40962" lon="6.65111">
        <ele>342.9</ele>
        <time>2025-01-19T12:26:04Z</time>
      </trkpt>
      <trkpt lat="43.40963" lon="6.65111">
        <ele>342.9</ele>
        <time>2025-01-19T12:26:05Z</time>
      </trkpt>
      <trkpt lat="43.40963" lon="6.65111">
        <ele>342.9</ele>
        <time>2025-01-19T12:26:06Z</time>
      </trkpt>
      <trkpt lat="43.40963" lon="6.65111">
        <ele>342.9</ele>
        <time>2025-01-19T12:26:07Z</time>
      </trkpt>
      <trkpt lat="43.40963" lon="6.65111">
        <ele>342.8</ele>
        <time>2025-01-19T12:26:08Z</time>
      </trkpt>
      <trkpt lat="43.40963" lon="6.65111">
        <ele>342.9</ele>
        <time>2025-01-19T12:26:09Z</time>
      </trkpt>
      <trkpt lat="43.40963" lon="6.65111">
        <ele>342.9</ele>
        <time>2025-01-19T12:26:10Z</time>
      </trkpt>
      <trkpt lat="43.40963" lon="6.65111">
        <ele>343</ele>
        <time>2025-01-19T12:26:11Z</time>
      </trkpt>
      <trkpt lat="43.40963" lon="6.65111">
        <ele>342.9</ele>
        <time>2025-01-19T12:26:12Z</time>
      </trkpt>
      <trkpt lat="43.40963" lon="6.65112">
        <ele>342.9</ele>
        <time>2025-01-19T12:26:13Z</time>
      </trkpt>
      <trkpt lat="43.40964" lon="6.65112">
        <ele>342.9</ele>
        <time>2025-01-19T12:26:14Z</time>
      </trkpt>
      <trkpt lat="43.40963" lon="6.65112">
        <ele>342.8</ele>
        <time>2025-01-19T12:26:15Z</time>
      </trkpt>
      <trkpt lat="43.40963" lon="6.65112">
        <ele>342.8</ele>
        <time>2025-01-19T12:26:16Z</time>
      </trkpt>
      <trkpt lat="43.40963" lon="6.65112">
        <ele>342.8</ele>
        <time>2025-01-19T12:26:17Z</time>
      </trkpt>
      <trkpt lat="43.40963" lon="6.65112">
        <ele>342.8</ele>
        <time>2025-01-19T12:26:18Z</time>
      </trkpt>
      <trkpt lat="43.40962" lon="6.65111">
        <ele>342.8</ele>
        <time>2025-01-19T12:26:19Z</time>
      </trkpt>
      <trkpt lat="43.40962" lon="6.65111">
        <ele>342.8</ele>
        <time>2025-01-19T12:26:20Z</time>
      </trkpt>
      <trkpt lat="43.40962" lon="6.65111">
        <ele>342.8</ele>
        <time>2025-01-19T12:26:21Z</time>
      </trkpt>
      <trkpt lat="43.40962" lon="6.65111">
        <ele>342.8</ele>
        <time>2025-01-19T12:26:22Z</time>
      </trkpt>
      <trkpt lat="43.40962" lon="6.65111">
        <ele>342.9</ele>
        <time>2025-01-19T12:26:23Z</time>
      </trkpt>
      <trkpt lat="43.40962" lon="6.65111">
        <ele>342.9</ele>
        <time>2025-01-19T12:26:24Z</time>
      </trkpt>
      <trkpt lat="43.40962" lon="6.65111">
        <ele>342.9</ele>
        <time>2025-01-19T12:26:25Z</time>
      </trkpt>
      <trkpt lat="43.40962" lon="6.65111">
        <ele>343</ele>
        <time>2025-01-19T12:26:26Z</time>
      </trkpt>
      <trkpt lat="43.40962" lon="6.65111">
        <ele>343</ele>
        <time>2025-01-19T12:26:27Z</time>
      </trkpt>
      <trkpt lat="43.40962" lon="6.6511">
        <ele>342.9</ele>
        <time>2025-01-19T12:26:28Z</time>
      </trkpt>
      <trkpt lat="43.40962" lon="6.65109">
        <ele>343</ele>
        <time>2025-01-19T12:26:29Z</time>
      </trkpt>
      <trkpt lat="43.40962" lon="6.65109">
        <ele>343.1</ele>
        <time>2025-01-19T12:26:30Z</time>
      </trkpt>
      <trkpt lat="43.40962" lon="6.65108">
        <ele>343.2</ele>
        <time>2025-01-19T12:26:31Z</time>
      </trkpt>
      <trkpt lat="43.40962" lon="6.65108">
        <ele>343.3</ele>
        <time>2025-01-19T12:26:32Z</time>
      </trkpt>
      <trkpt lat="43.40962" lon="6.65108">
        <ele>343.4</ele>
        <time>2025-01-19T12:26:33Z</time>
      </trkpt>
      <trkpt lat="43.40962" lon="6.65108">
        <ele>343.5</ele>
        <time>2025-01-19T12:26:34Z</time>
      </trkpt>
      <trkpt lat="43.40962" lon="6.65108">
        <ele>344.7</ele>
        <time>2025-01-19T12:26:35Z</time>
      </trkpt>
      <trkpt lat="43.40962" lon="6.65108">
        <ele>344.7</ele>
        <time>2025-01-19T12:26:36Z</time>
      </trkpt>
      <trkpt lat="43.40962" lon="6.65108">
        <ele>344.6</ele>
        <time>2025-01-19T12:26:37Z</time>
      </trkpt>
      <trkpt lat="43.40962" lon="6.65108">
        <ele>344.5</ele>
        <time>2025-01-19T12:26:38Z</time>
      </trkpt>
      <trkpt lat="43.40962" lon="6.65108">
        <ele>344.3</ele>
        <time>2025-01-19T12:26:39Z</time>
      </trkpt>
      <trkpt lat="43.40961" lon="6.65107">
        <ele>344.2</ele>
        <time>2025-01-19T12:26:40Z</time>
      </trkpt>
      <trkpt lat="43.40961" lon="6.65107">
        <ele>344.1</ele>
        <time>2025-01-19T12:26:41Z</time>
      </trkpt>
      <trkpt lat="43.40961" lon="6.65107">
        <ele>344</ele>
        <time>2025-01-19T12:26:42Z</time>
      </trkpt>
      <trkpt lat="43.40961" lon="6.65107">
        <ele>344</ele>
        <time>2025-01-19T12:26:43Z</time>
      </trkpt>
      <trkpt lat="43.40961" lon="6.65107">
        <ele>343.9</ele>
        <time>2025-01-19T12:26:44Z</time>
      </trkpt>
      <trkpt lat="43.40961" lon="6.65107">
        <ele>343.8</ele>
        <time>2025-01-19T12:26:45Z</time>
      </trkpt>
      <trkpt lat="43.40961" lon="6.65107">
        <ele>343.8</ele>
        <time>2025-01-19T12:26:46Z</time>
      </trkpt>
      <trkpt lat="43.40961" lon="6.65107">
        <ele>343.9</ele>
        <time>2025-01-19T12:26:47Z</time>
      </trkpt>
      <trkpt lat="43.40961" lon="6.65107">
        <ele>343.8</ele>
        <time>2025-01-19T12:26:48Z</time>
      </trkpt>
      <trkpt lat="43.40961" lon="6.65107">
        <ele>343.8</ele>
        <time>2025-01-19T12:26:49Z</time>
      </trkpt>
      <trkpt lat="43.40961" lon="6.65107">
        <ele>343.8</ele>
        <time>2025-01-19T12:26:50Z</time>
      </trkpt>
      <trkpt lat="43.40961" lon="6.65106">
        <ele>343.8</ele>
        <time>2025-01-19T12:26:51Z</time>
      </trkpt>
      <trkpt lat="43.40961" lon="6.65106">
        <ele>343.8</ele>
        <time>2025-01-19T12:26:52Z</time>
      </trkpt>
      <trkpt lat="43.40961" lon="6.65106">
        <ele>343.9</ele>
        <time>2025-01-19T12:26:53Z</time>
      </trkpt>
      <trkpt lat="43.40961" lon="6.65106">
        <ele>343.9</ele>
        <time>2025-01-19T12:26:54Z</time>
      </trkpt>
      <trkpt lat="43.40961" lon="6.65106">
        <ele>343.9</ele>
        <time>2025-01-19T12:26:55Z</time>
      </trkpt>
      <trkpt lat="43.40961" lon="6.65106">
        <ele>343.9</ele>
        <time>2025-01-19T12:26:56Z</time>
      </trkpt>
      <trkpt lat="43.40961" lon="6.65106">
        <ele>343.9</ele>
        <time>2025-01-19T12:26:57Z</time>
      </trkpt>
      <trkpt lat="43.40961" lon="6.65106">
        <ele>343.9</ele>
        <time>2025-01-19T12:26:58Z</time>
      </trkpt>
      <trkpt lat="43.40961" lon="6.65105">
        <ele>343.8</ele>
        <time>2025-01-19T12:26:59Z</time>
      </trkpt>
      <trkpt lat="43.40961" lon="6.65105">
        <ele>343.9</ele>
        <time>2025-01-19T12:27:00Z</time>
      </trkpt>
      <trkpt lat="43.40961" lon="6.65105">
        <ele>343.9</ele>
        <time>2025-01-19T12:27:01Z</time>
      </trkpt>
      <trkpt lat="43.40961" lon="6.65105">
        <ele>344</ele>
        <time>2025-01-19T12:27:02Z</time>
      </trkpt>
      <trkpt lat="43.40961" lon="6.65105">
        <ele>343.9</ele>
        <time>2025-01-19T12:27:03Z</time>
      </trkpt>
      <trkpt lat="43.40961" lon="6.65105">
        <ele>343.9</ele>
        <time>2025-01-19T12:27:04Z</time>
      </trkpt>
      <trkpt lat="43.40961" lon="6.65105">
        <ele>343.8</ele>
        <time>2025-01-19T12:27:05Z</time>
      </trkpt>
      <trkpt lat="43.40962" lon="6.65105">
        <ele>343.8</ele>
        <time>2025-01-19T12:27:06Z</time>
      </trkpt>
      <trkpt lat="43.40962" lon="6.65105">
        <ele>343.7</ele>
        <time>2025-01-19T12:27:07Z</time>
      </trkpt>
      <trkpt lat="43.40962" lon="6.65105">
        <ele>343.7</ele>
        <time>2025-01-19T12:27:08Z</time>
      </trkpt>
      <trkpt lat="43.40962" lon="6.65105">
        <ele>343.6</ele>
        <time>2025-01-19T12:27:09Z</time>
      </trkpt>
      <trkpt lat="43.40962" lon="6.65105">
        <ele>343.5</ele>
        <time>2025-01-19T12:27:10Z</time>
      </trkpt>
      <trkpt lat="43.40962" lon="6.65105">
        <ele>343.5</ele>
        <time>2025-01-19T12:27:11Z</time>
      </trkpt>
      <trkpt lat="43.40962" lon="6.65105">
        <ele>343.5</ele>
        <time>2025-01-19T12:27:12Z</time>
      </trkpt>
      <trkpt lat="43.40962" lon="6.65105">
        <ele>343.4</ele>
        <time>2025-01-19T12:27:13Z</time>
      </trkpt>
      <trkpt lat="43.40962" lon="6.65105">
        <ele>343.4</ele>
        <time>2025-01-19T12:27:14Z</time>
      </trkpt>
      <trkpt lat="43.40962" lon="6.65105">
        <ele>343.4</ele>
        <time>2025-01-19T12:27:15Z</time>
      </trkpt>
      <trkpt lat="43.40962" lon="6.65105">
        <ele>343.4</ele>
        <time>2025-01-19T12:27:16Z</time>
      </trkpt>
      <trkpt lat="43.40962" lon="6.65105">
        <ele>343.4</ele>
        <time>2025-01-19T12:27:17Z</time>
      </trkpt>
      <trkpt lat="43.40962" lon="6.65105">
        <ele>343.4</ele>
        <time>2025-01-19T12:27:18Z</time>
      </trkpt>
      <trkpt lat="43.40962" lon="6.65105">
        <ele>343.4</ele>
        <time>2025-01-19T12:27:19Z</time>
      </trkpt>
      <trkpt lat="43.40962" lon="6.65104">
        <ele>343.4</ele>
        <time>2025-01-19T12:27:20Z</time>
      </trkpt>
      <trkpt lat="43.40962" lon="6.65104">
        <ele>343.5</ele>
        <time>2025-01-19T12:27:21Z</time>
      </trkpt>
      <trkpt lat="43.40962" lon="6.65105">
        <ele>343.5</ele>
        <time>2025-01-19T12:27:22Z</time>
      </trkpt>
      <trkpt lat="43.40962" lon="6.65104">
        <ele>343.6</ele>
        <time>2025-01-19T12:27:23Z</time>
      </trkpt>
      <trkpt lat="43.40962" lon="6.65104">
        <ele>343.7</ele>
        <time>2025-01-19T12:27:24Z</time>
      </trkpt>
      <trkpt lat="43.40962" lon="6.65104">
        <ele>343.7</ele>
        <time>2025-01-19T12:27:25Z</time>
      </trkpt>
      <trkpt lat="43.40962" lon="6.65104">
        <ele>343.8</ele>
        <time>2025-01-19T12:27:26Z</time>
      </trkpt>
      <trkpt lat="43.40962" lon="6.65104">
        <ele>343.8</ele>
        <time>2025-01-19T12:27:27Z</time>
      </trkpt>
      <trkpt lat="43.40962" lon="6.65104">
        <ele>343.8</ele>
        <time>2025-01-19T12:27:28Z</time>
      </trkpt>
      <trkpt lat="43.40962" lon="6.65104">
        <ele>343.8</ele>
        <time>2025-01-19T12:27:29Z</time>
      </trkpt>
      <trkpt lat="43.40962" lon="6.65104">
        <ele>343.8</ele>
        <time>2025-01-19T12:27:30Z</time>
      </trkpt>
      <trkpt lat="43.40962" lon="6.65104">
        <ele>343.8</ele>
        <time>2025-01-19T12:27:31Z</time>
      </trkpt>
      <trkpt lat="43.40962" lon="6.65104">
        <ele>343.8</ele>
        <time>2025-01-19T12:27:32Z</time>
      </trkpt>
      <trkpt lat="43.40962" lon="6.65104">
        <ele>343.8</ele>
        <time>2025-01-19T12:27:33Z</time>
      </trkpt>
      <trkpt lat="43.40962" lon="6.65104">
        <ele>343.8</ele>
        <time>2025-01-19T12:27:34Z</time>
      </trkpt>
      <trkpt lat="43.40962" lon="6.65104">
        <ele>343.8</ele>
        <time>2025-01-19T12:27:35Z</time>
      </trkpt>
      <trkpt lat="43.40962" lon="6.65104">
        <ele>343.8</ele>
        <time>2025-01-19T12:27:36Z</time>
      </trkpt>
      <trkpt lat="43.40962" lon="6.65104">
        <ele>343.8</ele>
        <time>2025-01-19T12:27:37Z</time>
      </trkpt>
      <trkpt lat="43.40962" lon="6.65104">
        <ele>343.8</ele>
        <time>2025-01-19T12:27:38Z</time>
      </trkpt>
      <trkpt lat="43.40962" lon="6.65104">
        <ele>343.8</ele>
        <time>2025-01-19T12:27:39Z</time>
      </trkpt>
      <trkpt lat="43.40962" lon="6.65104">
        <ele>343.8</ele>
        <time>2025-01-19T12:27:40Z</time>
      </trkpt>
      <trkpt lat="43.40962" lon="6.65104">
        <ele>343.8</ele>
        <time>2025-01-19T12:27:41Z</time>
      </trkpt>
      <trkpt lat="43.40962" lon="6.65104">
        <ele>343.8</ele>
        <time>2025-01-19T12:27:42Z</time>
      </trkpt>
      <trkpt lat="43.40962" lon="6.65104">
        <ele>343.7</ele>
        <time>2025-01-19T12:27:43Z</time>
      </trkpt>
      <trkpt lat="43.40962" lon="6.65104">
        <ele>343.7</ele>
        <time>2025-01-19T12:27:44Z</time>
      </trkpt>
      <trkpt lat="43.40962" lon="6.65104">
        <ele>343.7</ele>
        <time>2025-01-19T12:27:45Z</time>
      </trkpt>
      <trkpt lat="43.40962" lon="6.65104">
        <ele>343.7</ele>
        <time>2025-01-19T12:27:46Z</time>
      </trkpt>
      <trkpt lat="43.40962" lon="6.65104">
        <ele>343.8</ele>
        <time>2025-01-19T12:27:47Z</time>
      </trkpt>
      <trkpt lat="43.40962" lon="6.65104">
        <ele>343.9</ele>
        <time>2025-01-19T12:27:48Z</time>
      </trkpt>
      <trkpt lat="43.40962" lon="6.65103">
        <ele>343.9</ele>
        <time>2025-01-19T12:27:49Z</time>
      </trkpt>
      <trkpt lat="43.40962" lon="6.65103">
        <ele>343.9</ele>
        <time>2025-01-19T12:27:50Z</time>
      </trkpt>
      <trkpt lat="43.40962" lon="6.65103">
        <ele>344</ele>
        <time>2025-01-19T12:27:51Z</time>
      </trkpt>
      <trkpt lat="43.40962" lon="6.65103">
        <ele>344</ele>
        <time>2025-01-19T12:27:52Z</time>
      </trkpt>
      <trkpt lat="43.40962" lon="6.65103">
        <ele>344</ele>
        <time>2025-01-19T12:27:53Z</time>
      </trkpt>
      <trkpt lat="43.40961" lon="6.65103">
        <ele>344</ele>
        <time>2025-01-19T12:27:54Z</time>
      </trkpt>
      <trkpt lat="43.40961" lon="6.65103">
        <ele>344</ele>
        <time>2025-01-19T12:27:55Z</time>
      </trkpt>
      <trkpt lat="43.40961" lon="6.65103">
        <ele>344</ele>
        <time>2025-01-19T12:27:56Z</time>
      </trkpt>
      <trkpt lat="43.40961" lon="6.65103">
        <ele>344</ele>
        <time>2025-01-19T12:27:57Z</time>
      </trkpt>
      <trkpt lat="43.40961" lon="6.65104">
        <ele>344</ele>
        <time>2025-01-19T12:27:58Z</time>
      </trkpt>
      <trkpt lat="43.40961" lon="6.65103">
        <ele>344.1</ele>
        <time>2025-01-19T12:27:59Z</time>
      </trkpt>
      <trkpt lat="43.40961" lon="6.65103">
        <ele>344.1</ele>
        <time>2025-01-19T12:28:00Z</time>
      </trkpt>
      <trkpt lat="43.40962" lon="6.65103">
        <ele>344</ele>
        <time>2025-01-19T12:28:01Z</time>
      </trkpt>
      <trkpt lat="43.40962" lon="6.65103">
        <ele>344</ele>
        <time>2025-01-19T12:28:02Z</time>
      </trkpt>
      <trkpt lat="43.40962" lon="6.65104">
        <ele>343.9</ele>
        <time>2025-01-19T12:28:03Z</time>
      </trkpt>
      <trkpt lat="43.40962" lon="6.65104">
        <ele>343.9</ele>
        <time>2025-01-19T12:28:04Z</time>
      </trkpt>
      <trkpt lat="43.40961" lon="6.65104">
        <ele>343.9</ele>
        <time>2025-01-19T12:28:05Z</time>
      </trkpt>
      <trkpt lat="43.40961" lon="6.65104">
        <ele>344</ele>
        <time>2025-01-19T12:28:06Z</time>
      </trkpt>
      <trkpt lat="43.40961" lon="6.65103">
        <ele>344.1</ele>
        <time>2025-01-19T12:28:07Z</time>
      </trkpt>
      <trkpt lat="43.40961" lon="6.65103">
        <ele>343.9</ele>
        <time>2025-01-19T12:28:08Z</time>
      </trkpt>
      <trkpt lat="43.40961" lon="6.65103">
        <ele>343.9</ele>
        <time>2025-01-19T12:28:09Z</time>
      </trkpt>
      <trkpt lat="43.40961" lon="6.65103">
        <ele>344</ele>
        <time>2025-01-19T12:28:10Z</time>
      </trkpt>
      <trkpt lat="43.40961" lon="6.65104">
        <ele>344</ele>
        <time>2025-01-19T12:28:11Z</time>
      </trkpt>
      <trkpt lat="43.40961" lon="6.65104">
        <ele>344.1</ele>
        <time>2025-01-19T12:28:12Z</time>
      </trkpt>
      <trkpt lat="43.40961" lon="6.65105">
        <ele>344.1</ele>
        <time>2025-01-19T12:28:13Z</time>
      </trkpt>
      <trkpt lat="43.40962" lon="6.65105">
        <ele>343.9</ele>
        <time>2025-01-19T12:28:14Z</time>
      </trkpt>
      <trkpt lat="43.40962" lon="6.65105">
        <ele>343.8</ele>
        <time>2025-01-19T12:28:15Z</time>
      </trkpt>
      <trkpt lat="43.40961" lon="6.65106">
        <ele>343.7</ele>
        <time>2025-01-19T12:28:16Z</time>
      </trkpt>
      <trkpt lat="43.40961" lon="6.65105">
        <ele>343.7</ele>
        <time>2025-01-19T12:28:17Z</time>
      </trkpt>
      <trkpt lat="43.40961" lon="6.65106">
        <ele>343.6</ele>
        <time>2025-01-19T12:28:18Z</time>
      </trkpt>
      <trkpt lat="43.40961" lon="6.65106">
        <ele>343.5</ele>
        <time>2025-01-19T12:28:19Z</time>
      </trkpt>
      <trkpt lat="43.40962" lon="6.65105">
        <ele>343.5</ele>
        <time>2025-01-19T12:28:20Z</time>
      </trkpt>
      <trkpt lat="43.40962" lon="6.65105">
        <ele>343.4</ele>
        <time>2025-01-19T12:28:21Z</time>
      </trkpt>
      <trkpt lat="43.40962" lon="6.65106">
        <ele>343.4</ele>
        <time>2025-01-19T12:28:22Z</time>
      </trkpt>
      <trkpt lat="43.40962" lon="6.65105">
        <ele>343.4</ele>
        <time>2025-01-19T12:28:23Z</time>
      </trkpt>
      <trkpt lat="43.40962" lon="6.65105">
        <ele>343.4</ele>
        <time>2025-01-19T12:28:24Z</time>
      </trkpt>
      <trkpt lat="43.40962" lon="6.65105">
        <ele>343.4</ele>
        <time>2025-01-19T12:28:25Z</time>
      </trkpt>
      <trkpt lat="43.40962" lon="6.65105">
        <ele>343.3</ele>
        <time>2025-01-19T12:28:26Z</time>
      </trkpt>
      <trkpt lat="43.40962" lon="6.65105">
        <ele>343.3</ele>
        <time>2025-01-19T12:28:27Z</time>
      </trkpt>
      <trkpt lat="43.40962" lon="6.65105">
        <ele>343.2</ele>
        <time>2025-01-19T12:28:28Z</time>
      </trkpt>
      <trkpt lat="43.40963" lon="6.65105">
        <ele>343.2</ele>
        <time>2025-01-19T12:28:29Z</time>
      </trkpt>
      <trkpt lat="43.40963" lon="6.65105">
        <ele>343.2</ele>
        <time>2025-01-19T12:28:30Z</time>
      </trkpt>
      <trkpt lat="43.40962" lon="6.65105">
        <ele>343.2</ele>
        <time>2025-01-19T12:28:31Z</time>
      </trkpt>
      <trkpt lat="43.40962" lon="6.65105">
        <ele>343.2</ele>
        <time>2025-01-19T12:28:32Z</time>
      </trkpt>
      <trkpt lat="43.40962" lon="6.65105">
        <ele>343.3</ele>
        <time>2025-01-19T12:28:33Z</time>
      </trkpt>
      <trkpt lat="43.40963" lon="6.65105">
        <ele>343.2</ele>
        <time>2025-01-19T12:28:34Z</time>
      </trkpt>
      <trkpt lat="43.40962" lon="6.65104">
        <ele>343.2</ele>
        <time>2025-01-19T12:28:35Z</time>
      </trkpt>
      <trkpt lat="43.40962" lon="6.65104">
        <ele>343.1</ele>
        <time>2025-01-19T12:28:36Z</time>
      </trkpt>
      <trkpt lat="43.40962" lon="6.65104">
        <ele>343.1</ele>
        <time>2025-01-19T12:28:37Z</time>
      </trkpt>
      <trkpt lat="43.40962" lon="6.65104">
        <ele>343</ele>
        <time>2025-01-19T12:28:38Z</time>
      </trkpt>
      <trkpt lat="43.40962" lon="6.65104">
        <ele>343</ele>
        <time>2025-01-19T12:28:39Z</time>
      </trkpt>
      <trkpt lat="43.40962" lon="6.65104">
        <ele>343</ele>
        <time>2025-01-19T12:28:40Z</time>
      </trkpt>
      <trkpt lat="43.40962" lon="6.65104">
        <ele>343</ele>
        <time>2025-01-19T12:28:41Z</time>
      </trkpt>
      <trkpt lat="43.40962" lon="6.65104">
        <ele>342.9</ele>
        <time>2025-01-19T12:28:42Z</time>
      </trkpt>
      <trkpt lat="43.40962" lon="6.65104">
        <ele>342.9</ele>
        <time>2025-01-19T12:28:43Z</time>
      </trkpt>
      <trkpt lat="43.40962" lon="6.65104">
        <ele>343</ele>
        <time>2025-01-19T12:28:44Z</time>
      </trkpt>
      <trkpt lat="43.40962" lon="6.65104">
        <ele>343</ele>
        <time>2025-01-19T12:28:45Z</time>
      </trkpt>
      <trkpt lat="43.40962" lon="6.65104">
        <ele>343</ele>
        <time>2025-01-19T12:28:46Z</time>
      </trkpt>
      <trkpt lat="43.40962" lon="6.65104">
        <ele>343</ele>
        <time>2025-01-19T12:28:47Z</time>
      </trkpt>
      <trkpt lat="43.40962" lon="6.65105">
        <ele>343</ele>
        <time>2025-01-19T12:28:48Z</time>
      </trkpt>
      <trkpt lat="43.40963" lon="6.65105">
        <ele>343</ele>
        <time>2025-01-19T12:28:49Z</time>
      </trkpt>
      <trkpt lat="43.40963" lon="6.65105">
        <ele>343</ele>
        <time>2025-01-19T12:28:50Z</time>
      </trkpt>
      <trkpt lat="43.40963" lon="6.65105">
        <ele>343</ele>
        <time>2025-01-19T12:28:51Z</time>
      </trkpt>
      <trkpt lat="43.40963" lon="6.65105">
        <ele>343</ele>
        <time>2025-01-19T12:28:52Z</time>
      </trkpt>
      <trkpt lat="43.40963" lon="6.65105">
        <ele>343.1</ele>
        <time>2025-01-19T12:28:53Z</time>
      </trkpt>
      <trkpt lat="43.40963" lon="6.65104">
        <ele>343.1</ele>
        <time>2025-01-19T12:28:54Z</time>
      </trkpt>
      <trkpt lat="43.40963" lon="6.65104">
        <ele>343</ele>
        <time>2025-01-19T12:28:55Z</time>
      </trkpt>
      <trkpt lat="43.40963" lon="6.65104">
        <ele>343</ele>
        <time>2025-01-19T12:28:56Z</time>
      </trkpt>
      <trkpt lat="43.40963" lon="6.65104">
        <ele>343</ele>
        <time>2025-01-19T12:28:57Z</time>
      </trkpt>
      <trkpt lat="43.40963" lon="6.65104">
        <ele>343</ele>
        <time>2025-01-19T12:28:58Z</time>
      </trkpt>
      <trkpt lat="43.40963" lon="6.65104">
        <ele>343</ele>
        <time>2025-01-19T12:28:59Z</time>
      </trkpt>
      <trkpt lat="43.40963" lon="6.65104">
        <ele>343</ele>
        <time>2025-01-19T12:29:00Z</time>
      </trkpt>
      <trkpt lat="43.40962" lon="6.65104">
        <ele>343</ele>
        <time>2025-01-19T12:29:01Z</time>
      </trkpt>
      <trkpt lat="43.40962" lon="6.65105">
        <ele>343</ele>
        <time>2025-01-19T12:29:02Z</time>
      </trkpt>
      <trkpt lat="43.40963" lon="6.65105">
        <ele>343</ele>
        <time>2025-01-19T12:29:03Z</time>
      </trkpt>
      <trkpt lat="43.40963" lon="6.65105">
        <ele>343</ele>
        <time>2025-01-19T12:29:04Z</time>
      </trkpt>
      <trkpt lat="43.40963" lon="6.65105">
        <ele>343</ele>
        <time>2025-01-19T12:29:05Z</time>
      </trkpt>
      <trkpt lat="43.40963" lon="6.65105">
        <ele>343</ele>
        <time>2025-01-19T12:29:06Z</time>
      </trkpt>
      <trkpt lat="43.40963" lon="6.65104">
        <ele>343.2</ele>
        <time>2025-01-19T12:29:07Z</time>
      </trkpt>
      <trkpt lat="43.40963" lon="6.65104">
        <ele>343.3</ele>
        <time>2025-01-19T12:29:08Z</time>
      </trkpt>
      <trkpt lat="43.40963" lon="6.65104">
        <ele>343.4</ele>
        <time>2025-01-19T12:29:09Z</time>
      </trkpt>
      <trkpt lat="43.40963" lon="6.65104">
        <ele>343.4</ele>
        <time>2025-01-19T12:29:10Z</time>
      </trkpt>
      <trkpt lat="43.40963" lon="6.65104">
        <ele>343.5</ele>
        <time>2025-01-19T12:29:11Z</time>
      </trkpt>
      <trkpt lat="43.40963" lon="6.65104">
        <ele>343.5</ele>
        <time>2025-01-19T12:29:12Z</time>
      </trkpt>
      <trkpt lat="43.40963" lon="6.65104">
        <ele>343.5</ele>
        <time>2025-01-19T12:29:13Z</time>
      </trkpt>
      <trkpt lat="43.40963" lon="6.65104">
        <ele>343.5</ele>
        <time>2025-01-19T12:29:14Z</time>
      </trkpt>
      <trkpt lat="43.40963" lon="6.65104">
        <ele>343.6</ele>
        <time>2025-01-19T12:29:15Z</time>
      </trkpt>
      <trkpt lat="43.40963" lon="6.65104">
        <ele>343.6</ele>
        <time>2025-01-19T12:29:16Z</time>
      </trkpt>
      <trkpt lat="43.40963" lon="6.65105">
        <ele>343</ele>
        <time>2025-01-19T12:29:17Z</time>
      </trkpt>
      <trkpt lat="43.40962" lon="6.65105">
        <ele>343</ele>
        <time>2025-01-19T12:29:18Z</time>
      </trkpt>
      <trkpt lat="43.40963" lon="6.65104">
        <ele>343.2</ele>
        <time>2025-01-19T12:29:19Z</time>
      </trkpt>
      <trkpt lat="43.40962" lon="6.65104">
        <ele>343.3</ele>
        <time>2025-01-19T12:29:20Z</time>
      </trkpt>
      <trkpt lat="43.40962" lon="6.65104">
        <ele>343.3</ele>
        <time>2025-01-19T12:29:21Z</time>
      </trkpt>
      <trkpt lat="43.40962" lon="6.65105">
        <ele>343.4</ele>
        <time>2025-01-19T12:29:22Z</time>
      </trkpt>
      <trkpt lat="43.40962" lon="6.65104">
        <ele>343.4</ele>
        <time>2025-01-19T12:29:23Z</time>
      </trkpt>
      <trkpt lat="43.40962" lon="6.65104">
        <ele>343.5</ele>
        <time>2025-01-19T12:29:24Z</time>
      </trkpt>
      <trkpt lat="43.40962" lon="6.65105">
        <ele>343.5</ele>
        <time>2025-01-19T12:29:25Z</time>
      </trkpt>
      <trkpt lat="43.40962" lon="6.65105">
        <ele>343.6</ele>
        <time>2025-01-19T12:29:26Z</time>
      </trkpt>
      <trkpt lat="43.40962" lon="6.65105">
        <ele>343.6</ele>
        <time>2025-01-19T12:29:27Z</time>
      </trkpt>
      <trkpt lat="43.40962" lon="6.65105">
        <ele>343.7</ele>
        <time>2025-01-19T12:29:28Z</time>
      </trkpt>
      <trkpt lat="43.40962" lon="6.65105">
        <ele>343.7</ele>
        <time>2025-01-19T12:29:29Z</time>
      </trkpt>
      <trkpt lat="43.40962" lon="6.65105">
        <ele>343.6</ele>
        <time>2025-01-19T12:29:30Z</time>
      </trkpt>
      <trkpt lat="43.40962" lon="6.65105">
        <ele>343.6</ele>
        <time>2025-01-19T12:29:31Z</time>
      </trkpt>
      <trkpt lat="43.40962" lon="6.65105">
        <ele>343.6</ele>
        <time>2025-01-19T12:29:32Z</time>
      </trkpt>
      <trkpt lat="43.40962" lon="6.65105">
        <ele>343.6</ele>
        <time>2025-01-19T12:29:33Z</time>
      </trkpt>
      <trkpt lat="43.40962" lon="6.65106">
        <ele>343.6</ele>
        <time>2025-01-19T12:29:34Z</time>
      </trkpt>
      <trkpt lat="43.40961" lon="6.65106">
        <ele>343.6</ele>
        <time>2025-01-19T12:29:35Z</time>
      </trkpt>
      <trkpt lat="43.40961" lon="6.65106">
        <ele>343.6</ele>
        <time>2025-01-19T12:29:36Z</time>
      </trkpt>
      <trkpt lat="43.40961" lon="6.65107">
        <ele>343.7</ele>
        <time>2025-01-19T12:29:37Z</time>
      </trkpt>
      <trkpt lat="43.40961" lon="6.65107">
        <ele>343.7</ele>
        <time>2025-01-19T12:29:38Z</time>
      </trkpt>
      <trkpt lat="43.40961" lon="6.65107">
        <ele>343.7</ele>
        <time>2025-01-19T12:29:39Z</time>
      </trkpt>
      <trkpt lat="43.40961" lon="6.65107">
        <ele>343.7</ele>
        <time>2025-01-19T12:29:40Z</time>
      </trkpt>
      <trkpt lat="43.40961" lon="6.65107">
        <ele>343.7</ele>
        <time>2025-01-19T12:29:41Z</time>
      </trkpt>
      <trkpt lat="43.4096" lon="6.65107">
        <ele>343.7</ele>
        <time>2025-01-19T12:29:42Z</time>
      </trkpt>
      <trkpt lat="43.4096" lon="6.65107">
        <ele>343.7</ele>
        <time>2025-01-19T12:29:43Z</time>
      </trkpt>
      <trkpt lat="43.40959" lon="6.65107">
        <ele>343.7</ele>
        <time>2025-01-19T12:29:44Z</time>
      </trkpt>
      <trkpt lat="43.40958" lon="6.65107">
        <ele>343.6</ele>
        <time>2025-01-19T12:29:45Z</time>
      </trkpt>
      <trkpt lat="43.40958" lon="6.65107">
        <ele>343.6</ele>
        <time>2025-01-19T12:29:46Z</time>
      </trkpt>
      <trkpt lat="43.40957" lon="6.65107">
        <ele>343.6</ele>
        <time>2025-01-19T12:29:47Z</time>
      </trkpt>
      <trkpt lat="43.40956" lon="6.65107">
        <ele>343.5</ele>
        <time>2025-01-19T12:29:48Z</time>
      </trkpt>
      <trkpt lat="43.40955" lon="6.65107">
        <ele>343.4</ele>
        <time>2025-01-19T12:29:49Z</time>
      </trkpt>
      <trkpt lat="43.40955" lon="6.65107">
        <ele>343.4</ele>
        <time>2025-01-19T12:29:50Z</time>
      </trkpt>
      <trkpt lat="43.40954" lon="6.65107">
        <ele>343.3</ele>
        <time>2025-01-19T12:29:51Z</time>
      </trkpt>
      <trkpt lat="43.40954" lon="6.65106">
        <ele>343.2</ele>
        <time>2025-01-19T12:29:52Z</time>
      </trkpt>
      <trkpt lat="43.40953" lon="6.65106">
        <ele>343</ele>
        <time>2025-01-19T12:29:53Z</time>
      </trkpt>
      <trkpt lat="43.40952" lon="6.65106">
        <ele>342.9</ele>
        <time>2025-01-19T12:29:54Z</time>
      </trkpt>
      <trkpt lat="43.40951" lon="6.65106">
        <ele>342.8</ele>
        <time>2025-01-19T12:29:55Z</time>
      </trkpt>
      <trkpt lat="43.40951" lon="6.65106">
        <ele>342.7</ele>
        <time>2025-01-19T12:29:56Z</time>
      </trkpt>
      <trkpt lat="43.4095" lon="6.65106">
        <ele>342.6</ele>
        <time>2025-01-19T12:29:57Z</time>
      </trkpt>
      <trkpt lat="43.4095" lon="6.65105">
        <ele>342.5</ele>
        <time>2025-01-19T12:29:58Z</time>
      </trkpt>
      <trkpt lat="43.40949" lon="6.65105">
        <ele>342.5</ele>
        <time>2025-01-19T12:29:59Z</time>
      </trkpt>
      <trkpt lat="43.40948" lon="6.65104">
        <ele>342.5</ele>
        <time>2025-01-19T12:30:00Z</time>
      </trkpt>
      <trkpt lat="43.40947" lon="6.65103">
        <ele>342.4</ele>
        <time>2025-01-19T12:30:01Z</time>
      </trkpt>
      <trkpt lat="43.40947" lon="6.65103">
        <ele>342.4</ele>
        <time>2025-01-19T12:30:02Z</time>
      </trkpt>
      <trkpt lat="43.40946" lon="6.65102">
        <ele>342.2</ele>
        <time>2025-01-19T12:30:03Z</time>
      </trkpt>
      <trkpt lat="43.40946" lon="6.65102">
        <ele>342.1</ele>
        <time>2025-01-19T12:30:04Z</time>
      </trkpt>
      <trkpt lat="43.40945" lon="6.65101">
        <ele>342</ele>
        <time>2025-01-19T12:30:05Z</time>
      </trkpt>
      <trkpt lat="43.40945" lon="6.651">
        <ele>342</ele>
        <time>2025-01-19T12:30:06Z</time>
      </trkpt>
      <trkpt lat="43.40945" lon="6.651">
        <ele>341.9</ele>
        <time>2025-01-19T12:30:07Z</time>
      </trkpt>
      <trkpt lat="43.40944" lon="6.651">
        <ele>341.9</ele>
        <time>2025-01-19T12:30:08Z</time>
      </trkpt>
      <trkpt lat="43.40944" lon="6.651">
        <ele>341.9</ele>
        <time>2025-01-19T12:30:09Z</time>
      </trkpt>
      <trkpt lat="43.40943" lon="6.65099">
        <ele>341.9</ele>
        <time>2025-01-19T12:30:10Z</time>
      </trkpt>
      <trkpt lat="43.40943" lon="6.65099">
        <ele>341.9</ele>
        <time>2025-01-19T12:30:11Z</time>
      </trkpt>
      <trkpt lat="43.40942" lon="6.65098">
        <ele>341.9</ele>
        <time>2025-01-19T12:30:12Z</time>
      </trkpt>
      <trkpt lat="43.40942" lon="6.65098">
        <ele>341.9</ele>
        <time>2025-01-19T12:30:13Z</time>
      </trkpt>
      <trkpt lat="43.40942" lon="6.65098">
        <ele>341.9</ele>
        <time>2025-01-19T12:30:14Z</time>
      </trkpt>
      <trkpt lat="43.40942" lon="6.65098">
        <ele>341.9</ele>
        <time>2025-01-19T12:30:15Z</time>
      </trkpt>
      <trkpt lat="43.40942" lon="6.65098">
        <ele>341.9</ele>
        <time>2025-01-19T12:30:16Z</time>
      </trkpt>
      <trkpt lat="43.40942" lon="6.65098">
        <ele>341.9</ele>
        <time>2025-01-19T12:30:17Z</time>
      </trkpt>
      <trkpt lat="43.40941" lon="6.65098">
        <ele>342</ele>
        <time>2025-01-19T12:30:18Z</time>
      </trkpt>
      <trkpt lat="43.40941" lon="6.65098">
        <ele>342</ele>
        <time>2025-01-19T12:30:19Z</time>
      </trkpt>
      <trkpt lat="43.40941" lon="6.65098">
        <ele>342</ele>
        <time>2025-01-19T12:30:20Z</time>
      </trkpt>
      <trkpt lat="43.40941" lon="6.65097">
        <ele>342.1</ele>
        <time>2025-01-19T12:30:21Z</time>
      </trkpt>
      <trkpt lat="43.40941" lon="6.65097">
        <ele>342.2</ele>
        <time>2025-01-19T12:30:22Z</time>
      </trkpt>
      <trkpt lat="43.4094" lon="6.65097">
        <ele>342.2</ele>
        <time>2025-01-19T12:30:23Z</time>
      </trkpt>
      <trkpt lat="43.4094" lon="6.65097">
        <ele>342.3</ele>
        <time>2025-01-19T12:30:24Z</time>
      </trkpt>
      <trkpt lat="43.4094" lon="6.65097">
        <ele>342.3</ele>
        <time>2025-01-19T12:30:25Z</time>
      </trkpt>
      <trkpt lat="43.40939" lon="6.65097">
        <ele>342.3</ele>
        <time>2025-01-19T12:30:26Z</time>
      </trkpt>
      <trkpt lat="43.40938" lon="6.65097">
        <ele>342.2</ele>
        <time>2025-01-19T12:30:27Z</time>
      </trkpt>
      <trkpt lat="43.40938" lon="6.65096">
        <ele>342.2</ele>
        <time>2025-01-19T12:30:28Z</time>
      </trkpt>
      <trkpt lat="43.40938" lon="6.65095">
        <ele>342.1</ele>
        <time>2025-01-19T12:30:29Z</time>
      </trkpt>
      <trkpt lat="43.40938" lon="6.65094">
        <ele>342.1</ele>
        <time>2025-01-19T12:30:30Z</time>
      </trkpt>
      <trkpt lat="43.40938" lon="6.65093">
        <ele>342</ele>
        <time>2025-01-19T12:30:31Z</time>
      </trkpt>
      <trkpt lat="43.40938" lon="6.65093">
        <ele>341.9</ele>
        <time>2025-01-19T12:30:32Z</time>
      </trkpt>
      <trkpt lat="43.40938" lon="6.65093">
        <ele>341.8</ele>
        <time>2025-01-19T12:30:33Z</time>
      </trkpt>
      <trkpt lat="43.40938" lon="6.65092">
        <ele>341.7</ele>
        <time>2025-01-19T12:30:34Z</time>
      </trkpt>
      <trkpt lat="43.40939" lon="6.65091">
        <ele>341.7</ele>
        <time>2025-01-19T12:30:35Z</time>
      </trkpt>
      <trkpt lat="43.40939" lon="6.6509">
        <ele>341.4</ele>
        <time>2025-01-19T12:30:36Z</time>
      </trkpt>
      <trkpt lat="43.40939" lon="6.65089">
        <ele>341.2</ele>
        <time>2025-01-19T12:30:37Z</time>
      </trkpt>
      <trkpt lat="43.40939" lon="6.65088">
        <ele>341.1</ele>
        <time>2025-01-19T12:30:38Z</time>
      </trkpt>
      <trkpt lat="43.40939" lon="6.65088">
        <ele>341</ele>
        <time>2025-01-19T12:30:39Z</time>
      </trkpt>
      <trkpt lat="43.40939" lon="6.65087">
        <ele>340.8</ele>
        <time>2025-01-19T12:30:40Z</time>
      </trkpt>
      <trkpt lat="43.40939" lon="6.65087">
        <ele>340.8</ele>
        <time>2025-01-19T12:30:41Z</time>
      </trkpt>
      <trkpt lat="43.40939" lon="6.65086">
        <ele>340.7</ele>
        <time>2025-01-19T12:30:42Z</time>
      </trkpt>
      <trkpt lat="43.40939" lon="6.65085">
        <ele>340.6</ele>
        <time>2025-01-19T12:30:43Z</time>
      </trkpt>
      <trkpt lat="43.40938" lon="6.65085">
        <ele>340.5</ele>
        <time>2025-01-19T12:30:44Z</time>
      </trkpt>
      <trkpt lat="43.40938" lon="6.65085">
        <ele>340.3</ele>
        <time>2025-01-19T12:30:45Z</time>
      </trkpt>
      <trkpt lat="43.40937" lon="6.65085">
        <ele>340.1</ele>
        <time>2025-01-19T12:30:46Z</time>
      </trkpt>
      <trkpt lat="43.40937" lon="6.65085">
        <ele>340</ele>
        <time>2025-01-19T12:30:47Z</time>
      </trkpt>
      <trkpt lat="43.40937" lon="6.65085">
        <ele>339.7</ele>
        <time>2025-01-19T12:30:48Z</time>
      </trkpt>
      <trkpt lat="43.40937" lon="6.65084">
        <ele>339.6</ele>
        <time>2025-01-19T12:30:49Z</time>
      </trkpt>
      <trkpt lat="43.40938" lon="6.65084">
        <ele>339.6</ele>
        <time>2025-01-19T12:30:50Z</time>
      </trkpt>
      <trkpt lat="43.40938" lon="6.65083">
        <ele>339.6</ele>
        <time>2025-01-19T12:30:51Z</time>
      </trkpt>
      <trkpt lat="43.40938" lon="6.65082">
        <ele>339.4</ele>
        <time>2025-01-19T12:30:52Z</time>
      </trkpt>
      <trkpt lat="43.40938" lon="6.65082">
        <ele>339.2</ele>
        <time>2025-01-19T12:30:53Z</time>
      </trkpt>
      <trkpt lat="43.40938" lon="6.65081">
        <ele>339</ele>
        <time>2025-01-19T12:30:54Z</time>
      </trkpt>
      <trkpt lat="43.40939" lon="6.65081">
        <ele>338.9</ele>
        <time>2025-01-19T12:30:55Z</time>
      </trkpt>
      <trkpt lat="43.4094" lon="6.6508">
        <ele>338.8</ele>
        <time>2025-01-19T12:30:56Z</time>
      </trkpt>
      <trkpt lat="43.4094" lon="6.65079">
        <ele>338.7</ele>
        <time>2025-01-19T12:30:57Z</time>
      </trkpt>
      <trkpt lat="43.4094" lon="6.65079">
        <ele>338.6</ele>
        <time>2025-01-19T12:30:58Z</time>
      </trkpt>
      <trkpt lat="43.4094" lon="6.65078">
        <ele>338.5</ele>
        <time>2025-01-19T12:30:59Z</time>
      </trkpt>
      <trkpt lat="43.4094" lon="6.65078">
        <ele>338.5</ele>
        <time>2025-01-19T12:31:00Z</time>
      </trkpt>
      <trkpt lat="43.4094" lon="6.65078">
        <ele>338.4</ele>
        <time>2025-01-19T12:31:01Z</time>
      </trkpt>
      <trkpt lat="43.4094" lon="6.65077">
        <ele>338.3</ele>
        <time>2025-01-19T12:31:02Z</time>
      </trkpt>
      <trkpt lat="43.4094" lon="6.65077">
        <ele>338.3</ele>
        <time>2025-01-19T12:31:03Z</time>
      </trkpt>
      <trkpt lat="43.4094" lon="6.65077">
        <ele>338.3</ele>
        <time>2025-01-19T12:31:04Z</time>
      </trkpt>
      <trkpt lat="43.4094" lon="6.65076">
        <ele>338.2</ele>
        <time>2025-01-19T12:31:05Z</time>
      </trkpt>
      <trkpt lat="43.4094" lon="6.65076">
        <ele>338.2</ele>
        <time>2025-01-19T12:31:06Z</time>
      </trkpt>
      <trkpt lat="43.4094" lon="6.65076">
        <ele>338.1</ele>
        <time>2025-01-19T12:31:07Z</time>
      </trkpt>
      <trkpt lat="43.4094" lon="6.65075">
        <ele>338.1</ele>
        <time>2025-01-19T12:31:08Z</time>
      </trkpt>
      <trkpt lat="43.4094" lon="6.65075">
        <ele>337.9</ele>
        <time>2025-01-19T12:31:09Z</time>
      </trkpt>
      <trkpt lat="43.4094" lon="6.65074">
        <ele>337.8</ele>
        <time>2025-01-19T12:31:10Z</time>
      </trkpt>
      <trkpt lat="43.4094" lon="6.65074">
        <ele>337.8</ele>
        <time>2025-01-19T12:31:11Z</time>
      </trkpt>
      <trkpt lat="43.4094" lon="6.65074">
        <ele>337.8</ele>
        <time>2025-01-19T12:31:12Z</time>
      </trkpt>
      <trkpt lat="43.40941" lon="6.65073">
        <ele>337.7</ele>
        <time>2025-01-19T12:31:13Z</time>
      </trkpt>
      <trkpt lat="43.40941" lon="6.65073">
        <ele>337.6</ele>
        <time>2025-01-19T12:31:14Z</time>
      </trkpt>
      <trkpt lat="43.40941" lon="6.65072">
        <ele>337.5</ele>
        <time>2025-01-19T12:31:15Z</time>
      </trkpt>
      <trkpt lat="43.40941" lon="6.65071">
        <ele>337.3</ele>
        <time>2025-01-19T12:31:16Z</time>
      </trkpt>
      <trkpt lat="43.40941" lon="6.6507">
        <ele>337.1</ele>
        <time>2025-01-19T12:31:17Z</time>
      </trkpt>
      <trkpt lat="43.40941" lon="6.65069">
        <ele>337</ele>
        <time>2025-01-19T12:31:18Z</time>
      </trkpt>
      <trkpt lat="43.40942" lon="6.65068">
        <ele>336.7</ele>
        <time>2025-01-19T12:31:19Z</time>
      </trkpt>
      <trkpt lat="43.40942" lon="6.65068">
        <ele>336.4</ele>
        <time>2025-01-19T12:31:20Z</time>
      </trkpt>
      <trkpt lat="43.40942" lon="6.65067">
        <ele>336.1</ele>
        <time>2025-01-19T12:31:21Z</time>
      </trkpt>
      <trkpt lat="43.40942" lon="6.65066">
        <ele>335.9</ele>
        <time>2025-01-19T12:31:22Z</time>
      </trkpt>
      <trkpt lat="43.40942" lon="6.65066">
        <ele>335.6</ele>
        <time>2025-01-19T12:31:23Z</time>
      </trkpt>
      <trkpt lat="43.40942" lon="6.65064">
        <ele>335.4</ele>
        <time>2025-01-19T12:31:24Z</time>
      </trkpt>
      <trkpt lat="43.40941" lon="6.65064">
        <ele>335.2</ele>
        <time>2025-01-19T12:31:25Z</time>
      </trkpt>
      <trkpt lat="43.40941" lon="6.65063">
        <ele>335</ele>
        <time>2025-01-19T12:31:26Z</time>
      </trkpt>
      <trkpt lat="43.4094" lon="6.65062">
        <ele>334.8</ele>
        <time>2025-01-19T12:31:27Z</time>
      </trkpt>
      <trkpt lat="43.40939" lon="6.65062">
        <ele>334.5</ele>
        <time>2025-01-19T12:31:28Z</time>
      </trkpt>
      <trkpt lat="43.40939" lon="6.65062">
        <ele>334.4</ele>
        <time>2025-01-19T12:31:29Z</time>
      </trkpt>
      <trkpt lat="43.40938" lon="6.65061">
        <ele>334.2</ele>
        <time>2025-01-19T12:31:30Z</time>
      </trkpt>
      <trkpt lat="43.40937" lon="6.65061">
        <ele>334.1</ele>
        <time>2025-01-19T12:31:31Z</time>
      </trkpt>
      <trkpt lat="43.40937" lon="6.6506">
        <ele>334</ele>
        <time>2025-01-19T12:31:32Z</time>
      </trkpt>
      <trkpt lat="43.40936" lon="6.6506">
        <ele>333.8</ele>
        <time>2025-01-19T12:31:33Z</time>
      </trkpt>
      <trkpt lat="43.40935" lon="6.65059">
        <ele>333.6</ele>
        <time>2025-01-19T12:31:34Z</time>
      </trkpt>
      <trkpt lat="43.40935" lon="6.65059">
        <ele>333.5</ele>
        <time>2025-01-19T12:31:35Z</time>
      </trkpt>
      <trkpt lat="43.40934" lon="6.65058">
        <ele>333.3</ele>
        <time>2025-01-19T12:31:36Z</time>
      </trkpt>
      <trkpt lat="43.40933" lon="6.65058">
        <ele>333.2</ele>
        <time>2025-01-19T12:31:37Z</time>
      </trkpt>
      <trkpt lat="43.40932" lon="6.65057">
        <ele>333</ele>
        <time>2025-01-19T12:31:38Z</time>
      </trkpt>
      <trkpt lat="43.40931" lon="6.65057">
        <ele>332.8</ele>
        <time>2025-01-19T12:31:39Z</time>
      </trkpt>
      <trkpt lat="43.4093" lon="6.65056">
        <ele>332.6</ele>
        <time>2025-01-19T12:31:40Z</time>
      </trkpt>
      <trkpt lat="43.4093" lon="6.65056">
        <ele>332.4</ele>
        <time>2025-01-19T12:31:41Z</time>
      </trkpt>
      <trkpt lat="43.40929" lon="6.65055">
        <ele>332.2</ele>
        <time>2025-01-19T12:31:42Z</time>
      </trkpt>
      <trkpt lat="43.40928" lon="6.65055">
        <ele>332.1</ele>
        <time>2025-01-19T12:31:43Z</time>
      </trkpt>
      <trkpt lat="43.40927" lon="6.65055">
        <ele>331.9</ele>
        <time>2025-01-19T12:31:44Z</time>
      </trkpt>
      <trkpt lat="43.40926" lon="6.65055">
        <ele>331.8</ele>
        <time>2025-01-19T12:31:45Z</time>
      </trkpt>
      <trkpt lat="43.40925" lon="6.65054">
        <ele>331.7</ele>
        <time>2025-01-19T12:31:46Z</time>
      </trkpt>
      <trkpt lat="43.40924" lon="6.65054">
        <ele>331.5</ele>
        <time>2025-01-19T12:31:47Z</time>
      </trkpt>
      <trkpt lat="43.40923" lon="6.65054">
        <ele>331.4</ele>
        <time>2025-01-19T12:31:48Z</time>
      </trkpt>
      <trkpt lat="43.40922" lon="6.65054">
        <ele>331.3</ele>
        <time>2025-01-19T12:31:49Z</time>
      </trkpt>
      <trkpt lat="43.40922" lon="6.65054">
        <ele>331.2</ele>
        <time>2025-01-19T12:31:50Z</time>
      </trkpt>
      <trkpt lat="43.40921" lon="6.65054">
        <ele>331.2</ele>
        <time>2025-01-19T12:31:51Z</time>
      </trkpt>
      <trkpt lat="43.4092" lon="6.65054">
        <ele>331.1</ele>
        <time>2025-01-19T12:31:52Z</time>
      </trkpt>
      <trkpt lat="43.40918" lon="6.65054">
        <ele>331</ele>
        <time>2025-01-19T12:31:53Z</time>
      </trkpt>
      <trkpt lat="43.40917" lon="6.65054">
        <ele>330.9</ele>
        <time>2025-01-19T12:31:54Z</time>
      </trkpt>
      <trkpt lat="43.40916" lon="6.65053">
        <ele>330.9</ele>
        <time>2025-01-19T12:31:55Z</time>
      </trkpt>
      <trkpt lat="43.40915" lon="6.65053">
        <ele>330.8</ele>
        <time>2025-01-19T12:31:56Z</time>
      </trkpt>
      <trkpt lat="43.40914" lon="6.65053">
        <ele>330.7</ele>
        <time>2025-01-19T12:31:57Z</time>
      </trkpt>
      <trkpt lat="43.40913" lon="6.65053">
        <ele>330.6</ele>
        <time>2025-01-19T12:31:58Z</time>
      </trkpt>
      <trkpt lat="43.40912" lon="6.65053">
        <ele>330.5</ele>
        <time>2025-01-19T12:31:59Z</time>
      </trkpt>
      <trkpt lat="43.40911" lon="6.65052">
        <ele>330.5</ele>
        <time>2025-01-19T12:32:00Z</time>
      </trkpt>
      <trkpt lat="43.40909" lon="6.65052">
        <ele>330.5</ele>
        <time>2025-01-19T12:32:01Z</time>
      </trkpt>
      <trkpt lat="43.40908" lon="6.65051">
        <ele>330.5</ele>
        <time>2025-01-19T12:32:02Z</time>
      </trkpt>
      <trkpt lat="43.40908" lon="6.65051">
        <ele>330.6</ele>
        <time>2025-01-19T12:32:03Z</time>
      </trkpt>
      <trkpt lat="43.40907" lon="6.65052">
        <ele>330.8</ele>
        <time>2025-01-19T12:32:04Z</time>
      </trkpt>
      <trkpt lat="43.40906" lon="6.65052">
        <ele>330.9</ele>
        <time>2025-01-19T12:32:05Z</time>
      </trkpt>
      <trkpt lat="43.40905" lon="6.65052">
        <ele>331</ele>
        <time>2025-01-19T12:32:06Z</time>
      </trkpt>
      <trkpt lat="43.40904" lon="6.65052">
        <ele>331.1</ele>
        <time>2025-01-19T12:32:07Z</time>
      </trkpt>
      <trkpt lat="43.40903" lon="6.65052">
        <ele>331.1</ele>
        <time>2025-01-19T12:32:08Z</time>
      </trkpt>
      <trkpt lat="43.40902" lon="6.65052">
        <ele>331</ele>
        <time>2025-01-19T12:32:09Z</time>
      </trkpt>
      <trkpt lat="43.40901" lon="6.65052">
        <ele>331.1</ele>
        <time>2025-01-19T12:32:10Z</time>
      </trkpt>
      <trkpt lat="43.409" lon="6.65052">
        <ele>331.2</ele>
        <time>2025-01-19T12:32:11Z</time>
      </trkpt>
      <trkpt lat="43.40899" lon="6.65052">
        <ele>331.3</ele>
        <time>2025-01-19T12:32:12Z</time>
      </trkpt>
      <trkpt lat="43.40898" lon="6.65051">
        <ele>331.3</ele>
        <time>2025-01-19T12:32:13Z</time>
      </trkpt>
      <trkpt lat="43.40897" lon="6.65051">
        <ele>331.3</ele>
        <time>2025-01-19T12:32:14Z</time>
      </trkpt>
      <trkpt lat="43.40896" lon="6.65051">
        <ele>331.4</ele>
        <time>2025-01-19T12:32:15Z</time>
      </trkpt>
      <trkpt lat="43.40896" lon="6.65051">
        <ele>331.5</ele>
        <time>2025-01-19T12:32:16Z</time>
      </trkpt>
      <trkpt lat="43.40895" lon="6.65052">
        <ele>331.5</ele>
        <time>2025-01-19T12:32:17Z</time>
      </trkpt>
      <trkpt lat="43.40894" lon="6.65053">
        <ele>331.4</ele>
        <time>2025-01-19T12:32:18Z</time>
      </trkpt>
      <trkpt lat="43.40893" lon="6.65053">
        <ele>331.3</ele>
        <time>2025-01-19T12:32:19Z</time>
      </trkpt>
      <trkpt lat="43.40892" lon="6.65054">
        <ele>331.2</ele>
        <time>2025-01-19T12:32:20Z</time>
      </trkpt>
      <trkpt lat="43.40892" lon="6.65053">
        <ele>331.1</ele>
        <time>2025-01-19T12:32:21Z</time>
      </trkpt>
      <trkpt lat="43.40891" lon="6.65053">
        <ele>331</ele>
        <time>2025-01-19T12:32:22Z</time>
      </trkpt>
      <trkpt lat="43.4089" lon="6.65053">
        <ele>330.9</ele>
        <time>2025-01-19T12:32:23Z</time>
      </trkpt>
      <trkpt lat="43.40889" lon="6.65053">
        <ele>330.7</ele>
        <time>2025-01-19T12:32:24Z</time>
      </trkpt>
      <trkpt lat="43.40888" lon="6.65053">
        <ele>330.6</ele>
        <time>2025-01-19T12:32:25Z</time>
      </trkpt>
      <trkpt lat="43.40887" lon="6.65053">
        <ele>330.5</ele>
        <time>2025-01-19T12:32:26Z</time>
      </trkpt>
      <trkpt lat="43.40886" lon="6.65053">
        <ele>330.4</ele>
        <time>2025-01-19T12:32:27Z</time>
      </trkpt>
      <trkpt lat="43.40885" lon="6.65053">
        <ele>330.3</ele>
        <time>2025-01-19T12:32:28Z</time>
      </trkpt>
      <trkpt lat="43.40884" lon="6.65053">
        <ele>330.2</ele>
        <time>2025-01-19T12:32:29Z</time>
      </trkpt>
      <trkpt lat="43.40883" lon="6.65053">
        <ele>330.1</ele>
        <time>2025-01-19T12:32:30Z</time>
      </trkpt>
      <trkpt lat="43.40882" lon="6.65053">
        <ele>330</ele>
        <time>2025-01-19T12:32:31Z</time>
      </trkpt>
      <trkpt lat="43.40881" lon="6.65054">
        <ele>329.9</ele>
        <time>2025-01-19T12:32:32Z</time>
      </trkpt>
      <trkpt lat="43.4088" lon="6.65054">
        <ele>329.8</ele>
        <time>2025-01-19T12:32:33Z</time>
      </trkpt>
      <trkpt lat="43.40879" lon="6.65054">
        <ele>329.7</ele>
        <time>2025-01-19T12:32:34Z</time>
      </trkpt>
      <trkpt lat="43.40878" lon="6.65053">
        <ele>329.7</ele>
        <time>2025-01-19T12:32:35Z</time>
      </trkpt>
      <trkpt lat="43.40878" lon="6.65053">
        <ele>329.8</ele>
        <time>2025-01-19T12:32:36Z</time>
      </trkpt>
      <trkpt lat="43.40877" lon="6.65054">
        <ele>329.8</ele>
        <time>2025-01-19T12:32:37Z</time>
      </trkpt>
      <trkpt lat="43.40876" lon="6.65054">
        <ele>329.8</ele>
        <time>2025-01-19T12:32:38Z</time>
      </trkpt>
      <trkpt lat="43.40875" lon="6.65053">
        <ele>329.8</ele>
        <time>2025-01-19T12:32:39Z</time>
      </trkpt>
      <trkpt lat="43.40874" lon="6.65053">
        <ele>329.8</ele>
        <time>2025-01-19T12:32:40Z</time>
      </trkpt>
      <trkpt lat="43.40873" lon="6.65053">
        <ele>329.8</ele>
        <time>2025-01-19T12:32:41Z</time>
      </trkpt>
      <trkpt lat="43.40873" lon="6.65054">
        <ele>329.8</ele>
        <time>2025-01-19T12:32:42Z</time>
      </trkpt>
      <trkpt lat="43.40872" lon="6.65054">
        <ele>329.8</ele>
        <time>2025-01-19T12:32:43Z</time>
      </trkpt>
      <trkpt lat="43.40871" lon="6.65054">
        <ele>329.7</ele>
        <time>2025-01-19T12:32:44Z</time>
      </trkpt>
      <trkpt lat="43.4087" lon="6.65054">
        <ele>329.5</ele>
        <time>2025-01-19T12:32:45Z</time>
      </trkpt>
      <trkpt lat="43.40869" lon="6.65054">
        <ele>329.4</ele>
        <time>2025-01-19T12:32:46Z</time>
      </trkpt>
      <trkpt lat="43.40868" lon="6.65055">
        <ele>329.4</ele>
        <time>2025-01-19T12:32:47Z</time>
      </trkpt>
      <trkpt lat="43.40868" lon="6.65055">
        <ele>329.2</ele>
        <time>2025-01-19T12:32:48Z</time>
      </trkpt>
      <trkpt lat="43.40867" lon="6.65055">
        <ele>329.1</ele>
        <time>2025-01-19T12:32:49Z</time>
      </trkpt>
      <trkpt lat="43.40866" lon="6.65056">
        <ele>328.9</ele>
        <time>2025-01-19T12:32:50Z</time>
      </trkpt>
      <trkpt lat="43.40865" lon="6.65056">
        <ele>328.8</ele>
        <time>2025-01-19T12:32:51Z</time>
      </trkpt>
      <trkpt lat="43.40864" lon="6.65056">
        <ele>328.7</ele>
        <time>2025-01-19T12:32:52Z</time>
      </trkpt>
      <trkpt lat="43.40863" lon="6.65055">
        <ele>328.6</ele>
        <time>2025-01-19T12:32:53Z</time>
      </trkpt>
      <trkpt lat="43.40862" lon="6.65055">
        <ele>328.5</ele>
        <time>2025-01-19T12:32:54Z</time>
      </trkpt>
      <trkpt lat="43.40861" lon="6.65056">
        <ele>328.2</ele>
        <time>2025-01-19T12:32:55Z</time>
      </trkpt>
      <trkpt lat="43.4086" lon="6.65057">
        <ele>328.1</ele>
        <time>2025-01-19T12:32:56Z</time>
      </trkpt>
      <trkpt lat="43.40859" lon="6.65057">
        <ele>327.9</ele>
        <time>2025-01-19T12:32:57Z</time>
      </trkpt>
      <trkpt lat="43.40859" lon="6.65058">
        <ele>327.9</ele>
        <time>2025-01-19T12:32:58Z</time>
      </trkpt>
      <trkpt lat="43.40858" lon="6.65058">
        <ele>327.9</ele>
        <time>2025-01-19T12:32:59Z</time>
      </trkpt>
      <trkpt lat="43.40857" lon="6.65059">
        <ele>327.9</ele>
        <time>2025-01-19T12:33:00Z</time>
      </trkpt>
      <trkpt lat="43.40857" lon="6.6506">
        <ele>327.7</ele>
        <time>2025-01-19T12:33:01Z</time>
      </trkpt>
      <trkpt lat="43.40856" lon="6.65061">
        <ele>327.5</ele>
        <time>2025-01-19T12:33:02Z</time>
      </trkpt>
      <trkpt lat="43.40856" lon="6.65062">
        <ele>327.3</ele>
        <time>2025-01-19T12:33:03Z</time>
      </trkpt>
      <trkpt lat="43.40856" lon="6.65063">
        <ele>327.3</ele>
        <time>2025-01-19T12:33:04Z</time>
      </trkpt>
      <trkpt lat="43.40856" lon="6.65064">
        <ele>327.2</ele>
        <time>2025-01-19T12:33:05Z</time>
      </trkpt>
      <trkpt lat="43.40855" lon="6.65064">
        <ele>327.1</ele>
        <time>2025-01-19T12:33:06Z</time>
      </trkpt>
      <trkpt lat="43.40855" lon="6.65064">
        <ele>327</ele>
        <time>2025-01-19T12:33:07Z</time>
      </trkpt>
      <trkpt lat="43.40855" lon="6.65065">
        <ele>326.9</ele>
        <time>2025-01-19T12:33:08Z</time>
      </trkpt>
      <trkpt lat="43.40854" lon="6.65064">
        <ele>326.8</ele>
        <time>2025-01-19T12:33:09Z</time>
      </trkpt>
      <trkpt lat="43.40854" lon="6.65065">
        <ele>326.7</ele>
        <time>2025-01-19T12:33:10Z</time>
      </trkpt>
      <trkpt lat="43.40854" lon="6.65064">
        <ele>326.7</ele>
        <time>2025-01-19T12:33:11Z</time>
      </trkpt>
      <trkpt lat="43.40853" lon="6.65064">
        <ele>326.7</ele>
        <time>2025-01-19T12:33:12Z</time>
      </trkpt>
      <trkpt lat="43.40853" lon="6.65064">
        <ele>326.6</ele>
        <time>2025-01-19T12:33:13Z</time>
      </trkpt>
      <trkpt lat="43.40853" lon="6.65065">
        <ele>326.6</ele>
        <time>2025-01-19T12:33:14Z</time>
      </trkpt>
      <trkpt lat="43.40853" lon="6.65065">
        <ele>326.5</ele>
        <time>2025-01-19T12:33:15Z</time>
      </trkpt>
      <trkpt lat="43.40852" lon="6.65065">
        <ele>326.4</ele>
        <time>2025-01-19T12:33:16Z</time>
      </trkpt>
      <trkpt lat="43.40852" lon="6.65065">
        <ele>326.4</ele>
        <time>2025-01-19T12:33:17Z</time>
      </trkpt>
      <trkpt lat="43.40852" lon="6.65065">
        <ele>326.4</ele>
        <time>2025-01-19T12:33:18Z</time>
      </trkpt>
      <trkpt lat="43.40852" lon="6.65064">
        <ele>326.4</ele>
        <time>2025-01-19T12:33:19Z</time>
      </trkpt>
      <trkpt lat="43.40851" lon="6.65064">
        <ele>326.4</ele>
        <time>2025-01-19T12:33:20Z</time>
      </trkpt>
      <trkpt lat="43.40851" lon="6.65064">
        <ele>326.3</ele>
        <time>2025-01-19T12:33:21Z</time>
      </trkpt>
      <trkpt lat="43.40851" lon="6.65065">
        <ele>326.3</ele>
        <time>2025-01-19T12:33:22Z</time>
      </trkpt>
      <trkpt lat="43.4085" lon="6.65066">
        <ele>326.2</ele>
        <time>2025-01-19T12:33:23Z</time>
      </trkpt>
      <trkpt lat="43.4085" lon="6.65068">
        <ele>326.2</ele>
        <time>2025-01-19T12:33:24Z</time>
      </trkpt>
      <trkpt lat="43.40849" lon="6.65069">
        <ele>326.2</ele>
        <time>2025-01-19T12:33:25Z</time>
      </trkpt>
      <trkpt lat="43.40849" lon="6.6507">
        <ele>326.1</ele>
        <time>2025-01-19T12:33:26Z</time>
      </trkpt>
      <trkpt lat="43.40848" lon="6.65071">
        <ele>326</ele>
        <time>2025-01-19T12:33:27Z</time>
      </trkpt>
      <trkpt lat="43.40848" lon="6.65072">
        <ele>325.9</ele>
        <time>2025-01-19T12:33:28Z</time>
      </trkpt>
      <trkpt lat="43.40848" lon="6.65073">
        <ele>325.8</ele>
        <time>2025-01-19T12:33:29Z</time>
      </trkpt>
      <trkpt lat="43.40848" lon="6.65074">
        <ele>325.7</ele>
        <time>2025-01-19T12:33:30Z</time>
      </trkpt>
      <trkpt lat="43.40847" lon="6.65075">
        <ele>325.5</ele>
        <time>2025-01-19T12:33:31Z</time>
      </trkpt>
      <trkpt lat="43.40847" lon="6.65076">
        <ele>325.4</ele>
        <time>2025-01-19T12:33:32Z</time>
      </trkpt>
      <trkpt lat="43.40847" lon="6.65077">
        <ele>325.2</ele>
        <time>2025-01-19T12:33:33Z</time>
      </trkpt>
      <trkpt lat="43.40846" lon="6.65077">
        <ele>325</ele>
        <time>2025-01-19T12:33:34Z</time>
      </trkpt>
      <trkpt lat="43.40845" lon="6.65078">
        <ele>324.7</ele>
        <time>2025-01-19T12:33:35Z</time>
      </trkpt>
      <trkpt lat="43.40845" lon="6.65079">
        <ele>324.4</ele>
        <time>2025-01-19T12:33:36Z</time>
      </trkpt>
      <trkpt lat="43.40844" lon="6.6508">
        <ele>324.3</ele>
        <time>2025-01-19T12:33:37Z</time>
      </trkpt>
      <trkpt lat="43.40844" lon="6.65081">
        <ele>324.2</ele>
        <time>2025-01-19T12:33:38Z</time>
      </trkpt>
      <trkpt lat="43.40844" lon="6.65082">
        <ele>324.1</ele>
        <time>2025-01-19T12:33:39Z</time>
      </trkpt>
      <trkpt lat="43.40843" lon="6.65083">
        <ele>324</ele>
        <time>2025-01-19T12:33:40Z</time>
      </trkpt>
      <trkpt lat="43.40842" lon="6.65083">
        <ele>323.8</ele>
        <time>2025-01-19T12:33:41Z</time>
      </trkpt>
      <trkpt lat="43.40841" lon="6.65085">
        <ele>323.7</ele>
        <time>2025-01-19T12:33:42Z</time>
      </trkpt>
      <trkpt lat="43.40841" lon="6.65085">
        <ele>323.5</ele>
        <time>2025-01-19T12:33:43Z</time>
      </trkpt>
      <trkpt lat="43.4084" lon="6.65086">
        <ele>323.4</ele>
        <time>2025-01-19T12:33:44Z</time>
      </trkpt>
      <trkpt lat="43.4084" lon="6.65087">
        <ele>323.3</ele>
        <time>2025-01-19T12:33:45Z</time>
      </trkpt>
      <trkpt lat="43.40839" lon="6.65089">
        <ele>323.2</ele>
        <time>2025-01-19T12:33:46Z</time>
      </trkpt>
      <trkpt lat="43.40839" lon="6.6509">
        <ele>322.9</ele>
        <time>2025-01-19T12:33:47Z</time>
      </trkpt>
      <trkpt lat="43.40839" lon="6.65091">
        <ele>322.7</ele>
        <time>2025-01-19T12:33:48Z</time>
      </trkpt>
      <trkpt lat="43.40838" lon="6.65092">
        <ele>322.5</ele>
        <time>2025-01-19T12:33:49Z</time>
      </trkpt>
      <trkpt lat="43.40838" lon="6.65093">
        <ele>322.3</ele>
        <time>2025-01-19T12:33:50Z</time>
      </trkpt>
      <trkpt lat="43.40838" lon="6.65094">
        <ele>322.1</ele>
        <time>2025-01-19T12:33:51Z</time>
      </trkpt>
      <trkpt lat="43.40838" lon="6.65095">
        <ele>322</ele>
        <time>2025-01-19T12:33:52Z</time>
      </trkpt>
      <trkpt lat="43.40837" lon="6.65096">
        <ele>321.8</ele>
        <time>2025-01-19T12:33:53Z</time>
      </trkpt>
      <trkpt lat="43.40837" lon="6.65097">
        <ele>321.6</ele>
        <time>2025-01-19T12:33:54Z</time>
      </trkpt>
      <trkpt lat="43.40837" lon="6.65098">
        <ele>321.5</ele>
        <time>2025-01-19T12:33:55Z</time>
      </trkpt>
      <trkpt lat="43.40837" lon="6.65099">
        <ele>321.2</ele>
        <time>2025-01-19T12:33:56Z</time>
      </trkpt>
      <trkpt lat="43.40836" lon="6.651">
        <ele>321</ele>
        <time>2025-01-19T12:33:57Z</time>
      </trkpt>
      <trkpt lat="43.40836" lon="6.65101">
        <ele>320.8</ele>
        <time>2025-01-19T12:33:58Z</time>
      </trkpt>
      <trkpt lat="43.40836" lon="6.65101">
        <ele>320.7</ele>
        <time>2025-01-19T12:33:59Z</time>
      </trkpt>
      <trkpt lat="43.40836" lon="6.65102">
        <ele>320.5</ele>
        <time>2025-01-19T12:34:00Z</time>
      </trkpt>
      <trkpt lat="43.40835" lon="6.65103">
        <ele>320.4</ele>
        <time>2025-01-19T12:34:01Z</time>
      </trkpt>
      <trkpt lat="43.40835" lon="6.65105">
        <ele>320.3</ele>
        <time>2025-01-19T12:34:02Z</time>
      </trkpt>
      <trkpt lat="43.40834" lon="6.65105">
        <ele>320.1</ele>
        <time>2025-01-19T12:34:03Z</time>
      </trkpt>
      <trkpt lat="43.40834" lon="6.65106">
        <ele>320</ele>
        <time>2025-01-19T12:34:04Z</time>
      </trkpt>
      <trkpt lat="43.40834" lon="6.65108">
        <ele>319.8</ele>
        <time>2025-01-19T12:34:05Z</time>
      </trkpt>
      <trkpt lat="43.40833" lon="6.65109">
        <ele>319.6</ele>
        <time>2025-01-19T12:34:06Z</time>
      </trkpt>
      <trkpt lat="43.40833" lon="6.6511">
        <ele>319.5</ele>
        <time>2025-01-19T12:34:07Z</time>
      </trkpt>
      <trkpt lat="43.40833" lon="6.65112">
        <ele>319.4</ele>
        <time>2025-01-19T12:34:08Z</time>
      </trkpt>
      <trkpt lat="43.40832" lon="6.65113">
        <ele>319.3</ele>
        <time>2025-01-19T12:34:09Z</time>
      </trkpt>
      <trkpt lat="43.40832" lon="6.65114">
        <ele>319.2</ele>
        <time>2025-01-19T12:34:10Z</time>
      </trkpt>
      <trkpt lat="43.40832" lon="6.65115">
        <ele>319.1</ele>
        <time>2025-01-19T12:34:11Z</time>
      </trkpt>
      <trkpt lat="43.40831" lon="6.65116">
        <ele>318.9</ele>
        <time>2025-01-19T12:34:12Z</time>
      </trkpt>
      <trkpt lat="43.40831" lon="6.65117">
        <ele>318.8</ele>
        <time>2025-01-19T12:34:13Z</time>
      </trkpt>
      <trkpt lat="43.40831" lon="6.65117">
        <ele>318.7</ele>
        <time>2025-01-19T12:34:14Z</time>
      </trkpt>
      <trkpt lat="43.40831" lon="6.65118">
        <ele>318.6</ele>
        <time>2025-01-19T12:34:15Z</time>
      </trkpt>
      <trkpt lat="43.40831" lon="6.65119">
        <ele>318.5</ele>
        <time>2025-01-19T12:34:16Z</time>
      </trkpt>
      <trkpt lat="43.40831" lon="6.6512">
        <ele>318.4</ele>
        <time>2025-01-19T12:34:17Z</time>
      </trkpt>
      <trkpt lat="43.4083" lon="6.6512">
        <ele>318.3</ele>
        <time>2025-01-19T12:34:18Z</time>
      </trkpt>
      <trkpt lat="43.4083" lon="6.65121">
        <ele>318.2</ele>
        <time>2025-01-19T12:34:19Z</time>
      </trkpt>
      <trkpt lat="43.4083" lon="6.65122">
        <ele>318.1</ele>
        <time>2025-01-19T12:34:20Z</time>
      </trkpt>
      <trkpt lat="43.4083" lon="6.65122">
        <ele>318</ele>
        <time>2025-01-19T12:34:21Z</time>
      </trkpt>
      <trkpt lat="43.40829" lon="6.65123">
        <ele>317.8</ele>
        <time>2025-01-19T12:34:22Z</time>
      </trkpt>
      <trkpt lat="43.40829" lon="6.65123">
        <ele>317.6</ele>
        <time>2025-01-19T12:34:23Z</time>
      </trkpt>
      <trkpt lat="43.40828" lon="6.65124">
        <ele>317.5</ele>
        <time>2025-01-19T12:34:24Z</time>
      </trkpt>
      <trkpt lat="43.40828" lon="6.65125">
        <ele>317.4</ele>
        <time>2025-01-19T12:34:25Z</time>
      </trkpt>
      <trkpt lat="43.40827" lon="6.65126">
        <ele>317.3</ele>
        <time>2025-01-19T12:34:26Z</time>
      </trkpt>
      <trkpt lat="43.40827" lon="6.65127">
        <ele>317.1</ele>
        <time>2025-01-19T12:34:27Z</time>
      </trkpt>
      <trkpt lat="43.40827" lon="6.65128">
        <ele>316.8</ele>
        <time>2025-01-19T12:34:28Z</time>
      </trkpt>
      <trkpt lat="43.40826" lon="6.65129">
        <ele>316.6</ele>
        <time>2025-01-19T12:34:29Z</time>
      </trkpt>
      <trkpt lat="43.40826" lon="6.6513">
        <ele>316.4</ele>
        <time>2025-01-19T12:34:30Z</time>
      </trkpt>
      <trkpt lat="43.40826" lon="6.6513">
        <ele>316.1</ele>
        <time>2025-01-19T12:34:31Z</time>
      </trkpt>
      <trkpt lat="43.40826" lon="6.65131">
        <ele>316</ele>
        <time>2025-01-19T12:34:32Z</time>
      </trkpt>
      <trkpt lat="43.40825" lon="6.65131">
        <ele>315.8</ele>
        <time>2025-01-19T12:34:33Z</time>
      </trkpt>
      <trkpt lat="43.40825" lon="6.65132">
        <ele>315.6</ele>
        <time>2025-01-19T12:34:34Z</time>
      </trkpt>
      <trkpt lat="43.40825" lon="6.65133">
        <ele>315.4</ele>
        <time>2025-01-19T12:34:35Z</time>
      </trkpt>
      <trkpt lat="43.40824" lon="6.65134">
        <ele>315.2</ele>
        <time>2025-01-19T12:34:36Z</time>
      </trkpt>
      <trkpt lat="43.40824" lon="6.65135">
        <ele>315</ele>
        <time>2025-01-19T12:34:37Z</time>
      </trkpt>
      <trkpt lat="43.40824" lon="6.65136">
        <ele>314.8</ele>
        <time>2025-01-19T12:34:38Z</time>
      </trkpt>
      <trkpt lat="43.40823" lon="6.65137">
        <ele>314.6</ele>
        <time>2025-01-19T12:34:39Z</time>
      </trkpt>
      <trkpt lat="43.40823" lon="6.65138">
        <ele>314.4</ele>
        <time>2025-01-19T12:34:40Z</time>
      </trkpt>
      <trkpt lat="43.40823" lon="6.65139">
        <ele>314.3</ele>
        <time>2025-01-19T12:34:41Z</time>
      </trkpt>
      <trkpt lat="43.40823" lon="6.6514">
        <ele>314.2</ele>
        <time>2025-01-19T12:34:42Z</time>
      </trkpt>
      <trkpt lat="43.40822" lon="6.65142">
        <ele>314</ele>
        <time>2025-01-19T12:34:43Z</time>
      </trkpt>
      <trkpt lat="43.40822" lon="6.65143">
        <ele>313.8</ele>
        <time>2025-01-19T12:34:44Z</time>
      </trkpt>
      <trkpt lat="43.40821" lon="6.65144">
        <ele>313.6</ele>
        <time>2025-01-19T12:34:45Z</time>
      </trkpt>
      <trkpt lat="43.40821" lon="6.65145">
        <ele>313.5</ele>
        <time>2025-01-19T12:34:46Z</time>
      </trkpt>
      <trkpt lat="43.40822" lon="6.65146">
        <ele>313.3</ele>
        <time>2025-01-19T12:34:47Z</time>
      </trkpt>
      <trkpt lat="43.40821" lon="6.65147">
        <ele>313.1</ele>
        <time>2025-01-19T12:34:48Z</time>
      </trkpt>
      <trkpt lat="43.40821" lon="6.65148">
        <ele>312.9</ele>
        <time>2025-01-19T12:34:49Z</time>
      </trkpt>
      <trkpt lat="43.40821" lon="6.6515">
        <ele>312.7</ele>
        <time>2025-01-19T12:34:50Z</time>
      </trkpt>
      <trkpt lat="43.40821" lon="6.65151">
        <ele>312.5</ele>
        <time>2025-01-19T12:34:51Z</time>
      </trkpt>
      <trkpt lat="43.40822" lon="6.65152">
        <ele>312.3</ele>
        <time>2025-01-19T12:34:52Z</time>
      </trkpt>
      <trkpt lat="43.40822" lon="6.65153">
        <ele>312.1</ele>
        <time>2025-01-19T12:34:53Z</time>
      </trkpt>
      <trkpt lat="43.40822" lon="6.65154">
        <ele>311.9</ele>
        <time>2025-01-19T12:34:54Z</time>
      </trkpt>
      <trkpt lat="43.40822" lon="6.65155">
        <ele>311.7</ele>
        <time>2025-01-19T12:34:55Z</time>
      </trkpt>
      <trkpt lat="43.40822" lon="6.65156">
        <ele>311.5</ele>
        <time>2025-01-19T12:34:56Z</time>
      </trkpt>
      <trkpt lat="43.40822" lon="6.65157">
        <ele>311.4</ele>
        <time>2025-01-19T12:34:57Z</time>
      </trkpt>
      <trkpt lat="43.40823" lon="6.65158">
        <ele>311.2</ele>
        <time>2025-01-19T12:34:58Z</time>
      </trkpt>
      <trkpt lat="43.40823" lon="6.65159">
        <ele>311.1</ele>
        <time>2025-01-19T12:34:59Z</time>
      </trkpt>
      <trkpt lat="43.40823" lon="6.65161">
        <ele>310.9</ele>
        <time>2025-01-19T12:35:00Z</time>
      </trkpt>
      <trkpt lat="43.40823" lon="6.65162">
        <ele>310.8</ele>
        <time>2025-01-19T12:35:01Z</time>
      </trkpt>
      <trkpt lat="43.40823" lon="6.65163">
        <ele>310.7</ele>
        <time>2025-01-19T12:35:02Z</time>
      </trkpt>
      <trkpt lat="43.40823" lon="6.65164">
        <ele>310.6</ele>
        <time>2025-01-19T12:35:03Z</time>
      </trkpt>
      <trkpt lat="43.40823" lon="6.65165">
        <ele>310.5</ele>
        <time>2025-01-19T12:35:04Z</time>
      </trkpt>
      <trkpt lat="43.40824" lon="6.65166">
        <ele>310.4</ele>
        <time>2025-01-19T12:35:05Z</time>
      </trkpt>
      <trkpt lat="43.40824" lon="6.65167">
        <ele>310.1</ele>
        <time>2025-01-19T12:35:06Z</time>
      </trkpt>
      <trkpt lat="43.40824" lon="6.65168">
        <ele>310</ele>
        <time>2025-01-19T12:35:07Z</time>
      </trkpt>
      <trkpt lat="43.40824" lon="6.65169">
        <ele>309.8</ele>
        <time>2025-01-19T12:35:08Z</time>
      </trkpt>
      <trkpt lat="43.40825" lon="6.6517">
        <ele>309.7</ele>
        <time>2025-01-19T12:35:09Z</time>
      </trkpt>
      <trkpt lat="43.40825" lon="6.6517">
        <ele>309.6</ele>
        <time>2025-01-19T12:35:10Z</time>
      </trkpt>
      <trkpt lat="43.40825" lon="6.65171">
        <ele>309.5</ele>
        <time>2025-01-19T12:35:11Z</time>
      </trkpt>
      <trkpt lat="43.40826" lon="6.65172">
        <ele>309.2</ele>
        <time>2025-01-19T12:35:12Z</time>
      </trkpt>
      <trkpt lat="43.40826" lon="6.65173">
        <ele>308.9</ele>
        <time>2025-01-19T12:35:13Z</time>
      </trkpt>
      <trkpt lat="43.40826" lon="6.65174">
        <ele>308.7</ele>
        <time>2025-01-19T12:35:14Z</time>
      </trkpt>
      <trkpt lat="43.40826" lon="6.65175">
        <ele>308.6</ele>
        <time>2025-01-19T12:35:15Z</time>
      </trkpt>
      <trkpt lat="43.40826" lon="6.65176">
        <ele>308.4</ele>
        <time>2025-01-19T12:35:16Z</time>
      </trkpt>
      <trkpt lat="43.40827" lon="6.65177">
        <ele>308.2</ele>
        <time>2025-01-19T12:35:17Z</time>
      </trkpt>
      <trkpt lat="43.40827" lon="6.65178">
        <ele>308.1</ele>
        <time>2025-01-19T12:35:18Z</time>
      </trkpt>
      <trkpt lat="43.40827" lon="6.65179">
        <ele>307.9</ele>
        <time>2025-01-19T12:35:19Z</time>
      </trkpt>
      <trkpt lat="43.40827" lon="6.6518">
        <ele>307.8</ele>
        <time>2025-01-19T12:35:20Z</time>
      </trkpt>
      <trkpt lat="43.40827" lon="6.65181">
        <ele>307.6</ele>
        <time>2025-01-19T12:35:21Z</time>
      </trkpt>
      <trkpt lat="43.40827" lon="6.65182">
        <ele>307.4</ele>
        <time>2025-01-19T12:35:22Z</time>
      </trkpt>
      <trkpt lat="43.40827" lon="6.65183">
        <ele>307.2</ele>
        <time>2025-01-19T12:35:23Z</time>
      </trkpt>
      <trkpt lat="43.40826" lon="6.65183">
        <ele>307</ele>
        <time>2025-01-19T12:35:24Z</time>
      </trkpt>
      <trkpt lat="43.40826" lon="6.65184">
        <ele>306.8</ele>
        <time>2025-01-19T12:35:25Z</time>
      </trkpt>
      <trkpt lat="43.40826" lon="6.65184">
        <ele>306.7</ele>
        <time>2025-01-19T12:35:26Z</time>
      </trkpt>
      <trkpt lat="43.40826" lon="6.65185">
        <ele>306.6</ele>
        <time>2025-01-19T12:35:27Z</time>
      </trkpt>
      <trkpt lat="43.40826" lon="6.65185">
        <ele>306.5</ele>
        <time>2025-01-19T12:35:28Z</time>
      </trkpt>
      <trkpt lat="43.40826" lon="6.65186">
        <ele>306.4</ele>
        <time>2025-01-19T12:35:29Z</time>
      </trkpt>
      <trkpt lat="43.40826" lon="6.65186">
        <ele>306.3</ele>
        <time>2025-01-19T12:35:30Z</time>
      </trkpt>
      <trkpt lat="43.40825" lon="6.65186">
        <ele>306.2</ele>
        <time>2025-01-19T12:35:31Z</time>
      </trkpt>
      <trkpt lat="43.40825" lon="6.65186">
        <ele>306.1</ele>
        <time>2025-01-19T12:35:32Z</time>
      </trkpt>
      <trkpt lat="43.40825" lon="6.65186">
        <ele>306.1</ele>
        <time>2025-01-19T12:35:33Z</time>
      </trkpt>
      <trkpt lat="43.40825" lon="6.65186">
        <ele>306</ele>
        <time>2025-01-19T12:35:34Z</time>
      </trkpt>
      <trkpt lat="43.40825" lon="6.65186">
        <ele>306</ele>
        <time>2025-01-19T12:35:35Z</time>
      </trkpt>
      <trkpt lat="43.40825" lon="6.65186">
        <ele>305.9</ele>
        <time>2025-01-19T12:35:36Z</time>
      </trkpt>
      <trkpt lat="43.40825" lon="6.65186">
        <ele>305.9</ele>
        <time>2025-01-19T12:35:37Z</time>
      </trkpt>
      <trkpt lat="43.40825" lon="6.65186">
        <ele>306</ele>
        <time>2025-01-19T12:35:38Z</time>
      </trkpt>
      <trkpt lat="43.40825" lon="6.65186">
        <ele>306</ele>
        <time>2025-01-19T12:35:39Z</time>
      </trkpt>
      <trkpt lat="43.40825" lon="6.65186">
        <ele>306</ele>
        <time>2025-01-19T12:35:40Z</time>
      </trkpt>
      <trkpt lat="43.40825" lon="6.65186">
        <ele>306.1</ele>
        <time>2025-01-19T12:35:41Z</time>
      </trkpt>
      <trkpt lat="43.40825" lon="6.65186">
        <ele>306.1</ele>
        <time>2025-01-19T12:35:42Z</time>
      </trkpt>
      <trkpt lat="43.40824" lon="6.65186">
        <ele>306.1</ele>
        <time>2025-01-19T12:35:43Z</time>
      </trkpt>
      <trkpt lat="43.40824" lon="6.65186">
        <ele>306.2</ele>
        <time>2025-01-19T12:35:44Z</time>
      </trkpt>
      <trkpt lat="43.40824" lon="6.65186">
        <ele>306.2</ele>
        <time>2025-01-19T12:35:45Z</time>
      </trkpt>
      <trkpt lat="43.40824" lon="6.65186">
        <ele>306.2</ele>
        <time>2025-01-19T12:35:46Z</time>
      </trkpt>
      <trkpt lat="43.40824" lon="6.65186">
        <ele>306.2</ele>
        <time>2025-01-19T12:35:47Z</time>
      </trkpt>
      <trkpt lat="43.40824" lon="6.65186">
        <ele>306.2</ele>
        <time>2025-01-19T12:35:48Z</time>
      </trkpt>
      <trkpt lat="43.40824" lon="6.65186">
        <ele>306.2</ele>
        <time>2025-01-19T12:35:49Z</time>
      </trkpt>
      <trkpt lat="43.40824" lon="6.65185">
        <ele>306.3</ele>
        <time>2025-01-19T12:35:50Z</time>
      </trkpt>
      <trkpt lat="43.40825" lon="6.65184">
        <ele>306.1</ele>
        <time>2025-01-19T12:35:51Z</time>
      </trkpt>
      <trkpt lat="43.40825" lon="6.65183">
        <ele>306.1</ele>
        <time>2025-01-19T12:35:52Z</time>
      </trkpt>
      <trkpt lat="43.40825" lon="6.65182">
        <ele>306</ele>
        <time>2025-01-19T12:35:53Z</time>
      </trkpt>
      <trkpt lat="43.40825" lon="6.65182">
        <ele>306.1</ele>
        <time>2025-01-19T12:35:54Z</time>
      </trkpt>
      <trkpt lat="43.40825" lon="6.65182">
        <ele>306</ele>
        <time>2025-01-19T12:35:55Z</time>
      </trkpt>
      <trkpt lat="43.40825" lon="6.65182">
        <ele>306</ele>
        <time>2025-01-19T12:35:56Z</time>
      </trkpt>
      <trkpt lat="43.40825" lon="6.65182">
        <ele>306.1</ele>
        <time>2025-01-19T12:35:57Z</time>
      </trkpt>
      <trkpt lat="43.40824" lon="6.65182">
        <ele>306.1</ele>
        <time>2025-01-19T12:35:58Z</time>
      </trkpt>
      <trkpt lat="43.40824" lon="6.65182">
        <ele>306.1</ele>
        <time>2025-01-19T12:35:59Z</time>
      </trkpt>
      <trkpt lat="43.40823" lon="6.65183">
        <ele>306.1</ele>
        <time>2025-01-19T12:36:00Z</time>
      </trkpt>
      <trkpt lat="43.40823" lon="6.65184">
        <ele>306.1</ele>
        <time>2025-01-19T12:36:01Z</time>
      </trkpt>
      <trkpt lat="43.40822" lon="6.65185">
        <ele>306</ele>
        <time>2025-01-19T12:36:02Z</time>
      </trkpt>
      <trkpt lat="43.40821" lon="6.65185">
        <ele>305.9</ele>
        <time>2025-01-19T12:36:03Z</time>
      </trkpt>
      <trkpt lat="43.4082" lon="6.65186">
        <ele>305.8</ele>
        <time>2025-01-19T12:36:04Z</time>
      </trkpt>
      <trkpt lat="43.4082" lon="6.65186">
        <ele>305.8</ele>
        <time>2025-01-19T12:36:05Z</time>
      </trkpt>
      <trkpt lat="43.40819" lon="6.65186">
        <ele>305.7</ele>
        <time>2025-01-19T12:36:06Z</time>
      </trkpt>
      <trkpt lat="43.40818" lon="6.65186">
        <ele>305.6</ele>
        <time>2025-01-19T12:36:07Z</time>
      </trkpt>
      <trkpt lat="43.40817" lon="6.65185">
        <ele>305.5</ele>
        <time>2025-01-19T12:36:08Z</time>
      </trkpt>
      <trkpt lat="43.40817" lon="6.65185">
        <ele>305.5</ele>
        <time>2025-01-19T12:36:09Z</time>
      </trkpt>
      <trkpt lat="43.40816" lon="6.65184">
        <ele>305.4</ele>
        <time>2025-01-19T12:36:10Z</time>
      </trkpt>
      <trkpt lat="43.40815" lon="6.65183">
        <ele>305.4</ele>
        <time>2025-01-19T12:36:11Z</time>
      </trkpt>
      <trkpt lat="43.40815" lon="6.65182">
        <ele>305.3</ele>
        <time>2025-01-19T12:36:12Z</time>
      </trkpt>
      <trkpt lat="43.40814" lon="6.65181">
        <ele>305.3</ele>
        <time>2025-01-19T12:36:13Z</time>
      </trkpt>
      <trkpt lat="43.40813" lon="6.6518">
        <ele>305.2</ele>
        <time>2025-01-19T12:36:14Z</time>
      </trkpt>
      <trkpt lat="43.40812" lon="6.65179">
        <ele>305.2</ele>
        <time>2025-01-19T12:36:15Z</time>
      </trkpt>
      <trkpt lat="43.40811" lon="6.65179">
        <ele>305.2</ele>
        <time>2025-01-19T12:36:16Z</time>
      </trkpt>
      <trkpt lat="43.40811" lon="6.65178">
        <ele>305.2</ele>
        <time>2025-01-19T12:36:17Z</time>
      </trkpt>
      <trkpt lat="43.4081" lon="6.65178">
        <ele>305.2</ele>
        <time>2025-01-19T12:36:18Z</time>
      </trkpt>
      <trkpt lat="43.40809" lon="6.65177">
        <ele>305.1</ele>
        <time>2025-01-19T12:36:19Z</time>
      </trkpt>
      <trkpt lat="43.40809" lon="6.65177">
        <ele>305</ele>
        <time>2025-01-19T12:36:20Z</time>
      </trkpt>
      <trkpt lat="43.40808" lon="6.65176">
        <ele>304.9</ele>
        <time>2025-01-19T12:36:21Z</time>
      </trkpt>
      <trkpt lat="43.40807" lon="6.65176">
        <ele>304.8</ele>
        <time>2025-01-19T12:36:22Z</time>
      </trkpt>
      <trkpt lat="43.40806" lon="6.65175">
        <ele>304.7</ele>
        <time>2025-01-19T12:36:23Z</time>
      </trkpt>
      <trkpt lat="43.40805" lon="6.65174">
        <ele>304.6</ele>
        <time>2025-01-19T12:36:24Z</time>
      </trkpt>
      <trkpt lat="43.40805" lon="6.65173">
        <ele>304.4</ele>
        <time>2025-01-19T12:36:25Z</time>
      </trkpt>
      <trkpt lat="43.40804" lon="6.65172">
        <ele>304.2</ele>
        <time>2025-01-19T12:36:26Z</time>
      </trkpt>
      <trkpt lat="43.40803" lon="6.65171">
        <ele>304.2</ele>
        <time>2025-01-19T12:36:27Z</time>
      </trkpt>
      <trkpt lat="43.40803" lon="6.65171">
        <ele>304.1</ele>
        <time>2025-01-19T12:36:28Z</time>
      </trkpt>
      <trkpt lat="43.40802" lon="6.6517">
        <ele>304</ele>
        <time>2025-01-19T12:36:29Z</time>
      </trkpt>
      <trkpt lat="43.40801" lon="6.65171">
        <ele>304</ele>
        <time>2025-01-19T12:36:30Z</time>
      </trkpt>
      <trkpt lat="43.408" lon="6.65172">
        <ele>304</ele>
        <time>2025-01-19T12:36:31Z</time>
      </trkpt>
      <trkpt lat="43.408" lon="6.65172">
        <ele>303.9</ele>
        <time>2025-01-19T12:36:32Z</time>
      </trkpt>
      <trkpt lat="43.40799" lon="6.65172">
        <ele>303.9</ele>
        <time>2025-01-19T12:36:33Z</time>
      </trkpt>
      <trkpt lat="43.40799" lon="6.65173">
        <ele>303.7</ele>
        <time>2025-01-19T12:36:34Z</time>
      </trkpt>
      <trkpt lat="43.40798" lon="6.65173">
        <ele>303.6</ele>
        <time>2025-01-19T12:36:35Z</time>
      </trkpt>
      <trkpt lat="43.40798" lon="6.65173">
        <ele>303.5</ele>
        <time>2025-01-19T12:36:36Z</time>
      </trkpt>
      <trkpt lat="43.40797" lon="6.65173">
        <ele>303.5</ele>
        <time>2025-01-19T12:36:37Z</time>
      </trkpt>
      <trkpt lat="43.40797" lon="6.65174">
        <ele>303.3</ele>
        <time>2025-01-19T12:36:38Z</time>
      </trkpt>
      <trkpt lat="43.40797" lon="6.65174">
        <ele>303.2</ele>
        <time>2025-01-19T12:36:39Z</time>
      </trkpt>
      <trkpt lat="43.40797" lon="6.65174">
        <ele>303.1</ele>
        <time>2025-01-19T12:36:40Z</time>
      </trkpt>
      <trkpt lat="43.40797" lon="6.65174">
        <ele>303</ele>
        <time>2025-01-19T12:36:41Z</time>
      </trkpt>
      <trkpt lat="43.40796" lon="6.65174">
        <ele>302.9</ele>
        <time>2025-01-19T12:36:42Z</time>
      </trkpt>
      <trkpt lat="43.40796" lon="6.65174">
        <ele>302.9</ele>
        <time>2025-01-19T12:36:43Z</time>
      </trkpt>
      <trkpt lat="43.40796" lon="6.65174">
        <ele>302.9</ele>
        <time>2025-01-19T12:36:44Z</time>
      </trkpt>
      <trkpt lat="43.40796" lon="6.65174">
        <ele>302.8</ele>
        <time>2025-01-19T12:36:45Z</time>
      </trkpt>
      <trkpt lat="43.40796" lon="6.65174">
        <ele>302.8</ele>
        <time>2025-01-19T12:36:46Z</time>
      </trkpt>
      <trkpt lat="43.40796" lon="6.65174">
        <ele>302.8</ele>
        <time>2025-01-19T12:36:47Z</time>
      </trkpt>
      <trkpt lat="43.40796" lon="6.65174">
        <ele>302.8</ele>
        <time>2025-01-19T12:36:48Z</time>
      </trkpt>
      <trkpt lat="43.40796" lon="6.65174">
        <ele>302.8</ele>
        <time>2025-01-19T12:36:49Z</time>
      </trkpt>
      <trkpt lat="43.40796" lon="6.65174">
        <ele>302.8</ele>
        <time>2025-01-19T12:36:50Z</time>
      </trkpt>
      <trkpt lat="43.40796" lon="6.65174">
        <ele>302.7</ele>
        <time>2025-01-19T12:36:51Z</time>
      </trkpt>
      <trkpt lat="43.40796" lon="6.65174">
        <ele>302.7</ele>
        <time>2025-01-19T12:36:52Z</time>
      </trkpt>
      <trkpt lat="43.40796" lon="6.65174">
        <ele>302.8</ele>
        <time>2025-01-19T12:36:53Z</time>
      </trkpt>
      <trkpt lat="43.40796" lon="6.65174">
        <ele>302.9</ele>
        <time>2025-01-19T12:36:54Z</time>
      </trkpt>
      <trkpt lat="43.40796" lon="6.65174">
        <ele>302.8</ele>
        <time>2025-01-19T12:36:55Z</time>
      </trkpt>
      <trkpt lat="43.40796" lon="6.65174">
        <ele>302.8</ele>
        <time>2025-01-19T12:36:56Z</time>
      </trkpt>
      <trkpt lat="43.40796" lon="6.65174">
        <ele>302.9</ele>
        <time>2025-01-19T12:36:57Z</time>
      </trkpt>
      <trkpt lat="43.40796" lon="6.65174">
        <ele>302.9</ele>
        <time>2025-01-19T12:36:58Z</time>
      </trkpt>
      <trkpt lat="43.40796" lon="6.65175">
        <ele>302.9</ele>
        <time>2025-01-19T12:36:59Z</time>
      </trkpt>
      <trkpt lat="43.40796" lon="6.65176">
        <ele>303</ele>
        <time>2025-01-19T12:37:00Z</time>
      </trkpt>
      <trkpt lat="43.40796" lon="6.65177">
        <ele>303</ele>
        <time>2025-01-19T12:37:01Z</time>
      </trkpt>
      <trkpt lat="43.40796" lon="6.65178">
        <ele>302.9</ele>
        <time>2025-01-19T12:37:02Z</time>
      </trkpt>
      <trkpt lat="43.40796" lon="6.65179">
        <ele>302.8</ele>
        <time>2025-01-19T12:37:03Z</time>
      </trkpt>
      <trkpt lat="43.40796" lon="6.6518">
        <ele>302.7</ele>
        <time>2025-01-19T12:37:04Z</time>
      </trkpt>
      <trkpt lat="43.40796" lon="6.65182">
        <ele>302.6</ele>
        <time>2025-01-19T12:37:05Z</time>
      </trkpt>
      <trkpt lat="43.40796" lon="6.65183">
        <ele>302.4</ele>
        <time>2025-01-19T12:37:06Z</time>
      </trkpt>
      <trkpt lat="43.40796" lon="6.65185">
        <ele>302.2</ele>
        <time>2025-01-19T12:37:07Z</time>
      </trkpt>
      <trkpt lat="43.40796" lon="6.65186">
        <ele>302.1</ele>
        <time>2025-01-19T12:37:08Z</time>
      </trkpt>
      <trkpt lat="43.40797" lon="6.65188">
        <ele>302</ele>
        <time>2025-01-19T12:37:09Z</time>
      </trkpt>
      <trkpt lat="43.40797" lon="6.65189">
        <ele>301.8</ele>
        <time>2025-01-19T12:37:10Z</time>
      </trkpt>
      <trkpt lat="43.40797" lon="6.65191">
        <ele>301.6</ele>
        <time>2025-01-19T12:37:11Z</time>
      </trkpt>
      <trkpt lat="43.40797" lon="6.65193">
        <ele>301.5</ele>
        <time>2025-01-19T12:37:12Z</time>
      </trkpt>
      <trkpt lat="43.40798" lon="6.65195">
        <ele>301.3</ele>
        <time>2025-01-19T12:37:13Z</time>
      </trkpt>
      <trkpt lat="43.40798" lon="6.65196">
        <ele>301.2</ele>
        <time>2025-01-19T12:37:14Z</time>
      </trkpt>
      <trkpt lat="43.40798" lon="6.65199">
        <ele>301</ele>
        <time>2025-01-19T12:37:15Z</time>
      </trkpt>
      <trkpt lat="43.40798" lon="6.652">
        <ele>300.9</ele>
        <time>2025-01-19T12:37:16Z</time>
      </trkpt>
      <trkpt lat="43.40799" lon="6.65202">
        <ele>300.8</ele>
        <time>2025-01-19T12:37:17Z</time>
      </trkpt>
      <trkpt lat="43.40799" lon="6.65203">
        <ele>300.7</ele>
        <time>2025-01-19T12:37:18Z</time>
      </trkpt>
      <trkpt lat="43.40799" lon="6.65205">
        <ele>300.5</ele>
        <time>2025-01-19T12:37:19Z</time>
      </trkpt>
      <trkpt lat="43.408" lon="6.65206">
        <ele>300.3</ele>
        <time>2025-01-19T12:37:20Z</time>
      </trkpt>
      <trkpt lat="43.408" lon="6.65207">
        <ele>300.2</ele>
        <time>2025-01-19T12:37:21Z</time>
      </trkpt>
      <trkpt lat="43.408" lon="6.65208">
        <ele>300.1</ele>
        <time>2025-01-19T12:37:22Z</time>
      </trkpt>
      <trkpt lat="43.408" lon="6.65209">
        <ele>300.1</ele>
        <time>2025-01-19T12:37:23Z</time>
      </trkpt>
      <trkpt lat="43.40801" lon="6.6521">
        <ele>299.9</ele>
        <time>2025-01-19T12:37:24Z</time>
      </trkpt>
      <trkpt lat="43.40801" lon="6.65211">
        <ele>299.7</ele>
        <time>2025-01-19T12:37:25Z</time>
      </trkpt>
      <trkpt lat="43.40801" lon="6.65212">
        <ele>299.5</ele>
        <time>2025-01-19T12:37:26Z</time>
      </trkpt>
      <trkpt lat="43.40801" lon="6.65213">
        <ele>299.4</ele>
        <time>2025-01-19T12:37:27Z</time>
      </trkpt>
      <trkpt lat="43.40802" lon="6.65214">
        <ele>299.3</ele>
        <time>2025-01-19T12:37:28Z</time>
      </trkpt>
      <trkpt lat="43.40802" lon="6.65215">
        <ele>299.2</ele>
        <time>2025-01-19T12:37:29Z</time>
      </trkpt>
      <trkpt lat="43.40802" lon="6.65216">
        <ele>299.2</ele>
        <time>2025-01-19T12:37:30Z</time>
      </trkpt>
      <trkpt lat="43.40802" lon="6.65217">
        <ele>299</ele>
        <time>2025-01-19T12:37:31Z</time>
      </trkpt>
      <trkpt lat="43.40802" lon="6.65218">
        <ele>298.9</ele>
        <time>2025-01-19T12:37:32Z</time>
      </trkpt>
      <trkpt lat="43.40802" lon="6.65219">
        <ele>298.8</ele>
        <time>2025-01-19T12:37:33Z</time>
      </trkpt>
      <trkpt lat="43.40803" lon="6.65221">
        <ele>298.6</ele>
        <time>2025-01-19T12:37:34Z</time>
      </trkpt>
      <trkpt lat="43.40803" lon="6.65222">
        <ele>298.5</ele>
        <time>2025-01-19T12:37:35Z</time>
      </trkpt>
      <trkpt lat="43.40803" lon="6.65223">
        <ele>298.3</ele>
        <time>2025-01-19T12:37:36Z</time>
      </trkpt>
      <trkpt lat="43.40803" lon="6.65225">
        <ele>298.1</ele>
        <time>2025-01-19T12:37:37Z</time>
      </trkpt>
      <trkpt lat="43.40803" lon="6.65225">
        <ele>297.8</ele>
        <time>2025-01-19T12:37:38Z</time>
      </trkpt>
      <trkpt lat="43.40803" lon="6.65226">
        <ele>297.6</ele>
        <time>2025-01-19T12:37:39Z</time>
      </trkpt>
      <trkpt lat="43.40803" lon="6.65228">
        <ele>297.4</ele>
        <time>2025-01-19T12:37:40Z</time>
      </trkpt>
      <trkpt lat="43.40803" lon="6.65229">
        <ele>297.2</ele>
        <time>2025-01-19T12:37:41Z</time>
      </trkpt>
      <trkpt lat="43.40803" lon="6.65231">
        <ele>297.1</ele>
        <time>2025-01-19T12:37:42Z</time>
      </trkpt>
      <trkpt lat="43.40803" lon="6.65232">
        <ele>297</ele>
        <time>2025-01-19T12:37:43Z</time>
      </trkpt>
      <trkpt lat="43.40803" lon="6.65233">
        <ele>296.9</ele>
        <time>2025-01-19T12:37:44Z</time>
      </trkpt>
      <trkpt lat="43.40803" lon="6.65235">
        <ele>296.8</ele>
        <time>2025-01-19T12:37:45Z</time>
      </trkpt>
      <trkpt lat="43.40803" lon="6.65236">
        <ele>296.6</ele>
        <time>2025-01-19T12:37:46Z</time>
      </trkpt>
      <trkpt lat="43.40802" lon="6.65237">
        <ele>296.4</ele>
        <time>2025-01-19T12:37:47Z</time>
      </trkpt>
      <trkpt lat="43.40802" lon="6.65238">
        <ele>296.3</ele>
        <time>2025-01-19T12:37:48Z</time>
      </trkpt>
      <trkpt lat="43.40802" lon="6.65239">
        <ele>296.2</ele>
        <time>2025-01-19T12:37:49Z</time>
      </trkpt>
      <trkpt lat="43.40802" lon="6.6524">
        <ele>296</ele>
        <time>2025-01-19T12:37:50Z</time>
      </trkpt>
      <trkpt lat="43.40802" lon="6.65241">
        <ele>295.9</ele>
        <time>2025-01-19T12:37:51Z</time>
      </trkpt>
      <trkpt lat="43.40802" lon="6.65242">
        <ele>295.6</ele>
        <time>2025-01-19T12:37:52Z</time>
      </trkpt>
      <trkpt lat="43.40801" lon="6.65242">
        <ele>295.4</ele>
        <time>2025-01-19T12:37:53Z</time>
      </trkpt>
      <trkpt lat="43.40801" lon="6.65243">
        <ele>295.3</ele>
        <time>2025-01-19T12:37:54Z</time>
      </trkpt>
      <trkpt lat="43.40801" lon="6.65244">
        <ele>295.1</ele>
        <time>2025-01-19T12:37:55Z</time>
      </trkpt>
      <trkpt lat="43.40801" lon="6.65245">
        <ele>294.8</ele>
        <time>2025-01-19T12:37:56Z</time>
      </trkpt>
      <trkpt lat="43.40801" lon="6.65245">
        <ele>294.6</ele>
        <time>2025-01-19T12:37:57Z</time>
      </trkpt>
      <trkpt lat="43.40801" lon="6.65246">
        <ele>294.5</ele>
        <time>2025-01-19T12:37:58Z</time>
      </trkpt>
      <trkpt lat="43.408" lon="6.65247">
        <ele>294.4</ele>
        <time>2025-01-19T12:37:59Z</time>
      </trkpt>
      <trkpt lat="43.408" lon="6.65247">
        <ele>294.4</ele>
        <time>2025-01-19T12:38:00Z</time>
      </trkpt>
      <trkpt lat="43.408" lon="6.65248">
        <ele>294.2</ele>
        <time>2025-01-19T12:38:01Z</time>
      </trkpt>
      <trkpt lat="43.40799" lon="6.65249">
        <ele>293.9</ele>
        <time>2025-01-19T12:38:02Z</time>
      </trkpt>
      <trkpt lat="43.40799" lon="6.6525">
        <ele>293.7</ele>
        <time>2025-01-19T12:38:03Z</time>
      </trkpt>
      <trkpt lat="43.40798" lon="6.6525">
        <ele>293.4</ele>
        <time>2025-01-19T12:38:04Z</time>
      </trkpt>
      <trkpt lat="43.40798" lon="6.65251">
        <ele>293.3</ele>
        <time>2025-01-19T12:38:05Z</time>
      </trkpt>
      <trkpt lat="43.40798" lon="6.65251">
        <ele>293.1</ele>
        <time>2025-01-19T12:38:06Z</time>
      </trkpt>
      <trkpt lat="43.40797" lon="6.65252">
        <ele>292.9</ele>
        <time>2025-01-19T12:38:07Z</time>
      </trkpt>
      <trkpt lat="43.40797" lon="6.65252">
        <ele>292.7</ele>
        <time>2025-01-19T12:38:08Z</time>
      </trkpt>
      <trkpt lat="43.40797" lon="6.65253">
        <ele>292.5</ele>
        <time>2025-01-19T12:38:09Z</time>
      </trkpt>
      <trkpt lat="43.40796" lon="6.65254">
        <ele>292.4</ele>
        <time>2025-01-19T12:38:10Z</time>
      </trkpt>
      <trkpt lat="43.40796" lon="6.65254">
        <ele>292.2</ele>
        <time>2025-01-19T12:38:11Z</time>
      </trkpt>
      <trkpt lat="43.40796" lon="6.65255">
        <ele>291.9</ele>
        <time>2025-01-19T12:38:12Z</time>
      </trkpt>
      <trkpt lat="43.40795" lon="6.65255">
        <ele>291.5</ele>
        <time>2025-01-19T12:38:13Z</time>
      </trkpt>
      <trkpt lat="43.40794" lon="6.65255">
        <ele>291.3</ele>
        <time>2025-01-19T12:38:14Z</time>
      </trkpt>
      <trkpt lat="43.40794" lon="6.65256">
        <ele>291.2</ele>
        <time>2025-01-19T12:38:15Z</time>
      </trkpt>
      <trkpt lat="43.40793" lon="6.65257">
        <ele>291.1</ele>
        <time>2025-01-19T12:38:16Z</time>
      </trkpt>
      <trkpt lat="43.40793" lon="6.65257">
        <ele>291</ele>
        <time>2025-01-19T12:38:17Z</time>
      </trkpt>
      <trkpt lat="43.40792" lon="6.65258">
        <ele>290.9</ele>
        <time>2025-01-19T12:38:18Z</time>
      </trkpt>
      <trkpt lat="43.40791" lon="6.65258">
        <ele>290.6</ele>
        <time>2025-01-19T12:38:19Z</time>
      </trkpt>
      <trkpt lat="43.4079" lon="6.65259">
        <ele>290.4</ele>
        <time>2025-01-19T12:38:20Z</time>
      </trkpt>
      <trkpt lat="43.40789" lon="6.65259">
        <ele>290.2</ele>
        <time>2025-01-19T12:38:21Z</time>
      </trkpt>
      <trkpt lat="43.40788" lon="6.6526">
        <ele>290</ele>
        <time>2025-01-19T12:38:22Z</time>
      </trkpt>
      <trkpt lat="43.40786" lon="6.6526">
        <ele>289.8</ele>
        <time>2025-01-19T12:38:23Z</time>
      </trkpt>
      <trkpt lat="43.40785" lon="6.6526">
        <ele>289.5</ele>
        <time>2025-01-19T12:38:24Z</time>
      </trkpt>
      <trkpt lat="43.40785" lon="6.65261">
        <ele>289.2</ele>
        <time>2025-01-19T12:38:25Z</time>
      </trkpt>
      <trkpt lat="43.40783" lon="6.65261">
        <ele>288.9</ele>
        <time>2025-01-19T12:38:26Z</time>
      </trkpt>
      <trkpt lat="43.40782" lon="6.65261">
        <ele>288.7</ele>
        <time>2025-01-19T12:38:27Z</time>
      </trkpt>
      <trkpt lat="43.40781" lon="6.65262">
        <ele>288.4</ele>
        <time>2025-01-19T12:38:28Z</time>
      </trkpt>
      <trkpt lat="43.4078" lon="6.65262">
        <ele>288.2</ele>
        <time>2025-01-19T12:38:29Z</time>
      </trkpt>
      <trkpt lat="43.40779" lon="6.65263">
        <ele>288.1</ele>
        <time>2025-01-19T12:38:30Z</time>
      </trkpt>
      <trkpt lat="43.40778" lon="6.65264">
        <ele>288</ele>
        <time>2025-01-19T12:38:31Z</time>
      </trkpt>
      <trkpt lat="43.40777" lon="6.65265">
        <ele>287.8</ele>
        <time>2025-01-19T12:38:32Z</time>
      </trkpt>
      <trkpt lat="43.40777" lon="6.65266">
        <ele>287.5</ele>
        <time>2025-01-19T12:38:33Z</time>
      </trkpt>
      <trkpt lat="43.40776" lon="6.65268">
        <ele>287.3</ele>
        <time>2025-01-19T12:38:34Z</time>
      </trkpt>
      <trkpt lat="43.40776" lon="6.65269">
        <ele>287.1</ele>
        <time>2025-01-19T12:38:35Z</time>
      </trkpt>
      <trkpt lat="43.40776" lon="6.65271">
        <ele>286.8</ele>
        <time>2025-01-19T12:38:36Z</time>
      </trkpt>
      <trkpt lat="43.40776" lon="6.65272">
        <ele>286.5</ele>
        <time>2025-01-19T12:38:37Z</time>
      </trkpt>
      <trkpt lat="43.40777" lon="6.65273">
        <ele>286.3</ele>
        <time>2025-01-19T12:38:38Z</time>
      </trkpt>
      <trkpt lat="43.40777" lon="6.65274">
        <ele>286.1</ele>
        <time>2025-01-19T12:38:39Z</time>
      </trkpt>
      <trkpt lat="43.40777" lon="6.65275">
        <ele>285.9</ele>
        <time>2025-01-19T12:38:40Z</time>
      </trkpt>
      <trkpt lat="43.40777" lon="6.65276">
        <ele>285.7</ele>
        <time>2025-01-19T12:38:41Z</time>
      </trkpt>
      <trkpt lat="43.40777" lon="6.65277">
        <ele>285.6</ele>
        <time>2025-01-19T12:38:42Z</time>
      </trkpt>
      <trkpt lat="43.40777" lon="6.65278">
        <ele>285.4</ele>
        <time>2025-01-19T12:38:43Z</time>
      </trkpt>
      <trkpt lat="43.40777" lon="6.65279">
        <ele>285.2</ele>
        <time>2025-01-19T12:38:44Z</time>
      </trkpt>
      <trkpt lat="43.40776" lon="6.6528">
        <ele>285</ele>
        <time>2025-01-19T12:38:45Z</time>
      </trkpt>
      <trkpt lat="43.40776" lon="6.65281">
        <ele>284.7</ele>
        <time>2025-01-19T12:38:46Z</time>
      </trkpt>
      <trkpt lat="43.40776" lon="6.65282">
        <ele>284.5</ele>
        <time>2025-01-19T12:38:47Z</time>
      </trkpt>
      <trkpt lat="43.40775" lon="6.65282">
        <ele>284.3</ele>
        <time>2025-01-19T12:38:48Z</time>
      </trkpt>
      <trkpt lat="43.40775" lon="6.65283">
        <ele>284.2</ele>
        <time>2025-01-19T12:38:49Z</time>
      </trkpt>
      <trkpt lat="43.40775" lon="6.65284">
        <ele>284</ele>
        <time>2025-01-19T12:38:50Z</time>
      </trkpt>
      <trkpt lat="43.40774" lon="6.65285">
        <ele>283.8</ele>
        <time>2025-01-19T12:38:51Z</time>
      </trkpt>
      <trkpt lat="43.40773" lon="6.65286">
        <ele>283.7</ele>
        <time>2025-01-19T12:38:52Z</time>
      </trkpt>
      <trkpt lat="43.40773" lon="6.65287">
        <ele>283.5</ele>
        <time>2025-01-19T12:38:53Z</time>
      </trkpt>
      <trkpt lat="43.40772" lon="6.65287">
        <ele>283.3</ele>
        <time>2025-01-19T12:38:54Z</time>
      </trkpt>
      <trkpt lat="43.40772" lon="6.65289">
        <ele>283</ele>
        <time>2025-01-19T12:38:55Z</time>
      </trkpt>
      <trkpt lat="43.40772" lon="6.6529">
        <ele>282.6</ele>
        <time>2025-01-19T12:38:56Z</time>
      </trkpt>
      <trkpt lat="43.40772" lon="6.65291">
        <ele>282.4</ele>
        <time>2025-01-19T12:38:57Z</time>
      </trkpt>
      <trkpt lat="43.40771" lon="6.65292">
        <ele>282.1</ele>
        <time>2025-01-19T12:38:58Z</time>
      </trkpt>
      <trkpt lat="43.40771" lon="6.65294">
        <ele>281.9</ele>
        <time>2025-01-19T12:38:59Z</time>
      </trkpt>
      <trkpt lat="43.4077" lon="6.65295">
        <ele>281.6</ele>
        <time>2025-01-19T12:39:00Z</time>
      </trkpt>
      <trkpt lat="43.40769" lon="6.65296">
        <ele>281.4</ele>
        <time>2025-01-19T12:39:01Z</time>
      </trkpt>
      <trkpt lat="43.40769" lon="6.65298">
        <ele>281.1</ele>
        <time>2025-01-19T12:39:02Z</time>
      </trkpt>
      <trkpt lat="43.40768" lon="6.65299">
        <ele>280.7</ele>
        <time>2025-01-19T12:39:03Z</time>
      </trkpt>
      <trkpt lat="43.40767" lon="6.65301">
        <ele>280.1</ele>
        <time>2025-01-19T12:39:04Z</time>
      </trkpt>
      <trkpt lat="43.40766" lon="6.65303">
        <ele>279.7</ele>
        <time>2025-01-19T12:39:05Z</time>
      </trkpt>
      <trkpt lat="43.40765" lon="6.65305">
        <ele>279.3</ele>
        <time>2025-01-19T12:39:06Z</time>
      </trkpt>
      <trkpt lat="43.40764" lon="6.65307">
        <ele>279</ele>
        <time>2025-01-19T12:39:07Z</time>
      </trkpt>
      <trkpt lat="43.40763" lon="6.65309">
        <ele>278.6</ele>
        <time>2025-01-19T12:39:08Z</time>
      </trkpt>
      <trkpt lat="43.40762" lon="6.6531">
        <ele>278.3</ele>
        <time>2025-01-19T12:39:09Z</time>
      </trkpt>
      <trkpt lat="43.40762" lon="6.65311">
        <ele>278</ele>
        <time>2025-01-19T12:39:10Z</time>
      </trkpt>
      <trkpt lat="43.4076" lon="6.65313">
        <ele>277.7</ele>
        <time>2025-01-19T12:39:11Z</time>
      </trkpt>
      <trkpt lat="43.40759" lon="6.65314">
        <ele>277.5</ele>
        <time>2025-01-19T12:39:12Z</time>
      </trkpt>
      <trkpt lat="43.40759" lon="6.65315">
        <ele>277.3</ele>
        <time>2025-01-19T12:39:13Z</time>
      </trkpt>
      <trkpt lat="43.40758" lon="6.65317">
        <ele>277</ele>
        <time>2025-01-19T12:39:14Z</time>
      </trkpt>
      <trkpt lat="43.40757" lon="6.65318">
        <ele>276.8</ele>
        <time>2025-01-19T12:39:15Z</time>
      </trkpt>
      <trkpt lat="43.40756" lon="6.65319">
        <ele>276.5</ele>
        <time>2025-01-19T12:39:16Z</time>
      </trkpt>
      <trkpt lat="43.40756" lon="6.6532">
        <ele>276.2</ele>
        <time>2025-01-19T12:39:17Z</time>
      </trkpt>
      <trkpt lat="43.40756" lon="6.65321">
        <ele>275.9</ele>
        <time>2025-01-19T12:39:18Z</time>
      </trkpt>
      <trkpt lat="43.40755" lon="6.65322">
        <ele>275.8</ele>
        <time>2025-01-19T12:39:19Z</time>
      </trkpt>
      <trkpt lat="43.40755" lon="6.65324">
        <ele>275.5</ele>
        <time>2025-01-19T12:39:20Z</time>
      </trkpt>
      <trkpt lat="43.40754" lon="6.65325">
        <ele>275.2</ele>
        <time>2025-01-19T12:39:21Z</time>
      </trkpt>
      <trkpt lat="43.40754" lon="6.65327">
        <ele>274.9</ele>
        <time>2025-01-19T12:39:22Z</time>
      </trkpt>
      <trkpt lat="43.40754" lon="6.65328">
        <ele>274.6</ele>
        <time>2025-01-19T12:39:23Z</time>
      </trkpt>
      <trkpt lat="43.40754" lon="6.6533">
        <ele>274.3</ele>
        <time>2025-01-19T12:39:24Z</time>
      </trkpt>
      <trkpt lat="43.40754" lon="6.65331">
        <ele>274</ele>
        <time>2025-01-19T12:39:25Z</time>
      </trkpt>
      <trkpt lat="43.40754" lon="6.65333">
        <ele>273.7</ele>
        <time>2025-01-19T12:39:26Z</time>
      </trkpt>
      <trkpt lat="43.40753" lon="6.65334">
        <ele>273.5</ele>
        <time>2025-01-19T12:39:27Z</time>
      </trkpt>
      <trkpt lat="43.40753" lon="6.65336">
        <ele>273.1</ele>
        <time>2025-01-19T12:39:28Z</time>
      </trkpt>
      <trkpt lat="43.40753" lon="6.65339">
        <ele>272.9</ele>
        <time>2025-01-19T12:39:29Z</time>
      </trkpt>
      <trkpt lat="43.40752" lon="6.65341">
        <ele>272.6</ele>
        <time>2025-01-19T12:39:30Z</time>
      </trkpt>
      <trkpt lat="43.40752" lon="6.65343">
        <ele>272.3</ele>
        <time>2025-01-19T12:39:31Z</time>
      </trkpt>
      <trkpt lat="43.40752" lon="6.65344">
        <ele>271.9</ele>
        <time>2025-01-19T12:39:32Z</time>
      </trkpt>
      <trkpt lat="43.40751" lon="6.65346">
        <ele>271.6</ele>
        <time>2025-01-19T12:39:33Z</time>
      </trkpt>
      <trkpt lat="43.40751" lon="6.65346">
        <ele>271.4</ele>
        <time>2025-01-19T12:39:34Z</time>
      </trkpt>
      <trkpt lat="43.4075" lon="6.65347">
        <ele>271.1</ele>
        <time>2025-01-19T12:39:35Z</time>
      </trkpt>
      <trkpt lat="43.4075" lon="6.65348">
        <ele>270.9</ele>
        <time>2025-01-19T12:39:36Z</time>
      </trkpt>
      <trkpt lat="43.4075" lon="6.65349">
        <ele>270.6</ele>
        <time>2025-01-19T12:39:37Z</time>
      </trkpt>
      <trkpt lat="43.40749" lon="6.65351">
        <ele>270.4</ele>
        <time>2025-01-19T12:39:38Z</time>
      </trkpt>
      <trkpt lat="43.40749" lon="6.65352">
        <ele>270.3</ele>
        <time>2025-01-19T12:39:39Z</time>
      </trkpt>
      <trkpt lat="43.40748" lon="6.65354">
        <ele>270.2</ele>
        <time>2025-01-19T12:39:40Z</time>
      </trkpt>
      <trkpt lat="43.40748" lon="6.65356">
        <ele>270.1</ele>
        <time>2025-01-19T12:39:41Z</time>
      </trkpt>
      <trkpt lat="43.40747" lon="6.65357">
        <ele>269.9</ele>
        <time>2025-01-19T12:39:42Z</time>
      </trkpt>
      <trkpt lat="43.40747" lon="6.65359">
        <ele>269.8</ele>
        <time>2025-01-19T12:39:43Z</time>
      </trkpt>
      <trkpt lat="43.40748" lon="6.6536">
        <ele>269.7</ele>
        <time>2025-01-19T12:39:44Z</time>
      </trkpt>
      <trkpt lat="43.40748" lon="6.6536">
        <ele>269.5</ele>
        <time>2025-01-19T12:39:45Z</time>
      </trkpt>
      <trkpt lat="43.40748" lon="6.6536">
        <ele>269.5</ele>
        <time>2025-01-19T12:39:46Z</time>
      </trkpt>
      <trkpt lat="43.40748" lon="6.6536">
        <ele>269.4</ele>
        <time>2025-01-19T12:39:47Z</time>
      </trkpt>
      <trkpt lat="43.40748" lon="6.6536">
        <ele>269.4</ele>
        <time>2025-01-19T12:39:48Z</time>
      </trkpt>
      <trkpt lat="43.40748" lon="6.6536">
        <ele>269.3</ele>
        <time>2025-01-19T12:39:49Z</time>
      </trkpt>
      <trkpt lat="43.40748" lon="6.65361">
        <ele>269.3</ele>
        <time>2025-01-19T12:39:50Z</time>
      </trkpt>
      <trkpt lat="43.40747" lon="6.65362">
        <ele>269.2</ele>
        <time>2025-01-19T12:39:51Z</time>
      </trkpt>
      <trkpt lat="43.40747" lon="6.65362">
        <ele>269.2</ele>
        <time>2025-01-19T12:39:52Z</time>
      </trkpt>
      <trkpt lat="43.40746" lon="6.65364">
        <ele>269.2</ele>
        <time>2025-01-19T12:39:53Z</time>
      </trkpt>
      <trkpt lat="43.40746" lon="6.65365">
        <ele>269.1</ele>
        <time>2025-01-19T12:39:54Z</time>
      </trkpt>
      <trkpt lat="43.40745" lon="6.65366">
        <ele>269</ele>
        <time>2025-01-19T12:39:55Z</time>
      </trkpt>
      <trkpt lat="43.40745" lon="6.65368">
        <ele>269</ele>
        <time>2025-01-19T12:39:56Z</time>
      </trkpt>
      <trkpt lat="43.40744" lon="6.65369">
        <ele>268.9</ele>
        <time>2025-01-19T12:39:57Z</time>
      </trkpt>
      <trkpt lat="43.40744" lon="6.6537">
        <ele>268.8</ele>
        <time>2025-01-19T12:39:58Z</time>
      </trkpt>
      <trkpt lat="43.40743" lon="6.65372">
        <ele>268.8</ele>
        <time>2025-01-19T12:39:59Z</time>
      </trkpt>
      <trkpt lat="43.40743" lon="6.65373">
        <ele>268.7</ele>
        <time>2025-01-19T12:40:00Z</time>
      </trkpt>
      <trkpt lat="43.40742" lon="6.65375">
        <ele>268.6</ele>
        <time>2025-01-19T12:40:01Z</time>
      </trkpt>
      <trkpt lat="43.40742" lon="6.65376">
        <ele>268.3</ele>
        <time>2025-01-19T12:40:02Z</time>
      </trkpt>
      <trkpt lat="43.40741" lon="6.65378">
        <ele>268.2</ele>
        <time>2025-01-19T12:40:03Z</time>
      </trkpt>
      <trkpt lat="43.40741" lon="6.65379">
        <ele>268.1</ele>
        <time>2025-01-19T12:40:04Z</time>
      </trkpt>
      <trkpt lat="43.4074" lon="6.6538">
        <ele>268</ele>
        <time>2025-01-19T12:40:05Z</time>
      </trkpt>
      <trkpt lat="43.4074" lon="6.65381">
        <ele>267.9</ele>
        <time>2025-01-19T12:40:06Z</time>
      </trkpt>
      <trkpt lat="43.40739" lon="6.65382">
        <ele>267.8</ele>
        <time>2025-01-19T12:40:07Z</time>
      </trkpt>
      <trkpt lat="43.40739" lon="6.65384">
        <ele>267.7</ele>
        <time>2025-01-19T12:40:08Z</time>
      </trkpt>
      <trkpt lat="43.40738" lon="6.65385">
        <ele>267.6</ele>
        <time>2025-01-19T12:40:09Z</time>
      </trkpt>
      <trkpt lat="43.40738" lon="6.65387">
        <ele>267.5</ele>
        <time>2025-01-19T12:40:10Z</time>
      </trkpt>
      <trkpt lat="43.40738" lon="6.65388">
        <ele>267.4</ele>
        <time>2025-01-19T12:40:11Z</time>
      </trkpt>
      <trkpt lat="43.40738" lon="6.6539">
        <ele>267.3</ele>
        <time>2025-01-19T12:40:12Z</time>
      </trkpt>
      <trkpt lat="43.40738" lon="6.65391">
        <ele>267</ele>
        <time>2025-01-19T12:40:13Z</time>
      </trkpt>
      <trkpt lat="43.40738" lon="6.65393">
        <ele>266.8</ele>
        <time>2025-01-19T12:40:14Z</time>
      </trkpt>
      <trkpt lat="43.40738" lon="6.65394">
        <ele>266.6</ele>
        <time>2025-01-19T12:40:15Z</time>
      </trkpt>
      <trkpt lat="43.40738" lon="6.65395">
        <ele>266.3</ele>
        <time>2025-01-19T12:40:16Z</time>
      </trkpt>
      <trkpt lat="43.40737" lon="6.65397">
        <ele>266.2</ele>
        <time>2025-01-19T12:40:17Z</time>
      </trkpt>
      <trkpt lat="43.40737" lon="6.65398">
        <ele>266.2</ele>
        <time>2025-01-19T12:40:18Z</time>
      </trkpt>
      <trkpt lat="43.40736" lon="6.654">
        <ele>266</ele>
        <time>2025-01-19T12:40:19Z</time>
      </trkpt>
      <trkpt lat="43.40736" lon="6.65401">
        <ele>265.8</ele>
        <time>2025-01-19T12:40:20Z</time>
      </trkpt>
      <trkpt lat="43.40735" lon="6.65403">
        <ele>265.7</ele>
        <time>2025-01-19T12:40:21Z</time>
      </trkpt>
      <trkpt lat="43.40735" lon="6.65404">
        <ele>265.6</ele>
        <time>2025-01-19T12:40:22Z</time>
      </trkpt>
      <trkpt lat="43.40735" lon="6.65406">
        <ele>265.4</ele>
        <time>2025-01-19T12:40:23Z</time>
      </trkpt>
      <trkpt lat="43.40735" lon="6.65407">
        <ele>265.4</ele>
        <time>2025-01-19T12:40:24Z</time>
      </trkpt>
      <trkpt lat="43.40734" lon="6.65409">
        <ele>265.3</ele>
        <time>2025-01-19T12:40:25Z</time>
      </trkpt>
      <trkpt lat="43.40734" lon="6.65411">
        <ele>265.3</ele>
        <time>2025-01-19T12:40:26Z</time>
      </trkpt>
      <trkpt lat="43.40733" lon="6.65413">
        <ele>265.2</ele>
        <time>2025-01-19T12:40:27Z</time>
      </trkpt>
      <trkpt lat="43.40733" lon="6.65414">
        <ele>265.1</ele>
        <time>2025-01-19T12:40:28Z</time>
      </trkpt>
      <trkpt lat="43.40732" lon="6.65416">
        <ele>264.9</ele>
        <time>2025-01-19T12:40:29Z</time>
      </trkpt>
      <trkpt lat="43.40732" lon="6.65418">
        <ele>264.8</ele>
        <time>2025-01-19T12:40:30Z</time>
      </trkpt>
      <trkpt lat="43.40732" lon="6.65419">
        <ele>264.7</ele>
        <time>2025-01-19T12:40:31Z</time>
      </trkpt>
      <trkpt lat="43.40732" lon="6.65421">
        <ele>264.5</ele>
        <time>2025-01-19T12:40:32Z</time>
      </trkpt>
      <trkpt lat="43.40732" lon="6.65422">
        <ele>264.5</ele>
        <time>2025-01-19T12:40:33Z</time>
      </trkpt>
      <trkpt lat="43.40732" lon="6.65423">
        <ele>264.3</ele>
        <time>2025-01-19T12:40:34Z</time>
      </trkpt>
      <trkpt lat="43.40732" lon="6.65424">
        <ele>264.2</ele>
        <time>2025-01-19T12:40:35Z</time>
      </trkpt>
      <trkpt lat="43.40732" lon="6.65426">
        <ele>264.1</ele>
        <time>2025-01-19T12:40:36Z</time>
      </trkpt>
      <trkpt lat="43.40732" lon="6.65427">
        <ele>264</ele>
        <time>2025-01-19T12:40:37Z</time>
      </trkpt>
      <trkpt lat="43.40731" lon="6.65429">
        <ele>263.8</ele>
        <time>2025-01-19T12:40:38Z</time>
      </trkpt>
      <trkpt lat="43.40731" lon="6.6543">
        <ele>263.7</ele>
        <time>2025-01-19T12:40:39Z</time>
      </trkpt>
      <trkpt lat="43.4073" lon="6.65431">
        <ele>263.5</ele>
        <time>2025-01-19T12:40:40Z</time>
      </trkpt>
      <trkpt lat="43.4073" lon="6.65433">
        <ele>263.4</ele>
        <time>2025-01-19T12:40:41Z</time>
      </trkpt>
      <trkpt lat="43.4073" lon="6.65434">
        <ele>263.2</ele>
        <time>2025-01-19T12:40:42Z</time>
      </trkpt>
      <trkpt lat="43.40729" lon="6.65435">
        <ele>262.9</ele>
        <time>2025-01-19T12:40:43Z</time>
      </trkpt>
      <trkpt lat="43.40729" lon="6.65437">
        <ele>262.7</ele>
        <time>2025-01-19T12:40:44Z</time>
      </trkpt>
      <trkpt lat="43.40728" lon="6.65438">
        <ele>262.5</ele>
        <time>2025-01-19T12:40:45Z</time>
      </trkpt>
      <trkpt lat="43.40727" lon="6.6544">
        <ele>262.5</ele>
        <time>2025-01-19T12:40:46Z</time>
      </trkpt>
      <trkpt lat="43.40727" lon="6.65441">
        <ele>262.3</ele>
        <time>2025-01-19T12:40:47Z</time>
      </trkpt>
      <trkpt lat="43.40726" lon="6.65443">
        <ele>262.2</ele>
        <time>2025-01-19T12:40:48Z</time>
      </trkpt>
      <trkpt lat="43.40726" lon="6.65444">
        <ele>262.1</ele>
        <time>2025-01-19T12:40:49Z</time>
      </trkpt>
      <trkpt lat="43.40725" lon="6.65445">
        <ele>261.9</ele>
        <time>2025-01-19T12:40:50Z</time>
      </trkpt>
      <trkpt lat="43.40724" lon="6.65447">
        <ele>261.7</ele>
        <time>2025-01-19T12:40:51Z</time>
      </trkpt>
      <trkpt lat="43.40724" lon="6.65448">
        <ele>261.7</ele>
        <time>2025-01-19T12:40:52Z</time>
      </trkpt>
      <trkpt lat="43.40723" lon="6.65449">
        <ele>261.7</ele>
        <time>2025-01-19T12:40:53Z</time>
      </trkpt>
      <trkpt lat="43.40723" lon="6.6545">
        <ele>261.7</ele>
        <time>2025-01-19T12:40:54Z</time>
      </trkpt>
      <trkpt lat="43.40722" lon="6.65451">
        <ele>261.6</ele>
        <time>2025-01-19T12:40:55Z</time>
      </trkpt>
      <trkpt lat="43.40721" lon="6.65453">
        <ele>261.6</ele>
        <time>2025-01-19T12:40:56Z</time>
      </trkpt>
      <trkpt lat="43.4072" lon="6.65453">
        <ele>261.6</ele>
        <time>2025-01-19T12:40:57Z</time>
      </trkpt>
      <trkpt lat="43.4072" lon="6.65454">
        <ele>261.6</ele>
        <time>2025-01-19T12:40:58Z</time>
      </trkpt>
      <trkpt lat="43.40719" lon="6.65455">
        <ele>261.5</ele>
        <time>2025-01-19T12:40:59Z</time>
      </trkpt>
      <trkpt lat="43.40719" lon="6.65457">
        <ele>261.4</ele>
        <time>2025-01-19T12:41:00Z</time>
      </trkpt>
      <trkpt lat="43.40718" lon="6.65458">
        <ele>261.4</ele>
        <time>2025-01-19T12:41:01Z</time>
      </trkpt>
      <trkpt lat="43.40718" lon="6.6546">
        <ele>261.4</ele>
        <time>2025-01-19T12:41:02Z</time>
      </trkpt>
      <trkpt lat="43.40718" lon="6.6546">
        <ele>261.4</ele>
        <time>2025-01-19T12:41:03Z</time>
      </trkpt>
      <trkpt lat="43.40718" lon="6.65461">
        <ele>261.4</ele>
        <time>2025-01-19T12:41:04Z</time>
      </trkpt>
      <trkpt lat="43.40718" lon="6.65462">
        <ele>261.4</ele>
        <time>2025-01-19T12:41:05Z</time>
      </trkpt>
      <trkpt lat="43.40718" lon="6.65462">
        <ele>261.4</ele>
        <time>2025-01-19T12:41:06Z</time>
      </trkpt>
      <trkpt lat="43.40718" lon="6.65462">
        <ele>261.4</ele>
        <time>2025-01-19T12:41:07Z</time>
      </trkpt>
      <trkpt lat="43.40718" lon="6.65463">
        <ele>261.5</ele>
        <time>2025-01-19T12:41:08Z</time>
      </trkpt>
      <trkpt lat="43.40719" lon="6.65463">
        <ele>261.5</ele>
        <time>2025-01-19T12:41:09Z</time>
      </trkpt>
      <trkpt lat="43.40719" lon="6.65463">
        <ele>261.5</ele>
        <time>2025-01-19T12:41:10Z</time>
      </trkpt>
      <trkpt lat="43.40719" lon="6.65463">
        <ele>261.5</ele>
        <time>2025-01-19T12:41:11Z</time>
      </trkpt>
      <trkpt lat="43.40719" lon="6.65463">
        <ele>261.4</ele>
        <time>2025-01-19T12:41:12Z</time>
      </trkpt>
      <trkpt lat="43.40719" lon="6.65463">
        <ele>261.4</ele>
        <time>2025-01-19T12:41:13Z</time>
      </trkpt>
      <trkpt lat="43.40719" lon="6.65464">
        <ele>261.3</ele>
        <time>2025-01-19T12:41:14Z</time>
      </trkpt>
      <trkpt lat="43.40719" lon="6.65464">
        <ele>261.4</ele>
        <time>2025-01-19T12:41:15Z</time>
      </trkpt>
      <trkpt lat="43.4072" lon="6.65464">
        <ele>261.4</ele>
        <time>2025-01-19T12:41:16Z</time>
      </trkpt>
      <trkpt lat="43.4072" lon="6.65464">
        <ele>261.4</ele>
        <time>2025-01-19T12:41:17Z</time>
      </trkpt>
      <trkpt lat="43.4072" lon="6.65464">
        <ele>261.4</ele>
        <time>2025-01-19T12:41:18Z</time>
      </trkpt>
      <trkpt lat="43.4072" lon="6.65464">
        <ele>261.4</ele>
        <time>2025-01-19T12:41:19Z</time>
      </trkpt>
      <trkpt lat="43.4072" lon="6.65464">
        <ele>261.4</ele>
        <time>2025-01-19T12:41:20Z</time>
      </trkpt>
      <trkpt lat="43.4072" lon="6.65464">
        <ele>261.4</ele>
        <time>2025-01-19T12:41:21Z</time>
      </trkpt>
      <trkpt lat="43.4072" lon="6.65464">
        <ele>261.4</ele>
        <time>2025-01-19T12:41:22Z</time>
      </trkpt>
      <trkpt lat="43.40721" lon="6.65465">
        <ele>261.4</ele>
        <time>2025-01-19T12:41:23Z</time>
      </trkpt>
      <trkpt lat="43.4072" lon="6.65465">
        <ele>261.4</ele>
        <time>2025-01-19T12:41:24Z</time>
      </trkpt>
      <trkpt lat="43.4072" lon="6.65465">
        <ele>261.3</ele>
        <time>2025-01-19T12:41:25Z</time>
      </trkpt>
      <trkpt lat="43.4072" lon="6.65465">
        <ele>261.3</ele>
        <time>2025-01-19T12:41:26Z</time>
      </trkpt>
      <trkpt lat="43.4072" lon="6.65466">
        <ele>261.3</ele>
        <time>2025-01-19T12:41:27Z</time>
      </trkpt>
      <trkpt lat="43.4072" lon="6.65466">
        <ele>261.2</ele>
        <time>2025-01-19T12:41:28Z</time>
      </trkpt>
      <trkpt lat="43.4072" lon="6.65466">
        <ele>261.1</ele>
        <time>2025-01-19T12:41:29Z</time>
      </trkpt>
      <trkpt lat="43.4072" lon="6.65466">
        <ele>261.1</ele>
        <time>2025-01-19T12:41:30Z</time>
      </trkpt>
      <trkpt lat="43.4072" lon="6.65466">
        <ele>261.3</ele>
        <time>2025-01-19T12:41:31Z</time>
      </trkpt>
      <trkpt lat="43.4072" lon="6.65466">
        <ele>261.3</ele>
        <time>2025-01-19T12:41:32Z</time>
      </trkpt>
      <trkpt lat="43.4072" lon="6.65466">
        <ele>261.2</ele>
        <time>2025-01-19T12:41:33Z</time>
      </trkpt>
      <trkpt lat="43.4072" lon="6.65466">
        <ele>261.4</ele>
        <time>2025-01-19T12:41:34Z</time>
      </trkpt>
      <trkpt lat="43.4072" lon="6.65466">
        <ele>261.4</ele>
        <time>2025-01-19T12:41:35Z</time>
      </trkpt>
      <trkpt lat="43.4072" lon="6.65466">
        <ele>261.5</ele>
        <time>2025-01-19T12:41:36Z</time>
      </trkpt>
      <trkpt lat="43.40721" lon="6.65466">
        <ele>261.6</ele>
        <time>2025-01-19T12:41:37Z</time>
      </trkpt>
      <trkpt lat="43.40721" lon="6.65466">
        <ele>261.6</ele>
        <time>2025-01-19T12:41:38Z</time>
      </trkpt>
      <trkpt lat="43.40721" lon="6.65466">
        <ele>261.6</ele>
        <time>2025-01-19T12:41:39Z</time>
      </trkpt>
      <trkpt lat="43.40721" lon="6.65466">
        <ele>261.7</ele>
        <time>2025-01-19T12:41:40Z</time>
      </trkpt>
      <trkpt lat="43.40721" lon="6.65466">
        <ele>261.6</ele>
        <time>2025-01-19T12:41:41Z</time>
      </trkpt>
      <trkpt lat="43.4072" lon="6.65467">
        <ele>261.5</ele>
        <time>2025-01-19T12:41:42Z</time>
      </trkpt>
      <trkpt lat="43.4072" lon="6.65468">
        <ele>261.5</ele>
        <time>2025-01-19T12:41:43Z</time>
      </trkpt>
      <trkpt lat="43.40719" lon="6.65468">
        <ele>261.5</ele>
        <time>2025-01-19T12:41:44Z</time>
      </trkpt>
      <trkpt lat="43.40719" lon="6.65469">
        <ele>261.5</ele>
        <time>2025-01-19T12:41:45Z</time>
      </trkpt>
      <trkpt lat="43.40718" lon="6.6547">
        <ele>261.4</ele>
        <time>2025-01-19T12:41:46Z</time>
      </trkpt>
      <trkpt lat="43.40718" lon="6.65472">
        <ele>261.4</ele>
        <time>2025-01-19T12:41:47Z</time>
      </trkpt>
      <trkpt lat="43.40717" lon="6.65473">
        <ele>261.4</ele>
        <time>2025-01-19T12:41:48Z</time>
      </trkpt>
      <trkpt lat="43.40717" lon="6.65474">
        <ele>261.3</ele>
        <time>2025-01-19T12:41:49Z</time>
      </trkpt>
      <trkpt lat="43.40716" lon="6.65475">
        <ele>261.3</ele>
        <time>2025-01-19T12:41:50Z</time>
      </trkpt>
      <trkpt lat="43.40716" lon="6.65476">
        <ele>261.2</ele>
        <time>2025-01-19T12:41:51Z</time>
      </trkpt>
      <trkpt lat="43.40715" lon="6.65476">
        <ele>261.1</ele>
        <time>2025-01-19T12:41:52Z</time>
      </trkpt>
      <trkpt lat="43.40714" lon="6.65477">
        <ele>261</ele>
        <time>2025-01-19T12:41:53Z</time>
      </trkpt>
      <trkpt lat="43.40713" lon="6.65478">
        <ele>261</ele>
        <time>2025-01-19T12:41:54Z</time>
      </trkpt>
      <trkpt lat="43.40713" lon="6.65479">
        <ele>261</ele>
        <time>2025-01-19T12:41:55Z</time>
      </trkpt>
      <trkpt lat="43.40713" lon="6.6548">
        <ele>261</ele>
        <time>2025-01-19T12:41:56Z</time>
      </trkpt>
      <trkpt lat="43.40712" lon="6.6548">
        <ele>261</ele>
        <time>2025-01-19T12:41:57Z</time>
      </trkpt>
      <trkpt lat="43.40712" lon="6.65481">
        <ele>260.9</ele>
        <time>2025-01-19T12:41:58Z</time>
      </trkpt>
      <trkpt lat="43.40712" lon="6.65482">
        <ele>260.9</ele>
        <time>2025-01-19T12:41:59Z</time>
      </trkpt>
      <trkpt lat="43.40713" lon="6.65482">
        <ele>260.8</ele>
        <time>2025-01-19T12:42:00Z</time>
      </trkpt>
      <trkpt lat="43.40713" lon="6.65482">
        <ele>260.7</ele>
        <time>2025-01-19T12:42:01Z</time>
      </trkpt>
      <trkpt lat="43.40713" lon="6.65482">
        <ele>260.6</ele>
        <time>2025-01-19T12:42:02Z</time>
      </trkpt>
      <trkpt lat="43.40713" lon="6.65482">
        <ele>260.6</ele>
        <time>2025-01-19T12:42:03Z</time>
      </trkpt>
      <trkpt lat="43.40713" lon="6.65483">
        <ele>260.7</ele>
        <time>2025-01-19T12:42:04Z</time>
      </trkpt>
      <trkpt lat="43.40713" lon="6.65483">
        <ele>260.7</ele>
        <time>2025-01-19T12:42:05Z</time>
      </trkpt>
      <trkpt lat="43.40713" lon="6.65483">
        <ele>260.8</ele>
        <time>2025-01-19T12:42:06Z</time>
      </trkpt>
      <trkpt lat="43.40713" lon="6.65483">
        <ele>260.8</ele>
        <time>2025-01-19T12:42:07Z</time>
      </trkpt>
      <trkpt lat="43.40713" lon="6.65483">
        <ele>260.7</ele>
        <time>2025-01-19T12:42:08Z</time>
      </trkpt>
      <trkpt lat="43.40713" lon="6.65483">
        <ele>260.7</ele>
        <time>2025-01-19T12:42:09Z</time>
      </trkpt>
      <trkpt lat="43.40713" lon="6.65483">
        <ele>260.7</ele>
        <time>2025-01-19T12:42:10Z</time>
      </trkpt>
      <trkpt lat="43.40713" lon="6.65483">
        <ele>260.7</ele>
        <time>2025-01-19T12:42:11Z</time>
      </trkpt>
      <trkpt lat="43.40713" lon="6.65483">
        <ele>260.7</ele>
        <time>2025-01-19T12:42:12Z</time>
      </trkpt>
      <trkpt lat="43.40713" lon="6.65483">
        <ele>260.6</ele>
        <time>2025-01-19T12:42:13Z</time>
      </trkpt>
      <trkpt lat="43.40713" lon="6.65483">
        <ele>260.7</ele>
        <time>2025-01-19T12:42:14Z</time>
      </trkpt>
      <trkpt lat="43.40713" lon="6.65483">
        <ele>260.7</ele>
        <time>2025-01-19T12:42:15Z</time>
      </trkpt>
      <trkpt lat="43.40713" lon="6.65483">
        <ele>260.7</ele>
        <time>2025-01-19T12:42:16Z</time>
      </trkpt>
      <trkpt lat="43.40713" lon="6.65484">
        <ele>260.7</ele>
        <time>2025-01-19T12:42:17Z</time>
      </trkpt>
      <trkpt lat="43.40713" lon="6.65484">
        <ele>260.7</ele>
        <time>2025-01-19T12:42:18Z</time>
      </trkpt>
      <trkpt lat="43.40713" lon="6.65484">
        <ele>260.6</ele>
        <time>2025-01-19T12:42:19Z</time>
      </trkpt>
      <trkpt lat="43.40713" lon="6.65484">
        <ele>260.6</ele>
        <time>2025-01-19T12:42:20Z</time>
      </trkpt>
      <trkpt lat="43.40713" lon="6.65484">
        <ele>260.6</ele>
        <time>2025-01-19T12:42:21Z</time>
      </trkpt>
      <trkpt lat="43.40713" lon="6.65484">
        <ele>260.6</ele>
        <time>2025-01-19T12:42:22Z</time>
      </trkpt>
      <trkpt lat="43.40713" lon="6.65484">
        <ele>260.7</ele>
        <time>2025-01-19T12:42:23Z</time>
      </trkpt>
      <trkpt lat="43.40712" lon="6.65485">
        <ele>260.7</ele>
        <time>2025-01-19T12:42:24Z</time>
      </trkpt>
      <trkpt lat="43.40711" lon="6.65485">
        <ele>260.7</ele>
        <time>2025-01-19T12:42:25Z</time>
      </trkpt>
      <trkpt lat="43.4071" lon="6.65486">
        <ele>260.7</ele>
        <time>2025-01-19T12:42:26Z</time>
      </trkpt>
      <trkpt lat="43.4071" lon="6.65487">
        <ele>260.7</ele>
        <time>2025-01-19T12:42:27Z</time>
      </trkpt>
      <trkpt lat="43.40709" lon="6.65488">
        <ele>260.7</ele>
        <time>2025-01-19T12:42:28Z</time>
      </trkpt>
      <trkpt lat="43.40708" lon="6.65489">
        <ele>260.8</ele>
        <time>2025-01-19T12:42:29Z</time>
      </trkpt>
      <trkpt lat="43.40708" lon="6.6549">
        <ele>260.9</ele>
        <time>2025-01-19T12:42:30Z</time>
      </trkpt>
      <trkpt lat="43.40706" lon="6.65491">
        <ele>260.9</ele>
        <time>2025-01-19T12:42:31Z</time>
      </trkpt>
      <trkpt lat="43.40705" lon="6.65492">
        <ele>260.9</ele>
        <time>2025-01-19T12:42:32Z</time>
      </trkpt>
      <trkpt lat="43.40704" lon="6.65493">
        <ele>260.9</ele>
        <time>2025-01-19T12:42:33Z</time>
      </trkpt>
      <trkpt lat="43.40703" lon="6.65495">
        <ele>260.9</ele>
        <time>2025-01-19T12:42:34Z</time>
      </trkpt>
      <trkpt lat="43.40703" lon="6.65496">
        <ele>260.9</ele>
        <time>2025-01-19T12:42:35Z</time>
      </trkpt>
      <trkpt lat="43.40702" lon="6.65496">
        <ele>260.9</ele>
        <time>2025-01-19T12:42:36Z</time>
      </trkpt>
      <trkpt lat="43.40701" lon="6.65498">
        <ele>260.9</ele>
        <time>2025-01-19T12:42:37Z</time>
      </trkpt>
      <trkpt lat="43.40701" lon="6.65499">
        <ele>260.9</ele>
        <time>2025-01-19T12:42:38Z</time>
      </trkpt>
      <trkpt lat="43.407" lon="6.655">
        <ele>260.9</ele>
        <time>2025-01-19T12:42:39Z</time>
      </trkpt>
      <trkpt lat="43.407" lon="6.65501">
        <ele>260.9</ele>
        <time>2025-01-19T12:42:40Z</time>
      </trkpt>
      <trkpt lat="43.407" lon="6.65503">
        <ele>260.8</ele>
        <time>2025-01-19T12:42:41Z</time>
      </trkpt>
      <trkpt lat="43.407" lon="6.65504">
        <ele>260.8</ele>
        <time>2025-01-19T12:42:42Z</time>
      </trkpt>
      <trkpt lat="43.40699" lon="6.65506">
        <ele>260.8</ele>
        <time>2025-01-19T12:42:43Z</time>
      </trkpt>
      <trkpt lat="43.40699" lon="6.65508">
        <ele>260.7</ele>
        <time>2025-01-19T12:42:44Z</time>
      </trkpt>
      <trkpt lat="43.40698" lon="6.65509">
        <ele>260.7</ele>
        <time>2025-01-19T12:42:45Z</time>
      </trkpt>
      <trkpt lat="43.40698" lon="6.6551">
        <ele>260.7</ele>
        <time>2025-01-19T12:42:46Z</time>
      </trkpt>
      <trkpt lat="43.40698" lon="6.65512">
        <ele>260.7</ele>
        <time>2025-01-19T12:42:47Z</time>
      </trkpt>
      <trkpt lat="43.40697" lon="6.65513">
        <ele>260.8</ele>
        <time>2025-01-19T12:42:48Z</time>
      </trkpt>
      <trkpt lat="43.40697" lon="6.65515">
        <ele>260.8</ele>
        <time>2025-01-19T12:42:49Z</time>
      </trkpt>
      <trkpt lat="43.40697" lon="6.65516">
        <ele>260.8</ele>
        <time>2025-01-19T12:42:50Z</time>
      </trkpt>
      <trkpt lat="43.40696" lon="6.65517">
        <ele>260.9</ele>
        <time>2025-01-19T12:42:51Z</time>
      </trkpt>
      <trkpt lat="43.40696" lon="6.65518">
        <ele>260.8</ele>
        <time>2025-01-19T12:42:52Z</time>
      </trkpt>
      <trkpt lat="43.40696" lon="6.65519">
        <ele>260.7</ele>
        <time>2025-01-19T12:42:53Z</time>
      </trkpt>
      <trkpt lat="43.40696" lon="6.65521">
        <ele>260.7</ele>
        <time>2025-01-19T12:42:54Z</time>
      </trkpt>
      <trkpt lat="43.40695" lon="6.65523">
        <ele>260.7</ele>
        <time>2025-01-19T12:42:55Z</time>
      </trkpt>
      <trkpt lat="43.40695" lon="6.65524">
        <ele>260.7</ele>
        <time>2025-01-19T12:42:56Z</time>
      </trkpt>
      <trkpt lat="43.40695" lon="6.65525">
        <ele>260.7</ele>
        <time>2025-01-19T12:42:57Z</time>
      </trkpt>
      <trkpt lat="43.40695" lon="6.65527">
        <ele>260.7</ele>
        <time>2025-01-19T12:42:58Z</time>
      </trkpt>
      <trkpt lat="43.40695" lon="6.65528">
        <ele>260.7</ele>
        <time>2025-01-19T12:42:59Z</time>
      </trkpt>
      <trkpt lat="43.40695" lon="6.65529">
        <ele>260.7</ele>
        <time>2025-01-19T12:43:00Z</time>
      </trkpt>
      <trkpt lat="43.40694" lon="6.65531">
        <ele>260.7</ele>
        <time>2025-01-19T12:43:01Z</time>
      </trkpt>
      <trkpt lat="43.40694" lon="6.65532">
        <ele>260.7</ele>
        <time>2025-01-19T12:43:02Z</time>
      </trkpt>
      <trkpt lat="43.40694" lon="6.65533">
        <ele>260.6</ele>
        <time>2025-01-19T12:43:03Z</time>
      </trkpt>
      <trkpt lat="43.40694" lon="6.65535">
        <ele>260.8</ele>
        <time>2025-01-19T12:43:04Z</time>
      </trkpt>
      <trkpt lat="43.40693" lon="6.65537">
        <ele>260.8</ele>
        <time>2025-01-19T12:43:05Z</time>
      </trkpt>
      <trkpt lat="43.40693" lon="6.65538">
        <ele>260.8</ele>
        <time>2025-01-19T12:43:06Z</time>
      </trkpt>
      <trkpt lat="43.40693" lon="6.6554">
        <ele>260.9</ele>
        <time>2025-01-19T12:43:07Z</time>
      </trkpt>
      <trkpt lat="43.40692" lon="6.65542">
        <ele>261</ele>
        <time>2025-01-19T12:43:08Z</time>
      </trkpt>
      <trkpt lat="43.40692" lon="6.65543">
        <ele>261</ele>
        <time>2025-01-19T12:43:09Z</time>
      </trkpt>
      <trkpt lat="43.40692" lon="6.65545">
        <ele>260.9</ele>
        <time>2025-01-19T12:43:10Z</time>
      </trkpt>
      <trkpt lat="43.40692" lon="6.65546">
        <ele>261</ele>
        <time>2025-01-19T12:43:11Z</time>
      </trkpt>
      <trkpt lat="43.40691" lon="6.65548">
        <ele>261</ele>
        <time>2025-01-19T12:43:12Z</time>
      </trkpt>
      <trkpt lat="43.40691" lon="6.65549">
        <ele>260.9</ele>
        <time>2025-01-19T12:43:13Z</time>
      </trkpt>
      <trkpt lat="43.40691" lon="6.65551">
        <ele>260.8</ele>
        <time>2025-01-19T12:43:14Z</time>
      </trkpt>
      <trkpt lat="43.40691" lon="6.65553">
        <ele>260.7</ele>
        <time>2025-01-19T12:43:15Z</time>
      </trkpt>
      <trkpt lat="43.4069" lon="6.65554">
        <ele>260.7</ele>
        <time>2025-01-19T12:43:16Z</time>
      </trkpt>
      <trkpt lat="43.4069" lon="6.65556">
        <ele>260.8</ele>
        <time>2025-01-19T12:43:17Z</time>
      </trkpt>
      <trkpt lat="43.4069" lon="6.65558">
        <ele>260.7</ele>
        <time>2025-01-19T12:43:18Z</time>
      </trkpt>
      <trkpt lat="43.4069" lon="6.65559">
        <ele>260.6</ele>
        <time>2025-01-19T12:43:19Z</time>
      </trkpt>
      <trkpt lat="43.4069" lon="6.6556">
        <ele>260.6</ele>
        <time>2025-01-19T12:43:20Z</time>
      </trkpt>
      <trkpt lat="43.4069" lon="6.65561">
        <ele>260.6</ele>
        <time>2025-01-19T12:43:21Z</time>
      </trkpt>
      <trkpt lat="43.40689" lon="6.65563">
        <ele>260.5</ele>
        <time>2025-01-19T12:43:22Z</time>
      </trkpt>
      <trkpt lat="43.40689" lon="6.65564">
        <ele>260.5</ele>
        <time>2025-01-19T12:43:23Z</time>
      </trkpt>
      <trkpt lat="43.40689" lon="6.65565">
        <ele>260.4</ele>
        <time>2025-01-19T12:43:24Z</time>
      </trkpt>
      <trkpt lat="43.40689" lon="6.65567">
        <ele>260.3</ele>
        <time>2025-01-19T12:43:25Z</time>
      </trkpt>
      <trkpt lat="43.40689" lon="6.65568">
        <ele>260.2</ele>
        <time>2025-01-19T12:43:26Z</time>
      </trkpt>
      <trkpt lat="43.40689" lon="6.6557">
        <ele>260.2</ele>
        <time>2025-01-19T12:43:27Z</time>
      </trkpt>
      <trkpt lat="43.40688" lon="6.65572">
        <ele>260.1</ele>
        <time>2025-01-19T12:43:28Z</time>
      </trkpt>
      <trkpt lat="43.40688" lon="6.65573">
        <ele>260</ele>
        <time>2025-01-19T12:43:29Z</time>
      </trkpt>
      <trkpt lat="43.40688" lon="6.65575">
        <ele>260</ele>
        <time>2025-01-19T12:43:30Z</time>
      </trkpt>
      <trkpt lat="43.40688" lon="6.65576">
        <ele>259.9</ele>
        <time>2025-01-19T12:43:31Z</time>
      </trkpt>
      <trkpt lat="43.40688" lon="6.65578">
        <ele>259.8</ele>
        <time>2025-01-19T12:43:32Z</time>
      </trkpt>
      <trkpt lat="43.40688" lon="6.65579">
        <ele>259.7</ele>
        <time>2025-01-19T12:43:33Z</time>
      </trkpt>
      <trkpt lat="43.40688" lon="6.6558">
        <ele>259.6</ele>
        <time>2025-01-19T12:43:34Z</time>
      </trkpt>
      <trkpt lat="43.40689" lon="6.65582">
        <ele>259.5</ele>
        <time>2025-01-19T12:43:35Z</time>
      </trkpt>
      <trkpt lat="43.40689" lon="6.65582">
        <ele>259.3</ele>
        <time>2025-01-19T12:43:36Z</time>
      </trkpt>
      <trkpt lat="43.4069" lon="6.65584">
        <ele>259.2</ele>
        <time>2025-01-19T12:43:37Z</time>
      </trkpt>
      <trkpt lat="43.4069" lon="6.65586">
        <ele>259.1</ele>
        <time>2025-01-19T12:43:38Z</time>
      </trkpt>
      <trkpt lat="43.4069" lon="6.65587">
        <ele>259</ele>
        <time>2025-01-19T12:43:39Z</time>
      </trkpt>
      <trkpt lat="43.4069" lon="6.65588">
        <ele>259</ele>
        <time>2025-01-19T12:43:40Z</time>
      </trkpt>
      <trkpt lat="43.4069" lon="6.65589">
        <ele>258.9</ele>
        <time>2025-01-19T12:43:41Z</time>
      </trkpt>
      <trkpt lat="43.4069" lon="6.65591">
        <ele>258.8</ele>
        <time>2025-01-19T12:43:42Z</time>
      </trkpt>
      <trkpt lat="43.40691" lon="6.65592">
        <ele>258.8</ele>
        <time>2025-01-19T12:43:43Z</time>
      </trkpt>
      <trkpt lat="43.40691" lon="6.65593">
        <ele>258.7</ele>
        <time>2025-01-19T12:43:44Z</time>
      </trkpt>
      <trkpt lat="43.40691" lon="6.65594">
        <ele>258.4</ele>
        <time>2025-01-19T12:43:45Z</time>
      </trkpt>
      <trkpt lat="43.40691" lon="6.65596">
        <ele>258.3</ele>
        <time>2025-01-19T12:43:46Z</time>
      </trkpt>
      <trkpt lat="43.4069" lon="6.65597">
        <ele>258.2</ele>
        <time>2025-01-19T12:43:47Z</time>
      </trkpt>
      <trkpt lat="43.4069" lon="6.65598">
        <ele>258.1</ele>
        <time>2025-01-19T12:43:48Z</time>
      </trkpt>
      <trkpt lat="43.4069" lon="6.65598">
        <ele>258</ele>
        <time>2025-01-19T12:43:49Z</time>
      </trkpt>
      <trkpt lat="43.4069" lon="6.65599">
        <ele>257.8</ele>
        <time>2025-01-19T12:43:50Z</time>
      </trkpt>
      <trkpt lat="43.4069" lon="6.656">
        <ele>257.7</ele>
        <time>2025-01-19T12:43:51Z</time>
      </trkpt>
      <trkpt lat="43.4069" lon="6.65601">
        <ele>257.5</ele>
        <time>2025-01-19T12:43:52Z</time>
      </trkpt>
      <trkpt lat="43.40689" lon="6.65603">
        <ele>257.3</ele>
        <time>2025-01-19T12:43:53Z</time>
      </trkpt>
      <trkpt lat="43.40689" lon="6.65604">
        <ele>257.2</ele>
        <time>2025-01-19T12:43:54Z</time>
      </trkpt>
      <trkpt lat="43.40689" lon="6.65605">
        <ele>257</ele>
        <time>2025-01-19T12:43:55Z</time>
      </trkpt>
      <trkpt lat="43.40688" lon="6.65606">
        <ele>256.7</ele>
        <time>2025-01-19T12:43:56Z</time>
      </trkpt>
      <trkpt lat="43.40688" lon="6.65607">
        <ele>256.6</ele>
        <time>2025-01-19T12:43:57Z</time>
      </trkpt>
      <trkpt lat="43.40688" lon="6.65608">
        <ele>256.4</ele>
        <time>2025-01-19T12:43:58Z</time>
      </trkpt>
      <trkpt lat="43.40688" lon="6.65609">
        <ele>256.3</ele>
        <time>2025-01-19T12:43:59Z</time>
      </trkpt>
      <trkpt lat="43.40688" lon="6.6561">
        <ele>256.1</ele>
        <time>2025-01-19T12:44:00Z</time>
      </trkpt>
      <trkpt lat="43.40687" lon="6.65611">
        <ele>256</ele>
        <time>2025-01-19T12:44:01Z</time>
      </trkpt>
      <trkpt lat="43.40687" lon="6.65612">
        <ele>255.8</ele>
        <time>2025-01-19T12:44:02Z</time>
      </trkpt>
      <trkpt lat="43.40687" lon="6.65614">
        <ele>255.7</ele>
        <time>2025-01-19T12:44:03Z</time>
      </trkpt>
      <trkpt lat="43.40687" lon="6.65615">
        <ele>255.5</ele>
        <time>2025-01-19T12:44:04Z</time>
      </trkpt>
      <trkpt lat="43.40686" lon="6.65616">
        <ele>255.3</ele>
        <time>2025-01-19T12:44:05Z</time>
      </trkpt>
      <trkpt lat="43.40686" lon="6.65617">
        <ele>255.2</ele>
        <time>2025-01-19T12:44:06Z</time>
      </trkpt>
      <trkpt lat="43.40686" lon="6.65618">
        <ele>255.1</ele>
        <time>2025-01-19T12:44:07Z</time>
      </trkpt>
      <trkpt lat="43.40686" lon="6.65619">
        <ele>255</ele>
        <time>2025-01-19T12:44:08Z</time>
      </trkpt>
      <trkpt lat="43.40686" lon="6.6562">
        <ele>254.9</ele>
        <time>2025-01-19T12:44:09Z</time>
      </trkpt>
      <trkpt lat="43.40686" lon="6.65621">
        <ele>254.8</ele>
        <time>2025-01-19T12:44:10Z</time>
      </trkpt>
      <trkpt lat="43.40686" lon="6.65623">
        <ele>254.8</ele>
        <time>2025-01-19T12:44:11Z</time>
      </trkpt>
      <trkpt lat="43.40686" lon="6.65624">
        <ele>254.7</ele>
        <time>2025-01-19T12:44:12Z</time>
      </trkpt>
      <trkpt lat="43.40687" lon="6.65626">
        <ele>254.5</ele>
        <time>2025-01-19T12:44:13Z</time>
      </trkpt>
      <trkpt lat="43.40687" lon="6.65627">
        <ele>254.3</ele>
        <time>2025-01-19T12:44:14Z</time>
      </trkpt>
      <trkpt lat="43.40687" lon="6.65629">
        <ele>254.1</ele>
        <time>2025-01-19T12:44:15Z</time>
      </trkpt>
      <trkpt lat="43.40687" lon="6.6563">
        <ele>253.9</ele>
        <time>2025-01-19T12:44:16Z</time>
      </trkpt>
      <trkpt lat="43.40687" lon="6.65631">
        <ele>253.8</ele>
        <time>2025-01-19T12:44:17Z</time>
      </trkpt>
      <trkpt lat="43.40687" lon="6.65632">
        <ele>253.7</ele>
        <time>2025-01-19T12:44:18Z</time>
      </trkpt>
      <trkpt lat="43.40688" lon="6.65633">
        <ele>253.6</ele>
        <time>2025-01-19T12:44:19Z</time>
      </trkpt>
      <trkpt lat="43.40687" lon="6.65633">
        <ele>253.5</ele>
        <time>2025-01-19T12:44:20Z</time>
      </trkpt>
      <trkpt lat="43.40687" lon="6.65634">
        <ele>253.4</ele>
        <time>2025-01-19T12:44:21Z</time>
      </trkpt>
      <trkpt lat="43.40687" lon="6.65635">
        <ele>253.3</ele>
        <time>2025-01-19T12:44:22Z</time>
      </trkpt>
      <trkpt lat="43.40687" lon="6.65636">
        <ele>253.2</ele>
        <time>2025-01-19T12:44:23Z</time>
      </trkpt>
      <trkpt lat="43.40687" lon="6.65637">
        <ele>253.1</ele>
        <time>2025-01-19T12:44:24Z</time>
      </trkpt>
      <trkpt lat="43.40687" lon="6.65638">
        <ele>253</ele>
        <time>2025-01-19T12:44:25Z</time>
      </trkpt>
      <trkpt lat="43.40688" lon="6.65639">
        <ele>252.9</ele>
        <time>2025-01-19T12:44:26Z</time>
      </trkpt>
      <trkpt lat="43.40688" lon="6.6564">
        <ele>252.8</ele>
        <time>2025-01-19T12:44:27Z</time>
      </trkpt>
      <trkpt lat="43.40688" lon="6.65641">
        <ele>252.6</ele>
        <time>2025-01-19T12:44:28Z</time>
      </trkpt>
      <trkpt lat="43.40688" lon="6.65642">
        <ele>252.4</ele>
        <time>2025-01-19T12:44:29Z</time>
      </trkpt>
      <trkpt lat="43.40688" lon="6.65643">
        <ele>252.3</ele>
        <time>2025-01-19T12:44:30Z</time>
      </trkpt>
      <trkpt lat="43.40688" lon="6.65644">
        <ele>252.1</ele>
        <time>2025-01-19T12:44:31Z</time>
      </trkpt>
      <trkpt lat="43.40687" lon="6.65645">
        <ele>251.7</ele>
        <time>2025-01-19T12:44:32Z</time>
      </trkpt>
      <trkpt lat="43.40687" lon="6.65646">
        <ele>251.4</ele>
        <time>2025-01-19T12:44:33Z</time>
      </trkpt>
      <trkpt lat="43.40687" lon="6.65648">
        <ele>251</ele>
        <time>2025-01-19T12:44:34Z</time>
      </trkpt>
      <trkpt lat="43.40686" lon="6.65649">
        <ele>250.7</ele>
        <time>2025-01-19T12:44:35Z</time>
      </trkpt>
      <trkpt lat="43.40686" lon="6.6565">
        <ele>250.5</ele>
        <time>2025-01-19T12:44:36Z</time>
      </trkpt>
      <trkpt lat="43.40686" lon="6.65651">
        <ele>250.3</ele>
        <time>2025-01-19T12:44:37Z</time>
      </trkpt>
      <trkpt lat="43.40686" lon="6.65651">
        <ele>250.1</ele>
        <time>2025-01-19T12:44:38Z</time>
      </trkpt>
      <trkpt lat="43.40686" lon="6.65652">
        <ele>249.9</ele>
        <time>2025-01-19T12:44:39Z</time>
      </trkpt>
      <trkpt lat="43.40686" lon="6.65653">
        <ele>249.6</ele>
        <time>2025-01-19T12:44:40Z</time>
      </trkpt>
      <trkpt lat="43.40686" lon="6.65654">
        <ele>249.4</ele>
        <time>2025-01-19T12:44:41Z</time>
      </trkpt>
      <trkpt lat="43.40685" lon="6.65655">
        <ele>249.2</ele>
        <time>2025-01-19T12:44:42Z</time>
      </trkpt>
      <trkpt lat="43.40685" lon="6.65656">
        <ele>248.8</ele>
        <time>2025-01-19T12:44:43Z</time>
      </trkpt>
      <trkpt lat="43.40685" lon="6.65657">
        <ele>248.7</ele>
        <time>2025-01-19T12:44:44Z</time>
      </trkpt>
      <trkpt lat="43.40684" lon="6.65658">
        <ele>248.5</ele>
        <time>2025-01-19T12:44:45Z</time>
      </trkpt>
      <trkpt lat="43.40684" lon="6.65659">
        <ele>248.3</ele>
        <time>2025-01-19T12:44:46Z</time>
      </trkpt>
      <trkpt lat="43.40684" lon="6.65661">
        <ele>248.1</ele>
        <time>2025-01-19T12:44:47Z</time>
      </trkpt>
      <trkpt lat="43.40684" lon="6.65662">
        <ele>247.8</ele>
        <time>2025-01-19T12:44:48Z</time>
      </trkpt>
      <trkpt lat="43.40683" lon="6.65663">
        <ele>247.6</ele>
        <time>2025-01-19T12:44:49Z</time>
      </trkpt>
      <trkpt lat="43.40683" lon="6.65664">
        <ele>247.4</ele>
        <time>2025-01-19T12:44:50Z</time>
      </trkpt>
      <trkpt lat="43.40682" lon="6.65665">
        <ele>247.1</ele>
        <time>2025-01-19T12:44:51Z</time>
      </trkpt>
      <trkpt lat="43.40682" lon="6.65666">
        <ele>246.9</ele>
        <time>2025-01-19T12:44:52Z</time>
      </trkpt>
      <trkpt lat="43.40681" lon="6.65667">
        <ele>246.7</ele>
        <time>2025-01-19T12:44:53Z</time>
      </trkpt>
      <trkpt lat="43.4068" lon="6.65668">
        <ele>246.7</ele>
        <time>2025-01-19T12:44:54Z</time>
      </trkpt>
      <trkpt lat="43.4068" lon="6.65669">
        <ele>246.6</ele>
        <time>2025-01-19T12:44:55Z</time>
      </trkpt>
      <trkpt lat="43.4068" lon="6.6567">
        <ele>246.5</ele>
        <time>2025-01-19T12:44:56Z</time>
      </trkpt>
      <trkpt lat="43.40679" lon="6.65671">
        <ele>246.5</ele>
        <time>2025-01-19T12:44:57Z</time>
      </trkpt>
      <trkpt lat="43.40679" lon="6.65671">
        <ele>246.4</ele>
        <time>2025-01-19T12:44:58Z</time>
      </trkpt>
      <trkpt lat="43.40678" lon="6.65672">
        <ele>246.3</ele>
        <time>2025-01-19T12:44:59Z</time>
      </trkpt>
      <trkpt lat="43.40678" lon="6.65673">
        <ele>246.1</ele>
        <time>2025-01-19T12:45:00Z</time>
      </trkpt>
      <trkpt lat="43.40678" lon="6.65673">
        <ele>245.9</ele>
        <time>2025-01-19T12:45:01Z</time>
      </trkpt>
      <trkpt lat="43.40678" lon="6.65674">
        <ele>245.7</ele>
        <time>2025-01-19T12:45:02Z</time>
      </trkpt>
      <trkpt lat="43.40677" lon="6.65675">
        <ele>245.4</ele>
        <time>2025-01-19T12:45:03Z</time>
      </trkpt>
      <trkpt lat="43.40676" lon="6.65675">
        <ele>245.3</ele>
        <time>2025-01-19T12:45:04Z</time>
      </trkpt>
      <trkpt lat="43.40676" lon="6.65675">
        <ele>245</ele>
        <time>2025-01-19T12:45:05Z</time>
      </trkpt>
      <trkpt lat="43.40676" lon="6.65676">
        <ele>244.8</ele>
        <time>2025-01-19T12:45:06Z</time>
      </trkpt>
      <trkpt lat="43.40676" lon="6.65677">
        <ele>244.7</ele>
        <time>2025-01-19T12:45:07Z</time>
      </trkpt>
      <trkpt lat="43.40675" lon="6.65677">
        <ele>244.5</ele>
        <time>2025-01-19T12:45:08Z</time>
      </trkpt>
      <trkpt lat="43.40675" lon="6.65678">
        <ele>244.3</ele>
        <time>2025-01-19T12:45:09Z</time>
      </trkpt>
      <trkpt lat="43.40675" lon="6.65678">
        <ele>244.1</ele>
        <time>2025-01-19T12:45:10Z</time>
      </trkpt>
      <trkpt lat="43.40674" lon="6.65679">
        <ele>243.9</ele>
        <time>2025-01-19T12:45:11Z</time>
      </trkpt>
      <trkpt lat="43.40674" lon="6.6568">
        <ele>243.7</ele>
        <time>2025-01-19T12:45:12Z</time>
      </trkpt>
      <trkpt lat="43.40673" lon="6.65681">
        <ele>243.4</ele>
        <time>2025-01-19T12:45:13Z</time>
      </trkpt>
      <trkpt lat="43.40673" lon="6.65681">
        <ele>243.2</ele>
        <time>2025-01-19T12:45:14Z</time>
      </trkpt>
      <trkpt lat="43.40673" lon="6.65682">
        <ele>243</ele>
        <time>2025-01-19T12:45:15Z</time>
      </trkpt>
      <trkpt lat="43.40673" lon="6.65683">
        <ele>242.8</ele>
        <time>2025-01-19T12:45:16Z</time>
      </trkpt>
      <trkpt lat="43.40672" lon="6.65684">
        <ele>242.6</ele>
        <time>2025-01-19T12:45:17Z</time>
      </trkpt>
      <trkpt lat="43.40672" lon="6.65685">
        <ele>242.4</ele>
        <time>2025-01-19T12:45:18Z</time>
      </trkpt>
      <trkpt lat="43.40672" lon="6.65685">
        <ele>242.2</ele>
        <time>2025-01-19T12:45:19Z</time>
      </trkpt>
      <trkpt lat="43.40671" lon="6.65686">
        <ele>241.9</ele>
        <time>2025-01-19T12:45:20Z</time>
      </trkpt>
      <trkpt lat="43.40671" lon="6.65687">
        <ele>241.7</ele>
        <time>2025-01-19T12:45:21Z</time>
      </trkpt>
      <trkpt lat="43.40671" lon="6.65687">
        <ele>241.5</ele>
        <time>2025-01-19T12:45:22Z</time>
      </trkpt>
      <trkpt lat="43.4067" lon="6.65687">
        <ele>241.3</ele>
        <time>2025-01-19T12:45:23Z</time>
      </trkpt>
      <trkpt lat="43.40669" lon="6.65688">
        <ele>241.2</ele>
        <time>2025-01-19T12:45:24Z</time>
      </trkpt>
      <trkpt lat="43.40669" lon="6.65689">
        <ele>241</ele>
        <time>2025-01-19T12:45:25Z</time>
      </trkpt>
      <trkpt lat="43.40668" lon="6.6569">
        <ele>240.8</ele>
        <time>2025-01-19T12:45:26Z</time>
      </trkpt>
      <trkpt lat="43.40668" lon="6.65691">
        <ele>240.6</ele>
        <time>2025-01-19T12:45:27Z</time>
      </trkpt>
      <trkpt lat="43.40668" lon="6.65692">
        <ele>240.3</ele>
        <time>2025-01-19T12:45:28Z</time>
      </trkpt>
      <trkpt lat="43.40668" lon="6.65692">
        <ele>240</ele>
        <time>2025-01-19T12:45:29Z</time>
      </trkpt>
      <trkpt lat="43.40668" lon="6.65693">
        <ele>239.8</ele>
        <time>2025-01-19T12:45:30Z</time>
      </trkpt>
      <trkpt lat="43.40668" lon="6.65694">
        <ele>239.6</ele>
        <time>2025-01-19T12:45:31Z</time>
      </trkpt>
      <trkpt lat="43.40667" lon="6.65695">
        <ele>239.4</ele>
        <time>2025-01-19T12:45:32Z</time>
      </trkpt>
      <trkpt lat="43.40667" lon="6.65696">
        <ele>239.2</ele>
        <time>2025-01-19T12:45:33Z</time>
      </trkpt>
      <trkpt lat="43.40666" lon="6.65697">
        <ele>239.2</ele>
        <time>2025-01-19T12:45:34Z</time>
      </trkpt>
      <trkpt lat="43.40665" lon="6.65698">
        <ele>238.8</ele>
        <time>2025-01-19T12:45:35Z</time>
      </trkpt>
      <trkpt lat="43.40665" lon="6.65699">
        <ele>238.6</ele>
        <time>2025-01-19T12:45:36Z</time>
      </trkpt>
      <trkpt lat="43.40665" lon="6.657">
        <ele>238.4</ele>
        <time>2025-01-19T12:45:37Z</time>
      </trkpt>
      <trkpt lat="43.40665" lon="6.65701">
        <ele>238.3</ele>
        <time>2025-01-19T12:45:38Z</time>
      </trkpt>
      <trkpt lat="43.40665" lon="6.65703">
        <ele>238</ele>
        <time>2025-01-19T12:45:39Z</time>
      </trkpt>
      <trkpt lat="43.40665" lon="6.65704">
        <ele>237.6</ele>
        <time>2025-01-19T12:45:40Z</time>
      </trkpt>
      <trkpt lat="43.40665" lon="6.65705">
        <ele>237.4</ele>
        <time>2025-01-19T12:45:41Z</time>
      </trkpt>
      <trkpt lat="43.40664" lon="6.65707">
        <ele>237.1</ele>
        <time>2025-01-19T12:45:42Z</time>
      </trkpt>
      <trkpt lat="43.40664" lon="6.65709">
        <ele>236.8</ele>
        <time>2025-01-19T12:45:43Z</time>
      </trkpt>
      <trkpt lat="43.40664" lon="6.6571">
        <ele>236.5</ele>
        <time>2025-01-19T12:45:44Z</time>
      </trkpt>
      <trkpt lat="43.40665" lon="6.65711">
        <ele>236.2</ele>
        <time>2025-01-19T12:45:45Z</time>
      </trkpt>
      <trkpt lat="43.40665" lon="6.65712">
        <ele>236</ele>
        <time>2025-01-19T12:45:46Z</time>
      </trkpt>
      <trkpt lat="43.40665" lon="6.65713">
        <ele>235.7</ele>
        <time>2025-01-19T12:45:47Z</time>
      </trkpt>
      <trkpt lat="43.40665" lon="6.65714">
        <ele>235.5</ele>
        <time>2025-01-19T12:45:48Z</time>
      </trkpt>
      <trkpt lat="43.40666" lon="6.65715">
        <ele>235.3</ele>
        <time>2025-01-19T12:45:49Z</time>
      </trkpt>
      <trkpt lat="43.40666" lon="6.65716">
        <ele>235</ele>
        <time>2025-01-19T12:45:50Z</time>
      </trkpt>
      <trkpt lat="43.40666" lon="6.65717">
        <ele>234.7</ele>
        <time>2025-01-19T12:45:51Z</time>
      </trkpt>
      <trkpt lat="43.40667" lon="6.65717">
        <ele>234.5</ele>
        <time>2025-01-19T12:45:52Z</time>
      </trkpt>
      <trkpt lat="43.40667" lon="6.65718">
        <ele>234.3</ele>
        <time>2025-01-19T12:45:53Z</time>
      </trkpt>
      <trkpt lat="43.40667" lon="6.65719">
        <ele>234.1</ele>
        <time>2025-01-19T12:45:54Z</time>
      </trkpt>
      <trkpt lat="43.40667" lon="6.6572">
        <ele>233.9</ele>
        <time>2025-01-19T12:45:55Z</time>
      </trkpt>
      <trkpt lat="43.40668" lon="6.6572">
        <ele>233.7</ele>
        <time>2025-01-19T12:45:56Z</time>
      </trkpt>
      <trkpt lat="43.40668" lon="6.65721">
        <ele>233.5</ele>
        <time>2025-01-19T12:45:57Z</time>
      </trkpt>
      <trkpt lat="43.40669" lon="6.65722">
        <ele>233.2</ele>
        <time>2025-01-19T12:45:58Z</time>
      </trkpt>
      <trkpt lat="43.40669" lon="6.65723">
        <ele>233</ele>
        <time>2025-01-19T12:45:59Z</time>
      </trkpt>
      <trkpt lat="43.40669" lon="6.65724">
        <ele>232.8</ele>
        <time>2025-01-19T12:46:00Z</time>
      </trkpt>
      <trkpt lat="43.40669" lon="6.65725">
        <ele>232.7</ele>
        <time>2025-01-19T12:46:01Z</time>
      </trkpt>
      <trkpt lat="43.40669" lon="6.65726">
        <ele>232.5</ele>
        <time>2025-01-19T12:46:02Z</time>
      </trkpt>
      <trkpt lat="43.40669" lon="6.65727">
        <ele>232.2</ele>
        <time>2025-01-19T12:46:03Z</time>
      </trkpt>
      <trkpt lat="43.40669" lon="6.65728">
        <ele>232.1</ele>
        <time>2025-01-19T12:46:04Z</time>
      </trkpt>
      <trkpt lat="43.40669" lon="6.65729">
        <ele>231.8</ele>
        <time>2025-01-19T12:46:05Z</time>
      </trkpt>
      <trkpt lat="43.4067" lon="6.6573">
        <ele>231.5</ele>
        <time>2025-01-19T12:46:06Z</time>
      </trkpt>
      <trkpt lat="43.4067" lon="6.65731">
        <ele>231.2</ele>
        <time>2025-01-19T12:46:07Z</time>
      </trkpt>
      <trkpt lat="43.40671" lon="6.65732">
        <ele>231</ele>
        <time>2025-01-19T12:46:08Z</time>
      </trkpt>
      <trkpt lat="43.40671" lon="6.65733">
        <ele>230.8</ele>
        <time>2025-01-19T12:46:09Z</time>
      </trkpt>
      <trkpt lat="43.40672" lon="6.65733">
        <ele>230.5</ele>
        <time>2025-01-19T12:46:10Z</time>
      </trkpt>
      <trkpt lat="43.40672" lon="6.65734">
        <ele>230.4</ele>
        <time>2025-01-19T12:46:11Z</time>
      </trkpt>
      <trkpt lat="43.40672" lon="6.65735">
        <ele>230.2</ele>
        <time>2025-01-19T12:46:12Z</time>
      </trkpt>
      <trkpt lat="43.40672" lon="6.65736">
        <ele>230.1</ele>
        <time>2025-01-19T12:46:13Z</time>
      </trkpt>
      <trkpt lat="43.40672" lon="6.65737">
        <ele>229.8</ele>
        <time>2025-01-19T12:46:14Z</time>
      </trkpt>
      <trkpt lat="43.40672" lon="6.65738">
        <ele>229.6</ele>
        <time>2025-01-19T12:46:15Z</time>
      </trkpt>
      <trkpt lat="43.40673" lon="6.65739">
        <ele>229.3</ele>
        <time>2025-01-19T12:46:16Z</time>
      </trkpt>
      <trkpt lat="43.40673" lon="6.65739">
        <ele>229.1</ele>
        <time>2025-01-19T12:46:17Z</time>
      </trkpt>
      <trkpt lat="43.40673" lon="6.6574">
        <ele>228.8</ele>
        <time>2025-01-19T12:46:18Z</time>
      </trkpt>
      <trkpt lat="43.40673" lon="6.65741">
        <ele>228.6</ele>
        <time>2025-01-19T12:46:19Z</time>
      </trkpt>
      <trkpt lat="43.40673" lon="6.65742">
        <ele>228.4</ele>
        <time>2025-01-19T12:46:20Z</time>
      </trkpt>
      <trkpt lat="43.40673" lon="6.65743">
        <ele>228.2</ele>
        <time>2025-01-19T12:46:21Z</time>
      </trkpt>
      <trkpt lat="43.40673" lon="6.65745">
        <ele>227.9</ele>
        <time>2025-01-19T12:46:22Z</time>
      </trkpt>
      <trkpt lat="43.40672" lon="6.65745">
        <ele>227.7</ele>
        <time>2025-01-19T12:46:23Z</time>
      </trkpt>
      <trkpt lat="43.40672" lon="6.65746">
        <ele>227.5</ele>
        <time>2025-01-19T12:46:24Z</time>
      </trkpt>
      <trkpt lat="43.40671" lon="6.65747">
        <ele>227.3</ele>
        <time>2025-01-19T12:46:25Z</time>
      </trkpt>
      <trkpt lat="43.40671" lon="6.65748">
        <ele>227</ele>
        <time>2025-01-19T12:46:26Z</time>
      </trkpt>
      <trkpt lat="43.4067" lon="6.65749">
        <ele>226.8</ele>
        <time>2025-01-19T12:46:27Z</time>
      </trkpt>
      <trkpt lat="43.40669" lon="6.6575">
        <ele>226.5</ele>
        <time>2025-01-19T12:46:28Z</time>
      </trkpt>
      <trkpt lat="43.40668" lon="6.65751">
        <ele>226.2</ele>
        <time>2025-01-19T12:46:29Z</time>
      </trkpt>
      <trkpt lat="43.40668" lon="6.65753">
        <ele>225.9</ele>
        <time>2025-01-19T12:46:30Z</time>
      </trkpt>
      <trkpt lat="43.40667" lon="6.65755">
        <ele>225.6</ele>
        <time>2025-01-19T12:46:31Z</time>
      </trkpt>
      <trkpt lat="43.40667" lon="6.65756">
        <ele>225.3</ele>
        <time>2025-01-19T12:46:32Z</time>
      </trkpt>
      <trkpt lat="43.40667" lon="6.65758">
        <ele>225</ele>
        <time>2025-01-19T12:46:33Z</time>
      </trkpt>
      <trkpt lat="43.40667" lon="6.65759">
        <ele>224.7</ele>
        <time>2025-01-19T12:46:34Z</time>
      </trkpt>
      <trkpt lat="43.40667" lon="6.6576">
        <ele>224.4</ele>
        <time>2025-01-19T12:46:35Z</time>
      </trkpt>
      <trkpt lat="43.40665" lon="6.65761">
        <ele>224.2</ele>
        <time>2025-01-19T12:46:36Z</time>
      </trkpt>
      <trkpt lat="43.40665" lon="6.65762">
        <ele>223.8</ele>
        <time>2025-01-19T12:46:37Z</time>
      </trkpt>
      <trkpt lat="43.40664" lon="6.65763">
        <ele>223.5</ele>
        <time>2025-01-19T12:46:38Z</time>
      </trkpt>
      <trkpt lat="43.40664" lon="6.65764">
        <ele>223.1</ele>
        <time>2025-01-19T12:46:39Z</time>
      </trkpt>
      <trkpt lat="43.40664" lon="6.65764">
        <ele>222.8</ele>
        <time>2025-01-19T12:46:40Z</time>
      </trkpt>
      <trkpt lat="43.40664" lon="6.65766">
        <ele>222.4</ele>
        <time>2025-01-19T12:46:41Z</time>
      </trkpt>
      <trkpt lat="43.40664" lon="6.65768">
        <ele>222</ele>
        <time>2025-01-19T12:46:42Z</time>
      </trkpt>
      <trkpt lat="43.40663" lon="6.6577">
        <ele>221.6</ele>
        <time>2025-01-19T12:46:43Z</time>
      </trkpt>
      <trkpt lat="43.40663" lon="6.65772">
        <ele>221.2</ele>
        <time>2025-01-19T12:46:44Z</time>
      </trkpt>
      <trkpt lat="43.40662" lon="6.65775">
        <ele>220.7</ele>
        <time>2025-01-19T12:46:45Z</time>
      </trkpt>
      <trkpt lat="43.40663" lon="6.65776">
        <ele>220.2</ele>
        <time>2025-01-19T12:46:46Z</time>
      </trkpt>
      <trkpt lat="43.40664" lon="6.65778">
        <ele>219.8</ele>
        <time>2025-01-19T12:46:47Z</time>
      </trkpt>
      <trkpt lat="43.40664" lon="6.65779">
        <ele>219.4</ele>
        <time>2025-01-19T12:46:48Z</time>
      </trkpt>
      <trkpt lat="43.40664" lon="6.65781">
        <ele>219</ele>
        <time>2025-01-19T12:46:49Z</time>
      </trkpt>
      <trkpt lat="43.40665" lon="6.65783">
        <ele>218.8</ele>
        <time>2025-01-19T12:46:50Z</time>
      </trkpt>
      <trkpt lat="43.40665" lon="6.65785">
        <ele>218.5</ele>
        <time>2025-01-19T12:46:51Z</time>
      </trkpt>
      <trkpt lat="43.40665" lon="6.65786">
        <ele>218.3</ele>
        <time>2025-01-19T12:46:52Z</time>
      </trkpt>
      <trkpt lat="43.40666" lon="6.65788">
        <ele>218.1</ele>
        <time>2025-01-19T12:46:53Z</time>
      </trkpt>
      <trkpt lat="43.40666" lon="6.65788">
        <ele>217.9</ele>
        <time>2025-01-19T12:46:54Z</time>
      </trkpt>
      <trkpt lat="43.40666" lon="6.65789">
        <ele>217.7</ele>
        <time>2025-01-19T12:46:55Z</time>
      </trkpt>
      <trkpt lat="43.40666" lon="6.65789">
        <ele>217.5</ele>
        <time>2025-01-19T12:46:56Z</time>
      </trkpt>
      <trkpt lat="43.40666" lon="6.65789">
        <ele>217.4</ele>
        <time>2025-01-19T12:46:57Z</time>
      </trkpt>
      <trkpt lat="43.40666" lon="6.6579">
        <ele>217.3</ele>
        <time>2025-01-19T12:46:58Z</time>
      </trkpt>
      <trkpt lat="43.40666" lon="6.6579">
        <ele>217.3</ele>
        <time>2025-01-19T12:46:59Z</time>
      </trkpt>
      <trkpt lat="43.40666" lon="6.6579">
        <ele>217.2</ele>
        <time>2025-01-19T12:47:00Z</time>
      </trkpt>
      <trkpt lat="43.40666" lon="6.6579">
        <ele>217.1</ele>
        <time>2025-01-19T12:47:01Z</time>
      </trkpt>
      <trkpt lat="43.40666" lon="6.6579">
        <ele>217</ele>
        <time>2025-01-19T12:47:02Z</time>
      </trkpt>
      <trkpt lat="43.40666" lon="6.65791">
        <ele>217</ele>
        <time>2025-01-19T12:47:03Z</time>
      </trkpt>
      <trkpt lat="43.40667" lon="6.65792">
        <ele>217</ele>
        <time>2025-01-19T12:47:04Z</time>
      </trkpt>
      <trkpt lat="43.40668" lon="6.65792">
        <ele>216.9</ele>
        <time>2025-01-19T12:47:05Z</time>
      </trkpt>
      <trkpt lat="43.40668" lon="6.65792">
        <ele>216.9</ele>
        <time>2025-01-19T12:47:06Z</time>
      </trkpt>
      <trkpt lat="43.40669" lon="6.65794">
        <ele>216.9</ele>
        <time>2025-01-19T12:47:07Z</time>
      </trkpt>
      <trkpt lat="43.40669" lon="6.65794">
        <ele>216.8</ele>
        <time>2025-01-19T12:47:08Z</time>
      </trkpt>
      <trkpt lat="43.40669" lon="6.65795">
        <ele>216.8</ele>
        <time>2025-01-19T12:47:09Z</time>
      </trkpt>
      <trkpt lat="43.4067" lon="6.65796">
        <ele>216.8</ele>
        <time>2025-01-19T12:47:10Z</time>
      </trkpt>
      <trkpt lat="43.4067" lon="6.65796">
        <ele>216.9</ele>
        <time>2025-01-19T12:47:11Z</time>
      </trkpt>
      <trkpt lat="43.40671" lon="6.65797">
        <ele>216.9</ele>
        <time>2025-01-19T12:47:12Z</time>
      </trkpt>
      <trkpt lat="43.40672" lon="6.65798">
        <ele>216.9</ele>
        <time>2025-01-19T12:47:13Z</time>
      </trkpt>
      <trkpt lat="43.40672" lon="6.65799">
        <ele>216.8</ele>
        <time>2025-01-19T12:47:14Z</time>
      </trkpt>
      <trkpt lat="43.40673" lon="6.65799">
        <ele>216.7</ele>
        <time>2025-01-19T12:47:15Z</time>
      </trkpt>
      <trkpt lat="43.40674" lon="6.658">
        <ele>216.7</ele>
        <time>2025-01-19T12:47:16Z</time>
      </trkpt>
      <trkpt lat="43.40675" lon="6.65801">
        <ele>216.6</ele>
        <time>2025-01-19T12:47:17Z</time>
      </trkpt>
      <trkpt lat="43.40675" lon="6.65801">
        <ele>216.5</ele>
        <time>2025-01-19T12:47:18Z</time>
      </trkpt>
      <trkpt lat="43.40676" lon="6.65802">
        <ele>216.5</ele>
        <time>2025-01-19T12:47:19Z</time>
      </trkpt>
      <trkpt lat="43.40677" lon="6.65803">
        <ele>216.3</ele>
        <time>2025-01-19T12:47:20Z</time>
      </trkpt>
      <trkpt lat="43.40678" lon="6.65804">
        <ele>216.1</ele>
        <time>2025-01-19T12:47:21Z</time>
      </trkpt>
      <trkpt lat="43.40678" lon="6.65805">
        <ele>215.9</ele>
        <time>2025-01-19T12:47:22Z</time>
      </trkpt>
      <trkpt lat="43.40679" lon="6.65806">
        <ele>215.8</ele>
        <time>2025-01-19T12:47:23Z</time>
      </trkpt>
      <trkpt lat="43.4068" lon="6.65807">
        <ele>215.6</ele>
        <time>2025-01-19T12:47:24Z</time>
      </trkpt>
      <trkpt lat="43.40681" lon="6.65807">
        <ele>215.4</ele>
        <time>2025-01-19T12:47:25Z</time>
      </trkpt>
      <trkpt lat="43.40681" lon="6.65808">
        <ele>215.3</ele>
        <time>2025-01-19T12:47:26Z</time>
      </trkpt>
      <trkpt lat="43.40682" lon="6.65809">
        <ele>215.2</ele>
        <time>2025-01-19T12:47:27Z</time>
      </trkpt>
      <trkpt lat="43.40682" lon="6.65809">
        <ele>215.1</ele>
        <time>2025-01-19T12:47:28Z</time>
      </trkpt>
      <trkpt lat="43.40683" lon="6.6581">
        <ele>215</ele>
        <time>2025-01-19T12:47:29Z</time>
      </trkpt>
      <trkpt lat="43.40684" lon="6.65811">
        <ele>214.8</ele>
        <time>2025-01-19T12:47:30Z</time>
      </trkpt>
      <trkpt lat="43.40685" lon="6.65811">
        <ele>214.7</ele>
        <time>2025-01-19T12:47:31Z</time>
      </trkpt>
      <trkpt lat="43.40685" lon="6.65812">
        <ele>214.6</ele>
        <time>2025-01-19T12:47:32Z</time>
      </trkpt>
      <trkpt lat="43.40686" lon="6.65813">
        <ele>214.3</ele>
        <time>2025-01-19T12:47:33Z</time>
      </trkpt>
      <trkpt lat="43.40686" lon="6.65814">
        <ele>214.2</ele>
        <time>2025-01-19T12:47:34Z</time>
      </trkpt>
      <trkpt lat="43.40687" lon="6.65814">
        <ele>214</ele>
        <time>2025-01-19T12:47:35Z</time>
      </trkpt>
      <trkpt lat="43.40687" lon="6.65815">
        <ele>213.8</ele>
        <time>2025-01-19T12:47:36Z</time>
      </trkpt>
      <trkpt lat="43.40688" lon="6.65816">
        <ele>213.7</ele>
        <time>2025-01-19T12:47:37Z</time>
      </trkpt>
      <trkpt lat="43.40689" lon="6.65817">
        <ele>213.7</ele>
        <time>2025-01-19T12:47:38Z</time>
      </trkpt>
      <trkpt lat="43.40689" lon="6.65818">
        <ele>213.5</ele>
        <time>2025-01-19T12:47:39Z</time>
      </trkpt>
      <trkpt lat="43.40689" lon="6.65818">
        <ele>213.4</ele>
        <time>2025-01-19T12:47:40Z</time>
      </trkpt>
      <trkpt lat="43.4069" lon="6.65819">
        <ele>213.1</ele>
        <time>2025-01-19T12:47:41Z</time>
      </trkpt>
      <trkpt lat="43.4069" lon="6.6582">
        <ele>212.9</ele>
        <time>2025-01-19T12:47:42Z</time>
      </trkpt>
      <trkpt lat="43.40691" lon="6.6582">
        <ele>212.7</ele>
        <time>2025-01-19T12:47:43Z</time>
      </trkpt>
      <trkpt lat="43.40691" lon="6.6582">
        <ele>212.4</ele>
        <time>2025-01-19T12:47:44Z</time>
      </trkpt>
      <trkpt lat="43.40692" lon="6.65821">
        <ele>212.2</ele>
        <time>2025-01-19T12:47:45Z</time>
      </trkpt>
      <trkpt lat="43.40692" lon="6.65821">
        <ele>211.9</ele>
        <time>2025-01-19T12:47:46Z</time>
      </trkpt>
      <trkpt lat="43.40693" lon="6.65822">
        <ele>211.7</ele>
        <time>2025-01-19T12:47:47Z</time>
      </trkpt>
      <trkpt lat="43.40693" lon="6.65823">
        <ele>211.5</ele>
        <time>2025-01-19T12:47:48Z</time>
      </trkpt>
      <trkpt lat="43.40693" lon="6.65823">
        <ele>211.3</ele>
        <time>2025-01-19T12:47:49Z</time>
      </trkpt>
      <trkpt lat="43.40694" lon="6.65824">
        <ele>211.1</ele>
        <time>2025-01-19T12:47:50Z</time>
      </trkpt>
      <trkpt lat="43.40694" lon="6.65825">
        <ele>210.9</ele>
        <time>2025-01-19T12:47:51Z</time>
      </trkpt>
      <trkpt lat="43.40695" lon="6.65826">
        <ele>210.7</ele>
        <time>2025-01-19T12:47:52Z</time>
      </trkpt>
      <trkpt lat="43.40695" lon="6.65826">
        <ele>210.6</ele>
        <time>2025-01-19T12:47:53Z</time>
      </trkpt>
      <trkpt lat="43.40696" lon="6.65826">
        <ele>210.2</ele>
        <time>2025-01-19T12:47:54Z</time>
      </trkpt>
      <trkpt lat="43.40696" lon="6.65826">
        <ele>210.1</ele>
        <time>2025-01-19T12:47:55Z</time>
      </trkpt>
      <trkpt lat="43.40696" lon="6.65826">
        <ele>209.9</ele>
        <time>2025-01-19T12:47:56Z</time>
      </trkpt>
      <trkpt lat="43.40696" lon="6.65826">
        <ele>209.8</ele>
        <time>2025-01-19T12:47:57Z</time>
      </trkpt>
      <trkpt lat="43.40696" lon="6.65826">
        <ele>209.7</ele>
        <time>2025-01-19T12:47:58Z</time>
      </trkpt>
      <trkpt lat="43.40697" lon="6.65826">
        <ele>209.5</ele>
        <time>2025-01-19T12:47:59Z</time>
      </trkpt>
      <trkpt lat="43.40697" lon="6.65826">
        <ele>209.5</ele>
        <time>2025-01-19T12:48:00Z</time>
      </trkpt>
      <trkpt lat="43.40697" lon="6.65826">
        <ele>209.5</ele>
        <time>2025-01-19T12:48:01Z</time>
      </trkpt>
      <trkpt lat="43.40697" lon="6.65826">
        <ele>209.4</ele>
        <time>2025-01-19T12:48:02Z</time>
      </trkpt>
      <trkpt lat="43.40697" lon="6.65826">
        <ele>209.4</ele>
        <time>2025-01-19T12:48:03Z</time>
      </trkpt>
      <trkpt lat="43.40697" lon="6.65826">
        <ele>209.4</ele>
        <time>2025-01-19T12:48:04Z</time>
      </trkpt>
      <trkpt lat="43.40697" lon="6.65825">
        <ele>209.3</ele>
        <time>2025-01-19T12:48:05Z</time>
      </trkpt>
      <trkpt lat="43.40697" lon="6.65825">
        <ele>209.3</ele>
        <time>2025-01-19T12:48:06Z</time>
      </trkpt>
      <trkpt lat="43.40697" lon="6.65825">
        <ele>209.3</ele>
        <time>2025-01-19T12:48:07Z</time>
      </trkpt>
      <trkpt lat="43.40697" lon="6.65826">
        <ele>209.3</ele>
        <time>2025-01-19T12:48:08Z</time>
      </trkpt>
      <trkpt lat="43.40697" lon="6.65826">
        <ele>209.3</ele>
        <time>2025-01-19T12:48:09Z</time>
      </trkpt>
      <trkpt lat="43.40697" lon="6.65826">
        <ele>209.2</ele>
        <time>2025-01-19T12:48:10Z</time>
      </trkpt>
      <trkpt lat="43.40697" lon="6.65826">
        <ele>209.2</ele>
        <time>2025-01-19T12:48:11Z</time>
      </trkpt>
      <trkpt lat="43.40697" lon="6.65826">
        <ele>209.3</ele>
        <time>2025-01-19T12:48:12Z</time>
      </trkpt>
      <trkpt lat="43.40696" lon="6.65826">
        <ele>209.3</ele>
        <time>2025-01-19T12:48:13Z</time>
      </trkpt>
      <trkpt lat="43.40697" lon="6.65826">
        <ele>209.2</ele>
        <time>2025-01-19T12:48:14Z</time>
      </trkpt>
      <trkpt lat="43.40697" lon="6.65826">
        <ele>209.2</ele>
        <time>2025-01-19T12:48:15Z</time>
      </trkpt>
      <trkpt lat="43.40696" lon="6.65827">
        <ele>209.2</ele>
        <time>2025-01-19T12:48:16Z</time>
      </trkpt>
      <trkpt lat="43.40696" lon="6.65828">
        <ele>209.1</ele>
        <time>2025-01-19T12:48:17Z</time>
      </trkpt>
      <trkpt lat="43.40697" lon="6.65828">
        <ele>209</ele>
        <time>2025-01-19T12:48:18Z</time>
      </trkpt>
      <trkpt lat="43.40697" lon="6.65829">
        <ele>208.9</ele>
        <time>2025-01-19T12:48:19Z</time>
      </trkpt>
      <trkpt lat="43.40698" lon="6.6583">
        <ele>208.8</ele>
        <time>2025-01-19T12:48:20Z</time>
      </trkpt>
      <trkpt lat="43.40698" lon="6.65831">
        <ele>208.8</ele>
        <time>2025-01-19T12:48:21Z</time>
      </trkpt>
      <trkpt lat="43.40698" lon="6.65831">
        <ele>208.7</ele>
        <time>2025-01-19T12:48:22Z</time>
      </trkpt>
      <trkpt lat="43.40698" lon="6.65832">
        <ele>208.6</ele>
        <time>2025-01-19T12:48:23Z</time>
      </trkpt>
      <trkpt lat="43.40698" lon="6.65832">
        <ele>208.5</ele>
        <time>2025-01-19T12:48:24Z</time>
      </trkpt>
      <trkpt lat="43.40699" lon="6.65832">
        <ele>208.3</ele>
        <time>2025-01-19T12:48:25Z</time>
      </trkpt>
      <trkpt lat="43.40698" lon="6.65832">
        <ele>208.2</ele>
        <time>2025-01-19T12:48:26Z</time>
      </trkpt>
      <trkpt lat="43.40698" lon="6.65832">
        <ele>208.1</ele>
        <time>2025-01-19T12:48:27Z</time>
      </trkpt>
      <trkpt lat="43.40698" lon="6.65832">
        <ele>208</ele>
        <time>2025-01-19T12:48:28Z</time>
      </trkpt>
      <trkpt lat="43.40699" lon="6.65832">
        <ele>208</ele>
        <time>2025-01-19T12:48:29Z</time>
      </trkpt>
      <trkpt lat="43.40699" lon="6.65832">
        <ele>207.9</ele>
        <time>2025-01-19T12:48:30Z</time>
      </trkpt>
      <trkpt lat="43.40699" lon="6.65832">
        <ele>207.9</ele>
        <time>2025-01-19T12:48:31Z</time>
      </trkpt>
      <trkpt lat="43.40699" lon="6.65832">
        <ele>207.8</ele>
        <time>2025-01-19T12:48:32Z</time>
      </trkpt>
      <trkpt lat="43.40699" lon="6.65832">
        <ele>207.7</ele>
        <time>2025-01-19T12:48:33Z</time>
      </trkpt>
      <trkpt lat="43.40699" lon="6.65832">
        <ele>207.6</ele>
        <time>2025-01-19T12:48:34Z</time>
      </trkpt>
      <trkpt lat="43.40699" lon="6.65833">
        <ele>207.7</ele>
        <time>2025-01-19T12:48:35Z</time>
      </trkpt>
      <trkpt lat="43.40699" lon="6.65833">
        <ele>207.7</ele>
        <time>2025-01-19T12:48:36Z</time>
      </trkpt>
      <trkpt lat="43.40699" lon="6.65833">
        <ele>207.8</ele>
        <time>2025-01-19T12:48:37Z</time>
      </trkpt>
      <trkpt lat="43.40699" lon="6.65833">
        <ele>207.8</ele>
        <time>2025-01-19T12:48:38Z</time>
      </trkpt>
      <trkpt lat="43.40698" lon="6.65833">
        <ele>207.8</ele>
        <time>2025-01-19T12:48:39Z</time>
      </trkpt>
      <trkpt lat="43.40699" lon="6.65832">
        <ele>207.8</ele>
        <time>2025-01-19T12:48:40Z</time>
      </trkpt>
      <trkpt lat="43.40699" lon="6.65833">
        <ele>207.7</ele>
        <time>2025-01-19T12:48:41Z</time>
      </trkpt>
      <trkpt lat="43.40699" lon="6.65833">
        <ele>207.8</ele>
        <time>2025-01-19T12:48:42Z</time>
      </trkpt>
      <trkpt lat="43.40699" lon="6.65833">
        <ele>207.8</ele>
        <time>2025-01-19T12:48:43Z</time>
      </trkpt>
      <trkpt lat="43.40699" lon="6.65833">
        <ele>207.8</ele>
        <time>2025-01-19T12:48:44Z</time>
      </trkpt>
      <trkpt lat="43.40699" lon="6.65833">
        <ele>207.8</ele>
        <time>2025-01-19T12:48:45Z</time>
      </trkpt>
      <trkpt lat="43.40698" lon="6.65834">
        <ele>207.7</ele>
        <time>2025-01-19T12:48:46Z</time>
      </trkpt>
      <trkpt lat="43.40698" lon="6.65834">
        <ele>207.6</ele>
        <time>2025-01-19T12:48:47Z</time>
      </trkpt>
      <trkpt lat="43.40698" lon="6.65835">
        <ele>207.5</ele>
        <time>2025-01-19T12:48:48Z</time>
      </trkpt>
      <trkpt lat="43.40698" lon="6.65836">
        <ele>207.5</ele>
        <time>2025-01-19T12:48:49Z</time>
      </trkpt>
      <trkpt lat="43.40698" lon="6.65837">
        <ele>207.3</ele>
        <time>2025-01-19T12:48:50Z</time>
      </trkpt>
      <trkpt lat="43.40698" lon="6.65838">
        <ele>207.2</ele>
        <time>2025-01-19T12:48:51Z</time>
      </trkpt>
      <trkpt lat="43.40699" lon="6.6584">
        <ele>207</ele>
        <time>2025-01-19T12:48:52Z</time>
      </trkpt>
      <trkpt lat="43.40699" lon="6.65841">
        <ele>206.7</ele>
        <time>2025-01-19T12:48:53Z</time>
      </trkpt>
      <trkpt lat="43.40699" lon="6.65842">
        <ele>206.4</ele>
        <time>2025-01-19T12:48:54Z</time>
      </trkpt>
      <trkpt lat="43.40699" lon="6.65843">
        <ele>206.2</ele>
        <time>2025-01-19T12:48:55Z</time>
      </trkpt>
      <trkpt lat="43.40699" lon="6.65844">
        <ele>206.1</ele>
        <time>2025-01-19T12:48:56Z</time>
      </trkpt>
      <trkpt lat="43.40699" lon="6.65845">
        <ele>205.9</ele>
        <time>2025-01-19T12:48:57Z</time>
      </trkpt>
      <trkpt lat="43.40699" lon="6.65846">
        <ele>205.7</ele>
        <time>2025-01-19T12:48:58Z</time>
      </trkpt>
      <trkpt lat="43.407" lon="6.65847">
        <ele>205.5</ele>
        <time>2025-01-19T12:48:59Z</time>
      </trkpt>
      <trkpt lat="43.407" lon="6.65848">
        <ele>205.3</ele>
        <time>2025-01-19T12:49:00Z</time>
      </trkpt>
      <trkpt lat="43.407" lon="6.65849">
        <ele>205.1</ele>
        <time>2025-01-19T12:49:01Z</time>
      </trkpt>
      <trkpt lat="43.407" lon="6.6585">
        <ele>204.9</ele>
        <time>2025-01-19T12:49:02Z</time>
      </trkpt>
      <trkpt lat="43.40701" lon="6.65852">
        <ele>204.8</ele>
        <time>2025-01-19T12:49:03Z</time>
      </trkpt>
      <trkpt lat="43.40701" lon="6.65853">
        <ele>204.6</ele>
        <time>2025-01-19T12:49:04Z</time>
      </trkpt>
      <trkpt lat="43.40701" lon="6.65854">
        <ele>204.4</ele>
        <time>2025-01-19T12:49:05Z</time>
      </trkpt>
      <trkpt lat="43.40702" lon="6.65855">
        <ele>204.2</ele>
        <time>2025-01-19T12:49:06Z</time>
      </trkpt>
      <trkpt lat="43.40702" lon="6.65857">
        <ele>204.1</ele>
        <time>2025-01-19T12:49:07Z</time>
      </trkpt>
      <trkpt lat="43.40702" lon="6.65858">
        <ele>203.8</ele>
        <time>2025-01-19T12:49:08Z</time>
      </trkpt>
      <trkpt lat="43.40703" lon="6.65859">
        <ele>203.7</ele>
        <time>2025-01-19T12:49:09Z</time>
      </trkpt>
      <trkpt lat="43.40703" lon="6.6586">
        <ele>203.5</ele>
        <time>2025-01-19T12:49:10Z</time>
      </trkpt>
      <trkpt lat="43.40704" lon="6.65862">
        <ele>203.3</ele>
        <time>2025-01-19T12:49:11Z</time>
      </trkpt>
      <trkpt lat="43.40704" lon="6.65863">
        <ele>203.1</ele>
        <time>2025-01-19T12:49:12Z</time>
      </trkpt>
      <trkpt lat="43.40705" lon="6.65864">
        <ele>202.9</ele>
        <time>2025-01-19T12:49:13Z</time>
      </trkpt>
      <trkpt lat="43.40705" lon="6.65865">
        <ele>202.8</ele>
        <time>2025-01-19T12:49:14Z</time>
      </trkpt>
      <trkpt lat="43.40706" lon="6.65866">
        <ele>202.6</ele>
        <time>2025-01-19T12:49:15Z</time>
      </trkpt>
      <trkpt lat="43.40707" lon="6.65867">
        <ele>202.4</ele>
        <time>2025-01-19T12:49:16Z</time>
      </trkpt>
      <trkpt lat="43.40707" lon="6.65868">
        <ele>202.2</ele>
        <time>2025-01-19T12:49:17Z</time>
      </trkpt>
      <trkpt lat="43.40708" lon="6.65869">
        <ele>202.1</ele>
        <time>2025-01-19T12:49:18Z</time>
      </trkpt>
      <trkpt lat="43.40708" lon="6.6587">
        <ele>202</ele>
        <time>2025-01-19T12:49:19Z</time>
      </trkpt>
      <trkpt lat="43.40709" lon="6.65871">
        <ele>201.8</ele>
        <time>2025-01-19T12:49:20Z</time>
      </trkpt>
      <trkpt lat="43.40709" lon="6.65872">
        <ele>201.6</ele>
        <time>2025-01-19T12:49:21Z</time>
      </trkpt>
      <trkpt lat="43.4071" lon="6.65873">
        <ele>201.5</ele>
        <time>2025-01-19T12:49:22Z</time>
      </trkpt>
      <trkpt lat="43.4071" lon="6.65874">
        <ele>201.4</ele>
        <time>2025-01-19T12:49:23Z</time>
      </trkpt>
      <trkpt lat="43.4071" lon="6.65875">
        <ele>201.3</ele>
        <time>2025-01-19T12:49:24Z</time>
      </trkpt>
      <trkpt lat="43.40711" lon="6.65876">
        <ele>201.1</ele>
        <time>2025-01-19T12:49:25Z</time>
      </trkpt>
      <trkpt lat="43.40711" lon="6.65877">
        <ele>201</ele>
        <time>2025-01-19T12:49:26Z</time>
      </trkpt>
      <trkpt lat="43.40711" lon="6.65878">
        <ele>200.8</ele>
        <time>2025-01-19T12:49:27Z</time>
      </trkpt>
      <trkpt lat="43.40712" lon="6.65879">
        <ele>200.7</ele>
        <time>2025-01-19T12:49:28Z</time>
      </trkpt>
      <trkpt lat="43.40712" lon="6.6588">
        <ele>200.5</ele>
        <time>2025-01-19T12:49:29Z</time>
      </trkpt>
      <trkpt lat="43.40713" lon="6.65881">
        <ele>200.3</ele>
        <time>2025-01-19T12:49:30Z</time>
      </trkpt>
      <trkpt lat="43.40713" lon="6.65882">
        <ele>200.2</ele>
        <time>2025-01-19T12:49:31Z</time>
      </trkpt>
      <trkpt lat="43.40714" lon="6.65883">
        <ele>199.9</ele>
        <time>2025-01-19T12:49:32Z</time>
      </trkpt>
      <trkpt lat="43.40713" lon="6.65884">
        <ele>199.7</ele>
        <time>2025-01-19T12:49:33Z</time>
      </trkpt>
      <trkpt lat="43.40714" lon="6.65885">
        <ele>199.5</ele>
        <time>2025-01-19T12:49:34Z</time>
      </trkpt>
      <trkpt lat="43.40714" lon="6.65886">
        <ele>199.4</ele>
        <time>2025-01-19T12:49:35Z</time>
      </trkpt>
      <trkpt lat="43.40714" lon="6.65887">
        <ele>199.2</ele>
        <time>2025-01-19T12:49:36Z</time>
      </trkpt>
      <trkpt lat="43.40714" lon="6.65888">
        <ele>198.9</ele>
        <time>2025-01-19T12:49:37Z</time>
      </trkpt>
      <trkpt lat="43.40714" lon="6.65889">
        <ele>198.7</ele>
        <time>2025-01-19T12:49:38Z</time>
      </trkpt>
      <trkpt lat="43.40714" lon="6.65891">
        <ele>198.5</ele>
        <time>2025-01-19T12:49:39Z</time>
      </trkpt>
      <trkpt lat="43.40715" lon="6.65892">
        <ele>198.3</ele>
        <time>2025-01-19T12:49:40Z</time>
      </trkpt>
      <trkpt lat="43.40715" lon="6.65893">
        <ele>198.2</ele>
        <time>2025-01-19T12:49:41Z</time>
      </trkpt>
      <trkpt lat="43.40715" lon="6.65894">
        <ele>198</ele>
        <time>2025-01-19T12:49:42Z</time>
      </trkpt>
      <trkpt lat="43.40714" lon="6.65895">
        <ele>197.8</ele>
        <time>2025-01-19T12:49:43Z</time>
      </trkpt>
      <trkpt lat="43.40714" lon="6.65896">
        <ele>197.6</ele>
        <time>2025-01-19T12:49:44Z</time>
      </trkpt>
      <trkpt lat="43.40714" lon="6.65898">
        <ele>197.4</ele>
        <time>2025-01-19T12:49:45Z</time>
      </trkpt>
      <trkpt lat="43.40714" lon="6.65899">
        <ele>197</ele>
        <time>2025-01-19T12:49:46Z</time>
      </trkpt>
      <trkpt lat="43.40714" lon="6.659">
        <ele>196.8</ele>
        <time>2025-01-19T12:49:47Z</time>
      </trkpt>
      <trkpt lat="43.40713" lon="6.65901">
        <ele>196.6</ele>
        <time>2025-01-19T12:49:48Z</time>
      </trkpt>
      <trkpt lat="43.40713" lon="6.65903">
        <ele>196.4</ele>
        <time>2025-01-19T12:49:49Z</time>
      </trkpt>
      <trkpt lat="43.40713" lon="6.65904">
        <ele>196.3</ele>
        <time>2025-01-19T12:49:50Z</time>
      </trkpt>
      <trkpt lat="43.40712" lon="6.65905">
        <ele>196</ele>
        <time>2025-01-19T12:49:51Z</time>
      </trkpt>
      <trkpt lat="43.40712" lon="6.65906">
        <ele>195.9</ele>
        <time>2025-01-19T12:49:52Z</time>
      </trkpt>
      <trkpt lat="43.40712" lon="6.65907">
        <ele>195.7</ele>
        <time>2025-01-19T12:49:53Z</time>
      </trkpt>
      <trkpt lat="43.40711" lon="6.65909">
        <ele>195.6</ele>
        <time>2025-01-19T12:49:54Z</time>
      </trkpt>
      <trkpt lat="43.40711" lon="6.6591">
        <ele>195.4</ele>
        <time>2025-01-19T12:49:55Z</time>
      </trkpt>
      <trkpt lat="43.40711" lon="6.65912">
        <ele>195.3</ele>
        <time>2025-01-19T12:49:56Z</time>
      </trkpt>
      <trkpt lat="43.40711" lon="6.65913">
        <ele>195.1</ele>
        <time>2025-01-19T12:49:57Z</time>
      </trkpt>
      <trkpt lat="43.40711" lon="6.65914">
        <ele>194.9</ele>
        <time>2025-01-19T12:49:58Z</time>
      </trkpt>
      <trkpt lat="43.40711" lon="6.65916">
        <ele>194.8</ele>
        <time>2025-01-19T12:49:59Z</time>
      </trkpt>
      <trkpt lat="43.40711" lon="6.65917">
        <ele>194.7</ele>
        <time>2025-01-19T12:50:00Z</time>
      </trkpt>
      <trkpt lat="43.40711" lon="6.65918">
        <ele>194.5</ele>
        <time>2025-01-19T12:50:01Z</time>
      </trkpt>
      <trkpt lat="43.40711" lon="6.65919">
        <ele>194.3</ele>
        <time>2025-01-19T12:50:02Z</time>
      </trkpt>
      <trkpt lat="43.40711" lon="6.6592">
        <ele>194.1</ele>
        <time>2025-01-19T12:50:03Z</time>
      </trkpt>
      <trkpt lat="43.40711" lon="6.65922">
        <ele>194</ele>
        <time>2025-01-19T12:50:04Z</time>
      </trkpt>
      <trkpt lat="43.40712" lon="6.65923">
        <ele>193.9</ele>
        <time>2025-01-19T12:50:05Z</time>
      </trkpt>
      <trkpt lat="43.40712" lon="6.65924">
        <ele>193.8</ele>
        <time>2025-01-19T12:50:06Z</time>
      </trkpt>
      <trkpt lat="43.40712" lon="6.65926">
        <ele>193.7</ele>
        <time>2025-01-19T12:50:07Z</time>
      </trkpt>
      <trkpt lat="43.40712" lon="6.65927">
        <ele>193.6</ele>
        <time>2025-01-19T12:50:08Z</time>
      </trkpt>
      <trkpt lat="43.40712" lon="6.65928">
        <ele>193.4</ele>
        <time>2025-01-19T12:50:09Z</time>
      </trkpt>
      <trkpt lat="43.40712" lon="6.65929">
        <ele>193.3</ele>
        <time>2025-01-19T12:50:10Z</time>
      </trkpt>
      <trkpt lat="43.40712" lon="6.6593">
        <ele>193.2</ele>
        <time>2025-01-19T12:50:11Z</time>
      </trkpt>
      <trkpt lat="43.40713" lon="6.65931">
        <ele>193.1</ele>
        <time>2025-01-19T12:50:12Z</time>
      </trkpt>
      <trkpt lat="43.40713" lon="6.65932">
        <ele>193</ele>
        <time>2025-01-19T12:50:13Z</time>
      </trkpt>
      <trkpt lat="43.40713" lon="6.65933">
        <ele>192.9</ele>
        <time>2025-01-19T12:50:14Z</time>
      </trkpt>
      <trkpt lat="43.40713" lon="6.65934">
        <ele>192.7</ele>
        <time>2025-01-19T12:50:15Z</time>
      </trkpt>
      <trkpt lat="43.40714" lon="6.65935">
        <ele>192.5</ele>
        <time>2025-01-19T12:50:16Z</time>
      </trkpt>
      <trkpt lat="43.40714" lon="6.65936">
        <ele>192.3</ele>
        <time>2025-01-19T12:50:17Z</time>
      </trkpt>
      <trkpt lat="43.40714" lon="6.65937">
        <ele>192.1</ele>
        <time>2025-01-19T12:50:18Z</time>
      </trkpt>
      <trkpt lat="43.40714" lon="6.65938">
        <ele>191.8</ele>
        <time>2025-01-19T12:50:19Z</time>
      </trkpt>
      <trkpt lat="43.40715" lon="6.65939">
        <ele>191.7</ele>
        <time>2025-01-19T12:50:20Z</time>
      </trkpt>
      <trkpt lat="43.40715" lon="6.65939">
        <ele>191.5</ele>
        <time>2025-01-19T12:50:21Z</time>
      </trkpt>
      <trkpt lat="43.40715" lon="6.6594">
        <ele>191.3</ele>
        <time>2025-01-19T12:50:22Z</time>
      </trkpt>
      <trkpt lat="43.40715" lon="6.65941">
        <ele>191.2</ele>
        <time>2025-01-19T12:50:23Z</time>
      </trkpt>
      <trkpt lat="43.40716" lon="6.65942">
        <ele>191</ele>
        <time>2025-01-19T12:50:24Z</time>
      </trkpt>
      <trkpt lat="43.40716" lon="6.65944">
        <ele>190.8</ele>
        <time>2025-01-19T12:50:25Z</time>
      </trkpt>
      <trkpt lat="43.40716" lon="6.65945">
        <ele>190.7</ele>
        <time>2025-01-19T12:50:26Z</time>
      </trkpt>
      <trkpt lat="43.40717" lon="6.65946">
        <ele>190.6</ele>
        <time>2025-01-19T12:50:27Z</time>
      </trkpt>
      <trkpt lat="43.40717" lon="6.65947">
        <ele>190.5</ele>
        <time>2025-01-19T12:50:28Z</time>
      </trkpt>
      <trkpt lat="43.40718" lon="6.65948">
        <ele>190.3</ele>
        <time>2025-01-19T12:50:29Z</time>
      </trkpt>
      <trkpt lat="43.40718" lon="6.65949">
        <ele>190.2</ele>
        <time>2025-01-19T12:50:30Z</time>
      </trkpt>
      <trkpt lat="43.40718" lon="6.6595">
        <ele>189.9</ele>
        <time>2025-01-19T12:50:31Z</time>
      </trkpt>
      <trkpt lat="43.40718" lon="6.65951">
        <ele>189.8</ele>
        <time>2025-01-19T12:50:32Z</time>
      </trkpt>
      <trkpt lat="43.40719" lon="6.65951">
        <ele>189.6</ele>
        <time>2025-01-19T12:50:33Z</time>
      </trkpt>
      <trkpt lat="43.40719" lon="6.65953">
        <ele>189.3</ele>
        <time>2025-01-19T12:50:34Z</time>
      </trkpt>
      <trkpt lat="43.40719" lon="6.65953">
        <ele>189.1</ele>
        <time>2025-01-19T12:50:35Z</time>
      </trkpt>
      <trkpt lat="43.40719" lon="6.65955">
        <ele>188.9</ele>
        <time>2025-01-19T12:50:36Z</time>
      </trkpt>
      <trkpt lat="43.4072" lon="6.65955">
        <ele>188.8</ele>
        <time>2025-01-19T12:50:37Z</time>
      </trkpt>
      <trkpt lat="43.4072" lon="6.65956">
        <ele>188.7</ele>
        <time>2025-01-19T12:50:38Z</time>
      </trkpt>
      <trkpt lat="43.40721" lon="6.65957">
        <ele>188.6</ele>
        <time>2025-01-19T12:50:39Z</time>
      </trkpt>
      <trkpt lat="43.40721" lon="6.65958">
        <ele>188.4</ele>
        <time>2025-01-19T12:50:40Z</time>
      </trkpt>
      <trkpt lat="43.40721" lon="6.65959">
        <ele>188.3</ele>
        <time>2025-01-19T12:50:41Z</time>
      </trkpt>
      <trkpt lat="43.40722" lon="6.6596">
        <ele>188.1</ele>
        <time>2025-01-19T12:50:42Z</time>
      </trkpt>
      <trkpt lat="43.40723" lon="6.6596">
        <ele>187.9</ele>
        <time>2025-01-19T12:50:43Z</time>
      </trkpt>
      <trkpt lat="43.40723" lon="6.65961">
        <ele>187.7</ele>
        <time>2025-01-19T12:50:44Z</time>
      </trkpt>
      <trkpt lat="43.40724" lon="6.65962">
        <ele>187.5</ele>
        <time>2025-01-19T12:50:45Z</time>
      </trkpt>
      <trkpt lat="43.40724" lon="6.65963">
        <ele>187.3</ele>
        <time>2025-01-19T12:50:46Z</time>
      </trkpt>
      <trkpt lat="43.40725" lon="6.65964">
        <ele>187.1</ele>
        <time>2025-01-19T12:50:47Z</time>
      </trkpt>
      <trkpt lat="43.40725" lon="6.65964">
        <ele>186.9</ele>
        <time>2025-01-19T12:50:48Z</time>
      </trkpt>
      <trkpt lat="43.40726" lon="6.65965">
        <ele>186.7</ele>
        <time>2025-01-19T12:50:49Z</time>
      </trkpt>
      <trkpt lat="43.40726" lon="6.65966">
        <ele>186.6</ele>
        <time>2025-01-19T12:50:50Z</time>
      </trkpt>
      <trkpt lat="43.40727" lon="6.65967">
        <ele>186.3</ele>
        <time>2025-01-19T12:50:51Z</time>
      </trkpt>
      <trkpt lat="43.40728" lon="6.65968">
        <ele>186.1</ele>
        <time>2025-01-19T12:50:52Z</time>
      </trkpt>
      <trkpt lat="43.40728" lon="6.65968">
        <ele>186</ele>
        <time>2025-01-19T12:50:53Z</time>
      </trkpt>
      <trkpt lat="43.40729" lon="6.65969">
        <ele>185.8</ele>
        <time>2025-01-19T12:50:54Z</time>
      </trkpt>
      <trkpt lat="43.40729" lon="6.6597">
        <ele>185.5</ele>
        <time>2025-01-19T12:50:55Z</time>
      </trkpt>
      <trkpt lat="43.4073" lon="6.65971">
        <ele>185.3</ele>
        <time>2025-01-19T12:50:56Z</time>
      </trkpt>
      <trkpt lat="43.4073" lon="6.65972">
        <ele>185.1</ele>
        <time>2025-01-19T12:50:57Z</time>
      </trkpt>
      <trkpt lat="43.40731" lon="6.65973">
        <ele>185</ele>
        <time>2025-01-19T12:50:58Z</time>
      </trkpt>
      <trkpt lat="43.40731" lon="6.65974">
        <ele>184.8</ele>
        <time>2025-01-19T12:50:59Z</time>
      </trkpt>
      <trkpt lat="43.40732" lon="6.65975">
        <ele>184.7</ele>
        <time>2025-01-19T12:51:00Z</time>
      </trkpt>
      <trkpt lat="43.40732" lon="6.65976">
        <ele>184.5</ele>
        <time>2025-01-19T12:51:01Z</time>
      </trkpt>
      <trkpt lat="43.40733" lon="6.65977">
        <ele>184.3</ele>
        <time>2025-01-19T12:51:02Z</time>
      </trkpt>
      <trkpt lat="43.40733" lon="6.65978">
        <ele>184.1</ele>
        <time>2025-01-19T12:51:03Z</time>
      </trkpt>
      <trkpt lat="43.40734" lon="6.6598">
        <ele>183.9</ele>
        <time>2025-01-19T12:51:04Z</time>
      </trkpt>
      <trkpt lat="43.40734" lon="6.65981">
        <ele>183.7</ele>
        <time>2025-01-19T12:51:05Z</time>
      </trkpt>
      <trkpt lat="43.40734" lon="6.65982">
        <ele>183.5</ele>
        <time>2025-01-19T12:51:06Z</time>
      </trkpt>
      <trkpt lat="43.40734" lon="6.65983">
        <ele>183.3</ele>
        <time>2025-01-19T12:51:07Z</time>
      </trkpt>
      <trkpt lat="43.40734" lon="6.65984">
        <ele>183.2</ele>
        <time>2025-01-19T12:51:08Z</time>
      </trkpt>
      <trkpt lat="43.40735" lon="6.65985">
        <ele>183</ele>
        <time>2025-01-19T12:51:09Z</time>
      </trkpt>
      <trkpt lat="43.40735" lon="6.65986">
        <ele>182.9</ele>
        <time>2025-01-19T12:51:10Z</time>
      </trkpt>
      <trkpt lat="43.40735" lon="6.65987">
        <ele>182.7</ele>
        <time>2025-01-19T12:51:11Z</time>
      </trkpt>
      <trkpt lat="43.40735" lon="6.65988">
        <ele>182.5</ele>
        <time>2025-01-19T12:51:12Z</time>
      </trkpt>
      <trkpt lat="43.40736" lon="6.65989">
        <ele>182.4</ele>
        <time>2025-01-19T12:51:13Z</time>
      </trkpt>
      <trkpt lat="43.40736" lon="6.6599">
        <ele>182.2</ele>
        <time>2025-01-19T12:51:14Z</time>
      </trkpt>
      <trkpt lat="43.40736" lon="6.65991">
        <ele>182</ele>
        <time>2025-01-19T12:51:15Z</time>
      </trkpt>
      <trkpt lat="43.40736" lon="6.65993">
        <ele>181.8</ele>
        <time>2025-01-19T12:51:16Z</time>
      </trkpt>
      <trkpt lat="43.40737" lon="6.65994">
        <ele>181.6</ele>
        <time>2025-01-19T12:51:17Z</time>
      </trkpt>
      <trkpt lat="43.40737" lon="6.65995">
        <ele>181.4</ele>
        <time>2025-01-19T12:51:18Z</time>
      </trkpt>
      <trkpt lat="43.40737" lon="6.65996">
        <ele>181.3</ele>
        <time>2025-01-19T12:51:19Z</time>
      </trkpt>
      <trkpt lat="43.40737" lon="6.65998">
        <ele>181.1</ele>
        <time>2025-01-19T12:51:20Z</time>
      </trkpt>
      <trkpt lat="43.40737" lon="6.65999">
        <ele>181</ele>
        <time>2025-01-19T12:51:21Z</time>
      </trkpt>
      <trkpt lat="43.40738" lon="6.66">
        <ele>180.9</ele>
        <time>2025-01-19T12:51:22Z</time>
      </trkpt>
      <trkpt lat="43.40738" lon="6.66001">
        <ele>180.7</ele>
        <time>2025-01-19T12:51:23Z</time>
      </trkpt>
      <trkpt lat="43.40738" lon="6.66002">
        <ele>180.6</ele>
        <time>2025-01-19T12:51:24Z</time>
      </trkpt>
      <trkpt lat="43.40737" lon="6.66003">
        <ele>180.5</ele>
        <time>2025-01-19T12:51:25Z</time>
      </trkpt>
      <trkpt lat="43.40737" lon="6.66005">
        <ele>180.3</ele>
        <time>2025-01-19T12:51:26Z</time>
      </trkpt>
      <trkpt lat="43.40737" lon="6.66006">
        <ele>180.2</ele>
        <time>2025-01-19T12:51:27Z</time>
      </trkpt>
      <trkpt lat="43.40737" lon="6.66007">
        <ele>180</ele>
        <time>2025-01-19T12:51:28Z</time>
      </trkpt>
      <trkpt lat="43.40737" lon="6.66008">
        <ele>179.9</ele>
        <time>2025-01-19T12:51:29Z</time>
      </trkpt>
      <trkpt lat="43.40737" lon="6.6601">
        <ele>179.8</ele>
        <time>2025-01-19T12:51:30Z</time>
      </trkpt>
      <trkpt lat="43.40737" lon="6.66011">
        <ele>179.8</ele>
        <time>2025-01-19T12:51:31Z</time>
      </trkpt>
      <trkpt lat="43.40737" lon="6.66012">
        <ele>179.7</ele>
        <time>2025-01-19T12:51:32Z</time>
      </trkpt>
      <trkpt lat="43.40736" lon="6.66013">
        <ele>179.6</ele>
        <time>2025-01-19T12:51:33Z</time>
      </trkpt>
      <trkpt lat="43.40736" lon="6.66015">
        <ele>179.5</ele>
        <time>2025-01-19T12:51:34Z</time>
      </trkpt>
      <trkpt lat="43.40735" lon="6.66016">
        <ele>179.3</ele>
        <time>2025-01-19T12:51:35Z</time>
      </trkpt>
      <trkpt lat="43.40735" lon="6.66017">
        <ele>179.2</ele>
        <time>2025-01-19T12:51:36Z</time>
      </trkpt>
      <trkpt lat="43.40735" lon="6.66018">
        <ele>179.1</ele>
        <time>2025-01-19T12:51:37Z</time>
      </trkpt>
      <trkpt lat="43.40734" lon="6.66019">
        <ele>179</ele>
        <time>2025-01-19T12:51:38Z</time>
      </trkpt>
      <trkpt lat="43.40734" lon="6.66021">
        <ele>178.8</ele>
        <time>2025-01-19T12:51:39Z</time>
      </trkpt>
      <trkpt lat="43.40734" lon="6.66021">
        <ele>178.6</ele>
        <time>2025-01-19T12:51:40Z</time>
      </trkpt>
      <trkpt lat="43.40733" lon="6.66022">
        <ele>178.5</ele>
        <time>2025-01-19T12:51:41Z</time>
      </trkpt>
      <trkpt lat="43.40733" lon="6.66024">
        <ele>178.4</ele>
        <time>2025-01-19T12:51:42Z</time>
      </trkpt>
      <trkpt lat="43.40732" lon="6.66025">
        <ele>178.3</ele>
        <time>2025-01-19T12:51:43Z</time>
      </trkpt>
      <trkpt lat="43.40732" lon="6.66027">
        <ele>178.1</ele>
        <time>2025-01-19T12:51:44Z</time>
      </trkpt>
      <trkpt lat="43.40731" lon="6.66028">
        <ele>178</ele>
        <time>2025-01-19T12:51:45Z</time>
      </trkpt>
      <trkpt lat="43.40731" lon="6.66029">
        <ele>177.9</ele>
        <time>2025-01-19T12:51:46Z</time>
      </trkpt>
      <trkpt lat="43.40731" lon="6.6603">
        <ele>177.7</ele>
        <time>2025-01-19T12:51:47Z</time>
      </trkpt>
      <trkpt lat="43.40731" lon="6.66032">
        <ele>177.6</ele>
        <time>2025-01-19T12:51:48Z</time>
      </trkpt>
      <trkpt lat="43.40731" lon="6.66033">
        <ele>177.6</ele>
        <time>2025-01-19T12:51:49Z</time>
      </trkpt>
      <trkpt lat="43.40731" lon="6.66034">
        <ele>177.4</ele>
        <time>2025-01-19T12:51:50Z</time>
      </trkpt>
      <trkpt lat="43.40731" lon="6.66035">
        <ele>177.3</ele>
        <time>2025-01-19T12:51:51Z</time>
      </trkpt>
      <trkpt lat="43.40731" lon="6.66036">
        <ele>177.2</ele>
        <time>2025-01-19T12:51:52Z</time>
      </trkpt>
      <trkpt lat="43.40731" lon="6.66037">
        <ele>177.1</ele>
        <time>2025-01-19T12:51:53Z</time>
      </trkpt>
      <trkpt lat="43.40731" lon="6.66039">
        <ele>177.1</ele>
        <time>2025-01-19T12:51:54Z</time>
      </trkpt>
      <trkpt lat="43.40731" lon="6.6604">
        <ele>177.1</ele>
        <time>2025-01-19T12:51:55Z</time>
      </trkpt>
      <trkpt lat="43.40731" lon="6.66041">
        <ele>177</ele>
        <time>2025-01-19T12:51:56Z</time>
      </trkpt>
      <trkpt lat="43.40731" lon="6.66042">
        <ele>176.8</ele>
        <time>2025-01-19T12:51:57Z</time>
      </trkpt>
      <trkpt lat="43.40731" lon="6.66044">
        <ele>176.6</ele>
        <time>2025-01-19T12:51:58Z</time>
      </trkpt>
      <trkpt lat="43.40732" lon="6.66045">
        <ele>176.4</ele>
        <time>2025-01-19T12:51:59Z</time>
      </trkpt>
      <trkpt lat="43.40732" lon="6.66046">
        <ele>176.2</ele>
        <time>2025-01-19T12:52:00Z</time>
      </trkpt>
      <trkpt lat="43.40732" lon="6.66047">
        <ele>176</ele>
        <time>2025-01-19T12:52:01Z</time>
      </trkpt>
      <trkpt lat="43.40732" lon="6.66048">
        <ele>175.8</ele>
        <time>2025-01-19T12:52:02Z</time>
      </trkpt>
      <trkpt lat="43.40733" lon="6.66049">
        <ele>175.6</ele>
        <time>2025-01-19T12:52:03Z</time>
      </trkpt>
      <trkpt lat="43.40733" lon="6.66051">
        <ele>175.4</ele>
        <time>2025-01-19T12:52:04Z</time>
      </trkpt>
      <trkpt lat="43.40733" lon="6.66052">
        <ele>175.2</ele>
        <time>2025-01-19T12:52:05Z</time>
      </trkpt>
      <trkpt lat="43.40733" lon="6.66053">
        <ele>175</ele>
        <time>2025-01-19T12:52:06Z</time>
      </trkpt>
      <trkpt lat="43.40734" lon="6.66054">
        <ele>174.7</ele>
        <time>2025-01-19T12:52:07Z</time>
      </trkpt>
      <trkpt lat="43.40734" lon="6.66055">
        <ele>174.6</ele>
        <time>2025-01-19T12:52:08Z</time>
      </trkpt>
      <trkpt lat="43.40734" lon="6.66056">
        <ele>174.4</ele>
        <time>2025-01-19T12:52:09Z</time>
      </trkpt>
      <trkpt lat="43.40735" lon="6.66057">
        <ele>174.3</ele>
        <time>2025-01-19T12:52:10Z</time>
      </trkpt>
      <trkpt lat="43.40735" lon="6.66059">
        <ele>174.2</ele>
        <time>2025-01-19T12:52:11Z</time>
      </trkpt>
      <trkpt lat="43.40735" lon="6.6606">
        <ele>174</ele>
        <time>2025-01-19T12:52:12Z</time>
      </trkpt>
      <trkpt lat="43.40735" lon="6.66062">
        <ele>173.7</ele>
        <time>2025-01-19T12:52:13Z</time>
      </trkpt>
      <trkpt lat="43.40736" lon="6.66063">
        <ele>173.6</ele>
        <time>2025-01-19T12:52:14Z</time>
      </trkpt>
      <trkpt lat="43.40736" lon="6.66064">
        <ele>173.3</ele>
        <time>2025-01-19T12:52:15Z</time>
      </trkpt>
      <trkpt lat="43.40736" lon="6.66066">
        <ele>173.1</ele>
        <time>2025-01-19T12:52:16Z</time>
      </trkpt>
      <trkpt lat="43.40737" lon="6.66067">
        <ele>173</ele>
        <time>2025-01-19T12:52:17Z</time>
      </trkpt>
      <trkpt lat="43.40738" lon="6.66068">
        <ele>172.8</ele>
        <time>2025-01-19T12:52:18Z</time>
      </trkpt>
      <trkpt lat="43.40738" lon="6.66069">
        <ele>172.7</ele>
        <time>2025-01-19T12:52:19Z</time>
      </trkpt>
      <trkpt lat="43.40738" lon="6.66071">
        <ele>172.6</ele>
        <time>2025-01-19T12:52:20Z</time>
      </trkpt>
      <trkpt lat="43.40738" lon="6.66072">
        <ele>172.4</ele>
        <time>2025-01-19T12:52:21Z</time>
      </trkpt>
      <trkpt lat="43.40739" lon="6.66074">
        <ele>172.2</ele>
        <time>2025-01-19T12:52:22Z</time>
      </trkpt>
      <trkpt lat="43.40739" lon="6.66075">
        <ele>172.1</ele>
        <time>2025-01-19T12:52:23Z</time>
      </trkpt>
      <trkpt lat="43.4074" lon="6.66077">
        <ele>171.9</ele>
        <time>2025-01-19T12:52:24Z</time>
      </trkpt>
      <trkpt lat="43.4074" lon="6.66078">
        <ele>171.7</ele>
        <time>2025-01-19T12:52:25Z</time>
      </trkpt>
      <trkpt lat="43.4074" lon="6.66079">
        <ele>171.5</ele>
        <time>2025-01-19T12:52:26Z</time>
      </trkpt>
      <trkpt lat="43.4074" lon="6.6608">
        <ele>171.4</ele>
        <time>2025-01-19T12:52:27Z</time>
      </trkpt>
      <trkpt lat="43.40741" lon="6.66082">
        <ele>171.3</ele>
        <time>2025-01-19T12:52:28Z</time>
      </trkpt>
      <trkpt lat="43.40741" lon="6.66083">
        <ele>171.1</ele>
        <time>2025-01-19T12:52:29Z</time>
      </trkpt>
      <trkpt lat="43.40742" lon="6.66084">
        <ele>171</ele>
        <time>2025-01-19T12:52:30Z</time>
      </trkpt>
      <trkpt lat="43.40742" lon="6.66085">
        <ele>170.8</ele>
        <time>2025-01-19T12:52:31Z</time>
      </trkpt>
      <trkpt lat="43.40743" lon="6.66086">
        <ele>170.7</ele>
        <time>2025-01-19T12:52:32Z</time>
      </trkpt>
      <trkpt lat="43.40743" lon="6.66087">
        <ele>170.6</ele>
        <time>2025-01-19T12:52:33Z</time>
      </trkpt>
      <trkpt lat="43.40743" lon="6.66088">
        <ele>170.5</ele>
        <time>2025-01-19T12:52:34Z</time>
      </trkpt>
      <trkpt lat="43.40743" lon="6.6609">
        <ele>170.3</ele>
        <time>2025-01-19T12:52:35Z</time>
      </trkpt>
      <trkpt lat="43.40744" lon="6.66091">
        <ele>170.1</ele>
        <time>2025-01-19T12:52:36Z</time>
      </trkpt>
      <trkpt lat="43.40744" lon="6.66093">
        <ele>170</ele>
        <time>2025-01-19T12:52:37Z</time>
      </trkpt>
      <trkpt lat="43.40744" lon="6.66094">
        <ele>169.7</ele>
        <time>2025-01-19T12:52:38Z</time>
      </trkpt>
      <trkpt lat="43.40744" lon="6.66096">
        <ele>169.5</ele>
        <time>2025-01-19T12:52:39Z</time>
      </trkpt>
      <trkpt lat="43.40744" lon="6.66097">
        <ele>169.4</ele>
        <time>2025-01-19T12:52:40Z</time>
      </trkpt>
      <trkpt lat="43.40745" lon="6.66098">
        <ele>169.2</ele>
        <time>2025-01-19T12:52:41Z</time>
      </trkpt>
      <trkpt lat="43.40745" lon="6.661">
        <ele>169.1</ele>
        <time>2025-01-19T12:52:42Z</time>
      </trkpt>
      <trkpt lat="43.40745" lon="6.66101">
        <ele>169</ele>
        <time>2025-01-19T12:52:43Z</time>
      </trkpt>
      <trkpt lat="43.40746" lon="6.66102">
        <ele>168.9</ele>
        <time>2025-01-19T12:52:44Z</time>
      </trkpt>
      <trkpt lat="43.40746" lon="6.66104">
        <ele>168.7</ele>
        <time>2025-01-19T12:52:45Z</time>
      </trkpt>
      <trkpt lat="43.40746" lon="6.66105">
        <ele>168.6</ele>
        <time>2025-01-19T12:52:46Z</time>
      </trkpt>
      <trkpt lat="43.40747" lon="6.66107">
        <ele>168.5</ele>
        <time>2025-01-19T12:52:47Z</time>
      </trkpt>
      <trkpt lat="43.40747" lon="6.66108">
        <ele>168.4</ele>
        <time>2025-01-19T12:52:48Z</time>
      </trkpt>
      <trkpt lat="43.40747" lon="6.66109">
        <ele>168.3</ele>
        <time>2025-01-19T12:52:49Z</time>
      </trkpt>
      <trkpt lat="43.40748" lon="6.6611">
        <ele>168.2</ele>
        <time>2025-01-19T12:52:50Z</time>
      </trkpt>
      <trkpt lat="43.40748" lon="6.66111">
        <ele>168.1</ele>
        <time>2025-01-19T12:52:51Z</time>
      </trkpt>
      <trkpt lat="43.40749" lon="6.66113">
        <ele>168</ele>
        <time>2025-01-19T12:52:52Z</time>
      </trkpt>
      <trkpt lat="43.40749" lon="6.66114">
        <ele>167.8</ele>
        <time>2025-01-19T12:52:53Z</time>
      </trkpt>
      <trkpt lat="43.4075" lon="6.66116">
        <ele>167.7</ele>
        <time>2025-01-19T12:52:54Z</time>
      </trkpt>
      <trkpt lat="43.4075" lon="6.66117">
        <ele>167.6</ele>
        <time>2025-01-19T12:52:55Z</time>
      </trkpt>
      <trkpt lat="43.40751" lon="6.66119">
        <ele>167.6</ele>
        <time>2025-01-19T12:52:56Z</time>
      </trkpt>
      <trkpt lat="43.40752" lon="6.6612">
        <ele>167.5</ele>
        <time>2025-01-19T12:52:57Z</time>
      </trkpt>
      <trkpt lat="43.40752" lon="6.66121">
        <ele>167.4</ele>
        <time>2025-01-19T12:52:58Z</time>
      </trkpt>
      <trkpt lat="43.40752" lon="6.66123">
        <ele>167.4</ele>
        <time>2025-01-19T12:52:59Z</time>
      </trkpt>
      <trkpt lat="43.40753" lon="6.66123">
        <ele>167.4</ele>
        <time>2025-01-19T12:53:00Z</time>
      </trkpt>
      <trkpt lat="43.40754" lon="6.66125">
        <ele>167.3</ele>
        <time>2025-01-19T12:53:01Z</time>
      </trkpt>
      <trkpt lat="43.40754" lon="6.66125">
        <ele>167.1</ele>
        <time>2025-01-19T12:53:02Z</time>
      </trkpt>
      <trkpt lat="43.40755" lon="6.66127">
        <ele>167</ele>
        <time>2025-01-19T12:53:03Z</time>
      </trkpt>
      <trkpt lat="43.40755" lon="6.66128">
        <ele>166.9</ele>
        <time>2025-01-19T12:53:04Z</time>
      </trkpt>
      <trkpt lat="43.40756" lon="6.6613">
        <ele>166.8</ele>
        <time>2025-01-19T12:53:05Z</time>
      </trkpt>
      <trkpt lat="43.40756" lon="6.66131">
        <ele>166.7</ele>
        <time>2025-01-19T12:53:06Z</time>
      </trkpt>
      <trkpt lat="43.40756" lon="6.66131">
        <ele>166.6</ele>
        <time>2025-01-19T12:53:07Z</time>
      </trkpt>
      <trkpt lat="43.40757" lon="6.66132">
        <ele>166.5</ele>
        <time>2025-01-19T12:53:08Z</time>
      </trkpt>
      <trkpt lat="43.40757" lon="6.66133">
        <ele>166.4</ele>
        <time>2025-01-19T12:53:09Z</time>
      </trkpt>
      <trkpt lat="43.40757" lon="6.66134">
        <ele>166.4</ele>
        <time>2025-01-19T12:53:10Z</time>
      </trkpt>
      <trkpt lat="43.40757" lon="6.66135">
        <ele>166.3</ele>
        <time>2025-01-19T12:53:11Z</time>
      </trkpt>
      <trkpt lat="43.40757" lon="6.66136">
        <ele>166.2</ele>
        <time>2025-01-19T12:53:12Z</time>
      </trkpt>
      <trkpt lat="43.40757" lon="6.66137">
        <ele>166.2</ele>
        <time>2025-01-19T12:53:13Z</time>
      </trkpt>
      <trkpt lat="43.40757" lon="6.66137">
        <ele>166</ele>
        <time>2025-01-19T12:53:14Z</time>
      </trkpt>
      <trkpt lat="43.40757" lon="6.66137">
        <ele>166</ele>
        <time>2025-01-19T12:53:15Z</time>
      </trkpt>
      <trkpt lat="43.40758" lon="6.66137">
        <ele>165.9</ele>
        <time>2025-01-19T12:53:16Z</time>
      </trkpt>
      <trkpt lat="43.40758" lon="6.66137">
        <ele>165.9</ele>
        <time>2025-01-19T12:53:17Z</time>
      </trkpt>
      <trkpt lat="43.40758" lon="6.66137">
        <ele>165.8</ele>
        <time>2025-01-19T12:53:18Z</time>
      </trkpt>
      <trkpt lat="43.40758" lon="6.66137">
        <ele>165.8</ele>
        <time>2025-01-19T12:53:19Z</time>
      </trkpt>
      <trkpt lat="43.40759" lon="6.66137">
        <ele>165.7</ele>
        <time>2025-01-19T12:53:20Z</time>
      </trkpt>
      <trkpt lat="43.40759" lon="6.66137">
        <ele>165.7</ele>
        <time>2025-01-19T12:53:21Z</time>
      </trkpt>
      <trkpt lat="43.40759" lon="6.66137">
        <ele>165.7</ele>
        <time>2025-01-19T12:53:22Z</time>
      </trkpt>
      <trkpt lat="43.4076" lon="6.66138">
        <ele>165.6</ele>
        <time>2025-01-19T12:53:23Z</time>
      </trkpt>
      <trkpt lat="43.4076" lon="6.66138">
        <ele>165.5</ele>
        <time>2025-01-19T12:53:24Z</time>
      </trkpt>
      <trkpt lat="43.40761" lon="6.66139">
        <ele>165.5</ele>
        <time>2025-01-19T12:53:25Z</time>
      </trkpt>
      <trkpt lat="43.40761" lon="6.6614">
        <ele>165.6</ele>
        <time>2025-01-19T12:53:26Z</time>
      </trkpt>
      <trkpt lat="43.40762" lon="6.66142">
        <ele>165.6</ele>
        <time>2025-01-19T12:53:27Z</time>
      </trkpt>
      <trkpt lat="43.40763" lon="6.66142">
        <ele>165.5</ele>
        <time>2025-01-19T12:53:28Z</time>
      </trkpt>
      <trkpt lat="43.40764" lon="6.66143">
        <ele>165.3</ele>
        <time>2025-01-19T12:53:29Z</time>
      </trkpt>
      <trkpt lat="43.40764" lon="6.66144">
        <ele>165.1</ele>
        <time>2025-01-19T12:53:30Z</time>
      </trkpt>
      <trkpt lat="43.40765" lon="6.66146">
        <ele>165</ele>
        <time>2025-01-19T12:53:31Z</time>
      </trkpt>
      <trkpt lat="43.40765" lon="6.66147">
        <ele>164.8</ele>
        <time>2025-01-19T12:53:32Z</time>
      </trkpt>
      <trkpt lat="43.40766" lon="6.66149">
        <ele>164.7</ele>
        <time>2025-01-19T12:53:33Z</time>
      </trkpt>
      <trkpt lat="43.40766" lon="6.6615">
        <ele>164.7</ele>
        <time>2025-01-19T12:53:34Z</time>
      </trkpt>
      <trkpt lat="43.40766" lon="6.66152">
        <ele>164.7</ele>
        <time>2025-01-19T12:53:35Z</time>
      </trkpt>
      <trkpt lat="43.40767" lon="6.66153">
        <ele>164.6</ele>
        <time>2025-01-19T12:53:36Z</time>
      </trkpt>
      <trkpt lat="43.40767" lon="6.66154">
        <ele>164.5</ele>
        <time>2025-01-19T12:53:37Z</time>
      </trkpt>
      <trkpt lat="43.40768" lon="6.66155">
        <ele>164.4</ele>
        <time>2025-01-19T12:53:38Z</time>
      </trkpt>
      <trkpt lat="43.40768" lon="6.66157">
        <ele>164.2</ele>
        <time>2025-01-19T12:53:39Z</time>
      </trkpt>
      <trkpt lat="43.40768" lon="6.66159">
        <ele>164.1</ele>
        <time>2025-01-19T12:53:40Z</time>
      </trkpt>
      <trkpt lat="43.40769" lon="6.6616">
        <ele>164</ele>
        <time>2025-01-19T12:53:41Z</time>
      </trkpt>
      <trkpt lat="43.4077" lon="6.66162">
        <ele>163.9</ele>
        <time>2025-01-19T12:53:42Z</time>
      </trkpt>
      <trkpt lat="43.4077" lon="6.66163">
        <ele>163.8</ele>
        <time>2025-01-19T12:53:43Z</time>
      </trkpt>
      <trkpt lat="43.4077" lon="6.66165">
        <ele>163.7</ele>
        <time>2025-01-19T12:53:44Z</time>
      </trkpt>
      <trkpt lat="43.40771" lon="6.66166">
        <ele>163.6</ele>
        <time>2025-01-19T12:53:45Z</time>
      </trkpt>
      <trkpt lat="43.40771" lon="6.66167">
        <ele>163.5</ele>
        <time>2025-01-19T12:53:46Z</time>
      </trkpt>
      <trkpt lat="43.40771" lon="6.66168">
        <ele>163.4</ele>
        <time>2025-01-19T12:53:47Z</time>
      </trkpt>
      <trkpt lat="43.40772" lon="6.66169">
        <ele>163.2</ele>
        <time>2025-01-19T12:53:48Z</time>
      </trkpt>
      <trkpt lat="43.40772" lon="6.6617">
        <ele>163.1</ele>
        <time>2025-01-19T12:53:49Z</time>
      </trkpt>
      <trkpt lat="43.40772" lon="6.66172">
        <ele>163</ele>
        <time>2025-01-19T12:53:50Z</time>
      </trkpt>
      <trkpt lat="43.40772" lon="6.66173">
        <ele>162.9</ele>
        <time>2025-01-19T12:53:51Z</time>
      </trkpt>
      <trkpt lat="43.40772" lon="6.66174">
        <ele>162.8</ele>
        <time>2025-01-19T12:53:52Z</time>
      </trkpt>
      <trkpt lat="43.40773" lon="6.66176">
        <ele>162.6</ele>
        <time>2025-01-19T12:53:53Z</time>
      </trkpt>
      <trkpt lat="43.40773" lon="6.66177">
        <ele>162.5</ele>
        <time>2025-01-19T12:53:54Z</time>
      </trkpt>
      <trkpt lat="43.40774" lon="6.66178">
        <ele>162.4</ele>
        <time>2025-01-19T12:53:55Z</time>
      </trkpt>
      <trkpt lat="43.40774" lon="6.6618">
        <ele>162.3</ele>
        <time>2025-01-19T12:53:56Z</time>
      </trkpt>
      <trkpt lat="43.40775" lon="6.66181">
        <ele>162.2</ele>
        <time>2025-01-19T12:53:57Z</time>
      </trkpt>
      <trkpt lat="43.40775" lon="6.66182">
        <ele>162</ele>
        <time>2025-01-19T12:53:58Z</time>
      </trkpt>
      <trkpt lat="43.40775" lon="6.66184">
        <ele>161.9</ele>
        <time>2025-01-19T12:53:59Z</time>
      </trkpt>
      <trkpt lat="43.40776" lon="6.66185">
        <ele>161.8</ele>
        <time>2025-01-19T12:54:00Z</time>
      </trkpt>
      <trkpt lat="43.40776" lon="6.66187">
        <ele>161.7</ele>
        <time>2025-01-19T12:54:01Z</time>
      </trkpt>
      <trkpt lat="43.40776" lon="6.66188">
        <ele>161.7</ele>
        <time>2025-01-19T12:54:02Z</time>
      </trkpt>
      <trkpt lat="43.40777" lon="6.66189">
        <ele>161.6</ele>
        <time>2025-01-19T12:54:03Z</time>
      </trkpt>
      <trkpt lat="43.40777" lon="6.6619">
        <ele>161.6</ele>
        <time>2025-01-19T12:54:04Z</time>
      </trkpt>
      <trkpt lat="43.40778" lon="6.66192">
        <ele>161.5</ele>
        <time>2025-01-19T12:54:05Z</time>
      </trkpt>
      <trkpt lat="43.40778" lon="6.66193">
        <ele>161.4</ele>
        <time>2025-01-19T12:54:06Z</time>
      </trkpt>
      <trkpt lat="43.40778" lon="6.66195">
        <ele>161.4</ele>
        <time>2025-01-19T12:54:07Z</time>
      </trkpt>
      <trkpt lat="43.40779" lon="6.66196">
        <ele>161.2</ele>
        <time>2025-01-19T12:54:08Z</time>
      </trkpt>
      <trkpt lat="43.40779" lon="6.66197">
        <ele>161.2</ele>
        <time>2025-01-19T12:54:09Z</time>
      </trkpt>
      <trkpt lat="43.40779" lon="6.66198">
        <ele>161.1</ele>
        <time>2025-01-19T12:54:10Z</time>
      </trkpt>
      <trkpt lat="43.4078" lon="6.66199">
        <ele>161</ele>
        <time>2025-01-19T12:54:11Z</time>
      </trkpt>
      <trkpt lat="43.4078" lon="6.662">
        <ele>161</ele>
        <time>2025-01-19T12:54:12Z</time>
      </trkpt>
      <trkpt lat="43.4078" lon="6.66201">
        <ele>160.9</ele>
        <time>2025-01-19T12:54:13Z</time>
      </trkpt>
      <trkpt lat="43.40781" lon="6.66202">
        <ele>160.7</ele>
        <time>2025-01-19T12:54:14Z</time>
      </trkpt>
      <trkpt lat="43.40781" lon="6.66203">
        <ele>160.6</ele>
        <time>2025-01-19T12:54:15Z</time>
      </trkpt>
      <trkpt lat="43.40782" lon="6.66204">
        <ele>160.4</ele>
        <time>2025-01-19T12:54:16Z</time>
      </trkpt>
      <trkpt lat="43.40782" lon="6.66205">
        <ele>160.2</ele>
        <time>2025-01-19T12:54:17Z</time>
      </trkpt>
      <trkpt lat="43.40783" lon="6.66205">
        <ele>160.1</ele>
        <time>2025-01-19T12:54:18Z</time>
      </trkpt>
      <trkpt lat="43.40783" lon="6.66206">
        <ele>159.9</ele>
        <time>2025-01-19T12:54:19Z</time>
      </trkpt>
      <trkpt lat="43.40784" lon="6.66207">
        <ele>159.8</ele>
        <time>2025-01-19T12:54:20Z</time>
      </trkpt>
      <trkpt lat="43.40784" lon="6.66208">
        <ele>159.7</ele>
        <time>2025-01-19T12:54:21Z</time>
      </trkpt>
      <trkpt lat="43.40785" lon="6.66209">
        <ele>159.6</ele>
        <time>2025-01-19T12:54:22Z</time>
      </trkpt>
      <trkpt lat="43.40785" lon="6.6621">
        <ele>159.5</ele>
        <time>2025-01-19T12:54:23Z</time>
      </trkpt>
      <trkpt lat="43.40785" lon="6.66212">
        <ele>159.4</ele>
        <time>2025-01-19T12:54:24Z</time>
      </trkpt>
      <trkpt lat="43.40786" lon="6.66213">
        <ele>159.3</ele>
        <time>2025-01-19T12:54:25Z</time>
      </trkpt>
      <trkpt lat="43.40786" lon="6.66214">
        <ele>159.2</ele>
        <time>2025-01-19T12:54:26Z</time>
      </trkpt>
      <trkpt lat="43.40786" lon="6.66215">
        <ele>159</ele>
        <time>2025-01-19T12:54:27Z</time>
      </trkpt>
      <trkpt lat="43.40786" lon="6.66216">
        <ele>158.9</ele>
        <time>2025-01-19T12:54:28Z</time>
      </trkpt>
      <trkpt lat="43.40786" lon="6.66218">
        <ele>158.7</ele>
        <time>2025-01-19T12:54:29Z</time>
      </trkpt>
      <trkpt lat="43.40786" lon="6.66219">
        <ele>158.7</ele>
        <time>2025-01-19T12:54:30Z</time>
      </trkpt>
      <trkpt lat="43.40787" lon="6.66219">
        <ele>158.6</ele>
        <time>2025-01-19T12:54:31Z</time>
      </trkpt>
      <trkpt lat="43.40786" lon="6.6622">
        <ele>158.5</ele>
        <time>2025-01-19T12:54:32Z</time>
      </trkpt>
      <trkpt lat="43.40786" lon="6.66221">
        <ele>158.3</ele>
        <time>2025-01-19T12:54:33Z</time>
      </trkpt>
      <trkpt lat="43.40786" lon="6.66222">
        <ele>158.1</ele>
        <time>2025-01-19T12:54:34Z</time>
      </trkpt>
      <trkpt lat="43.40787" lon="6.66223">
        <ele>158</ele>
        <time>2025-01-19T12:54:35Z</time>
      </trkpt>
      <trkpt lat="43.40787" lon="6.66224">
        <ele>157.8</ele>
        <time>2025-01-19T12:54:36Z</time>
      </trkpt>
      <trkpt lat="43.40787" lon="6.66225">
        <ele>157.7</ele>
        <time>2025-01-19T12:54:37Z</time>
      </trkpt>
      <trkpt lat="43.40786" lon="6.66226">
        <ele>157.6</ele>
        <time>2025-01-19T12:54:38Z</time>
      </trkpt>
      <trkpt lat="43.40786" lon="6.66227">
        <ele>157.4</ele>
        <time>2025-01-19T12:54:39Z</time>
      </trkpt>
      <trkpt lat="43.40786" lon="6.66227">
        <ele>157.2</ele>
        <time>2025-01-19T12:54:40Z</time>
      </trkpt>
      <trkpt lat="43.40786" lon="6.66228">
        <ele>157.1</ele>
        <time>2025-01-19T12:54:41Z</time>
      </trkpt>
      <trkpt lat="43.40786" lon="6.66229">
        <ele>157.1</ele>
        <time>2025-01-19T12:54:42Z</time>
      </trkpt>
      <trkpt lat="43.40786" lon="6.6623">
        <ele>157.1</ele>
        <time>2025-01-19T12:54:43Z</time>
      </trkpt>
      <trkpt lat="43.40786" lon="6.6623">
        <ele>157</ele>
        <time>2025-01-19T12:54:44Z</time>
      </trkpt>
      <trkpt lat="43.40786" lon="6.66231">
        <ele>157</ele>
        <time>2025-01-19T12:54:45Z</time>
      </trkpt>
      <trkpt lat="43.40786" lon="6.66231">
        <ele>156.9</ele>
        <time>2025-01-19T12:54:46Z</time>
      </trkpt>
      <trkpt lat="43.40786" lon="6.66231">
        <ele>156.8</ele>
        <time>2025-01-19T12:54:47Z</time>
      </trkpt>
      <trkpt lat="43.40787" lon="6.66231">
        <ele>156.7</ele>
        <time>2025-01-19T12:54:48Z</time>
      </trkpt>
      <trkpt lat="43.40787" lon="6.66231">
        <ele>156.6</ele>
        <time>2025-01-19T12:54:49Z</time>
      </trkpt>
      <trkpt lat="43.40787" lon="6.66231">
        <ele>156.6</ele>
        <time>2025-01-19T12:54:50Z</time>
      </trkpt>
      <trkpt lat="43.40787" lon="6.66231">
        <ele>156.6</ele>
        <time>2025-01-19T12:54:51Z</time>
      </trkpt>
      <trkpt lat="43.40787" lon="6.66231">
        <ele>156.6</ele>
        <time>2025-01-19T12:54:52Z</time>
      </trkpt>
      <trkpt lat="43.40787" lon="6.66231">
        <ele>156.6</ele>
        <time>2025-01-19T12:54:53Z</time>
      </trkpt>
      <trkpt lat="43.40787" lon="6.66231">
        <ele>156.5</ele>
        <time>2025-01-19T12:54:54Z</time>
      </trkpt>
      <trkpt lat="43.40787" lon="6.66231">
        <ele>156.5</ele>
        <time>2025-01-19T12:54:55Z</time>
      </trkpt>
      <trkpt lat="43.40788" lon="6.66231">
        <ele>156.5</ele>
        <time>2025-01-19T12:54:56Z</time>
      </trkpt>
      <trkpt lat="43.40788" lon="6.66231">
        <ele>156.5</ele>
        <time>2025-01-19T12:54:57Z</time>
      </trkpt>
      <trkpt lat="43.40788" lon="6.66231">
        <ele>156.5</ele>
        <time>2025-01-19T12:54:58Z</time>
      </trkpt>
      <trkpt lat="43.40788" lon="6.66231">
        <ele>156.5</ele>
        <time>2025-01-19T12:54:59Z</time>
      </trkpt>
      <trkpt lat="43.40788" lon="6.66231">
        <ele>156.5</ele>
        <time>2025-01-19T12:55:00Z</time>
      </trkpt>
      <trkpt lat="43.40788" lon="6.66231">
        <ele>156.5</ele>
        <time>2025-01-19T12:55:01Z</time>
      </trkpt>
      <trkpt lat="43.40788" lon="6.66231">
        <ele>156.6</ele>
        <time>2025-01-19T12:55:02Z</time>
      </trkpt>
      <trkpt lat="43.40788" lon="6.66231">
        <ele>156.5</ele>
        <time>2025-01-19T12:55:03Z</time>
      </trkpt>
      <trkpt lat="43.40788" lon="6.66231">
        <ele>156.5</ele>
        <time>2025-01-19T12:55:04Z</time>
      </trkpt>
      <trkpt lat="43.40788" lon="6.66231">
        <ele>156.4</ele>
        <time>2025-01-19T12:55:05Z</time>
      </trkpt>
      <trkpt lat="43.40788" lon="6.66231">
        <ele>156.4</ele>
        <time>2025-01-19T12:55:06Z</time>
      </trkpt>
      <trkpt lat="43.40788" lon="6.66231">
        <ele>156.3</ele>
        <time>2025-01-19T12:55:07Z</time>
      </trkpt>
      <trkpt lat="43.40788" lon="6.66231">
        <ele>156.3</ele>
        <time>2025-01-19T12:55:08Z</time>
      </trkpt>
      <trkpt lat="43.40788" lon="6.66231">
        <ele>156.3</ele>
        <time>2025-01-19T12:55:09Z</time>
      </trkpt>
      <trkpt lat="43.40788" lon="6.66231">
        <ele>156.2</ele>
        <time>2025-01-19T12:55:10Z</time>
      </trkpt>
      <trkpt lat="43.40788" lon="6.66231">
        <ele>156.2</ele>
        <time>2025-01-19T12:55:11Z</time>
      </trkpt>
      <trkpt lat="43.40788" lon="6.66231">
        <ele>156.2</ele>
        <time>2025-01-19T12:55:12Z</time>
      </trkpt>
      <trkpt lat="43.40788" lon="6.66231">
        <ele>156.2</ele>
        <time>2025-01-19T12:55:13Z</time>
      </trkpt>
      <trkpt lat="43.40789" lon="6.66231">
        <ele>156.2</ele>
        <time>2025-01-19T12:55:14Z</time>
      </trkpt>
      <trkpt lat="43.40789" lon="6.66231">
        <ele>156.1</ele>
        <time>2025-01-19T12:55:15Z</time>
      </trkpt>
      <trkpt lat="43.40789" lon="6.66231">
        <ele>156.1</ele>
        <time>2025-01-19T12:55:16Z</time>
      </trkpt>
      <trkpt lat="43.40789" lon="6.66232">
        <ele>156.1</ele>
        <time>2025-01-19T12:55:17Z</time>
      </trkpt>
      <trkpt lat="43.40789" lon="6.66232">
        <ele>156.2</ele>
        <time>2025-01-19T12:55:18Z</time>
      </trkpt>
      <trkpt lat="43.40789" lon="6.66232">
        <ele>156.2</ele>
        <time>2025-01-19T12:55:19Z</time>
      </trkpt>
      <trkpt lat="43.40789" lon="6.66232">
        <ele>156.2</ele>
        <time>2025-01-19T12:55:20Z</time>
      </trkpt>
      <trkpt lat="43.40789" lon="6.66232">
        <ele>156.3</ele>
        <time>2025-01-19T12:55:21Z</time>
      </trkpt>
      <trkpt lat="43.40788" lon="6.66232">
        <ele>156.4</ele>
        <time>2025-01-19T12:55:22Z</time>
      </trkpt>
      <trkpt lat="43.40788" lon="6.66232">
        <ele>156.5</ele>
        <time>2025-01-19T12:55:23Z</time>
      </trkpt>
      <trkpt lat="43.40788" lon="6.66232">
        <ele>156.6</ele>
        <time>2025-01-19T12:55:24Z</time>
      </trkpt>
      <trkpt lat="43.40788" lon="6.66232">
        <ele>156.6</ele>
        <time>2025-01-19T12:55:25Z</time>
      </trkpt>
      <trkpt lat="43.40788" lon="6.66232">
        <ele>156.6</ele>
        <time>2025-01-19T12:55:26Z</time>
      </trkpt>
      <trkpt lat="43.40788" lon="6.66232">
        <ele>156.6</ele>
        <time>2025-01-19T12:55:27Z</time>
      </trkpt>
      <trkpt lat="43.40788" lon="6.66232">
        <ele>156.5</ele>
        <time>2025-01-19T12:55:28Z</time>
      </trkpt>
      <trkpt lat="43.40788" lon="6.66232">
        <ele>156.5</ele>
        <time>2025-01-19T12:55:29Z</time>
      </trkpt>
      <trkpt lat="43.40788" lon="6.66232">
        <ele>156.5</ele>
        <time>2025-01-19T12:55:30Z</time>
      </trkpt>
      <trkpt lat="43.40788" lon="6.66232">
        <ele>156.6</ele>
        <time>2025-01-19T12:55:31Z</time>
      </trkpt>
      <trkpt lat="43.40788" lon="6.66232">
        <ele>156.6</ele>
        <time>2025-01-19T12:55:32Z</time>
      </trkpt>
      <trkpt lat="43.40788" lon="6.66232">
        <ele>156.5</ele>
        <time>2025-01-19T12:55:33Z</time>
      </trkpt>
      <trkpt lat="43.40788" lon="6.66232">
        <ele>156.5</ele>
        <time>2025-01-19T12:55:34Z</time>
      </trkpt>
      <trkpt lat="43.40788" lon="6.66232">
        <ele>156.5</ele>
        <time>2025-01-19T12:55:35Z</time>
      </trkpt>
      <trkpt lat="43.40788" lon="6.66232">
        <ele>156.5</ele>
        <time>2025-01-19T12:55:36Z</time>
      </trkpt>
      <trkpt lat="43.40788" lon="6.66232">
        <ele>156.5</ele>
        <time>2025-01-19T12:55:37Z</time>
      </trkpt>
      <trkpt lat="43.40788" lon="6.66232">
        <ele>156.5</ele>
        <time>2025-01-19T12:55:38Z</time>
      </trkpt>
      <trkpt lat="43.40788" lon="6.66232">
        <ele>156.5</ele>
        <time>2025-01-19T12:55:39Z</time>
      </trkpt>
      <trkpt lat="43.40788" lon="6.66232">
        <ele>156.4</ele>
        <time>2025-01-19T12:55:40Z</time>
      </trkpt>
      <trkpt lat="43.40788" lon="6.66232">
        <ele>156.4</ele>
        <time>2025-01-19T12:55:41Z</time>
      </trkpt>
      <trkpt lat="43.40788" lon="6.66233">
        <ele>156.4</ele>
        <time>2025-01-19T12:55:42Z</time>
      </trkpt>
      <trkpt lat="43.40788" lon="6.66232">
        <ele>156.4</ele>
        <time>2025-01-19T12:55:43Z</time>
      </trkpt>
      <trkpt lat="43.40788" lon="6.66232">
        <ele>156.3</ele>
        <time>2025-01-19T12:55:44Z</time>
      </trkpt>
      <trkpt lat="43.40788" lon="6.66232">
        <ele>156.3</ele>
        <time>2025-01-19T12:55:45Z</time>
      </trkpt>
      <trkpt lat="43.40788" lon="6.66232">
        <ele>156.3</ele>
        <time>2025-01-19T12:55:46Z</time>
      </trkpt>
      <trkpt lat="43.40788" lon="6.66232">
        <ele>156.2</ele>
        <time>2025-01-19T12:55:47Z</time>
      </trkpt>
      <trkpt lat="43.40788" lon="6.66232">
        <ele>156.2</ele>
        <time>2025-01-19T12:55:48Z</time>
      </trkpt>
      <trkpt lat="43.40788" lon="6.66232">
        <ele>156.2</ele>
        <time>2025-01-19T12:55:49Z</time>
      </trkpt>
      <trkpt lat="43.40788" lon="6.66232">
        <ele>156.2</ele>
        <time>2025-01-19T12:55:50Z</time>
      </trkpt>
      <trkpt lat="43.40788" lon="6.66233">
        <ele>156.3</ele>
        <time>2025-01-19T12:55:51Z</time>
      </trkpt>
      <trkpt lat="43.40788" lon="6.66233">
        <ele>156.3</ele>
        <time>2025-01-19T12:55:52Z</time>
      </trkpt>
      <trkpt lat="43.40788" lon="6.66233">
        <ele>156.3</ele>
        <time>2025-01-19T12:55:53Z</time>
      </trkpt>
      <trkpt lat="43.40788" lon="6.66233">
        <ele>156.3</ele>
        <time>2025-01-19T12:55:54Z</time>
      </trkpt>
      <trkpt lat="43.40788" lon="6.66233">
        <ele>156.3</ele>
        <time>2025-01-19T12:55:55Z</time>
      </trkpt>
      <trkpt lat="43.40788" lon="6.66233">
        <ele>156.3</ele>
        <time>2025-01-19T12:55:56Z</time>
      </trkpt>
      <trkpt lat="43.40789" lon="6.66233">
        <ele>156.3</ele>
        <time>2025-01-19T12:55:57Z</time>
      </trkpt>
      <trkpt lat="43.40789" lon="6.66233">
        <ele>156.3</ele>
        <time>2025-01-19T12:55:58Z</time>
      </trkpt>
      <trkpt lat="43.40789" lon="6.66233">
        <ele>156.3</ele>
        <time>2025-01-19T12:55:59Z</time>
      </trkpt>
      <trkpt lat="43.40789" lon="6.66233">
        <ele>156.3</ele>
        <time>2025-01-19T12:56:00Z</time>
      </trkpt>
      <trkpt lat="43.40789" lon="6.66233">
        <ele>156.4</ele>
        <time>2025-01-19T12:56:01Z</time>
      </trkpt>
      <trkpt lat="43.40789" lon="6.66232">
        <ele>156.4</ele>
        <time>2025-01-19T12:56:02Z</time>
      </trkpt>
      <trkpt lat="43.40789" lon="6.66232">
        <ele>156.3</ele>
        <time>2025-01-19T12:56:03Z</time>
      </trkpt>
      <trkpt lat="43.40789" lon="6.66232">
        <ele>156.3</ele>
        <time>2025-01-19T12:56:04Z</time>
      </trkpt>
      <trkpt lat="43.40789" lon="6.66232">
        <ele>156.2</ele>
        <time>2025-01-19T12:56:05Z</time>
      </trkpt>
      <trkpt lat="43.40789" lon="6.66232">
        <ele>156.2</ele>
        <time>2025-01-19T12:56:06Z</time>
      </trkpt>
      <trkpt lat="43.40789" lon="6.66232">
        <ele>156.2</ele>
        <time>2025-01-19T12:56:07Z</time>
      </trkpt>
      <trkpt lat="43.40789" lon="6.66232">
        <ele>156</ele>
        <time>2025-01-19T12:56:08Z</time>
      </trkpt>
      <trkpt lat="43.40789" lon="6.66232">
        <ele>156.1</ele>
        <time>2025-01-19T12:56:09Z</time>
      </trkpt>
      <trkpt lat="43.40789" lon="6.66232">
        <ele>156.1</ele>
        <time>2025-01-19T12:56:10Z</time>
      </trkpt>
      <trkpt lat="43.40789" lon="6.66232">
        <ele>156.2</ele>
        <time>2025-01-19T12:56:11Z</time>
      </trkpt>
      <trkpt lat="43.40789" lon="6.66232">
        <ele>156.2</ele>
        <time>2025-01-19T12:56:12Z</time>
      </trkpt>
      <trkpt lat="43.40789" lon="6.66232">
        <ele>156.2</ele>
        <time>2025-01-19T12:56:13Z</time>
      </trkpt>
      <trkpt lat="43.40789" lon="6.66232">
        <ele>156.3</ele>
        <time>2025-01-19T12:56:14Z</time>
      </trkpt>
      <trkpt lat="43.40789" lon="6.66232">
        <ele>156.2</ele>
        <time>2025-01-19T12:56:15Z</time>
      </trkpt>
      <trkpt lat="43.40789" lon="6.66233">
        <ele>156.3</ele>
        <time>2025-01-19T12:56:16Z</time>
      </trkpt>
      <trkpt lat="43.40789" lon="6.66232">
        <ele>156.3</ele>
        <time>2025-01-19T12:56:17Z</time>
      </trkpt>
      <trkpt lat="43.40789" lon="6.66233">
        <ele>156.3</ele>
        <time>2025-01-19T12:56:18Z</time>
      </trkpt>
      <trkpt lat="43.40789" lon="6.66233">
        <ele>156.2</ele>
        <time>2025-01-19T12:56:19Z</time>
      </trkpt>
      <trkpt lat="43.40789" lon="6.66233">
        <ele>156.1</ele>
        <time>2025-01-19T12:56:20Z</time>
      </trkpt>
      <trkpt lat="43.40789" lon="6.66233">
        <ele>156.1</ele>
        <time>2025-01-19T12:56:21Z</time>
      </trkpt>
      <trkpt lat="43.40789" lon="6.66233">
        <ele>156</ele>
        <time>2025-01-19T12:56:22Z</time>
      </trkpt>
      <trkpt lat="43.40789" lon="6.66233">
        <ele>156.1</ele>
        <time>2025-01-19T12:56:23Z</time>
      </trkpt>
      <trkpt lat="43.40789" lon="6.66233">
        <ele>156.1</ele>
        <time>2025-01-19T12:56:24Z</time>
      </trkpt>
      <trkpt lat="43.40789" lon="6.66233">
        <ele>156.1</ele>
        <time>2025-01-19T12:56:25Z</time>
      </trkpt>
      <trkpt lat="43.40789" lon="6.66233">
        <ele>156.1</ele>
        <time>2025-01-19T12:56:26Z</time>
      </trkpt>
      <trkpt lat="43.40789" lon="6.66233">
        <ele>156.2</ele>
        <time>2025-01-19T12:56:27Z</time>
      </trkpt>
      <trkpt lat="43.4079" lon="6.66233">
        <ele>156.2</ele>
        <time>2025-01-19T12:56:28Z</time>
      </trkpt>
      <trkpt lat="43.4079" lon="6.66233">
        <ele>156.4</ele>
        <time>2025-01-19T12:56:29Z</time>
      </trkpt>
      <trkpt lat="43.4079" lon="6.66234">
        <ele>156.4</ele>
        <time>2025-01-19T12:56:30Z</time>
      </trkpt>
      <trkpt lat="43.4079" lon="6.66234">
        <ele>156.4</ele>
        <time>2025-01-19T12:56:31Z</time>
      </trkpt>
      <trkpt lat="43.4079" lon="6.66234">
        <ele>156.4</ele>
        <time>2025-01-19T12:56:32Z</time>
      </trkpt>
      <trkpt lat="43.4079" lon="6.66234">
        <ele>156.4</ele>
        <time>2025-01-19T12:56:33Z</time>
      </trkpt>
      <trkpt lat="43.4079" lon="6.66234">
        <ele>156.4</ele>
        <time>2025-01-19T12:56:34Z</time>
      </trkpt>
      <trkpt lat="43.4079" lon="6.66234">
        <ele>156.4</ele>
        <time>2025-01-19T12:56:35Z</time>
      </trkpt>
      <trkpt lat="43.4079" lon="6.66234">
        <ele>156.4</ele>
        <time>2025-01-19T12:56:36Z</time>
      </trkpt>
      <trkpt lat="43.4079" lon="6.66234">
        <ele>156.4</ele>
        <time>2025-01-19T12:56:37Z</time>
      </trkpt>
      <trkpt lat="43.4079" lon="6.66234">
        <ele>156.3</ele>
        <time>2025-01-19T12:56:38Z</time>
      </trkpt>
      <trkpt lat="43.4079" lon="6.66234">
        <ele>156.4</ele>
        <time>2025-01-19T12:56:39Z</time>
      </trkpt>
      <trkpt lat="43.4079" lon="6.66234">
        <ele>156.5</ele>
        <time>2025-01-19T12:56:40Z</time>
      </trkpt>
      <trkpt lat="43.4079" lon="6.66234">
        <ele>156.4</ele>
        <time>2025-01-19T12:56:41Z</time>
      </trkpt>
      <trkpt lat="43.4079" lon="6.66234">
        <ele>156.4</ele>
        <time>2025-01-19T12:56:42Z</time>
      </trkpt>
      <trkpt lat="43.4079" lon="6.66234">
        <ele>156.4</ele>
        <time>2025-01-19T12:56:43Z</time>
      </trkpt>
      <trkpt lat="43.4079" lon="6.66234">
        <ele>156.4</ele>
        <time>2025-01-19T12:56:44Z</time>
      </trkpt>
      <trkpt lat="43.4079" lon="6.66234">
        <ele>156.4</ele>
        <time>2025-01-19T12:56:45Z</time>
      </trkpt>
      <trkpt lat="43.4079" lon="6.66234">
        <ele>156.4</ele>
        <time>2025-01-19T12:56:46Z</time>
      </trkpt>
      <trkpt lat="43.4079" lon="6.66234">
        <ele>156.4</ele>
        <time>2025-01-19T12:56:47Z</time>
      </trkpt>
      <trkpt lat="43.4079" lon="6.66234">
        <ele>156.3</ele>
        <time>2025-01-19T12:56:48Z</time>
      </trkpt>
      <trkpt lat="43.4079" lon="6.66233">
        <ele>156.3</ele>
        <time>2025-01-19T12:56:49Z</time>
      </trkpt>
      <trkpt lat="43.4079" lon="6.66233">
        <ele>156.2</ele>
        <time>2025-01-19T12:56:50Z</time>
      </trkpt>
      <trkpt lat="43.4079" lon="6.66233">
        <ele>156.2</ele>
        <time>2025-01-19T12:56:51Z</time>
      </trkpt>
      <trkpt lat="43.4079" lon="6.66233">
        <ele>156</ele>
        <time>2025-01-19T12:56:52Z</time>
      </trkpt>
      <trkpt lat="43.4079" lon="6.66234">
        <ele>156</ele>
        <time>2025-01-19T12:56:53Z</time>
      </trkpt>
      <trkpt lat="43.4079" lon="6.66233">
        <ele>156</ele>
        <time>2025-01-19T12:56:54Z</time>
      </trkpt>
      <trkpt lat="43.4079" lon="6.66233">
        <ele>156</ele>
        <time>2025-01-19T12:56:55Z</time>
      </trkpt>
      <trkpt lat="43.40789" lon="6.66234">
        <ele>155.9</ele>
        <time>2025-01-19T12:56:56Z</time>
      </trkpt>
      <trkpt lat="43.40789" lon="6.66233">
        <ele>155.9</ele>
        <time>2025-01-19T12:56:57Z</time>
      </trkpt>
      <trkpt lat="43.40789" lon="6.66233">
        <ele>155.9</ele>
        <time>2025-01-19T12:56:58Z</time>
      </trkpt>
      <trkpt lat="43.40789" lon="6.66233">
        <ele>155.9</ele>
        <time>2025-01-19T12:56:59Z</time>
      </trkpt>
      <trkpt lat="43.40789" lon="6.66233">
        <ele>155.9</ele>
        <time>2025-01-19T12:57:00Z</time>
      </trkpt>
      <trkpt lat="43.40789" lon="6.66233">
        <ele>156</ele>
        <time>2025-01-19T12:57:01Z</time>
      </trkpt>
      <trkpt lat="43.40789" lon="6.66233">
        <ele>156</ele>
        <time>2025-01-19T12:57:02Z</time>
      </trkpt>
      <trkpt lat="43.40789" lon="6.66233">
        <ele>156.1</ele>
        <time>2025-01-19T12:57:03Z</time>
      </trkpt>
      <trkpt lat="43.40789" lon="6.66233">
        <ele>156.1</ele>
        <time>2025-01-19T12:57:04Z</time>
      </trkpt>
      <trkpt lat="43.40789" lon="6.66233">
        <ele>156.1</ele>
        <time>2025-01-19T12:57:05Z</time>
      </trkpt>
      <trkpt lat="43.40789" lon="6.66233">
        <ele>156.2</ele>
        <time>2025-01-19T12:57:06Z</time>
      </trkpt>
      <trkpt lat="43.40789" lon="6.66233">
        <ele>156.1</ele>
        <time>2025-01-19T12:57:07Z</time>
      </trkpt>
      <trkpt lat="43.40789" lon="6.66233">
        <ele>156</ele>
        <time>2025-01-19T12:57:08Z</time>
      </trkpt>
      <trkpt lat="43.40789" lon="6.66233">
        <ele>156</ele>
        <time>2025-01-19T12:57:09Z</time>
      </trkpt>
      <trkpt lat="43.40789" lon="6.66233">
        <ele>156</ele>
        <time>2025-01-19T12:57:10Z</time>
      </trkpt>
      <trkpt lat="43.40789" lon="6.66233">
        <ele>155.9</ele>
        <time>2025-01-19T12:57:11Z</time>
      </trkpt>
      <trkpt lat="43.40788" lon="6.66233">
        <ele>155.9</ele>
        <time>2025-01-19T12:57:12Z</time>
      </trkpt>
      <trkpt lat="43.40788" lon="6.66233">
        <ele>156</ele>
        <time>2025-01-19T12:57:13Z</time>
      </trkpt>
      <trkpt lat="43.40788" lon="6.66233">
        <ele>155.9</ele>
        <time>2025-01-19T12:57:14Z</time>
      </trkpt>
      <trkpt lat="43.40788" lon="6.66233">
        <ele>155.9</ele>
        <time>2025-01-19T12:57:15Z</time>
      </trkpt>
      <trkpt lat="43.40788" lon="6.66233">
        <ele>155.9</ele>
        <time>2025-01-19T12:57:16Z</time>
      </trkpt>
      <trkpt lat="43.40788" lon="6.66233">
        <ele>155.9</ele>
        <time>2025-01-19T12:57:17Z</time>
      </trkpt>
      <trkpt lat="43.40788" lon="6.66232">
        <ele>155.9</ele>
        <time>2025-01-19T12:57:18Z</time>
      </trkpt>
      <trkpt lat="43.40788" lon="6.66232">
        <ele>155.9</ele>
        <time>2025-01-19T12:57:19Z</time>
      </trkpt>
      <trkpt lat="43.40788" lon="6.66233">
        <ele>155.9</ele>
        <time>2025-01-19T12:57:20Z</time>
      </trkpt>
      <trkpt lat="43.40787" lon="6.66233">
        <ele>156</ele>
        <time>2025-01-19T12:57:21Z</time>
      </trkpt>
      <trkpt lat="43.40787" lon="6.66233">
        <ele>156</ele>
        <time>2025-01-19T12:57:22Z</time>
      </trkpt>
      <trkpt lat="43.40788" lon="6.66233">
        <ele>156</ele>
        <time>2025-01-19T12:57:23Z</time>
      </trkpt>
      <trkpt lat="43.40788" lon="6.66233">
        <ele>156</ele>
        <time>2025-01-19T12:57:24Z</time>
      </trkpt>
      <trkpt lat="43.40788" lon="6.66233">
        <ele>156</ele>
        <time>2025-01-19T12:57:25Z</time>
      </trkpt>
      <trkpt lat="43.40788" lon="6.66233">
        <ele>156</ele>
        <time>2025-01-19T12:57:26Z</time>
      </trkpt>
      <trkpt lat="43.40787" lon="6.66233">
        <ele>156</ele>
        <time>2025-01-19T12:57:27Z</time>
      </trkpt>
      <trkpt lat="43.40787" lon="6.66233">
        <ele>156</ele>
        <time>2025-01-19T12:57:28Z</time>
      </trkpt>
      <trkpt lat="43.40787" lon="6.66233">
        <ele>155.9</ele>
        <time>2025-01-19T12:57:29Z</time>
      </trkpt>
      <trkpt lat="43.40787" lon="6.66232">
        <ele>155.9</ele>
        <time>2025-01-19T12:57:30Z</time>
      </trkpt>
      <trkpt lat="43.40787" lon="6.66232">
        <ele>155.8</ele>
        <time>2025-01-19T12:57:31Z</time>
      </trkpt>
      <trkpt lat="43.40787" lon="6.66232">
        <ele>155.8</ele>
        <time>2025-01-19T12:57:32Z</time>
      </trkpt>
      <trkpt lat="43.40788" lon="6.66232">
        <ele>155.8</ele>
        <time>2025-01-19T12:57:33Z</time>
      </trkpt>
      <trkpt lat="43.40788" lon="6.66233">
        <ele>155.7</ele>
        <time>2025-01-19T12:57:34Z</time>
      </trkpt>
      <trkpt lat="43.40788" lon="6.66233">
        <ele>155.7</ele>
        <time>2025-01-19T12:57:35Z</time>
      </trkpt>
      <trkpt lat="43.40788" lon="6.66233">
        <ele>155.7</ele>
        <time>2025-01-19T12:57:36Z</time>
      </trkpt>
      <trkpt lat="43.40787" lon="6.66233">
        <ele>155.7</ele>
        <time>2025-01-19T12:57:37Z</time>
      </trkpt>
      <trkpt lat="43.40787" lon="6.66233">
        <ele>155.7</ele>
        <time>2025-01-19T12:57:38Z</time>
      </trkpt>
      <trkpt lat="43.40787" lon="6.66233">
        <ele>155.8</ele>
        <time>2025-01-19T12:57:39Z</time>
      </trkpt>
      <trkpt lat="43.40787" lon="6.66233">
        <ele>155.8</ele>
        <time>2025-01-19T12:57:40Z</time>
      </trkpt>
      <trkpt lat="43.40787" lon="6.66233">
        <ele>155.8</ele>
        <time>2025-01-19T12:57:41Z</time>
      </trkpt>
      <trkpt lat="43.40787" lon="6.66233">
        <ele>155.9</ele>
        <time>2025-01-19T12:57:42Z</time>
      </trkpt>
      <trkpt lat="43.40787" lon="6.66233">
        <ele>155.9</ele>
        <time>2025-01-19T12:57:43Z</time>
      </trkpt>
      <trkpt lat="43.40787" lon="6.66233">
        <ele>155.9</ele>
        <time>2025-01-19T12:57:44Z</time>
      </trkpt>
      <trkpt lat="43.40787" lon="6.66233">
        <ele>155.9</ele>
        <time>2025-01-19T12:57:45Z</time>
      </trkpt>
      <trkpt lat="43.40787" lon="6.66233">
        <ele>155.9</ele>
        <time>2025-01-19T12:57:46Z</time>
      </trkpt>
      <trkpt lat="43.40787" lon="6.66233">
        <ele>156</ele>
        <time>2025-01-19T12:57:47Z</time>
      </trkpt>
      <trkpt lat="43.40787" lon="6.66233">
        <ele>156</ele>
        <time>2025-01-19T12:57:48Z</time>
      </trkpt>
      <trkpt lat="43.40787" lon="6.66233">
        <ele>156</ele>
        <time>2025-01-19T12:57:49Z</time>
      </trkpt>
      <trkpt lat="43.40787" lon="6.66233">
        <ele>156.1</ele>
        <time>2025-01-19T12:57:50Z</time>
      </trkpt>
      <trkpt lat="43.40787" lon="6.66233">
        <ele>156.1</ele>
        <time>2025-01-19T12:57:51Z</time>
      </trkpt>
      <trkpt lat="43.40787" lon="6.66233">
        <ele>156.2</ele>
        <time>2025-01-19T12:57:52Z</time>
      </trkpt>
      <trkpt lat="43.40787" lon="6.66233">
        <ele>156.2</ele>
        <time>2025-01-19T12:57:53Z</time>
      </trkpt>
      <trkpt lat="43.40787" lon="6.66233">
        <ele>156.1</ele>
        <time>2025-01-19T12:57:54Z</time>
      </trkpt>
      <trkpt lat="43.40787" lon="6.66233">
        <ele>156</ele>
        <time>2025-01-19T12:57:55Z</time>
      </trkpt>
      <trkpt lat="43.40787" lon="6.66233">
        <ele>155.9</ele>
        <time>2025-01-19T12:57:56Z</time>
      </trkpt>
      <trkpt lat="43.40787" lon="6.66233">
        <ele>155.8</ele>
        <time>2025-01-19T12:57:57Z</time>
      </trkpt>
      <trkpt lat="43.40787" lon="6.66233">
        <ele>155.8</ele>
        <time>2025-01-19T12:57:58Z</time>
      </trkpt>
      <trkpt lat="43.40788" lon="6.66233">
        <ele>155.8</ele>
        <time>2025-01-19T12:57:59Z</time>
      </trkpt>
      <trkpt lat="43.40788" lon="6.66233">
        <ele>155.8</ele>
        <time>2025-01-19T12:58:00Z</time>
      </trkpt>
      <trkpt lat="43.40788" lon="6.66233">
        <ele>155.8</ele>
        <time>2025-01-19T12:58:01Z</time>
      </trkpt>
      <trkpt lat="43.40788" lon="6.66233">
        <ele>155.8</ele>
        <time>2025-01-19T12:58:02Z</time>
      </trkpt>
      <trkpt lat="43.40787" lon="6.66233">
        <ele>155.8</ele>
        <time>2025-01-19T12:58:03Z</time>
      </trkpt>
      <trkpt lat="43.40787" lon="6.66233">
        <ele>155.8</ele>
        <time>2025-01-19T12:58:04Z</time>
      </trkpt>
      <trkpt lat="43.40787" lon="6.66233">
        <ele>155.7</ele>
        <time>2025-01-19T12:58:05Z</time>
      </trkpt>
      <trkpt lat="43.40788" lon="6.66233">
        <ele>155.7</ele>
        <time>2025-01-19T12:58:06Z</time>
      </trkpt>
      <trkpt lat="43.40788" lon="6.66233">
        <ele>155.8</ele>
        <time>2025-01-19T12:58:07Z</time>
      </trkpt>
      <trkpt lat="43.40788" lon="6.66233">
        <ele>155.8</ele>
        <time>2025-01-19T12:58:08Z</time>
      </trkpt>
      <trkpt lat="43.40788" lon="6.66233">
        <ele>155.9</ele>
        <time>2025-01-19T12:58:09Z</time>
      </trkpt>
      <trkpt lat="43.40788" lon="6.66233">
        <ele>155.9</ele>
        <time>2025-01-19T12:58:10Z</time>
      </trkpt>
      <trkpt lat="43.40788" lon="6.66233">
        <ele>155.9</ele>
        <time>2025-01-19T12:58:11Z</time>
      </trkpt>
      <trkpt lat="43.40788" lon="6.66234">
        <ele>155.9</ele>
        <time>2025-01-19T12:58:12Z</time>
      </trkpt>
      <trkpt lat="43.40788" lon="6.66234">
        <ele>155.9</ele>
        <time>2025-01-19T12:58:13Z</time>
      </trkpt>
      <trkpt lat="43.40788" lon="6.66235">
        <ele>155.9</ele>
        <time>2025-01-19T12:58:14Z</time>
      </trkpt>
      <trkpt lat="43.40788" lon="6.66235">
        <ele>155.8</ele>
        <time>2025-01-19T12:58:15Z</time>
      </trkpt>
      <trkpt lat="43.40789" lon="6.66236">
        <ele>155.8</ele>
        <time>2025-01-19T12:58:16Z</time>
      </trkpt>
      <trkpt lat="43.40789" lon="6.66237">
        <ele>155.7</ele>
        <time>2025-01-19T12:58:17Z</time>
      </trkpt>
      <trkpt lat="43.4079" lon="6.66238">
        <ele>155.7</ele>
        <time>2025-01-19T12:58:18Z</time>
      </trkpt>
      <trkpt lat="43.4079" lon="6.66239">
        <ele>155.6</ele>
        <time>2025-01-19T12:58:19Z</time>
      </trkpt>
      <trkpt lat="43.4079" lon="6.66239">
        <ele>155.7</ele>
        <time>2025-01-19T12:58:20Z</time>
      </trkpt>
      <trkpt lat="43.40791" lon="6.6624">
        <ele>155.7</ele>
        <time>2025-01-19T12:58:21Z</time>
      </trkpt>
      <trkpt lat="43.40792" lon="6.66241">
        <ele>155.7</ele>
        <time>2025-01-19T12:58:22Z</time>
      </trkpt>
      <trkpt lat="43.40792" lon="6.66242">
        <ele>155.6</ele>
        <time>2025-01-19T12:58:23Z</time>
      </trkpt>
      <trkpt lat="43.40793" lon="6.66242">
        <ele>155.6</ele>
        <time>2025-01-19T12:58:24Z</time>
      </trkpt>
      <trkpt lat="43.40793" lon="6.66242">
        <ele>155.5</ele>
        <time>2025-01-19T12:58:25Z</time>
      </trkpt>
      <trkpt lat="43.40794" lon="6.66244">
        <ele>155.4</ele>
        <time>2025-01-19T12:58:26Z</time>
      </trkpt>
      <trkpt lat="43.40795" lon="6.66244">
        <ele>155.4</ele>
        <time>2025-01-19T12:58:27Z</time>
      </trkpt>
      <trkpt lat="43.40795" lon="6.66245">
        <ele>155.3</ele>
        <time>2025-01-19T12:58:28Z</time>
      </trkpt>
      <trkpt lat="43.40796" lon="6.66246">
        <ele>155.1</ele>
        <time>2025-01-19T12:58:29Z</time>
      </trkpt>
      <trkpt lat="43.40797" lon="6.66246">
        <ele>154.9</ele>
        <time>2025-01-19T12:58:30Z</time>
      </trkpt>
      <trkpt lat="43.40797" lon="6.66247">
        <ele>154.9</ele>
        <time>2025-01-19T12:58:31Z</time>
      </trkpt>
      <trkpt lat="43.40798" lon="6.66248">
        <ele>154.9</ele>
        <time>2025-01-19T12:58:32Z</time>
      </trkpt>
      <trkpt lat="43.40799" lon="6.66249">
        <ele>154.7</ele>
        <time>2025-01-19T12:58:33Z</time>
      </trkpt>
      <trkpt lat="43.408" lon="6.6625">
        <ele>154.7</ele>
        <time>2025-01-19T12:58:34Z</time>
      </trkpt>
      <trkpt lat="43.40801" lon="6.66252">
        <ele>154.5</ele>
        <time>2025-01-19T12:58:35Z</time>
      </trkpt>
      <trkpt lat="43.40801" lon="6.66253">
        <ele>154.4</ele>
        <time>2025-01-19T12:58:36Z</time>
      </trkpt>
      <trkpt lat="43.40802" lon="6.66254">
        <ele>154.3</ele>
        <time>2025-01-19T12:58:37Z</time>
      </trkpt>
      <trkpt lat="43.40803" lon="6.66255">
        <ele>154.2</ele>
        <time>2025-01-19T12:58:38Z</time>
      </trkpt>
      <trkpt lat="43.40803" lon="6.66256">
        <ele>154.1</ele>
        <time>2025-01-19T12:58:39Z</time>
      </trkpt>
      <trkpt lat="43.40804" lon="6.66256">
        <ele>153.9</ele>
        <time>2025-01-19T12:58:40Z</time>
      </trkpt>
      <trkpt lat="43.40804" lon="6.66257">
        <ele>153.8</ele>
        <time>2025-01-19T12:58:41Z</time>
      </trkpt>
      <trkpt lat="43.40804" lon="6.66257">
        <ele>153.7</ele>
        <time>2025-01-19T12:58:42Z</time>
      </trkpt>
      <trkpt lat="43.40804" lon="6.66258">
        <ele>153.6</ele>
        <time>2025-01-19T12:58:43Z</time>
      </trkpt>
      <trkpt lat="43.40804" lon="6.6626">
        <ele>153.6</ele>
        <time>2025-01-19T12:58:44Z</time>
      </trkpt>
      <trkpt lat="43.40804" lon="6.66261">
        <ele>153.6</ele>
        <time>2025-01-19T12:58:45Z</time>
      </trkpt>
      <trkpt lat="43.40805" lon="6.66262">
        <ele>153.6</ele>
        <time>2025-01-19T12:58:46Z</time>
      </trkpt>
      <trkpt lat="43.40804" lon="6.66263">
        <ele>153.5</ele>
        <time>2025-01-19T12:58:47Z</time>
      </trkpt>
      <trkpt lat="43.40804" lon="6.66263">
        <ele>153.5</ele>
        <time>2025-01-19T12:58:48Z</time>
      </trkpt>
      <trkpt lat="43.40804" lon="6.66263">
        <ele>153.5</ele>
        <time>2025-01-19T12:58:49Z</time>
      </trkpt>
      <trkpt lat="43.40804" lon="6.66263">
        <ele>153.4</ele>
        <time>2025-01-19T12:58:50Z</time>
      </trkpt>
      <trkpt lat="43.40805" lon="6.66263">
        <ele>153.4</ele>
        <time>2025-01-19T12:58:51Z</time>
      </trkpt>
      <trkpt lat="43.40805" lon="6.66263">
        <ele>153.4</ele>
        <time>2025-01-19T12:58:52Z</time>
      </trkpt>
      <trkpt lat="43.40805" lon="6.66263">
        <ele>153.4</ele>
        <time>2025-01-19T12:58:53Z</time>
      </trkpt>
      <trkpt lat="43.40805" lon="6.66264">
        <ele>153.4</ele>
        <time>2025-01-19T12:58:54Z</time>
      </trkpt>
      <trkpt lat="43.40805" lon="6.66264">
        <ele>153.4</ele>
        <time>2025-01-19T12:58:55Z</time>
      </trkpt>
      <trkpt lat="43.40805" lon="6.66264">
        <ele>153.5</ele>
        <time>2025-01-19T12:58:56Z</time>
      </trkpt>
      <trkpt lat="43.40805" lon="6.66264">
        <ele>153.5</ele>
        <time>2025-01-19T12:58:57Z</time>
      </trkpt>
      <trkpt lat="43.40805" lon="6.66264">
        <ele>153.5</ele>
        <time>2025-01-19T12:58:58Z</time>
      </trkpt>
      <trkpt lat="43.40805" lon="6.66264">
        <ele>153.5</ele>
        <time>2025-01-19T12:58:59Z</time>
      </trkpt>
      <trkpt lat="43.40805" lon="6.66265">
        <ele>153.5</ele>
        <time>2025-01-19T12:59:00Z</time>
      </trkpt>
      <trkpt lat="43.40805" lon="6.66265">
        <ele>153.4</ele>
        <time>2025-01-19T12:59:01Z</time>
      </trkpt>
      <trkpt lat="43.40805" lon="6.66265">
        <ele>153.4</ele>
        <time>2025-01-19T12:59:02Z</time>
      </trkpt>
      <trkpt lat="43.40805" lon="6.66265">
        <ele>153.4</ele>
        <time>2025-01-19T12:59:03Z</time>
      </trkpt>
      <trkpt lat="43.40805" lon="6.66265">
        <ele>153.4</ele>
        <time>2025-01-19T12:59:04Z</time>
      </trkpt>
      <trkpt lat="43.40805" lon="6.66265">
        <ele>153.3</ele>
        <time>2025-01-19T12:59:05Z</time>
      </trkpt>
      <trkpt lat="43.40805" lon="6.66265">
        <ele>153.3</ele>
        <time>2025-01-19T12:59:06Z</time>
      </trkpt>
      <trkpt lat="43.40805" lon="6.66266">
        <ele>153.4</ele>
        <time>2025-01-19T12:59:07Z</time>
      </trkpt>
      <trkpt lat="43.40805" lon="6.66266">
        <ele>153.3</ele>
        <time>2025-01-19T12:59:08Z</time>
      </trkpt>
      <trkpt lat="43.40805" lon="6.66266">
        <ele>153.4</ele>
        <time>2025-01-19T12:59:09Z</time>
      </trkpt>
      <trkpt lat="43.40805" lon="6.66266">
        <ele>153.4</ele>
        <time>2025-01-19T12:59:10Z</time>
      </trkpt>
      <trkpt lat="43.40804" lon="6.66266">
        <ele>153.4</ele>
        <time>2025-01-19T12:59:11Z</time>
      </trkpt>
      <trkpt lat="43.40804" lon="6.66266">
        <ele>153.4</ele>
        <time>2025-01-19T12:59:12Z</time>
      </trkpt>
      <trkpt lat="43.40804" lon="6.66266">
        <ele>153.4</ele>
        <time>2025-01-19T12:59:13Z</time>
      </trkpt>
      <trkpt lat="43.40805" lon="6.66266">
        <ele>153.4</ele>
        <time>2025-01-19T12:59:14Z</time>
      </trkpt>
      <trkpt lat="43.40805" lon="6.66266">
        <ele>153.4</ele>
        <time>2025-01-19T12:59:15Z</time>
      </trkpt>
      <trkpt lat="43.40805" lon="6.66266">
        <ele>153.4</ele>
        <time>2025-01-19T12:59:16Z</time>
      </trkpt>
      <trkpt lat="43.40805" lon="6.66266">
        <ele>153.4</ele>
        <time>2025-01-19T12:59:17Z</time>
      </trkpt>
      <trkpt lat="43.40805" lon="6.66266">
        <ele>153.3</ele>
        <time>2025-01-19T12:59:18Z</time>
      </trkpt>
      <trkpt lat="43.40805" lon="6.66266">
        <ele>153.3</ele>
        <time>2025-01-19T12:59:19Z</time>
      </trkpt>
      <trkpt lat="43.40805" lon="6.66267">
        <ele>153.3</ele>
        <time>2025-01-19T12:59:20Z</time>
      </trkpt>
      <trkpt lat="43.40805" lon="6.66267">
        <ele>153.3</ele>
        <time>2025-01-19T12:59:21Z</time>
      </trkpt>
      <trkpt lat="43.40805" lon="6.66267">
        <ele>153.4</ele>
        <time>2025-01-19T12:59:22Z</time>
      </trkpt>
      <trkpt lat="43.40805" lon="6.66267">
        <ele>153.4</ele>
        <time>2025-01-19T12:59:23Z</time>
      </trkpt>
      <trkpt lat="43.40805" lon="6.66267">
        <ele>153.4</ele>
        <time>2025-01-19T12:59:24Z</time>
      </trkpt>
      <trkpt lat="43.40805" lon="6.66267">
        <ele>153.4</ele>
        <time>2025-01-19T12:59:25Z</time>
      </trkpt>
      <trkpt lat="43.40805" lon="6.66267">
        <ele>153.4</ele>
        <time>2025-01-19T12:59:26Z</time>
      </trkpt>
      <trkpt lat="43.40805" lon="6.66268">
        <ele>153.4</ele>
        <time>2025-01-19T12:59:27Z</time>
      </trkpt>
      <trkpt lat="43.40805" lon="6.66268">
        <ele>153.4</ele>
        <time>2025-01-19T12:59:28Z</time>
      </trkpt>
      <trkpt lat="43.40806" lon="6.66269">
        <ele>153.4</ele>
        <time>2025-01-19T12:59:29Z</time>
      </trkpt>
      <trkpt lat="43.40806" lon="6.6627">
        <ele>153.5</ele>
        <time>2025-01-19T12:59:30Z</time>
      </trkpt>
      <trkpt lat="43.40807" lon="6.66272">
        <ele>153.6</ele>
        <time>2025-01-19T12:59:31Z</time>
      </trkpt>
      <trkpt lat="43.40808" lon="6.66273">
        <ele>153.7</ele>
        <time>2025-01-19T12:59:32Z</time>
      </trkpt>
      <trkpt lat="43.40809" lon="6.66274">
        <ele>153.7</ele>
        <time>2025-01-19T12:59:33Z</time>
      </trkpt>
      <trkpt lat="43.4081" lon="6.66275">
        <ele>153.8</ele>
        <time>2025-01-19T12:59:34Z</time>
      </trkpt>
      <trkpt lat="43.40811" lon="6.66276">
        <ele>153.8</ele>
        <time>2025-01-19T12:59:35Z</time>
      </trkpt>
      <trkpt lat="43.40811" lon="6.66277">
        <ele>153.8</ele>
        <time>2025-01-19T12:59:36Z</time>
      </trkpt>
      <trkpt lat="43.40812" lon="6.66278">
        <ele>153.7</ele>
        <time>2025-01-19T12:59:37Z</time>
      </trkpt>
      <trkpt lat="43.40813" lon="6.66279">
        <ele>153.6</ele>
        <time>2025-01-19T12:59:38Z</time>
      </trkpt>
      <trkpt lat="43.40814" lon="6.66281">
        <ele>153.5</ele>
        <time>2025-01-19T12:59:39Z</time>
      </trkpt>
      <trkpt lat="43.40814" lon="6.66282">
        <ele>153.3</ele>
        <time>2025-01-19T12:59:40Z</time>
      </trkpt>
      <trkpt lat="43.40815" lon="6.66283">
        <ele>153.2</ele>
        <time>2025-01-19T12:59:41Z</time>
      </trkpt>
      <trkpt lat="43.40816" lon="6.66284">
        <ele>153.1</ele>
        <time>2025-01-19T12:59:42Z</time>
      </trkpt>
      <trkpt lat="43.40817" lon="6.66285">
        <ele>153</ele>
        <time>2025-01-19T12:59:43Z</time>
      </trkpt>
      <trkpt lat="43.40818" lon="6.66286">
        <ele>152.9</ele>
        <time>2025-01-19T12:59:44Z</time>
      </trkpt>
      <trkpt lat="43.40818" lon="6.66287">
        <ele>152.8</ele>
        <time>2025-01-19T12:59:45Z</time>
      </trkpt>
      <trkpt lat="43.40819" lon="6.66288">
        <ele>152.7</ele>
        <time>2025-01-19T12:59:46Z</time>
      </trkpt>
      <trkpt lat="43.40819" lon="6.66289">
        <ele>152.6</ele>
        <time>2025-01-19T12:59:47Z</time>
      </trkpt>
      <trkpt lat="43.4082" lon="6.66291">
        <ele>152.6</ele>
        <time>2025-01-19T12:59:48Z</time>
      </trkpt>
      <trkpt lat="43.40821" lon="6.66292">
        <ele>152.6</ele>
        <time>2025-01-19T12:59:49Z</time>
      </trkpt>
      <trkpt lat="43.40822" lon="6.66293">
        <ele>152.6</ele>
        <time>2025-01-19T12:59:50Z</time>
      </trkpt>
      <trkpt lat="43.40822" lon="6.66293">
        <ele>152.6</ele>
        <time>2025-01-19T12:59:51Z</time>
      </trkpt>
      <trkpt lat="43.40823" lon="6.66294">
        <ele>152.6</ele>
        <time>2025-01-19T12:59:52Z</time>
      </trkpt>
      <trkpt lat="43.40824" lon="6.66295">
        <ele>152.5</ele>
        <time>2025-01-19T12:59:53Z</time>
      </trkpt>
      <trkpt lat="43.40824" lon="6.66296">
        <ele>152.6</ele>
        <time>2025-01-19T12:59:54Z</time>
      </trkpt>
      <trkpt lat="43.40824" lon="6.66297">
        <ele>152.6</ele>
        <time>2025-01-19T12:59:55Z</time>
      </trkpt>
      <trkpt lat="43.40825" lon="6.66297">
        <ele>152.5</ele>
        <time>2025-01-19T12:59:56Z</time>
      </trkpt>
      <trkpt lat="43.40825" lon="6.66298">
        <ele>152.5</ele>
        <time>2025-01-19T12:59:57Z</time>
      </trkpt>
      <trkpt lat="43.40825" lon="6.66299">
        <ele>152.4</ele>
        <time>2025-01-19T12:59:58Z</time>
      </trkpt>
      <trkpt lat="43.40826" lon="6.663">
        <ele>152.4</ele>
        <time>2025-01-19T12:59:59Z</time>
      </trkpt>
      <trkpt lat="43.40826" lon="6.66301">
        <ele>152.4</ele>
        <time>2025-01-19T13:00:00Z</time>
      </trkpt>
      <trkpt lat="43.40826" lon="6.66302">
        <ele>152.3</ele>
        <time>2025-01-19T13:00:01Z</time>
      </trkpt>
      <trkpt lat="43.40827" lon="6.66303">
        <ele>152.3</ele>
        <time>2025-01-19T13:00:02Z</time>
      </trkpt>
      <trkpt lat="43.40827" lon="6.66304">
        <ele>152.2</ele>
        <time>2025-01-19T13:00:03Z</time>
      </trkpt>
      <trkpt lat="43.40828" lon="6.66305">
        <ele>152.2</ele>
        <time>2025-01-19T13:00:04Z</time>
      </trkpt>
      <trkpt lat="43.40828" lon="6.66306">
        <ele>152</ele>
        <time>2025-01-19T13:00:05Z</time>
      </trkpt>
      <trkpt lat="43.40829" lon="6.66307">
        <ele>151.9</ele>
        <time>2025-01-19T13:00:06Z</time>
      </trkpt>
      <trkpt lat="43.4083" lon="6.66308">
        <ele>151.8</ele>
        <time>2025-01-19T13:00:07Z</time>
      </trkpt>
      <trkpt lat="43.4083" lon="6.66309">
        <ele>151.7</ele>
        <time>2025-01-19T13:00:08Z</time>
      </trkpt>
      <trkpt lat="43.40831" lon="6.6631">
        <ele>151.6</ele>
        <time>2025-01-19T13:00:09Z</time>
      </trkpt>
      <trkpt lat="43.40832" lon="6.66311">
        <ele>151.5</ele>
        <time>2025-01-19T13:00:10Z</time>
      </trkpt>
      <trkpt lat="43.40832" lon="6.66311">
        <ele>151.5</ele>
        <time>2025-01-19T13:00:11Z</time>
      </trkpt>
      <trkpt lat="43.40833" lon="6.66313">
        <ele>151.3</ele>
        <time>2025-01-19T13:00:12Z</time>
      </trkpt>
      <trkpt lat="43.40833" lon="6.66314">
        <ele>151.3</ele>
        <time>2025-01-19T13:00:13Z</time>
      </trkpt>
      <trkpt lat="43.40834" lon="6.66315">
        <ele>151.2</ele>
        <time>2025-01-19T13:00:14Z</time>
      </trkpt>
      <trkpt lat="43.40835" lon="6.66316">
        <ele>151.2</ele>
        <time>2025-01-19T13:00:15Z</time>
      </trkpt>
      <trkpt lat="43.40836" lon="6.66316">
        <ele>151.1</ele>
        <time>2025-01-19T13:00:16Z</time>
      </trkpt>
      <trkpt lat="43.40836" lon="6.66317">
        <ele>151.1</ele>
        <time>2025-01-19T13:00:17Z</time>
      </trkpt>
      <trkpt lat="43.40837" lon="6.66318">
        <ele>151</ele>
        <time>2025-01-19T13:00:18Z</time>
      </trkpt>
      <trkpt lat="43.40838" lon="6.66319">
        <ele>151</ele>
        <time>2025-01-19T13:00:19Z</time>
      </trkpt>
      <trkpt lat="43.40838" lon="6.6632">
        <ele>151.1</ele>
        <time>2025-01-19T13:00:20Z</time>
      </trkpt>
      <trkpt lat="43.40839" lon="6.66321">
        <ele>151</ele>
        <time>2025-01-19T13:00:21Z</time>
      </trkpt>
      <trkpt lat="43.4084" lon="6.66322">
        <ele>151</ele>
        <time>2025-01-19T13:00:22Z</time>
      </trkpt>
      <trkpt lat="43.40841" lon="6.66323">
        <ele>151</ele>
        <time>2025-01-19T13:00:23Z</time>
      </trkpt>
      <trkpt lat="43.40841" lon="6.66324">
        <ele>150.9</ele>
        <time>2025-01-19T13:00:24Z</time>
      </trkpt>
      <trkpt lat="43.40842" lon="6.66325">
        <ele>150.9</ele>
        <time>2025-01-19T13:00:25Z</time>
      </trkpt>
      <trkpt lat="43.40842" lon="6.66326">
        <ele>150.7</ele>
        <time>2025-01-19T13:00:26Z</time>
      </trkpt>
      <trkpt lat="43.40843" lon="6.66328">
        <ele>150.6</ele>
        <time>2025-01-19T13:00:27Z</time>
      </trkpt>
      <trkpt lat="43.40844" lon="6.66329">
        <ele>150.5</ele>
        <time>2025-01-19T13:00:28Z</time>
      </trkpt>
      <trkpt lat="43.40844" lon="6.6633">
        <ele>150.4</ele>
        <time>2025-01-19T13:00:29Z</time>
      </trkpt>
      <trkpt lat="43.40845" lon="6.66331">
        <ele>150.3</ele>
        <time>2025-01-19T13:00:30Z</time>
      </trkpt>
      <trkpt lat="43.40845" lon="6.66331">
        <ele>150</ele>
        <time>2025-01-19T13:00:31Z</time>
      </trkpt>
      <trkpt lat="43.40846" lon="6.66332">
        <ele>150</ele>
        <time>2025-01-19T13:00:32Z</time>
      </trkpt>
      <trkpt lat="43.40846" lon="6.66334">
        <ele>149.9</ele>
        <time>2025-01-19T13:00:33Z</time>
      </trkpt>
      <trkpt lat="43.40847" lon="6.66335">
        <ele>149.9</ele>
        <time>2025-01-19T13:00:34Z</time>
      </trkpt>
      <trkpt lat="43.40847" lon="6.66336">
        <ele>149.9</ele>
        <time>2025-01-19T13:00:35Z</time>
      </trkpt>
      <trkpt lat="43.40848" lon="6.66337">
        <ele>149.9</ele>
        <time>2025-01-19T13:00:36Z</time>
      </trkpt>
      <trkpt lat="43.40849" lon="6.66338">
        <ele>149.8</ele>
        <time>2025-01-19T13:00:37Z</time>
      </trkpt>
      <trkpt lat="43.40849" lon="6.66339">
        <ele>149.8</ele>
        <time>2025-01-19T13:00:38Z</time>
      </trkpt>
      <trkpt lat="43.4085" lon="6.6634">
        <ele>149.7</ele>
        <time>2025-01-19T13:00:39Z</time>
      </trkpt>
      <trkpt lat="43.40851" lon="6.66341">
        <ele>149.7</ele>
        <time>2025-01-19T13:00:40Z</time>
      </trkpt>
      <trkpt lat="43.40852" lon="6.66341">
        <ele>149.6</ele>
        <time>2025-01-19T13:00:41Z</time>
      </trkpt>
      <trkpt lat="43.40852" lon="6.66342">
        <ele>149.7</ele>
        <time>2025-01-19T13:00:42Z</time>
      </trkpt>
      <trkpt lat="43.40853" lon="6.66343">
        <ele>149.8</ele>
        <time>2025-01-19T13:00:43Z</time>
      </trkpt>
      <trkpt lat="43.40854" lon="6.66344">
        <ele>149.8</ele>
        <time>2025-01-19T13:00:44Z</time>
      </trkpt>
      <trkpt lat="43.40854" lon="6.66345">
        <ele>149.8</ele>
        <time>2025-01-19T13:00:45Z</time>
      </trkpt>
      <trkpt lat="43.40855" lon="6.66346">
        <ele>149.8</ele>
        <time>2025-01-19T13:00:46Z</time>
      </trkpt>
      <trkpt lat="43.40856" lon="6.66346">
        <ele>149.8</ele>
        <time>2025-01-19T13:00:47Z</time>
      </trkpt>
      <trkpt lat="43.40857" lon="6.66347">
        <ele>149.7</ele>
        <time>2025-01-19T13:00:48Z</time>
      </trkpt>
      <trkpt lat="43.40858" lon="6.66348">
        <ele>149.6</ele>
        <time>2025-01-19T13:00:49Z</time>
      </trkpt>
      <trkpt lat="43.40859" lon="6.66349">
        <ele>149.6</ele>
        <time>2025-01-19T13:00:50Z</time>
      </trkpt>
      <trkpt lat="43.4086" lon="6.6635">
        <ele>149.5</ele>
        <time>2025-01-19T13:00:51Z</time>
      </trkpt>
      <trkpt lat="43.40859" lon="6.66351">
        <ele>149.4</ele>
        <time>2025-01-19T13:00:52Z</time>
      </trkpt>
      <trkpt lat="43.4086" lon="6.66352">
        <ele>149.4</ele>
        <time>2025-01-19T13:00:53Z</time>
      </trkpt>
      <trkpt lat="43.40861" lon="6.66353">
        <ele>149.4</ele>
        <time>2025-01-19T13:00:54Z</time>
      </trkpt>
      <trkpt lat="43.40861" lon="6.66354">
        <ele>149.3</ele>
        <time>2025-01-19T13:00:55Z</time>
      </trkpt>
      <trkpt lat="43.40862" lon="6.66355">
        <ele>149.1</ele>
        <time>2025-01-19T13:00:56Z</time>
      </trkpt>
      <trkpt lat="43.40863" lon="6.66355">
        <ele>149.1</ele>
        <time>2025-01-19T13:00:57Z</time>
      </trkpt>
      <trkpt lat="43.40863" lon="6.66357">
        <ele>149.1</ele>
        <time>2025-01-19T13:00:58Z</time>
      </trkpt>
      <trkpt lat="43.40864" lon="6.66357">
        <ele>149.1</ele>
        <time>2025-01-19T13:00:59Z</time>
      </trkpt>
      <trkpt lat="43.40865" lon="6.66358">
        <ele>149</ele>
        <time>2025-01-19T13:01:00Z</time>
      </trkpt>
      <trkpt lat="43.40865" lon="6.66359">
        <ele>148.9</ele>
        <time>2025-01-19T13:01:01Z</time>
      </trkpt>
      <trkpt lat="43.40866" lon="6.6636">
        <ele>148.9</ele>
        <time>2025-01-19T13:01:02Z</time>
      </trkpt>
      <trkpt lat="43.40866" lon="6.66361">
        <ele>148.8</ele>
        <time>2025-01-19T13:01:03Z</time>
      </trkpt>
      <trkpt lat="43.40866" lon="6.66363">
        <ele>148.7</ele>
        <time>2025-01-19T13:01:04Z</time>
      </trkpt>
      <trkpt lat="43.40867" lon="6.66364">
        <ele>148.4</ele>
        <time>2025-01-19T13:01:05Z</time>
      </trkpt>
      <trkpt lat="43.40867" lon="6.66365">
        <ele>148.3</ele>
        <time>2025-01-19T13:01:06Z</time>
      </trkpt>
      <trkpt lat="43.40867" lon="6.66367">
        <ele>148.2</ele>
        <time>2025-01-19T13:01:07Z</time>
      </trkpt>
      <trkpt lat="43.40868" lon="6.66368">
        <ele>148.2</ele>
        <time>2025-01-19T13:01:08Z</time>
      </trkpt>
      <trkpt lat="43.40868" lon="6.66369">
        <ele>148.1</ele>
        <time>2025-01-19T13:01:09Z</time>
      </trkpt>
      <trkpt lat="43.40869" lon="6.6637">
        <ele>148</ele>
        <time>2025-01-19T13:01:10Z</time>
      </trkpt>
      <trkpt lat="43.40869" lon="6.66371">
        <ele>148.1</ele>
        <time>2025-01-19T13:01:11Z</time>
      </trkpt>
      <trkpt lat="43.4087" lon="6.66372">
        <ele>148.1</ele>
        <time>2025-01-19T13:01:12Z</time>
      </trkpt>
      <trkpt lat="43.4087" lon="6.66373">
        <ele>148.1</ele>
        <time>2025-01-19T13:01:13Z</time>
      </trkpt>
      <trkpt lat="43.40871" lon="6.66375">
        <ele>148.1</ele>
        <time>2025-01-19T13:01:14Z</time>
      </trkpt>
      <trkpt lat="43.40872" lon="6.66376">
        <ele>148</ele>
        <time>2025-01-19T13:01:15Z</time>
      </trkpt>
      <trkpt lat="43.40872" lon="6.66376">
        <ele>147.9</ele>
        <time>2025-01-19T13:01:16Z</time>
      </trkpt>
      <trkpt lat="43.40873" lon="6.66378">
        <ele>148</ele>
        <time>2025-01-19T13:01:17Z</time>
      </trkpt>
      <trkpt lat="43.40874" lon="6.66378">
        <ele>148</ele>
        <time>2025-01-19T13:01:18Z</time>
      </trkpt>
      <trkpt lat="43.40875" lon="6.66379">
        <ele>147.9</ele>
        <time>2025-01-19T13:01:19Z</time>
      </trkpt>
      <trkpt lat="43.40875" lon="6.6638">
        <ele>147.8</ele>
        <time>2025-01-19T13:01:20Z</time>
      </trkpt>
      <trkpt lat="43.40876" lon="6.66382">
        <ele>147.7</ele>
        <time>2025-01-19T13:01:21Z</time>
      </trkpt>
      <trkpt lat="43.40877" lon="6.66382">
        <ele>147.7</ele>
        <time>2025-01-19T13:01:22Z</time>
      </trkpt>
      <trkpt lat="43.40878" lon="6.66383">
        <ele>147.6</ele>
        <time>2025-01-19T13:01:23Z</time>
      </trkpt>
      <trkpt lat="43.40878" lon="6.66384">
        <ele>147.6</ele>
        <time>2025-01-19T13:01:24Z</time>
      </trkpt>
      <trkpt lat="43.40879" lon="6.66385">
        <ele>147.5</ele>
        <time>2025-01-19T13:01:25Z</time>
      </trkpt>
      <trkpt lat="43.4088" lon="6.66386">
        <ele>147.6</ele>
        <time>2025-01-19T13:01:26Z</time>
      </trkpt>
      <trkpt lat="43.4088" lon="6.66388">
        <ele>147.5</ele>
        <time>2025-01-19T13:01:27Z</time>
      </trkpt>
      <trkpt lat="43.4088" lon="6.66388">
        <ele>147.4</ele>
        <time>2025-01-19T13:01:28Z</time>
      </trkpt>
      <trkpt lat="43.40881" lon="6.66389">
        <ele>147.4</ele>
        <time>2025-01-19T13:01:29Z</time>
      </trkpt>
      <trkpt lat="43.40881" lon="6.6639">
        <ele>147.3</ele>
        <time>2025-01-19T13:01:30Z</time>
      </trkpt>
      <trkpt lat="43.40882" lon="6.66391">
        <ele>147.2</ele>
        <time>2025-01-19T13:01:31Z</time>
      </trkpt>
      <trkpt lat="43.40882" lon="6.66392">
        <ele>147.1</ele>
        <time>2025-01-19T13:01:32Z</time>
      </trkpt>
      <trkpt lat="43.40882" lon="6.66392">
        <ele>147.1</ele>
        <time>2025-01-19T13:01:33Z</time>
      </trkpt>
      <trkpt lat="43.40882" lon="6.66393">
        <ele>147</ele>
        <time>2025-01-19T13:01:34Z</time>
      </trkpt>
      <trkpt lat="43.40883" lon="6.66394">
        <ele>147</ele>
        <time>2025-01-19T13:01:35Z</time>
      </trkpt>
      <trkpt lat="43.40883" lon="6.66394">
        <ele>146.9</ele>
        <time>2025-01-19T13:01:36Z</time>
      </trkpt>
      <trkpt lat="43.40883" lon="6.66395">
        <ele>146.9</ele>
        <time>2025-01-19T13:01:37Z</time>
      </trkpt>
      <trkpt lat="43.40883" lon="6.66396">
        <ele>146.9</ele>
        <time>2025-01-19T13:01:38Z</time>
      </trkpt>
      <trkpt lat="43.40884" lon="6.66397">
        <ele>146.8</ele>
        <time>2025-01-19T13:01:39Z</time>
      </trkpt>
      <trkpt lat="43.40884" lon="6.66398">
        <ele>146.7</ele>
        <time>2025-01-19T13:01:40Z</time>
      </trkpt>
      <trkpt lat="43.40885" lon="6.664">
        <ele>146.7</ele>
        <time>2025-01-19T13:01:41Z</time>
      </trkpt>
      <trkpt lat="43.40886" lon="6.66401">
        <ele>146.6</ele>
        <time>2025-01-19T13:01:42Z</time>
      </trkpt>
      <trkpt lat="43.40886" lon="6.66401">
        <ele>146.5</ele>
        <time>2025-01-19T13:01:43Z</time>
      </trkpt>
      <trkpt lat="43.40887" lon="6.66402">
        <ele>146.5</ele>
        <time>2025-01-19T13:01:44Z</time>
      </trkpt>
      <trkpt lat="43.40887" lon="6.66403">
        <ele>146.4</ele>
        <time>2025-01-19T13:01:45Z</time>
      </trkpt>
      <trkpt lat="43.40888" lon="6.66404">
        <ele>146.3</ele>
        <time>2025-01-19T13:01:46Z</time>
      </trkpt>
      <trkpt lat="43.40889" lon="6.66405">
        <ele>146.2</ele>
        <time>2025-01-19T13:01:47Z</time>
      </trkpt>
      <trkpt lat="43.4089" lon="6.66406">
        <ele>146.2</ele>
        <time>2025-01-19T13:01:48Z</time>
      </trkpt>
      <trkpt lat="43.40891" lon="6.66407">
        <ele>146.1</ele>
        <time>2025-01-19T13:01:49Z</time>
      </trkpt>
      <trkpt lat="43.40891" lon="6.66408">
        <ele>146</ele>
        <time>2025-01-19T13:01:50Z</time>
      </trkpt>
      <trkpt lat="43.40891" lon="6.66409">
        <ele>145.9</ele>
        <time>2025-01-19T13:01:51Z</time>
      </trkpt>
      <trkpt lat="43.40892" lon="6.6641">
        <ele>145.8</ele>
        <time>2025-01-19T13:01:52Z</time>
      </trkpt>
      <trkpt lat="43.40892" lon="6.6641">
        <ele>145.6</ele>
        <time>2025-01-19T13:01:53Z</time>
      </trkpt>
      <trkpt lat="43.40893" lon="6.66411">
        <ele>145.4</ele>
        <time>2025-01-19T13:01:54Z</time>
      </trkpt>
      <trkpt lat="43.40893" lon="6.66412">
        <ele>145.3</ele>
        <time>2025-01-19T13:01:55Z</time>
      </trkpt>
      <trkpt lat="43.40893" lon="6.66413">
        <ele>145.2</ele>
        <time>2025-01-19T13:01:56Z</time>
      </trkpt>
      <trkpt lat="43.40893" lon="6.66415">
        <ele>145</ele>
        <time>2025-01-19T13:01:57Z</time>
      </trkpt>
      <trkpt lat="43.40893" lon="6.66416">
        <ele>144.9</ele>
        <time>2025-01-19T13:01:58Z</time>
      </trkpt>
      <trkpt lat="43.40893" lon="6.66418">
        <ele>144.9</ele>
        <time>2025-01-19T13:01:59Z</time>
      </trkpt>
      <trkpt lat="43.40894" lon="6.66419">
        <ele>144.8</ele>
        <time>2025-01-19T13:02:00Z</time>
      </trkpt>
      <trkpt lat="43.40894" lon="6.6642">
        <ele>144.6</ele>
        <time>2025-01-19T13:02:01Z</time>
      </trkpt>
      <trkpt lat="43.40894" lon="6.66421">
        <ele>144.5</ele>
        <time>2025-01-19T13:02:02Z</time>
      </trkpt>
      <trkpt lat="43.40894" lon="6.66422">
        <ele>144.5</ele>
        <time>2025-01-19T13:02:03Z</time>
      </trkpt>
      <trkpt lat="43.40894" lon="6.66422">
        <ele>144.3</ele>
        <time>2025-01-19T13:02:04Z</time>
      </trkpt>
      <trkpt lat="43.40895" lon="6.66423">
        <ele>144.1</ele>
        <time>2025-01-19T13:02:05Z</time>
      </trkpt>
      <trkpt lat="43.40895" lon="6.66423">
        <ele>143.9</ele>
        <time>2025-01-19T13:02:06Z</time>
      </trkpt>
      <trkpt lat="43.40895" lon="6.66424">
        <ele>143.8</ele>
        <time>2025-01-19T13:02:07Z</time>
      </trkpt>
      <trkpt lat="43.40895" lon="6.66425">
        <ele>143.7</ele>
        <time>2025-01-19T13:02:08Z</time>
      </trkpt>
      <trkpt lat="43.40896" lon="6.66426">
        <ele>143.6</ele>
        <time>2025-01-19T13:02:09Z</time>
      </trkpt>
      <trkpt lat="43.40896" lon="6.66427">
        <ele>143.6</ele>
        <time>2025-01-19T13:02:10Z</time>
      </trkpt>
      <trkpt lat="43.40897" lon="6.66428">
        <ele>143.5</ele>
        <time>2025-01-19T13:02:11Z</time>
      </trkpt>
      <trkpt lat="43.40897" lon="6.66429">
        <ele>143.4</ele>
        <time>2025-01-19T13:02:12Z</time>
      </trkpt>
      <trkpt lat="43.40898" lon="6.6643">
        <ele>143.3</ele>
        <time>2025-01-19T13:02:13Z</time>
      </trkpt>
      <trkpt lat="43.40898" lon="6.66432">
        <ele>143.1</ele>
        <time>2025-01-19T13:02:14Z</time>
      </trkpt>
      <trkpt lat="43.40898" lon="6.66433">
        <ele>143.1</ele>
        <time>2025-01-19T13:02:15Z</time>
      </trkpt>
      <trkpt lat="43.40899" lon="6.66434">
        <ele>142.8</ele>
        <time>2025-01-19T13:02:16Z</time>
      </trkpt>
      <trkpt lat="43.40899" lon="6.66435">
        <ele>142.7</ele>
        <time>2025-01-19T13:02:17Z</time>
      </trkpt>
      <trkpt lat="43.409" lon="6.66436">
        <ele>142.5</ele>
        <time>2025-01-19T13:02:18Z</time>
      </trkpt>
      <trkpt lat="43.40901" lon="6.66437">
        <ele>142.5</ele>
        <time>2025-01-19T13:02:19Z</time>
      </trkpt>
      <trkpt lat="43.40902" lon="6.66438">
        <ele>142.4</ele>
        <time>2025-01-19T13:02:20Z</time>
      </trkpt>
      <trkpt lat="43.40903" lon="6.66439">
        <ele>142.3</ele>
        <time>2025-01-19T13:02:21Z</time>
      </trkpt>
      <trkpt lat="43.40903" lon="6.6644">
        <ele>142.1</ele>
        <time>2025-01-19T13:02:22Z</time>
      </trkpt>
      <trkpt lat="43.40904" lon="6.66442">
        <ele>142</ele>
        <time>2025-01-19T13:02:23Z</time>
      </trkpt>
      <trkpt lat="43.40905" lon="6.66443">
        <ele>141.8</ele>
        <time>2025-01-19T13:02:24Z</time>
      </trkpt>
      <trkpt lat="43.40905" lon="6.66444">
        <ele>141.6</ele>
        <time>2025-01-19T13:02:25Z</time>
      </trkpt>
      <trkpt lat="43.40906" lon="6.66444">
        <ele>141.5</ele>
        <time>2025-01-19T13:02:26Z</time>
      </trkpt>
      <trkpt lat="43.40907" lon="6.66445">
        <ele>141.3</ele>
        <time>2025-01-19T13:02:27Z</time>
      </trkpt>
      <trkpt lat="43.40908" lon="6.66446">
        <ele>141.2</ele>
        <time>2025-01-19T13:02:28Z</time>
      </trkpt>
      <trkpt lat="43.40909" lon="6.66447">
        <ele>141</ele>
        <time>2025-01-19T13:02:29Z</time>
      </trkpt>
      <trkpt lat="43.40909" lon="6.66447">
        <ele>140.9</ele>
        <time>2025-01-19T13:02:30Z</time>
      </trkpt>
      <trkpt lat="43.4091" lon="6.66448">
        <ele>140.7</ele>
        <time>2025-01-19T13:02:31Z</time>
      </trkpt>
      <trkpt lat="43.40911" lon="6.66449">
        <ele>140.5</ele>
        <time>2025-01-19T13:02:32Z</time>
      </trkpt>
      <trkpt lat="43.40912" lon="6.6645">
        <ele>140.4</ele>
        <time>2025-01-19T13:02:33Z</time>
      </trkpt>
      <trkpt lat="43.40913" lon="6.6645">
        <ele>140.2</ele>
        <time>2025-01-19T13:02:34Z</time>
      </trkpt>
      <trkpt lat="43.40913" lon="6.66451">
        <ele>140.2</ele>
        <time>2025-01-19T13:02:35Z</time>
      </trkpt>
      <trkpt lat="43.40914" lon="6.66452">
        <ele>140.1</ele>
        <time>2025-01-19T13:02:36Z</time>
      </trkpt>
      <trkpt lat="43.40915" lon="6.66452">
        <ele>140.1</ele>
        <time>2025-01-19T13:02:37Z</time>
      </trkpt>
      <trkpt lat="43.40916" lon="6.66453">
        <ele>139.9</ele>
        <time>2025-01-19T13:02:38Z</time>
      </trkpt>
      <trkpt lat="43.40917" lon="6.66454">
        <ele>139.8</ele>
        <time>2025-01-19T13:02:39Z</time>
      </trkpt>
      <trkpt lat="43.40918" lon="6.66455">
        <ele>139.7</ele>
        <time>2025-01-19T13:02:40Z</time>
      </trkpt>
      <trkpt lat="43.40918" lon="6.66455">
        <ele>139.6</ele>
        <time>2025-01-19T13:02:41Z</time>
      </trkpt>
      <trkpt lat="43.40919" lon="6.66456">
        <ele>139.4</ele>
        <time>2025-01-19T13:02:42Z</time>
      </trkpt>
      <trkpt lat="43.4092" lon="6.66456">
        <ele>139.3</ele>
        <time>2025-01-19T13:02:43Z</time>
      </trkpt>
      <trkpt lat="43.40921" lon="6.66456">
        <ele>139.1</ele>
        <time>2025-01-19T13:02:44Z</time>
      </trkpt>
      <trkpt lat="43.40922" lon="6.66457">
        <ele>139</ele>
        <time>2025-01-19T13:02:45Z</time>
      </trkpt>
      <trkpt lat="43.40923" lon="6.66457">
        <ele>138.8</ele>
        <time>2025-01-19T13:02:46Z</time>
      </trkpt>
      <trkpt lat="43.40923" lon="6.66458">
        <ele>138.8</ele>
        <time>2025-01-19T13:02:47Z</time>
      </trkpt>
      <trkpt lat="43.40924" lon="6.66459">
        <ele>138.8</ele>
        <time>2025-01-19T13:02:48Z</time>
      </trkpt>
      <trkpt lat="43.40925" lon="6.66459">
        <ele>138.7</ele>
        <time>2025-01-19T13:02:49Z</time>
      </trkpt>
      <trkpt lat="43.40926" lon="6.66459">
        <ele>138.6</ele>
        <time>2025-01-19T13:02:50Z</time>
      </trkpt>
      <trkpt lat="43.40927" lon="6.6646">
        <ele>138.5</ele>
        <time>2025-01-19T13:02:51Z</time>
      </trkpt>
      <trkpt lat="43.40927" lon="6.6646">
        <ele>138.4</ele>
        <time>2025-01-19T13:02:52Z</time>
      </trkpt>
      <trkpt lat="43.40928" lon="6.6646">
        <ele>138.3</ele>
        <time>2025-01-19T13:02:53Z</time>
      </trkpt>
      <trkpt lat="43.40929" lon="6.66461">
        <ele>138.2</ele>
        <time>2025-01-19T13:02:54Z</time>
      </trkpt>
      <trkpt lat="43.4093" lon="6.66461">
        <ele>138</ele>
        <time>2025-01-19T13:02:55Z</time>
      </trkpt>
      <trkpt lat="43.40931" lon="6.66462">
        <ele>137.9</ele>
        <time>2025-01-19T13:02:56Z</time>
      </trkpt>
      <trkpt lat="43.40931" lon="6.66462">
        <ele>137.7</ele>
        <time>2025-01-19T13:02:57Z</time>
      </trkpt>
      <trkpt lat="43.40932" lon="6.66462">
        <ele>137.6</ele>
        <time>2025-01-19T13:02:58Z</time>
      </trkpt>
      <trkpt lat="43.40933" lon="6.66462">
        <ele>137.4</ele>
        <time>2025-01-19T13:02:59Z</time>
      </trkpt>
      <trkpt lat="43.40934" lon="6.66463">
        <ele>137.3</ele>
        <time>2025-01-19T13:03:00Z</time>
      </trkpt>
      <trkpt lat="43.40935" lon="6.66463">
        <ele>137.1</ele>
        <time>2025-01-19T13:03:01Z</time>
      </trkpt>
      <trkpt lat="43.40936" lon="6.66464">
        <ele>136.9</ele>
        <time>2025-01-19T13:03:02Z</time>
      </trkpt>
      <trkpt lat="43.40936" lon="6.66464">
        <ele>136.8</ele>
        <time>2025-01-19T13:03:03Z</time>
      </trkpt>
      <trkpt lat="43.40937" lon="6.66464">
        <ele>136.7</ele>
        <time>2025-01-19T13:03:04Z</time>
      </trkpt>
      <trkpt lat="43.40937" lon="6.66465">
        <ele>136.6</ele>
        <time>2025-01-19T13:03:05Z</time>
      </trkpt>
      <trkpt lat="43.40938" lon="6.66465">
        <ele>136.4</ele>
        <time>2025-01-19T13:03:06Z</time>
      </trkpt>
      <trkpt lat="43.40939" lon="6.66466">
        <ele>136.3</ele>
        <time>2025-01-19T13:03:07Z</time>
      </trkpt>
      <trkpt lat="43.4094" lon="6.66466">
        <ele>136.1</ele>
        <time>2025-01-19T13:03:08Z</time>
      </trkpt>
      <trkpt lat="43.40941" lon="6.66466">
        <ele>136</ele>
        <time>2025-01-19T13:03:09Z</time>
      </trkpt>
      <trkpt lat="43.40942" lon="6.66467">
        <ele>135.8</ele>
        <time>2025-01-19T13:03:10Z</time>
      </trkpt>
      <trkpt lat="43.40943" lon="6.66466">
        <ele>135.7</ele>
        <time>2025-01-19T13:03:11Z</time>
      </trkpt>
      <trkpt lat="43.40944" lon="6.66467">
        <ele>135.6</ele>
        <time>2025-01-19T13:03:12Z</time>
      </trkpt>
      <trkpt lat="43.40944" lon="6.66468">
        <ele>135.6</ele>
        <time>2025-01-19T13:03:13Z</time>
      </trkpt>
      <trkpt lat="43.40945" lon="6.66468">
        <ele>135.5</ele>
        <time>2025-01-19T13:03:14Z</time>
      </trkpt>
      <trkpt lat="43.40946" lon="6.66468">
        <ele>135.3</ele>
        <time>2025-01-19T13:03:15Z</time>
      </trkpt>
      <trkpt lat="43.40947" lon="6.66469">
        <ele>135.1</ele>
        <time>2025-01-19T13:03:16Z</time>
      </trkpt>
      <trkpt lat="43.40948" lon="6.66469">
        <ele>135</ele>
        <time>2025-01-19T13:03:17Z</time>
      </trkpt>
      <trkpt lat="43.4095" lon="6.6647">
        <ele>134.9</ele>
        <time>2025-01-19T13:03:18Z</time>
      </trkpt>
      <trkpt lat="43.4095" lon="6.6647">
        <ele>134.8</ele>
        <time>2025-01-19T13:03:19Z</time>
      </trkpt>
      <trkpt lat="43.40951" lon="6.66471">
        <ele>134.6</ele>
        <time>2025-01-19T13:03:20Z</time>
      </trkpt>
      <trkpt lat="43.40952" lon="6.66471">
        <ele>134.5</ele>
        <time>2025-01-19T13:03:21Z</time>
      </trkpt>
      <trkpt lat="43.40953" lon="6.66472">
        <ele>134.5</ele>
        <time>2025-01-19T13:03:22Z</time>
      </trkpt>
      <trkpt lat="43.40954" lon="6.66473">
        <ele>134.4</ele>
        <time>2025-01-19T13:03:23Z</time>
      </trkpt>
      <trkpt lat="43.40955" lon="6.66473">
        <ele>134.2</ele>
        <time>2025-01-19T13:03:24Z</time>
      </trkpt>
      <trkpt lat="43.40956" lon="6.66474">
        <ele>134.1</ele>
        <time>2025-01-19T13:03:25Z</time>
      </trkpt>
      <trkpt lat="43.40957" lon="6.66474">
        <ele>134</ele>
        <time>2025-01-19T13:03:26Z</time>
      </trkpt>
      <trkpt lat="43.40958" lon="6.66475">
        <ele>133.9</ele>
        <time>2025-01-19T13:03:27Z</time>
      </trkpt>
      <trkpt lat="43.40959" lon="6.66476">
        <ele>133.7</ele>
        <time>2025-01-19T13:03:28Z</time>
      </trkpt>
      <trkpt lat="43.4096" lon="6.66476">
        <ele>133.5</ele>
        <time>2025-01-19T13:03:29Z</time>
      </trkpt>
      <trkpt lat="43.40961" lon="6.66477">
        <ele>133.3</ele>
        <time>2025-01-19T13:03:30Z</time>
      </trkpt>
      <trkpt lat="43.40962" lon="6.66478">
        <ele>133.1</ele>
        <time>2025-01-19T13:03:31Z</time>
      </trkpt>
      <trkpt lat="43.40962" lon="6.66478">
        <ele>133</ele>
        <time>2025-01-19T13:03:32Z</time>
      </trkpt>
      <trkpt lat="43.40963" lon="6.66479">
        <ele>132.9</ele>
        <time>2025-01-19T13:03:33Z</time>
      </trkpt>
      <trkpt lat="43.40964" lon="6.66479">
        <ele>132.8</ele>
        <time>2025-01-19T13:03:34Z</time>
      </trkpt>
      <trkpt lat="43.40965" lon="6.6648">
        <ele>132.7</ele>
        <time>2025-01-19T13:03:35Z</time>
      </trkpt>
      <trkpt lat="43.40966" lon="6.6648">
        <ele>132.6</ele>
        <time>2025-01-19T13:03:36Z</time>
      </trkpt>
      <trkpt lat="43.40966" lon="6.66481">
        <ele>132.6</ele>
        <time>2025-01-19T13:03:37Z</time>
      </trkpt>
      <trkpt lat="43.40967" lon="6.66482">
        <ele>132.6</ele>
        <time>2025-01-19T13:03:38Z</time>
      </trkpt>
      <trkpt lat="43.40968" lon="6.66483">
        <ele>132.5</ele>
        <time>2025-01-19T13:03:39Z</time>
      </trkpt>
      <trkpt lat="43.40969" lon="6.66483">
        <ele>132.4</ele>
        <time>2025-01-19T13:03:40Z</time>
      </trkpt>
      <trkpt lat="43.4097" lon="6.66484">
        <ele>132.3</ele>
        <time>2025-01-19T13:03:41Z</time>
      </trkpt>
      <trkpt lat="43.40971" lon="6.66484">
        <ele>132.1</ele>
        <time>2025-01-19T13:03:42Z</time>
      </trkpt>
      <trkpt lat="43.40972" lon="6.66485">
        <ele>131.9</ele>
        <time>2025-01-19T13:03:43Z</time>
      </trkpt>
      <trkpt lat="43.40973" lon="6.66486">
        <ele>131.8</ele>
        <time>2025-01-19T13:03:44Z</time>
      </trkpt>
      <trkpt lat="43.40973" lon="6.66486">
        <ele>131.6</ele>
        <time>2025-01-19T13:03:45Z</time>
      </trkpt>
      <trkpt lat="43.40974" lon="6.66487">
        <ele>131.4</ele>
        <time>2025-01-19T13:03:46Z</time>
      </trkpt>
      <trkpt lat="43.40975" lon="6.66487">
        <ele>131.3</ele>
        <time>2025-01-19T13:03:47Z</time>
      </trkpt>
      <trkpt lat="43.40976" lon="6.66488">
        <ele>131.3</ele>
        <time>2025-01-19T13:03:48Z</time>
      </trkpt>
      <trkpt lat="43.40976" lon="6.66489">
        <ele>131.2</ele>
        <time>2025-01-19T13:03:49Z</time>
      </trkpt>
      <trkpt lat="43.40977" lon="6.66489">
        <ele>131.1</ele>
        <time>2025-01-19T13:03:50Z</time>
      </trkpt>
      <trkpt lat="43.40978" lon="6.6649">
        <ele>131</ele>
        <time>2025-01-19T13:03:51Z</time>
      </trkpt>
      <trkpt lat="43.40979" lon="6.66491">
        <ele>131</ele>
        <time>2025-01-19T13:03:52Z</time>
      </trkpt>
      <trkpt lat="43.4098" lon="6.66491">
        <ele>130.8</ele>
        <time>2025-01-19T13:03:53Z</time>
      </trkpt>
      <trkpt lat="43.40981" lon="6.66492">
        <ele>130.7</ele>
        <time>2025-01-19T13:03:54Z</time>
      </trkpt>
      <trkpt lat="43.40982" lon="6.66492">
        <ele>130.5</ele>
        <time>2025-01-19T13:03:55Z</time>
      </trkpt>
      <trkpt lat="43.40983" lon="6.66493">
        <ele>130.4</ele>
        <time>2025-01-19T13:03:56Z</time>
      </trkpt>
      <trkpt lat="43.40984" lon="6.66493">
        <ele>130.2</ele>
        <time>2025-01-19T13:03:57Z</time>
      </trkpt>
      <trkpt lat="43.40984" lon="6.66493">
        <ele>130</ele>
        <time>2025-01-19T13:03:58Z</time>
      </trkpt>
      <trkpt lat="43.40985" lon="6.66494">
        <ele>129.8</ele>
        <time>2025-01-19T13:03:59Z</time>
      </trkpt>
      <trkpt lat="43.40986" lon="6.66494">
        <ele>129.7</ele>
        <time>2025-01-19T13:04:00Z</time>
      </trkpt>
      <trkpt lat="43.40987" lon="6.66495">
        <ele>129.5</ele>
        <time>2025-01-19T13:04:01Z</time>
      </trkpt>
      <trkpt lat="43.40988" lon="6.66495">
        <ele>129.3</ele>
        <time>2025-01-19T13:04:02Z</time>
      </trkpt>
      <trkpt lat="43.40989" lon="6.66496">
        <ele>129.2</ele>
        <time>2025-01-19T13:04:03Z</time>
      </trkpt>
      <trkpt lat="43.40989" lon="6.66496">
        <ele>129.1</ele>
        <time>2025-01-19T13:04:04Z</time>
      </trkpt>
      <trkpt lat="43.4099" lon="6.66497">
        <ele>129</ele>
        <time>2025-01-19T13:04:05Z</time>
      </trkpt>
      <trkpt lat="43.4099" lon="6.66497">
        <ele>128.9</ele>
        <time>2025-01-19T13:04:06Z</time>
      </trkpt>
      <trkpt lat="43.40991" lon="6.66497">
        <ele>128.8</ele>
        <time>2025-01-19T13:04:07Z</time>
      </trkpt>
      <trkpt lat="43.40991" lon="6.66497">
        <ele>128.7</ele>
        <time>2025-01-19T13:04:08Z</time>
      </trkpt>
      <trkpt lat="43.40992" lon="6.66497">
        <ele>128.7</ele>
        <time>2025-01-19T13:04:09Z</time>
      </trkpt>
      <trkpt lat="43.40992" lon="6.66497">
        <ele>128.6</ele>
        <time>2025-01-19T13:04:10Z</time>
      </trkpt>
      <trkpt lat="43.40992" lon="6.66497">
        <ele>128.5</ele>
        <time>2025-01-19T13:04:11Z</time>
      </trkpt>
      <trkpt lat="43.40992" lon="6.66497">
        <ele>128.4</ele>
        <time>2025-01-19T13:04:12Z</time>
      </trkpt>
      <trkpt lat="43.40992" lon="6.66497">
        <ele>128.4</ele>
        <time>2025-01-19T13:04:13Z</time>
      </trkpt>
      <trkpt lat="43.40992" lon="6.66497">
        <ele>128.4</ele>
        <time>2025-01-19T13:04:14Z</time>
      </trkpt>
      <trkpt lat="43.40992" lon="6.66497">
        <ele>128.4</ele>
        <time>2025-01-19T13:04:15Z</time>
      </trkpt>
      <trkpt lat="43.40992" lon="6.66497">
        <ele>128.4</ele>
        <time>2025-01-19T13:04:16Z</time>
      </trkpt>
      <trkpt lat="43.40992" lon="6.66497">
        <ele>128.4</ele>
        <time>2025-01-19T13:04:17Z</time>
      </trkpt>
      <trkpt lat="43.40992" lon="6.66497">
        <ele>128.4</ele>
        <time>2025-01-19T13:04:18Z</time>
      </trkpt>
      <trkpt lat="43.40992" lon="6.66498">
        <ele>128.3</ele>
        <time>2025-01-19T13:04:19Z</time>
      </trkpt>
      <trkpt lat="43.40992" lon="6.66498">
        <ele>128.3</ele>
        <time>2025-01-19T13:04:20Z</time>
      </trkpt>
      <trkpt lat="43.40991" lon="6.66499">
        <ele>128.2</ele>
        <time>2025-01-19T13:04:21Z</time>
      </trkpt>
      <trkpt lat="43.40991" lon="6.66499">
        <ele>128.2</ele>
        <time>2025-01-19T13:04:22Z</time>
      </trkpt>
      <trkpt lat="43.40991" lon="6.66499">
        <ele>128.1</ele>
        <time>2025-01-19T13:04:23Z</time>
      </trkpt>
      <trkpt lat="43.40991" lon="6.665">
        <ele>128.2</ele>
        <time>2025-01-19T13:04:24Z</time>
      </trkpt>
      <trkpt lat="43.40991" lon="6.665">
        <ele>128.2</ele>
        <time>2025-01-19T13:04:25Z</time>
      </trkpt>
      <trkpt lat="43.40991" lon="6.665">
        <ele>128.2</ele>
        <time>2025-01-19T13:04:26Z</time>
      </trkpt>
      <trkpt lat="43.40991" lon="6.665">
        <ele>128.2</ele>
        <time>2025-01-19T13:04:27Z</time>
      </trkpt>
      <trkpt lat="43.40991" lon="6.665">
        <ele>128.2</ele>
        <time>2025-01-19T13:04:28Z</time>
      </trkpt>
      <trkpt lat="43.40991" lon="6.665">
        <ele>128.3</ele>
        <time>2025-01-19T13:04:29Z</time>
      </trkpt>
      <trkpt lat="43.40991" lon="6.665">
        <ele>128.2</ele>
        <time>2025-01-19T13:04:30Z</time>
      </trkpt>
      <trkpt lat="43.40991" lon="6.665">
        <ele>128.2</ele>
        <time>2025-01-19T13:04:31Z</time>
      </trkpt>
      <trkpt lat="43.4099" lon="6.665">
        <ele>128.2</ele>
        <time>2025-01-19T13:04:32Z</time>
      </trkpt>
      <trkpt lat="43.4099" lon="6.665">
        <ele>128.2</ele>
        <time>2025-01-19T13:04:33Z</time>
      </trkpt>
      <trkpt lat="43.4099" lon="6.665">
        <ele>128.2</ele>
        <time>2025-01-19T13:04:34Z</time>
      </trkpt>
      <trkpt lat="43.4099" lon="6.665">
        <ele>128.2</ele>
        <time>2025-01-19T13:04:35Z</time>
      </trkpt>
      <trkpt lat="43.4099" lon="6.665">
        <ele>128.2</ele>
        <time>2025-01-19T13:04:36Z</time>
      </trkpt>
      <trkpt lat="43.4099" lon="6.665">
        <ele>128.2</ele>
        <time>2025-01-19T13:04:37Z</time>
      </trkpt>
      <trkpt lat="43.4099" lon="6.665">
        <ele>128.2</ele>
        <time>2025-01-19T13:04:38Z</time>
      </trkpt>
      <trkpt lat="43.4099" lon="6.665">
        <ele>128.3</ele>
        <time>2025-01-19T13:04:39Z</time>
      </trkpt>
      <trkpt lat="43.4099" lon="6.665">
        <ele>128.4</ele>
        <time>2025-01-19T13:04:40Z</time>
      </trkpt>
      <trkpt lat="43.4099" lon="6.665">
        <ele>128.5</ele>
        <time>2025-01-19T13:04:41Z</time>
      </trkpt>
      <trkpt lat="43.4099" lon="6.665">
        <ele>128.5</ele>
        <time>2025-01-19T13:04:42Z</time>
      </trkpt>
      <trkpt lat="43.4099" lon="6.665">
        <ele>128.5</ele>
        <time>2025-01-19T13:04:43Z</time>
      </trkpt>
      <trkpt lat="43.40991" lon="6.665">
        <ele>128.5</ele>
        <time>2025-01-19T13:04:44Z</time>
      </trkpt>
      <trkpt lat="43.40991" lon="6.66499">
        <ele>128.5</ele>
        <time>2025-01-19T13:04:45Z</time>
      </trkpt>
      <trkpt lat="43.40991" lon="6.66498">
        <ele>128.5</ele>
        <time>2025-01-19T13:04:46Z</time>
      </trkpt>
      <trkpt lat="43.40991" lon="6.66498">
        <ele>128.5</ele>
        <time>2025-01-19T13:04:47Z</time>
      </trkpt>
      <trkpt lat="43.40991" lon="6.66498">
        <ele>128.5</ele>
        <time>2025-01-19T13:04:48Z</time>
      </trkpt>
      <trkpt lat="43.40991" lon="6.66498">
        <ele>128.4</ele>
        <time>2025-01-19T13:04:49Z</time>
      </trkpt>
      <trkpt lat="43.40991" lon="6.66498">
        <ele>128.4</ele>
        <time>2025-01-19T13:04:50Z</time>
      </trkpt>
      <trkpt lat="43.40991" lon="6.66498">
        <ele>128.3</ele>
        <time>2025-01-19T13:04:51Z</time>
      </trkpt>
      <trkpt lat="43.40991" lon="6.66498">
        <ele>128.3</ele>
        <time>2025-01-19T13:04:52Z</time>
      </trkpt>
      <trkpt lat="43.40991" lon="6.66498">
        <ele>128.4</ele>
        <time>2025-01-19T13:04:53Z</time>
      </trkpt>
      <trkpt lat="43.40991" lon="6.66498">
        <ele>128.5</ele>
        <time>2025-01-19T13:04:54Z</time>
      </trkpt>
      <trkpt lat="43.40991" lon="6.66498">
        <ele>128.5</ele>
        <time>2025-01-19T13:04:55Z</time>
      </trkpt>
      <trkpt lat="43.40991" lon="6.66498">
        <ele>128.6</ele>
        <time>2025-01-19T13:04:56Z</time>
      </trkpt>
      <trkpt lat="43.40991" lon="6.66498">
        <ele>128.5</ele>
        <time>2025-01-19T13:04:57Z</time>
      </trkpt>
      <trkpt lat="43.40991" lon="6.66498">
        <ele>128.5</ele>
        <time>2025-01-19T13:04:58Z</time>
      </trkpt>
      <trkpt lat="43.40991" lon="6.66498">
        <ele>128.4</ele>
        <time>2025-01-19T13:04:59Z</time>
      </trkpt>
      <trkpt lat="43.40991" lon="6.66498">
        <ele>128.4</ele>
        <time>2025-01-19T13:05:00Z</time>
      </trkpt>
      <trkpt lat="43.40991" lon="6.66499">
        <ele>128.3</ele>
        <time>2025-01-19T13:05:01Z</time>
      </trkpt>
      <trkpt lat="43.40991" lon="6.66499">
        <ele>128.2</ele>
        <time>2025-01-19T13:05:02Z</time>
      </trkpt>
      <trkpt lat="43.40991" lon="6.66499">
        <ele>128.3</ele>
        <time>2025-01-19T13:05:03Z</time>
      </trkpt>
      <trkpt lat="43.40991" lon="6.66499">
        <ele>128.3</ele>
        <time>2025-01-19T13:05:04Z</time>
      </trkpt>
      <trkpt lat="43.40991" lon="6.66499">
        <ele>128.2</ele>
        <time>2025-01-19T13:05:05Z</time>
      </trkpt>
      <trkpt lat="43.40991" lon="6.66499">
        <ele>128.2</ele>
        <time>2025-01-19T13:05:06Z</time>
      </trkpt>
      <trkpt lat="43.40991" lon="6.66499">
        <ele>128.2</ele>
        <time>2025-01-19T13:05:07Z</time>
      </trkpt>
      <trkpt lat="43.40991" lon="6.66499">
        <ele>128.2</ele>
        <time>2025-01-19T13:05:08Z</time>
      </trkpt>
      <trkpt lat="43.40992" lon="6.66499">
        <ele>128.3</ele>
        <time>2025-01-19T13:05:09Z</time>
      </trkpt>
      <trkpt lat="43.40993" lon="6.66499">
        <ele>128.2</ele>
        <time>2025-01-19T13:05:10Z</time>
      </trkpt>
      <trkpt lat="43.40993" lon="6.66499">
        <ele>128.1</ele>
        <time>2025-01-19T13:05:11Z</time>
      </trkpt>
      <trkpt lat="43.40994" lon="6.66499">
        <ele>128.1</ele>
        <time>2025-01-19T13:05:12Z</time>
      </trkpt>
      <trkpt lat="43.40995" lon="6.66499">
        <ele>128</ele>
        <time>2025-01-19T13:05:13Z</time>
      </trkpt>
      <trkpt lat="43.40995" lon="6.66499">
        <ele>127.9</ele>
        <time>2025-01-19T13:05:14Z</time>
      </trkpt>
      <trkpt lat="43.40996" lon="6.66498">
        <ele>127.9</ele>
        <time>2025-01-19T13:05:15Z</time>
      </trkpt>
      <trkpt lat="43.40996" lon="6.66498">
        <ele>127.9</ele>
        <time>2025-01-19T13:05:16Z</time>
      </trkpt>
      <trkpt lat="43.40996" lon="6.66498">
        <ele>127.7</ele>
        <time>2025-01-19T13:05:17Z</time>
      </trkpt>
      <trkpt lat="43.40996" lon="6.66497">
        <ele>127.7</ele>
        <time>2025-01-19T13:05:18Z</time>
      </trkpt>
      <trkpt lat="43.40996" lon="6.66497">
        <ele>127.7</ele>
        <time>2025-01-19T13:05:19Z</time>
      </trkpt>
      <trkpt lat="43.40996" lon="6.66497">
        <ele>127.7</ele>
        <time>2025-01-19T13:05:20Z</time>
      </trkpt>
      <trkpt lat="43.40996" lon="6.66498">
        <ele>127.6</ele>
        <time>2025-01-19T13:05:21Z</time>
      </trkpt>
      <trkpt lat="43.40997" lon="6.66498">
        <ele>127.6</ele>
        <time>2025-01-19T13:05:22Z</time>
      </trkpt>
      <trkpt lat="43.40997" lon="6.66498">
        <ele>127.5</ele>
        <time>2025-01-19T13:05:23Z</time>
      </trkpt>
      <trkpt lat="43.40997" lon="6.66498">
        <ele>127.5</ele>
        <time>2025-01-19T13:05:24Z</time>
      </trkpt>
      <trkpt lat="43.40997" lon="6.66498">
        <ele>127.5</ele>
        <time>2025-01-19T13:05:25Z</time>
      </trkpt>
      <trkpt lat="43.40997" lon="6.66498">
        <ele>127.4</ele>
        <time>2025-01-19T13:05:26Z</time>
      </trkpt>
      <trkpt lat="43.40997" lon="6.66498">
        <ele>127.4</ele>
        <time>2025-01-19T13:05:27Z</time>
      </trkpt>
      <trkpt lat="43.40997" lon="6.66498">
        <ele>127.4</ele>
        <time>2025-01-19T13:05:28Z</time>
      </trkpt>
      <trkpt lat="43.40997" lon="6.66498">
        <ele>127.4</ele>
        <time>2025-01-19T13:05:29Z</time>
      </trkpt>
      <trkpt lat="43.40997" lon="6.66498">
        <ele>127.4</ele>
        <time>2025-01-19T13:05:30Z</time>
      </trkpt>
      <trkpt lat="43.40997" lon="6.66498">
        <ele>127.4</ele>
        <time>2025-01-19T13:05:31Z</time>
      </trkpt>
      <trkpt lat="43.40998" lon="6.66499">
        <ele>127.4</ele>
        <time>2025-01-19T13:05:32Z</time>
      </trkpt>
      <trkpt lat="43.40998" lon="6.665">
        <ele>127.5</ele>
        <time>2025-01-19T13:05:33Z</time>
      </trkpt>
      <trkpt lat="43.40998" lon="6.66501">
        <ele>127.5</ele>
        <time>2025-01-19T13:05:34Z</time>
      </trkpt>
      <trkpt lat="43.40998" lon="6.66501">
        <ele>127.5</ele>
        <time>2025-01-19T13:05:35Z</time>
      </trkpt>
      <trkpt lat="43.40998" lon="6.66501">
        <ele>127.4</ele>
        <time>2025-01-19T13:05:36Z</time>
      </trkpt>
      <trkpt lat="43.40998" lon="6.66501">
        <ele>127.4</ele>
        <time>2025-01-19T13:05:37Z</time>
      </trkpt>
      <trkpt lat="43.40999" lon="6.66502">
        <ele>127.4</ele>
        <time>2025-01-19T13:05:38Z</time>
      </trkpt>
      <trkpt lat="43.40999" lon="6.66502">
        <ele>127.4</ele>
        <time>2025-01-19T13:05:39Z</time>
      </trkpt>
      <trkpt lat="43.40999" lon="6.66502">
        <ele>127.4</ele>
        <time>2025-01-19T13:05:40Z</time>
      </trkpt>
      <trkpt lat="43.41" lon="6.66502">
        <ele>127.4</ele>
        <time>2025-01-19T13:05:41Z</time>
      </trkpt>
      <trkpt lat="43.41" lon="6.66502">
        <ele>127.4</ele>
        <time>2025-01-19T13:05:42Z</time>
      </trkpt>
      <trkpt lat="43.41001" lon="6.66502">
        <ele>127.4</ele>
        <time>2025-01-19T13:05:43Z</time>
      </trkpt>
      <trkpt lat="43.41001" lon="6.66502">
        <ele>127.4</ele>
        <time>2025-01-19T13:05:44Z</time>
      </trkpt>
      <trkpt lat="43.41001" lon="6.66503">
        <ele>127.4</ele>
        <time>2025-01-19T13:05:45Z</time>
      </trkpt>
      <trkpt lat="43.41002" lon="6.66503">
        <ele>127.4</ele>
        <time>2025-01-19T13:05:46Z</time>
      </trkpt>
      <trkpt lat="43.41001" lon="6.66503">
        <ele>127.4</ele>
        <time>2025-01-19T13:05:47Z</time>
      </trkpt>
      <trkpt lat="43.41001" lon="6.66502">
        <ele>127.4</ele>
        <time>2025-01-19T13:05:48Z</time>
      </trkpt>
      <trkpt lat="43.41002" lon="6.66501">
        <ele>127.3</ele>
        <time>2025-01-19T13:05:49Z</time>
      </trkpt>
      <trkpt lat="43.41002" lon="6.66501">
        <ele>127.3</ele>
        <time>2025-01-19T13:05:50Z</time>
      </trkpt>
      <trkpt lat="43.41002" lon="6.665">
        <ele>127.3</ele>
        <time>2025-01-19T13:05:51Z</time>
      </trkpt>
      <trkpt lat="43.41003" lon="6.665">
        <ele>127.3</ele>
        <time>2025-01-19T13:05:52Z</time>
      </trkpt>
      <trkpt lat="43.41003" lon="6.665">
        <ele>127.3</ele>
        <time>2025-01-19T13:05:53Z</time>
      </trkpt>
      <trkpt lat="43.41004" lon="6.66501">
        <ele>127.3</ele>
        <time>2025-01-19T13:05:54Z</time>
      </trkpt>
      <trkpt lat="43.41005" lon="6.66501">
        <ele>127.2</ele>
        <time>2025-01-19T13:05:55Z</time>
      </trkpt>
      <trkpt lat="43.41006" lon="6.66501">
        <ele>127.2</ele>
        <time>2025-01-19T13:05:56Z</time>
      </trkpt>
      <trkpt lat="43.41007" lon="6.66501">
        <ele>127.1</ele>
        <time>2025-01-19T13:05:57Z</time>
      </trkpt>
      <trkpt lat="43.41008" lon="6.66501">
        <ele>127</ele>
        <time>2025-01-19T13:05:58Z</time>
      </trkpt>
      <trkpt lat="43.41008" lon="6.665">
        <ele>126.9</ele>
        <time>2025-01-19T13:05:59Z</time>
      </trkpt>
      <trkpt lat="43.41009" lon="6.665">
        <ele>126.7</ele>
        <time>2025-01-19T13:06:00Z</time>
      </trkpt>
      <trkpt lat="43.4101" lon="6.665">
        <ele>126.6</ele>
        <time>2025-01-19T13:06:01Z</time>
      </trkpt>
      <trkpt lat="43.41011" lon="6.665">
        <ele>126.5</ele>
        <time>2025-01-19T13:06:02Z</time>
      </trkpt>
      <trkpt lat="43.41012" lon="6.665">
        <ele>126.5</ele>
        <time>2025-01-19T13:06:03Z</time>
      </trkpt>
      <trkpt lat="43.41013" lon="6.665">
        <ele>126.5</ele>
        <time>2025-01-19T13:06:04Z</time>
      </trkpt>
      <trkpt lat="43.41014" lon="6.665">
        <ele>126.3</ele>
        <time>2025-01-19T13:06:05Z</time>
      </trkpt>
      <trkpt lat="43.41015" lon="6.665">
        <ele>126.2</ele>
        <time>2025-01-19T13:06:06Z</time>
      </trkpt>
      <trkpt lat="43.41016" lon="6.665">
        <ele>126</ele>
        <time>2025-01-19T13:06:07Z</time>
      </trkpt>
      <trkpt lat="43.41016" lon="6.66499">
        <ele>125.9</ele>
        <time>2025-01-19T13:06:08Z</time>
      </trkpt>
      <trkpt lat="43.41017" lon="6.66499">
        <ele>125.8</ele>
        <time>2025-01-19T13:06:09Z</time>
      </trkpt>
      <trkpt lat="43.41018" lon="6.665">
        <ele>125.7</ele>
        <time>2025-01-19T13:06:10Z</time>
      </trkpt>
      <trkpt lat="43.41018" lon="6.665">
        <ele>125.6</ele>
        <time>2025-01-19T13:06:11Z</time>
      </trkpt>
      <trkpt lat="43.41019" lon="6.665">
        <ele>125.4</ele>
        <time>2025-01-19T13:06:12Z</time>
      </trkpt>
      <trkpt lat="43.4102" lon="6.665">
        <ele>125.3</ele>
        <time>2025-01-19T13:06:13Z</time>
      </trkpt>
      <trkpt lat="43.41021" lon="6.66501">
        <ele>125.1</ele>
        <time>2025-01-19T13:06:14Z</time>
      </trkpt>
      <trkpt lat="43.41022" lon="6.66501">
        <ele>124.9</ele>
        <time>2025-01-19T13:06:15Z</time>
      </trkpt>
      <trkpt lat="43.41023" lon="6.66501">
        <ele>124.8</ele>
        <time>2025-01-19T13:06:16Z</time>
      </trkpt>
      <trkpt lat="43.41024" lon="6.66501">
        <ele>124.6</ele>
        <time>2025-01-19T13:06:17Z</time>
      </trkpt>
      <trkpt lat="43.41025" lon="6.66502">
        <ele>124.4</ele>
        <time>2025-01-19T13:06:18Z</time>
      </trkpt>
      <trkpt lat="43.41026" lon="6.66502">
        <ele>124.4</ele>
        <time>2025-01-19T13:06:19Z</time>
      </trkpt>
      <trkpt lat="43.41027" lon="6.66502">
        <ele>124.3</ele>
        <time>2025-01-19T13:06:20Z</time>
      </trkpt>
      <trkpt lat="43.41028" lon="6.66502">
        <ele>124.3</ele>
        <time>2025-01-19T13:06:21Z</time>
      </trkpt>
      <trkpt lat="43.41029" lon="6.66502">
        <ele>124.3</ele>
        <time>2025-01-19T13:06:22Z</time>
      </trkpt>
      <trkpt lat="43.4103" lon="6.66502">
        <ele>124.2</ele>
        <time>2025-01-19T13:06:23Z</time>
      </trkpt>
      <trkpt lat="43.41031" lon="6.66502">
        <ele>124.1</ele>
        <time>2025-01-19T13:06:24Z</time>
      </trkpt>
      <trkpt lat="43.41032" lon="6.66502">
        <ele>124</ele>
        <time>2025-01-19T13:06:25Z</time>
      </trkpt>
      <trkpt lat="43.41033" lon="6.66502">
        <ele>123.9</ele>
        <time>2025-01-19T13:06:26Z</time>
      </trkpt>
      <trkpt lat="43.41034" lon="6.66502">
        <ele>123.7</ele>
        <time>2025-01-19T13:06:27Z</time>
      </trkpt>
      <trkpt lat="43.41035" lon="6.66502">
        <ele>123.5</ele>
        <time>2025-01-19T13:06:28Z</time>
      </trkpt>
      <trkpt lat="43.41036" lon="6.66502">
        <ele>123.4</ele>
        <time>2025-01-19T13:06:29Z</time>
      </trkpt>
      <trkpt lat="43.41037" lon="6.66502">
        <ele>123.3</ele>
        <time>2025-01-19T13:06:30Z</time>
      </trkpt>
      <trkpt lat="43.41037" lon="6.66502">
        <ele>123.1</ele>
        <time>2025-01-19T13:06:31Z</time>
      </trkpt>
      <trkpt lat="43.41038" lon="6.66502">
        <ele>123</ele>
        <time>2025-01-19T13:06:32Z</time>
      </trkpt>
      <trkpt lat="43.41039" lon="6.66502">
        <ele>122.8</ele>
        <time>2025-01-19T13:06:33Z</time>
      </trkpt>
      <trkpt lat="43.4104" lon="6.66502">
        <ele>122.7</ele>
        <time>2025-01-19T13:06:34Z</time>
      </trkpt>
      <trkpt lat="43.41041" lon="6.66502">
        <ele>122.6</ele>
        <time>2025-01-19T13:06:35Z</time>
      </trkpt>
      <trkpt lat="43.41042" lon="6.66503">
        <ele>122.5</ele>
        <time>2025-01-19T13:06:36Z</time>
      </trkpt>
      <trkpt lat="43.41043" lon="6.66503">
        <ele>122.3</ele>
        <time>2025-01-19T13:06:37Z</time>
      </trkpt>
      <trkpt lat="43.41044" lon="6.66503">
        <ele>122.2</ele>
        <time>2025-01-19T13:06:38Z</time>
      </trkpt>
      <trkpt lat="43.41045" lon="6.66503">
        <ele>122.1</ele>
        <time>2025-01-19T13:06:39Z</time>
      </trkpt>
      <trkpt lat="43.41046" lon="6.66503">
        <ele>121.9</ele>
        <time>2025-01-19T13:06:40Z</time>
      </trkpt>
      <trkpt lat="43.41047" lon="6.66504">
        <ele>121.8</ele>
        <time>2025-01-19T13:06:41Z</time>
      </trkpt>
      <trkpt lat="43.41048" lon="6.66504">
        <ele>121.6</ele>
        <time>2025-01-19T13:06:42Z</time>
      </trkpt>
      <trkpt lat="43.41049" lon="6.66504">
        <ele>121.4</ele>
        <time>2025-01-19T13:06:43Z</time>
      </trkpt>
      <trkpt lat="43.4105" lon="6.66504">
        <ele>121.2</ele>
        <time>2025-01-19T13:06:44Z</time>
      </trkpt>
      <trkpt lat="43.41051" lon="6.66505">
        <ele>121</ele>
        <time>2025-01-19T13:06:45Z</time>
      </trkpt>
      <trkpt lat="43.41053" lon="6.66505">
        <ele>120.8</ele>
        <time>2025-01-19T13:06:46Z</time>
      </trkpt>
      <trkpt lat="43.41054" lon="6.66505">
        <ele>120.7</ele>
        <time>2025-01-19T13:06:47Z</time>
      </trkpt>
      <trkpt lat="43.41054" lon="6.66505">
        <ele>120.6</ele>
        <time>2025-01-19T13:06:48Z</time>
      </trkpt>
      <trkpt lat="43.41055" lon="6.66505">
        <ele>120.5</ele>
        <time>2025-01-19T13:06:49Z</time>
      </trkpt>
      <trkpt lat="43.41056" lon="6.66505">
        <ele>120.4</ele>
        <time>2025-01-19T13:06:50Z</time>
      </trkpt>
      <trkpt lat="43.41057" lon="6.66506">
        <ele>120.3</ele>
        <time>2025-01-19T13:06:51Z</time>
      </trkpt>
      <trkpt lat="43.41058" lon="6.66506">
        <ele>120.2</ele>
        <time>2025-01-19T13:06:52Z</time>
      </trkpt>
      <trkpt lat="43.41059" lon="6.66506">
        <ele>120.1</ele>
        <time>2025-01-19T13:06:53Z</time>
      </trkpt>
      <trkpt lat="43.4106" lon="6.66506">
        <ele>120</ele>
        <time>2025-01-19T13:06:54Z</time>
      </trkpt>
      <trkpt lat="43.4106" lon="6.66506">
        <ele>119.8</ele>
        <time>2025-01-19T13:06:55Z</time>
      </trkpt>
      <trkpt lat="43.41061" lon="6.66506">
        <ele>119.7</ele>
        <time>2025-01-19T13:06:56Z</time>
      </trkpt>
      <trkpt lat="43.41062" lon="6.66506">
        <ele>119.6</ele>
        <time>2025-01-19T13:06:57Z</time>
      </trkpt>
      <trkpt lat="43.41063" lon="6.66506">
        <ele>119.4</ele>
        <time>2025-01-19T13:06:58Z</time>
      </trkpt>
      <trkpt lat="43.41064" lon="6.66505">
        <ele>119.3</ele>
        <time>2025-01-19T13:06:59Z</time>
      </trkpt>
      <trkpt lat="43.41064" lon="6.66505">
        <ele>119.2</ele>
        <time>2025-01-19T13:07:00Z</time>
      </trkpt>
      <trkpt lat="43.41065" lon="6.66505">
        <ele>119.1</ele>
        <time>2025-01-19T13:07:01Z</time>
      </trkpt>
      <trkpt lat="43.41066" lon="6.66504">
        <ele>119</ele>
        <time>2025-01-19T13:07:02Z</time>
      </trkpt>
      <trkpt lat="43.41067" lon="6.66504">
        <ele>119</ele>
        <time>2025-01-19T13:07:03Z</time>
      </trkpt>
      <trkpt lat="43.41068" lon="6.66504">
        <ele>118.9</ele>
        <time>2025-01-19T13:07:04Z</time>
      </trkpt>
      <trkpt lat="43.41069" lon="6.66504">
        <ele>118.7</ele>
        <time>2025-01-19T13:07:05Z</time>
      </trkpt>
      <trkpt lat="43.4107" lon="6.66504">
        <ele>118.6</ele>
        <time>2025-01-19T13:07:06Z</time>
      </trkpt>
      <trkpt lat="43.4107" lon="6.66504">
        <ele>118.4</ele>
        <time>2025-01-19T13:07:07Z</time>
      </trkpt>
      <trkpt lat="43.41071" lon="6.66504">
        <ele>118.2</ele>
        <time>2025-01-19T13:07:08Z</time>
      </trkpt>
      <trkpt lat="43.41072" lon="6.66504">
        <ele>118.1</ele>
        <time>2025-01-19T13:07:09Z</time>
      </trkpt>
      <trkpt lat="43.41073" lon="6.66503">
        <ele>118</ele>
        <time>2025-01-19T13:07:10Z</time>
      </trkpt>
      <trkpt lat="43.41074" lon="6.66503">
        <ele>117.8</ele>
        <time>2025-01-19T13:07:11Z</time>
      </trkpt>
      <trkpt lat="43.41075" lon="6.66503">
        <ele>117.7</ele>
        <time>2025-01-19T13:07:12Z</time>
      </trkpt>
      <trkpt lat="43.41076" lon="6.66503">
        <ele>117.6</ele>
        <time>2025-01-19T13:07:13Z</time>
      </trkpt>
      <trkpt lat="43.41077" lon="6.66503">
        <ele>117.4</ele>
        <time>2025-01-19T13:07:14Z</time>
      </trkpt>
      <trkpt lat="43.41078" lon="6.66502">
        <ele>117.4</ele>
        <time>2025-01-19T13:07:15Z</time>
      </trkpt>
      <trkpt lat="43.41079" lon="6.66502">
        <ele>117.3</ele>
        <time>2025-01-19T13:07:16Z</time>
      </trkpt>
      <trkpt lat="43.4108" lon="6.66502">
        <ele>117.3</ele>
        <time>2025-01-19T13:07:17Z</time>
      </trkpt>
      <trkpt lat="43.41081" lon="6.66501">
        <ele>117.3</ele>
        <time>2025-01-19T13:07:18Z</time>
      </trkpt>
      <trkpt lat="43.41082" lon="6.665">
        <ele>117.2</ele>
        <time>2025-01-19T13:07:19Z</time>
      </trkpt>
      <trkpt lat="43.41083" lon="6.665">
        <ele>117.2</ele>
        <time>2025-01-19T13:07:20Z</time>
      </trkpt>
      <trkpt lat="43.41084" lon="6.66499">
        <ele>117</ele>
        <time>2025-01-19T13:07:21Z</time>
      </trkpt>
      <trkpt lat="43.41085" lon="6.66499">
        <ele>116.9</ele>
        <time>2025-01-19T13:07:22Z</time>
      </trkpt>
      <trkpt lat="43.41086" lon="6.66498">
        <ele>116.8</ele>
        <time>2025-01-19T13:07:23Z</time>
      </trkpt>
      <trkpt lat="43.41088" lon="6.66497">
        <ele>116.8</ele>
        <time>2025-01-19T13:07:24Z</time>
      </trkpt>
      <trkpt lat="43.41089" lon="6.66497">
        <ele>116.7</ele>
        <time>2025-01-19T13:07:25Z</time>
      </trkpt>
      <trkpt lat="43.4109" lon="6.66496">
        <ele>116.6</ele>
        <time>2025-01-19T13:07:26Z</time>
      </trkpt>
      <trkpt lat="43.41091" lon="6.66496">
        <ele>116.5</ele>
        <time>2025-01-19T13:07:27Z</time>
      </trkpt>
      <trkpt lat="43.41092" lon="6.66495">
        <ele>116.4</ele>
        <time>2025-01-19T13:07:28Z</time>
      </trkpt>
      <trkpt lat="43.41093" lon="6.66494">
        <ele>116.3</ele>
        <time>2025-01-19T13:07:29Z</time>
      </trkpt>
      <trkpt lat="43.41093" lon="6.66494">
        <ele>116.1</ele>
        <time>2025-01-19T13:07:30Z</time>
      </trkpt>
      <trkpt lat="43.41094" lon="6.66493">
        <ele>115.9</ele>
        <time>2025-01-19T13:07:31Z</time>
      </trkpt>
      <trkpt lat="43.41094" lon="6.66492">
        <ele>115.8</ele>
        <time>2025-01-19T13:07:32Z</time>
      </trkpt>
      <trkpt lat="43.41094" lon="6.66492">
        <ele>115.6</ele>
        <time>2025-01-19T13:07:33Z</time>
      </trkpt>
      <trkpt lat="43.41095" lon="6.66491">
        <ele>115.5</ele>
        <time>2025-01-19T13:07:34Z</time>
      </trkpt>
      <trkpt lat="43.41096" lon="6.66491">
        <ele>115.4</ele>
        <time>2025-01-19T13:07:35Z</time>
      </trkpt>
      <trkpt lat="43.41097" lon="6.6649">
        <ele>115.2</ele>
        <time>2025-01-19T13:07:36Z</time>
      </trkpt>
      <trkpt lat="43.41097" lon="6.6649">
        <ele>115.2</ele>
        <time>2025-01-19T13:07:37Z</time>
      </trkpt>
      <trkpt lat="43.41098" lon="6.66489">
        <ele>115</ele>
        <time>2025-01-19T13:07:38Z</time>
      </trkpt>
      <trkpt lat="43.41099" lon="6.66489">
        <ele>115</ele>
        <time>2025-01-19T13:07:39Z</time>
      </trkpt>
      <trkpt lat="43.411" lon="6.66489">
        <ele>114.9</ele>
        <time>2025-01-19T13:07:40Z</time>
      </trkpt>
      <trkpt lat="43.41101" lon="6.66488">
        <ele>114.9</ele>
        <time>2025-01-19T13:07:41Z</time>
      </trkpt>
      <trkpt lat="43.41102" lon="6.66489">
        <ele>114.8</ele>
        <time>2025-01-19T13:07:42Z</time>
      </trkpt>
      <trkpt lat="43.41102" lon="6.66488">
        <ele>114.7</ele>
        <time>2025-01-19T13:07:43Z</time>
      </trkpt>
      <trkpt lat="43.41103" lon="6.66487">
        <ele>114.6</ele>
        <time>2025-01-19T13:07:44Z</time>
      </trkpt>
      <trkpt lat="43.41103" lon="6.66486">
        <ele>114.5</ele>
        <time>2025-01-19T13:07:45Z</time>
      </trkpt>
      <trkpt lat="43.41104" lon="6.66485">
        <ele>114.4</ele>
        <time>2025-01-19T13:07:46Z</time>
      </trkpt>
      <trkpt lat="43.41105" lon="6.66484">
        <ele>114.3</ele>
        <time>2025-01-19T13:07:47Z</time>
      </trkpt>
      <trkpt lat="43.41105" lon="6.66483">
        <ele>114.3</ele>
        <time>2025-01-19T13:07:48Z</time>
      </trkpt>
      <trkpt lat="43.41106" lon="6.66482">
        <ele>114.1</ele>
        <time>2025-01-19T13:07:49Z</time>
      </trkpt>
      <trkpt lat="43.41106" lon="6.66481">
        <ele>114</ele>
        <time>2025-01-19T13:07:50Z</time>
      </trkpt>
      <trkpt lat="43.41107" lon="6.6648">
        <ele>113.8</ele>
        <time>2025-01-19T13:07:51Z</time>
      </trkpt>
      <trkpt lat="43.41108" lon="6.66479">
        <ele>113.7</ele>
        <time>2025-01-19T13:07:52Z</time>
      </trkpt>
      <trkpt lat="43.41108" lon="6.66477">
        <ele>113.6</ele>
        <time>2025-01-19T13:07:53Z</time>
      </trkpt>
      <trkpt lat="43.41109" lon="6.66476">
        <ele>113.6</ele>
        <time>2025-01-19T13:07:54Z</time>
      </trkpt>
      <trkpt lat="43.41109" lon="6.66475">
        <ele>113.4</ele>
        <time>2025-01-19T13:07:55Z</time>
      </trkpt>
      <trkpt lat="43.4111" lon="6.66473">
        <ele>113.2</ele>
        <time>2025-01-19T13:07:56Z</time>
      </trkpt>
      <trkpt lat="43.41111" lon="6.66472">
        <ele>113.1</ele>
        <time>2025-01-19T13:07:57Z</time>
      </trkpt>
      <trkpt lat="43.41111" lon="6.6647">
        <ele>113</ele>
        <time>2025-01-19T13:07:58Z</time>
      </trkpt>
      <trkpt lat="43.41112" lon="6.66469">
        <ele>113</ele>
        <time>2025-01-19T13:07:59Z</time>
      </trkpt>
      <trkpt lat="43.41112" lon="6.66467">
        <ele>112.8</ele>
        <time>2025-01-19T13:08:00Z</time>
      </trkpt>
      <trkpt lat="43.41112" lon="6.66466">
        <ele>112.7</ele>
        <time>2025-01-19T13:08:01Z</time>
      </trkpt>
      <trkpt lat="43.41113" lon="6.66465">
        <ele>112.6</ele>
        <time>2025-01-19T13:08:02Z</time>
      </trkpt>
      <trkpt lat="43.41113" lon="6.66463">
        <ele>112.4</ele>
        <time>2025-01-19T13:08:03Z</time>
      </trkpt>
      <trkpt lat="43.41113" lon="6.66462">
        <ele>112.3</ele>
        <time>2025-01-19T13:08:04Z</time>
      </trkpt>
      <trkpt lat="43.41114" lon="6.66461">
        <ele>112</ele>
        <time>2025-01-19T13:08:05Z</time>
      </trkpt>
      <trkpt lat="43.41114" lon="6.66459">
        <ele>111.9</ele>
        <time>2025-01-19T13:08:06Z</time>
      </trkpt>
      <trkpt lat="43.41114" lon="6.66458">
        <ele>111.8</ele>
        <time>2025-01-19T13:08:07Z</time>
      </trkpt>
      <trkpt lat="43.41114" lon="6.66457">
        <ele>111.6</ele>
        <time>2025-01-19T13:08:08Z</time>
      </trkpt>
      <trkpt lat="43.41115" lon="6.66456">
        <ele>111.4</ele>
        <time>2025-01-19T13:08:09Z</time>
      </trkpt>
      <trkpt lat="43.41115" lon="6.66455">
        <ele>111.3</ele>
        <time>2025-01-19T13:08:10Z</time>
      </trkpt>
      <trkpt lat="43.41116" lon="6.66454">
        <ele>111.1</ele>
        <time>2025-01-19T13:08:11Z</time>
      </trkpt>
      <trkpt lat="43.41116" lon="6.66452">
        <ele>111</ele>
        <time>2025-01-19T13:08:12Z</time>
      </trkpt>
      <trkpt lat="43.41116" lon="6.66451">
        <ele>110.8</ele>
        <time>2025-01-19T13:08:13Z</time>
      </trkpt>
      <trkpt lat="43.41117" lon="6.66449">
        <ele>110.6</ele>
        <time>2025-01-19T13:08:14Z</time>
      </trkpt>
      <trkpt lat="43.41117" lon="6.66448">
        <ele>110.5</ele>
        <time>2025-01-19T13:08:15Z</time>
      </trkpt>
      <trkpt lat="43.41117" lon="6.66447">
        <ele>110.5</ele>
        <time>2025-01-19T13:08:16Z</time>
      </trkpt>
      <trkpt lat="43.41117" lon="6.66447">
        <ele>110.4</ele>
        <time>2025-01-19T13:08:17Z</time>
      </trkpt>
      <trkpt lat="43.41117" lon="6.66446">
        <ele>110.3</ele>
        <time>2025-01-19T13:08:18Z</time>
      </trkpt>
      <trkpt lat="43.41118" lon="6.66445">
        <ele>110.2</ele>
        <time>2025-01-19T13:08:19Z</time>
      </trkpt>
      <trkpt lat="43.41118" lon="6.66443">
        <ele>110.1</ele>
        <time>2025-01-19T13:08:20Z</time>
      </trkpt>
      <trkpt lat="43.41119" lon="6.66442">
        <ele>110.1</ele>
        <time>2025-01-19T13:08:21Z</time>
      </trkpt>
      <trkpt lat="43.41119" lon="6.66441">
        <ele>109.9</ele>
        <time>2025-01-19T13:08:22Z</time>
      </trkpt>
      <trkpt lat="43.4112" lon="6.6644">
        <ele>109.7</ele>
        <time>2025-01-19T13:08:23Z</time>
      </trkpt>
      <trkpt lat="43.4112" lon="6.66438">
        <ele>109.5</ele>
        <time>2025-01-19T13:08:24Z</time>
      </trkpt>
      <trkpt lat="43.41121" lon="6.66437">
        <ele>109.3</ele>
        <time>2025-01-19T13:08:25Z</time>
      </trkpt>
      <trkpt lat="43.41122" lon="6.66436">
        <ele>109.2</ele>
        <time>2025-01-19T13:08:26Z</time>
      </trkpt>
      <trkpt lat="43.41122" lon="6.66434">
        <ele>109.2</ele>
        <time>2025-01-19T13:08:27Z</time>
      </trkpt>
      <trkpt lat="43.41123" lon="6.66433">
        <ele>109</ele>
        <time>2025-01-19T13:08:28Z</time>
      </trkpt>
      <trkpt lat="43.41123" lon="6.66431">
        <ele>108.9</ele>
        <time>2025-01-19T13:08:29Z</time>
      </trkpt>
      <trkpt lat="43.41124" lon="6.6643">
        <ele>108.8</ele>
        <time>2025-01-19T13:08:30Z</time>
      </trkpt>
      <trkpt lat="43.41125" lon="6.66429">
        <ele>108.6</ele>
        <time>2025-01-19T13:08:31Z</time>
      </trkpt>
      <trkpt lat="43.41126" lon="6.66428">
        <ele>108.5</ele>
        <time>2025-01-19T13:08:32Z</time>
      </trkpt>
      <trkpt lat="43.41127" lon="6.66427">
        <ele>108.4</ele>
        <time>2025-01-19T13:08:33Z</time>
      </trkpt>
      <trkpt lat="43.41128" lon="6.66426">
        <ele>108.3</ele>
        <time>2025-01-19T13:08:34Z</time>
      </trkpt>
      <trkpt lat="43.41129" lon="6.66425">
        <ele>108.2</ele>
        <time>2025-01-19T13:08:35Z</time>
      </trkpt>
      <trkpt lat="43.41129" lon="6.66424">
        <ele>108</ele>
        <time>2025-01-19T13:08:36Z</time>
      </trkpt>
      <trkpt lat="43.4113" lon="6.66422">
        <ele>107.9</ele>
        <time>2025-01-19T13:08:37Z</time>
      </trkpt>
      <trkpt lat="43.41131" lon="6.66421">
        <ele>107.7</ele>
        <time>2025-01-19T13:08:38Z</time>
      </trkpt>
      <trkpt lat="43.41132" lon="6.6642">
        <ele>107.5</ele>
        <time>2025-01-19T13:08:39Z</time>
      </trkpt>
      <trkpt lat="43.41133" lon="6.66419">
        <ele>107.4</ele>
        <time>2025-01-19T13:08:40Z</time>
      </trkpt>
      <trkpt lat="43.41134" lon="6.66417">
        <ele>107.3</ele>
        <time>2025-01-19T13:08:41Z</time>
      </trkpt>
      <trkpt lat="43.41134" lon="6.66416">
        <ele>107.1</ele>
        <time>2025-01-19T13:08:42Z</time>
      </trkpt>
      <trkpt lat="43.41134" lon="6.66415">
        <ele>106.9</ele>
        <time>2025-01-19T13:08:43Z</time>
      </trkpt>
      <trkpt lat="43.41135" lon="6.66414">
        <ele>106.8</ele>
        <time>2025-01-19T13:08:44Z</time>
      </trkpt>
      <trkpt lat="43.41136" lon="6.66413">
        <ele>106.7</ele>
        <time>2025-01-19T13:08:45Z</time>
      </trkpt>
      <trkpt lat="43.41136" lon="6.66412">
        <ele>106.6</ele>
        <time>2025-01-19T13:08:46Z</time>
      </trkpt>
      <trkpt lat="43.41137" lon="6.66411">
        <ele>106.4</ele>
        <time>2025-01-19T13:08:47Z</time>
      </trkpt>
      <trkpt lat="43.41137" lon="6.6641">
        <ele>106.2</ele>
        <time>2025-01-19T13:08:48Z</time>
      </trkpt>
      <trkpt lat="43.41138" lon="6.66409">
        <ele>106.1</ele>
        <time>2025-01-19T13:08:49Z</time>
      </trkpt>
      <trkpt lat="43.41139" lon="6.66409">
        <ele>106</ele>
        <time>2025-01-19T13:08:50Z</time>
      </trkpt>
      <trkpt lat="43.41139" lon="6.66408">
        <ele>106</ele>
        <time>2025-01-19T13:08:51Z</time>
      </trkpt>
      <trkpt lat="43.41139" lon="6.66407">
        <ele>106</ele>
        <time>2025-01-19T13:08:52Z</time>
      </trkpt>
      <trkpt lat="43.4114" lon="6.66406">
        <ele>105.9</ele>
        <time>2025-01-19T13:08:53Z</time>
      </trkpt>
      <trkpt lat="43.4114" lon="6.66406">
        <ele>105.8</ele>
        <time>2025-01-19T13:08:54Z</time>
      </trkpt>
      <trkpt lat="43.41141" lon="6.66405">
        <ele>105.8</ele>
        <time>2025-01-19T13:08:55Z</time>
      </trkpt>
      <trkpt lat="43.41142" lon="6.66404">
        <ele>105.8</ele>
        <time>2025-01-19T13:08:56Z</time>
      </trkpt>
      <trkpt lat="43.41142" lon="6.66404">
        <ele>105.6</ele>
        <time>2025-01-19T13:08:57Z</time>
      </trkpt>
      <trkpt lat="43.41143" lon="6.66403">
        <ele>105.5</ele>
        <time>2025-01-19T13:08:58Z</time>
      </trkpt>
      <trkpt lat="43.41143" lon="6.66402">
        <ele>105.4</ele>
        <time>2025-01-19T13:08:59Z</time>
      </trkpt>
      <trkpt lat="43.41144" lon="6.664">
        <ele>105.4</ele>
        <time>2025-01-19T13:09:00Z</time>
      </trkpt>
      <trkpt lat="43.41145" lon="6.66399">
        <ele>105.3</ele>
        <time>2025-01-19T13:09:01Z</time>
      </trkpt>
      <trkpt lat="43.41146" lon="6.66398">
        <ele>105.2</ele>
        <time>2025-01-19T13:09:02Z</time>
      </trkpt>
      <trkpt lat="43.41146" lon="6.66397">
        <ele>105.1</ele>
        <time>2025-01-19T13:09:03Z</time>
      </trkpt>
      <trkpt lat="43.41146" lon="6.66396">
        <ele>105</ele>
        <time>2025-01-19T13:09:04Z</time>
      </trkpt>
      <trkpt lat="43.41147" lon="6.66395">
        <ele>104.9</ele>
        <time>2025-01-19T13:09:05Z</time>
      </trkpt>
      <trkpt lat="43.41147" lon="6.66394">
        <ele>104.8</ele>
        <time>2025-01-19T13:09:06Z</time>
      </trkpt>
      <trkpt lat="43.41148" lon="6.66393">
        <ele>104.7</ele>
        <time>2025-01-19T13:09:07Z</time>
      </trkpt>
      <trkpt lat="43.41148" lon="6.66392">
        <ele>104.5</ele>
        <time>2025-01-19T13:09:08Z</time>
      </trkpt>
      <trkpt lat="43.41149" lon="6.66391">
        <ele>104.4</ele>
        <time>2025-01-19T13:09:09Z</time>
      </trkpt>
      <trkpt lat="43.41149" lon="6.6639">
        <ele>104.4</ele>
        <time>2025-01-19T13:09:10Z</time>
      </trkpt>
      <trkpt lat="43.4115" lon="6.66389">
        <ele>104.3</ele>
        <time>2025-01-19T13:09:11Z</time>
      </trkpt>
      <trkpt lat="43.4115" lon="6.66388">
        <ele>104.2</ele>
        <time>2025-01-19T13:09:12Z</time>
      </trkpt>
      <trkpt lat="43.41151" lon="6.66386">
        <ele>104.1</ele>
        <time>2025-01-19T13:09:13Z</time>
      </trkpt>
      <trkpt lat="43.41151" lon="6.66385">
        <ele>104.1</ele>
        <time>2025-01-19T13:09:14Z</time>
      </trkpt>
      <trkpt lat="43.41152" lon="6.66384">
        <ele>104</ele>
        <time>2025-01-19T13:09:15Z</time>
      </trkpt>
      <trkpt lat="43.41153" lon="6.66383">
        <ele>104</ele>
        <time>2025-01-19T13:09:16Z</time>
      </trkpt>
      <trkpt lat="43.41154" lon="6.66382">
        <ele>103.9</ele>
        <time>2025-01-19T13:09:17Z</time>
      </trkpt>
      <trkpt lat="43.41154" lon="6.66381">
        <ele>103.8</ele>
        <time>2025-01-19T13:09:18Z</time>
      </trkpt>
      <trkpt lat="43.41155" lon="6.6638">
        <ele>103.7</ele>
        <time>2025-01-19T13:09:19Z</time>
      </trkpt>
      <trkpt lat="43.41156" lon="6.66378">
        <ele>103.6</ele>
        <time>2025-01-19T13:09:20Z</time>
      </trkpt>
      <trkpt lat="43.41157" lon="6.66377">
        <ele>103.5</ele>
        <time>2025-01-19T13:09:21Z</time>
      </trkpt>
      <trkpt lat="43.41157" lon="6.66376">
        <ele>103.3</ele>
        <time>2025-01-19T13:09:22Z</time>
      </trkpt>
      <trkpt lat="43.41158" lon="6.66375">
        <ele>103.3</ele>
        <time>2025-01-19T13:09:23Z</time>
      </trkpt>
      <trkpt lat="43.41159" lon="6.66374">
        <ele>103.1</ele>
        <time>2025-01-19T13:09:24Z</time>
      </trkpt>
      <trkpt lat="43.4116" lon="6.66373">
        <ele>103.1</ele>
        <time>2025-01-19T13:09:25Z</time>
      </trkpt>
      <trkpt lat="43.41161" lon="6.66371">
        <ele>103</ele>
        <time>2025-01-19T13:09:26Z</time>
      </trkpt>
      <trkpt lat="43.41161" lon="6.6637">
        <ele>103</ele>
        <time>2025-01-19T13:09:27Z</time>
      </trkpt>
      <trkpt lat="43.41162" lon="6.66369">
        <ele>102.9</ele>
        <time>2025-01-19T13:09:28Z</time>
      </trkpt>
      <trkpt lat="43.41163" lon="6.66368">
        <ele>102.9</ele>
        <time>2025-01-19T13:09:29Z</time>
      </trkpt>
      <trkpt lat="43.41163" lon="6.66367">
        <ele>102.8</ele>
        <time>2025-01-19T13:09:30Z</time>
      </trkpt>
      <trkpt lat="43.41164" lon="6.66366">
        <ele>102.8</ele>
        <time>2025-01-19T13:09:31Z</time>
      </trkpt>
      <trkpt lat="43.41165" lon="6.66364">
        <ele>102.7</ele>
        <time>2025-01-19T13:09:32Z</time>
      </trkpt>
      <trkpt lat="43.41165" lon="6.66363">
        <ele>102.5</ele>
        <time>2025-01-19T13:09:33Z</time>
      </trkpt>
      <trkpt lat="43.41166" lon="6.66362">
        <ele>102.4</ele>
        <time>2025-01-19T13:09:34Z</time>
      </trkpt>
      <trkpt lat="43.41166" lon="6.66361">
        <ele>102.3</ele>
        <time>2025-01-19T13:09:35Z</time>
      </trkpt>
      <trkpt lat="43.41167" lon="6.66359">
        <ele>102.3</ele>
        <time>2025-01-19T13:09:36Z</time>
      </trkpt>
      <trkpt lat="43.41168" lon="6.66358">
        <ele>102.3</ele>
        <time>2025-01-19T13:09:37Z</time>
      </trkpt>
      <trkpt lat="43.41168" lon="6.66357">
        <ele>102.3</ele>
        <time>2025-01-19T13:09:38Z</time>
      </trkpt>
      <trkpt lat="43.41169" lon="6.66356">
        <ele>102.3</ele>
        <time>2025-01-19T13:09:39Z</time>
      </trkpt>
      <trkpt lat="43.41169" lon="6.66355">
        <ele>102.2</ele>
        <time>2025-01-19T13:09:40Z</time>
      </trkpt>
      <trkpt lat="43.4117" lon="6.66354">
        <ele>102.1</ele>
        <time>2025-01-19T13:09:41Z</time>
      </trkpt>
      <trkpt lat="43.4117" lon="6.66352">
        <ele>102</ele>
        <time>2025-01-19T13:09:42Z</time>
      </trkpt>
      <trkpt lat="43.41171" lon="6.66351">
        <ele>101.8</ele>
        <time>2025-01-19T13:09:43Z</time>
      </trkpt>
      <trkpt lat="43.41171" lon="6.66349">
        <ele>101.7</ele>
        <time>2025-01-19T13:09:44Z</time>
      </trkpt>
      <trkpt lat="43.41171" lon="6.66348">
        <ele>101.5</ele>
        <time>2025-01-19T13:09:45Z</time>
      </trkpt>
      <trkpt lat="43.41172" lon="6.66346">
        <ele>101.4</ele>
        <time>2025-01-19T13:09:46Z</time>
      </trkpt>
      <trkpt lat="43.41172" lon="6.66345">
        <ele>101.3</ele>
        <time>2025-01-19T13:09:47Z</time>
      </trkpt>
      <trkpt lat="43.41172" lon="6.66344">
        <ele>101.2</ele>
        <time>2025-01-19T13:09:48Z</time>
      </trkpt>
      <trkpt lat="43.41173" lon="6.66343">
        <ele>101.1</ele>
        <time>2025-01-19T13:09:49Z</time>
      </trkpt>
      <trkpt lat="43.41173" lon="6.66341">
        <ele>101</ele>
        <time>2025-01-19T13:09:50Z</time>
      </trkpt>
      <trkpt lat="43.41175" lon="6.6634">
        <ele>100.8</ele>
        <time>2025-01-19T13:09:51Z</time>
      </trkpt>
      <trkpt lat="43.41175" lon="6.66339">
        <ele>100.7</ele>
        <time>2025-01-19T13:09:52Z</time>
      </trkpt>
      <trkpt lat="43.41175" lon="6.66338">
        <ele>100.5</ele>
        <time>2025-01-19T13:09:53Z</time>
      </trkpt>
      <trkpt lat="43.41175" lon="6.66336">
        <ele>100.3</ele>
        <time>2025-01-19T13:09:54Z</time>
      </trkpt>
      <trkpt lat="43.41176" lon="6.66335">
        <ele>100.2</ele>
        <time>2025-01-19T13:09:55Z</time>
      </trkpt>
      <trkpt lat="43.41177" lon="6.66334">
        <ele>100</ele>
        <time>2025-01-19T13:09:56Z</time>
      </trkpt>
      <trkpt lat="43.41178" lon="6.66334">
        <ele>99.9</ele>
        <time>2025-01-19T13:09:57Z</time>
      </trkpt>
      <trkpt lat="43.41179" lon="6.66333">
        <ele>99.9</ele>
        <time>2025-01-19T13:09:58Z</time>
      </trkpt>
      <trkpt lat="43.4118" lon="6.66331">
        <ele>99.9</ele>
        <time>2025-01-19T13:09:59Z</time>
      </trkpt>
      <trkpt lat="43.41181" lon="6.6633">
        <ele>99.7</ele>
        <time>2025-01-19T13:10:00Z</time>
      </trkpt>
      <trkpt lat="43.41181" lon="6.66329">
        <ele>99.6</ele>
        <time>2025-01-19T13:10:01Z</time>
      </trkpt>
      <trkpt lat="43.41182" lon="6.66328">
        <ele>99.5</ele>
        <time>2025-01-19T13:10:02Z</time>
      </trkpt>
      <trkpt lat="43.41183" lon="6.66327">
        <ele>99.4</ele>
        <time>2025-01-19T13:10:03Z</time>
      </trkpt>
      <trkpt lat="43.41184" lon="6.66326">
        <ele>99.3</ele>
        <time>2025-01-19T13:10:04Z</time>
      </trkpt>
      <trkpt lat="43.41184" lon="6.66325">
        <ele>99.2</ele>
        <time>2025-01-19T13:10:05Z</time>
      </trkpt>
      <trkpt lat="43.41185" lon="6.66324">
        <ele>99.1</ele>
        <time>2025-01-19T13:10:06Z</time>
      </trkpt>
      <trkpt lat="43.41186" lon="6.66323">
        <ele>99.1</ele>
        <time>2025-01-19T13:10:07Z</time>
      </trkpt>
      <trkpt lat="43.41187" lon="6.66322">
        <ele>99.1</ele>
        <time>2025-01-19T13:10:08Z</time>
      </trkpt>
      <trkpt lat="43.41188" lon="6.66321">
        <ele>99</ele>
        <time>2025-01-19T13:10:09Z</time>
      </trkpt>
      <trkpt lat="43.41188" lon="6.66321">
        <ele>99</ele>
        <time>2025-01-19T13:10:10Z</time>
      </trkpt>
      <trkpt lat="43.41189" lon="6.6632">
        <ele>98.9</ele>
        <time>2025-01-19T13:10:11Z</time>
      </trkpt>
      <trkpt lat="43.4119" lon="6.6632">
        <ele>98.9</ele>
        <time>2025-01-19T13:10:12Z</time>
      </trkpt>
      <trkpt lat="43.41191" lon="6.66319">
        <ele>98.8</ele>
        <time>2025-01-19T13:10:13Z</time>
      </trkpt>
      <trkpt lat="43.41192" lon="6.66318">
        <ele>98.7</ele>
        <time>2025-01-19T13:10:14Z</time>
      </trkpt>
      <trkpt lat="43.41193" lon="6.66318">
        <ele>98.5</ele>
        <time>2025-01-19T13:10:15Z</time>
      </trkpt>
      <trkpt lat="43.41194" lon="6.66318">
        <ele>98.3</ele>
        <time>2025-01-19T13:10:16Z</time>
      </trkpt>
      <trkpt lat="43.41196" lon="6.66317">
        <ele>98.2</ele>
        <time>2025-01-19T13:10:17Z</time>
      </trkpt>
      <trkpt lat="43.41197" lon="6.66317">
        <ele>98.1</ele>
        <time>2025-01-19T13:10:18Z</time>
      </trkpt>
      <trkpt lat="43.41197" lon="6.66317">
        <ele>97.9</ele>
        <time>2025-01-19T13:10:19Z</time>
      </trkpt>
      <trkpt lat="43.41198" lon="6.66316">
        <ele>97.8</ele>
        <time>2025-01-19T13:10:20Z</time>
      </trkpt>
      <trkpt lat="43.41199" lon="6.66316">
        <ele>97.7</ele>
        <time>2025-01-19T13:10:21Z</time>
      </trkpt>
      <trkpt lat="43.412" lon="6.66315">
        <ele>97.6</ele>
        <time>2025-01-19T13:10:22Z</time>
      </trkpt>
      <trkpt lat="43.41201" lon="6.66314">
        <ele>97.5</ele>
        <time>2025-01-19T13:10:23Z</time>
      </trkpt>
      <trkpt lat="43.41202" lon="6.66313">
        <ele>97.5</ele>
        <time>2025-01-19T13:10:24Z</time>
      </trkpt>
      <trkpt lat="43.41204" lon="6.66312">
        <ele>97.4</ele>
        <time>2025-01-19T13:10:25Z</time>
      </trkpt>
      <trkpt lat="43.41204" lon="6.66311">
        <ele>97.3</ele>
        <time>2025-01-19T13:10:26Z</time>
      </trkpt>
      <trkpt lat="43.41205" lon="6.6631">
        <ele>97.3</ele>
        <time>2025-01-19T13:10:27Z</time>
      </trkpt>
      <trkpt lat="43.41206" lon="6.66309">
        <ele>97.3</ele>
        <time>2025-01-19T13:10:28Z</time>
      </trkpt>
      <trkpt lat="43.41207" lon="6.66308">
        <ele>97.2</ele>
        <time>2025-01-19T13:10:29Z</time>
      </trkpt>
      <trkpt lat="43.41208" lon="6.66307">
        <ele>97.1</ele>
        <time>2025-01-19T13:10:30Z</time>
      </trkpt>
      <trkpt lat="43.41208" lon="6.66306">
        <ele>97</ele>
        <time>2025-01-19T13:10:31Z</time>
      </trkpt>
      <trkpt lat="43.41209" lon="6.66305">
        <ele>96.9</ele>
        <time>2025-01-19T13:10:32Z</time>
      </trkpt>
      <trkpt lat="43.4121" lon="6.66303">
        <ele>96.8</ele>
        <time>2025-01-19T13:10:33Z</time>
      </trkpt>
      <trkpt lat="43.41211" lon="6.66302">
        <ele>96.8</ele>
        <time>2025-01-19T13:10:34Z</time>
      </trkpt>
      <trkpt lat="43.41212" lon="6.66301">
        <ele>96.5</ele>
        <time>2025-01-19T13:10:35Z</time>
      </trkpt>
      <trkpt lat="43.41213" lon="6.66299">
        <ele>96.4</ele>
        <time>2025-01-19T13:10:36Z</time>
      </trkpt>
      <trkpt lat="43.41214" lon="6.66298">
        <ele>96.2</ele>
        <time>2025-01-19T13:10:37Z</time>
      </trkpt>
      <trkpt lat="43.41214" lon="6.66297">
        <ele>96.1</ele>
        <time>2025-01-19T13:10:38Z</time>
      </trkpt>
      <trkpt lat="43.41214" lon="6.66296">
        <ele>96</ele>
        <time>2025-01-19T13:10:39Z</time>
      </trkpt>
      <trkpt lat="43.41215" lon="6.66294">
        <ele>95.9</ele>
        <time>2025-01-19T13:10:40Z</time>
      </trkpt>
      <trkpt lat="43.41216" lon="6.66293">
        <ele>95.8</ele>
        <time>2025-01-19T13:10:41Z</time>
      </trkpt>
      <trkpt lat="43.41217" lon="6.66292">
        <ele>95.8</ele>
        <time>2025-01-19T13:10:42Z</time>
      </trkpt>
      <trkpt lat="43.41218" lon="6.66291">
        <ele>95.7</ele>
        <time>2025-01-19T13:10:43Z</time>
      </trkpt>
      <trkpt lat="43.41219" lon="6.6629">
        <ele>95.6</ele>
        <time>2025-01-19T13:10:44Z</time>
      </trkpt>
      <trkpt lat="43.4122" lon="6.66289">
        <ele>95.5</ele>
        <time>2025-01-19T13:10:45Z</time>
      </trkpt>
      <trkpt lat="43.41221" lon="6.66287">
        <ele>95.3</ele>
        <time>2025-01-19T13:10:46Z</time>
      </trkpt>
      <trkpt lat="43.41222" lon="6.66286">
        <ele>95.2</ele>
        <time>2025-01-19T13:10:47Z</time>
      </trkpt>
      <trkpt lat="43.41223" lon="6.66286">
        <ele>95.1</ele>
        <time>2025-01-19T13:10:48Z</time>
      </trkpt>
      <trkpt lat="43.41224" lon="6.66285">
        <ele>95</ele>
        <time>2025-01-19T13:10:49Z</time>
      </trkpt>
      <trkpt lat="43.41224" lon="6.66284">
        <ele>94.8</ele>
        <time>2025-01-19T13:10:50Z</time>
      </trkpt>
      <trkpt lat="43.41225" lon="6.66283">
        <ele>94.7</ele>
        <time>2025-01-19T13:10:51Z</time>
      </trkpt>
      <trkpt lat="43.41226" lon="6.66281">
        <ele>94.6</ele>
        <time>2025-01-19T13:10:52Z</time>
      </trkpt>
      <trkpt lat="43.41227" lon="6.6628">
        <ele>94.6</ele>
        <time>2025-01-19T13:10:53Z</time>
      </trkpt>
      <trkpt lat="43.41227" lon="6.66279">
        <ele>94.4</ele>
        <time>2025-01-19T13:10:54Z</time>
      </trkpt>
      <trkpt lat="43.41228" lon="6.66278">
        <ele>94.2</ele>
        <time>2025-01-19T13:10:55Z</time>
      </trkpt>
      <trkpt lat="43.4123" lon="6.66277">
        <ele>94.1</ele>
        <time>2025-01-19T13:10:56Z</time>
      </trkpt>
      <trkpt lat="43.41231" lon="6.66276">
        <ele>94</ele>
        <time>2025-01-19T13:10:57Z</time>
      </trkpt>
      <trkpt lat="43.41231" lon="6.66275">
        <ele>94</ele>
        <time>2025-01-19T13:10:58Z</time>
      </trkpt>
      <trkpt lat="43.41232" lon="6.66274">
        <ele>93.9</ele>
        <time>2025-01-19T13:10:59Z</time>
      </trkpt>
      <trkpt lat="43.41233" lon="6.66274">
        <ele>93.7</ele>
        <time>2025-01-19T13:11:00Z</time>
      </trkpt>
      <trkpt lat="43.41234" lon="6.66273">
        <ele>93.6</ele>
        <time>2025-01-19T13:11:01Z</time>
      </trkpt>
      <trkpt lat="43.41235" lon="6.66271">
        <ele>93.5</ele>
        <time>2025-01-19T13:11:02Z</time>
      </trkpt>
      <trkpt lat="43.41236" lon="6.66271">
        <ele>93.4</ele>
        <time>2025-01-19T13:11:03Z</time>
      </trkpt>
      <trkpt lat="43.41237" lon="6.6627">
        <ele>93.3</ele>
        <time>2025-01-19T13:11:04Z</time>
      </trkpt>
      <trkpt lat="43.41238" lon="6.66269">
        <ele>93.2</ele>
        <time>2025-01-19T13:11:05Z</time>
      </trkpt>
      <trkpt lat="43.41239" lon="6.66268">
        <ele>93.1</ele>
        <time>2025-01-19T13:11:06Z</time>
      </trkpt>
      <trkpt lat="43.4124" lon="6.66267">
        <ele>92.9</ele>
        <time>2025-01-19T13:11:07Z</time>
      </trkpt>
      <trkpt lat="43.41241" lon="6.66266">
        <ele>92.7</ele>
        <time>2025-01-19T13:11:08Z</time>
      </trkpt>
      <trkpt lat="43.41242" lon="6.66266">
        <ele>92.6</ele>
        <time>2025-01-19T13:11:09Z</time>
      </trkpt>
      <trkpt lat="43.41243" lon="6.66264">
        <ele>92.4</ele>
        <time>2025-01-19T13:11:10Z</time>
      </trkpt>
      <trkpt lat="43.41244" lon="6.66264">
        <ele>92.3</ele>
        <time>2025-01-19T13:11:11Z</time>
      </trkpt>
      <trkpt lat="43.41245" lon="6.66263">
        <ele>92.3</ele>
        <time>2025-01-19T13:11:12Z</time>
      </trkpt>
      <trkpt lat="43.41246" lon="6.66262">
        <ele>92.1</ele>
        <time>2025-01-19T13:11:13Z</time>
      </trkpt>
      <trkpt lat="43.41247" lon="6.66261">
        <ele>92</ele>
        <time>2025-01-19T13:11:14Z</time>
      </trkpt>
      <trkpt lat="43.41248" lon="6.6626">
        <ele>91.9</ele>
        <time>2025-01-19T13:11:15Z</time>
      </trkpt>
      <trkpt lat="43.41249" lon="6.66258">
        <ele>91.8</ele>
        <time>2025-01-19T13:11:16Z</time>
      </trkpt>
      <trkpt lat="43.4125" lon="6.66258">
        <ele>91.7</ele>
        <time>2025-01-19T13:11:17Z</time>
      </trkpt>
      <trkpt lat="43.4125" lon="6.66257">
        <ele>91.6</ele>
        <time>2025-01-19T13:11:18Z</time>
      </trkpt>
      <trkpt lat="43.41251" lon="6.66256">
        <ele>91.5</ele>
        <time>2025-01-19T13:11:19Z</time>
      </trkpt>
      <trkpt lat="43.41251" lon="6.66255">
        <ele>91.4</ele>
        <time>2025-01-19T13:11:20Z</time>
      </trkpt>
      <trkpt lat="43.41252" lon="6.66255">
        <ele>91.3</ele>
        <time>2025-01-19T13:11:21Z</time>
      </trkpt>
      <trkpt lat="43.41253" lon="6.66254">
        <ele>91.2</ele>
        <time>2025-01-19T13:11:22Z</time>
      </trkpt>
      <trkpt lat="43.41254" lon="6.66253">
        <ele>91.1</ele>
        <time>2025-01-19T13:11:23Z</time>
      </trkpt>
      <trkpt lat="43.41255" lon="6.66253">
        <ele>91</ele>
        <time>2025-01-19T13:11:24Z</time>
      </trkpt>
      <trkpt lat="43.41256" lon="6.66252">
        <ele>90.9</ele>
        <time>2025-01-19T13:11:25Z</time>
      </trkpt>
      <trkpt lat="43.41257" lon="6.66252">
        <ele>90.8</ele>
        <time>2025-01-19T13:11:26Z</time>
      </trkpt>
      <trkpt lat="43.41258" lon="6.66251">
        <ele>90.8</ele>
        <time>2025-01-19T13:11:27Z</time>
      </trkpt>
      <trkpt lat="43.41258" lon="6.66251">
        <ele>90.7</ele>
        <time>2025-01-19T13:11:28Z</time>
      </trkpt>
      <trkpt lat="43.41259" lon="6.66251">
        <ele>90.7</ele>
        <time>2025-01-19T13:11:29Z</time>
      </trkpt>
      <trkpt lat="43.41261" lon="6.66251">
        <ele>90.5</ele>
        <time>2025-01-19T13:11:30Z</time>
      </trkpt>
      <trkpt lat="43.41261" lon="6.66251">
        <ele>90.4</ele>
        <time>2025-01-19T13:11:31Z</time>
      </trkpt>
      <trkpt lat="43.41262" lon="6.6625">
        <ele>90.3</ele>
        <time>2025-01-19T13:11:32Z</time>
      </trkpt>
      <trkpt lat="43.41263" lon="6.6625">
        <ele>90.3</ele>
        <time>2025-01-19T13:11:33Z</time>
      </trkpt>
      <trkpt lat="43.41264" lon="6.6625">
        <ele>90.2</ele>
        <time>2025-01-19T13:11:34Z</time>
      </trkpt>
      <trkpt lat="43.41265" lon="6.6625">
        <ele>90.2</ele>
        <time>2025-01-19T13:11:35Z</time>
      </trkpt>
      <trkpt lat="43.41266" lon="6.6625">
        <ele>90.1</ele>
        <time>2025-01-19T13:11:36Z</time>
      </trkpt>
      <trkpt lat="43.41267" lon="6.6625">
        <ele>90.1</ele>
        <time>2025-01-19T13:11:37Z</time>
      </trkpt>
      <trkpt lat="43.41268" lon="6.6625">
        <ele>90</ele>
        <time>2025-01-19T13:11:38Z</time>
      </trkpt>
      <trkpt lat="43.41269" lon="6.6625">
        <ele>90</ele>
        <time>2025-01-19T13:11:39Z</time>
      </trkpt>
      <trkpt lat="43.4127" lon="6.6625">
        <ele>89.9</ele>
        <time>2025-01-19T13:11:40Z</time>
      </trkpt>
      <trkpt lat="43.4127" lon="6.6625">
        <ele>89.9</ele>
        <time>2025-01-19T13:11:41Z</time>
      </trkpt>
      <trkpt lat="43.41271" lon="6.6625">
        <ele>89.8</ele>
        <time>2025-01-19T13:11:42Z</time>
      </trkpt>
      <trkpt lat="43.41272" lon="6.6625">
        <ele>89.8</ele>
        <time>2025-01-19T13:11:43Z</time>
      </trkpt>
      <trkpt lat="43.41273" lon="6.6625">
        <ele>89.7</ele>
        <time>2025-01-19T13:11:44Z</time>
      </trkpt>
      <trkpt lat="43.41274" lon="6.66251">
        <ele>89.3</ele>
        <time>2025-01-19T13:11:45Z</time>
      </trkpt>
      <trkpt lat="43.41275" lon="6.66251">
        <ele>89.1</ele>
        <time>2025-01-19T13:11:46Z</time>
      </trkpt>
      <trkpt lat="43.41276" lon="6.66251">
        <ele>89.1</ele>
        <time>2025-01-19T13:11:47Z</time>
      </trkpt>
      <trkpt lat="43.41277" lon="6.66251">
        <ele>89.1</ele>
        <time>2025-01-19T13:11:48Z</time>
      </trkpt>
      <trkpt lat="43.41278" lon="6.66251">
        <ele>89.1</ele>
        <time>2025-01-19T13:11:49Z</time>
      </trkpt>
      <trkpt lat="43.41278" lon="6.66252">
        <ele>89.1</ele>
        <time>2025-01-19T13:11:50Z</time>
      </trkpt>
      <trkpt lat="43.41279" lon="6.66251">
        <ele>89</ele>
        <time>2025-01-19T13:11:51Z</time>
      </trkpt>
      <trkpt lat="43.4128" lon="6.66252">
        <ele>88.8</ele>
        <time>2025-01-19T13:11:52Z</time>
      </trkpt>
      <trkpt lat="43.41281" lon="6.66252">
        <ele>88.8</ele>
        <time>2025-01-19T13:11:53Z</time>
      </trkpt>
      <trkpt lat="43.41282" lon="6.66252">
        <ele>88.7</ele>
        <time>2025-01-19T13:11:54Z</time>
      </trkpt>
      <trkpt lat="43.41282" lon="6.66252">
        <ele>88.5</ele>
        <time>2025-01-19T13:11:55Z</time>
      </trkpt>
      <trkpt lat="43.41283" lon="6.66253">
        <ele>88.4</ele>
        <time>2025-01-19T13:11:56Z</time>
      </trkpt>
      <trkpt lat="43.41284" lon="6.66253">
        <ele>88.3</ele>
        <time>2025-01-19T13:11:57Z</time>
      </trkpt>
      <trkpt lat="43.41285" lon="6.66253">
        <ele>88.1</ele>
        <time>2025-01-19T13:11:58Z</time>
      </trkpt>
      <trkpt lat="43.41286" lon="6.66253">
        <ele>88</ele>
        <time>2025-01-19T13:11:59Z</time>
      </trkpt>
      <trkpt lat="43.41287" lon="6.66253">
        <ele>88</ele>
        <time>2025-01-19T13:12:00Z</time>
      </trkpt>
      <trkpt lat="43.41288" lon="6.66254">
        <ele>87.9</ele>
        <time>2025-01-19T13:12:01Z</time>
      </trkpt>
      <trkpt lat="43.41289" lon="6.66254">
        <ele>87.8</ele>
        <time>2025-01-19T13:12:02Z</time>
      </trkpt>
      <trkpt lat="43.4129" lon="6.66254">
        <ele>87.7</ele>
        <time>2025-01-19T13:12:03Z</time>
      </trkpt>
      <trkpt lat="43.41291" lon="6.66254">
        <ele>87.6</ele>
        <time>2025-01-19T13:12:04Z</time>
      </trkpt>
      <trkpt lat="43.41291" lon="6.66255">
        <ele>87.6</ele>
        <time>2025-01-19T13:12:05Z</time>
      </trkpt>
      <trkpt lat="43.41293" lon="6.66255">
        <ele>87.4</ele>
        <time>2025-01-19T13:12:06Z</time>
      </trkpt>
      <trkpt lat="43.41294" lon="6.66255">
        <ele>87.3</ele>
        <time>2025-01-19T13:12:07Z</time>
      </trkpt>
      <trkpt lat="43.41295" lon="6.66255">
        <ele>87.2</ele>
        <time>2025-01-19T13:12:08Z</time>
      </trkpt>
      <trkpt lat="43.41296" lon="6.66255">
        <ele>87</ele>
        <time>2025-01-19T13:12:09Z</time>
      </trkpt>
      <trkpt lat="43.41297" lon="6.66255">
        <ele>86.8</ele>
        <time>2025-01-19T13:12:10Z</time>
      </trkpt>
      <trkpt lat="43.41298" lon="6.66255">
        <ele>86.7</ele>
        <time>2025-01-19T13:12:11Z</time>
      </trkpt>
      <trkpt lat="43.41298" lon="6.66256">
        <ele>86.6</ele>
        <time>2025-01-19T13:12:12Z</time>
      </trkpt>
      <trkpt lat="43.41299" lon="6.66256">
        <ele>86.5</ele>
        <time>2025-01-19T13:12:13Z</time>
      </trkpt>
      <trkpt lat="43.413" lon="6.66256">
        <ele>86.3</ele>
        <time>2025-01-19T13:12:14Z</time>
      </trkpt>
      <trkpt lat="43.41302" lon="6.66256">
        <ele>86.1</ele>
        <time>2025-01-19T13:12:15Z</time>
      </trkpt>
      <trkpt lat="43.41303" lon="6.66256">
        <ele>85.9</ele>
        <time>2025-01-19T13:12:16Z</time>
      </trkpt>
      <trkpt lat="43.41303" lon="6.66257">
        <ele>85.7</ele>
        <time>2025-01-19T13:12:17Z</time>
      </trkpt>
      <trkpt lat="43.41304" lon="6.66257">
        <ele>85.5</ele>
        <time>2025-01-19T13:12:18Z</time>
      </trkpt>
      <trkpt lat="43.41305" lon="6.66257">
        <ele>85.3</ele>
        <time>2025-01-19T13:12:19Z</time>
      </trkpt>
      <trkpt lat="43.41306" lon="6.66257">
        <ele>85.2</ele>
        <time>2025-01-19T13:12:20Z</time>
      </trkpt>
      <trkpt lat="43.41307" lon="6.66257">
        <ele>85</ele>
        <time>2025-01-19T13:12:21Z</time>
      </trkpt>
      <trkpt lat="43.41307" lon="6.66257">
        <ele>84.9</ele>
        <time>2025-01-19T13:12:22Z</time>
      </trkpt>
      <trkpt lat="43.41308" lon="6.66258">
        <ele>84.7</ele>
        <time>2025-01-19T13:12:23Z</time>
      </trkpt>
      <trkpt lat="43.41309" lon="6.66258">
        <ele>84.5</ele>
        <time>2025-01-19T13:12:24Z</time>
      </trkpt>
      <trkpt lat="43.41309" lon="6.66258">
        <ele>84.3</ele>
        <time>2025-01-19T13:12:25Z</time>
      </trkpt>
      <trkpt lat="43.4131" lon="6.66259">
        <ele>84.1</ele>
        <time>2025-01-19T13:12:26Z</time>
      </trkpt>
      <trkpt lat="43.41311" lon="6.66259">
        <ele>83.9</ele>
        <time>2025-01-19T13:12:27Z</time>
      </trkpt>
      <trkpt lat="43.41312" lon="6.66259">
        <ele>83.7</ele>
        <time>2025-01-19T13:12:28Z</time>
      </trkpt>
      <trkpt lat="43.41313" lon="6.66259">
        <ele>83.6</ele>
        <time>2025-01-19T13:12:29Z</time>
      </trkpt>
      <trkpt lat="43.41314" lon="6.66259">
        <ele>83.5</ele>
        <time>2025-01-19T13:12:30Z</time>
      </trkpt>
      <trkpt lat="43.41315" lon="6.66259">
        <ele>83.3</ele>
        <time>2025-01-19T13:12:31Z</time>
      </trkpt>
      <trkpt lat="43.41316" lon="6.6626">
        <ele>83.1</ele>
        <time>2025-01-19T13:12:32Z</time>
      </trkpt>
      <trkpt lat="43.41317" lon="6.6626">
        <ele>83</ele>
        <time>2025-01-19T13:12:33Z</time>
      </trkpt>
      <trkpt lat="43.41318" lon="6.66261">
        <ele>82.8</ele>
        <time>2025-01-19T13:12:34Z</time>
      </trkpt>
      <trkpt lat="43.41319" lon="6.66262">
        <ele>82.7</ele>
        <time>2025-01-19T13:12:35Z</time>
      </trkpt>
      <trkpt lat="43.41319" lon="6.66262">
        <ele>82.6</ele>
        <time>2025-01-19T13:12:36Z</time>
      </trkpt>
      <trkpt lat="43.4132" lon="6.66263">
        <ele>82.5</ele>
        <time>2025-01-19T13:12:37Z</time>
      </trkpt>
      <trkpt lat="43.4132" lon="6.66264">
        <ele>82.4</ele>
        <time>2025-01-19T13:12:38Z</time>
      </trkpt>
      <trkpt lat="43.41321" lon="6.66265">
        <ele>82.3</ele>
        <time>2025-01-19T13:12:39Z</time>
      </trkpt>
      <trkpt lat="43.41321" lon="6.66266">
        <ele>82.2</ele>
        <time>2025-01-19T13:12:40Z</time>
      </trkpt>
      <trkpt lat="43.41322" lon="6.66267">
        <ele>82.1</ele>
        <time>2025-01-19T13:12:41Z</time>
      </trkpt>
      <trkpt lat="43.41322" lon="6.66267">
        <ele>81.9</ele>
        <time>2025-01-19T13:12:42Z</time>
      </trkpt>
      <trkpt lat="43.41322" lon="6.66268">
        <ele>81.8</ele>
        <time>2025-01-19T13:12:43Z</time>
      </trkpt>
      <trkpt lat="43.41323" lon="6.66269">
        <ele>81.7</ele>
        <time>2025-01-19T13:12:44Z</time>
      </trkpt>
      <trkpt lat="43.41323" lon="6.6627">
        <ele>81.5</ele>
        <time>2025-01-19T13:12:45Z</time>
      </trkpt>
      <trkpt lat="43.41324" lon="6.66271">
        <ele>81.4</ele>
        <time>2025-01-19T13:12:46Z</time>
      </trkpt>
      <trkpt lat="43.41325" lon="6.66271">
        <ele>81.3</ele>
        <time>2025-01-19T13:12:47Z</time>
      </trkpt>
      <trkpt lat="43.41325" lon="6.66272">
        <ele>81.1</ele>
        <time>2025-01-19T13:12:48Z</time>
      </trkpt>
      <trkpt lat="43.41326" lon="6.66273">
        <ele>80.9</ele>
        <time>2025-01-19T13:12:49Z</time>
      </trkpt>
      <trkpt lat="43.41327" lon="6.66274">
        <ele>80.7</ele>
        <time>2025-01-19T13:12:50Z</time>
      </trkpt>
      <trkpt lat="43.41327" lon="6.66275">
        <ele>80.6</ele>
        <time>2025-01-19T13:12:51Z</time>
      </trkpt>
      <trkpt lat="43.41328" lon="6.66276">
        <ele>80.4</ele>
        <time>2025-01-19T13:12:52Z</time>
      </trkpt>
      <trkpt lat="43.41328" lon="6.66277">
        <ele>80.3</ele>
        <time>2025-01-19T13:12:53Z</time>
      </trkpt>
      <trkpt lat="43.41328" lon="6.66278">
        <ele>80.2</ele>
        <time>2025-01-19T13:12:54Z</time>
      </trkpt>
      <trkpt lat="43.41329" lon="6.66278">
        <ele>80.1</ele>
        <time>2025-01-19T13:12:55Z</time>
      </trkpt>
      <trkpt lat="43.4133" lon="6.66279">
        <ele>79.9</ele>
        <time>2025-01-19T13:12:56Z</time>
      </trkpt>
      <trkpt lat="43.4133" lon="6.66279">
        <ele>79.7</ele>
        <time>2025-01-19T13:12:57Z</time>
      </trkpt>
      <trkpt lat="43.41331" lon="6.6628">
        <ele>79.5</ele>
        <time>2025-01-19T13:12:58Z</time>
      </trkpt>
      <trkpt lat="43.41332" lon="6.66281">
        <ele>79.4</ele>
        <time>2025-01-19T13:12:59Z</time>
      </trkpt>
      <trkpt lat="43.41332" lon="6.66282">
        <ele>79.2</ele>
        <time>2025-01-19T13:13:00Z</time>
      </trkpt>
      <trkpt lat="43.41333" lon="6.66283">
        <ele>79.1</ele>
        <time>2025-01-19T13:13:01Z</time>
      </trkpt>
      <trkpt lat="43.41334" lon="6.66284">
        <ele>79</ele>
        <time>2025-01-19T13:13:02Z</time>
      </trkpt>
      <trkpt lat="43.41335" lon="6.66285">
        <ele>78.9</ele>
        <time>2025-01-19T13:13:03Z</time>
      </trkpt>
      <trkpt lat="43.41336" lon="6.66286">
        <ele>78.8</ele>
        <time>2025-01-19T13:13:04Z</time>
      </trkpt>
      <trkpt lat="43.41336" lon="6.66287">
        <ele>78.6</ele>
        <time>2025-01-19T13:13:05Z</time>
      </trkpt>
      <trkpt lat="43.41337" lon="6.66288">
        <ele>78.4</ele>
        <time>2025-01-19T13:13:06Z</time>
      </trkpt>
      <trkpt lat="43.41337" lon="6.66288">
        <ele>78.2</ele>
        <time>2025-01-19T13:13:07Z</time>
      </trkpt>
      <trkpt lat="43.41337" lon="6.66289">
        <ele>78</ele>
        <time>2025-01-19T13:13:08Z</time>
      </trkpt>
      <trkpt lat="43.41338" lon="6.6629">
        <ele>77.8</ele>
        <time>2025-01-19T13:13:09Z</time>
      </trkpt>
      <trkpt lat="43.41338" lon="6.66292">
        <ele>77.7</ele>
        <time>2025-01-19T13:13:10Z</time>
      </trkpt>
      <trkpt lat="43.41339" lon="6.66293">
        <ele>77.5</ele>
        <time>2025-01-19T13:13:11Z</time>
      </trkpt>
      <trkpt lat="43.41338" lon="6.66294">
        <ele>77.3</ele>
        <time>2025-01-19T13:13:12Z</time>
      </trkpt>
      <trkpt lat="43.41338" lon="6.66295">
        <ele>77.1</ele>
        <time>2025-01-19T13:13:13Z</time>
      </trkpt>
      <trkpt lat="43.41339" lon="6.66295">
        <ele>76.9</ele>
        <time>2025-01-19T13:13:14Z</time>
      </trkpt>
      <trkpt lat="43.41339" lon="6.66296">
        <ele>76.8</ele>
        <time>2025-01-19T13:13:15Z</time>
      </trkpt>
      <trkpt lat="43.4134" lon="6.66297">
        <ele>76.6</ele>
        <time>2025-01-19T13:13:16Z</time>
      </trkpt>
      <trkpt lat="43.4134" lon="6.66298">
        <ele>76.5</ele>
        <time>2025-01-19T13:13:17Z</time>
      </trkpt>
      <trkpt lat="43.4134" lon="6.66299">
        <ele>76.5</ele>
        <time>2025-01-19T13:13:18Z</time>
      </trkpt>
      <trkpt lat="43.41341" lon="6.663">
        <ele>76.4</ele>
        <time>2025-01-19T13:13:19Z</time>
      </trkpt>
      <trkpt lat="43.41341" lon="6.66301">
        <ele>76.3</ele>
        <time>2025-01-19T13:13:20Z</time>
      </trkpt>
      <trkpt lat="43.41341" lon="6.66302">
        <ele>76.2</ele>
        <time>2025-01-19T13:13:21Z</time>
      </trkpt>
      <trkpt lat="43.41341" lon="6.66303">
        <ele>76.1</ele>
        <time>2025-01-19T13:13:22Z</time>
      </trkpt>
      <trkpt lat="43.41341" lon="6.66304">
        <ele>75.9</ele>
        <time>2025-01-19T13:13:23Z</time>
      </trkpt>
      <trkpt lat="43.41341" lon="6.66305">
        <ele>75.9</ele>
        <time>2025-01-19T13:13:24Z</time>
      </trkpt>
      <trkpt lat="43.41341" lon="6.66306">
        <ele>75.8</ele>
        <time>2025-01-19T13:13:25Z</time>
      </trkpt>
      <trkpt lat="43.41341" lon="6.66306">
        <ele>75.8</ele>
        <time>2025-01-19T13:13:26Z</time>
      </trkpt>
      <trkpt lat="43.41342" lon="6.66307">
        <ele>75.6</ele>
        <time>2025-01-19T13:13:27Z</time>
      </trkpt>
      <trkpt lat="43.41342" lon="6.66308">
        <ele>75.4</ele>
        <time>2025-01-19T13:13:28Z</time>
      </trkpt>
      <trkpt lat="43.41342" lon="6.66309">
        <ele>75.3</ele>
        <time>2025-01-19T13:13:29Z</time>
      </trkpt>
      <trkpt lat="43.41342" lon="6.6631">
        <ele>75.2</ele>
        <time>2025-01-19T13:13:30Z</time>
      </trkpt>
      <trkpt lat="43.41342" lon="6.66311">
        <ele>75</ele>
        <time>2025-01-19T13:13:31Z</time>
      </trkpt>
      <trkpt lat="43.41342" lon="6.66312">
        <ele>74.9</ele>
        <time>2025-01-19T13:13:32Z</time>
      </trkpt>
      <trkpt lat="43.41343" lon="6.66312">
        <ele>74.8</ele>
        <time>2025-01-19T13:13:33Z</time>
      </trkpt>
      <trkpt lat="43.41343" lon="6.66313">
        <ele>74.8</ele>
        <time>2025-01-19T13:13:34Z</time>
      </trkpt>
      <trkpt lat="43.41343" lon="6.66313">
        <ele>74.7</ele>
        <time>2025-01-19T13:13:35Z</time>
      </trkpt>
      <trkpt lat="43.41343" lon="6.66314">
        <ele>74.6</ele>
        <time>2025-01-19T13:13:36Z</time>
      </trkpt>
      <trkpt lat="43.41343" lon="6.66315">
        <ele>74.5</ele>
        <time>2025-01-19T13:13:37Z</time>
      </trkpt>
      <trkpt lat="43.41342" lon="6.66317">
        <ele>74.4</ele>
        <time>2025-01-19T13:13:38Z</time>
      </trkpt>
      <trkpt lat="43.41342" lon="6.66318">
        <ele>74.3</ele>
        <time>2025-01-19T13:13:39Z</time>
      </trkpt>
      <trkpt lat="43.41341" lon="6.66319">
        <ele>74.2</ele>
        <time>2025-01-19T13:13:40Z</time>
      </trkpt>
      <trkpt lat="43.4134" lon="6.6632">
        <ele>74.2</ele>
        <time>2025-01-19T13:13:41Z</time>
      </trkpt>
      <trkpt lat="43.4134" lon="6.66321">
        <ele>74.1</ele>
        <time>2025-01-19T13:13:42Z</time>
      </trkpt>
      <trkpt lat="43.41339" lon="6.66323">
        <ele>73.9</ele>
        <time>2025-01-19T13:13:43Z</time>
      </trkpt>
      <trkpt lat="43.41339" lon="6.66324">
        <ele>73.7</ele>
        <time>2025-01-19T13:13:44Z</time>
      </trkpt>
      <trkpt lat="43.41339" lon="6.66325">
        <ele>73.6</ele>
        <time>2025-01-19T13:13:45Z</time>
      </trkpt>
      <trkpt lat="43.4134" lon="6.66326">
        <ele>73.5</ele>
        <time>2025-01-19T13:13:46Z</time>
      </trkpt>
      <trkpt lat="43.4134" lon="6.66327">
        <ele>73.3</ele>
        <time>2025-01-19T13:13:47Z</time>
      </trkpt>
      <trkpt lat="43.4134" lon="6.66328">
        <ele>73.1</ele>
        <time>2025-01-19T13:13:48Z</time>
      </trkpt>
      <trkpt lat="43.41339" lon="6.66329">
        <ele>73</ele>
        <time>2025-01-19T13:13:49Z</time>
      </trkpt>
      <trkpt lat="43.41339" lon="6.66331">
        <ele>72.9</ele>
        <time>2025-01-19T13:13:50Z</time>
      </trkpt>
      <trkpt lat="43.41339" lon="6.66332">
        <ele>72.8</ele>
        <time>2025-01-19T13:13:51Z</time>
      </trkpt>
      <trkpt lat="43.41339" lon="6.66333">
        <ele>72.6</ele>
        <time>2025-01-19T13:13:52Z</time>
      </trkpt>
      <trkpt lat="43.41339" lon="6.66334">
        <ele>72.5</ele>
        <time>2025-01-19T13:13:53Z</time>
      </trkpt>
      <trkpt lat="43.41339" lon="6.66335">
        <ele>72.5</ele>
        <time>2025-01-19T13:13:54Z</time>
      </trkpt>
      <trkpt lat="43.41339" lon="6.66336">
        <ele>72.3</ele>
        <time>2025-01-19T13:13:55Z</time>
      </trkpt>
      <trkpt lat="43.41339" lon="6.66337">
        <ele>72.2</ele>
        <time>2025-01-19T13:13:56Z</time>
      </trkpt>
      <trkpt lat="43.41339" lon="6.66338">
        <ele>72.1</ele>
        <time>2025-01-19T13:13:57Z</time>
      </trkpt>
      <trkpt lat="43.41339" lon="6.6634">
        <ele>72</ele>
        <time>2025-01-19T13:13:58Z</time>
      </trkpt>
      <trkpt lat="43.41338" lon="6.66341">
        <ele>71.9</ele>
        <time>2025-01-19T13:13:59Z</time>
      </trkpt>
      <trkpt lat="43.41337" lon="6.66343">
        <ele>71.7</ele>
        <time>2025-01-19T13:14:00Z</time>
      </trkpt>
      <trkpt lat="43.41337" lon="6.66345">
        <ele>71.6</ele>
        <time>2025-01-19T13:14:01Z</time>
      </trkpt>
      <trkpt lat="43.41337" lon="6.66346">
        <ele>71.5</ele>
        <time>2025-01-19T13:14:02Z</time>
      </trkpt>
      <trkpt lat="43.41337" lon="6.66347">
        <ele>71.4</ele>
        <time>2025-01-19T13:14:03Z</time>
      </trkpt>
      <trkpt lat="43.41337" lon="6.66348">
        <ele>71.4</ele>
        <time>2025-01-19T13:14:04Z</time>
      </trkpt>
      <trkpt lat="43.41337" lon="6.6635">
        <ele>71.3</ele>
        <time>2025-01-19T13:14:05Z</time>
      </trkpt>
      <trkpt lat="43.41337" lon="6.66351">
        <ele>71.2</ele>
        <time>2025-01-19T13:14:06Z</time>
      </trkpt>
      <trkpt lat="43.41337" lon="6.66353">
        <ele>71.1</ele>
        <time>2025-01-19T13:14:07Z</time>
      </trkpt>
      <trkpt lat="43.41338" lon="6.66355">
        <ele>71.1</ele>
        <time>2025-01-19T13:14:08Z</time>
      </trkpt>
      <trkpt lat="43.41338" lon="6.66356">
        <ele>71</ele>
        <time>2025-01-19T13:14:09Z</time>
      </trkpt>
      <trkpt lat="43.41339" lon="6.66357">
        <ele>70.9</ele>
        <time>2025-01-19T13:14:10Z</time>
      </trkpt>
      <trkpt lat="43.41339" lon="6.66359">
        <ele>70.7</ele>
        <time>2025-01-19T13:14:11Z</time>
      </trkpt>
      <trkpt lat="43.41339" lon="6.6636">
        <ele>70.5</ele>
        <time>2025-01-19T13:14:12Z</time>
      </trkpt>
      <trkpt lat="43.41339" lon="6.66361">
        <ele>70.4</ele>
        <time>2025-01-19T13:14:13Z</time>
      </trkpt>
      <trkpt lat="43.4134" lon="6.66363">
        <ele>70.2</ele>
        <time>2025-01-19T13:14:14Z</time>
      </trkpt>
      <trkpt lat="43.41341" lon="6.66364">
        <ele>70.1</ele>
        <time>2025-01-19T13:14:15Z</time>
      </trkpt>
      <trkpt lat="43.41341" lon="6.66366">
        <ele>70</ele>
        <time>2025-01-19T13:14:16Z</time>
      </trkpt>
      <trkpt lat="43.41341" lon="6.66367">
        <ele>69.9</ele>
        <time>2025-01-19T13:14:17Z</time>
      </trkpt>
      <trkpt lat="43.41342" lon="6.66369">
        <ele>69.6</ele>
        <time>2025-01-19T13:14:18Z</time>
      </trkpt>
      <trkpt lat="43.41343" lon="6.6637">
        <ele>69.5</ele>
        <time>2025-01-19T13:14:19Z</time>
      </trkpt>
      <trkpt lat="43.41343" lon="6.66371">
        <ele>69.4</ele>
        <time>2025-01-19T13:14:20Z</time>
      </trkpt>
      <trkpt lat="43.41343" lon="6.66372">
        <ele>69.2</ele>
        <time>2025-01-19T13:14:21Z</time>
      </trkpt>
      <trkpt lat="43.41343" lon="6.66373">
        <ele>69.1</ele>
        <time>2025-01-19T13:14:22Z</time>
      </trkpt>
      <trkpt lat="43.41343" lon="6.66374">
        <ele>68.9</ele>
        <time>2025-01-19T13:14:23Z</time>
      </trkpt>
      <trkpt lat="43.41344" lon="6.66376">
        <ele>68.8</ele>
        <time>2025-01-19T13:14:24Z</time>
      </trkpt>
      <trkpt lat="43.41345" lon="6.66377">
        <ele>68.7</ele>
        <time>2025-01-19T13:14:25Z</time>
      </trkpt>
      <trkpt lat="43.41345" lon="6.66378">
        <ele>68.6</ele>
        <time>2025-01-19T13:14:26Z</time>
      </trkpt>
      <trkpt lat="43.41346" lon="6.66379">
        <ele>68.4</ele>
        <time>2025-01-19T13:14:27Z</time>
      </trkpt>
      <trkpt lat="43.41346" lon="6.66381">
        <ele>68.3</ele>
        <time>2025-01-19T13:14:28Z</time>
      </trkpt>
      <trkpt lat="43.41347" lon="6.66382">
        <ele>68.1</ele>
        <time>2025-01-19T13:14:29Z</time>
      </trkpt>
      <trkpt lat="43.41346" lon="6.66384">
        <ele>68</ele>
        <time>2025-01-19T13:14:30Z</time>
      </trkpt>
      <trkpt lat="43.41347" lon="6.66385">
        <ele>67.8</ele>
        <time>2025-01-19T13:14:31Z</time>
      </trkpt>
      <trkpt lat="43.41347" lon="6.66386">
        <ele>67.7</ele>
        <time>2025-01-19T13:14:32Z</time>
      </trkpt>
      <trkpt lat="43.41348" lon="6.66387">
        <ele>67.6</ele>
        <time>2025-01-19T13:14:33Z</time>
      </trkpt>
      <trkpt lat="43.41348" lon="6.66388">
        <ele>67.4</ele>
        <time>2025-01-19T13:14:34Z</time>
      </trkpt>
      <trkpt lat="43.41349" lon="6.66389">
        <ele>67.2</ele>
        <time>2025-01-19T13:14:35Z</time>
      </trkpt>
      <trkpt lat="43.41349" lon="6.66391">
        <ele>67</ele>
        <time>2025-01-19T13:14:36Z</time>
      </trkpt>
      <trkpt lat="43.4135" lon="6.66393">
        <ele>66.8</ele>
        <time>2025-01-19T13:14:37Z</time>
      </trkpt>
      <trkpt lat="43.4135" lon="6.66394">
        <ele>66.7</ele>
        <time>2025-01-19T13:14:38Z</time>
      </trkpt>
      <trkpt lat="43.41351" lon="6.66395">
        <ele>66.6</ele>
        <time>2025-01-19T13:14:39Z</time>
      </trkpt>
      <trkpt lat="43.41352" lon="6.66396">
        <ele>66.6</ele>
        <time>2025-01-19T13:14:40Z</time>
      </trkpt>
      <trkpt lat="43.41352" lon="6.66397">
        <ele>66.2</ele>
        <time>2025-01-19T13:14:41Z</time>
      </trkpt>
      <trkpt lat="43.41353" lon="6.66397">
        <ele>66.1</ele>
        <time>2025-01-19T13:14:42Z</time>
      </trkpt>
      <trkpt lat="43.41354" lon="6.66398">
        <ele>66</ele>
        <time>2025-01-19T13:14:43Z</time>
      </trkpt>
      <trkpt lat="43.41355" lon="6.66398">
        <ele>65.9</ele>
        <time>2025-01-19T13:14:44Z</time>
      </trkpt>
      <trkpt lat="43.41355" lon="6.66399">
        <ele>65.8</ele>
        <time>2025-01-19T13:14:45Z</time>
      </trkpt>
      <trkpt lat="43.41355" lon="6.66401">
        <ele>65.7</ele>
        <time>2025-01-19T13:14:46Z</time>
      </trkpt>
      <trkpt lat="43.41355" lon="6.66402">
        <ele>65.5</ele>
        <time>2025-01-19T13:14:47Z</time>
      </trkpt>
      <trkpt lat="43.41357" lon="6.66403">
        <ele>65.3</ele>
        <time>2025-01-19T13:14:48Z</time>
      </trkpt>
      <trkpt lat="43.41357" lon="6.66404">
        <ele>65</ele>
        <time>2025-01-19T13:14:49Z</time>
      </trkpt>
      <trkpt lat="43.41358" lon="6.66404">
        <ele>64.8</ele>
        <time>2025-01-19T13:14:50Z</time>
      </trkpt>
      <trkpt lat="43.41358" lon="6.66405">
        <ele>64.6</ele>
        <time>2025-01-19T13:14:51Z</time>
      </trkpt>
      <trkpt lat="43.41359" lon="6.66407">
        <ele>64.5</ele>
        <time>2025-01-19T13:14:52Z</time>
      </trkpt>
      <trkpt lat="43.4136" lon="6.66408">
        <ele>64.4</ele>
        <time>2025-01-19T13:14:53Z</time>
      </trkpt>
      <trkpt lat="43.41361" lon="6.66409">
        <ele>64.4</ele>
        <time>2025-01-19T13:14:54Z</time>
      </trkpt>
      <trkpt lat="43.41362" lon="6.6641">
        <ele>64.4</ele>
        <time>2025-01-19T13:14:55Z</time>
      </trkpt>
      <trkpt lat="43.41362" lon="6.66411">
        <ele>64.4</ele>
        <time>2025-01-19T13:14:56Z</time>
      </trkpt>
      <trkpt lat="43.41362" lon="6.66412">
        <ele>64.4</ele>
        <time>2025-01-19T13:14:57Z</time>
      </trkpt>
      <trkpt lat="43.41363" lon="6.66414">
        <ele>64.3</ele>
        <time>2025-01-19T13:14:58Z</time>
      </trkpt>
      <trkpt lat="43.41364" lon="6.66415">
        <ele>64.3</ele>
        <time>2025-01-19T13:14:59Z</time>
      </trkpt>
      <trkpt lat="43.41365" lon="6.66416">
        <ele>64.2</ele>
        <time>2025-01-19T13:15:00Z</time>
      </trkpt>
      <trkpt lat="43.41366" lon="6.66416">
        <ele>64.2</ele>
        <time>2025-01-19T13:15:01Z</time>
      </trkpt>
      <trkpt lat="43.41367" lon="6.66416">
        <ele>64.2</ele>
        <time>2025-01-19T13:15:02Z</time>
      </trkpt>
      <trkpt lat="43.41368" lon="6.66417">
        <ele>64.3</ele>
        <time>2025-01-19T13:15:03Z</time>
      </trkpt>
      <trkpt lat="43.4137" lon="6.66418">
        <ele>64.3</ele>
        <time>2025-01-19T13:15:04Z</time>
      </trkpt>
      <trkpt lat="43.41371" lon="6.66419">
        <ele>64.2</ele>
        <time>2025-01-19T13:15:05Z</time>
      </trkpt>
      <trkpt lat="43.41372" lon="6.6642">
        <ele>64</ele>
        <time>2025-01-19T13:15:06Z</time>
      </trkpt>
      <trkpt lat="43.41374" lon="6.6642">
        <ele>64</ele>
        <time>2025-01-19T13:15:07Z</time>
      </trkpt>
      <trkpt lat="43.41375" lon="6.66421">
        <ele>63.9</ele>
        <time>2025-01-19T13:15:08Z</time>
      </trkpt>
      <trkpt lat="43.41375" lon="6.66423">
        <ele>63.9</ele>
        <time>2025-01-19T13:15:09Z</time>
      </trkpt>
      <trkpt lat="43.41376" lon="6.66424">
        <ele>63.8</ele>
        <time>2025-01-19T13:15:10Z</time>
      </trkpt>
      <trkpt lat="43.41378" lon="6.66425">
        <ele>63.8</ele>
        <time>2025-01-19T13:15:11Z</time>
      </trkpt>
      <trkpt lat="43.41379" lon="6.66426">
        <ele>63.7</ele>
        <time>2025-01-19T13:15:12Z</time>
      </trkpt>
      <trkpt lat="43.41381" lon="6.66426">
        <ele>63.7</ele>
        <time>2025-01-19T13:15:13Z</time>
      </trkpt>
      <trkpt lat="43.41381" lon="6.66427">
        <ele>63.7</ele>
        <time>2025-01-19T13:15:14Z</time>
      </trkpt>
      <trkpt lat="43.41382" lon="6.66428">
        <ele>63.6</ele>
        <time>2025-01-19T13:15:15Z</time>
      </trkpt>
      <trkpt lat="43.41383" lon="6.66427">
        <ele>63.6</ele>
        <time>2025-01-19T13:15:16Z</time>
      </trkpt>
      <trkpt lat="43.41384" lon="6.66428">
        <ele>63.5</ele>
        <time>2025-01-19T13:15:17Z</time>
      </trkpt>
      <trkpt lat="43.41385" lon="6.66429">
        <ele>63.4</ele>
        <time>2025-01-19T13:15:18Z</time>
      </trkpt>
      <trkpt lat="43.41387" lon="6.66429">
        <ele>63.4</ele>
        <time>2025-01-19T13:15:19Z</time>
      </trkpt>
      <trkpt lat="43.41388" lon="6.6643">
        <ele>63.3</ele>
        <time>2025-01-19T13:15:20Z</time>
      </trkpt>
      <trkpt lat="43.41389" lon="6.6643">
        <ele>63.2</ele>
        <time>2025-01-19T13:15:21Z</time>
      </trkpt>
      <trkpt lat="43.41391" lon="6.66431">
        <ele>63.1</ele>
        <time>2025-01-19T13:15:22Z</time>
      </trkpt>
      <trkpt lat="43.41392" lon="6.66432">
        <ele>63</ele>
        <time>2025-01-19T13:15:23Z</time>
      </trkpt>
      <trkpt lat="43.41394" lon="6.66433">
        <ele>62.8</ele>
        <time>2025-01-19T13:15:24Z</time>
      </trkpt>
      <trkpt lat="43.41395" lon="6.66433">
        <ele>62.7</ele>
        <time>2025-01-19T13:15:25Z</time>
      </trkpt>
      <trkpt lat="43.41396" lon="6.66433">
        <ele>62.7</ele>
        <time>2025-01-19T13:15:26Z</time>
      </trkpt>
      <trkpt lat="43.41398" lon="6.66433">
        <ele>62.6</ele>
        <time>2025-01-19T13:15:27Z</time>
      </trkpt>
      <trkpt lat="43.41399" lon="6.66433">
        <ele>62.5</ele>
        <time>2025-01-19T13:15:28Z</time>
      </trkpt>
      <trkpt lat="43.414" lon="6.66433">
        <ele>62.5</ele>
        <time>2025-01-19T13:15:29Z</time>
      </trkpt>
      <trkpt lat="43.414" lon="6.66434">
        <ele>62.3</ele>
        <time>2025-01-19T13:15:30Z</time>
      </trkpt>
      <trkpt lat="43.41401" lon="6.66435">
        <ele>62.2</ele>
        <time>2025-01-19T13:15:31Z</time>
      </trkpt>
      <trkpt lat="43.41401" lon="6.66436">
        <ele>61.9</ele>
        <time>2025-01-19T13:15:32Z</time>
      </trkpt>
      <trkpt lat="43.41401" lon="6.66437">
        <ele>61.8</ele>
        <time>2025-01-19T13:15:33Z</time>
      </trkpt>
      <trkpt lat="43.41401" lon="6.66438">
        <ele>61.6</ele>
        <time>2025-01-19T13:15:34Z</time>
      </trkpt>
      <trkpt lat="43.41401" lon="6.66439">
        <ele>61.4</ele>
        <time>2025-01-19T13:15:35Z</time>
      </trkpt>
      <trkpt lat="43.41402" lon="6.6644">
        <ele>61.2</ele>
        <time>2025-01-19T13:15:36Z</time>
      </trkpt>
      <trkpt lat="43.41402" lon="6.66441">
        <ele>61</ele>
        <time>2025-01-19T13:15:37Z</time>
      </trkpt>
      <trkpt lat="43.41404" lon="6.66441">
        <ele>60.8</ele>
        <time>2025-01-19T13:15:38Z</time>
      </trkpt>
      <trkpt lat="43.41405" lon="6.66441">
        <ele>60.6</ele>
        <time>2025-01-19T13:15:39Z</time>
      </trkpt>
      <trkpt lat="43.41404" lon="6.66442">
        <ele>60.5</ele>
        <time>2025-01-19T13:15:40Z</time>
      </trkpt>
      <trkpt lat="43.41405" lon="6.66443">
        <ele>60.5</ele>
        <time>2025-01-19T13:15:41Z</time>
      </trkpt>
      <trkpt lat="43.41406" lon="6.66443">
        <ele>60.4</ele>
        <time>2025-01-19T13:15:42Z</time>
      </trkpt>
      <trkpt lat="43.41408" lon="6.66443">
        <ele>60.3</ele>
        <time>2025-01-19T13:15:43Z</time>
      </trkpt>
      <trkpt lat="43.41409" lon="6.66444">
        <ele>60.3</ele>
        <time>2025-01-19T13:15:44Z</time>
      </trkpt>
      <trkpt lat="43.4141" lon="6.66445">
        <ele>60.1</ele>
        <time>2025-01-19T13:15:45Z</time>
      </trkpt>
      <trkpt lat="43.41411" lon="6.66445">
        <ele>59.9</ele>
        <time>2025-01-19T13:15:46Z</time>
      </trkpt>
      <trkpt lat="43.41413" lon="6.66446">
        <ele>59.8</ele>
        <time>2025-01-19T13:15:47Z</time>
      </trkpt>
      <trkpt lat="43.41414" lon="6.66446">
        <ele>59.7</ele>
        <time>2025-01-19T13:15:48Z</time>
      </trkpt>
      <trkpt lat="43.41415" lon="6.66447">
        <ele>59.6</ele>
        <time>2025-01-19T13:15:49Z</time>
      </trkpt>
      <trkpt lat="43.41416" lon="6.66448">
        <ele>59.4</ele>
        <time>2025-01-19T13:15:50Z</time>
      </trkpt>
      <trkpt lat="43.41417" lon="6.66449">
        <ele>59.3</ele>
        <time>2025-01-19T13:15:51Z</time>
      </trkpt>
      <trkpt lat="43.41417" lon="6.6645">
        <ele>59.2</ele>
        <time>2025-01-19T13:15:52Z</time>
      </trkpt>
      <trkpt lat="43.41418" lon="6.66451">
        <ele>59</ele>
        <time>2025-01-19T13:15:53Z</time>
      </trkpt>
      <trkpt lat="43.41419" lon="6.66451">
        <ele>58.9</ele>
        <time>2025-01-19T13:15:54Z</time>
      </trkpt>
      <trkpt lat="43.4142" lon="6.66452">
        <ele>58.7</ele>
        <time>2025-01-19T13:15:55Z</time>
      </trkpt>
      <trkpt lat="43.41421" lon="6.66453">
        <ele>58.5</ele>
        <time>2025-01-19T13:15:56Z</time>
      </trkpt>
      <trkpt lat="43.41421" lon="6.66454">
        <ele>58.4</ele>
        <time>2025-01-19T13:15:57Z</time>
      </trkpt>
      <trkpt lat="43.41422" lon="6.66454">
        <ele>58.2</ele>
        <time>2025-01-19T13:15:58Z</time>
      </trkpt>
      <trkpt lat="43.41423" lon="6.66455">
        <ele>58.1</ele>
        <time>2025-01-19T13:15:59Z</time>
      </trkpt>
      <trkpt lat="43.41424" lon="6.66456">
        <ele>57.9</ele>
        <time>2025-01-19T13:16:00Z</time>
      </trkpt>
      <trkpt lat="43.41425" lon="6.66457">
        <ele>57.7</ele>
        <time>2025-01-19T13:16:01Z</time>
      </trkpt>
      <trkpt lat="43.41425" lon="6.66459">
        <ele>57.6</ele>
        <time>2025-01-19T13:16:02Z</time>
      </trkpt>
      <trkpt lat="43.41426" lon="6.6646">
        <ele>57.4</ele>
        <time>2025-01-19T13:16:03Z</time>
      </trkpt>
      <trkpt lat="43.41426" lon="6.66461">
        <ele>57.3</ele>
        <time>2025-01-19T13:16:04Z</time>
      </trkpt>
      <trkpt lat="43.41426" lon="6.66462">
        <ele>57.1</ele>
        <time>2025-01-19T13:16:05Z</time>
      </trkpt>
      <trkpt lat="43.41427" lon="6.66463">
        <ele>57</ele>
        <time>2025-01-19T13:16:06Z</time>
      </trkpt>
      <trkpt lat="43.41428" lon="6.66464">
        <ele>56.7</ele>
        <time>2025-01-19T13:16:07Z</time>
      </trkpt>
      <trkpt lat="43.41428" lon="6.66465">
        <ele>56.4</ele>
        <time>2025-01-19T13:16:08Z</time>
      </trkpt>
      <trkpt lat="43.41429" lon="6.66466">
        <ele>56.2</ele>
        <time>2025-01-19T13:16:09Z</time>
      </trkpt>
      <trkpt lat="43.41429" lon="6.66467">
        <ele>56.1</ele>
        <time>2025-01-19T13:16:10Z</time>
      </trkpt>
      <trkpt lat="43.41428" lon="6.66468">
        <ele>55.9</ele>
        <time>2025-01-19T13:16:11Z</time>
      </trkpt>
      <trkpt lat="43.41429" lon="6.66469">
        <ele>55.7</ele>
        <time>2025-01-19T13:16:12Z</time>
      </trkpt>
      <trkpt lat="43.41429" lon="6.66471">
        <ele>55.5</ele>
        <time>2025-01-19T13:16:13Z</time>
      </trkpt>
      <trkpt lat="43.41428" lon="6.66472">
        <ele>55.4</ele>
        <time>2025-01-19T13:16:14Z</time>
      </trkpt>
      <trkpt lat="43.41429" lon="6.66473">
        <ele>55.2</ele>
        <time>2025-01-19T13:16:15Z</time>
      </trkpt>
      <trkpt lat="43.41428" lon="6.66475">
        <ele>55</ele>
        <time>2025-01-19T13:16:16Z</time>
      </trkpt>
      <trkpt lat="43.41429" lon="6.66476">
        <ele>54.8</ele>
        <time>2025-01-19T13:16:17Z</time>
      </trkpt>
      <trkpt lat="43.4143" lon="6.66477">
        <ele>54.6</ele>
        <time>2025-01-19T13:16:18Z</time>
      </trkpt>
      <trkpt lat="43.4143" lon="6.66479">
        <ele>54.5</ele>
        <time>2025-01-19T13:16:19Z</time>
      </trkpt>
      <trkpt lat="43.41431" lon="6.6648">
        <ele>54.6</ele>
        <time>2025-01-19T13:16:20Z</time>
      </trkpt>
      <trkpt lat="43.41432" lon="6.66482">
        <ele>54.5</ele>
        <time>2025-01-19T13:16:21Z</time>
      </trkpt>
      <trkpt lat="43.41433" lon="6.66483">
        <ele>54.4</ele>
        <time>2025-01-19T13:16:22Z</time>
      </trkpt>
      <trkpt lat="43.41434" lon="6.66484">
        <ele>54.3</ele>
        <time>2025-01-19T13:16:23Z</time>
      </trkpt>
      <trkpt lat="43.41435" lon="6.66485">
        <ele>54.2</ele>
        <time>2025-01-19T13:16:24Z</time>
      </trkpt>
      <trkpt lat="43.41436" lon="6.66486">
        <ele>54.1</ele>
        <time>2025-01-19T13:16:25Z</time>
      </trkpt>
      <trkpt lat="43.41437" lon="6.66487">
        <ele>54</ele>
        <time>2025-01-19T13:16:26Z</time>
      </trkpt>
      <trkpt lat="43.41438" lon="6.66487">
        <ele>53.9</ele>
        <time>2025-01-19T13:16:27Z</time>
      </trkpt>
      <trkpt lat="43.41439" lon="6.66487">
        <ele>53.6</ele>
        <time>2025-01-19T13:16:28Z</time>
      </trkpt>
      <trkpt lat="43.41441" lon="6.66486">
        <ele>53.6</ele>
        <time>2025-01-19T13:16:29Z</time>
      </trkpt>
      <trkpt lat="43.41442" lon="6.66486">
        <ele>53.5</ele>
        <time>2025-01-19T13:16:30Z</time>
      </trkpt>
      <trkpt lat="43.41444" lon="6.66486">
        <ele>53.5</ele>
        <time>2025-01-19T13:16:31Z</time>
      </trkpt>
      <trkpt lat="43.41446" lon="6.66486">
        <ele>53.4</ele>
        <time>2025-01-19T13:16:32Z</time>
      </trkpt>
      <trkpt lat="43.41447" lon="6.66485">
        <ele>53.4</ele>
        <time>2025-01-19T13:16:33Z</time>
      </trkpt>
      <trkpt lat="43.41449" lon="6.66485">
        <ele>53.4</ele>
        <time>2025-01-19T13:16:34Z</time>
      </trkpt>
      <trkpt lat="43.4145" lon="6.66485">
        <ele>53.4</ele>
        <time>2025-01-19T13:16:35Z</time>
      </trkpt>
      <trkpt lat="43.41451" lon="6.66485">
        <ele>53.4</ele>
        <time>2025-01-19T13:16:36Z</time>
      </trkpt>
      <trkpt lat="43.41452" lon="6.66485">
        <ele>53.5</ele>
        <time>2025-01-19T13:16:37Z</time>
      </trkpt>
      <trkpt lat="43.41453" lon="6.66484">
        <ele>53.6</ele>
        <time>2025-01-19T13:16:38Z</time>
      </trkpt>
      <trkpt lat="43.41454" lon="6.66484">
        <ele>53.5</ele>
        <time>2025-01-19T13:16:39Z</time>
      </trkpt>
      <trkpt lat="43.41456" lon="6.66484">
        <ele>53.5</ele>
        <time>2025-01-19T13:16:40Z</time>
      </trkpt>
      <trkpt lat="43.41457" lon="6.66484">
        <ele>53.5</ele>
        <time>2025-01-19T13:16:41Z</time>
      </trkpt>
      <trkpt lat="43.41458" lon="6.66484">
        <ele>53.5</ele>
        <time>2025-01-19T13:16:42Z</time>
      </trkpt>
      <trkpt lat="43.41459" lon="6.66484">
        <ele>53.5</ele>
        <time>2025-01-19T13:16:43Z</time>
      </trkpt>
      <trkpt lat="43.41461" lon="6.66484">
        <ele>53.6</ele>
        <time>2025-01-19T13:16:44Z</time>
      </trkpt>
      <trkpt lat="43.41462" lon="6.66485">
        <ele>53.6</ele>
        <time>2025-01-19T13:16:45Z</time>
      </trkpt>
      <trkpt lat="43.41463" lon="6.66485">
        <ele>53.6</ele>
        <time>2025-01-19T13:16:46Z</time>
      </trkpt>
      <trkpt lat="43.41464" lon="6.66485">
        <ele>53.5</ele>
        <time>2025-01-19T13:16:47Z</time>
      </trkpt>
      <trkpt lat="43.41465" lon="6.66486">
        <ele>53.5</ele>
        <time>2025-01-19T13:16:48Z</time>
      </trkpt>
      <trkpt lat="43.41466" lon="6.66486">
        <ele>53.5</ele>
        <time>2025-01-19T13:16:49Z</time>
      </trkpt>
      <trkpt lat="43.41467" lon="6.66487">
        <ele>53.5</ele>
        <time>2025-01-19T13:16:50Z</time>
      </trkpt>
      <trkpt lat="43.41468" lon="6.66487">
        <ele>53.6</ele>
        <time>2025-01-19T13:16:51Z</time>
      </trkpt>
      <trkpt lat="43.41469" lon="6.66487">
        <ele>53.7</ele>
        <time>2025-01-19T13:16:52Z</time>
      </trkpt>
      <trkpt lat="43.4147" lon="6.66487">
        <ele>53.7</ele>
        <time>2025-01-19T13:16:53Z</time>
      </trkpt>
      <trkpt lat="43.41471" lon="6.66487">
        <ele>53.7</ele>
        <time>2025-01-19T13:16:54Z</time>
      </trkpt>
      <trkpt lat="43.41472" lon="6.66488">
        <ele>53.8</ele>
        <time>2025-01-19T13:16:55Z</time>
      </trkpt>
      <trkpt lat="43.41473" lon="6.66489">
        <ele>53.9</ele>
        <time>2025-01-19T13:16:56Z</time>
      </trkpt>
      <trkpt lat="43.41474" lon="6.66489">
        <ele>54</ele>
        <time>2025-01-19T13:16:57Z</time>
      </trkpt>
      <trkpt lat="43.41475" lon="6.6649">
        <ele>54.1</ele>
        <time>2025-01-19T13:16:58Z</time>
      </trkpt>
      <trkpt lat="43.41476" lon="6.6649">
        <ele>54.3</ele>
        <time>2025-01-19T13:16:59Z</time>
      </trkpt>
      <trkpt lat="43.41478" lon="6.6649">
        <ele>54.4</ele>
        <time>2025-01-19T13:17:00Z</time>
      </trkpt>
      <trkpt lat="43.41479" lon="6.6649">
        <ele>54.4</ele>
        <time>2025-01-19T13:17:01Z</time>
      </trkpt>
      <trkpt lat="43.4148" lon="6.66491">
        <ele>54.5</ele>
        <time>2025-01-19T13:17:02Z</time>
      </trkpt>
      <trkpt lat="43.41481" lon="6.66491">
        <ele>54.5</ele>
        <time>2025-01-19T13:17:03Z</time>
      </trkpt>
      <trkpt lat="43.41482" lon="6.66491">
        <ele>54.6</ele>
        <time>2025-01-19T13:17:04Z</time>
      </trkpt>
      <trkpt lat="43.41483" lon="6.66491">
        <ele>54.7</ele>
        <time>2025-01-19T13:17:05Z</time>
      </trkpt>
      <trkpt lat="43.41484" lon="6.66491">
        <ele>54.8</ele>
        <time>2025-01-19T13:17:06Z</time>
      </trkpt>
      <trkpt lat="43.41486" lon="6.66491">
        <ele>54.8</ele>
        <time>2025-01-19T13:17:07Z</time>
      </trkpt>
      <trkpt lat="43.41487" lon="6.66491">
        <ele>54.9</ele>
        <time>2025-01-19T13:17:08Z</time>
      </trkpt>
      <trkpt lat="43.41488" lon="6.66492">
        <ele>55</ele>
        <time>2025-01-19T13:17:09Z</time>
      </trkpt>
      <trkpt lat="43.41488" lon="6.66492">
        <ele>55.1</ele>
        <time>2025-01-19T13:17:10Z</time>
      </trkpt>
      <trkpt lat="43.41489" lon="6.66492">
        <ele>55.1</ele>
        <time>2025-01-19T13:17:11Z</time>
      </trkpt>
      <trkpt lat="43.4149" lon="6.66491">
        <ele>55</ele>
        <time>2025-01-19T13:17:12Z</time>
      </trkpt>
      <trkpt lat="43.41491" lon="6.66491">
        <ele>55</ele>
        <time>2025-01-19T13:17:13Z</time>
      </trkpt>
      <trkpt lat="43.41492" lon="6.66491">
        <ele>55</ele>
        <time>2025-01-19T13:17:14Z</time>
      </trkpt>
      <trkpt lat="43.41493" lon="6.66492">
        <ele>55.3</ele>
        <time>2025-01-19T13:17:15Z</time>
      </trkpt>
      <trkpt lat="43.41494" lon="6.66492">
        <ele>55.4</ele>
        <time>2025-01-19T13:17:16Z</time>
      </trkpt>
      <trkpt lat="43.41495" lon="6.66492">
        <ele>55.4</ele>
        <time>2025-01-19T13:17:17Z</time>
      </trkpt>
      <trkpt lat="43.41496" lon="6.66493">
        <ele>55.5</ele>
        <time>2025-01-19T13:17:18Z</time>
      </trkpt>
      <trkpt lat="43.41498" lon="6.66493">
        <ele>55.6</ele>
        <time>2025-01-19T13:17:19Z</time>
      </trkpt>
      <trkpt lat="43.415" lon="6.66493">
        <ele>55.9</ele>
        <time>2025-01-19T13:17:20Z</time>
      </trkpt>
      <trkpt lat="43.41501" lon="6.66493">
        <ele>56.2</ele>
        <time>2025-01-19T13:17:21Z</time>
      </trkpt>
      <trkpt lat="43.41502" lon="6.66493">
        <ele>56.2</ele>
        <time>2025-01-19T13:17:22Z</time>
      </trkpt>
      <trkpt lat="43.41503" lon="6.66494">
        <ele>56.4</ele>
        <time>2025-01-19T13:17:23Z</time>
      </trkpt>
      <trkpt lat="43.41504" lon="6.66494">
        <ele>56.5</ele>
        <time>2025-01-19T13:17:24Z</time>
      </trkpt>
      <trkpt lat="43.41505" lon="6.66494">
        <ele>56.6</ele>
        <time>2025-01-19T13:17:25Z</time>
      </trkpt>
      <trkpt lat="43.41506" lon="6.66495">
        <ele>56.7</ele>
        <time>2025-01-19T13:17:26Z</time>
      </trkpt>
      <trkpt lat="43.41507" lon="6.66495">
        <ele>56.7</ele>
        <time>2025-01-19T13:17:27Z</time>
      </trkpt>
      <trkpt lat="43.41508" lon="6.66495">
        <ele>56.8</ele>
        <time>2025-01-19T13:17:28Z</time>
      </trkpt>
      <trkpt lat="43.41509" lon="6.66496">
        <ele>56.9</ele>
        <time>2025-01-19T13:17:29Z</time>
      </trkpt>
      <trkpt lat="43.4151" lon="6.66497">
        <ele>56.9</ele>
        <time>2025-01-19T13:17:30Z</time>
      </trkpt>
      <trkpt lat="43.41511" lon="6.66498">
        <ele>57</ele>
        <time>2025-01-19T13:17:31Z</time>
      </trkpt>
      <trkpt lat="43.41511" lon="6.66498">
        <ele>57.1</ele>
        <time>2025-01-19T13:17:32Z</time>
      </trkpt>
      <trkpt lat="43.41512" lon="6.66499">
        <ele>57.2</ele>
        <time>2025-01-19T13:17:33Z</time>
      </trkpt>
      <trkpt lat="43.41513" lon="6.665">
        <ele>57.2</ele>
        <time>2025-01-19T13:17:34Z</time>
      </trkpt>
      <trkpt lat="43.41514" lon="6.665">
        <ele>57.2</ele>
        <time>2025-01-19T13:17:35Z</time>
      </trkpt>
      <trkpt lat="43.41515" lon="6.665">
        <ele>57.3</ele>
        <time>2025-01-19T13:17:36Z</time>
      </trkpt>
      <trkpt lat="43.41516" lon="6.66501">
        <ele>57.4</ele>
        <time>2025-01-19T13:17:37Z</time>
      </trkpt>
      <trkpt lat="43.41518" lon="6.66501">
        <ele>57.4</ele>
        <time>2025-01-19T13:17:38Z</time>
      </trkpt>
      <trkpt lat="43.41519" lon="6.66501">
        <ele>57.4</ele>
        <time>2025-01-19T13:17:39Z</time>
      </trkpt>
      <trkpt lat="43.4152" lon="6.66502">
        <ele>57.4</ele>
        <time>2025-01-19T13:17:40Z</time>
      </trkpt>
      <trkpt lat="43.41522" lon="6.66502">
        <ele>57.4</ele>
        <time>2025-01-19T13:17:41Z</time>
      </trkpt>
      <trkpt lat="43.41523" lon="6.66502">
        <ele>57.4</ele>
        <time>2025-01-19T13:17:42Z</time>
      </trkpt>
      <trkpt lat="43.41524" lon="6.66501">
        <ele>57.4</ele>
        <time>2025-01-19T13:17:43Z</time>
      </trkpt>
      <trkpt lat="43.41525" lon="6.66501">
        <ele>57.5</ele>
        <time>2025-01-19T13:17:44Z</time>
      </trkpt>
      <trkpt lat="43.41526" lon="6.66501">
        <ele>57.5</ele>
        <time>2025-01-19T13:17:45Z</time>
      </trkpt>
      <trkpt lat="43.41528" lon="6.665">
        <ele>57.6</ele>
        <time>2025-01-19T13:17:46Z</time>
      </trkpt>
      <trkpt lat="43.41529" lon="6.665">
        <ele>57.6</ele>
        <time>2025-01-19T13:17:47Z</time>
      </trkpt>
      <trkpt lat="43.4153" lon="6.66499">
        <ele>57.7</ele>
        <time>2025-01-19T13:17:48Z</time>
      </trkpt>
      <trkpt lat="43.41531" lon="6.66499">
        <ele>57.9</ele>
        <time>2025-01-19T13:17:49Z</time>
      </trkpt>
      <trkpt lat="43.41532" lon="6.66498">
        <ele>58.1</ele>
        <time>2025-01-19T13:17:50Z</time>
      </trkpt>
      <trkpt lat="43.41533" lon="6.66498">
        <ele>58.3</ele>
        <time>2025-01-19T13:17:51Z</time>
      </trkpt>
      <trkpt lat="43.41534" lon="6.66498">
        <ele>58.4</ele>
        <time>2025-01-19T13:17:52Z</time>
      </trkpt>
      <trkpt lat="43.41535" lon="6.66498">
        <ele>58.5</ele>
        <time>2025-01-19T13:17:53Z</time>
      </trkpt>
      <trkpt lat="43.41536" lon="6.66497">
        <ele>58.6</ele>
        <time>2025-01-19T13:17:54Z</time>
      </trkpt>
      <trkpt lat="43.41537" lon="6.66497">
        <ele>58.9</ele>
        <time>2025-01-19T13:17:55Z</time>
      </trkpt>
      <trkpt lat="43.41538" lon="6.66497">
        <ele>58.9</ele>
        <time>2025-01-19T13:17:56Z</time>
      </trkpt>
      <trkpt lat="43.41539" lon="6.66497">
        <ele>58.9</ele>
        <time>2025-01-19T13:17:57Z</time>
      </trkpt>
      <trkpt lat="43.41541" lon="6.66496">
        <ele>59</ele>
        <time>2025-01-19T13:17:58Z</time>
      </trkpt>
      <trkpt lat="43.41541" lon="6.66496">
        <ele>59.1</ele>
        <time>2025-01-19T13:17:59Z</time>
      </trkpt>
      <trkpt lat="43.41542" lon="6.66496">
        <ele>59.2</ele>
        <time>2025-01-19T13:18:00Z</time>
      </trkpt>
      <trkpt lat="43.41543" lon="6.66496">
        <ele>59.2</ele>
        <time>2025-01-19T13:18:01Z</time>
      </trkpt>
      <trkpt lat="43.41545" lon="6.66496">
        <ele>59.4</ele>
        <time>2025-01-19T13:18:02Z</time>
      </trkpt>
      <trkpt lat="43.41546" lon="6.66496">
        <ele>59.3</ele>
        <time>2025-01-19T13:18:03Z</time>
      </trkpt>
      <trkpt lat="43.41547" lon="6.66496">
        <ele>59.4</ele>
        <time>2025-01-19T13:18:04Z</time>
      </trkpt>
      <trkpt lat="43.41548" lon="6.66496">
        <ele>59.6</ele>
        <time>2025-01-19T13:18:05Z</time>
      </trkpt>
      <trkpt lat="43.41549" lon="6.66497">
        <ele>59.6</ele>
        <time>2025-01-19T13:18:06Z</time>
      </trkpt>
      <trkpt lat="43.4155" lon="6.66497">
        <ele>59.8</ele>
        <time>2025-01-19T13:18:07Z</time>
      </trkpt>
      <trkpt lat="43.41551" lon="6.66497">
        <ele>59.9</ele>
        <time>2025-01-19T13:18:08Z</time>
      </trkpt>
      <trkpt lat="43.41552" lon="6.66498">
        <ele>59.9</ele>
        <time>2025-01-19T13:18:09Z</time>
      </trkpt>
      <trkpt lat="43.41553" lon="6.66498">
        <ele>60</ele>
        <time>2025-01-19T13:18:10Z</time>
      </trkpt>
      <trkpt lat="43.41554" lon="6.66499">
        <ele>60</ele>
        <time>2025-01-19T13:18:11Z</time>
      </trkpt>
      <trkpt lat="43.41555" lon="6.665">
        <ele>60.1</ele>
        <time>2025-01-19T13:18:12Z</time>
      </trkpt>
      <trkpt lat="43.41556" lon="6.665">
        <ele>60.2</ele>
        <time>2025-01-19T13:18:13Z</time>
      </trkpt>
      <trkpt lat="43.41557" lon="6.66501">
        <ele>60.2</ele>
        <time>2025-01-19T13:18:14Z</time>
      </trkpt>
      <trkpt lat="43.41558" lon="6.66502">
        <ele>60.3</ele>
        <time>2025-01-19T13:18:15Z</time>
      </trkpt>
      <trkpt lat="43.41559" lon="6.66503">
        <ele>60.4</ele>
        <time>2025-01-19T13:18:16Z</time>
      </trkpt>
      <trkpt lat="43.41559" lon="6.66505">
        <ele>60.4</ele>
        <time>2025-01-19T13:18:17Z</time>
      </trkpt>
      <trkpt lat="43.4156" lon="6.66506">
        <ele>60.5</ele>
        <time>2025-01-19T13:18:18Z</time>
      </trkpt>
      <trkpt lat="43.41561" lon="6.66507">
        <ele>60.5</ele>
        <time>2025-01-19T13:18:19Z</time>
      </trkpt>
      <trkpt lat="43.41562" lon="6.66508">
        <ele>60.6</ele>
        <time>2025-01-19T13:18:20Z</time>
      </trkpt>
      <trkpt lat="43.41563" lon="6.66508">
        <ele>60.6</ele>
        <time>2025-01-19T13:18:21Z</time>
      </trkpt>
      <trkpt lat="43.41564" lon="6.66509">
        <ele>60.6</ele>
        <time>2025-01-19T13:18:22Z</time>
      </trkpt>
      <trkpt lat="43.41565" lon="6.6651">
        <ele>60.8</ele>
        <time>2025-01-19T13:18:23Z</time>
      </trkpt>
      <trkpt lat="43.41566" lon="6.6651">
        <ele>60.8</ele>
        <time>2025-01-19T13:18:24Z</time>
      </trkpt>
      <trkpt lat="43.41567" lon="6.66511">
        <ele>60.9</ele>
        <time>2025-01-19T13:18:25Z</time>
      </trkpt>
      <trkpt lat="43.41568" lon="6.66511">
        <ele>61</ele>
        <time>2025-01-19T13:18:26Z</time>
      </trkpt>
      <trkpt lat="43.41569" lon="6.6651">
        <ele>61</ele>
        <time>2025-01-19T13:18:27Z</time>
      </trkpt>
      <trkpt lat="43.4157" lon="6.6651">
        <ele>61.1</ele>
        <time>2025-01-19T13:18:28Z</time>
      </trkpt>
      <trkpt lat="43.41571" lon="6.6651">
        <ele>61.2</ele>
        <time>2025-01-19T13:18:29Z</time>
      </trkpt>
      <trkpt lat="43.41572" lon="6.6651">
        <ele>61.3</ele>
        <time>2025-01-19T13:18:30Z</time>
      </trkpt>
      <trkpt lat="43.41573" lon="6.66509">
        <ele>61.3</ele>
        <time>2025-01-19T13:18:31Z</time>
      </trkpt>
      <trkpt lat="43.41574" lon="6.66509">
        <ele>61.3</ele>
        <time>2025-01-19T13:18:32Z</time>
      </trkpt>
      <trkpt lat="43.41574" lon="6.66508">
        <ele>61.4</ele>
        <time>2025-01-19T13:18:33Z</time>
      </trkpt>
      <trkpt lat="43.41575" lon="6.66507">
        <ele>61.4</ele>
        <time>2025-01-19T13:18:34Z</time>
      </trkpt>
      <trkpt lat="43.41575" lon="6.66507">
        <ele>61.4</ele>
        <time>2025-01-19T13:18:35Z</time>
      </trkpt>
      <trkpt lat="43.41576" lon="6.66507">
        <ele>61.4</ele>
        <time>2025-01-19T13:18:36Z</time>
      </trkpt>
      <trkpt lat="43.41577" lon="6.66506">
        <ele>61.5</ele>
        <time>2025-01-19T13:18:37Z</time>
      </trkpt>
      <trkpt lat="43.41577" lon="6.66505">
        <ele>61.4</ele>
        <time>2025-01-19T13:18:38Z</time>
      </trkpt>
      <trkpt lat="43.41578" lon="6.66505">
        <ele>61.4</ele>
        <time>2025-01-19T13:18:39Z</time>
      </trkpt>
      <trkpt lat="43.41579" lon="6.66504">
        <ele>61.4</ele>
        <time>2025-01-19T13:18:40Z</time>
      </trkpt>
      <trkpt lat="43.41579" lon="6.66503">
        <ele>61.3</ele>
        <time>2025-01-19T13:18:41Z</time>
      </trkpt>
      <trkpt lat="43.4158" lon="6.66502">
        <ele>61.4</ele>
        <time>2025-01-19T13:18:42Z</time>
      </trkpt>
      <trkpt lat="43.41581" lon="6.66502">
        <ele>61.5</ele>
        <time>2025-01-19T13:18:43Z</time>
      </trkpt>
      <trkpt lat="43.41582" lon="6.66501">
        <ele>61.5</ele>
        <time>2025-01-19T13:18:44Z</time>
      </trkpt>
      <trkpt lat="43.41583" lon="6.66499">
        <ele>61.6</ele>
        <time>2025-01-19T13:18:45Z</time>
      </trkpt>
      <trkpt lat="43.41583" lon="6.66498">
        <ele>61.6</ele>
        <time>2025-01-19T13:18:46Z</time>
      </trkpt>
      <trkpt lat="43.41584" lon="6.66498">
        <ele>61.7</ele>
        <time>2025-01-19T13:18:47Z</time>
      </trkpt>
      <trkpt lat="43.41585" lon="6.66497">
        <ele>61.6</ele>
        <time>2025-01-19T13:18:48Z</time>
      </trkpt>
      <trkpt lat="43.41586" lon="6.66496">
        <ele>61.6</ele>
        <time>2025-01-19T13:18:49Z</time>
      </trkpt>
      <trkpt lat="43.41587" lon="6.66495">
        <ele>61.5</ele>
        <time>2025-01-19T13:18:50Z</time>
      </trkpt>
      <trkpt lat="43.41588" lon="6.66495">
        <ele>61.5</ele>
        <time>2025-01-19T13:18:51Z</time>
      </trkpt>
      <trkpt lat="43.41589" lon="6.66494">
        <ele>61.4</ele>
        <time>2025-01-19T13:18:52Z</time>
      </trkpt>
      <trkpt lat="43.4159" lon="6.66493">
        <ele>61.4</ele>
        <time>2025-01-19T13:18:53Z</time>
      </trkpt>
      <trkpt lat="43.41591" lon="6.66493">
        <ele>61.4</ele>
        <time>2025-01-19T13:18:54Z</time>
      </trkpt>
      <trkpt lat="43.41592" lon="6.66492">
        <ele>61.3</ele>
        <time>2025-01-19T13:18:55Z</time>
      </trkpt>
      <trkpt lat="43.41593" lon="6.66491">
        <ele>61.3</ele>
        <time>2025-01-19T13:18:56Z</time>
      </trkpt>
      <trkpt lat="43.41594" lon="6.6649">
        <ele>61.3</ele>
        <time>2025-01-19T13:18:57Z</time>
      </trkpt>
      <trkpt lat="43.41595" lon="6.6649">
        <ele>61.3</ele>
        <time>2025-01-19T13:18:58Z</time>
      </trkpt>
      <trkpt lat="43.41596" lon="6.66489">
        <ele>61.3</ele>
        <time>2025-01-19T13:18:59Z</time>
      </trkpt>
      <trkpt lat="43.41597" lon="6.66488">
        <ele>61.2</ele>
        <time>2025-01-19T13:19:00Z</time>
      </trkpt>
      <trkpt lat="43.41598" lon="6.66488">
        <ele>61.1</ele>
        <time>2025-01-19T13:19:01Z</time>
      </trkpt>
      <trkpt lat="43.41598" lon="6.66487">
        <ele>61</ele>
        <time>2025-01-19T13:19:02Z</time>
      </trkpt>
      <trkpt lat="43.41599" lon="6.66487">
        <ele>61</ele>
        <time>2025-01-19T13:19:03Z</time>
      </trkpt>
      <trkpt lat="43.416" lon="6.66486">
        <ele>60.9</ele>
        <time>2025-01-19T13:19:04Z</time>
      </trkpt>
      <trkpt lat="43.41601" lon="6.66486">
        <ele>60.9</ele>
        <time>2025-01-19T13:19:05Z</time>
      </trkpt>
      <trkpt lat="43.41602" lon="6.66485">
        <ele>60.8</ele>
        <time>2025-01-19T13:19:06Z</time>
      </trkpt>
      <trkpt lat="43.41603" lon="6.66485">
        <ele>60.7</ele>
        <time>2025-01-19T13:19:07Z</time>
      </trkpt>
      <trkpt lat="43.41604" lon="6.66484">
        <ele>60.6</ele>
        <time>2025-01-19T13:19:08Z</time>
      </trkpt>
      <trkpt lat="43.41605" lon="6.66484">
        <ele>60.6</ele>
        <time>2025-01-19T13:19:09Z</time>
      </trkpt>
      <trkpt lat="43.41606" lon="6.66483">
        <ele>60.5</ele>
        <time>2025-01-19T13:19:10Z</time>
      </trkpt>
      <trkpt lat="43.41608" lon="6.66483">
        <ele>60.5</ele>
        <time>2025-01-19T13:19:11Z</time>
      </trkpt>
      <trkpt lat="43.41609" lon="6.66483">
        <ele>60.3</ele>
        <time>2025-01-19T13:19:12Z</time>
      </trkpt>
      <trkpt lat="43.4161" lon="6.66482">
        <ele>60.3</ele>
        <time>2025-01-19T13:19:13Z</time>
      </trkpt>
      <trkpt lat="43.41612" lon="6.66482">
        <ele>60.2</ele>
        <time>2025-01-19T13:19:14Z</time>
      </trkpt>
      <trkpt lat="43.41613" lon="6.66482">
        <ele>60.2</ele>
        <time>2025-01-19T13:19:15Z</time>
      </trkpt>
      <trkpt lat="43.41614" lon="6.66482">
        <ele>60</ele>
        <time>2025-01-19T13:19:16Z</time>
      </trkpt>
      <trkpt lat="43.41615" lon="6.66482">
        <ele>59.8</ele>
        <time>2025-01-19T13:19:17Z</time>
      </trkpt>
      <trkpt lat="43.41616" lon="6.66482">
        <ele>59.7</ele>
        <time>2025-01-19T13:19:18Z</time>
      </trkpt>
      <trkpt lat="43.41617" lon="6.66482">
        <ele>59.5</ele>
        <time>2025-01-19T13:19:19Z</time>
      </trkpt>
      <trkpt lat="43.41618" lon="6.66481">
        <ele>59.4</ele>
        <time>2025-01-19T13:19:20Z</time>
      </trkpt>
      <trkpt lat="43.41619" lon="6.66481">
        <ele>59.3</ele>
        <time>2025-01-19T13:19:21Z</time>
      </trkpt>
      <trkpt lat="43.4162" lon="6.6648">
        <ele>59.1</ele>
        <time>2025-01-19T13:19:22Z</time>
      </trkpt>
      <trkpt lat="43.41621" lon="6.6648">
        <ele>59.1</ele>
        <time>2025-01-19T13:19:23Z</time>
      </trkpt>
      <trkpt lat="43.41622" lon="6.6648">
        <ele>58.9</ele>
        <time>2025-01-19T13:19:24Z</time>
      </trkpt>
      <trkpt lat="43.41623" lon="6.66481">
        <ele>58.8</ele>
        <time>2025-01-19T13:19:25Z</time>
      </trkpt>
      <trkpt lat="43.41624" lon="6.6648">
        <ele>58.7</ele>
        <time>2025-01-19T13:19:26Z</time>
      </trkpt>
      <trkpt lat="43.41625" lon="6.66481">
        <ele>58.6</ele>
        <time>2025-01-19T13:19:27Z</time>
      </trkpt>
      <trkpt lat="43.41627" lon="6.66482">
        <ele>58.6</ele>
        <time>2025-01-19T13:19:28Z</time>
      </trkpt>
      <trkpt lat="43.41628" lon="6.66482">
        <ele>58.6</ele>
        <time>2025-01-19T13:19:29Z</time>
      </trkpt>
      <trkpt lat="43.4163" lon="6.66483">
        <ele>58.7</ele>
        <time>2025-01-19T13:19:30Z</time>
      </trkpt>
      <trkpt lat="43.41631" lon="6.66484">
        <ele>58.6</ele>
        <time>2025-01-19T13:19:31Z</time>
      </trkpt>
      <trkpt lat="43.41631" lon="6.66485">
        <ele>58.6</ele>
        <time>2025-01-19T13:19:32Z</time>
      </trkpt>
      <trkpt lat="43.41632" lon="6.66487">
        <ele>58.6</ele>
        <time>2025-01-19T13:19:33Z</time>
      </trkpt>
      <trkpt lat="43.41634" lon="6.66488">
        <ele>58.5</ele>
        <time>2025-01-19T13:19:34Z</time>
      </trkpt>
      <trkpt lat="43.41635" lon="6.66489">
        <ele>58.5</ele>
        <time>2025-01-19T13:19:35Z</time>
      </trkpt>
      <trkpt lat="43.41636" lon="6.6649">
        <ele>58.5</ele>
        <time>2025-01-19T13:19:36Z</time>
      </trkpt>
      <trkpt lat="43.41636" lon="6.66492">
        <ele>58.5</ele>
        <time>2025-01-19T13:19:37Z</time>
      </trkpt>
      <trkpt lat="43.41637" lon="6.66493">
        <ele>58.5</ele>
        <time>2025-01-19T13:19:38Z</time>
      </trkpt>
      <trkpt lat="43.41638" lon="6.66494">
        <ele>58.4</ele>
        <time>2025-01-19T13:19:39Z</time>
      </trkpt>
      <trkpt lat="43.41638" lon="6.66496">
        <ele>58.3</ele>
        <time>2025-01-19T13:19:40Z</time>
      </trkpt>
      <trkpt lat="43.41638" lon="6.66497">
        <ele>58.3</ele>
        <time>2025-01-19T13:19:41Z</time>
      </trkpt>
      <trkpt lat="43.41638" lon="6.66498">
        <ele>58.2</ele>
        <time>2025-01-19T13:19:42Z</time>
      </trkpt>
      <trkpt lat="43.41638" lon="6.665">
        <ele>58.1</ele>
        <time>2025-01-19T13:19:43Z</time>
      </trkpt>
      <trkpt lat="43.41638" lon="6.66501">
        <ele>58</ele>
        <time>2025-01-19T13:19:44Z</time>
      </trkpt>
      <trkpt lat="43.41638" lon="6.66503">
        <ele>58</ele>
        <time>2025-01-19T13:19:45Z</time>
      </trkpt>
      <trkpt lat="43.41638" lon="6.66504">
        <ele>57.8</ele>
        <time>2025-01-19T13:19:46Z</time>
      </trkpt>
      <trkpt lat="43.41638" lon="6.66506">
        <ele>57.6</ele>
        <time>2025-01-19T13:19:47Z</time>
      </trkpt>
      <trkpt lat="43.41638" lon="6.66508">
        <ele>57.5</ele>
        <time>2025-01-19T13:19:48Z</time>
      </trkpt>
      <trkpt lat="43.41639" lon="6.66509">
        <ele>57.4</ele>
        <time>2025-01-19T13:19:49Z</time>
      </trkpt>
      <trkpt lat="43.41639" lon="6.66511">
        <ele>57.4</ele>
        <time>2025-01-19T13:19:50Z</time>
      </trkpt>
      <trkpt lat="43.41639" lon="6.66512">
        <ele>57.4</ele>
        <time>2025-01-19T13:19:51Z</time>
      </trkpt>
      <trkpt lat="43.41639" lon="6.66514">
        <ele>57.5</ele>
        <time>2025-01-19T13:19:52Z</time>
      </trkpt>
      <trkpt lat="43.41639" lon="6.66515">
        <ele>57.5</ele>
        <time>2025-01-19T13:19:53Z</time>
      </trkpt>
      <trkpt lat="43.4164" lon="6.66516">
        <ele>57.4</ele>
        <time>2025-01-19T13:19:54Z</time>
      </trkpt>
      <trkpt lat="43.41641" lon="6.66517">
        <ele>57.3</ele>
        <time>2025-01-19T13:19:55Z</time>
      </trkpt>
      <trkpt lat="43.41642" lon="6.66518">
        <ele>57.3</ele>
        <time>2025-01-19T13:19:56Z</time>
      </trkpt>
      <trkpt lat="43.41643" lon="6.66518">
        <ele>57.1</ele>
        <time>2025-01-19T13:19:57Z</time>
      </trkpt>
      <trkpt lat="43.41644" lon="6.66518">
        <ele>57.1</ele>
        <time>2025-01-19T13:19:58Z</time>
      </trkpt>
      <trkpt lat="43.41645" lon="6.66518">
        <ele>57.1</ele>
        <time>2025-01-19T13:19:59Z</time>
      </trkpt>
      <trkpt lat="43.41646" lon="6.66517">
        <ele>57.1</ele>
        <time>2025-01-19T13:20:00Z</time>
      </trkpt>
      <trkpt lat="43.41646" lon="6.66517">
        <ele>57.2</ele>
        <time>2025-01-19T13:20:01Z</time>
      </trkpt>
      <trkpt lat="43.41647" lon="6.66516">
        <ele>57.1</ele>
        <time>2025-01-19T13:20:02Z</time>
      </trkpt>
      <trkpt lat="43.41648" lon="6.66516">
        <ele>57.1</ele>
        <time>2025-01-19T13:20:03Z</time>
      </trkpt>
      <trkpt lat="43.4165" lon="6.66516">
        <ele>57.1</ele>
        <time>2025-01-19T13:20:04Z</time>
      </trkpt>
      <trkpt lat="43.41651" lon="6.66515">
        <ele>57.1</ele>
        <time>2025-01-19T13:20:05Z</time>
      </trkpt>
      <trkpt lat="43.41651" lon="6.66514">
        <ele>57.2</ele>
        <time>2025-01-19T13:20:06Z</time>
      </trkpt>
      <trkpt lat="43.41652" lon="6.66514">
        <ele>57.2</ele>
        <time>2025-01-19T13:20:07Z</time>
      </trkpt>
      <trkpt lat="43.41653" lon="6.66514">
        <ele>57.3</ele>
        <time>2025-01-19T13:20:08Z</time>
      </trkpt>
      <trkpt lat="43.41654" lon="6.66513">
        <ele>57.4</ele>
        <time>2025-01-19T13:20:09Z</time>
      </trkpt>
      <trkpt lat="43.41655" lon="6.66512">
        <ele>57.6</ele>
        <time>2025-01-19T13:20:10Z</time>
      </trkpt>
      <trkpt lat="43.41655" lon="6.66512">
        <ele>57.5</ele>
        <time>2025-01-19T13:20:11Z</time>
      </trkpt>
      <trkpt lat="43.41656" lon="6.66511">
        <ele>57.6</ele>
        <time>2025-01-19T13:20:12Z</time>
      </trkpt>
      <trkpt lat="43.41657" lon="6.66511">
        <ele>57.6</ele>
        <time>2025-01-19T13:20:13Z</time>
      </trkpt>
      <trkpt lat="43.41658" lon="6.6651">
        <ele>57.6</ele>
        <time>2025-01-19T13:20:14Z</time>
      </trkpt>
      <trkpt lat="43.41659" lon="6.6651">
        <ele>57.7</ele>
        <time>2025-01-19T13:20:15Z</time>
      </trkpt>
      <trkpt lat="43.4166" lon="6.66509">
        <ele>57.7</ele>
        <time>2025-01-19T13:20:16Z</time>
      </trkpt>
      <trkpt lat="43.41661" lon="6.66508">
        <ele>57.7</ele>
        <time>2025-01-19T13:20:17Z</time>
      </trkpt>
      <trkpt lat="43.41661" lon="6.66507">
        <ele>57.7</ele>
        <time>2025-01-19T13:20:18Z</time>
      </trkpt>
      <trkpt lat="43.41662" lon="6.66506">
        <ele>57.7</ele>
        <time>2025-01-19T13:20:19Z</time>
      </trkpt>
      <trkpt lat="43.41663" lon="6.66506">
        <ele>57.7</ele>
        <time>2025-01-19T13:20:20Z</time>
      </trkpt>
      <trkpt lat="43.41664" lon="6.66505">
        <ele>57.7</ele>
        <time>2025-01-19T13:20:21Z</time>
      </trkpt>
      <trkpt lat="43.41665" lon="6.66505">
        <ele>57.8</ele>
        <time>2025-01-19T13:20:22Z</time>
      </trkpt>
      <trkpt lat="43.41666" lon="6.66504">
        <ele>57.9</ele>
        <time>2025-01-19T13:20:23Z</time>
      </trkpt>
      <trkpt lat="43.41666" lon="6.66503">
        <ele>58</ele>
        <time>2025-01-19T13:20:24Z</time>
      </trkpt>
      <trkpt lat="43.41667" lon="6.66503">
        <ele>57.9</ele>
        <time>2025-01-19T13:20:25Z</time>
      </trkpt>
      <trkpt lat="43.41669" lon="6.66502">
        <ele>57.9</ele>
        <time>2025-01-19T13:20:26Z</time>
      </trkpt>
      <trkpt lat="43.41669" lon="6.66501">
        <ele>57.8</ele>
        <time>2025-01-19T13:20:27Z</time>
      </trkpt>
      <trkpt lat="43.4167" lon="6.66501">
        <ele>57.9</ele>
        <time>2025-01-19T13:20:28Z</time>
      </trkpt>
      <trkpt lat="43.41672" lon="6.665">
        <ele>57.9</ele>
        <time>2025-01-19T13:20:29Z</time>
      </trkpt>
      <trkpt lat="43.41672" lon="6.66499">
        <ele>58</ele>
        <time>2025-01-19T13:20:30Z</time>
      </trkpt>
      <trkpt lat="43.41674" lon="6.66499">
        <ele>58</ele>
        <time>2025-01-19T13:20:31Z</time>
      </trkpt>
      <trkpt lat="43.41675" lon="6.66498">
        <ele>58.1</ele>
        <time>2025-01-19T13:20:32Z</time>
      </trkpt>
      <trkpt lat="43.41676" lon="6.66497">
        <ele>58.3</ele>
        <time>2025-01-19T13:20:33Z</time>
      </trkpt>
      <trkpt lat="43.41677" lon="6.66497">
        <ele>58.4</ele>
        <time>2025-01-19T13:20:34Z</time>
      </trkpt>
      <trkpt lat="43.41678" lon="6.66497">
        <ele>58.5</ele>
        <time>2025-01-19T13:20:35Z</time>
      </trkpt>
      <trkpt lat="43.41679" lon="6.66496">
        <ele>58.6</ele>
        <time>2025-01-19T13:20:36Z</time>
      </trkpt>
      <trkpt lat="43.4168" lon="6.66496">
        <ele>58.6</ele>
        <time>2025-01-19T13:20:37Z</time>
      </trkpt>
      <trkpt lat="43.41681" lon="6.66495">
        <ele>58.6</ele>
        <time>2025-01-19T13:20:38Z</time>
      </trkpt>
      <trkpt lat="43.41682" lon="6.66495">
        <ele>58.7</ele>
        <time>2025-01-19T13:20:39Z</time>
      </trkpt>
      <trkpt lat="43.41683" lon="6.66494">
        <ele>58.7</ele>
        <time>2025-01-19T13:20:40Z</time>
      </trkpt>
      <trkpt lat="43.41684" lon="6.66494">
        <ele>58.7</ele>
        <time>2025-01-19T13:20:41Z</time>
      </trkpt>
      <trkpt lat="43.41685" lon="6.66493">
        <ele>58.7</ele>
        <time>2025-01-19T13:20:42Z</time>
      </trkpt>
      <trkpt lat="43.41686" lon="6.66493">
        <ele>58.7</ele>
        <time>2025-01-19T13:20:43Z</time>
      </trkpt>
      <trkpt lat="43.41687" lon="6.66493">
        <ele>58.7</ele>
        <time>2025-01-19T13:20:44Z</time>
      </trkpt>
      <trkpt lat="43.41688" lon="6.66492">
        <ele>58.7</ele>
        <time>2025-01-19T13:20:45Z</time>
      </trkpt>
      <trkpt lat="43.41689" lon="6.66492">
        <ele>58.5</ele>
        <time>2025-01-19T13:20:46Z</time>
      </trkpt>
      <trkpt lat="43.4169" lon="6.66491">
        <ele>58.5</ele>
        <time>2025-01-19T13:20:47Z</time>
      </trkpt>
      <trkpt lat="43.41691" lon="6.66491">
        <ele>58.4</ele>
        <time>2025-01-19T13:20:48Z</time>
      </trkpt>
      <trkpt lat="43.41692" lon="6.66491">
        <ele>58.4</ele>
        <time>2025-01-19T13:20:49Z</time>
      </trkpt>
      <trkpt lat="43.41693" lon="6.66491">
        <ele>58.3</ele>
        <time>2025-01-19T13:20:50Z</time>
      </trkpt>
      <trkpt lat="43.41694" lon="6.6649">
        <ele>58.4</ele>
        <time>2025-01-19T13:20:51Z</time>
      </trkpt>
      <trkpt lat="43.41695" lon="6.6649">
        <ele>58.4</ele>
        <time>2025-01-19T13:20:52Z</time>
      </trkpt>
      <trkpt lat="43.41696" lon="6.6649">
        <ele>58.4</ele>
        <time>2025-01-19T13:20:53Z</time>
      </trkpt>
      <trkpt lat="43.41697" lon="6.6649">
        <ele>58.4</ele>
        <time>2025-01-19T13:20:54Z</time>
      </trkpt>
      <trkpt lat="43.41698" lon="6.6649">
        <ele>58.3</ele>
        <time>2025-01-19T13:20:55Z</time>
      </trkpt>
      <trkpt lat="43.41699" lon="6.66489">
        <ele>58.2</ele>
        <time>2025-01-19T13:20:56Z</time>
      </trkpt>
      <trkpt lat="43.417" lon="6.66489">
        <ele>58.2</ele>
        <time>2025-01-19T13:20:57Z</time>
      </trkpt>
      <trkpt lat="43.41701" lon="6.66489">
        <ele>58.1</ele>
        <time>2025-01-19T13:20:58Z</time>
      </trkpt>
      <trkpt lat="43.41702" lon="6.66488">
        <ele>58.1</ele>
        <time>2025-01-19T13:20:59Z</time>
      </trkpt>
      <trkpt lat="43.41703" lon="6.66488">
        <ele>58</ele>
        <time>2025-01-19T13:21:00Z</time>
      </trkpt>
      <trkpt lat="43.41704" lon="6.66488">
        <ele>58</ele>
        <time>2025-01-19T13:21:01Z</time>
      </trkpt>
      <trkpt lat="43.41705" lon="6.66487">
        <ele>58</ele>
        <time>2025-01-19T13:21:02Z</time>
      </trkpt>
      <trkpt lat="43.41706" lon="6.66487">
        <ele>57.9</ele>
        <time>2025-01-19T13:21:03Z</time>
      </trkpt>
      <trkpt lat="43.41707" lon="6.66487">
        <ele>58</ele>
        <time>2025-01-19T13:21:04Z</time>
      </trkpt>
      <trkpt lat="43.41708" lon="6.66486">
        <ele>57.9</ele>
        <time>2025-01-19T13:21:05Z</time>
      </trkpt>
      <trkpt lat="43.41708" lon="6.66486">
        <ele>57.9</ele>
        <time>2025-01-19T13:21:06Z</time>
      </trkpt>
      <trkpt lat="43.41709" lon="6.66486">
        <ele>57.9</ele>
        <time>2025-01-19T13:21:07Z</time>
      </trkpt>
      <trkpt lat="43.4171" lon="6.66485">
        <ele>57.9</ele>
        <time>2025-01-19T13:21:08Z</time>
      </trkpt>
      <trkpt lat="43.41711" lon="6.66485">
        <ele>57.8</ele>
        <time>2025-01-19T13:21:09Z</time>
      </trkpt>
      <trkpt lat="43.41712" lon="6.66484">
        <ele>57.8</ele>
        <time>2025-01-19T13:21:10Z</time>
      </trkpt>
      <trkpt lat="43.41713" lon="6.66484">
        <ele>57.7</ele>
        <time>2025-01-19T13:21:11Z</time>
      </trkpt>
      <trkpt lat="43.41713" lon="6.66483">
        <ele>57.8</ele>
        <time>2025-01-19T13:21:12Z</time>
      </trkpt>
      <trkpt lat="43.41715" lon="6.66482">
        <ele>57.8</ele>
        <time>2025-01-19T13:21:13Z</time>
      </trkpt>
      <trkpt lat="43.41717" lon="6.66482">
        <ele>57.7</ele>
        <time>2025-01-19T13:21:14Z</time>
      </trkpt>
      <trkpt lat="43.41718" lon="6.66482">
        <ele>57.7</ele>
        <time>2025-01-19T13:21:15Z</time>
      </trkpt>
      <trkpt lat="43.41719" lon="6.66481">
        <ele>57.7</ele>
        <time>2025-01-19T13:21:16Z</time>
      </trkpt>
      <trkpt lat="43.4172" lon="6.66481">
        <ele>57.8</ele>
        <time>2025-01-19T13:21:17Z</time>
      </trkpt>
      <trkpt lat="43.41721" lon="6.66481">
        <ele>57.8</ele>
        <time>2025-01-19T13:21:18Z</time>
      </trkpt>
      <trkpt lat="43.41722" lon="6.66481">
        <ele>57.8</ele>
        <time>2025-01-19T13:21:19Z</time>
      </trkpt>
      <trkpt lat="43.41723" lon="6.66481">
        <ele>57.7</ele>
        <time>2025-01-19T13:21:20Z</time>
      </trkpt>
      <trkpt lat="43.41724" lon="6.6648">
        <ele>57.6</ele>
        <time>2025-01-19T13:21:21Z</time>
      </trkpt>
      <trkpt lat="43.41725" lon="6.6648">
        <ele>57.6</ele>
        <time>2025-01-19T13:21:22Z</time>
      </trkpt>
      <trkpt lat="43.41726" lon="6.6648">
        <ele>57.5</ele>
        <time>2025-01-19T13:21:23Z</time>
      </trkpt>
      <trkpt lat="43.41726" lon="6.6648">
        <ele>57.5</ele>
        <time>2025-01-19T13:21:24Z</time>
      </trkpt>
      <trkpt lat="43.41728" lon="6.6648">
        <ele>57.5</ele>
        <time>2025-01-19T13:21:25Z</time>
      </trkpt>
      <trkpt lat="43.41728" lon="6.6648">
        <ele>57.5</ele>
        <time>2025-01-19T13:21:26Z</time>
      </trkpt>
      <trkpt lat="43.41729" lon="6.6648">
        <ele>57.5</ele>
        <time>2025-01-19T13:21:27Z</time>
      </trkpt>
      <trkpt lat="43.41731" lon="6.66479">
        <ele>57.6</ele>
        <time>2025-01-19T13:21:28Z</time>
      </trkpt>
      <trkpt lat="43.41732" lon="6.66479">
        <ele>57.6</ele>
        <time>2025-01-19T13:21:29Z</time>
      </trkpt>
      <trkpt lat="43.41733" lon="6.66479">
        <ele>57.6</ele>
        <time>2025-01-19T13:21:30Z</time>
      </trkpt>
      <trkpt lat="43.41734" lon="6.66479">
        <ele>57.6</ele>
        <time>2025-01-19T13:21:31Z</time>
      </trkpt>
      <trkpt lat="43.41735" lon="6.66479">
        <ele>57.7</ele>
        <time>2025-01-19T13:21:32Z</time>
      </trkpt>
      <trkpt lat="43.41736" lon="6.66479">
        <ele>57.6</ele>
        <time>2025-01-19T13:21:33Z</time>
      </trkpt>
      <trkpt lat="43.41737" lon="6.6648">
        <ele>57.6</ele>
        <time>2025-01-19T13:21:34Z</time>
      </trkpt>
      <trkpt lat="43.41738" lon="6.66479">
        <ele>57.7</ele>
        <time>2025-01-19T13:21:35Z</time>
      </trkpt>
      <trkpt lat="43.41739" lon="6.6648">
        <ele>57.7</ele>
        <time>2025-01-19T13:21:36Z</time>
      </trkpt>
      <trkpt lat="43.41741" lon="6.66481">
        <ele>57.7</ele>
        <time>2025-01-19T13:21:37Z</time>
      </trkpt>
      <trkpt lat="43.41742" lon="6.66482">
        <ele>57.6</ele>
        <time>2025-01-19T13:21:38Z</time>
      </trkpt>
      <trkpt lat="43.41743" lon="6.66483">
        <ele>57.5</ele>
        <time>2025-01-19T13:21:39Z</time>
      </trkpt>
      <trkpt lat="43.41743" lon="6.66483">
        <ele>57.5</ele>
        <time>2025-01-19T13:21:40Z</time>
      </trkpt>
      <trkpt lat="43.41744" lon="6.66485">
        <ele>57.5</ele>
        <time>2025-01-19T13:21:41Z</time>
      </trkpt>
      <trkpt lat="43.41745" lon="6.66486">
        <ele>57.5</ele>
        <time>2025-01-19T13:21:42Z</time>
      </trkpt>
      <trkpt lat="43.41746" lon="6.66488">
        <ele>57.5</ele>
        <time>2025-01-19T13:21:43Z</time>
      </trkpt>
      <trkpt lat="43.41746" lon="6.66489">
        <ele>57.6</ele>
        <time>2025-01-19T13:21:44Z</time>
      </trkpt>
      <trkpt lat="43.41747" lon="6.66491">
        <ele>57.5</ele>
        <time>2025-01-19T13:21:45Z</time>
      </trkpt>
      <trkpt lat="43.41747" lon="6.66492">
        <ele>57.5</ele>
        <time>2025-01-19T13:21:46Z</time>
      </trkpt>
      <trkpt lat="43.41747" lon="6.66494">
        <ele>57.4</ele>
        <time>2025-01-19T13:21:47Z</time>
      </trkpt>
      <trkpt lat="43.41747" lon="6.66495">
        <ele>57.4</ele>
        <time>2025-01-19T13:21:48Z</time>
      </trkpt>
      <trkpt lat="43.41747" lon="6.66496">
        <ele>57.4</ele>
        <time>2025-01-19T13:21:49Z</time>
      </trkpt>
      <trkpt lat="43.41746" lon="6.66498">
        <ele>57.4</ele>
        <time>2025-01-19T13:21:50Z</time>
      </trkpt>
      <trkpt lat="43.41745" lon="6.66499">
        <ele>57.4</ele>
        <time>2025-01-19T13:21:51Z</time>
      </trkpt>
      <trkpt lat="43.41745" lon="6.66501">
        <ele>57.4</ele>
        <time>2025-01-19T13:21:52Z</time>
      </trkpt>
      <trkpt lat="43.41745" lon="6.66502">
        <ele>57.5</ele>
        <time>2025-01-19T13:21:53Z</time>
      </trkpt>
      <trkpt lat="43.41744" lon="6.66503">
        <ele>57.4</ele>
        <time>2025-01-19T13:21:54Z</time>
      </trkpt>
      <trkpt lat="43.41744" lon="6.66504">
        <ele>57.6</ele>
        <time>2025-01-19T13:21:55Z</time>
      </trkpt>
      <trkpt lat="43.41743" lon="6.66506">
        <ele>57.6</ele>
        <time>2025-01-19T13:21:56Z</time>
      </trkpt>
      <trkpt lat="43.41742" lon="6.66507">
        <ele>57.6</ele>
        <time>2025-01-19T13:21:57Z</time>
      </trkpt>
      <trkpt lat="43.41742" lon="6.66509">
        <ele>57.7</ele>
        <time>2025-01-19T13:21:58Z</time>
      </trkpt>
      <trkpt lat="43.41741" lon="6.6651">
        <ele>57.7</ele>
        <time>2025-01-19T13:21:59Z</time>
      </trkpt>
      <trkpt lat="43.4174" lon="6.66511">
        <ele>57.7</ele>
        <time>2025-01-19T13:22:00Z</time>
      </trkpt>
      <trkpt lat="43.41739" lon="6.66514">
        <ele>57.6</ele>
        <time>2025-01-19T13:22:01Z</time>
      </trkpt>
      <trkpt lat="43.41739" lon="6.66515">
        <ele>57.7</ele>
        <time>2025-01-19T13:22:02Z</time>
      </trkpt>
      <trkpt lat="43.41739" lon="6.66516">
        <ele>57.6</ele>
        <time>2025-01-19T13:22:03Z</time>
      </trkpt>
      <trkpt lat="43.41738" lon="6.66517">
        <ele>57.6</ele>
        <time>2025-01-19T13:22:04Z</time>
      </trkpt>
      <trkpt lat="43.41739" lon="6.66519">
        <ele>57.6</ele>
        <time>2025-01-19T13:22:05Z</time>
      </trkpt>
      <trkpt lat="43.41739" lon="6.6652">
        <ele>57.6</ele>
        <time>2025-01-19T13:22:06Z</time>
      </trkpt>
      <trkpt lat="43.41739" lon="6.66521">
        <ele>57.6</ele>
        <time>2025-01-19T13:22:07Z</time>
      </trkpt>
      <trkpt lat="43.41739" lon="6.66523">
        <ele>57.8</ele>
        <time>2025-01-19T13:22:08Z</time>
      </trkpt>
      <trkpt lat="43.4174" lon="6.66524">
        <ele>57.8</ele>
        <time>2025-01-19T13:22:09Z</time>
      </trkpt>
      <trkpt lat="43.4174" lon="6.66525">
        <ele>57.8</ele>
        <time>2025-01-19T13:22:10Z</time>
      </trkpt>
      <trkpt lat="43.4174" lon="6.66527">
        <ele>57.9</ele>
        <time>2025-01-19T13:22:11Z</time>
      </trkpt>
      <trkpt lat="43.41741" lon="6.66528">
        <ele>57.9</ele>
        <time>2025-01-19T13:22:12Z</time>
      </trkpt>
      <trkpt lat="43.41741" lon="6.66529">
        <ele>58</ele>
        <time>2025-01-19T13:22:13Z</time>
      </trkpt>
      <trkpt lat="43.41742" lon="6.66531">
        <ele>58</ele>
        <time>2025-01-19T13:22:14Z</time>
      </trkpt>
      <trkpt lat="43.41742" lon="6.66532">
        <ele>58.1</ele>
        <time>2025-01-19T13:22:15Z</time>
      </trkpt>
      <trkpt lat="43.41743" lon="6.66533">
        <ele>58.1</ele>
        <time>2025-01-19T13:22:16Z</time>
      </trkpt>
      <trkpt lat="43.41744" lon="6.66534">
        <ele>58.1</ele>
        <time>2025-01-19T13:22:17Z</time>
      </trkpt>
      <trkpt lat="43.41744" lon="6.66535">
        <ele>58.1</ele>
        <time>2025-01-19T13:22:18Z</time>
      </trkpt>
      <trkpt lat="43.41745" lon="6.66535">
        <ele>58.1</ele>
        <time>2025-01-19T13:22:19Z</time>
      </trkpt>
      <trkpt lat="43.41746" lon="6.66536">
        <ele>58.1</ele>
        <time>2025-01-19T13:22:20Z</time>
      </trkpt>
      <trkpt lat="43.41747" lon="6.66536">
        <ele>58.1</ele>
        <time>2025-01-19T13:22:21Z</time>
      </trkpt>
      <trkpt lat="43.41747" lon="6.66537">
        <ele>58.1</ele>
        <time>2025-01-19T13:22:22Z</time>
      </trkpt>
      <trkpt lat="43.41749" lon="6.66538">
        <ele>58.1</ele>
        <time>2025-01-19T13:22:23Z</time>
      </trkpt>
      <trkpt lat="43.4175" lon="6.66538">
        <ele>58.2</ele>
        <time>2025-01-19T13:22:24Z</time>
      </trkpt>
      <trkpt lat="43.41751" lon="6.66539">
        <ele>58.2</ele>
        <time>2025-01-19T13:22:25Z</time>
      </trkpt>
      <trkpt lat="43.41751" lon="6.6654">
        <ele>58</ele>
        <time>2025-01-19T13:22:26Z</time>
      </trkpt>
      <trkpt lat="43.4175" lon="6.6654">
        <ele>58</ele>
        <time>2025-01-19T13:22:27Z</time>
      </trkpt>
      <trkpt lat="43.4175" lon="6.6654">
        <ele>58</ele>
        <time>2025-01-19T13:22:28Z</time>
      </trkpt>
      <trkpt lat="43.4175" lon="6.6654">
        <ele>58</ele>
        <time>2025-01-19T13:22:29Z</time>
      </trkpt>
      <trkpt lat="43.4175" lon="6.6654">
        <ele>58</ele>
        <time>2025-01-19T13:22:30Z</time>
      </trkpt>
      <trkpt lat="43.4175" lon="6.6654">
        <ele>58</ele>
        <time>2025-01-19T13:22:31Z</time>
      </trkpt>
      <trkpt lat="43.4175" lon="6.6654">
        <ele>58</ele>
        <time>2025-01-19T13:22:32Z</time>
      </trkpt>
      <trkpt lat="43.4175" lon="6.66542">
        <ele>58</ele>
        <time>2025-01-19T13:22:33Z</time>
      </trkpt>
      <trkpt lat="43.4175" lon="6.66543">
        <ele>58</ele>
        <time>2025-01-19T13:22:34Z</time>
      </trkpt>
      <trkpt lat="43.41751" lon="6.66543">
        <ele>58</ele>
        <time>2025-01-19T13:22:35Z</time>
      </trkpt>
      <trkpt lat="43.41751" lon="6.66544">
        <ele>58</ele>
        <time>2025-01-19T13:22:36Z</time>
      </trkpt>
      <trkpt lat="43.41751" lon="6.66544">
        <ele>57.9</ele>
        <time>2025-01-19T13:22:37Z</time>
      </trkpt>
      <trkpt lat="43.4175" lon="6.66545">
        <ele>57.9</ele>
        <time>2025-01-19T13:22:38Z</time>
      </trkpt>
      <trkpt lat="43.4175" lon="6.66547">
        <ele>57.8</ele>
        <time>2025-01-19T13:22:39Z</time>
      </trkpt>
      <trkpt lat="43.4175" lon="6.66548">
        <ele>57.8</ele>
        <time>2025-01-19T13:22:40Z</time>
      </trkpt>
      <trkpt lat="43.4175" lon="6.66549">
        <ele>57.8</ele>
        <time>2025-01-19T13:22:41Z</time>
      </trkpt>
      <trkpt lat="43.4175" lon="6.6655">
        <ele>57.8</ele>
        <time>2025-01-19T13:22:42Z</time>
      </trkpt>
      <trkpt lat="43.41751" lon="6.6655">
        <ele>57.8</ele>
        <time>2025-01-19T13:22:43Z</time>
      </trkpt>
      <trkpt lat="43.41752" lon="6.66552">
        <ele>57.8</ele>
        <time>2025-01-19T13:22:44Z</time>
      </trkpt>
      <trkpt lat="43.41752" lon="6.66553">
        <ele>57.7</ele>
        <time>2025-01-19T13:22:45Z</time>
      </trkpt>
      <trkpt lat="43.41752" lon="6.66554">
        <ele>57.6</ele>
        <time>2025-01-19T13:22:46Z</time>
      </trkpt>
      <trkpt lat="43.41753" lon="6.66555">
        <ele>57.7</ele>
        <time>2025-01-19T13:22:47Z</time>
      </trkpt>
      <trkpt lat="43.41753" lon="6.66557">
        <ele>57.8</ele>
        <time>2025-01-19T13:22:48Z</time>
      </trkpt>
      <trkpt lat="43.41754" lon="6.66558">
        <ele>57.8</ele>
        <time>2025-01-19T13:22:49Z</time>
      </trkpt>
      <trkpt lat="43.41754" lon="6.6656">
        <ele>57.8</ele>
        <time>2025-01-19T13:22:50Z</time>
      </trkpt>
      <trkpt lat="43.41754" lon="6.66561">
        <ele>57.7</ele>
        <time>2025-01-19T13:22:51Z</time>
      </trkpt>
      <trkpt lat="43.41755" lon="6.66562">
        <ele>57.7</ele>
        <time>2025-01-19T13:22:52Z</time>
      </trkpt>
      <trkpt lat="43.41757" lon="6.66562">
        <ele>57.7</ele>
        <time>2025-01-19T13:22:53Z</time>
      </trkpt>
      <trkpt lat="43.41757" lon="6.66563">
        <ele>57.7</ele>
        <time>2025-01-19T13:22:54Z</time>
      </trkpt>
      <trkpt lat="43.41757" lon="6.66564">
        <ele>57.7</ele>
        <time>2025-01-19T13:22:55Z</time>
      </trkpt>
      <trkpt lat="43.41758" lon="6.66564">
        <ele>57.6</ele>
        <time>2025-01-19T13:22:56Z</time>
      </trkpt>
      <trkpt lat="43.41759" lon="6.66565">
        <ele>57.6</ele>
        <time>2025-01-19T13:22:57Z</time>
      </trkpt>
      <trkpt lat="43.4176" lon="6.66565">
        <ele>57.5</ele>
        <time>2025-01-19T13:22:58Z</time>
      </trkpt>
      <trkpt lat="43.41761" lon="6.66565">
        <ele>57.5</ele>
        <time>2025-01-19T13:22:59Z</time>
      </trkpt>
      <trkpt lat="43.41762" lon="6.66564">
        <ele>57.5</ele>
        <time>2025-01-19T13:23:00Z</time>
      </trkpt>
      <trkpt lat="43.41764" lon="6.66563">
        <ele>57.5</ele>
        <time>2025-01-19T13:23:01Z</time>
      </trkpt>
      <trkpt lat="43.41765" lon="6.66562">
        <ele>57.7</ele>
        <time>2025-01-19T13:23:02Z</time>
      </trkpt>
      <trkpt lat="43.41767" lon="6.66561">
        <ele>57.8</ele>
        <time>2025-01-19T13:23:03Z</time>
      </trkpt>
      <trkpt lat="43.41769" lon="6.6656">
        <ele>57.9</ele>
        <time>2025-01-19T13:23:04Z</time>
      </trkpt>
      <trkpt lat="43.4177" lon="6.66559">
        <ele>58</ele>
        <time>2025-01-19T13:23:05Z</time>
      </trkpt>
      <trkpt lat="43.41772" lon="6.66559">
        <ele>58.1</ele>
        <time>2025-01-19T13:23:06Z</time>
      </trkpt>
      <trkpt lat="43.41772" lon="6.66558">
        <ele>58.2</ele>
        <time>2025-01-19T13:23:07Z</time>
      </trkpt>
      <trkpt lat="43.41773" lon="6.66557">
        <ele>58.2</ele>
        <time>2025-01-19T13:23:08Z</time>
      </trkpt>
      <trkpt lat="43.41774" lon="6.66555">
        <ele>58.2</ele>
        <time>2025-01-19T13:23:09Z</time>
      </trkpt>
      <trkpt lat="43.41775" lon="6.66554">
        <ele>58.2</ele>
        <time>2025-01-19T13:23:10Z</time>
      </trkpt>
      <trkpt lat="43.41777" lon="6.66553">
        <ele>58.3</ele>
        <time>2025-01-19T13:23:11Z</time>
      </trkpt>
      <trkpt lat="43.41779" lon="6.66551">
        <ele>58.3</ele>
        <time>2025-01-19T13:23:12Z</time>
      </trkpt>
      <trkpt lat="43.4178" lon="6.66551">
        <ele>58.3</ele>
        <time>2025-01-19T13:23:13Z</time>
      </trkpt>
      <trkpt lat="43.41781" lon="6.6655">
        <ele>58.3</ele>
        <time>2025-01-19T13:23:14Z</time>
      </trkpt>
      <trkpt lat="43.41781" lon="6.66549">
        <ele>58.2</ele>
        <time>2025-01-19T13:23:15Z</time>
      </trkpt>
      <trkpt lat="43.41781" lon="6.66548">
        <ele>58.2</ele>
        <time>2025-01-19T13:23:16Z</time>
      </trkpt>
      <trkpt lat="43.41783" lon="6.66547">
        <ele>58.2</ele>
        <time>2025-01-19T13:23:17Z</time>
      </trkpt>
      <trkpt lat="43.41784" lon="6.66546">
        <ele>58.2</ele>
        <time>2025-01-19T13:23:18Z</time>
      </trkpt>
      <trkpt lat="43.41786" lon="6.66545">
        <ele>58.1</ele>
        <time>2025-01-19T13:23:19Z</time>
      </trkpt>
      <trkpt lat="43.41788" lon="6.66544">
        <ele>58.1</ele>
        <time>2025-01-19T13:23:20Z</time>
      </trkpt>
      <trkpt lat="43.4179" lon="6.66543">
        <ele>58</ele>
        <time>2025-01-19T13:23:21Z</time>
      </trkpt>
      <trkpt lat="43.41791" lon="6.66542">
        <ele>58</ele>
        <time>2025-01-19T13:23:22Z</time>
      </trkpt>
      <trkpt lat="43.41793" lon="6.66541">
        <ele>58</ele>
        <time>2025-01-19T13:23:23Z</time>
      </trkpt>
      <trkpt lat="43.41794" lon="6.6654">
        <ele>58</ele>
        <time>2025-01-19T13:23:24Z</time>
      </trkpt>
      <trkpt lat="43.41796" lon="6.66539">
        <ele>58</ele>
        <time>2025-01-19T13:23:25Z</time>
      </trkpt>
      <trkpt lat="43.41797" lon="6.66538">
        <ele>57.9</ele>
        <time>2025-01-19T13:23:26Z</time>
      </trkpt>
      <trkpt lat="43.41798" lon="6.66537">
        <ele>58</ele>
        <time>2025-01-19T13:23:27Z</time>
      </trkpt>
      <trkpt lat="43.41799" lon="6.66536">
        <ele>58</ele>
        <time>2025-01-19T13:23:28Z</time>
      </trkpt>
      <trkpt lat="43.418" lon="6.66536">
        <ele>58</ele>
        <time>2025-01-19T13:23:29Z</time>
      </trkpt>
      <trkpt lat="43.41801" lon="6.66535">
        <ele>58</ele>
        <time>2025-01-19T13:23:30Z</time>
      </trkpt>
      <trkpt lat="43.41803" lon="6.66534">
        <ele>58</ele>
        <time>2025-01-19T13:23:31Z</time>
      </trkpt>
      <trkpt lat="43.41804" lon="6.66533">
        <ele>58</ele>
        <time>2025-01-19T13:23:32Z</time>
      </trkpt>
      <trkpt lat="43.41805" lon="6.66532">
        <ele>58</ele>
        <time>2025-01-19T13:23:33Z</time>
      </trkpt>
      <trkpt lat="43.41807" lon="6.66531">
        <ele>58</ele>
        <time>2025-01-19T13:23:34Z</time>
      </trkpt>
      <trkpt lat="43.41809" lon="6.66531">
        <ele>58.1</ele>
        <time>2025-01-19T13:23:35Z</time>
      </trkpt>
      <trkpt lat="43.41811" lon="6.6653">
        <ele>58</ele>
        <time>2025-01-19T13:23:36Z</time>
      </trkpt>
      <trkpt lat="43.41812" lon="6.66529">
        <ele>58</ele>
        <time>2025-01-19T13:23:37Z</time>
      </trkpt>
      <trkpt lat="43.41813" lon="6.66529">
        <ele>58</ele>
        <time>2025-01-19T13:23:38Z</time>
      </trkpt>
      <trkpt lat="43.41814" lon="6.66528">
        <ele>57.9</ele>
        <time>2025-01-19T13:23:39Z</time>
      </trkpt>
      <trkpt lat="43.41815" lon="6.66527">
        <ele>57.8</ele>
        <time>2025-01-19T13:23:40Z</time>
      </trkpt>
      <trkpt lat="43.41817" lon="6.66526">
        <ele>57.8</ele>
        <time>2025-01-19T13:23:41Z</time>
      </trkpt>
      <trkpt lat="43.41818" lon="6.66525">
        <ele>57.5</ele>
        <time>2025-01-19T13:23:42Z</time>
      </trkpt>
      <trkpt lat="43.41819" lon="6.66525">
        <ele>57.4</ele>
        <time>2025-01-19T13:23:43Z</time>
      </trkpt>
      <trkpt lat="43.4182" lon="6.66524">
        <ele>57.2</ele>
        <time>2025-01-19T13:23:44Z</time>
      </trkpt>
      <trkpt lat="43.41821" lon="6.66523">
        <ele>57.2</ele>
        <time>2025-01-19T13:23:45Z</time>
      </trkpt>
      <trkpt lat="43.41822" lon="6.66522">
        <ele>57.2</ele>
        <time>2025-01-19T13:23:46Z</time>
      </trkpt>
      <trkpt lat="43.41823" lon="6.66521">
        <ele>57.1</ele>
        <time>2025-01-19T13:23:47Z</time>
      </trkpt>
      <trkpt lat="43.41824" lon="6.6652">
        <ele>57.1</ele>
        <time>2025-01-19T13:23:48Z</time>
      </trkpt>
      <trkpt lat="43.41825" lon="6.66519">
        <ele>57</ele>
        <time>2025-01-19T13:23:49Z</time>
      </trkpt>
      <trkpt lat="43.41826" lon="6.66518">
        <ele>56.8</ele>
        <time>2025-01-19T13:23:50Z</time>
      </trkpt>
      <trkpt lat="43.41827" lon="6.66517">
        <ele>56.7</ele>
        <time>2025-01-19T13:23:51Z</time>
      </trkpt>
      <trkpt lat="43.41828" lon="6.66517">
        <ele>56.7</ele>
        <time>2025-01-19T13:23:52Z</time>
      </trkpt>
      <trkpt lat="43.41828" lon="6.66516">
        <ele>56.6</ele>
        <time>2025-01-19T13:23:53Z</time>
      </trkpt>
      <trkpt lat="43.4183" lon="6.66516">
        <ele>56.4</ele>
        <time>2025-01-19T13:23:54Z</time>
      </trkpt>
      <trkpt lat="43.41831" lon="6.66515">
        <ele>56.3</ele>
        <time>2025-01-19T13:23:55Z</time>
      </trkpt>
      <trkpt lat="43.41832" lon="6.66515">
        <ele>56.2</ele>
        <time>2025-01-19T13:23:56Z</time>
      </trkpt>
      <trkpt lat="43.41833" lon="6.66515">
        <ele>56</ele>
        <time>2025-01-19T13:23:57Z</time>
      </trkpt>
      <trkpt lat="43.41834" lon="6.66514">
        <ele>55.9</ele>
        <time>2025-01-19T13:23:58Z</time>
      </trkpt>
      <trkpt lat="43.41835" lon="6.66514">
        <ele>55.8</ele>
        <time>2025-01-19T13:23:59Z</time>
      </trkpt>
      <trkpt lat="43.41836" lon="6.66513">
        <ele>55.7</ele>
        <time>2025-01-19T13:24:00Z</time>
      </trkpt>
      <trkpt lat="43.41837" lon="6.66513">
        <ele>55.7</ele>
        <time>2025-01-19T13:24:01Z</time>
      </trkpt>
      <trkpt lat="43.41839" lon="6.66513">
        <ele>55.6</ele>
        <time>2025-01-19T13:24:02Z</time>
      </trkpt>
      <trkpt lat="43.4184" lon="6.66512">
        <ele>55.6</ele>
        <time>2025-01-19T13:24:03Z</time>
      </trkpt>
      <trkpt lat="43.41841" lon="6.66512">
        <ele>55.6</ele>
        <time>2025-01-19T13:24:04Z</time>
      </trkpt>
      <trkpt lat="43.41842" lon="6.66512">
        <ele>55.4</ele>
        <time>2025-01-19T13:24:05Z</time>
      </trkpt>
      <trkpt lat="43.41843" lon="6.66512">
        <ele>55.3</ele>
        <time>2025-01-19T13:24:06Z</time>
      </trkpt>
      <trkpt lat="43.41844" lon="6.66513">
        <ele>55.2</ele>
        <time>2025-01-19T13:24:07Z</time>
      </trkpt>
      <trkpt lat="43.41845" lon="6.66513">
        <ele>55.1</ele>
        <time>2025-01-19T13:24:08Z</time>
      </trkpt>
      <trkpt lat="43.41847" lon="6.66513">
        <ele>54.9</ele>
        <time>2025-01-19T13:24:09Z</time>
      </trkpt>
      <trkpt lat="43.41848" lon="6.66513">
        <ele>54.8</ele>
        <time>2025-01-19T13:24:10Z</time>
      </trkpt>
      <trkpt lat="43.41849" lon="6.66513">
        <ele>54.8</ele>
        <time>2025-01-19T13:24:11Z</time>
      </trkpt>
      <trkpt lat="43.4185" lon="6.66514">
        <ele>54.6</ele>
        <time>2025-01-19T13:24:12Z</time>
      </trkpt>
      <trkpt lat="43.41851" lon="6.66514">
        <ele>54.5</ele>
        <time>2025-01-19T13:24:13Z</time>
      </trkpt>
      <trkpt lat="43.41852" lon="6.66515">
        <ele>54.4</ele>
        <time>2025-01-19T13:24:14Z</time>
      </trkpt>
      <trkpt lat="43.41853" lon="6.66516">
        <ele>54.3</ele>
        <time>2025-01-19T13:24:15Z</time>
      </trkpt>
      <trkpt lat="43.41854" lon="6.66516">
        <ele>54.3</ele>
        <time>2025-01-19T13:24:16Z</time>
      </trkpt>
      <trkpt lat="43.41855" lon="6.66517">
        <ele>54.2</ele>
        <time>2025-01-19T13:24:17Z</time>
      </trkpt>
      <trkpt lat="43.41856" lon="6.66518">
        <ele>54</ele>
        <time>2025-01-19T13:24:18Z</time>
      </trkpt>
      <trkpt lat="43.41857" lon="6.66519">
        <ele>53.9</ele>
        <time>2025-01-19T13:24:19Z</time>
      </trkpt>
      <trkpt lat="43.41857" lon="6.6652">
        <ele>53.8</ele>
        <time>2025-01-19T13:24:20Z</time>
      </trkpt>
      <trkpt lat="43.41858" lon="6.66521">
        <ele>53.7</ele>
        <time>2025-01-19T13:24:21Z</time>
      </trkpt>
      <trkpt lat="43.41859" lon="6.66522">
        <ele>53.5</ele>
        <time>2025-01-19T13:24:22Z</time>
      </trkpt>
      <trkpt lat="43.41861" lon="6.66523">
        <ele>53.5</ele>
        <time>2025-01-19T13:24:23Z</time>
      </trkpt>
      <trkpt lat="43.41862" lon="6.66523">
        <ele>53.4</ele>
        <time>2025-01-19T13:24:24Z</time>
      </trkpt>
      <trkpt lat="43.41862" lon="6.66524">
        <ele>53.3</ele>
        <time>2025-01-19T13:24:25Z</time>
      </trkpt>
      <trkpt lat="43.41863" lon="6.66525">
        <ele>53.2</ele>
        <time>2025-01-19T13:24:26Z</time>
      </trkpt>
      <trkpt lat="43.41864" lon="6.66526">
        <ele>53.2</ele>
        <time>2025-01-19T13:24:27Z</time>
      </trkpt>
      <trkpt lat="43.41866" lon="6.66526">
        <ele>53</ele>
        <time>2025-01-19T13:24:28Z</time>
      </trkpt>
      <trkpt lat="43.41868" lon="6.66526">
        <ele>53</ele>
        <time>2025-01-19T13:24:29Z</time>
      </trkpt>
      <trkpt lat="43.41869" lon="6.66525">
        <ele>53</ele>
        <time>2025-01-19T13:24:30Z</time>
      </trkpt>
      <trkpt lat="43.4187" lon="6.66524">
        <ele>52.9</ele>
        <time>2025-01-19T13:24:31Z</time>
      </trkpt>
      <trkpt lat="43.41871" lon="6.66523">
        <ele>52.8</ele>
        <time>2025-01-19T13:24:32Z</time>
      </trkpt>
      <trkpt lat="43.41873" lon="6.66522">
        <ele>52.8</ele>
        <time>2025-01-19T13:24:33Z</time>
      </trkpt>
      <trkpt lat="43.41874" lon="6.66522">
        <ele>52.8</ele>
        <time>2025-01-19T13:24:34Z</time>
      </trkpt>
      <trkpt lat="43.41875" lon="6.66521">
        <ele>52.8</ele>
        <time>2025-01-19T13:24:35Z</time>
      </trkpt>
      <trkpt lat="43.41876" lon="6.6652">
        <ele>52.7</ele>
        <time>2025-01-19T13:24:36Z</time>
      </trkpt>
      <trkpt lat="43.41878" lon="6.66519">
        <ele>52.7</ele>
        <time>2025-01-19T13:24:37Z</time>
      </trkpt>
      <trkpt lat="43.41879" lon="6.66519">
        <ele>52.6</ele>
        <time>2025-01-19T13:24:38Z</time>
      </trkpt>
      <trkpt lat="43.4188" lon="6.66518">
        <ele>52.5</ele>
        <time>2025-01-19T13:24:39Z</time>
      </trkpt>
      <trkpt lat="43.4188" lon="6.66518">
        <ele>52.4</ele>
        <time>2025-01-19T13:24:40Z</time>
      </trkpt>
      <trkpt lat="43.41882" lon="6.66517">
        <ele>52.3</ele>
        <time>2025-01-19T13:24:41Z</time>
      </trkpt>
      <trkpt lat="43.41883" lon="6.66516">
        <ele>52.1</ele>
        <time>2025-01-19T13:24:42Z</time>
      </trkpt>
      <trkpt lat="43.41884" lon="6.66516">
        <ele>51.9</ele>
        <time>2025-01-19T13:24:43Z</time>
      </trkpt>
      <trkpt lat="43.41885" lon="6.66516">
        <ele>51.8</ele>
        <time>2025-01-19T13:24:44Z</time>
      </trkpt>
      <trkpt lat="43.41886" lon="6.66516">
        <ele>51.7</ele>
        <time>2025-01-19T13:24:45Z</time>
      </trkpt>
      <trkpt lat="43.41887" lon="6.66516">
        <ele>51.7</ele>
        <time>2025-01-19T13:24:46Z</time>
      </trkpt>
      <trkpt lat="43.41888" lon="6.66516">
        <ele>51.6</ele>
        <time>2025-01-19T13:24:47Z</time>
      </trkpt>
      <trkpt lat="43.41889" lon="6.66516">
        <ele>51.5</ele>
        <time>2025-01-19T13:24:48Z</time>
      </trkpt>
      <trkpt lat="43.4189" lon="6.66516">
        <ele>51.3</ele>
        <time>2025-01-19T13:24:49Z</time>
      </trkpt>
      <trkpt lat="43.41891" lon="6.66516">
        <ele>51.2</ele>
        <time>2025-01-19T13:24:50Z</time>
      </trkpt>
      <trkpt lat="43.41892" lon="6.66517">
        <ele>51.1</ele>
        <time>2025-01-19T13:24:51Z</time>
      </trkpt>
      <trkpt lat="43.41893" lon="6.66517">
        <ele>51.1</ele>
        <time>2025-01-19T13:24:52Z</time>
      </trkpt>
      <trkpt lat="43.41894" lon="6.66517">
        <ele>51.1</ele>
        <time>2025-01-19T13:24:53Z</time>
      </trkpt>
      <trkpt lat="43.41896" lon="6.66518">
        <ele>51.1</ele>
        <time>2025-01-19T13:24:54Z</time>
      </trkpt>
      <trkpt lat="43.41897" lon="6.66517">
        <ele>51.1</ele>
        <time>2025-01-19T13:24:55Z</time>
      </trkpt>
      <trkpt lat="43.41898" lon="6.66517">
        <ele>51.1</ele>
        <time>2025-01-19T13:24:56Z</time>
      </trkpt>
      <trkpt lat="43.41899" lon="6.66518">
        <ele>51.1</ele>
        <time>2025-01-19T13:24:57Z</time>
      </trkpt>
      <trkpt lat="43.419" lon="6.66518">
        <ele>51.1</ele>
        <time>2025-01-19T13:24:58Z</time>
      </trkpt>
      <trkpt lat="43.41901" lon="6.66518">
        <ele>51</ele>
        <time>2025-01-19T13:24:59Z</time>
      </trkpt>
      <trkpt lat="43.41902" lon="6.66518">
        <ele>50.9</ele>
        <time>2025-01-19T13:25:00Z</time>
      </trkpt>
      <trkpt lat="43.41902" lon="6.66517">
        <ele>50.9</ele>
        <time>2025-01-19T13:25:01Z</time>
      </trkpt>
      <trkpt lat="43.41903" lon="6.66516">
        <ele>50.7</ele>
        <time>2025-01-19T13:25:02Z</time>
      </trkpt>
      <trkpt lat="43.41904" lon="6.66516">
        <ele>50.6</ele>
        <time>2025-01-19T13:25:03Z</time>
      </trkpt>
      <trkpt lat="43.41905" lon="6.66515">
        <ele>50.5</ele>
        <time>2025-01-19T13:25:04Z</time>
      </trkpt>
      <trkpt lat="43.41906" lon="6.66515">
        <ele>50.3</ele>
        <time>2025-01-19T13:25:05Z</time>
      </trkpt>
      <trkpt lat="43.41907" lon="6.66514">
        <ele>50.1</ele>
        <time>2025-01-19T13:25:06Z</time>
      </trkpt>
      <trkpt lat="43.41907" lon="6.66514">
        <ele>49.8</ele>
        <time>2025-01-19T13:25:07Z</time>
      </trkpt>
      <trkpt lat="43.41908" lon="6.66513">
        <ele>49.6</ele>
        <time>2025-01-19T13:25:08Z</time>
      </trkpt>
      <trkpt lat="43.41909" lon="6.66512">
        <ele>49.3</ele>
        <time>2025-01-19T13:25:09Z</time>
      </trkpt>
      <trkpt lat="43.4191" lon="6.66511">
        <ele>49.1</ele>
        <time>2025-01-19T13:25:10Z</time>
      </trkpt>
      <trkpt lat="43.41911" lon="6.66511">
        <ele>48.7</ele>
        <time>2025-01-19T13:25:11Z</time>
      </trkpt>
      <trkpt lat="43.41912" lon="6.66511">
        <ele>48.4</ele>
        <time>2025-01-19T13:25:12Z</time>
      </trkpt>
      <trkpt lat="43.41913" lon="6.6651">
        <ele>48.2</ele>
        <time>2025-01-19T13:25:13Z</time>
      </trkpt>
      <trkpt lat="43.41914" lon="6.6651">
        <ele>47.8</ele>
        <time>2025-01-19T13:25:14Z</time>
      </trkpt>
      <trkpt lat="43.41915" lon="6.66509">
        <ele>47.6</ele>
        <time>2025-01-19T13:25:15Z</time>
      </trkpt>
      <trkpt lat="43.41917" lon="6.66509">
        <ele>47.2</ele>
        <time>2025-01-19T13:25:16Z</time>
      </trkpt>
      <trkpt lat="43.41918" lon="6.66508">
        <ele>47</ele>
        <time>2025-01-19T13:25:17Z</time>
      </trkpt>
      <trkpt lat="43.41919" lon="6.66508">
        <ele>46.8</ele>
        <time>2025-01-19T13:25:18Z</time>
      </trkpt>
      <trkpt lat="43.4192" lon="6.66508">
        <ele>46.6</ele>
        <time>2025-01-19T13:25:19Z</time>
      </trkpt>
      <trkpt lat="43.41921" lon="6.66508">
        <ele>46.3</ele>
        <time>2025-01-19T13:25:20Z</time>
      </trkpt>
      <trkpt lat="43.41923" lon="6.66507">
        <ele>46.1</ele>
        <time>2025-01-19T13:25:21Z</time>
      </trkpt>
      <trkpt lat="43.41923" lon="6.66506">
        <ele>46</ele>
        <time>2025-01-19T13:25:22Z</time>
      </trkpt>
      <trkpt lat="43.41925" lon="6.66506">
        <ele>45.8</ele>
        <time>2025-01-19T13:25:23Z</time>
      </trkpt>
      <trkpt lat="43.41926" lon="6.66505">
        <ele>45.7</ele>
        <time>2025-01-19T13:25:24Z</time>
      </trkpt>
      <trkpt lat="43.41927" lon="6.66503">
        <ele>45.5</ele>
        <time>2025-01-19T13:25:25Z</time>
      </trkpt>
      <trkpt lat="43.41928" lon="6.66503">
        <ele>45.3</ele>
        <time>2025-01-19T13:25:26Z</time>
      </trkpt>
      <trkpt lat="43.41929" lon="6.66502">
        <ele>45.1</ele>
        <time>2025-01-19T13:25:27Z</time>
      </trkpt>
      <trkpt lat="43.4193" lon="6.66501">
        <ele>44.9</ele>
        <time>2025-01-19T13:25:28Z</time>
      </trkpt>
      <trkpt lat="43.41931" lon="6.665">
        <ele>44.7</ele>
        <time>2025-01-19T13:25:29Z</time>
      </trkpt>
      <trkpt lat="43.41932" lon="6.66499">
        <ele>44.6</ele>
        <time>2025-01-19T13:25:30Z</time>
      </trkpt>
      <trkpt lat="43.41933" lon="6.66499">
        <ele>44.4</ele>
        <time>2025-01-19T13:25:31Z</time>
      </trkpt>
      <trkpt lat="43.41934" lon="6.66498">
        <ele>44.2</ele>
        <time>2025-01-19T13:25:32Z</time>
      </trkpt>
      <trkpt lat="43.41935" lon="6.66497">
        <ele>44</ele>
        <time>2025-01-19T13:25:33Z</time>
      </trkpt>
      <trkpt lat="43.41936" lon="6.66496">
        <ele>43.8</ele>
        <time>2025-01-19T13:25:34Z</time>
      </trkpt>
      <trkpt lat="43.41937" lon="6.66496">
        <ele>43.6</ele>
        <time>2025-01-19T13:25:35Z</time>
      </trkpt>
      <trkpt lat="43.41939" lon="6.66495">
        <ele>43.5</ele>
        <time>2025-01-19T13:25:36Z</time>
      </trkpt>
      <trkpt lat="43.41939" lon="6.66494">
        <ele>43.3</ele>
        <time>2025-01-19T13:25:37Z</time>
      </trkpt>
      <trkpt lat="43.4194" lon="6.66494">
        <ele>43.2</ele>
        <time>2025-01-19T13:25:38Z</time>
      </trkpt>
      <trkpt lat="43.4194" lon="6.66493">
        <ele>43.1</ele>
        <time>2025-01-19T13:25:39Z</time>
      </trkpt>
      <trkpt lat="43.41941" lon="6.66492">
        <ele>42.9</ele>
        <time>2025-01-19T13:25:40Z</time>
      </trkpt>
      <trkpt lat="43.41942" lon="6.66492">
        <ele>42.7</ele>
        <time>2025-01-19T13:25:41Z</time>
      </trkpt>
      <trkpt lat="43.41943" lon="6.66491">
        <ele>42.5</ele>
        <time>2025-01-19T13:25:42Z</time>
      </trkpt>
      <trkpt lat="43.41943" lon="6.66491">
        <ele>42.4</ele>
        <time>2025-01-19T13:25:43Z</time>
      </trkpt>
      <trkpt lat="43.41944" lon="6.66492">
        <ele>42.2</ele>
        <time>2025-01-19T13:25:44Z</time>
      </trkpt>
      <trkpt lat="43.41944" lon="6.66492">
        <ele>42.1</ele>
        <time>2025-01-19T13:25:45Z</time>
      </trkpt>
      <trkpt lat="43.41945" lon="6.66493">
        <ele>41.9</ele>
        <time>2025-01-19T13:25:46Z</time>
      </trkpt>
      <trkpt lat="43.41945" lon="6.66493">
        <ele>41.8</ele>
        <time>2025-01-19T13:25:47Z</time>
      </trkpt>
      <trkpt lat="43.41944" lon="6.66493">
        <ele>41.7</ele>
        <time>2025-01-19T13:25:48Z</time>
      </trkpt>
      <trkpt lat="43.41944" lon="6.66493">
        <ele>41.6</ele>
        <time>2025-01-19T13:25:49Z</time>
      </trkpt>
      <trkpt lat="43.41945" lon="6.66493">
        <ele>41.5</ele>
        <time>2025-01-19T13:25:50Z</time>
      </trkpt>
      <trkpt lat="43.41945" lon="6.66492">
        <ele>41.4</ele>
        <time>2025-01-19T13:25:51Z</time>
      </trkpt>
      <trkpt lat="43.41945" lon="6.66491">
        <ele>41.3</ele>
        <time>2025-01-19T13:25:52Z</time>
      </trkpt>
      <trkpt lat="43.41946" lon="6.6649">
        <ele>41.2</ele>
        <time>2025-01-19T13:25:53Z</time>
      </trkpt>
      <trkpt lat="43.41946" lon="6.66488">
        <ele>41.1</ele>
        <time>2025-01-19T13:25:54Z</time>
      </trkpt>
      <trkpt lat="43.41947" lon="6.66487">
        <ele>41.1</ele>
        <time>2025-01-19T13:25:55Z</time>
      </trkpt>
      <trkpt lat="43.41948" lon="6.66487">
        <ele>40.9</ele>
        <time>2025-01-19T13:25:56Z</time>
      </trkpt>
      <trkpt lat="43.41949" lon="6.66486">
        <ele>40.9</ele>
        <time>2025-01-19T13:25:57Z</time>
      </trkpt>
      <trkpt lat="43.4195" lon="6.66486">
        <ele>40.8</ele>
        <time>2025-01-19T13:25:58Z</time>
      </trkpt>
      <trkpt lat="43.41951" lon="6.66485">
        <ele>40.8</ele>
        <time>2025-01-19T13:25:59Z</time>
      </trkpt>
      <trkpt lat="43.41951" lon="6.66485">
        <ele>40.7</ele>
        <time>2025-01-19T13:26:00Z</time>
      </trkpt>
      <trkpt lat="43.41951" lon="6.66485">
        <ele>40.6</ele>
        <time>2025-01-19T13:26:01Z</time>
      </trkpt>
      <trkpt lat="43.41952" lon="6.66484">
        <ele>40.5</ele>
        <time>2025-01-19T13:26:02Z</time>
      </trkpt>
      <trkpt lat="43.41952" lon="6.66484">
        <ele>40.4</ele>
        <time>2025-01-19T13:26:03Z</time>
      </trkpt>
      <trkpt lat="43.41953" lon="6.66484">
        <ele>40.3</ele>
        <time>2025-01-19T13:26:04Z</time>
      </trkpt>
      <trkpt lat="43.41954" lon="6.66484">
        <ele>40.2</ele>
        <time>2025-01-19T13:26:05Z</time>
      </trkpt>
      <trkpt lat="43.41956" lon="6.66483">
        <ele>40.1</ele>
        <time>2025-01-19T13:26:06Z</time>
      </trkpt>
      <trkpt lat="43.41957" lon="6.66483">
        <ele>40</ele>
        <time>2025-01-19T13:26:07Z</time>
      </trkpt>
      <trkpt lat="43.41959" lon="6.66482">
        <ele>39.9</ele>
        <time>2025-01-19T13:26:08Z</time>
      </trkpt>
      <trkpt lat="43.4196" lon="6.66482">
        <ele>39.8</ele>
        <time>2025-01-19T13:26:09Z</time>
      </trkpt>
      <trkpt lat="43.41961" lon="6.66482">
        <ele>39.7</ele>
        <time>2025-01-19T13:26:10Z</time>
      </trkpt>
      <trkpt lat="43.41962" lon="6.66482">
        <ele>39.6</ele>
        <time>2025-01-19T13:26:11Z</time>
      </trkpt>
      <trkpt lat="43.41964" lon="6.66482">
        <ele>39.6</ele>
        <time>2025-01-19T13:26:12Z</time>
      </trkpt>
      <trkpt lat="43.41965" lon="6.66481">
        <ele>39.6</ele>
        <time>2025-01-19T13:26:13Z</time>
      </trkpt>
      <trkpt lat="43.41966" lon="6.66481">
        <ele>39.5</ele>
        <time>2025-01-19T13:26:14Z</time>
      </trkpt>
      <trkpt lat="43.41966" lon="6.66481">
        <ele>39.4</ele>
        <time>2025-01-19T13:26:15Z</time>
      </trkpt>
      <trkpt lat="43.41967" lon="6.6648">
        <ele>39.2</ele>
        <time>2025-01-19T13:26:16Z</time>
      </trkpt>
      <trkpt lat="43.41968" lon="6.6648">
        <ele>39.1</ele>
        <time>2025-01-19T13:26:17Z</time>
      </trkpt>
      <trkpt lat="43.41969" lon="6.6648">
        <ele>39</ele>
        <time>2025-01-19T13:26:18Z</time>
      </trkpt>
      <trkpt lat="43.4197" lon="6.66479">
        <ele>38.9</ele>
        <time>2025-01-19T13:26:19Z</time>
      </trkpt>
      <trkpt lat="43.41971" lon="6.66479">
        <ele>38.8</ele>
        <time>2025-01-19T13:26:20Z</time>
      </trkpt>
      <trkpt lat="43.41972" lon="6.66478">
        <ele>38.7</ele>
        <time>2025-01-19T13:26:21Z</time>
      </trkpt>
      <trkpt lat="43.41973" lon="6.66478">
        <ele>38.6</ele>
        <time>2025-01-19T13:26:22Z</time>
      </trkpt>
      <trkpt lat="43.41974" lon="6.66477">
        <ele>38.4</ele>
        <time>2025-01-19T13:26:23Z</time>
      </trkpt>
      <trkpt lat="43.41976" lon="6.66478">
        <ele>38.3</ele>
        <time>2025-01-19T13:26:24Z</time>
      </trkpt>
      <trkpt lat="43.41977" lon="6.66477">
        <ele>38.2</ele>
        <time>2025-01-19T13:26:25Z</time>
      </trkpt>
      <trkpt lat="43.41979" lon="6.66477">
        <ele>38.1</ele>
        <time>2025-01-19T13:26:26Z</time>
      </trkpt>
      <trkpt lat="43.4198" lon="6.66476">
        <ele>38</ele>
        <time>2025-01-19T13:26:27Z</time>
      </trkpt>
      <trkpt lat="43.41981" lon="6.66475">
        <ele>37.8</ele>
        <time>2025-01-19T13:26:28Z</time>
      </trkpt>
      <trkpt lat="43.41982" lon="6.66474">
        <ele>37.7</ele>
        <time>2025-01-19T13:26:29Z</time>
      </trkpt>
      <trkpt lat="43.41983" lon="6.66473">
        <ele>37.6</ele>
        <time>2025-01-19T13:26:30Z</time>
      </trkpt>
      <trkpt lat="43.41984" lon="6.66473">
        <ele>37.5</ele>
        <time>2025-01-19T13:26:31Z</time>
      </trkpt>
      <trkpt lat="43.41986" lon="6.66471">
        <ele>37.4</ele>
        <time>2025-01-19T13:26:32Z</time>
      </trkpt>
      <trkpt lat="43.41986" lon="6.6647">
        <ele>37.3</ele>
        <time>2025-01-19T13:26:33Z</time>
      </trkpt>
      <trkpt lat="43.41987" lon="6.66469">
        <ele>37.2</ele>
        <time>2025-01-19T13:26:34Z</time>
      </trkpt>
      <trkpt lat="43.41989" lon="6.66468">
        <ele>37.1</ele>
        <time>2025-01-19T13:26:35Z</time>
      </trkpt>
      <trkpt lat="43.41991" lon="6.66467">
        <ele>37</ele>
        <time>2025-01-19T13:26:36Z</time>
      </trkpt>
      <trkpt lat="43.41992" lon="6.66466">
        <ele>36.9</ele>
        <time>2025-01-19T13:26:37Z</time>
      </trkpt>
      <trkpt lat="43.41993" lon="6.66464">
        <ele>36.8</ele>
        <time>2025-01-19T13:26:38Z</time>
      </trkpt>
      <trkpt lat="43.41994" lon="6.66463">
        <ele>36.7</ele>
        <time>2025-01-19T13:26:39Z</time>
      </trkpt>
      <trkpt lat="43.41994" lon="6.66462">
        <ele>36.6</ele>
        <time>2025-01-19T13:26:40Z</time>
      </trkpt>
      <trkpt lat="43.41994" lon="6.6646">
        <ele>36.4</ele>
        <time>2025-01-19T13:26:41Z</time>
      </trkpt>
      <trkpt lat="43.41995" lon="6.66459">
        <ele>36.2</ele>
        <time>2025-01-19T13:26:42Z</time>
      </trkpt>
      <trkpt lat="43.41997" lon="6.66458">
        <ele>36</ele>
        <time>2025-01-19T13:26:43Z</time>
      </trkpt>
      <trkpt lat="43.41998" lon="6.66457">
        <ele>35.9</ele>
        <time>2025-01-19T13:26:44Z</time>
      </trkpt>
      <trkpt lat="43.41999" lon="6.66456">
        <ele>35.8</ele>
        <time>2025-01-19T13:26:45Z</time>
      </trkpt>
      <trkpt lat="43.42" lon="6.66455">
        <ele>35.7</ele>
        <time>2025-01-19T13:26:46Z</time>
      </trkpt>
      <trkpt lat="43.42001" lon="6.66454">
        <ele>35.5</ele>
        <time>2025-01-19T13:26:47Z</time>
      </trkpt>
      <trkpt lat="43.42003" lon="6.66452">
        <ele>35.3</ele>
        <time>2025-01-19T13:26:48Z</time>
      </trkpt>
      <trkpt lat="43.42004" lon="6.66451">
        <ele>35.1</ele>
        <time>2025-01-19T13:26:49Z</time>
      </trkpt>
      <trkpt lat="43.42005" lon="6.6645">
        <ele>35</ele>
        <time>2025-01-19T13:26:50Z</time>
      </trkpt>
      <trkpt lat="43.42005" lon="6.66449">
        <ele>34.8</ele>
        <time>2025-01-19T13:26:51Z</time>
      </trkpt>
      <trkpt lat="43.42006" lon="6.66447">
        <ele>34.7</ele>
        <time>2025-01-19T13:26:52Z</time>
      </trkpt>
      <trkpt lat="43.42007" lon="6.66446">
        <ele>34.5</ele>
        <time>2025-01-19T13:26:53Z</time>
      </trkpt>
      <trkpt lat="43.42007" lon="6.66445">
        <ele>34.3</ele>
        <time>2025-01-19T13:26:54Z</time>
      </trkpt>
      <trkpt lat="43.42008" lon="6.66444">
        <ele>34.2</ele>
        <time>2025-01-19T13:26:55Z</time>
      </trkpt>
      <trkpt lat="43.42009" lon="6.66443">
        <ele>34</ele>
        <time>2025-01-19T13:26:56Z</time>
      </trkpt>
      <trkpt lat="43.4201" lon="6.66442">
        <ele>33.8</ele>
        <time>2025-01-19T13:26:57Z</time>
      </trkpt>
      <trkpt lat="43.42011" lon="6.66441">
        <ele>33.7</ele>
        <time>2025-01-19T13:26:58Z</time>
      </trkpt>
      <trkpt lat="43.42011" lon="6.6644">
        <ele>33.6</ele>
        <time>2025-01-19T13:26:59Z</time>
      </trkpt>
      <trkpt lat="43.42012" lon="6.66439">
        <ele>33.4</ele>
        <time>2025-01-19T13:27:00Z</time>
      </trkpt>
      <trkpt lat="43.42013" lon="6.66438">
        <ele>33.2</ele>
        <time>2025-01-19T13:27:01Z</time>
      </trkpt>
      <trkpt lat="43.42013" lon="6.66437">
        <ele>33.1</ele>
        <time>2025-01-19T13:27:02Z</time>
      </trkpt>
      <trkpt lat="43.42014" lon="6.66437">
        <ele>33</ele>
        <time>2025-01-19T13:27:03Z</time>
      </trkpt>
      <trkpt lat="43.42014" lon="6.66436">
        <ele>32.7</ele>
        <time>2025-01-19T13:27:04Z</time>
      </trkpt>
      <trkpt lat="43.42015" lon="6.66435">
        <ele>32.5</ele>
        <time>2025-01-19T13:27:05Z</time>
      </trkpt>
      <trkpt lat="43.42016" lon="6.66434">
        <ele>32.2</ele>
        <time>2025-01-19T13:27:06Z</time>
      </trkpt>
      <trkpt lat="43.42017" lon="6.66434">
        <ele>32</ele>
        <time>2025-01-19T13:27:07Z</time>
      </trkpt>
      <trkpt lat="43.42018" lon="6.66433">
        <ele>31.7</ele>
        <time>2025-01-19T13:27:08Z</time>
      </trkpt>
      <trkpt lat="43.42019" lon="6.66433">
        <ele>31.5</ele>
        <time>2025-01-19T13:27:09Z</time>
      </trkpt>
      <trkpt lat="43.42019" lon="6.66432">
        <ele>31.2</ele>
        <time>2025-01-19T13:27:10Z</time>
      </trkpt>
      <trkpt lat="43.4202" lon="6.66432">
        <ele>31</ele>
        <time>2025-01-19T13:27:11Z</time>
      </trkpt>
      <trkpt lat="43.42021" lon="6.66432">
        <ele>30.8</ele>
        <time>2025-01-19T13:27:12Z</time>
      </trkpt>
      <trkpt lat="43.42021" lon="6.66431">
        <ele>30.7</ele>
        <time>2025-01-19T13:27:13Z</time>
      </trkpt>
      <trkpt lat="43.4202" lon="6.6643">
        <ele>30.5</ele>
        <time>2025-01-19T13:27:14Z</time>
      </trkpt>
      <trkpt lat="43.4202" lon="6.66429">
        <ele>30.4</ele>
        <time>2025-01-19T13:27:15Z</time>
      </trkpt>
      <trkpt lat="43.4202" lon="6.66428">
        <ele>30.2</ele>
        <time>2025-01-19T13:27:16Z</time>
      </trkpt>
      <trkpt lat="43.4202" lon="6.66428">
        <ele>30.2</ele>
        <time>2025-01-19T13:27:17Z</time>
      </trkpt>
      <trkpt lat="43.4202" lon="6.66428">
        <ele>30.1</ele>
        <time>2025-01-19T13:27:18Z</time>
      </trkpt>
      <trkpt lat="43.42019" lon="6.66428">
        <ele>30</ele>
        <time>2025-01-19T13:27:19Z</time>
      </trkpt>
      <trkpt lat="43.42019" lon="6.66428">
        <ele>29.9</ele>
        <time>2025-01-19T13:27:20Z</time>
      </trkpt>
      <trkpt lat="43.42019" lon="6.66427">
        <ele>29.9</ele>
        <time>2025-01-19T13:27:21Z</time>
      </trkpt>
      <trkpt lat="43.42019" lon="6.66427">
        <ele>29.9</ele>
        <time>2025-01-19T13:27:22Z</time>
      </trkpt>
      <trkpt lat="43.42019" lon="6.66427">
        <ele>29.8</ele>
        <time>2025-01-19T13:27:23Z</time>
      </trkpt>
      <trkpt lat="43.42018" lon="6.66426">
        <ele>29.7</ele>
        <time>2025-01-19T13:27:24Z</time>
      </trkpt>
      <trkpt lat="43.42018" lon="6.66426">
        <ele>29.7</ele>
        <time>2025-01-19T13:27:25Z</time>
      </trkpt>
      <trkpt lat="43.42018" lon="6.66426">
        <ele>29.8</ele>
        <time>2025-01-19T13:27:26Z</time>
      </trkpt>
      <trkpt lat="43.42018" lon="6.66425">
        <ele>29.7</ele>
        <time>2025-01-19T13:27:27Z</time>
      </trkpt>
      <trkpt lat="43.42018" lon="6.66425">
        <ele>29.7</ele>
        <time>2025-01-19T13:27:28Z</time>
      </trkpt>
      <trkpt lat="43.42019" lon="6.66425">
        <ele>29.6</ele>
        <time>2025-01-19T13:27:29Z</time>
      </trkpt>
      <trkpt lat="43.42019" lon="6.66424">
        <ele>29.6</ele>
        <time>2025-01-19T13:27:30Z</time>
      </trkpt>
      <trkpt lat="43.42019" lon="6.66424">
        <ele>29.6</ele>
        <time>2025-01-19T13:27:31Z</time>
      </trkpt>
      <trkpt lat="43.42019" lon="6.66424">
        <ele>29.6</ele>
        <time>2025-01-19T13:27:32Z</time>
      </trkpt>
      <trkpt lat="43.42019" lon="6.66424">
        <ele>29.6</ele>
        <time>2025-01-19T13:27:33Z</time>
      </trkpt>
      <trkpt lat="43.42019" lon="6.66423">
        <ele>29.6</ele>
        <time>2025-01-19T13:27:34Z</time>
      </trkpt>
      <trkpt lat="43.42019" lon="6.66423">
        <ele>29.6</ele>
        <time>2025-01-19T13:27:35Z</time>
      </trkpt>
      <trkpt lat="43.4202" lon="6.66423">
        <ele>29.5</ele>
        <time>2025-01-19T13:27:36Z</time>
      </trkpt>
      <trkpt lat="43.42021" lon="6.66422">
        <ele>29.5</ele>
        <time>2025-01-19T13:27:37Z</time>
      </trkpt>
      <trkpt lat="43.42021" lon="6.66421">
        <ele>29.4</ele>
        <time>2025-01-19T13:27:38Z</time>
      </trkpt>
      <trkpt lat="43.42022" lon="6.66421">
        <ele>29.4</ele>
        <time>2025-01-19T13:27:39Z</time>
      </trkpt>
      <trkpt lat="43.42023" lon="6.6642">
        <ele>29.3</ele>
        <time>2025-01-19T13:27:40Z</time>
      </trkpt>
      <trkpt lat="43.42024" lon="6.6642">
        <ele>29.3</ele>
        <time>2025-01-19T13:27:41Z</time>
      </trkpt>
      <trkpt lat="43.42025" lon="6.66419">
        <ele>29.2</ele>
        <time>2025-01-19T13:27:42Z</time>
      </trkpt>
      <trkpt lat="43.42026" lon="6.66419">
        <ele>29.1</ele>
        <time>2025-01-19T13:27:43Z</time>
      </trkpt>
      <trkpt lat="43.42027" lon="6.66418">
        <ele>28.9</ele>
        <time>2025-01-19T13:27:44Z</time>
      </trkpt>
      <trkpt lat="43.42028" lon="6.66417">
        <ele>28.7</ele>
        <time>2025-01-19T13:27:45Z</time>
      </trkpt>
      <trkpt lat="43.42028" lon="6.66416">
        <ele>28.6</ele>
        <time>2025-01-19T13:27:46Z</time>
      </trkpt>
      <trkpt lat="43.4203" lon="6.66416">
        <ele>28.5</ele>
        <time>2025-01-19T13:27:47Z</time>
      </trkpt>
      <trkpt lat="43.4203" lon="6.66415">
        <ele>28.5</ele>
        <time>2025-01-19T13:27:48Z</time>
      </trkpt>
      <trkpt lat="43.42031" lon="6.66414">
        <ele>28.5</ele>
        <time>2025-01-19T13:27:49Z</time>
      </trkpt>
      <trkpt lat="43.42033" lon="6.66413">
        <ele>28.5</ele>
        <time>2025-01-19T13:27:50Z</time>
      </trkpt>
      <trkpt lat="43.42033" lon="6.66413">
        <ele>28.5</ele>
        <time>2025-01-19T13:27:51Z</time>
      </trkpt>
      <trkpt lat="43.42034" lon="6.66412">
        <ele>28.5</ele>
        <time>2025-01-19T13:27:52Z</time>
      </trkpt>
      <trkpt lat="43.42035" lon="6.66412">
        <ele>28.5</ele>
        <time>2025-01-19T13:27:53Z</time>
      </trkpt>
      <trkpt lat="43.42036" lon="6.66411">
        <ele>28.5</ele>
        <time>2025-01-19T13:27:54Z</time>
      </trkpt>
      <trkpt lat="43.42037" lon="6.66411">
        <ele>28.5</ele>
        <time>2025-01-19T13:27:55Z</time>
      </trkpt>
      <trkpt lat="43.42038" lon="6.66411">
        <ele>28.7</ele>
        <time>2025-01-19T13:27:56Z</time>
      </trkpt>
      <trkpt lat="43.42039" lon="6.66411">
        <ele>28.7</ele>
        <time>2025-01-19T13:27:57Z</time>
      </trkpt>
      <trkpt lat="43.4204" lon="6.66411">
        <ele>28.7</ele>
        <time>2025-01-19T13:27:58Z</time>
      </trkpt>
      <trkpt lat="43.42042" lon="6.6641">
        <ele>28.6</ele>
        <time>2025-01-19T13:27:59Z</time>
      </trkpt>
      <trkpt lat="43.42042" lon="6.66411">
        <ele>28.5</ele>
        <time>2025-01-19T13:28:00Z</time>
      </trkpt>
      <trkpt lat="43.42043" lon="6.6641">
        <ele>28.5</ele>
        <time>2025-01-19T13:28:01Z</time>
      </trkpt>
      <trkpt lat="43.42044" lon="6.6641">
        <ele>28.4</ele>
        <time>2025-01-19T13:28:02Z</time>
      </trkpt>
      <trkpt lat="43.42045" lon="6.66411">
        <ele>28.4</ele>
        <time>2025-01-19T13:28:03Z</time>
      </trkpt>
      <trkpt lat="43.42046" lon="6.66411">
        <ele>28.3</ele>
        <time>2025-01-19T13:28:04Z</time>
      </trkpt>
      <trkpt lat="43.42046" lon="6.66411">
        <ele>28.3</ele>
        <time>2025-01-19T13:28:05Z</time>
      </trkpt>
      <trkpt lat="43.42047" lon="6.66412">
        <ele>28.2</ele>
        <time>2025-01-19T13:28:06Z</time>
      </trkpt>
      <trkpt lat="43.42048" lon="6.66412">
        <ele>28.1</ele>
        <time>2025-01-19T13:28:07Z</time>
      </trkpt>
      <trkpt lat="43.42049" lon="6.66412">
        <ele>28</ele>
        <time>2025-01-19T13:28:08Z</time>
      </trkpt>
      <trkpt lat="43.42049" lon="6.66412">
        <ele>28.1</ele>
        <time>2025-01-19T13:28:09Z</time>
      </trkpt>
      <trkpt lat="43.4205" lon="6.66412">
        <ele>28.1</ele>
        <time>2025-01-19T13:28:10Z</time>
      </trkpt>
      <trkpt lat="43.42051" lon="6.66413">
        <ele>28</ele>
        <time>2025-01-19T13:28:11Z</time>
      </trkpt>
      <trkpt lat="43.42052" lon="6.66413">
        <ele>28</ele>
        <time>2025-01-19T13:28:12Z</time>
      </trkpt>
      <trkpt lat="43.42053" lon="6.66413">
        <ele>28</ele>
        <time>2025-01-19T13:28:13Z</time>
      </trkpt>
      <trkpt lat="43.42054" lon="6.66414">
        <ele>28</ele>
        <time>2025-01-19T13:28:14Z</time>
      </trkpt>
      <trkpt lat="43.42055" lon="6.66414">
        <ele>28</ele>
        <time>2025-01-19T13:28:15Z</time>
      </trkpt>
      <trkpt lat="43.42055" lon="6.66415">
        <ele>28</ele>
        <time>2025-01-19T13:28:16Z</time>
      </trkpt>
      <trkpt lat="43.42056" lon="6.66415">
        <ele>28</ele>
        <time>2025-01-19T13:28:17Z</time>
      </trkpt>
      <trkpt lat="43.42057" lon="6.66415">
        <ele>27.9</ele>
        <time>2025-01-19T13:28:18Z</time>
      </trkpt>
      <trkpt lat="43.42058" lon="6.66416">
        <ele>27.9</ele>
        <time>2025-01-19T13:28:19Z</time>
      </trkpt>
      <trkpt lat="43.42059" lon="6.66416">
        <ele>27.8</ele>
        <time>2025-01-19T13:28:20Z</time>
      </trkpt>
      <trkpt lat="43.4206" lon="6.66417">
        <ele>27.8</ele>
        <time>2025-01-19T13:28:21Z</time>
      </trkpt>
      <trkpt lat="43.42061" lon="6.66417">
        <ele>27.7</ele>
        <time>2025-01-19T13:28:22Z</time>
      </trkpt>
      <trkpt lat="43.42063" lon="6.66417">
        <ele>27.7</ele>
        <time>2025-01-19T13:28:23Z</time>
      </trkpt>
      <trkpt lat="43.42064" lon="6.66418">
        <ele>27.5</ele>
        <time>2025-01-19T13:28:24Z</time>
      </trkpt>
      <trkpt lat="43.42065" lon="6.66418">
        <ele>27.5</ele>
        <time>2025-01-19T13:28:25Z</time>
      </trkpt>
      <trkpt lat="43.42066" lon="6.66419">
        <ele>27.5</ele>
        <time>2025-01-19T13:28:26Z</time>
      </trkpt>
      <trkpt lat="43.42067" lon="6.66419">
        <ele>27.5</ele>
        <time>2025-01-19T13:28:27Z</time>
      </trkpt>
      <trkpt lat="43.42068" lon="6.66419">
        <ele>27.4</ele>
        <time>2025-01-19T13:28:28Z</time>
      </trkpt>
      <trkpt lat="43.42069" lon="6.66419">
        <ele>27.4</ele>
        <time>2025-01-19T13:28:29Z</time>
      </trkpt>
      <trkpt lat="43.4207" lon="6.66419">
        <ele>27.5</ele>
        <time>2025-01-19T13:28:30Z</time>
      </trkpt>
      <trkpt lat="43.42071" lon="6.6642">
        <ele>27.5</ele>
        <time>2025-01-19T13:28:31Z</time>
      </trkpt>
      <trkpt lat="43.42072" lon="6.6642">
        <ele>27.5</ele>
        <time>2025-01-19T13:28:32Z</time>
      </trkpt>
      <trkpt lat="43.42073" lon="6.6642">
        <ele>27.5</ele>
        <time>2025-01-19T13:28:33Z</time>
      </trkpt>
      <trkpt lat="43.42074" lon="6.6642">
        <ele>27.5</ele>
        <time>2025-01-19T13:28:34Z</time>
      </trkpt>
      <trkpt lat="43.42076" lon="6.66419">
        <ele>27.5</ele>
        <time>2025-01-19T13:28:35Z</time>
      </trkpt>
      <trkpt lat="43.42076" lon="6.66419">
        <ele>27.4</ele>
        <time>2025-01-19T13:28:36Z</time>
      </trkpt>
      <trkpt lat="43.42076" lon="6.6642">
        <ele>27.4</ele>
        <time>2025-01-19T13:28:37Z</time>
      </trkpt>
      <trkpt lat="43.42077" lon="6.6642">
        <ele>27.4</ele>
        <time>2025-01-19T13:28:38Z</time>
      </trkpt>
      <trkpt lat="43.42078" lon="6.66419">
        <ele>27.4</ele>
        <time>2025-01-19T13:28:39Z</time>
      </trkpt>
      <trkpt lat="43.42079" lon="6.66419">
        <ele>27.3</ele>
        <time>2025-01-19T13:28:40Z</time>
      </trkpt>
      <trkpt lat="43.4208" lon="6.66419">
        <ele>27.3</ele>
        <time>2025-01-19T13:28:41Z</time>
      </trkpt>
      <trkpt lat="43.42081" lon="6.66419">
        <ele>27.4</ele>
        <time>2025-01-19T13:28:42Z</time>
      </trkpt>
      <trkpt lat="43.42082" lon="6.66419">
        <ele>27.2</ele>
        <time>2025-01-19T13:28:43Z</time>
      </trkpt>
      <trkpt lat="43.42084" lon="6.66418">
        <ele>27.1</ele>
        <time>2025-01-19T13:28:44Z</time>
      </trkpt>
      <trkpt lat="43.42085" lon="6.66418">
        <ele>27.1</ele>
        <time>2025-01-19T13:28:45Z</time>
      </trkpt>
      <trkpt lat="43.42086" lon="6.66418">
        <ele>27</ele>
        <time>2025-01-19T13:28:46Z</time>
      </trkpt>
      <trkpt lat="43.42088" lon="6.66418">
        <ele>27</ele>
        <time>2025-01-19T13:28:47Z</time>
      </trkpt>
      <trkpt lat="43.42089" lon="6.66418">
        <ele>26.9</ele>
        <time>2025-01-19T13:28:48Z</time>
      </trkpt>
      <trkpt lat="43.4209" lon="6.66418">
        <ele>26.9</ele>
        <time>2025-01-19T13:28:49Z</time>
      </trkpt>
      <trkpt lat="43.42092" lon="6.66417">
        <ele>26.8</ele>
        <time>2025-01-19T13:28:50Z</time>
      </trkpt>
      <trkpt lat="43.42093" lon="6.66417">
        <ele>26.7</ele>
        <time>2025-01-19T13:28:51Z</time>
      </trkpt>
      <trkpt lat="43.42094" lon="6.66417">
        <ele>26.7</ele>
        <time>2025-01-19T13:28:52Z</time>
      </trkpt>
      <trkpt lat="43.42095" lon="6.66417">
        <ele>26.7</ele>
        <time>2025-01-19T13:28:53Z</time>
      </trkpt>
      <trkpt lat="43.42095" lon="6.66417">
        <ele>26.7</ele>
        <time>2025-01-19T13:28:54Z</time>
      </trkpt>
      <trkpt lat="43.42096" lon="6.66417">
        <ele>26.5</ele>
        <time>2025-01-19T13:28:55Z</time>
      </trkpt>
      <trkpt lat="43.42097" lon="6.66417">
        <ele>26.4</ele>
        <time>2025-01-19T13:28:56Z</time>
      </trkpt>
      <trkpt lat="43.42098" lon="6.66417">
        <ele>26.3</ele>
        <time>2025-01-19T13:28:57Z</time>
      </trkpt>
      <trkpt lat="43.421" lon="6.66417">
        <ele>26.2</ele>
        <time>2025-01-19T13:28:58Z</time>
      </trkpt>
      <trkpt lat="43.42101" lon="6.66417">
        <ele>26.1</ele>
        <time>2025-01-19T13:28:59Z</time>
      </trkpt>
      <trkpt lat="43.42102" lon="6.66416">
        <ele>26.1</ele>
        <time>2025-01-19T13:29:00Z</time>
      </trkpt>
      <trkpt lat="43.42104" lon="6.66415">
        <ele>26</ele>
        <time>2025-01-19T13:29:01Z</time>
      </trkpt>
      <trkpt lat="43.42105" lon="6.66415">
        <ele>25.9</ele>
        <time>2025-01-19T13:29:02Z</time>
      </trkpt>
      <trkpt lat="43.42106" lon="6.66415">
        <ele>25.8</ele>
        <time>2025-01-19T13:29:03Z</time>
      </trkpt>
      <trkpt lat="43.42107" lon="6.66414">
        <ele>25.8</ele>
        <time>2025-01-19T13:29:04Z</time>
      </trkpt>
      <trkpt lat="43.42108" lon="6.66414">
        <ele>25.7</ele>
        <time>2025-01-19T13:29:05Z</time>
      </trkpt>
      <trkpt lat="43.42109" lon="6.66414">
        <ele>25.7</ele>
        <time>2025-01-19T13:29:06Z</time>
      </trkpt>
      <trkpt lat="43.4211" lon="6.66414">
        <ele>25.6</ele>
        <time>2025-01-19T13:29:07Z</time>
      </trkpt>
      <trkpt lat="43.42111" lon="6.66414">
        <ele>25.6</ele>
        <time>2025-01-19T13:29:08Z</time>
      </trkpt>
      <trkpt lat="43.42112" lon="6.66414">
        <ele>25.5</ele>
        <time>2025-01-19T13:29:09Z</time>
      </trkpt>
      <trkpt lat="43.42113" lon="6.66414">
        <ele>25.5</ele>
        <time>2025-01-19T13:29:10Z</time>
      </trkpt>
      <trkpt lat="43.42114" lon="6.66414">
        <ele>25.6</ele>
        <time>2025-01-19T13:29:11Z</time>
      </trkpt>
      <trkpt lat="43.42114" lon="6.66414">
        <ele>25.5</ele>
        <time>2025-01-19T13:29:12Z</time>
      </trkpt>
      <trkpt lat="43.42115" lon="6.66414">
        <ele>25.5</ele>
        <time>2025-01-19T13:29:13Z</time>
      </trkpt>
      <trkpt lat="43.42116" lon="6.66414">
        <ele>25.4</ele>
        <time>2025-01-19T13:29:14Z</time>
      </trkpt>
      <trkpt lat="43.42117" lon="6.66413">
        <ele>25.4</ele>
        <time>2025-01-19T13:29:15Z</time>
      </trkpt>
      <trkpt lat="43.42118" lon="6.66413">
        <ele>25.4</ele>
        <time>2025-01-19T13:29:16Z</time>
      </trkpt>
      <trkpt lat="43.42119" lon="6.66413">
        <ele>25.3</ele>
        <time>2025-01-19T13:29:17Z</time>
      </trkpt>
      <trkpt lat="43.42119" lon="6.66413">
        <ele>25.2</ele>
        <time>2025-01-19T13:29:18Z</time>
      </trkpt>
      <trkpt lat="43.4212" lon="6.66414">
        <ele>25.2</ele>
        <time>2025-01-19T13:29:19Z</time>
      </trkpt>
      <trkpt lat="43.4212" lon="6.66414">
        <ele>25.1</ele>
        <time>2025-01-19T13:29:20Z</time>
      </trkpt>
      <trkpt lat="43.42121" lon="6.66414">
        <ele>25</ele>
        <time>2025-01-19T13:29:21Z</time>
      </trkpt>
      <trkpt lat="43.42121" lon="6.66414">
        <ele>24.9</ele>
        <time>2025-01-19T13:29:22Z</time>
      </trkpt>
      <trkpt lat="43.42121" lon="6.66414">
        <ele>24.9</ele>
        <time>2025-01-19T13:29:23Z</time>
      </trkpt>
      <trkpt lat="43.42123" lon="6.66413">
        <ele>24.7</ele>
        <time>2025-01-19T13:29:24Z</time>
      </trkpt>
      <trkpt lat="43.42123" lon="6.66413">
        <ele>24.8</ele>
        <time>2025-01-19T13:29:25Z</time>
      </trkpt>
      <trkpt lat="43.42124" lon="6.66414">
        <ele>24.7</ele>
        <time>2025-01-19T13:29:26Z</time>
      </trkpt>
      <trkpt lat="43.42126" lon="6.66412">
        <ele>24.7</ele>
        <time>2025-01-19T13:29:27Z</time>
      </trkpt>
      <trkpt lat="43.42127" lon="6.66412">
        <ele>24.7</ele>
        <time>2025-01-19T13:29:28Z</time>
      </trkpt>
      <trkpt lat="43.42129" lon="6.66411">
        <ele>24.7</ele>
        <time>2025-01-19T13:29:29Z</time>
      </trkpt>
      <trkpt lat="43.4213" lon="6.66411">
        <ele>24.6</ele>
        <time>2025-01-19T13:29:30Z</time>
      </trkpt>
      <trkpt lat="43.42131" lon="6.66411">
        <ele>24.6</ele>
        <time>2025-01-19T13:29:31Z</time>
      </trkpt>
      <trkpt lat="43.42132" lon="6.6641">
        <ele>24.6</ele>
        <time>2025-01-19T13:29:32Z</time>
      </trkpt>
      <trkpt lat="43.42135" lon="6.6641">
        <ele>24.6</ele>
        <time>2025-01-19T13:29:33Z</time>
      </trkpt>
      <trkpt lat="43.42136" lon="6.6641">
        <ele>24.7</ele>
        <time>2025-01-19T13:29:34Z</time>
      </trkpt>
      <trkpt lat="43.42136" lon="6.66409">
        <ele>24.7</ele>
        <time>2025-01-19T13:29:35Z</time>
      </trkpt>
      <trkpt lat="43.42138" lon="6.66409">
        <ele>24.6</ele>
        <time>2025-01-19T13:29:36Z</time>
      </trkpt>
      <trkpt lat="43.42139" lon="6.66408">
        <ele>24.5</ele>
        <time>2025-01-19T13:29:37Z</time>
      </trkpt>
      <trkpt lat="43.42141" lon="6.66408">
        <ele>24.5</ele>
        <time>2025-01-19T13:29:38Z</time>
      </trkpt>
      <trkpt lat="43.42144" lon="6.66408">
        <ele>24.4</ele>
        <time>2025-01-19T13:29:39Z</time>
      </trkpt>
      <trkpt lat="43.42146" lon="6.66407">
        <ele>24.4</ele>
        <time>2025-01-19T13:29:40Z</time>
      </trkpt>
      <trkpt lat="43.42147" lon="6.66407">
        <ele>24.3</ele>
        <time>2025-01-19T13:29:41Z</time>
      </trkpt>
      <trkpt lat="43.42149" lon="6.66407">
        <ele>24.2</ele>
        <time>2025-01-19T13:29:42Z</time>
      </trkpt>
      <trkpt lat="43.42149" lon="6.66408">
        <ele>24.2</ele>
        <time>2025-01-19T13:29:43Z</time>
      </trkpt>
      <trkpt lat="43.42151" lon="6.66408">
        <ele>24.1</ele>
        <time>2025-01-19T13:29:44Z</time>
      </trkpt>
      <trkpt lat="43.42152" lon="6.66408">
        <ele>24</ele>
        <time>2025-01-19T13:29:45Z</time>
      </trkpt>
      <trkpt lat="43.42154" lon="6.66408">
        <ele>23.9</ele>
        <time>2025-01-19T13:29:46Z</time>
      </trkpt>
      <trkpt lat="43.42155" lon="6.66408">
        <ele>23.8</ele>
        <time>2025-01-19T13:29:47Z</time>
      </trkpt>
      <trkpt lat="43.42156" lon="6.66409">
        <ele>23.7</ele>
        <time>2025-01-19T13:29:48Z</time>
      </trkpt>
      <trkpt lat="43.42157" lon="6.66409">
        <ele>23.6</ele>
        <time>2025-01-19T13:29:49Z</time>
      </trkpt>
      <trkpt lat="43.42158" lon="6.6641">
        <ele>23.6</ele>
        <time>2025-01-19T13:29:50Z</time>
      </trkpt>
      <trkpt lat="43.42159" lon="6.6641">
        <ele>23.6</ele>
        <time>2025-01-19T13:29:51Z</time>
      </trkpt>
      <trkpt lat="43.4216" lon="6.6641">
        <ele>23.6</ele>
        <time>2025-01-19T13:29:52Z</time>
      </trkpt>
      <trkpt lat="43.42161" lon="6.66411">
        <ele>23.6</ele>
        <time>2025-01-19T13:29:53Z</time>
      </trkpt>
      <trkpt lat="43.42162" lon="6.66411">
        <ele>23.6</ele>
        <time>2025-01-19T13:29:54Z</time>
      </trkpt>
      <trkpt lat="43.42163" lon="6.66411">
        <ele>23.6</ele>
        <time>2025-01-19T13:29:55Z</time>
      </trkpt>
      <trkpt lat="43.42163" lon="6.66412">
        <ele>23.6</ele>
        <time>2025-01-19T13:29:56Z</time>
      </trkpt>
      <trkpt lat="43.42164" lon="6.66413">
        <ele>23.7</ele>
        <time>2025-01-19T13:29:57Z</time>
      </trkpt>
      <trkpt lat="43.42166" lon="6.66413">
        <ele>23.7</ele>
        <time>2025-01-19T13:29:58Z</time>
      </trkpt>
      <trkpt lat="43.42167" lon="6.66413">
        <ele>23.7</ele>
        <time>2025-01-19T13:29:59Z</time>
      </trkpt>
      <trkpt lat="43.42169" lon="6.66414">
        <ele>23.7</ele>
        <time>2025-01-19T13:30:00Z</time>
      </trkpt>
      <trkpt lat="43.4217" lon="6.66414">
        <ele>23.7</ele>
        <time>2025-01-19T13:30:01Z</time>
      </trkpt>
      <trkpt lat="43.4217" lon="6.66416">
        <ele>23.7</ele>
        <time>2025-01-19T13:30:02Z</time>
      </trkpt>
      <trkpt lat="43.42171" lon="6.66417">
        <ele>23.7</ele>
        <time>2025-01-19T13:30:03Z</time>
      </trkpt>
      <trkpt lat="43.42171" lon="6.66417">
        <ele>23.7</ele>
        <time>2025-01-19T13:30:04Z</time>
      </trkpt>
      <trkpt lat="43.42171" lon="6.66418">
        <ele>23.7</ele>
        <time>2025-01-19T13:30:05Z</time>
      </trkpt>
      <trkpt lat="43.42172" lon="6.66419">
        <ele>23.7</ele>
        <time>2025-01-19T13:30:06Z</time>
      </trkpt>
      <trkpt lat="43.42173" lon="6.6642">
        <ele>23.6</ele>
        <time>2025-01-19T13:30:07Z</time>
      </trkpt>
      <trkpt lat="43.42174" lon="6.6642">
        <ele>23.7</ele>
        <time>2025-01-19T13:30:08Z</time>
      </trkpt>
      <trkpt lat="43.42176" lon="6.6642">
        <ele>23.6</ele>
        <time>2025-01-19T13:30:09Z</time>
      </trkpt>
      <trkpt lat="43.42177" lon="6.66421">
        <ele>23.6</ele>
        <time>2025-01-19T13:30:10Z</time>
      </trkpt>
      <trkpt lat="43.42178" lon="6.66422">
        <ele>23.6</ele>
        <time>2025-01-19T13:30:11Z</time>
      </trkpt>
      <trkpt lat="43.4218" lon="6.66423">
        <ele>23.6</ele>
        <time>2025-01-19T13:30:12Z</time>
      </trkpt>
      <trkpt lat="43.4218" lon="6.66424">
        <ele>23.7</ele>
        <time>2025-01-19T13:30:13Z</time>
      </trkpt>
      <trkpt lat="43.42181" lon="6.66424">
        <ele>23.7</ele>
        <time>2025-01-19T13:30:14Z</time>
      </trkpt>
      <trkpt lat="43.42182" lon="6.66424">
        <ele>23.8</ele>
        <time>2025-01-19T13:30:15Z</time>
      </trkpt>
      <trkpt lat="43.42183" lon="6.66425">
        <ele>23.8</ele>
        <time>2025-01-19T13:30:16Z</time>
      </trkpt>
      <trkpt lat="43.42184" lon="6.66425">
        <ele>23.8</ele>
        <time>2025-01-19T13:30:17Z</time>
      </trkpt>
      <trkpt lat="43.42186" lon="6.66426">
        <ele>23.8</ele>
        <time>2025-01-19T13:30:18Z</time>
      </trkpt>
      <trkpt lat="43.42187" lon="6.66426">
        <ele>23.9</ele>
        <time>2025-01-19T13:30:19Z</time>
      </trkpt>
      <trkpt lat="43.42188" lon="6.66426">
        <ele>23.9</ele>
        <time>2025-01-19T13:30:20Z</time>
      </trkpt>
      <trkpt lat="43.4219" lon="6.66427">
        <ele>23.9</ele>
        <time>2025-01-19T13:30:21Z</time>
      </trkpt>
      <trkpt lat="43.42192" lon="6.66426">
        <ele>23.9</ele>
        <time>2025-01-19T13:30:22Z</time>
      </trkpt>
      <trkpt lat="43.42194" lon="6.66427">
        <ele>23.9</ele>
        <time>2025-01-19T13:30:23Z</time>
      </trkpt>
      <trkpt lat="43.42194" lon="6.66427">
        <ele>23.9</ele>
        <time>2025-01-19T13:30:24Z</time>
      </trkpt>
      <trkpt lat="43.42196" lon="6.66427">
        <ele>23.9</ele>
        <time>2025-01-19T13:30:25Z</time>
      </trkpt>
      <trkpt lat="43.42196" lon="6.66427">
        <ele>23.8</ele>
        <time>2025-01-19T13:30:26Z</time>
      </trkpt>
      <trkpt lat="43.42198" lon="6.66427">
        <ele>23.8</ele>
        <time>2025-01-19T13:30:27Z</time>
      </trkpt>
      <trkpt lat="43.42199" lon="6.66427">
        <ele>23.8</ele>
        <time>2025-01-19T13:30:28Z</time>
      </trkpt>
      <trkpt lat="43.422" lon="6.66427">
        <ele>23.7</ele>
        <time>2025-01-19T13:30:29Z</time>
      </trkpt>
      <trkpt lat="43.42202" lon="6.66427">
        <ele>23.6</ele>
        <time>2025-01-19T13:30:30Z</time>
      </trkpt>
      <trkpt lat="43.42203" lon="6.66427">
        <ele>23.5</ele>
        <time>2025-01-19T13:30:31Z</time>
      </trkpt>
      <trkpt lat="43.42205" lon="6.66427">
        <ele>23.4</ele>
        <time>2025-01-19T13:30:32Z</time>
      </trkpt>
      <trkpt lat="43.42206" lon="6.66427">
        <ele>23.4</ele>
        <time>2025-01-19T13:30:33Z</time>
      </trkpt>
      <trkpt lat="43.42208" lon="6.66427">
        <ele>23.4</ele>
        <time>2025-01-19T13:30:34Z</time>
      </trkpt>
      <trkpt lat="43.42208" lon="6.66427">
        <ele>23.5</ele>
        <time>2025-01-19T13:30:35Z</time>
      </trkpt>
      <trkpt lat="43.4221" lon="6.66427">
        <ele>23.4</ele>
        <time>2025-01-19T13:30:36Z</time>
      </trkpt>
      <trkpt lat="43.4221" lon="6.66427">
        <ele>23.4</ele>
        <time>2025-01-19T13:30:37Z</time>
      </trkpt>
      <trkpt lat="43.42212" lon="6.66427">
        <ele>23.4</ele>
        <time>2025-01-19T13:30:38Z</time>
      </trkpt>
      <trkpt lat="43.42212" lon="6.66427">
        <ele>23.4</ele>
        <time>2025-01-19T13:30:39Z</time>
      </trkpt>
      <trkpt lat="43.42214" lon="6.66428">
        <ele>23.4</ele>
        <time>2025-01-19T13:30:40Z</time>
      </trkpt>
      <trkpt lat="43.42214" lon="6.66428">
        <ele>23.4</ele>
        <time>2025-01-19T13:30:41Z</time>
      </trkpt>
      <trkpt lat="43.42215" lon="6.66429">
        <ele>23.3</ele>
        <time>2025-01-19T13:30:42Z</time>
      </trkpt>
      <trkpt lat="43.42217" lon="6.66428">
        <ele>23.3</ele>
        <time>2025-01-19T13:30:43Z</time>
      </trkpt>
      <trkpt lat="43.42219" lon="6.66429">
        <ele>23.2</ele>
        <time>2025-01-19T13:30:44Z</time>
      </trkpt>
      <trkpt lat="43.42221" lon="6.66429">
        <ele>23.2</ele>
        <time>2025-01-19T13:30:45Z</time>
      </trkpt>
      <trkpt lat="43.42221" lon="6.6643">
        <ele>23.2</ele>
        <time>2025-01-19T13:30:46Z</time>
      </trkpt>
      <trkpt lat="43.42222" lon="6.66431">
        <ele>23.3</ele>
        <time>2025-01-19T13:30:47Z</time>
      </trkpt>
      <trkpt lat="43.42224" lon="6.66431">
        <ele>23.2</ele>
        <time>2025-01-19T13:30:48Z</time>
      </trkpt>
      <trkpt lat="43.42225" lon="6.66431">
        <ele>23.2</ele>
        <time>2025-01-19T13:30:49Z</time>
      </trkpt>
      <trkpt lat="43.42226" lon="6.66432">
        <ele>23.2</ele>
        <time>2025-01-19T13:30:50Z</time>
      </trkpt>
      <trkpt lat="43.42227" lon="6.66432">
        <ele>23.2</ele>
        <time>2025-01-19T13:30:51Z</time>
      </trkpt>
      <trkpt lat="43.42228" lon="6.66432">
        <ele>23.2</ele>
        <time>2025-01-19T13:30:52Z</time>
      </trkpt>
      <trkpt lat="43.4223" lon="6.66433">
        <ele>23.2</ele>
        <time>2025-01-19T13:30:53Z</time>
      </trkpt>
      <trkpt lat="43.42231" lon="6.66434">
        <ele>23.2</ele>
        <time>2025-01-19T13:30:54Z</time>
      </trkpt>
      <trkpt lat="43.42231" lon="6.66434">
        <ele>23.2</ele>
        <time>2025-01-19T13:30:55Z</time>
      </trkpt>
      <trkpt lat="43.42232" lon="6.66435">
        <ele>23.3</ele>
        <time>2025-01-19T13:30:56Z</time>
      </trkpt>
      <trkpt lat="43.42233" lon="6.66436">
        <ele>23.3</ele>
        <time>2025-01-19T13:30:57Z</time>
      </trkpt>
      <trkpt lat="43.42234" lon="6.66437">
        <ele>23.3</ele>
        <time>2025-01-19T13:30:58Z</time>
      </trkpt>
      <trkpt lat="43.42234" lon="6.66439">
        <ele>23.4</ele>
        <time>2025-01-19T13:30:59Z</time>
      </trkpt>
      <trkpt lat="43.42235" lon="6.6644">
        <ele>23.4</ele>
        <time>2025-01-19T13:31:00Z</time>
      </trkpt>
      <trkpt lat="43.42235" lon="6.66442">
        <ele>23.4</ele>
        <time>2025-01-19T13:31:01Z</time>
      </trkpt>
      <trkpt lat="43.42236" lon="6.66443">
        <ele>23.5</ele>
        <time>2025-01-19T13:31:02Z</time>
      </trkpt>
      <trkpt lat="43.42237" lon="6.66444">
        <ele>23.5</ele>
        <time>2025-01-19T13:31:03Z</time>
      </trkpt>
      <trkpt lat="43.42238" lon="6.66444">
        <ele>23.5</ele>
        <time>2025-01-19T13:31:04Z</time>
      </trkpt>
      <trkpt lat="43.42239" lon="6.66446">
        <ele>23.6</ele>
        <time>2025-01-19T13:31:05Z</time>
      </trkpt>
      <trkpt lat="43.42241" lon="6.66446">
        <ele>23.6</ele>
        <time>2025-01-19T13:31:06Z</time>
      </trkpt>
      <trkpt lat="43.42242" lon="6.66447">
        <ele>23.6</ele>
        <time>2025-01-19T13:31:07Z</time>
      </trkpt>
      <trkpt lat="43.42243" lon="6.66448">
        <ele>23.7</ele>
        <time>2025-01-19T13:31:08Z</time>
      </trkpt>
      <trkpt lat="43.42244" lon="6.66449">
        <ele>23.8</ele>
        <time>2025-01-19T13:31:09Z</time>
      </trkpt>
      <trkpt lat="43.42244" lon="6.6645">
        <ele>23.8</ele>
        <time>2025-01-19T13:31:10Z</time>
      </trkpt>
      <trkpt lat="43.42245" lon="6.66451">
        <ele>23.9</ele>
        <time>2025-01-19T13:31:11Z</time>
      </trkpt>
      <trkpt lat="43.42246" lon="6.66452">
        <ele>24.1</ele>
        <time>2025-01-19T13:31:12Z</time>
      </trkpt>
      <trkpt lat="43.42246" lon="6.66453">
        <ele>24.2</ele>
        <time>2025-01-19T13:31:13Z</time>
      </trkpt>
      <trkpt lat="43.42247" lon="6.66454">
        <ele>24.4</ele>
        <time>2025-01-19T13:31:14Z</time>
      </trkpt>
      <trkpt lat="43.42248" lon="6.66455">
        <ele>24.6</ele>
        <time>2025-01-19T13:31:15Z</time>
      </trkpt>
      <trkpt lat="43.42248" lon="6.66456">
        <ele>24.9</ele>
        <time>2025-01-19T13:31:16Z</time>
      </trkpt>
      <trkpt lat="43.42248" lon="6.66457">
        <ele>25.1</ele>
        <time>2025-01-19T13:31:17Z</time>
      </trkpt>
      <trkpt lat="43.42249" lon="6.66458">
        <ele>25.3</ele>
        <time>2025-01-19T13:31:18Z</time>
      </trkpt>
      <trkpt lat="43.42249" lon="6.66459">
        <ele>25.5</ele>
        <time>2025-01-19T13:31:19Z</time>
      </trkpt>
      <trkpt lat="43.4225" lon="6.6646">
        <ele>25.7</ele>
        <time>2025-01-19T13:31:20Z</time>
      </trkpt>
      <trkpt lat="43.4225" lon="6.66461">
        <ele>25.9</ele>
        <time>2025-01-19T13:31:21Z</time>
      </trkpt>
      <trkpt lat="43.4225" lon="6.66463">
        <ele>26</ele>
        <time>2025-01-19T13:31:22Z</time>
      </trkpt>
      <trkpt lat="43.42251" lon="6.66464">
        <ele>26.2</ele>
        <time>2025-01-19T13:31:23Z</time>
      </trkpt>
      <trkpt lat="43.42252" lon="6.66465">
        <ele>26.3</ele>
        <time>2025-01-19T13:31:24Z</time>
      </trkpt>
      <trkpt lat="43.42252" lon="6.66466">
        <ele>26.3</ele>
        <time>2025-01-19T13:31:25Z</time>
      </trkpt>
      <trkpt lat="43.42253" lon="6.66466">
        <ele>26.3</ele>
        <time>2025-01-19T13:31:26Z</time>
      </trkpt>
      <trkpt lat="43.42254" lon="6.66467">
        <ele>26.4</ele>
        <time>2025-01-19T13:31:27Z</time>
      </trkpt>
      <trkpt lat="43.42255" lon="6.66469">
        <ele>26.5</ele>
        <time>2025-01-19T13:31:28Z</time>
      </trkpt>
      <trkpt lat="43.42255" lon="6.6647">
        <ele>26.6</ele>
        <time>2025-01-19T13:31:29Z</time>
      </trkpt>
      <trkpt lat="43.42256" lon="6.66471">
        <ele>26.6</ele>
        <time>2025-01-19T13:31:30Z</time>
      </trkpt>
      <trkpt lat="43.42256" lon="6.66472">
        <ele>26.5</ele>
        <time>2025-01-19T13:31:31Z</time>
      </trkpt>
      <trkpt lat="43.42257" lon="6.66473">
        <ele>26.4</ele>
        <time>2025-01-19T13:31:32Z</time>
      </trkpt>
      <trkpt lat="43.42258" lon="6.66474">
        <ele>26.5</ele>
        <time>2025-01-19T13:31:33Z</time>
      </trkpt>
      <trkpt lat="43.42259" lon="6.66475">
        <ele>26.6</ele>
        <time>2025-01-19T13:31:34Z</time>
      </trkpt>
      <trkpt lat="43.4226" lon="6.66475">
        <ele>26.6</ele>
        <time>2025-01-19T13:31:35Z</time>
      </trkpt>
      <trkpt lat="43.42261" lon="6.66476">
        <ele>26.6</ele>
        <time>2025-01-19T13:31:36Z</time>
      </trkpt>
      <trkpt lat="43.42261" lon="6.66477">
        <ele>26.5</ele>
        <time>2025-01-19T13:31:37Z</time>
      </trkpt>
      <trkpt lat="43.42262" lon="6.66478">
        <ele>26.5</ele>
        <time>2025-01-19T13:31:38Z</time>
      </trkpt>
      <trkpt lat="43.42263" lon="6.66479">
        <ele>26.6</ele>
        <time>2025-01-19T13:31:39Z</time>
      </trkpt>
      <trkpt lat="43.42264" lon="6.66479">
        <ele>26.5</ele>
        <time>2025-01-19T13:31:40Z</time>
      </trkpt>
      <trkpt lat="43.42264" lon="6.6648">
        <ele>26.5</ele>
        <time>2025-01-19T13:31:41Z</time>
      </trkpt>
      <trkpt lat="43.42265" lon="6.66481">
        <ele>26.5</ele>
        <time>2025-01-19T13:31:42Z</time>
      </trkpt>
      <trkpt lat="43.42266" lon="6.66481">
        <ele>26.5</ele>
        <time>2025-01-19T13:31:43Z</time>
      </trkpt>
      <trkpt lat="43.42266" lon="6.66482">
        <ele>26.4</ele>
        <time>2025-01-19T13:31:44Z</time>
      </trkpt>
      <trkpt lat="43.42266" lon="6.66483">
        <ele>26.4</ele>
        <time>2025-01-19T13:31:45Z</time>
      </trkpt>
      <trkpt lat="43.42266" lon="6.66483">
        <ele>26.4</ele>
        <time>2025-01-19T13:31:46Z</time>
      </trkpt>
      <trkpt lat="43.42267" lon="6.66484">
        <ele>26.3</ele>
        <time>2025-01-19T13:31:47Z</time>
      </trkpt>
      <trkpt lat="43.42268" lon="6.66485">
        <ele>26.2</ele>
        <time>2025-01-19T13:31:48Z</time>
      </trkpt>
      <trkpt lat="43.42269" lon="6.66485">
        <ele>26.1</ele>
        <time>2025-01-19T13:31:49Z</time>
      </trkpt>
      <trkpt lat="43.42269" lon="6.66486">
        <ele>26.1</ele>
        <time>2025-01-19T13:31:50Z</time>
      </trkpt>
      <trkpt lat="43.4227" lon="6.66486">
        <ele>26.1</ele>
        <time>2025-01-19T13:31:51Z</time>
      </trkpt>
      <trkpt lat="43.4227" lon="6.66486">
        <ele>26.1</ele>
        <time>2025-01-19T13:31:52Z</time>
      </trkpt>
      <trkpt lat="43.4227" lon="6.66486">
        <ele>26.1</ele>
        <time>2025-01-19T13:31:53Z</time>
      </trkpt>
      <trkpt lat="43.42271" lon="6.66485">
        <ele>26.1</ele>
        <time>2025-01-19T13:31:54Z</time>
      </trkpt>
      <trkpt lat="43.42272" lon="6.66486">
        <ele>26</ele>
        <time>2025-01-19T13:31:55Z</time>
      </trkpt>
      <trkpt lat="43.42273" lon="6.66486">
        <ele>26</ele>
        <time>2025-01-19T13:31:56Z</time>
      </trkpt>
      <trkpt lat="43.42271" lon="6.66487">
        <ele>26</ele>
        <time>2025-01-19T13:31:57Z</time>
      </trkpt>
      <trkpt lat="43.42271" lon="6.66487">
        <ele>26</ele>
        <time>2025-01-19T13:31:58Z</time>
      </trkpt>
      <trkpt lat="43.42272" lon="6.66487">
        <ele>25.9</ele>
        <time>2025-01-19T13:31:59Z</time>
      </trkpt>
      <trkpt lat="43.42272" lon="6.66487">
        <ele>25.8</ele>
        <time>2025-01-19T13:32:00Z</time>
      </trkpt>
      <trkpt lat="43.42272" lon="6.66487">
        <ele>25.7</ele>
        <time>2025-01-19T13:32:01Z</time>
      </trkpt>
      <trkpt lat="43.42272" lon="6.66487">
        <ele>25.6</ele>
        <time>2025-01-19T13:32:02Z</time>
      </trkpt>
      <trkpt lat="43.42272" lon="6.66487">
        <ele>25.6</ele>
        <time>2025-01-19T13:32:03Z</time>
      </trkpt>
      <trkpt lat="43.42272" lon="6.66487">
        <ele>25.5</ele>
        <time>2025-01-19T13:32:04Z</time>
      </trkpt>
      <trkpt lat="43.42272" lon="6.66487">
        <ele>25.5</ele>
        <time>2025-01-19T13:32:05Z</time>
      </trkpt>
      <trkpt lat="43.42272" lon="6.66487">
        <ele>25.5</ele>
        <time>2025-01-19T13:32:06Z</time>
      </trkpt>
      <trkpt lat="43.42272" lon="6.66488">
        <ele>25.5</ele>
        <time>2025-01-19T13:32:07Z</time>
      </trkpt>
      <trkpt lat="43.42273" lon="6.66488">
        <ele>25.6</ele>
        <time>2025-01-19T13:32:08Z</time>
      </trkpt>
      <trkpt lat="43.42273" lon="6.66488">
        <ele>25.6</ele>
        <time>2025-01-19T13:32:09Z</time>
      </trkpt>
      <trkpt lat="43.42274" lon="6.66488">
        <ele>25.7</ele>
        <time>2025-01-19T13:32:10Z</time>
      </trkpt>
      <trkpt lat="43.42274" lon="6.66489">
        <ele>25.7</ele>
        <time>2025-01-19T13:32:11Z</time>
      </trkpt>
      <trkpt lat="43.42275" lon="6.66489">
        <ele>25.6</ele>
        <time>2025-01-19T13:32:12Z</time>
      </trkpt>
      <trkpt lat="43.42275" lon="6.6649">
        <ele>25.6</ele>
        <time>2025-01-19T13:32:13Z</time>
      </trkpt>
      <trkpt lat="43.42275" lon="6.6649">
        <ele>25.6</ele>
        <time>2025-01-19T13:32:14Z</time>
      </trkpt>
      <trkpt lat="43.42276" lon="6.6649">
        <ele>25.6</ele>
        <time>2025-01-19T13:32:15Z</time>
      </trkpt>
      <trkpt lat="43.42276" lon="6.6649">
        <ele>25.6</ele>
        <time>2025-01-19T13:32:16Z</time>
      </trkpt>
      <trkpt lat="43.42276" lon="6.6649">
        <ele>25.5</ele>
        <time>2025-01-19T13:32:17Z</time>
      </trkpt>
      <trkpt lat="43.42276" lon="6.6649">
        <ele>25.5</ele>
        <time>2025-01-19T13:32:18Z</time>
      </trkpt>
      <trkpt lat="43.42276" lon="6.6649">
        <ele>25.5</ele>
        <time>2025-01-19T13:32:19Z</time>
      </trkpt>
      <trkpt lat="43.42276" lon="6.6649">
        <ele>25.5</ele>
        <time>2025-01-19T13:32:20Z</time>
      </trkpt>
      <trkpt lat="43.42276" lon="6.6649">
        <ele>25.5</ele>
        <time>2025-01-19T13:32:21Z</time>
      </trkpt>
      <trkpt lat="43.42276" lon="6.6649">
        <ele>25.4</ele>
        <time>2025-01-19T13:32:22Z</time>
      </trkpt>
      <trkpt lat="43.42277" lon="6.6649">
        <ele>25.3</ele>
        <time>2025-01-19T13:32:23Z</time>
      </trkpt>
      <trkpt lat="43.42277" lon="6.6649">
        <ele>25.3</ele>
        <time>2025-01-19T13:32:24Z</time>
      </trkpt>
      <trkpt lat="43.42277" lon="6.6649">
        <ele>25.3</ele>
        <time>2025-01-19T13:32:25Z</time>
      </trkpt>
      <trkpt lat="43.42277" lon="6.6649">
        <ele>25.3</ele>
        <time>2025-01-19T13:32:26Z</time>
      </trkpt>
      <trkpt lat="43.42278" lon="6.66491">
        <ele>25.3</ele>
        <time>2025-01-19T13:32:27Z</time>
      </trkpt>
      <trkpt lat="43.42278" lon="6.66491">
        <ele>25.3</ele>
        <time>2025-01-19T13:32:28Z</time>
      </trkpt>
      <trkpt lat="43.42279" lon="6.66491">
        <ele>25.3</ele>
        <time>2025-01-19T13:32:29Z</time>
      </trkpt>
      <trkpt lat="43.4228" lon="6.66491">
        <ele>25.3</ele>
        <time>2025-01-19T13:32:30Z</time>
      </trkpt>
      <trkpt lat="43.4228" lon="6.66491">
        <ele>25.3</ele>
        <time>2025-01-19T13:32:31Z</time>
      </trkpt>
      <trkpt lat="43.4228" lon="6.66491">
        <ele>25.3</ele>
        <time>2025-01-19T13:32:32Z</time>
      </trkpt>
      <trkpt lat="43.42281" lon="6.66491">
        <ele>25.3</ele>
        <time>2025-01-19T13:32:33Z</time>
      </trkpt>
      <trkpt lat="43.42281" lon="6.66491">
        <ele>25.3</ele>
        <time>2025-01-19T13:32:34Z</time>
      </trkpt>
      <trkpt lat="43.42281" lon="6.66492">
        <ele>25.2</ele>
        <time>2025-01-19T13:32:35Z</time>
      </trkpt>
      <trkpt lat="43.42282" lon="6.66492">
        <ele>25.2</ele>
        <time>2025-01-19T13:32:36Z</time>
      </trkpt>
      <trkpt lat="43.42282" lon="6.66491">
        <ele>25.2</ele>
        <time>2025-01-19T13:32:37Z</time>
      </trkpt>
      <trkpt lat="43.42282" lon="6.6649">
        <ele>25.2</ele>
        <time>2025-01-19T13:32:38Z</time>
      </trkpt>
      <trkpt lat="43.42283" lon="6.66489">
        <ele>25</ele>
        <time>2025-01-19T13:32:39Z</time>
      </trkpt>
      <trkpt lat="43.42283" lon="6.66488">
        <ele>24.9</ele>
        <time>2025-01-19T13:32:40Z</time>
      </trkpt>
      <trkpt lat="43.42283" lon="6.66487">
        <ele>24.8</ele>
        <time>2025-01-19T13:32:41Z</time>
      </trkpt>
      <trkpt lat="43.42284" lon="6.66486">
        <ele>24.8</ele>
        <time>2025-01-19T13:32:42Z</time>
      </trkpt>
      <trkpt lat="43.42284" lon="6.66485">
        <ele>24.6</ele>
        <time>2025-01-19T13:32:43Z</time>
      </trkpt>
      <trkpt lat="43.42284" lon="6.66485">
        <ele>24.4</ele>
        <time>2025-01-19T13:32:44Z</time>
      </trkpt>
      <trkpt lat="43.42285" lon="6.66484">
        <ele>24.2</ele>
        <time>2025-01-19T13:32:45Z</time>
      </trkpt>
      <trkpt lat="43.42285" lon="6.66483">
        <ele>24.1</ele>
        <time>2025-01-19T13:32:46Z</time>
      </trkpt>
      <trkpt lat="43.42286" lon="6.66483">
        <ele>24</ele>
        <time>2025-01-19T13:32:47Z</time>
      </trkpt>
      <trkpt lat="43.42286" lon="6.66482">
        <ele>23.8</ele>
        <time>2025-01-19T13:32:48Z</time>
      </trkpt>
      <trkpt lat="43.42286" lon="6.66481">
        <ele>23.8</ele>
        <time>2025-01-19T13:32:49Z</time>
      </trkpt>
      <trkpt lat="43.42287" lon="6.66479">
        <ele>23.7</ele>
        <time>2025-01-19T13:32:50Z</time>
      </trkpt>
      <trkpt lat="43.42287" lon="6.66478">
        <ele>23.5</ele>
        <time>2025-01-19T13:32:51Z</time>
      </trkpt>
      <trkpt lat="43.42288" lon="6.66477">
        <ele>23.4</ele>
        <time>2025-01-19T13:32:52Z</time>
      </trkpt>
      <trkpt lat="43.42288" lon="6.66476">
        <ele>23.4</ele>
        <time>2025-01-19T13:32:53Z</time>
      </trkpt>
      <trkpt lat="43.42288" lon="6.66475">
        <ele>23.3</ele>
        <time>2025-01-19T13:32:54Z</time>
      </trkpt>
      <trkpt lat="43.42289" lon="6.66474">
        <ele>23.1</ele>
        <time>2025-01-19T13:32:55Z</time>
      </trkpt>
      <trkpt lat="43.42289" lon="6.66473">
        <ele>22.9</ele>
        <time>2025-01-19T13:32:56Z</time>
      </trkpt>
      <trkpt lat="43.4229" lon="6.66472">
        <ele>22.7</ele>
        <time>2025-01-19T13:32:57Z</time>
      </trkpt>
      <trkpt lat="43.42292" lon="6.6647">
        <ele>22.5</ele>
        <time>2025-01-19T13:32:58Z</time>
      </trkpt>
      <trkpt lat="43.42293" lon="6.66469">
        <ele>22.3</ele>
        <time>2025-01-19T13:32:59Z</time>
      </trkpt>
      <trkpt lat="43.42293" lon="6.66468">
        <ele>22.2</ele>
        <time>2025-01-19T13:33:00Z</time>
      </trkpt>
      <trkpt lat="43.42294" lon="6.66467">
        <ele>22.1</ele>
        <time>2025-01-19T13:33:01Z</time>
      </trkpt>
      <trkpt lat="43.42294" lon="6.66466">
        <ele>22</ele>
        <time>2025-01-19T13:33:02Z</time>
      </trkpt>
      <trkpt lat="43.42295" lon="6.66465">
        <ele>21.9</ele>
        <time>2025-01-19T13:33:03Z</time>
      </trkpt>
      <trkpt lat="43.42296" lon="6.66464">
        <ele>21.8</ele>
        <time>2025-01-19T13:33:04Z</time>
      </trkpt>
      <trkpt lat="43.42297" lon="6.66464">
        <ele>21.9</ele>
        <time>2025-01-19T13:33:05Z</time>
      </trkpt>
      <trkpt lat="43.42298" lon="6.66463">
        <ele>21.9</ele>
        <time>2025-01-19T13:33:06Z</time>
      </trkpt>
      <trkpt lat="43.42299" lon="6.66463">
        <ele>21.9</ele>
        <time>2025-01-19T13:33:07Z</time>
      </trkpt>
      <trkpt lat="43.42299" lon="6.66463">
        <ele>22</ele>
        <time>2025-01-19T13:33:08Z</time>
      </trkpt>
      <trkpt lat="43.423" lon="6.66463">
        <ele>22.1</ele>
        <time>2025-01-19T13:33:09Z</time>
      </trkpt>
      <trkpt lat="43.423" lon="6.66464">
        <ele>22.1</ele>
        <time>2025-01-19T13:33:10Z</time>
      </trkpt>
      <trkpt lat="43.42301" lon="6.66464">
        <ele>22.2</ele>
        <time>2025-01-19T13:33:11Z</time>
      </trkpt>
      <trkpt lat="43.42302" lon="6.66465">
        <ele>22.2</ele>
        <time>2025-01-19T13:33:12Z</time>
      </trkpt>
      <trkpt lat="43.42302" lon="6.66466">
        <ele>22.2</ele>
        <time>2025-01-19T13:33:13Z</time>
      </trkpt>
      <trkpt lat="43.42303" lon="6.66466">
        <ele>22.3</ele>
        <time>2025-01-19T13:33:14Z</time>
      </trkpt>
      <trkpt lat="43.42304" lon="6.66467">
        <ele>22.4</ele>
        <time>2025-01-19T13:33:15Z</time>
      </trkpt>
      <trkpt lat="43.42304" lon="6.66468">
        <ele>22.4</ele>
        <time>2025-01-19T13:33:16Z</time>
      </trkpt>
      <trkpt lat="43.42305" lon="6.66469">
        <ele>22.5</ele>
        <time>2025-01-19T13:33:17Z</time>
      </trkpt>
      <trkpt lat="43.42306" lon="6.66469">
        <ele>22.5</ele>
        <time>2025-01-19T13:33:18Z</time>
      </trkpt>
      <trkpt lat="43.42307" lon="6.6647">
        <ele>22.6</ele>
        <time>2025-01-19T13:33:19Z</time>
      </trkpt>
      <trkpt lat="43.42308" lon="6.66471">
        <ele>22.6</ele>
        <time>2025-01-19T13:33:20Z</time>
      </trkpt>
      <trkpt lat="43.42309" lon="6.66472">
        <ele>22.7</ele>
        <time>2025-01-19T13:33:21Z</time>
      </trkpt>
      <trkpt lat="43.4231" lon="6.66473">
        <ele>22.7</ele>
        <time>2025-01-19T13:33:22Z</time>
      </trkpt>
      <trkpt lat="43.4231" lon="6.66475">
        <ele>22.7</ele>
        <time>2025-01-19T13:33:23Z</time>
      </trkpt>
      <trkpt lat="43.42311" lon="6.66476">
        <ele>22.8</ele>
        <time>2025-01-19T13:33:24Z</time>
      </trkpt>
      <trkpt lat="43.42311" lon="6.66476">
        <ele>22.8</ele>
        <time>2025-01-19T13:33:25Z</time>
      </trkpt>
      <trkpt lat="43.42312" lon="6.66478">
        <ele>22.8</ele>
        <time>2025-01-19T13:33:26Z</time>
      </trkpt>
      <trkpt lat="43.42313" lon="6.66479">
        <ele>22.9</ele>
        <time>2025-01-19T13:33:27Z</time>
      </trkpt>
      <trkpt lat="43.42314" lon="6.6648">
        <ele>22.9</ele>
        <time>2025-01-19T13:33:28Z</time>
      </trkpt>
      <trkpt lat="43.42315" lon="6.66481">
        <ele>22.8</ele>
        <time>2025-01-19T13:33:29Z</time>
      </trkpt>
      <trkpt lat="43.42316" lon="6.66482">
        <ele>22.8</ele>
        <time>2025-01-19T13:33:30Z</time>
      </trkpt>
      <trkpt lat="43.42318" lon="6.66482">
        <ele>22.9</ele>
        <time>2025-01-19T13:33:31Z</time>
      </trkpt>
      <trkpt lat="43.42319" lon="6.66483">
        <ele>23</ele>
        <time>2025-01-19T13:33:32Z</time>
      </trkpt>
      <trkpt lat="43.42319" lon="6.66484">
        <ele>23</ele>
        <time>2025-01-19T13:33:33Z</time>
      </trkpt>
      <trkpt lat="43.4232" lon="6.66485">
        <ele>23</ele>
        <time>2025-01-19T13:33:34Z</time>
      </trkpt>
      <trkpt lat="43.42321" lon="6.66486">
        <ele>23</ele>
        <time>2025-01-19T13:33:35Z</time>
      </trkpt>
      <trkpt lat="43.42321" lon="6.66487">
        <ele>22.9</ele>
        <time>2025-01-19T13:33:36Z</time>
      </trkpt>
      <trkpt lat="43.42322" lon="6.66488">
        <ele>22.8</ele>
        <time>2025-01-19T13:33:37Z</time>
      </trkpt>
      <trkpt lat="43.42323" lon="6.66489">
        <ele>22.8</ele>
        <time>2025-01-19T13:33:38Z</time>
      </trkpt>
      <trkpt lat="43.42325" lon="6.6649">
        <ele>22.7</ele>
        <time>2025-01-19T13:33:39Z</time>
      </trkpt>
      <trkpt lat="43.42325" lon="6.66491">
        <ele>22.5</ele>
        <time>2025-01-19T13:33:40Z</time>
      </trkpt>
      <trkpt lat="43.42325" lon="6.66492">
        <ele>22.5</ele>
        <time>2025-01-19T13:33:41Z</time>
      </trkpt>
      <trkpt lat="43.42326" lon="6.66493">
        <ele>22.4</ele>
        <time>2025-01-19T13:33:42Z</time>
      </trkpt>
      <trkpt lat="43.42327" lon="6.66494">
        <ele>22.3</ele>
        <time>2025-01-19T13:33:43Z</time>
      </trkpt>
      <trkpt lat="43.42328" lon="6.66495">
        <ele>22.3</ele>
        <time>2025-01-19T13:33:44Z</time>
      </trkpt>
      <trkpt lat="43.4233" lon="6.66496">
        <ele>22.3</ele>
        <time>2025-01-19T13:33:45Z</time>
      </trkpt>
      <trkpt lat="43.4233" lon="6.66498">
        <ele>22.3</ele>
        <time>2025-01-19T13:33:46Z</time>
      </trkpt>
      <trkpt lat="43.42332" lon="6.66498">
        <ele>22.3</ele>
        <time>2025-01-19T13:33:47Z</time>
      </trkpt>
      <trkpt lat="43.42333" lon="6.66499">
        <ele>22.3</ele>
        <time>2025-01-19T13:33:48Z</time>
      </trkpt>
      <trkpt lat="43.42334" lon="6.665">
        <ele>22.2</ele>
        <time>2025-01-19T13:33:49Z</time>
      </trkpt>
      <trkpt lat="43.42335" lon="6.66501">
        <ele>22.2</ele>
        <time>2025-01-19T13:33:50Z</time>
      </trkpt>
      <trkpt lat="43.42337" lon="6.66502">
        <ele>22.1</ele>
        <time>2025-01-19T13:33:51Z</time>
      </trkpt>
      <trkpt lat="43.42338" lon="6.66503">
        <ele>22.2</ele>
        <time>2025-01-19T13:33:52Z</time>
      </trkpt>
      <trkpt lat="43.42338" lon="6.66504">
        <ele>22.3</ele>
        <time>2025-01-19T13:33:53Z</time>
      </trkpt>
      <trkpt lat="43.42339" lon="6.66505">
        <ele>22.3</ele>
        <time>2025-01-19T13:33:54Z</time>
      </trkpt>
      <trkpt lat="43.4234" lon="6.66506">
        <ele>22.3</ele>
        <time>2025-01-19T13:33:55Z</time>
      </trkpt>
      <trkpt lat="43.4234" lon="6.66507">
        <ele>22.3</ele>
        <time>2025-01-19T13:33:56Z</time>
      </trkpt>
      <trkpt lat="43.4234" lon="6.66508">
        <ele>22.2</ele>
        <time>2025-01-19T13:33:57Z</time>
      </trkpt>
      <trkpt lat="43.42341" lon="6.6651">
        <ele>22.2</ele>
        <time>2025-01-19T13:33:58Z</time>
      </trkpt>
      <trkpt lat="43.42342" lon="6.6651">
        <ele>22.2</ele>
        <time>2025-01-19T13:33:59Z</time>
      </trkpt>
      <trkpt lat="43.42343" lon="6.66511">
        <ele>22.3</ele>
        <time>2025-01-19T13:34:00Z</time>
      </trkpt>
      <trkpt lat="43.42344" lon="6.66512">
        <ele>22.3</ele>
        <time>2025-01-19T13:34:01Z</time>
      </trkpt>
      <trkpt lat="43.42346" lon="6.66511">
        <ele>22.3</ele>
        <time>2025-01-19T13:34:02Z</time>
      </trkpt>
      <trkpt lat="43.42347" lon="6.66512">
        <ele>22.1</ele>
        <time>2025-01-19T13:34:03Z</time>
      </trkpt>
      <trkpt lat="43.42348" lon="6.66513">
        <ele>22</ele>
        <time>2025-01-19T13:34:04Z</time>
      </trkpt>
      <trkpt lat="43.4235" lon="6.66514">
        <ele>21.9</ele>
        <time>2025-01-19T13:34:05Z</time>
      </trkpt>
      <trkpt lat="43.42351" lon="6.66514">
        <ele>21.8</ele>
        <time>2025-01-19T13:34:06Z</time>
      </trkpt>
      <trkpt lat="43.42352" lon="6.66515">
        <ele>21.7</ele>
        <time>2025-01-19T13:34:07Z</time>
      </trkpt>
      <trkpt lat="43.42353" lon="6.66515">
        <ele>21.7</ele>
        <time>2025-01-19T13:34:08Z</time>
      </trkpt>
      <trkpt lat="43.42354" lon="6.66516">
        <ele>21.7</ele>
        <time>2025-01-19T13:34:09Z</time>
      </trkpt>
      <trkpt lat="43.42355" lon="6.66516">
        <ele>21.8</ele>
        <time>2025-01-19T13:34:10Z</time>
      </trkpt>
      <trkpt lat="43.42356" lon="6.66517">
        <ele>21.8</ele>
        <time>2025-01-19T13:34:11Z</time>
      </trkpt>
      <trkpt lat="43.42356" lon="6.66518">
        <ele>21.8</ele>
        <time>2025-01-19T13:34:12Z</time>
      </trkpt>
      <trkpt lat="43.42357" lon="6.66518">
        <ele>21.8</ele>
        <time>2025-01-19T13:34:13Z</time>
      </trkpt>
      <trkpt lat="43.42358" lon="6.66518">
        <ele>21.8</ele>
        <time>2025-01-19T13:34:14Z</time>
      </trkpt>
      <trkpt lat="43.42358" lon="6.66518">
        <ele>21.8</ele>
        <time>2025-01-19T13:34:15Z</time>
      </trkpt>
      <trkpt lat="43.42357" lon="6.66518">
        <ele>21.7</ele>
        <time>2025-01-19T13:34:16Z</time>
      </trkpt>
      <trkpt lat="43.42357" lon="6.66519">
        <ele>21.7</ele>
        <time>2025-01-19T13:34:17Z</time>
      </trkpt>
      <trkpt lat="43.42357" lon="6.66519">
        <ele>21.6</ele>
        <time>2025-01-19T13:34:18Z</time>
      </trkpt>
      <trkpt lat="43.42357" lon="6.66519">
        <ele>21.7</ele>
        <time>2025-01-19T13:34:19Z</time>
      </trkpt>
      <trkpt lat="43.42357" lon="6.66519">
        <ele>21.7</ele>
        <time>2025-01-19T13:34:20Z</time>
      </trkpt>
      <trkpt lat="43.42357" lon="6.6652">
        <ele>21.7</ele>
        <time>2025-01-19T13:34:21Z</time>
      </trkpt>
      <trkpt lat="43.42356" lon="6.6652">
        <ele>21.8</ele>
        <time>2025-01-19T13:34:22Z</time>
      </trkpt>
      <trkpt lat="43.42357" lon="6.6652">
        <ele>21.8</ele>
        <time>2025-01-19T13:34:23Z</time>
      </trkpt>
      <trkpt lat="43.42356" lon="6.66521">
        <ele>21.8</ele>
        <time>2025-01-19T13:34:24Z</time>
      </trkpt>
      <trkpt lat="43.42356" lon="6.66521">
        <ele>21.8</ele>
        <time>2025-01-19T13:34:25Z</time>
      </trkpt>
      <trkpt lat="43.42356" lon="6.66521">
        <ele>21.8</ele>
        <time>2025-01-19T13:34:26Z</time>
      </trkpt>
      <trkpt lat="43.42356" lon="6.66521">
        <ele>21.8</ele>
        <time>2025-01-19T13:34:27Z</time>
      </trkpt>
      <trkpt lat="43.42356" lon="6.66521">
        <ele>21.8</ele>
        <time>2025-01-19T13:34:28Z</time>
      </trkpt>
      <trkpt lat="43.42356" lon="6.66521">
        <ele>21.8</ele>
        <time>2025-01-19T13:34:29Z</time>
      </trkpt>
      <trkpt lat="43.42356" lon="6.66521">
        <ele>21.8</ele>
        <time>2025-01-19T13:34:30Z</time>
      </trkpt>
      <trkpt lat="43.42356" lon="6.66522">
        <ele>21.9</ele>
        <time>2025-01-19T13:34:31Z</time>
      </trkpt>
      <trkpt lat="43.42356" lon="6.66522">
        <ele>21.9</ele>
        <time>2025-01-19T13:34:32Z</time>
      </trkpt>
      <trkpt lat="43.42356" lon="6.66522">
        <ele>21.9</ele>
        <time>2025-01-19T13:34:33Z</time>
      </trkpt>
      <trkpt lat="43.42356" lon="6.66522">
        <ele>21.9</ele>
        <time>2025-01-19T13:34:34Z</time>
      </trkpt>
      <trkpt lat="43.42357" lon="6.66522">
        <ele>21.9</ele>
        <time>2025-01-19T13:34:35Z</time>
      </trkpt>
      <trkpt lat="43.42357" lon="6.66522">
        <ele>21.8</ele>
        <time>2025-01-19T13:34:36Z</time>
      </trkpt>
      <trkpt lat="43.42357" lon="6.66522">
        <ele>21.8</ele>
        <time>2025-01-19T13:34:37Z</time>
      </trkpt>
      <trkpt lat="43.42357" lon="6.66522">
        <ele>21.9</ele>
        <time>2025-01-19T13:34:38Z</time>
      </trkpt>
      <trkpt lat="43.42358" lon="6.66522">
        <ele>21.9</ele>
        <time>2025-01-19T13:34:39Z</time>
      </trkpt>
      <trkpt lat="43.42358" lon="6.66522">
        <ele>21.9</ele>
        <time>2025-01-19T13:34:40Z</time>
      </trkpt>
      <trkpt lat="43.42358" lon="6.66522">
        <ele>21.9</ele>
        <time>2025-01-19T13:34:41Z</time>
      </trkpt>
      <trkpt lat="43.42358" lon="6.66522">
        <ele>21.8</ele>
        <time>2025-01-19T13:34:42Z</time>
      </trkpt>
      <trkpt lat="43.42358" lon="6.66521">
        <ele>21.8</ele>
        <time>2025-01-19T13:34:43Z</time>
      </trkpt>
      <trkpt lat="43.42358" lon="6.66521">
        <ele>21.9</ele>
        <time>2025-01-19T13:34:44Z</time>
      </trkpt>
      <trkpt lat="43.42359" lon="6.66521">
        <ele>21.9</ele>
        <time>2025-01-19T13:34:45Z</time>
      </trkpt>
      <trkpt lat="43.42359" lon="6.66521">
        <ele>21.9</ele>
        <time>2025-01-19T13:34:46Z</time>
      </trkpt>
      <trkpt lat="43.42359" lon="6.66522">
        <ele>22</ele>
        <time>2025-01-19T13:34:47Z</time>
      </trkpt>
      <trkpt lat="43.42359" lon="6.66523">
        <ele>22</ele>
        <time>2025-01-19T13:34:48Z</time>
      </trkpt>
      <trkpt lat="43.42359" lon="6.66524">
        <ele>21.9</ele>
        <time>2025-01-19T13:34:49Z</time>
      </trkpt>
      <trkpt lat="43.42359" lon="6.66524">
        <ele>21.8</ele>
        <time>2025-01-19T13:34:50Z</time>
      </trkpt>
      <trkpt lat="43.42359" lon="6.66524">
        <ele>21.7</ele>
        <time>2025-01-19T13:34:51Z</time>
      </trkpt>
      <trkpt lat="43.42359" lon="6.66524">
        <ele>21.7</ele>
        <time>2025-01-19T13:34:52Z</time>
      </trkpt>
      <trkpt lat="43.42359" lon="6.66523">
        <ele>21.7</ele>
        <time>2025-01-19T13:34:53Z</time>
      </trkpt>
      <trkpt lat="43.42358" lon="6.66523">
        <ele>21.8</ele>
        <time>2025-01-19T13:34:54Z</time>
      </trkpt>
      <trkpt lat="43.42358" lon="6.66522">
        <ele>21.8</ele>
        <time>2025-01-19T13:34:55Z</time>
      </trkpt>
      <trkpt lat="43.42359" lon="6.66522">
        <ele>21.8</ele>
        <time>2025-01-19T13:34:56Z</time>
      </trkpt>
      <trkpt lat="43.42359" lon="6.66521">
        <ele>21.8</ele>
        <time>2025-01-19T13:34:57Z</time>
      </trkpt>
      <trkpt lat="43.42359" lon="6.66521">
        <ele>21.8</ele>
        <time>2025-01-19T13:34:58Z</time>
      </trkpt>
      <trkpt lat="43.42359" lon="6.66521">
        <ele>21.9</ele>
        <time>2025-01-19T13:34:59Z</time>
      </trkpt>
      <trkpt lat="43.42359" lon="6.66521">
        <ele>21.8</ele>
        <time>2025-01-19T13:35:00Z</time>
      </trkpt>
      <trkpt lat="43.42359" lon="6.66522">
        <ele>21.8</ele>
        <time>2025-01-19T13:35:01Z</time>
      </trkpt>
      <trkpt lat="43.42359" lon="6.66522">
        <ele>21.7</ele>
        <time>2025-01-19T13:35:02Z</time>
      </trkpt>
      <trkpt lat="43.42359" lon="6.66521">
        <ele>21.7</ele>
        <time>2025-01-19T13:35:03Z</time>
      </trkpt>
      <trkpt lat="43.42359" lon="6.66521">
        <ele>21.8</ele>
        <time>2025-01-19T13:35:04Z</time>
      </trkpt>
      <trkpt lat="43.42359" lon="6.66522">
        <ele>21.9</ele>
        <time>2025-01-19T13:35:05Z</time>
      </trkpt>
      <trkpt lat="43.42359" lon="6.66522">
        <ele>21.9</ele>
        <time>2025-01-19T13:35:06Z</time>
      </trkpt>
      <trkpt lat="43.42359" lon="6.66522">
        <ele>21.8</ele>
        <time>2025-01-19T13:35:07Z</time>
      </trkpt>
      <trkpt lat="43.42359" lon="6.66522">
        <ele>21.9</ele>
        <time>2025-01-19T13:35:08Z</time>
      </trkpt>
      <trkpt lat="43.42359" lon="6.66522">
        <ele>21.9</ele>
        <time>2025-01-19T13:35:09Z</time>
      </trkpt>
      <trkpt lat="43.42359" lon="6.66522">
        <ele>21.8</ele>
        <time>2025-01-19T13:35:10Z</time>
      </trkpt>
      <trkpt lat="43.42359" lon="6.66522">
        <ele>21.9</ele>
        <time>2025-01-19T13:35:11Z</time>
      </trkpt>
      <trkpt lat="43.42359" lon="6.66522">
        <ele>21.9</ele>
        <time>2025-01-19T13:35:12Z</time>
      </trkpt>
      <trkpt lat="43.42359" lon="6.66522">
        <ele>21.9</ele>
        <time>2025-01-19T13:35:13Z</time>
      </trkpt>
      <trkpt lat="43.42359" lon="6.66522">
        <ele>21.8</ele>
        <time>2025-01-19T13:35:14Z</time>
      </trkpt>
      <trkpt lat="43.42359" lon="6.66522">
        <ele>21.8</ele>
        <time>2025-01-19T13:35:15Z</time>
      </trkpt>
      <trkpt lat="43.42359" lon="6.66522">
        <ele>21.7</ele>
        <time>2025-01-19T13:35:16Z</time>
      </trkpt>
      <trkpt lat="43.42359" lon="6.66522">
        <ele>21.7</ele>
        <time>2025-01-19T13:35:17Z</time>
      </trkpt>
      <trkpt lat="43.42359" lon="6.66522">
        <ele>21.7</ele>
        <time>2025-01-19T13:35:18Z</time>
      </trkpt>
      <trkpt lat="43.42359" lon="6.66522">
        <ele>21.7</ele>
        <time>2025-01-19T13:35:19Z</time>
      </trkpt>
      <trkpt lat="43.42359" lon="6.66522">
        <ele>21.6</ele>
        <time>2025-01-19T13:35:20Z</time>
      </trkpt>
      <trkpt lat="43.4236" lon="6.66522">
        <ele>21.7</ele>
        <time>2025-01-19T13:35:21Z</time>
      </trkpt>
      <trkpt lat="43.42359" lon="6.66521">
        <ele>21.7</ele>
        <time>2025-01-19T13:35:22Z</time>
      </trkpt>
      <trkpt lat="43.42359" lon="6.66521">
        <ele>21.6</ele>
        <time>2025-01-19T13:35:23Z</time>
      </trkpt>
      <trkpt lat="43.42359" lon="6.66521">
        <ele>21.6</ele>
        <time>2025-01-19T13:35:24Z</time>
      </trkpt>
      <trkpt lat="43.42359" lon="6.66521">
        <ele>21.6</ele>
        <time>2025-01-19T13:35:25Z</time>
      </trkpt>
      <trkpt lat="43.42359" lon="6.66521">
        <ele>21.6</ele>
        <time>2025-01-19T13:35:26Z</time>
      </trkpt>
      <trkpt lat="43.42359" lon="6.66522">
        <ele>21.6</ele>
        <time>2025-01-19T13:35:27Z</time>
      </trkpt>
      <trkpt lat="43.42359" lon="6.66522">
        <ele>21.6</ele>
        <time>2025-01-19T13:35:28Z</time>
      </trkpt>
      <trkpt lat="43.4236" lon="6.66522">
        <ele>21.7</ele>
        <time>2025-01-19T13:35:29Z</time>
      </trkpt>
      <trkpt lat="43.42361" lon="6.66522">
        <ele>21.7</ele>
        <time>2025-01-19T13:35:30Z</time>
      </trkpt>
      <trkpt lat="43.42361" lon="6.66522">
        <ele>21.8</ele>
        <time>2025-01-19T13:35:31Z</time>
      </trkpt>
      <trkpt lat="43.42361" lon="6.66522">
        <ele>21.7</ele>
        <time>2025-01-19T13:35:32Z</time>
      </trkpt>
      <trkpt lat="43.42362" lon="6.66522">
        <ele>21.7</ele>
        <time>2025-01-19T13:35:33Z</time>
      </trkpt>
      <trkpt lat="43.42362" lon="6.66522">
        <ele>21.7</ele>
        <time>2025-01-19T13:35:34Z</time>
      </trkpt>
      <trkpt lat="43.42362" lon="6.66522">
        <ele>21.7</ele>
        <time>2025-01-19T13:35:35Z</time>
      </trkpt>
      <trkpt lat="43.42362" lon="6.66522">
        <ele>21.8</ele>
        <time>2025-01-19T13:35:36Z</time>
      </trkpt>
      <trkpt lat="43.42362" lon="6.66522">
        <ele>21.7</ele>
        <time>2025-01-19T13:35:37Z</time>
      </trkpt>
      <trkpt lat="43.42362" lon="6.66522">
        <ele>21.7</ele>
        <time>2025-01-19T13:35:38Z</time>
      </trkpt>
      <trkpt lat="43.42362" lon="6.66522">
        <ele>21.8</ele>
        <time>2025-01-19T13:35:39Z</time>
      </trkpt>
      <trkpt lat="43.42362" lon="6.66522">
        <ele>21.9</ele>
        <time>2025-01-19T13:35:40Z</time>
      </trkpt>
      <trkpt lat="43.42362" lon="6.66522">
        <ele>21.9</ele>
        <time>2025-01-19T13:35:41Z</time>
      </trkpt>
      <trkpt lat="43.42362" lon="6.66522">
        <ele>21.9</ele>
        <time>2025-01-19T13:35:42Z</time>
      </trkpt>
      <trkpt lat="43.42362" lon="6.66522">
        <ele>21.9</ele>
        <time>2025-01-19T13:35:43Z</time>
      </trkpt>
      <trkpt lat="43.42362" lon="6.66522">
        <ele>21.9</ele>
        <time>2025-01-19T13:35:44Z</time>
      </trkpt>
      <trkpt lat="43.42362" lon="6.66522">
        <ele>21.8</ele>
        <time>2025-01-19T13:35:45Z</time>
      </trkpt>
      <trkpt lat="43.42362" lon="6.66522">
        <ele>21.8</ele>
        <time>2025-01-19T13:35:46Z</time>
      </trkpt>
      <trkpt lat="43.42362" lon="6.66522">
        <ele>21.8</ele>
        <time>2025-01-19T13:35:47Z</time>
      </trkpt>
      <trkpt lat="43.42362" lon="6.66522">
        <ele>21.8</ele>
        <time>2025-01-19T13:35:48Z</time>
      </trkpt>
      <trkpt lat="43.42362" lon="6.66522">
        <ele>21.8</ele>
        <time>2025-01-19T13:35:49Z</time>
      </trkpt>
      <trkpt lat="43.42362" lon="6.66522">
        <ele>21.8</ele>
        <time>2025-01-19T13:35:50Z</time>
      </trkpt>
      <trkpt lat="43.42362" lon="6.66522">
        <ele>21.8</ele>
        <time>2025-01-19T13:35:51Z</time>
      </trkpt>
      <trkpt lat="43.42361" lon="6.66522">
        <ele>21.7</ele>
        <time>2025-01-19T13:35:52Z</time>
      </trkpt>
      <trkpt lat="43.42361" lon="6.66522">
        <ele>21.6</ele>
        <time>2025-01-19T13:35:53Z</time>
      </trkpt>
      <trkpt lat="43.42362" lon="6.66523">
        <ele>21.6</ele>
        <time>2025-01-19T13:35:54Z</time>
      </trkpt>
      <trkpt lat="43.42362" lon="6.66522">
        <ele>21.6</ele>
        <time>2025-01-19T13:35:55Z</time>
      </trkpt>
      <trkpt lat="43.42363" lon="6.66523">
        <ele>21.5</ele>
        <time>2025-01-19T13:35:56Z</time>
      </trkpt>
      <trkpt lat="43.42363" lon="6.66523">
        <ele>21.5</ele>
        <time>2025-01-19T13:35:57Z</time>
      </trkpt>
      <trkpt lat="43.42363" lon="6.66523">
        <ele>21.5</ele>
        <time>2025-01-19T13:35:58Z</time>
      </trkpt>
      <trkpt lat="43.42363" lon="6.66523">
        <ele>21.5</ele>
        <time>2025-01-19T13:35:59Z</time>
      </trkpt>
      <trkpt lat="43.42364" lon="6.66524">
        <ele>21.4</ele>
        <time>2025-01-19T13:36:00Z</time>
      </trkpt>
      <trkpt lat="43.42364" lon="6.66524">
        <ele>21.5</ele>
        <time>2025-01-19T13:36:01Z</time>
      </trkpt>
      <trkpt lat="43.42364" lon="6.66524">
        <ele>21.5</ele>
        <time>2025-01-19T13:36:02Z</time>
      </trkpt>
      <trkpt lat="43.42364" lon="6.66524">
        <ele>21.5</ele>
        <time>2025-01-19T13:36:03Z</time>
      </trkpt>
      <trkpt lat="43.42364" lon="6.66524">
        <ele>21.6</ele>
        <time>2025-01-19T13:36:04Z</time>
      </trkpt>
      <trkpt lat="43.42365" lon="6.66525">
        <ele>21.6</ele>
        <time>2025-01-19T13:36:05Z</time>
      </trkpt>
      <trkpt lat="43.42365" lon="6.66524">
        <ele>21.7</ele>
        <time>2025-01-19T13:36:06Z</time>
      </trkpt>
      <trkpt lat="43.42366" lon="6.66524">
        <ele>21.6</ele>
        <time>2025-01-19T13:36:07Z</time>
      </trkpt>
      <trkpt lat="43.42366" lon="6.66524">
        <ele>21.6</ele>
        <time>2025-01-19T13:36:08Z</time>
      </trkpt>
      <trkpt lat="43.42366" lon="6.66523">
        <ele>21.6</ele>
        <time>2025-01-19T13:36:09Z</time>
      </trkpt>
      <trkpt lat="43.42366" lon="6.66523">
        <ele>21.6</ele>
        <time>2025-01-19T13:36:10Z</time>
      </trkpt>
      <trkpt lat="43.42366" lon="6.66523">
        <ele>21.6</ele>
        <time>2025-01-19T13:36:11Z</time>
      </trkpt>
      <trkpt lat="43.42366" lon="6.66523">
        <ele>21.6</ele>
        <time>2025-01-19T13:36:12Z</time>
      </trkpt>
      <trkpt lat="43.42366" lon="6.66523">
        <ele>21.5</ele>
        <time>2025-01-19T13:36:13Z</time>
      </trkpt>
      <trkpt lat="43.42366" lon="6.66523">
        <ele>21.6</ele>
        <time>2025-01-19T13:36:14Z</time>
      </trkpt>
      <trkpt lat="43.42366" lon="6.66523">
        <ele>21.6</ele>
        <time>2025-01-19T13:36:15Z</time>
      </trkpt>
      <trkpt lat="43.42366" lon="6.66523">
        <ele>21.6</ele>
        <time>2025-01-19T13:36:16Z</time>
      </trkpt>
      <trkpt lat="43.42366" lon="6.66522">
        <ele>21.7</ele>
        <time>2025-01-19T13:36:17Z</time>
      </trkpt>
      <trkpt lat="43.42366" lon="6.66522">
        <ele>21.6</ele>
        <time>2025-01-19T13:36:18Z</time>
      </trkpt>
      <trkpt lat="43.42366" lon="6.66522">
        <ele>21.7</ele>
        <time>2025-01-19T13:36:19Z</time>
      </trkpt>
      <trkpt lat="43.42366" lon="6.66522">
        <ele>21.7</ele>
        <time>2025-01-19T13:36:20Z</time>
      </trkpt>
      <trkpt lat="43.42366" lon="6.66522">
        <ele>21.7</ele>
        <time>2025-01-19T13:36:21Z</time>
      </trkpt>
      <trkpt lat="43.42365" lon="6.66522">
        <ele>21.6</ele>
        <time>2025-01-19T13:36:22Z</time>
      </trkpt>
      <trkpt lat="43.42366" lon="6.66522">
        <ele>21.6</ele>
        <time>2025-01-19T13:36:23Z</time>
      </trkpt>
      <trkpt lat="43.42366" lon="6.66522">
        <ele>21.6</ele>
        <time>2025-01-19T13:36:24Z</time>
      </trkpt>
      <trkpt lat="43.42366" lon="6.66523">
        <ele>21.6</ele>
        <time>2025-01-19T13:36:25Z</time>
      </trkpt>
      <trkpt lat="43.42366" lon="6.66524">
        <ele>21.6</ele>
        <time>2025-01-19T13:36:26Z</time>
      </trkpt>
      <trkpt lat="43.42367" lon="6.66524">
        <ele>21.7</ele>
        <time>2025-01-19T13:36:27Z</time>
      </trkpt>
      <trkpt lat="43.42368" lon="6.66524">
        <ele>21.7</ele>
        <time>2025-01-19T13:36:28Z</time>
      </trkpt>
      <trkpt lat="43.42369" lon="6.66524">
        <ele>21.7</ele>
        <time>2025-01-19T13:36:29Z</time>
      </trkpt>
      <trkpt lat="43.4237" lon="6.66525">
        <ele>21.7</ele>
        <time>2025-01-19T13:36:30Z</time>
      </trkpt>
      <trkpt lat="43.42371" lon="6.66525">
        <ele>21.6</ele>
        <time>2025-01-19T13:36:31Z</time>
      </trkpt>
      <trkpt lat="43.42372" lon="6.66525">
        <ele>21.5</ele>
        <time>2025-01-19T13:36:32Z</time>
      </trkpt>
      <trkpt lat="43.42372" lon="6.66525">
        <ele>21.5</ele>
        <time>2025-01-19T13:36:33Z</time>
      </trkpt>
      <trkpt lat="43.42373" lon="6.66525">
        <ele>21.6</ele>
        <time>2025-01-19T13:36:34Z</time>
      </trkpt>
      <trkpt lat="43.42374" lon="6.66525">
        <ele>21.5</ele>
        <time>2025-01-19T13:36:35Z</time>
      </trkpt>
      <trkpt lat="43.42375" lon="6.66525">
        <ele>21.5</ele>
        <time>2025-01-19T13:36:36Z</time>
      </trkpt>
      <trkpt lat="43.42376" lon="6.66525">
        <ele>21.5</ele>
        <time>2025-01-19T13:36:37Z</time>
      </trkpt>
      <trkpt lat="43.42376" lon="6.66525">
        <ele>21.5</ele>
        <time>2025-01-19T13:36:38Z</time>
      </trkpt>
      <trkpt lat="43.42377" lon="6.66526">
        <ele>21.5</ele>
        <time>2025-01-19T13:36:39Z</time>
      </trkpt>
      <trkpt lat="43.42378" lon="6.66526">
        <ele>21.5</ele>
        <time>2025-01-19T13:36:40Z</time>
      </trkpt>
      <trkpt lat="43.42378" lon="6.66526">
        <ele>21.6</ele>
        <time>2025-01-19T13:36:41Z</time>
      </trkpt>
      <trkpt lat="43.42379" lon="6.66526">
        <ele>21.6</ele>
        <time>2025-01-19T13:36:42Z</time>
      </trkpt>
      <trkpt lat="43.4238" lon="6.66526">
        <ele>21.6</ele>
        <time>2025-01-19T13:36:43Z</time>
      </trkpt>
      <trkpt lat="43.42381" lon="6.66525">
        <ele>21.6</ele>
        <time>2025-01-19T13:36:44Z</time>
      </trkpt>
      <trkpt lat="43.42382" lon="6.66526">
        <ele>21.6</ele>
        <time>2025-01-19T13:36:45Z</time>
      </trkpt>
      <trkpt lat="43.42382" lon="6.66526">
        <ele>21.6</ele>
        <time>2025-01-19T13:36:46Z</time>
      </trkpt>
      <trkpt lat="43.42382" lon="6.66526">
        <ele>21.6</ele>
        <time>2025-01-19T13:36:47Z</time>
      </trkpt>
      <trkpt lat="43.42383" lon="6.66526">
        <ele>21.6</ele>
        <time>2025-01-19T13:36:48Z</time>
      </trkpt>
      <trkpt lat="43.42383" lon="6.66526">
        <ele>21.7</ele>
        <time>2025-01-19T13:36:49Z</time>
      </trkpt>
      <trkpt lat="43.42384" lon="6.66527">
        <ele>21.7</ele>
        <time>2025-01-19T13:36:50Z</time>
      </trkpt>
      <trkpt lat="43.42385" lon="6.66527">
        <ele>21.7</ele>
        <time>2025-01-19T13:36:51Z</time>
      </trkpt>
      <trkpt lat="43.42386" lon="6.66527">
        <ele>21.6</ele>
        <time>2025-01-19T13:36:52Z</time>
      </trkpt>
      <trkpt lat="43.42387" lon="6.66526">
        <ele>21.6</ele>
        <time>2025-01-19T13:36:53Z</time>
      </trkpt>
      <trkpt lat="43.42387" lon="6.66527">
        <ele>21.6</ele>
        <time>2025-01-19T13:36:54Z</time>
      </trkpt>
      <trkpt lat="43.42388" lon="6.66527">
        <ele>21.6</ele>
        <time>2025-01-19T13:36:55Z</time>
      </trkpt>
      <trkpt lat="43.42389" lon="6.66527">
        <ele>21.6</ele>
        <time>2025-01-19T13:36:56Z</time>
      </trkpt>
      <trkpt lat="43.4239" lon="6.66527">
        <ele>21.6</ele>
        <time>2025-01-19T13:36:57Z</time>
      </trkpt>
      <trkpt lat="43.42391" lon="6.66528">
        <ele>21.6</ele>
        <time>2025-01-19T13:36:58Z</time>
      </trkpt>
      <trkpt lat="43.42392" lon="6.66528">
        <ele>21.6</ele>
        <time>2025-01-19T13:36:59Z</time>
      </trkpt>
      <trkpt lat="43.42394" lon="6.66528">
        <ele>21.6</ele>
        <time>2025-01-19T13:37:00Z</time>
      </trkpt>
      <trkpt lat="43.42395" lon="6.66529">
        <ele>21.6</ele>
        <time>2025-01-19T13:37:01Z</time>
      </trkpt>
      <trkpt lat="43.42396" lon="6.66528">
        <ele>21.5</ele>
        <time>2025-01-19T13:37:02Z</time>
      </trkpt>
      <trkpt lat="43.42397" lon="6.66529">
        <ele>21.5</ele>
        <time>2025-01-19T13:37:03Z</time>
      </trkpt>
      <trkpt lat="43.42398" lon="6.66529">
        <ele>21.5</ele>
        <time>2025-01-19T13:37:04Z</time>
      </trkpt>
      <trkpt lat="43.42399" lon="6.66529">
        <ele>21.5</ele>
        <time>2025-01-19T13:37:05Z</time>
      </trkpt>
      <trkpt lat="43.424" lon="6.66529">
        <ele>21.6</ele>
        <time>2025-01-19T13:37:06Z</time>
      </trkpt>
      <trkpt lat="43.42401" lon="6.66529">
        <ele>21.5</ele>
        <time>2025-01-19T13:37:07Z</time>
      </trkpt>
      <trkpt lat="43.42402" lon="6.66529">
        <ele>21.5</ele>
        <time>2025-01-19T13:37:08Z</time>
      </trkpt>
      <trkpt lat="43.42403" lon="6.66529">
        <ele>21.4</ele>
        <time>2025-01-19T13:37:09Z</time>
      </trkpt>
      <trkpt lat="43.42404" lon="6.66529">
        <ele>21.4</ele>
        <time>2025-01-19T13:37:10Z</time>
      </trkpt>
      <trkpt lat="43.42405" lon="6.66529">
        <ele>21.4</ele>
        <time>2025-01-19T13:37:11Z</time>
      </trkpt>
      <trkpt lat="43.42406" lon="6.66529">
        <ele>21.4</ele>
        <time>2025-01-19T13:37:12Z</time>
      </trkpt>
      <trkpt lat="43.42407" lon="6.66529">
        <ele>21.4</ele>
        <time>2025-01-19T13:37:13Z</time>
      </trkpt>
      <trkpt lat="43.42409" lon="6.66529">
        <ele>21.4</ele>
        <time>2025-01-19T13:37:14Z</time>
      </trkpt>
      <trkpt lat="43.4241" lon="6.66529">
        <ele>21.4</ele>
        <time>2025-01-19T13:37:15Z</time>
      </trkpt>
      <trkpt lat="43.42411" lon="6.66529">
        <ele>21.4</ele>
        <time>2025-01-19T13:37:16Z</time>
      </trkpt>
      <trkpt lat="43.42412" lon="6.6653">
        <ele>21.4</ele>
        <time>2025-01-19T13:37:17Z</time>
      </trkpt>
      <trkpt lat="43.42413" lon="6.6653">
        <ele>21.3</ele>
        <time>2025-01-19T13:37:18Z</time>
      </trkpt>
      <trkpt lat="43.42414" lon="6.6653">
        <ele>21.3</ele>
        <time>2025-01-19T13:37:19Z</time>
      </trkpt>
      <trkpt lat="43.42415" lon="6.6653">
        <ele>21.3</ele>
        <time>2025-01-19T13:37:20Z</time>
      </trkpt>
      <trkpt lat="43.42416" lon="6.6653">
        <ele>21.3</ele>
        <time>2025-01-19T13:37:21Z</time>
      </trkpt>
      <trkpt lat="43.42417" lon="6.6653">
        <ele>21.3</ele>
        <time>2025-01-19T13:37:22Z</time>
      </trkpt>
      <trkpt lat="43.42418" lon="6.6653">
        <ele>21.3</ele>
        <time>2025-01-19T13:37:23Z</time>
      </trkpt>
      <trkpt lat="43.42418" lon="6.66531">
        <ele>21.2</ele>
        <time>2025-01-19T13:37:24Z</time>
      </trkpt>
      <trkpt lat="43.42419" lon="6.66532">
        <ele>21.2</ele>
        <time>2025-01-19T13:37:25Z</time>
      </trkpt>
      <trkpt lat="43.4242" lon="6.66532">
        <ele>21.2</ele>
        <time>2025-01-19T13:37:26Z</time>
      </trkpt>
      <trkpt lat="43.42421" lon="6.66532">
        <ele>21.1</ele>
        <time>2025-01-19T13:37:27Z</time>
      </trkpt>
      <trkpt lat="43.42422" lon="6.66531">
        <ele>21.1</ele>
        <time>2025-01-19T13:37:28Z</time>
      </trkpt>
      <trkpt lat="43.42423" lon="6.66531">
        <ele>21</ele>
        <time>2025-01-19T13:37:29Z</time>
      </trkpt>
      <trkpt lat="43.42423" lon="6.66531">
        <ele>21</ele>
        <time>2025-01-19T13:37:30Z</time>
      </trkpt>
      <trkpt lat="43.42424" lon="6.66531">
        <ele>21</ele>
        <time>2025-01-19T13:37:31Z</time>
      </trkpt>
      <trkpt lat="43.42424" lon="6.66531">
        <ele>20.9</ele>
        <time>2025-01-19T13:37:32Z</time>
      </trkpt>
      <trkpt lat="43.42424" lon="6.66531">
        <ele>21</ele>
        <time>2025-01-19T13:37:33Z</time>
      </trkpt>
      <trkpt lat="43.42426" lon="6.6653">
        <ele>20.9</ele>
        <time>2025-01-19T13:37:34Z</time>
      </trkpt>
      <trkpt lat="43.42427" lon="6.6653">
        <ele>20.9</ele>
        <time>2025-01-19T13:37:35Z</time>
      </trkpt>
      <trkpt lat="43.42428" lon="6.6653">
        <ele>20.9</ele>
        <time>2025-01-19T13:37:36Z</time>
      </trkpt>
      <trkpt lat="43.4243" lon="6.6653">
        <ele>20.9</ele>
        <time>2025-01-19T13:37:37Z</time>
      </trkpt>
      <trkpt lat="43.42431" lon="6.6653">
        <ele>20.8</ele>
        <time>2025-01-19T13:37:38Z</time>
      </trkpt>
      <trkpt lat="43.42432" lon="6.6653">
        <ele>20.7</ele>
        <time>2025-01-19T13:37:39Z</time>
      </trkpt>
      <trkpt lat="43.42433" lon="6.66531">
        <ele>20.7</ele>
        <time>2025-01-19T13:37:40Z</time>
      </trkpt>
      <trkpt lat="43.42435" lon="6.6653">
        <ele>20.7</ele>
        <time>2025-01-19T13:37:41Z</time>
      </trkpt>
      <trkpt lat="43.42436" lon="6.6653">
        <ele>20.6</ele>
        <time>2025-01-19T13:37:42Z</time>
      </trkpt>
      <trkpt lat="43.42437" lon="6.66529">
        <ele>20.6</ele>
        <time>2025-01-19T13:37:43Z</time>
      </trkpt>
      <trkpt lat="43.42438" lon="6.6653">
        <ele>20.6</ele>
        <time>2025-01-19T13:37:44Z</time>
      </trkpt>
      <trkpt lat="43.42439" lon="6.6653">
        <ele>20.7</ele>
        <time>2025-01-19T13:37:45Z</time>
      </trkpt>
      <trkpt lat="43.4244" lon="6.6653">
        <ele>20.7</ele>
        <time>2025-01-19T13:37:46Z</time>
      </trkpt>
      <trkpt lat="43.42442" lon="6.66529">
        <ele>20.7</ele>
        <time>2025-01-19T13:37:47Z</time>
      </trkpt>
      <trkpt lat="43.42442" lon="6.66529">
        <ele>20.8</ele>
        <time>2025-01-19T13:37:48Z</time>
      </trkpt>
      <trkpt lat="43.42444" lon="6.66529">
        <ele>20.7</ele>
        <time>2025-01-19T13:37:49Z</time>
      </trkpt>
      <trkpt lat="43.42445" lon="6.66528">
        <ele>20.7</ele>
        <time>2025-01-19T13:37:50Z</time>
      </trkpt>
      <trkpt lat="43.42447" lon="6.66528">
        <ele>20.6</ele>
        <time>2025-01-19T13:37:51Z</time>
      </trkpt>
      <trkpt lat="43.42449" lon="6.66527">
        <ele>20.6</ele>
        <time>2025-01-19T13:37:52Z</time>
      </trkpt>
      <trkpt lat="43.4245" lon="6.66527">
        <ele>20.6</ele>
        <time>2025-01-19T13:37:53Z</time>
      </trkpt>
      <trkpt lat="43.42451" lon="6.66527">
        <ele>20.6</ele>
        <time>2025-01-19T13:37:54Z</time>
      </trkpt>
      <trkpt lat="43.42452" lon="6.66526">
        <ele>20.6</ele>
        <time>2025-01-19T13:37:55Z</time>
      </trkpt>
      <trkpt lat="43.42453" lon="6.66526">
        <ele>20.6</ele>
        <time>2025-01-19T13:37:56Z</time>
      </trkpt>
      <trkpt lat="43.42453" lon="6.66526">
        <ele>20.5</ele>
        <time>2025-01-19T13:37:57Z</time>
      </trkpt>
      <trkpt lat="43.42454" lon="6.66526">
        <ele>20.5</ele>
        <time>2025-01-19T13:37:58Z</time>
      </trkpt>
      <trkpt lat="43.42455" lon="6.66526">
        <ele>20.4</ele>
        <time>2025-01-19T13:37:59Z</time>
      </trkpt>
      <trkpt lat="43.42457" lon="6.66526">
        <ele>20.4</ele>
        <time>2025-01-19T13:38:00Z</time>
      </trkpt>
      <trkpt lat="43.42457" lon="6.66525">
        <ele>20.4</ele>
        <time>2025-01-19T13:38:01Z</time>
      </trkpt>
      <trkpt lat="43.42459" lon="6.66524">
        <ele>20.4</ele>
        <time>2025-01-19T13:38:02Z</time>
      </trkpt>
      <trkpt lat="43.4246" lon="6.66524">
        <ele>20.5</ele>
        <time>2025-01-19T13:38:03Z</time>
      </trkpt>
      <trkpt lat="43.42462" lon="6.66523">
        <ele>20.5</ele>
        <time>2025-01-19T13:38:04Z</time>
      </trkpt>
      <trkpt lat="43.42463" lon="6.66523">
        <ele>20.4</ele>
        <time>2025-01-19T13:38:05Z</time>
      </trkpt>
      <trkpt lat="43.42465" lon="6.66522">
        <ele>20.5</ele>
        <time>2025-01-19T13:38:06Z</time>
      </trkpt>
      <trkpt lat="43.42466" lon="6.66522">
        <ele>20.5</ele>
        <time>2025-01-19T13:38:07Z</time>
      </trkpt>
      <trkpt lat="43.42467" lon="6.66521">
        <ele>20.5</ele>
        <time>2025-01-19T13:38:08Z</time>
      </trkpt>
      <trkpt lat="43.42468" lon="6.6652">
        <ele>20.5</ele>
        <time>2025-01-19T13:38:09Z</time>
      </trkpt>
      <trkpt lat="43.42469" lon="6.66519">
        <ele>20.5</ele>
        <time>2025-01-19T13:38:10Z</time>
      </trkpt>
      <trkpt lat="43.4247" lon="6.66518">
        <ele>20.4</ele>
        <time>2025-01-19T13:38:11Z</time>
      </trkpt>
      <trkpt lat="43.42471" lon="6.66518">
        <ele>20.4</ele>
        <time>2025-01-19T13:38:12Z</time>
      </trkpt>
      <trkpt lat="43.42472" lon="6.66517">
        <ele>20.4</ele>
        <time>2025-01-19T13:38:13Z</time>
      </trkpt>
      <trkpt lat="43.42473" lon="6.66516">
        <ele>20.5</ele>
        <time>2025-01-19T13:38:14Z</time>
      </trkpt>
      <trkpt lat="43.42474" lon="6.66515">
        <ele>20.5</ele>
        <time>2025-01-19T13:38:15Z</time>
      </trkpt>
      <trkpt lat="43.42475" lon="6.66515">
        <ele>20.5</ele>
        <time>2025-01-19T13:38:16Z</time>
      </trkpt>
      <trkpt lat="43.42477" lon="6.66514">
        <ele>20.5</ele>
        <time>2025-01-19T13:38:17Z</time>
      </trkpt>
      <trkpt lat="43.42478" lon="6.66513">
        <ele>20.4</ele>
        <time>2025-01-19T13:38:18Z</time>
      </trkpt>
      <trkpt lat="43.42479" lon="6.66513">
        <ele>20.4</ele>
        <time>2025-01-19T13:38:19Z</time>
      </trkpt>
      <trkpt lat="43.4248" lon="6.66512">
        <ele>20.3</ele>
        <time>2025-01-19T13:38:20Z</time>
      </trkpt>
      <trkpt lat="43.42482" lon="6.66511">
        <ele>20.4</ele>
        <time>2025-01-19T13:38:21Z</time>
      </trkpt>
      <trkpt lat="43.42483" lon="6.66511">
        <ele>20.4</ele>
        <time>2025-01-19T13:38:22Z</time>
      </trkpt>
      <trkpt lat="43.42484" lon="6.6651">
        <ele>20.4</ele>
        <time>2025-01-19T13:38:23Z</time>
      </trkpt>
      <trkpt lat="43.42486" lon="6.66509">
        <ele>20.3</ele>
        <time>2025-01-19T13:38:24Z</time>
      </trkpt>
      <trkpt lat="43.42487" lon="6.66508">
        <ele>20.3</ele>
        <time>2025-01-19T13:38:25Z</time>
      </trkpt>
      <trkpt lat="43.42488" lon="6.66508">
        <ele>20.3</ele>
        <time>2025-01-19T13:38:26Z</time>
      </trkpt>
      <trkpt lat="43.42489" lon="6.66507">
        <ele>20.4</ele>
        <time>2025-01-19T13:38:27Z</time>
      </trkpt>
      <trkpt lat="43.4249" lon="6.66506">
        <ele>20.4</ele>
        <time>2025-01-19T13:38:28Z</time>
      </trkpt>
      <trkpt lat="43.42491" lon="6.66506">
        <ele>20.3</ele>
        <time>2025-01-19T13:38:29Z</time>
      </trkpt>
      <trkpt lat="43.42492" lon="6.66506">
        <ele>20.3</ele>
        <time>2025-01-19T13:38:30Z</time>
      </trkpt>
      <trkpt lat="43.42493" lon="6.66505">
        <ele>20.2</ele>
        <time>2025-01-19T13:38:31Z</time>
      </trkpt>
      <trkpt lat="43.42493" lon="6.66505">
        <ele>20.2</ele>
        <time>2025-01-19T13:38:32Z</time>
      </trkpt>
      <trkpt lat="43.42494" lon="6.66505">
        <ele>20.1</ele>
        <time>2025-01-19T13:38:33Z</time>
      </trkpt>
      <trkpt lat="43.42495" lon="6.66503">
        <ele>20.1</ele>
        <time>2025-01-19T13:38:34Z</time>
      </trkpt>
      <trkpt lat="43.42496" lon="6.66503">
        <ele>20</ele>
        <time>2025-01-19T13:38:35Z</time>
      </trkpt>
      <trkpt lat="43.42497" lon="6.66502">
        <ele>20</ele>
        <time>2025-01-19T13:38:36Z</time>
      </trkpt>
      <trkpt lat="43.42499" lon="6.66502">
        <ele>20</ele>
        <time>2025-01-19T13:38:37Z</time>
      </trkpt>
      <trkpt lat="43.42499" lon="6.665">
        <ele>20</ele>
        <time>2025-01-19T13:38:38Z</time>
      </trkpt>
      <trkpt lat="43.425" lon="6.66499">
        <ele>20</ele>
        <time>2025-01-19T13:38:39Z</time>
      </trkpt>
      <trkpt lat="43.42501" lon="6.66498">
        <ele>20</ele>
        <time>2025-01-19T13:38:40Z</time>
      </trkpt>
      <trkpt lat="43.42502" lon="6.66497">
        <ele>20</ele>
        <time>2025-01-19T13:38:41Z</time>
      </trkpt>
      <trkpt lat="43.42503" lon="6.66497">
        <ele>20</ele>
        <time>2025-01-19T13:38:42Z</time>
      </trkpt>
      <trkpt lat="43.42503" lon="6.66495">
        <ele>20</ele>
        <time>2025-01-19T13:38:43Z</time>
      </trkpt>
      <trkpt lat="43.42504" lon="6.66494">
        <ele>20</ele>
        <time>2025-01-19T13:38:44Z</time>
      </trkpt>
      <trkpt lat="43.42506" lon="6.66494">
        <ele>20</ele>
        <time>2025-01-19T13:38:45Z</time>
      </trkpt>
      <trkpt lat="43.42507" lon="6.66494">
        <ele>20</ele>
        <time>2025-01-19T13:38:46Z</time>
      </trkpt>
      <trkpt lat="43.42509" lon="6.66493">
        <ele>20</ele>
        <time>2025-01-19T13:38:47Z</time>
      </trkpt>
      <trkpt lat="43.4251" lon="6.66493">
        <ele>20</ele>
        <time>2025-01-19T13:38:48Z</time>
      </trkpt>
      <trkpt lat="43.42511" lon="6.66492">
        <ele>20</ele>
        <time>2025-01-19T13:38:49Z</time>
      </trkpt>
      <trkpt lat="43.42512" lon="6.66492">
        <ele>20</ele>
        <time>2025-01-19T13:38:50Z</time>
      </trkpt>
      <trkpt lat="43.42513" lon="6.66491">
        <ele>20</ele>
        <time>2025-01-19T13:38:51Z</time>
      </trkpt>
      <trkpt lat="43.42514" lon="6.66491">
        <ele>19.9</ele>
        <time>2025-01-19T13:38:52Z</time>
      </trkpt>
      <trkpt lat="43.42515" lon="6.6649">
        <ele>19.9</ele>
        <time>2025-01-19T13:38:53Z</time>
      </trkpt>
      <trkpt lat="43.42516" lon="6.6649">
        <ele>19.9</ele>
        <time>2025-01-19T13:38:54Z</time>
      </trkpt>
      <trkpt lat="43.42517" lon="6.6649">
        <ele>19.9</ele>
        <time>2025-01-19T13:38:55Z</time>
      </trkpt>
      <trkpt lat="43.42519" lon="6.66489">
        <ele>20</ele>
        <time>2025-01-19T13:38:56Z</time>
      </trkpt>
      <trkpt lat="43.4252" lon="6.66489">
        <ele>20</ele>
        <time>2025-01-19T13:38:57Z</time>
      </trkpt>
      <trkpt lat="43.42521" lon="6.66488">
        <ele>20.1</ele>
        <time>2025-01-19T13:38:58Z</time>
      </trkpt>
      <trkpt lat="43.42522" lon="6.66488">
        <ele>20.1</ele>
        <time>2025-01-19T13:38:59Z</time>
      </trkpt>
      <trkpt lat="43.42522" lon="6.66488">
        <ele>20.1</ele>
        <time>2025-01-19T13:39:00Z</time>
      </trkpt>
      <trkpt lat="43.42524" lon="6.66487">
        <ele>20.2</ele>
        <time>2025-01-19T13:39:01Z</time>
      </trkpt>
      <trkpt lat="43.42525" lon="6.66487">
        <ele>20.1</ele>
        <time>2025-01-19T13:39:02Z</time>
      </trkpt>
      <trkpt lat="43.42527" lon="6.66486">
        <ele>20.1</ele>
        <time>2025-01-19T13:39:03Z</time>
      </trkpt>
      <trkpt lat="43.42528" lon="6.66486">
        <ele>20</ele>
        <time>2025-01-19T13:39:04Z</time>
      </trkpt>
      <trkpt lat="43.42529" lon="6.66485">
        <ele>20</ele>
        <time>2025-01-19T13:39:05Z</time>
      </trkpt>
      <trkpt lat="43.4253" lon="6.66485">
        <ele>20</ele>
        <time>2025-01-19T13:39:06Z</time>
      </trkpt>
      <trkpt lat="43.42531" lon="6.66484">
        <ele>20</ele>
        <time>2025-01-19T13:39:07Z</time>
      </trkpt>
      <trkpt lat="43.42532" lon="6.66483">
        <ele>20.1</ele>
        <time>2025-01-19T13:39:08Z</time>
      </trkpt>
      <trkpt lat="43.42533" lon="6.66483">
        <ele>20</ele>
        <time>2025-01-19T13:39:09Z</time>
      </trkpt>
      <trkpt lat="43.42534" lon="6.66483">
        <ele>20</ele>
        <time>2025-01-19T13:39:10Z</time>
      </trkpt>
      <trkpt lat="43.42536" lon="6.66482">
        <ele>20</ele>
        <time>2025-01-19T13:39:11Z</time>
      </trkpt>
      <trkpt lat="43.42537" lon="6.66482">
        <ele>19.9</ele>
        <time>2025-01-19T13:39:12Z</time>
      </trkpt>
      <trkpt lat="43.42539" lon="6.66481">
        <ele>19.9</ele>
        <time>2025-01-19T13:39:13Z</time>
      </trkpt>
      <trkpt lat="43.4254" lon="6.66481">
        <ele>19.9</ele>
        <time>2025-01-19T13:39:14Z</time>
      </trkpt>
      <trkpt lat="43.42541" lon="6.6648">
        <ele>20</ele>
        <time>2025-01-19T13:39:15Z</time>
      </trkpt>
      <trkpt lat="43.42543" lon="6.6648">
        <ele>20</ele>
        <time>2025-01-19T13:39:16Z</time>
      </trkpt>
      <trkpt lat="43.42544" lon="6.66479">
        <ele>20.1</ele>
        <time>2025-01-19T13:39:17Z</time>
      </trkpt>
      <trkpt lat="43.42546" lon="6.66479">
        <ele>20.1</ele>
        <time>2025-01-19T13:39:18Z</time>
      </trkpt>
      <trkpt lat="43.42547" lon="6.66478">
        <ele>20.1</ele>
        <time>2025-01-19T13:39:19Z</time>
      </trkpt>
      <trkpt lat="43.42549" lon="6.66478">
        <ele>20.2</ele>
        <time>2025-01-19T13:39:20Z</time>
      </trkpt>
      <trkpt lat="43.42549" lon="6.66478">
        <ele>20.2</ele>
        <time>2025-01-19T13:39:21Z</time>
      </trkpt>
      <trkpt lat="43.4255" lon="6.66477">
        <ele>20.1</ele>
        <time>2025-01-19T13:39:22Z</time>
      </trkpt>
      <trkpt lat="43.42551" lon="6.66477">
        <ele>20</ele>
        <time>2025-01-19T13:39:23Z</time>
      </trkpt>
      <trkpt lat="43.42552" lon="6.66476">
        <ele>20</ele>
        <time>2025-01-19T13:39:24Z</time>
      </trkpt>
      <trkpt lat="43.42554" lon="6.66475">
        <ele>20</ele>
        <time>2025-01-19T13:39:25Z</time>
      </trkpt>
      <trkpt lat="43.42555" lon="6.66474">
        <ele>20</ele>
        <time>2025-01-19T13:39:26Z</time>
      </trkpt>
      <trkpt lat="43.42556" lon="6.66474">
        <ele>20</ele>
        <time>2025-01-19T13:39:27Z</time>
      </trkpt>
      <trkpt lat="43.42557" lon="6.66473">
        <ele>20</ele>
        <time>2025-01-19T13:39:28Z</time>
      </trkpt>
      <trkpt lat="43.42558" lon="6.66472">
        <ele>20</ele>
        <time>2025-01-19T13:39:29Z</time>
      </trkpt>
      <trkpt lat="43.42559" lon="6.66472">
        <ele>20.1</ele>
        <time>2025-01-19T13:39:30Z</time>
      </trkpt>
      <trkpt lat="43.4256" lon="6.66471">
        <ele>20.1</ele>
        <time>2025-01-19T13:39:31Z</time>
      </trkpt>
      <trkpt lat="43.42562" lon="6.66471">
        <ele>20.1</ele>
        <time>2025-01-19T13:39:32Z</time>
      </trkpt>
      <trkpt lat="43.42564" lon="6.66471">
        <ele>20.1</ele>
        <time>2025-01-19T13:39:33Z</time>
      </trkpt>
      <trkpt lat="43.42565" lon="6.6647">
        <ele>20.1</ele>
        <time>2025-01-19T13:39:34Z</time>
      </trkpt>
      <trkpt lat="43.42566" lon="6.66469">
        <ele>20.1</ele>
        <time>2025-01-19T13:39:35Z</time>
      </trkpt>
      <trkpt lat="43.42568" lon="6.66469">
        <ele>20.1</ele>
        <time>2025-01-19T13:39:36Z</time>
      </trkpt>
      <trkpt lat="43.42568" lon="6.66469">
        <ele>20.1</ele>
        <time>2025-01-19T13:39:37Z</time>
      </trkpt>
      <trkpt lat="43.4257" lon="6.66468">
        <ele>20.1</ele>
        <time>2025-01-19T13:39:38Z</time>
      </trkpt>
      <trkpt lat="43.4257" lon="6.66468">
        <ele>20.2</ele>
        <time>2025-01-19T13:39:39Z</time>
      </trkpt>
      <trkpt lat="43.42571" lon="6.66467">
        <ele>20.2</ele>
        <time>2025-01-19T13:39:40Z</time>
      </trkpt>
      <trkpt lat="43.42572" lon="6.66467">
        <ele>20.2</ele>
        <time>2025-01-19T13:39:41Z</time>
      </trkpt>
      <trkpt lat="43.42573" lon="6.66466">
        <ele>20.2</ele>
        <time>2025-01-19T13:39:42Z</time>
      </trkpt>
      <trkpt lat="43.42574" lon="6.66466">
        <ele>20.2</ele>
        <time>2025-01-19T13:39:43Z</time>
      </trkpt>
      <trkpt lat="43.42575" lon="6.66465">
        <ele>20.1</ele>
        <time>2025-01-19T13:39:44Z</time>
      </trkpt>
      <trkpt lat="43.42576" lon="6.66465">
        <ele>20.1</ele>
        <time>2025-01-19T13:39:45Z</time>
      </trkpt>
      <trkpt lat="43.42578" lon="6.66465">
        <ele>20.1</ele>
        <time>2025-01-19T13:39:46Z</time>
      </trkpt>
      <trkpt lat="43.42579" lon="6.66464">
        <ele>20.1</ele>
        <time>2025-01-19T13:39:47Z</time>
      </trkpt>
      <trkpt lat="43.4258" lon="6.66464">
        <ele>20</ele>
        <time>2025-01-19T13:39:48Z</time>
      </trkpt>
      <trkpt lat="43.42581" lon="6.66464">
        <ele>20</ele>
        <time>2025-01-19T13:39:49Z</time>
      </trkpt>
      <trkpt lat="43.42583" lon="6.66464">
        <ele>19.9</ele>
        <time>2025-01-19T13:39:50Z</time>
      </trkpt>
      <trkpt lat="43.42584" lon="6.66463">
        <ele>19.8</ele>
        <time>2025-01-19T13:39:51Z</time>
      </trkpt>
      <trkpt lat="43.42585" lon="6.66463">
        <ele>19.8</ele>
        <time>2025-01-19T13:39:52Z</time>
      </trkpt>
      <trkpt lat="43.42586" lon="6.66463">
        <ele>19.8</ele>
        <time>2025-01-19T13:39:53Z</time>
      </trkpt>
      <trkpt lat="43.42587" lon="6.66463">
        <ele>19.8</ele>
        <time>2025-01-19T13:39:54Z</time>
      </trkpt>
      <trkpt lat="43.42589" lon="6.66462">
        <ele>19.8</ele>
        <time>2025-01-19T13:39:55Z</time>
      </trkpt>
      <trkpt lat="43.4259" lon="6.66462">
        <ele>19.9</ele>
        <time>2025-01-19T13:39:56Z</time>
      </trkpt>
      <trkpt lat="43.42591" lon="6.66462">
        <ele>20</ele>
        <time>2025-01-19T13:39:57Z</time>
      </trkpt>
      <trkpt lat="43.42593" lon="6.66462">
        <ele>20</ele>
        <time>2025-01-19T13:39:58Z</time>
      </trkpt>
      <trkpt lat="43.42594" lon="6.66462">
        <ele>20</ele>
        <time>2025-01-19T13:39:59Z</time>
      </trkpt>
      <trkpt lat="43.42594" lon="6.66461">
        <ele>20</ele>
        <time>2025-01-19T13:40:00Z</time>
      </trkpt>
      <trkpt lat="43.42596" lon="6.66461">
        <ele>20</ele>
        <time>2025-01-19T13:40:01Z</time>
      </trkpt>
      <trkpt lat="43.42597" lon="6.6646">
        <ele>20.1</ele>
        <time>2025-01-19T13:40:02Z</time>
      </trkpt>
      <trkpt lat="43.42598" lon="6.66459">
        <ele>20.1</ele>
        <time>2025-01-19T13:40:03Z</time>
      </trkpt>
      <trkpt lat="43.42599" lon="6.66458">
        <ele>20.1</ele>
        <time>2025-01-19T13:40:04Z</time>
      </trkpt>
      <trkpt lat="43.42599" lon="6.66457">
        <ele>20.1</ele>
        <time>2025-01-19T13:40:05Z</time>
      </trkpt>
      <trkpt lat="43.426" lon="6.66456">
        <ele>20.2</ele>
        <time>2025-01-19T13:40:06Z</time>
      </trkpt>
      <trkpt lat="43.42601" lon="6.66454">
        <ele>20.1</ele>
        <time>2025-01-19T13:40:07Z</time>
      </trkpt>
      <trkpt lat="43.42603" lon="6.66453">
        <ele>20.1</ele>
        <time>2025-01-19T13:40:08Z</time>
      </trkpt>
      <trkpt lat="43.42603" lon="6.66452">
        <ele>20</ele>
        <time>2025-01-19T13:40:09Z</time>
      </trkpt>
      <trkpt lat="43.42603" lon="6.6645">
        <ele>20</ele>
        <time>2025-01-19T13:40:10Z</time>
      </trkpt>
      <trkpt lat="43.42603" lon="6.66448">
        <ele>19.9</ele>
        <time>2025-01-19T13:40:11Z</time>
      </trkpt>
      <trkpt lat="43.42603" lon="6.66446">
        <ele>19.8</ele>
        <time>2025-01-19T13:40:12Z</time>
      </trkpt>
      <trkpt lat="43.42603" lon="6.66444">
        <ele>19.8</ele>
        <time>2025-01-19T13:40:13Z</time>
      </trkpt>
      <trkpt lat="43.42603" lon="6.66443">
        <ele>19.7</ele>
        <time>2025-01-19T13:40:14Z</time>
      </trkpt>
      <trkpt lat="43.42603" lon="6.66442">
        <ele>19.7</ele>
        <time>2025-01-19T13:40:15Z</time>
      </trkpt>
      <trkpt lat="43.42603" lon="6.6644">
        <ele>19.7</ele>
        <time>2025-01-19T13:40:16Z</time>
      </trkpt>
      <trkpt lat="43.42603" lon="6.66438">
        <ele>19.6</ele>
        <time>2025-01-19T13:40:17Z</time>
      </trkpt>
      <trkpt lat="43.42602" lon="6.66437">
        <ele>19.6</ele>
        <time>2025-01-19T13:40:18Z</time>
      </trkpt>
      <trkpt lat="43.42602" lon="6.66435">
        <ele>19.7</ele>
        <time>2025-01-19T13:40:19Z</time>
      </trkpt>
      <trkpt lat="43.42601" lon="6.66433">
        <ele>19.7</ele>
        <time>2025-01-19T13:40:20Z</time>
      </trkpt>
      <trkpt lat="43.426" lon="6.66431">
        <ele>19.7</ele>
        <time>2025-01-19T13:40:21Z</time>
      </trkpt>
      <trkpt lat="43.426" lon="6.6643">
        <ele>19.7</ele>
        <time>2025-01-19T13:40:22Z</time>
      </trkpt>
      <trkpt lat="43.42599" lon="6.66429">
        <ele>19.8</ele>
        <time>2025-01-19T13:40:23Z</time>
      </trkpt>
      <trkpt lat="43.42599" lon="6.66429">
        <ele>19.9</ele>
        <time>2025-01-19T13:40:24Z</time>
      </trkpt>
      <trkpt lat="43.42599" lon="6.66428">
        <ele>19.9</ele>
        <time>2025-01-19T13:40:25Z</time>
      </trkpt>
      <trkpt lat="43.42599" lon="6.66427">
        <ele>19.9</ele>
        <time>2025-01-19T13:40:26Z</time>
      </trkpt>
      <trkpt lat="43.42599" lon="6.66426">
        <ele>19.9</ele>
        <time>2025-01-19T13:40:27Z</time>
      </trkpt>
      <trkpt lat="43.42599" lon="6.66425">
        <ele>20</ele>
        <time>2025-01-19T13:40:28Z</time>
      </trkpt>
      <trkpt lat="43.426" lon="6.66424">
        <ele>20</ele>
        <time>2025-01-19T13:40:29Z</time>
      </trkpt>
      <trkpt lat="43.426" lon="6.66423">
        <ele>20.1</ele>
        <time>2025-01-19T13:40:30Z</time>
      </trkpt>
      <trkpt lat="43.426" lon="6.66422">
        <ele>20</ele>
        <time>2025-01-19T13:40:31Z</time>
      </trkpt>
      <trkpt lat="43.42599" lon="6.66421">
        <ele>20</ele>
        <time>2025-01-19T13:40:32Z</time>
      </trkpt>
      <trkpt lat="43.426" lon="6.6642">
        <ele>19.9</ele>
        <time>2025-01-19T13:40:33Z</time>
      </trkpt>
      <trkpt lat="43.426" lon="6.66418">
        <ele>19.9</ele>
        <time>2025-01-19T13:40:34Z</time>
      </trkpt>
      <trkpt lat="43.426" lon="6.66417">
        <ele>19.9</ele>
        <time>2025-01-19T13:40:35Z</time>
      </trkpt>
      <trkpt lat="43.42599" lon="6.66416">
        <ele>19.9</ele>
        <time>2025-01-19T13:40:36Z</time>
      </trkpt>
      <trkpt lat="43.426" lon="6.66415">
        <ele>20</ele>
        <time>2025-01-19T13:40:37Z</time>
      </trkpt>
      <trkpt lat="43.426" lon="6.66414">
        <ele>20.1</ele>
        <time>2025-01-19T13:40:38Z</time>
      </trkpt>
      <trkpt lat="43.42599" lon="6.66412">
        <ele>20.1</ele>
        <time>2025-01-19T13:40:39Z</time>
      </trkpt>
      <trkpt lat="43.42599" lon="6.66411">
        <ele>20.1</ele>
        <time>2025-01-19T13:40:40Z</time>
      </trkpt>
      <trkpt lat="43.42599" lon="6.6641">
        <ele>20.2</ele>
        <time>2025-01-19T13:40:41Z</time>
      </trkpt>
      <trkpt lat="43.42598" lon="6.66409">
        <ele>20.2</ele>
        <time>2025-01-19T13:40:42Z</time>
      </trkpt>
      <trkpt lat="43.42597" lon="6.66407">
        <ele>20.2</ele>
        <time>2025-01-19T13:40:43Z</time>
      </trkpt>
      <trkpt lat="43.42597" lon="6.66406">
        <ele>20.3</ele>
        <time>2025-01-19T13:40:44Z</time>
      </trkpt>
      <trkpt lat="43.42596" lon="6.66404">
        <ele>20.3</ele>
        <time>2025-01-19T13:40:45Z</time>
      </trkpt>
      <trkpt lat="43.42596" lon="6.66402">
        <ele>20.3</ele>
        <time>2025-01-19T13:40:46Z</time>
      </trkpt>
      <trkpt lat="43.42595" lon="6.66401">
        <ele>20.4</ele>
        <time>2025-01-19T13:40:47Z</time>
      </trkpt>
      <trkpt lat="43.42593" lon="6.66399">
        <ele>20.5</ele>
        <time>2025-01-19T13:40:48Z</time>
      </trkpt>
      <trkpt lat="43.42593" lon="6.66398">
        <ele>20.5</ele>
        <time>2025-01-19T13:40:49Z</time>
      </trkpt>
      <trkpt lat="43.42592" lon="6.66397">
        <ele>20.6</ele>
        <time>2025-01-19T13:40:50Z</time>
      </trkpt>
      <trkpt lat="43.42591" lon="6.66395">
        <ele>20.6</ele>
        <time>2025-01-19T13:40:51Z</time>
      </trkpt>
      <trkpt lat="43.4259" lon="6.66394">
        <ele>20.6</ele>
        <time>2025-01-19T13:40:52Z</time>
      </trkpt>
      <trkpt lat="43.4259" lon="6.66392">
        <ele>20.6</ele>
        <time>2025-01-19T13:40:53Z</time>
      </trkpt>
      <trkpt lat="43.42589" lon="6.66391">
        <ele>20.6</ele>
        <time>2025-01-19T13:40:54Z</time>
      </trkpt>
      <trkpt lat="43.42588" lon="6.66389">
        <ele>20.7</ele>
        <time>2025-01-19T13:40:55Z</time>
      </trkpt>
      <trkpt lat="43.42588" lon="6.66387">
        <ele>20.7</ele>
        <time>2025-01-19T13:40:56Z</time>
      </trkpt>
      <trkpt lat="43.42588" lon="6.66385">
        <ele>20.7</ele>
        <time>2025-01-19T13:40:57Z</time>
      </trkpt>
      <trkpt lat="43.42587" lon="6.66384">
        <ele>20.7</ele>
        <time>2025-01-19T13:40:58Z</time>
      </trkpt>
      <trkpt lat="43.42588" lon="6.66382">
        <ele>20.7</ele>
        <time>2025-01-19T13:40:59Z</time>
      </trkpt>
      <trkpt lat="43.42588" lon="6.66381">
        <ele>20.7</ele>
        <time>2025-01-19T13:41:00Z</time>
      </trkpt>
      <trkpt lat="43.42587" lon="6.6638">
        <ele>20.7</ele>
        <time>2025-01-19T13:41:01Z</time>
      </trkpt>
      <trkpt lat="43.42587" lon="6.66378">
        <ele>20.7</ele>
        <time>2025-01-19T13:41:02Z</time>
      </trkpt>
      <trkpt lat="43.42586" lon="6.66376">
        <ele>20.7</ele>
        <time>2025-01-19T13:41:03Z</time>
      </trkpt>
      <trkpt lat="43.42587" lon="6.66374">
        <ele>20.7</ele>
        <time>2025-01-19T13:41:04Z</time>
      </trkpt>
      <trkpt lat="43.42585" lon="6.66373">
        <ele>20.8</ele>
        <time>2025-01-19T13:41:05Z</time>
      </trkpt>
      <trkpt lat="43.42583" lon="6.66372">
        <ele>20.8</ele>
        <time>2025-01-19T13:41:06Z</time>
      </trkpt>
      <trkpt lat="43.42582" lon="6.66371">
        <ele>20.7</ele>
        <time>2025-01-19T13:41:07Z</time>
      </trkpt>
      <trkpt lat="43.42582" lon="6.66369">
        <ele>20.8</ele>
        <time>2025-01-19T13:41:08Z</time>
      </trkpt>
      <trkpt lat="43.42581" lon="6.66367">
        <ele>20.8</ele>
        <time>2025-01-19T13:41:09Z</time>
      </trkpt>
      <trkpt lat="43.42581" lon="6.66365">
        <ele>20.7</ele>
        <time>2025-01-19T13:41:10Z</time>
      </trkpt>
      <trkpt lat="43.4258" lon="6.66363">
        <ele>20.7</ele>
        <time>2025-01-19T13:41:11Z</time>
      </trkpt>
      <trkpt lat="43.4258" lon="6.66362">
        <ele>20.7</ele>
        <time>2025-01-19T13:41:12Z</time>
      </trkpt>
      <trkpt lat="43.4258" lon="6.6636">
        <ele>20.7</ele>
        <time>2025-01-19T13:41:13Z</time>
      </trkpt>
      <trkpt lat="43.42581" lon="6.66358">
        <ele>20.8</ele>
        <time>2025-01-19T13:41:14Z</time>
      </trkpt>
      <trkpt lat="43.42581" lon="6.66357">
        <ele>20.8</ele>
        <time>2025-01-19T13:41:15Z</time>
      </trkpt>
      <trkpt lat="43.42581" lon="6.66354">
        <ele>20.8</ele>
        <time>2025-01-19T13:41:16Z</time>
      </trkpt>
      <trkpt lat="43.42582" lon="6.66353">
        <ele>20.8</ele>
        <time>2025-01-19T13:41:17Z</time>
      </trkpt>
      <trkpt lat="43.42582" lon="6.66351">
        <ele>20.9</ele>
        <time>2025-01-19T13:41:18Z</time>
      </trkpt>
      <trkpt lat="43.42583" lon="6.66349">
        <ele>20.8</ele>
        <time>2025-01-19T13:41:19Z</time>
      </trkpt>
      <trkpt lat="43.42584" lon="6.66347">
        <ele>20.8</ele>
        <time>2025-01-19T13:41:20Z</time>
      </trkpt>
      <trkpt lat="43.42584" lon="6.66346">
        <ele>20.9</ele>
        <time>2025-01-19T13:41:21Z</time>
      </trkpt>
      <trkpt lat="43.42585" lon="6.66345">
        <ele>20.9</ele>
        <time>2025-01-19T13:41:22Z</time>
      </trkpt>
      <trkpt lat="43.42586" lon="6.66343">
        <ele>20.9</ele>
        <time>2025-01-19T13:41:23Z</time>
      </trkpt>
      <trkpt lat="43.42586" lon="6.66342">
        <ele>21</ele>
        <time>2025-01-19T13:41:24Z</time>
      </trkpt>
      <trkpt lat="43.42587" lon="6.6634">
        <ele>21</ele>
        <time>2025-01-19T13:41:25Z</time>
      </trkpt>
      <trkpt lat="43.42587" lon="6.66339">
        <ele>21</ele>
        <time>2025-01-19T13:41:26Z</time>
      </trkpt>
      <trkpt lat="43.42588" lon="6.66337">
        <ele>21</ele>
        <time>2025-01-19T13:41:27Z</time>
      </trkpt>
      <trkpt lat="43.42589" lon="6.66336">
        <ele>21</ele>
        <time>2025-01-19T13:41:28Z</time>
      </trkpt>
      <trkpt lat="43.42589" lon="6.66334">
        <ele>21.1</ele>
        <time>2025-01-19T13:41:29Z</time>
      </trkpt>
      <trkpt lat="43.4259" lon="6.66333">
        <ele>21</ele>
        <time>2025-01-19T13:41:30Z</time>
      </trkpt>
      <trkpt lat="43.42591" lon="6.66332">
        <ele>21</ele>
        <time>2025-01-19T13:41:31Z</time>
      </trkpt>
      <trkpt lat="43.42592" lon="6.6633">
        <ele>21</ele>
        <time>2025-01-19T13:41:32Z</time>
      </trkpt>
      <trkpt lat="43.42593" lon="6.66329">
        <ele>21</ele>
        <time>2025-01-19T13:41:33Z</time>
      </trkpt>
      <trkpt lat="43.42593" lon="6.66327">
        <ele>21.1</ele>
        <time>2025-01-19T13:41:34Z</time>
      </trkpt>
      <trkpt lat="43.42594" lon="6.66326">
        <ele>21.1</ele>
        <time>2025-01-19T13:41:35Z</time>
      </trkpt>
      <trkpt lat="43.42595" lon="6.66324">
        <ele>21.1</ele>
        <time>2025-01-19T13:41:36Z</time>
      </trkpt>
      <trkpt lat="43.42595" lon="6.66323">
        <ele>21.1</ele>
        <time>2025-01-19T13:41:37Z</time>
      </trkpt>
      <trkpt lat="43.42596" lon="6.66322">
        <ele>21</ele>
        <time>2025-01-19T13:41:38Z</time>
      </trkpt>
      <trkpt lat="43.42597" lon="6.66321">
        <ele>21</ele>
        <time>2025-01-19T13:41:39Z</time>
      </trkpt>
      <trkpt lat="43.42597" lon="6.66319">
        <ele>21</ele>
        <time>2025-01-19T13:41:40Z</time>
      </trkpt>
      <trkpt lat="43.42598" lon="6.66318">
        <ele>21</ele>
        <time>2025-01-19T13:41:41Z</time>
      </trkpt>
      <trkpt lat="43.42599" lon="6.66317">
        <ele>21</ele>
        <time>2025-01-19T13:41:42Z</time>
      </trkpt>
      <trkpt lat="43.42599" lon="6.66316">
        <ele>20.9</ele>
        <time>2025-01-19T13:41:43Z</time>
      </trkpt>
      <trkpt lat="43.426" lon="6.66315">
        <ele>20.9</ele>
        <time>2025-01-19T13:41:44Z</time>
      </trkpt>
      <trkpt lat="43.42601" lon="6.66314">
        <ele>20.9</ele>
        <time>2025-01-19T13:41:45Z</time>
      </trkpt>
      <trkpt lat="43.42602" lon="6.66312">
        <ele>20.9</ele>
        <time>2025-01-19T13:41:46Z</time>
      </trkpt>
      <trkpt lat="43.42602" lon="6.66311">
        <ele>20.9</ele>
        <time>2025-01-19T13:41:47Z</time>
      </trkpt>
      <trkpt lat="43.42603" lon="6.6631">
        <ele>20.9</ele>
        <time>2025-01-19T13:41:48Z</time>
      </trkpt>
      <trkpt lat="43.42604" lon="6.66309">
        <ele>20.9</ele>
        <time>2025-01-19T13:41:49Z</time>
      </trkpt>
      <trkpt lat="43.42605" lon="6.66307">
        <ele>21</ele>
        <time>2025-01-19T13:41:50Z</time>
      </trkpt>
      <trkpt lat="43.42605" lon="6.66306">
        <ele>21</ele>
        <time>2025-01-19T13:41:51Z</time>
      </trkpt>
      <trkpt lat="43.42606" lon="6.66305">
        <ele>21.2</ele>
        <time>2025-01-19T13:41:52Z</time>
      </trkpt>
      <trkpt lat="43.42607" lon="6.66303">
        <ele>21.3</ele>
        <time>2025-01-19T13:41:53Z</time>
      </trkpt>
      <trkpt lat="43.42608" lon="6.66302">
        <ele>21.3</ele>
        <time>2025-01-19T13:41:54Z</time>
      </trkpt>
      <trkpt lat="43.42608" lon="6.66301">
        <ele>21.2</ele>
        <time>2025-01-19T13:41:55Z</time>
      </trkpt>
      <trkpt lat="43.42609" lon="6.663">
        <ele>21.3</ele>
        <time>2025-01-19T13:41:56Z</time>
      </trkpt>
      <trkpt lat="43.42609" lon="6.66299">
        <ele>21.4</ele>
        <time>2025-01-19T13:41:57Z</time>
      </trkpt>
      <trkpt lat="43.4261" lon="6.66298">
        <ele>21.4</ele>
        <time>2025-01-19T13:41:58Z</time>
      </trkpt>
      <trkpt lat="43.4261" lon="6.66296">
        <ele>21.4</ele>
        <time>2025-01-19T13:41:59Z</time>
      </trkpt>
      <trkpt lat="43.4261" lon="6.66295">
        <ele>21.4</ele>
        <time>2025-01-19T13:42:00Z</time>
      </trkpt>
      <trkpt lat="43.4261" lon="6.66294">
        <ele>21.3</ele>
        <time>2025-01-19T13:42:01Z</time>
      </trkpt>
      <trkpt lat="43.4261" lon="6.66292">
        <ele>21.3</ele>
        <time>2025-01-19T13:42:02Z</time>
      </trkpt>
      <trkpt lat="43.4261" lon="6.66291">
        <ele>21.2</ele>
        <time>2025-01-19T13:42:03Z</time>
      </trkpt>
      <trkpt lat="43.4261" lon="6.66289">
        <ele>21.2</ele>
        <time>2025-01-19T13:42:04Z</time>
      </trkpt>
      <trkpt lat="43.4261" lon="6.66288">
        <ele>21.2</ele>
        <time>2025-01-19T13:42:05Z</time>
      </trkpt>
      <trkpt lat="43.4261" lon="6.66287">
        <ele>21.2</ele>
        <time>2025-01-19T13:42:06Z</time>
      </trkpt>
      <trkpt lat="43.42611" lon="6.66286">
        <ele>21.2</ele>
        <time>2025-01-19T13:42:07Z</time>
      </trkpt>
      <trkpt lat="43.42611" lon="6.66285">
        <ele>21.3</ele>
        <time>2025-01-19T13:42:08Z</time>
      </trkpt>
      <trkpt lat="43.42611" lon="6.66284">
        <ele>21.3</ele>
        <time>2025-01-19T13:42:09Z</time>
      </trkpt>
      <trkpt lat="43.42611" lon="6.66284">
        <ele>21.3</ele>
        <time>2025-01-19T13:42:10Z</time>
      </trkpt>
      <trkpt lat="43.42611" lon="6.66283">
        <ele>21.3</ele>
        <time>2025-01-19T13:42:11Z</time>
      </trkpt>
      <trkpt lat="43.42612" lon="6.66283">
        <ele>21.2</ele>
        <time>2025-01-19T13:42:12Z</time>
      </trkpt>
      <trkpt lat="43.42612" lon="6.66283">
        <ele>21.2</ele>
        <time>2025-01-19T13:42:13Z</time>
      </trkpt>
      <trkpt lat="43.42611" lon="6.66283">
        <ele>21.2</ele>
        <time>2025-01-19T13:42:14Z</time>
      </trkpt>
      <trkpt lat="43.42612" lon="6.66283">
        <ele>21.2</ele>
        <time>2025-01-19T13:42:15Z</time>
      </trkpt>
      <trkpt lat="43.42612" lon="6.66282">
        <ele>21</ele>
        <time>2025-01-19T13:42:16Z</time>
      </trkpt>
      <trkpt lat="43.42613" lon="6.66281">
        <ele>21</ele>
        <time>2025-01-19T13:42:17Z</time>
      </trkpt>
      <trkpt lat="43.42614" lon="6.66281">
        <ele>21.2</ele>
        <time>2025-01-19T13:42:18Z</time>
      </trkpt>
      <trkpt lat="43.42615" lon="6.6628">
        <ele>21.3</ele>
        <time>2025-01-19T13:42:19Z</time>
      </trkpt>
      <trkpt lat="43.42616" lon="6.66279">
        <ele>21.3</ele>
        <time>2025-01-19T13:42:20Z</time>
      </trkpt>
      <trkpt lat="43.42617" lon="6.66279">
        <ele>21.3</ele>
        <time>2025-01-19T13:42:21Z</time>
      </trkpt>
      <trkpt lat="43.42618" lon="6.66278">
        <ele>21.3</ele>
        <time>2025-01-19T13:42:22Z</time>
      </trkpt>
      <trkpt lat="43.42619" lon="6.66277">
        <ele>21.3</ele>
        <time>2025-01-19T13:42:23Z</time>
      </trkpt>
      <trkpt lat="43.4262" lon="6.66277">
        <ele>21.3</ele>
        <time>2025-01-19T13:42:24Z</time>
      </trkpt>
      <trkpt lat="43.4262" lon="6.66276">
        <ele>21.4</ele>
        <time>2025-01-19T13:42:25Z</time>
      </trkpt>
      <trkpt lat="43.42621" lon="6.66275">
        <ele>21.5</ele>
        <time>2025-01-19T13:42:26Z</time>
      </trkpt>
      <trkpt lat="43.42621" lon="6.66274">
        <ele>21.5</ele>
        <time>2025-01-19T13:42:27Z</time>
      </trkpt>
      <trkpt lat="43.42622" lon="6.66274">
        <ele>21.6</ele>
        <time>2025-01-19T13:42:28Z</time>
      </trkpt>
      <trkpt lat="43.42622" lon="6.66273">
        <ele>21.6</ele>
        <time>2025-01-19T13:42:29Z</time>
      </trkpt>
      <trkpt lat="43.42623" lon="6.66273">
        <ele>21.6</ele>
        <time>2025-01-19T13:42:30Z</time>
      </trkpt>
      <trkpt lat="43.42624" lon="6.66272">
        <ele>21.6</ele>
        <time>2025-01-19T13:42:31Z</time>
      </trkpt>
      <trkpt lat="43.42625" lon="6.66272">
        <ele>21.5</ele>
        <time>2025-01-19T13:42:32Z</time>
      </trkpt>
      <trkpt lat="43.42626" lon="6.66272">
        <ele>21.5</ele>
        <time>2025-01-19T13:42:33Z</time>
      </trkpt>
      <trkpt lat="43.42627" lon="6.66271">
        <ele>21.6</ele>
        <time>2025-01-19T13:42:34Z</time>
      </trkpt>
      <trkpt lat="43.42627" lon="6.66271">
        <ele>21.6</ele>
        <time>2025-01-19T13:42:35Z</time>
      </trkpt>
      <trkpt lat="43.42628" lon="6.6627">
        <ele>21.7</ele>
        <time>2025-01-19T13:42:36Z</time>
      </trkpt>
      <trkpt lat="43.42628" lon="6.66269">
        <ele>21.7</ele>
        <time>2025-01-19T13:42:37Z</time>
      </trkpt>
      <trkpt lat="43.42629" lon="6.66268">
        <ele>21.8</ele>
        <time>2025-01-19T13:42:38Z</time>
      </trkpt>
      <trkpt lat="43.4263" lon="6.66267">
        <ele>21.8</ele>
        <time>2025-01-19T13:42:39Z</time>
      </trkpt>
      <trkpt lat="43.4263" lon="6.66266">
        <ele>21.8</ele>
        <time>2025-01-19T13:42:40Z</time>
      </trkpt>
      <trkpt lat="43.42631" lon="6.66265">
        <ele>21.7</ele>
        <time>2025-01-19T13:42:41Z</time>
      </trkpt>
      <trkpt lat="43.42632" lon="6.66264">
        <ele>21.7</ele>
        <time>2025-01-19T13:42:42Z</time>
      </trkpt>
      <trkpt lat="43.42633" lon="6.66263">
        <ele>21.7</ele>
        <time>2025-01-19T13:42:43Z</time>
      </trkpt>
      <trkpt lat="43.42633" lon="6.66262">
        <ele>21.7</ele>
        <time>2025-01-19T13:42:44Z</time>
      </trkpt>
      <trkpt lat="43.42634" lon="6.66261">
        <ele>21.7</ele>
        <time>2025-01-19T13:42:45Z</time>
      </trkpt>
      <trkpt lat="43.42635" lon="6.6626">
        <ele>21.7</ele>
        <time>2025-01-19T13:42:46Z</time>
      </trkpt>
      <trkpt lat="43.42635" lon="6.66259">
        <ele>21.6</ele>
        <time>2025-01-19T13:42:47Z</time>
      </trkpt>
      <trkpt lat="43.42636" lon="6.66258">
        <ele>21.6</ele>
        <time>2025-01-19T13:42:48Z</time>
      </trkpt>
      <trkpt lat="43.42637" lon="6.66256">
        <ele>21.6</ele>
        <time>2025-01-19T13:42:49Z</time>
      </trkpt>
      <trkpt lat="43.42638" lon="6.66255">
        <ele>21.5</ele>
        <time>2025-01-19T13:42:50Z</time>
      </trkpt>
      <trkpt lat="43.42639" lon="6.66254">
        <ele>21.5</ele>
        <time>2025-01-19T13:42:51Z</time>
      </trkpt>
      <trkpt lat="43.42639" lon="6.66253">
        <ele>21.5</ele>
        <time>2025-01-19T13:42:52Z</time>
      </trkpt>
      <trkpt lat="43.4264" lon="6.66252">
        <ele>21.7</ele>
        <time>2025-01-19T13:42:53Z</time>
      </trkpt>
      <trkpt lat="43.4264" lon="6.66251">
        <ele>21.8</ele>
        <time>2025-01-19T13:42:54Z</time>
      </trkpt>
      <trkpt lat="43.42641" lon="6.66251">
        <ele>21.8</ele>
        <time>2025-01-19T13:42:55Z</time>
      </trkpt>
      <trkpt lat="43.42642" lon="6.6625">
        <ele>21.8</ele>
        <time>2025-01-19T13:42:56Z</time>
      </trkpt>
      <trkpt lat="43.42643" lon="6.66249">
        <ele>21.8</ele>
        <time>2025-01-19T13:42:57Z</time>
      </trkpt>
      <trkpt lat="43.42644" lon="6.66248">
        <ele>21.9</ele>
        <time>2025-01-19T13:42:58Z</time>
      </trkpt>
      <trkpt lat="43.42645" lon="6.66247">
        <ele>21.9</ele>
        <time>2025-01-19T13:42:59Z</time>
      </trkpt>
      <trkpt lat="43.42646" lon="6.66246">
        <ele>21.9</ele>
        <time>2025-01-19T13:43:00Z</time>
      </trkpt>
      <trkpt lat="43.42647" lon="6.66245">
        <ele>21.9</ele>
        <time>2025-01-19T13:43:01Z</time>
      </trkpt>
      <trkpt lat="43.42648" lon="6.66244">
        <ele>21.8</ele>
        <time>2025-01-19T13:43:02Z</time>
      </trkpt>
      <trkpt lat="43.42648" lon="6.66243">
        <ele>21.8</ele>
        <time>2025-01-19T13:43:03Z</time>
      </trkpt>
      <trkpt lat="43.42649" lon="6.66242">
        <ele>21.8</ele>
        <time>2025-01-19T13:43:04Z</time>
      </trkpt>
      <trkpt lat="43.4265" lon="6.66241">
        <ele>21.8</ele>
        <time>2025-01-19T13:43:05Z</time>
      </trkpt>
      <trkpt lat="43.42651" lon="6.6624">
        <ele>21.8</ele>
        <time>2025-01-19T13:43:06Z</time>
      </trkpt>
      <trkpt lat="43.42652" lon="6.66239">
        <ele>21.8</ele>
        <time>2025-01-19T13:43:07Z</time>
      </trkpt>
      <trkpt lat="43.42652" lon="6.66238">
        <ele>21.9</ele>
        <time>2025-01-19T13:43:08Z</time>
      </trkpt>
      <trkpt lat="43.42653" lon="6.66237">
        <ele>21.9</ele>
        <time>2025-01-19T13:43:09Z</time>
      </trkpt>
      <trkpt lat="43.42654" lon="6.66236">
        <ele>21.8</ele>
        <time>2025-01-19T13:43:10Z</time>
      </trkpt>
      <trkpt lat="43.42654" lon="6.66235">
        <ele>21.9</ele>
        <time>2025-01-19T13:43:11Z</time>
      </trkpt>
      <trkpt lat="43.42655" lon="6.66234">
        <ele>21.9</ele>
        <time>2025-01-19T13:43:12Z</time>
      </trkpt>
      <trkpt lat="43.42656" lon="6.66233">
        <ele>21.9</ele>
        <time>2025-01-19T13:43:13Z</time>
      </trkpt>
      <trkpt lat="43.42657" lon="6.66232">
        <ele>21.8</ele>
        <time>2025-01-19T13:43:14Z</time>
      </trkpt>
      <trkpt lat="43.42658" lon="6.66231">
        <ele>21.8</ele>
        <time>2025-01-19T13:43:15Z</time>
      </trkpt>
      <trkpt lat="43.42659" lon="6.6623">
        <ele>21.9</ele>
        <time>2025-01-19T13:43:16Z</time>
      </trkpt>
      <trkpt lat="43.42659" lon="6.66229">
        <ele>21.9</ele>
        <time>2025-01-19T13:43:17Z</time>
      </trkpt>
      <trkpt lat="43.4266" lon="6.66228">
        <ele>22</ele>
        <time>2025-01-19T13:43:18Z</time>
      </trkpt>
      <trkpt lat="43.42661" lon="6.66227">
        <ele>22</ele>
        <time>2025-01-19T13:43:19Z</time>
      </trkpt>
      <trkpt lat="43.42663" lon="6.66226">
        <ele>22</ele>
        <time>2025-01-19T13:43:20Z</time>
      </trkpt>
      <trkpt lat="43.42664" lon="6.66225">
        <ele>22</ele>
        <time>2025-01-19T13:43:21Z</time>
      </trkpt>
      <trkpt lat="43.42664" lon="6.66224">
        <ele>22.1</ele>
        <time>2025-01-19T13:43:22Z</time>
      </trkpt>
      <trkpt lat="43.42665" lon="6.66223">
        <ele>22.2</ele>
        <time>2025-01-19T13:43:23Z</time>
      </trkpt>
      <trkpt lat="43.42666" lon="6.66222">
        <ele>22.2</ele>
        <time>2025-01-19T13:43:24Z</time>
      </trkpt>
      <trkpt lat="43.42667" lon="6.66221">
        <ele>22.3</ele>
        <time>2025-01-19T13:43:25Z</time>
      </trkpt>
      <trkpt lat="43.42668" lon="6.6622">
        <ele>22.3</ele>
        <time>2025-01-19T13:43:26Z</time>
      </trkpt>
      <trkpt lat="43.42669" lon="6.66219">
        <ele>22.3</ele>
        <time>2025-01-19T13:43:27Z</time>
      </trkpt>
      <trkpt lat="43.4267" lon="6.66218">
        <ele>22.3</ele>
        <time>2025-01-19T13:43:28Z</time>
      </trkpt>
      <trkpt lat="43.42671" lon="6.66217">
        <ele>22.3</ele>
        <time>2025-01-19T13:43:29Z</time>
      </trkpt>
      <trkpt lat="43.42672" lon="6.66216">
        <ele>22.3</ele>
        <time>2025-01-19T13:43:30Z</time>
      </trkpt>
      <trkpt lat="43.42674" lon="6.66215">
        <ele>22.4</ele>
        <time>2025-01-19T13:43:31Z</time>
      </trkpt>
      <trkpt lat="43.42675" lon="6.66214">
        <ele>22.4</ele>
        <time>2025-01-19T13:43:32Z</time>
      </trkpt>
      <trkpt lat="43.42676" lon="6.66213">
        <ele>22.4</ele>
        <time>2025-01-19T13:43:33Z</time>
      </trkpt>
      <trkpt lat="43.42677" lon="6.66212">
        <ele>22.4</ele>
        <time>2025-01-19T13:43:34Z</time>
      </trkpt>
      <trkpt lat="43.42679" lon="6.66211">
        <ele>22.4</ele>
        <time>2025-01-19T13:43:35Z</time>
      </trkpt>
      <trkpt lat="43.4268" lon="6.6621">
        <ele>22.4</ele>
        <time>2025-01-19T13:43:36Z</time>
      </trkpt>
      <trkpt lat="43.42681" lon="6.6621">
        <ele>22.5</ele>
        <time>2025-01-19T13:43:37Z</time>
      </trkpt>
      <trkpt lat="43.42682" lon="6.66208">
        <ele>22.5</ele>
        <time>2025-01-19T13:43:38Z</time>
      </trkpt>
      <trkpt lat="43.42682" lon="6.66207">
        <ele>22.4</ele>
        <time>2025-01-19T13:43:39Z</time>
      </trkpt>
      <trkpt lat="43.42683" lon="6.66206">
        <ele>22.3</ele>
        <time>2025-01-19T13:43:40Z</time>
      </trkpt>
      <trkpt lat="43.42684" lon="6.66205">
        <ele>22.2</ele>
        <time>2025-01-19T13:43:41Z</time>
      </trkpt>
      <trkpt lat="43.42685" lon="6.66203">
        <ele>22.3</ele>
        <time>2025-01-19T13:43:42Z</time>
      </trkpt>
      <trkpt lat="43.42686" lon="6.66202">
        <ele>22.3</ele>
        <time>2025-01-19T13:43:43Z</time>
      </trkpt>
      <trkpt lat="43.42686" lon="6.66201">
        <ele>22.3</ele>
        <time>2025-01-19T13:43:44Z</time>
      </trkpt>
      <trkpt lat="43.42687" lon="6.662">
        <ele>22.4</ele>
        <time>2025-01-19T13:43:45Z</time>
      </trkpt>
      <trkpt lat="43.42687" lon="6.66199">
        <ele>22.4</ele>
        <time>2025-01-19T13:43:46Z</time>
      </trkpt>
      <trkpt lat="43.42688" lon="6.66198">
        <ele>22.4</ele>
        <time>2025-01-19T13:43:47Z</time>
      </trkpt>
      <trkpt lat="43.42689" lon="6.66197">
        <ele>22.5</ele>
        <time>2025-01-19T13:43:48Z</time>
      </trkpt>
      <trkpt lat="43.4269" lon="6.66196">
        <ele>22.5</ele>
        <time>2025-01-19T13:43:49Z</time>
      </trkpt>
      <trkpt lat="43.4269" lon="6.66195">
        <ele>22.6</ele>
        <time>2025-01-19T13:43:50Z</time>
      </trkpt>
      <trkpt lat="43.42691" lon="6.66194">
        <ele>22.5</ele>
        <time>2025-01-19T13:43:51Z</time>
      </trkpt>
      <trkpt lat="43.42691" lon="6.66193">
        <ele>22.5</ele>
        <time>2025-01-19T13:43:52Z</time>
      </trkpt>
      <trkpt lat="43.42693" lon="6.66192">
        <ele>22.4</ele>
        <time>2025-01-19T13:43:53Z</time>
      </trkpt>
      <trkpt lat="43.42694" lon="6.66192">
        <ele>22.5</ele>
        <time>2025-01-19T13:43:54Z</time>
      </trkpt>
      <trkpt lat="43.42694" lon="6.66191">
        <ele>22.5</ele>
        <time>2025-01-19T13:43:55Z</time>
      </trkpt>
      <trkpt lat="43.42695" lon="6.66191">
        <ele>22.5</ele>
        <time>2025-01-19T13:43:56Z</time>
      </trkpt>
      <trkpt lat="43.42695" lon="6.6619">
        <ele>22.5</ele>
        <time>2025-01-19T13:43:57Z</time>
      </trkpt>
      <trkpt lat="43.42696" lon="6.66189">
        <ele>22.5</ele>
        <time>2025-01-19T13:43:58Z</time>
      </trkpt>
      <trkpt lat="43.42697" lon="6.66189">
        <ele>22.5</ele>
        <time>2025-01-19T13:43:59Z</time>
      </trkpt>
      <trkpt lat="43.42698" lon="6.66188">
        <ele>22.5</ele>
        <time>2025-01-19T13:44:00Z</time>
      </trkpt>
      <trkpt lat="43.42699" lon="6.66188">
        <ele>22.4</ele>
        <time>2025-01-19T13:44:01Z</time>
      </trkpt>
      <trkpt lat="43.427" lon="6.66187">
        <ele>22.4</ele>
        <time>2025-01-19T13:44:02Z</time>
      </trkpt>
      <trkpt lat="43.42701" lon="6.66187">
        <ele>22.4</ele>
        <time>2025-01-19T13:44:03Z</time>
      </trkpt>
      <trkpt lat="43.42701" lon="6.66186">
        <ele>22.5</ele>
        <time>2025-01-19T13:44:04Z</time>
      </trkpt>
      <trkpt lat="43.42702" lon="6.66186">
        <ele>22.5</ele>
        <time>2025-01-19T13:44:05Z</time>
      </trkpt>
      <trkpt lat="43.42702" lon="6.66186">
        <ele>22.5</ele>
        <time>2025-01-19T13:44:06Z</time>
      </trkpt>
      <trkpt lat="43.42703" lon="6.66186">
        <ele>22.5</ele>
        <time>2025-01-19T13:44:07Z</time>
      </trkpt>
      <trkpt lat="43.42703" lon="6.66186">
        <ele>22.4</ele>
        <time>2025-01-19T13:44:08Z</time>
      </trkpt>
      <trkpt lat="43.42703" lon="6.66186">
        <ele>22.4</ele>
        <time>2025-01-19T13:44:09Z</time>
      </trkpt>
      <trkpt lat="43.42704" lon="6.66186">
        <ele>22.3</ele>
        <time>2025-01-19T13:44:10Z</time>
      </trkpt>
      <trkpt lat="43.42706" lon="6.66185">
        <ele>22.2</ele>
        <time>2025-01-19T13:44:11Z</time>
      </trkpt>
      <trkpt lat="43.42707" lon="6.66185">
        <ele>22.2</ele>
        <time>2025-01-19T13:44:12Z</time>
      </trkpt>
      <trkpt lat="43.42708" lon="6.66184">
        <ele>22.1</ele>
        <time>2025-01-19T13:44:13Z</time>
      </trkpt>
      <trkpt lat="43.42709" lon="6.66184">
        <ele>22</ele>
        <time>2025-01-19T13:44:14Z</time>
      </trkpt>
      <trkpt lat="43.4271" lon="6.66184">
        <ele>21.9</ele>
        <time>2025-01-19T13:44:15Z</time>
      </trkpt>
      <trkpt lat="43.42711" lon="6.66184">
        <ele>21.9</ele>
        <time>2025-01-19T13:44:16Z</time>
      </trkpt>
      <trkpt lat="43.42712" lon="6.66184">
        <ele>21.8</ele>
        <time>2025-01-19T13:44:17Z</time>
      </trkpt>
      <trkpt lat="43.42713" lon="6.66184">
        <ele>21.9</ele>
        <time>2025-01-19T13:44:18Z</time>
      </trkpt>
      <trkpt lat="43.42714" lon="6.66184">
        <ele>21.8</ele>
        <time>2025-01-19T13:44:19Z</time>
      </trkpt>
      <trkpt lat="43.42715" lon="6.66184">
        <ele>21.8</ele>
        <time>2025-01-19T13:44:20Z</time>
      </trkpt>
      <trkpt lat="43.42717" lon="6.66185">
        <ele>21.6</ele>
        <time>2025-01-19T13:44:21Z</time>
      </trkpt>
      <trkpt lat="43.42718" lon="6.66185">
        <ele>21.6</ele>
        <time>2025-01-19T13:44:22Z</time>
      </trkpt>
      <trkpt lat="43.42719" lon="6.66185">
        <ele>21.5</ele>
        <time>2025-01-19T13:44:23Z</time>
      </trkpt>
      <trkpt lat="43.4272" lon="6.66184">
        <ele>21.4</ele>
        <time>2025-01-19T13:44:24Z</time>
      </trkpt>
      <trkpt lat="43.42721" lon="6.66185">
        <ele>21.4</ele>
        <time>2025-01-19T13:44:25Z</time>
      </trkpt>
      <trkpt lat="43.42722" lon="6.66185">
        <ele>21.4</ele>
        <time>2025-01-19T13:44:26Z</time>
      </trkpt>
      <trkpt lat="43.42723" lon="6.66185">
        <ele>21.3</ele>
        <time>2025-01-19T13:44:27Z</time>
      </trkpt>
      <trkpt lat="43.42723" lon="6.66184">
        <ele>21.3</ele>
        <time>2025-01-19T13:44:28Z</time>
      </trkpt>
      <trkpt lat="43.42724" lon="6.66184">
        <ele>21.3</ele>
        <time>2025-01-19T13:44:29Z</time>
      </trkpt>
      <trkpt lat="43.42725" lon="6.66184">
        <ele>21.2</ele>
        <time>2025-01-19T13:44:30Z</time>
      </trkpt>
      <trkpt lat="43.42727" lon="6.66184">
        <ele>21.1</ele>
        <time>2025-01-19T13:44:31Z</time>
      </trkpt>
      <trkpt lat="43.4273" lon="6.66184">
        <ele>21</ele>
        <time>2025-01-19T13:44:32Z</time>
      </trkpt>
      <trkpt lat="43.42731" lon="6.66184">
        <ele>21</ele>
        <time>2025-01-19T13:44:33Z</time>
      </trkpt>
      <trkpt lat="43.42732" lon="6.66183">
        <ele>20.9</ele>
        <time>2025-01-19T13:44:34Z</time>
      </trkpt>
      <trkpt lat="43.42733" lon="6.66183">
        <ele>20.9</ele>
        <time>2025-01-19T13:44:35Z</time>
      </trkpt>
      <trkpt lat="43.42734" lon="6.66182">
        <ele>20.8</ele>
        <time>2025-01-19T13:44:36Z</time>
      </trkpt>
      <trkpt lat="43.42735" lon="6.66182">
        <ele>20.8</ele>
        <time>2025-01-19T13:44:37Z</time>
      </trkpt>
      <trkpt lat="43.42736" lon="6.66181">
        <ele>20.8</ele>
        <time>2025-01-19T13:44:38Z</time>
      </trkpt>
      <trkpt lat="43.42737" lon="6.66181">
        <ele>20.8</ele>
        <time>2025-01-19T13:44:39Z</time>
      </trkpt>
      <trkpt lat="43.42737" lon="6.66179">
        <ele>20.8</ele>
        <time>2025-01-19T13:44:40Z</time>
      </trkpt>
      <trkpt lat="43.42738" lon="6.66178">
        <ele>20.7</ele>
        <time>2025-01-19T13:44:41Z</time>
      </trkpt>
      <trkpt lat="43.42738" lon="6.66178">
        <ele>20.7</ele>
        <time>2025-01-19T13:44:42Z</time>
      </trkpt>
      <trkpt lat="43.42739" lon="6.66177">
        <ele>20.6</ele>
        <time>2025-01-19T13:44:43Z</time>
      </trkpt>
      <trkpt lat="43.42739" lon="6.66177">
        <ele>20.6</ele>
        <time>2025-01-19T13:44:44Z</time>
      </trkpt>
      <trkpt lat="43.42741" lon="6.66176">
        <ele>20.6</ele>
        <time>2025-01-19T13:44:45Z</time>
      </trkpt>
      <trkpt lat="43.42742" lon="6.66176">
        <ele>20.6</ele>
        <time>2025-01-19T13:44:46Z</time>
      </trkpt>
      <trkpt lat="43.42743" lon="6.66177">
        <ele>20.5</ele>
        <time>2025-01-19T13:44:47Z</time>
      </trkpt>
      <trkpt lat="43.42744" lon="6.66176">
        <ele>20.5</ele>
        <time>2025-01-19T13:44:48Z</time>
      </trkpt>
      <trkpt lat="43.42744" lon="6.66176">
        <ele>20.6</ele>
        <time>2025-01-19T13:44:49Z</time>
      </trkpt>
      <trkpt lat="43.42745" lon="6.66176">
        <ele>20.6</ele>
        <time>2025-01-19T13:44:50Z</time>
      </trkpt>
      <trkpt lat="43.42746" lon="6.66175">
        <ele>20.6</ele>
        <time>2025-01-19T13:44:51Z</time>
      </trkpt>
      <trkpt lat="43.42747" lon="6.66175">
        <ele>20.5</ele>
        <time>2025-01-19T13:44:52Z</time>
      </trkpt>
      <trkpt lat="43.42749" lon="6.66175">
        <ele>20.5</ele>
        <time>2025-01-19T13:44:53Z</time>
      </trkpt>
      <trkpt lat="43.4275" lon="6.66175">
        <ele>20.5</ele>
        <time>2025-01-19T13:44:54Z</time>
      </trkpt>
      <trkpt lat="43.42752" lon="6.66175">
        <ele>20.5</ele>
        <time>2025-01-19T13:44:55Z</time>
      </trkpt>
      <trkpt lat="43.42753" lon="6.66175">
        <ele>20.5</ele>
        <time>2025-01-19T13:44:56Z</time>
      </trkpt>
      <trkpt lat="43.42754" lon="6.66175">
        <ele>20.5</ele>
        <time>2025-01-19T13:44:57Z</time>
      </trkpt>
      <trkpt lat="43.42755" lon="6.66175">
        <ele>20.5</ele>
        <time>2025-01-19T13:44:58Z</time>
      </trkpt>
      <trkpt lat="43.42756" lon="6.66174">
        <ele>20.3</ele>
        <time>2025-01-19T13:44:59Z</time>
      </trkpt>
      <trkpt lat="43.42757" lon="6.66173">
        <ele>20.4</ele>
        <time>2025-01-19T13:45:00Z</time>
      </trkpt>
      <trkpt lat="43.42759" lon="6.66172">
        <ele>20.5</ele>
        <time>2025-01-19T13:45:01Z</time>
      </trkpt>
      <trkpt lat="43.4276" lon="6.66171">
        <ele>20.6</ele>
        <time>2025-01-19T13:45:02Z</time>
      </trkpt>
      <trkpt lat="43.42761" lon="6.6617">
        <ele>20.6</ele>
        <time>2025-01-19T13:45:03Z</time>
      </trkpt>
      <trkpt lat="43.42763" lon="6.66169">
        <ele>20.6</ele>
        <time>2025-01-19T13:45:04Z</time>
      </trkpt>
      <trkpt lat="43.42764" lon="6.6617">
        <ele>20.6</ele>
        <time>2025-01-19T13:45:05Z</time>
      </trkpt>
      <trkpt lat="43.42765" lon="6.66169">
        <ele>20.6</ele>
        <time>2025-01-19T13:45:06Z</time>
      </trkpt>
      <trkpt lat="43.42767" lon="6.66168">
        <ele>20.6</ele>
        <time>2025-01-19T13:45:07Z</time>
      </trkpt>
      <trkpt lat="43.42768" lon="6.66167">
        <ele>20.6</ele>
        <time>2025-01-19T13:45:08Z</time>
      </trkpt>
      <trkpt lat="43.42769" lon="6.66166">
        <ele>20.5</ele>
        <time>2025-01-19T13:45:09Z</time>
      </trkpt>
      <trkpt lat="43.42769" lon="6.66165">
        <ele>20.5</ele>
        <time>2025-01-19T13:45:10Z</time>
      </trkpt>
      <trkpt lat="43.4277" lon="6.66164">
        <ele>20.5</ele>
        <time>2025-01-19T13:45:11Z</time>
      </trkpt>
      <trkpt lat="43.42771" lon="6.66163">
        <ele>20.4</ele>
        <time>2025-01-19T13:45:12Z</time>
      </trkpt>
      <trkpt lat="43.42772" lon="6.66163">
        <ele>20.4</ele>
        <time>2025-01-19T13:45:13Z</time>
      </trkpt>
      <trkpt lat="43.42773" lon="6.66162">
        <ele>20.3</ele>
        <time>2025-01-19T13:45:14Z</time>
      </trkpt>
      <trkpt lat="43.42775" lon="6.66162">
        <ele>20.3</ele>
        <time>2025-01-19T13:45:15Z</time>
      </trkpt>
      <trkpt lat="43.42776" lon="6.66161">
        <ele>20.2</ele>
        <time>2025-01-19T13:45:16Z</time>
      </trkpt>
      <trkpt lat="43.42777" lon="6.6616">
        <ele>20.2</ele>
        <time>2025-01-19T13:45:17Z</time>
      </trkpt>
      <trkpt lat="43.42779" lon="6.66159">
        <ele>20.3</ele>
        <time>2025-01-19T13:45:18Z</time>
      </trkpt>
      <trkpt lat="43.4278" lon="6.66158">
        <ele>20.3</ele>
        <time>2025-01-19T13:45:19Z</time>
      </trkpt>
      <trkpt lat="43.42781" lon="6.66157">
        <ele>20.3</ele>
        <time>2025-01-19T13:45:20Z</time>
      </trkpt>
      <trkpt lat="43.42782" lon="6.66156">
        <ele>20.3</ele>
        <time>2025-01-19T13:45:21Z</time>
      </trkpt>
      <trkpt lat="43.42783" lon="6.66156">
        <ele>20.3</ele>
        <time>2025-01-19T13:45:22Z</time>
      </trkpt>
      <trkpt lat="43.42784" lon="6.66155">
        <ele>20.3</ele>
        <time>2025-01-19T13:45:23Z</time>
      </trkpt>
      <trkpt lat="43.42786" lon="6.66154">
        <ele>20.3</ele>
        <time>2025-01-19T13:45:24Z</time>
      </trkpt>
      <trkpt lat="43.42787" lon="6.66153">
        <ele>20.3</ele>
        <time>2025-01-19T13:45:25Z</time>
      </trkpt>
      <trkpt lat="43.42788" lon="6.66152">
        <ele>20.2</ele>
        <time>2025-01-19T13:45:26Z</time>
      </trkpt>
      <trkpt lat="43.42788" lon="6.6615">
        <ele>20.2</ele>
        <time>2025-01-19T13:45:27Z</time>
      </trkpt>
      <trkpt lat="43.4279" lon="6.66149">
        <ele>20.2</ele>
        <time>2025-01-19T13:45:28Z</time>
      </trkpt>
      <trkpt lat="43.4279" lon="6.66149">
        <ele>20.2</ele>
        <time>2025-01-19T13:45:29Z</time>
      </trkpt>
      <trkpt lat="43.42792" lon="6.66148">
        <ele>20.2</ele>
        <time>2025-01-19T13:45:30Z</time>
      </trkpt>
      <trkpt lat="43.42792" lon="6.66147">
        <ele>20.2</ele>
        <time>2025-01-19T13:45:31Z</time>
      </trkpt>
      <trkpt lat="43.42793" lon="6.66146">
        <ele>20.1</ele>
        <time>2025-01-19T13:45:32Z</time>
      </trkpt>
      <trkpt lat="43.42794" lon="6.66146">
        <ele>20.1</ele>
        <time>2025-01-19T13:45:33Z</time>
      </trkpt>
      <trkpt lat="43.42796" lon="6.66145">
        <ele>20</ele>
        <time>2025-01-19T13:45:34Z</time>
      </trkpt>
      <trkpt lat="43.42797" lon="6.66145">
        <ele>19.9</ele>
        <time>2025-01-19T13:45:35Z</time>
      </trkpt>
      <trkpt lat="43.42796" lon="6.66143">
        <ele>19.9</ele>
        <time>2025-01-19T13:45:36Z</time>
      </trkpt>
      <trkpt lat="43.42797" lon="6.66143">
        <ele>19.9</ele>
        <time>2025-01-19T13:45:37Z</time>
      </trkpt>
      <trkpt lat="43.42797" lon="6.66142">
        <ele>19.8</ele>
        <time>2025-01-19T13:45:38Z</time>
      </trkpt>
      <trkpt lat="43.42798" lon="6.66141">
        <ele>19.8</ele>
        <time>2025-01-19T13:45:39Z</time>
      </trkpt>
      <trkpt lat="43.42798" lon="6.66141">
        <ele>19.8</ele>
        <time>2025-01-19T13:45:40Z</time>
      </trkpt>
      <trkpt lat="43.42799" lon="6.6614">
        <ele>19.9</ele>
        <time>2025-01-19T13:45:41Z</time>
      </trkpt>
      <trkpt lat="43.428" lon="6.66139">
        <ele>19.9</ele>
        <time>2025-01-19T13:45:42Z</time>
      </trkpt>
      <trkpt lat="43.42802" lon="6.66139">
        <ele>19.9</ele>
        <time>2025-01-19T13:45:43Z</time>
      </trkpt>
      <trkpt lat="43.42803" lon="6.66138">
        <ele>19.9</ele>
        <time>2025-01-19T13:45:44Z</time>
      </trkpt>
      <trkpt lat="43.42804" lon="6.66136">
        <ele>19.8</ele>
        <time>2025-01-19T13:45:45Z</time>
      </trkpt>
      <trkpt lat="43.42805" lon="6.66136">
        <ele>19.9</ele>
        <time>2025-01-19T13:45:46Z</time>
      </trkpt>
      <trkpt lat="43.42806" lon="6.66135">
        <ele>19.9</ele>
        <time>2025-01-19T13:45:47Z</time>
      </trkpt>
      <trkpt lat="43.42808" lon="6.66134">
        <ele>19.9</ele>
        <time>2025-01-19T13:45:48Z</time>
      </trkpt>
      <trkpt lat="43.42809" lon="6.66133">
        <ele>19.9</ele>
        <time>2025-01-19T13:45:49Z</time>
      </trkpt>
      <trkpt lat="43.4281" lon="6.66132">
        <ele>20</ele>
        <time>2025-01-19T13:45:50Z</time>
      </trkpt>
      <trkpt lat="43.42811" lon="6.66131">
        <ele>20</ele>
        <time>2025-01-19T13:45:51Z</time>
      </trkpt>
      <trkpt lat="43.42812" lon="6.6613">
        <ele>20</ele>
        <time>2025-01-19T13:45:52Z</time>
      </trkpt>
      <trkpt lat="43.42813" lon="6.66129">
        <ele>20.1</ele>
        <time>2025-01-19T13:45:53Z</time>
      </trkpt>
      <trkpt lat="43.42815" lon="6.66129">
        <ele>20.1</ele>
        <time>2025-01-19T13:45:54Z</time>
      </trkpt>
      <trkpt lat="43.42815" lon="6.66128">
        <ele>20.2</ele>
        <time>2025-01-19T13:45:55Z</time>
      </trkpt>
      <trkpt lat="43.42817" lon="6.66128">
        <ele>20.2</ele>
        <time>2025-01-19T13:45:56Z</time>
      </trkpt>
      <trkpt lat="43.42818" lon="6.66127">
        <ele>20.1</ele>
        <time>2025-01-19T13:45:57Z</time>
      </trkpt>
      <trkpt lat="43.42819" lon="6.66126">
        <ele>20.2</ele>
        <time>2025-01-19T13:45:58Z</time>
      </trkpt>
      <trkpt lat="43.4282" lon="6.66125">
        <ele>20.1</ele>
        <time>2025-01-19T13:45:59Z</time>
      </trkpt>
      <trkpt lat="43.42821" lon="6.66124">
        <ele>20.1</ele>
        <time>2025-01-19T13:46:00Z</time>
      </trkpt>
      <trkpt lat="43.42822" lon="6.66123">
        <ele>20.2</ele>
        <time>2025-01-19T13:46:01Z</time>
      </trkpt>
      <trkpt lat="43.42823" lon="6.66122">
        <ele>20.2</ele>
        <time>2025-01-19T13:46:02Z</time>
      </trkpt>
      <trkpt lat="43.42825" lon="6.66122">
        <ele>20.2</ele>
        <time>2025-01-19T13:46:03Z</time>
      </trkpt>
      <trkpt lat="43.42826" lon="6.66121">
        <ele>20.2</ele>
        <time>2025-01-19T13:46:04Z</time>
      </trkpt>
      <trkpt lat="43.42827" lon="6.6612">
        <ele>20.2</ele>
        <time>2025-01-19T13:46:05Z</time>
      </trkpt>
      <trkpt lat="43.42828" lon="6.6612">
        <ele>20</ele>
        <time>2025-01-19T13:46:06Z</time>
      </trkpt>
      <trkpt lat="43.42829" lon="6.6612">
        <ele>20.1</ele>
        <time>2025-01-19T13:46:07Z</time>
      </trkpt>
      <trkpt lat="43.42831" lon="6.66119">
        <ele>20.1</ele>
        <time>2025-01-19T13:46:08Z</time>
      </trkpt>
      <trkpt lat="43.42832" lon="6.66118">
        <ele>20.1</ele>
        <time>2025-01-19T13:46:09Z</time>
      </trkpt>
      <trkpt lat="43.42833" lon="6.66117">
        <ele>20.1</ele>
        <time>2025-01-19T13:46:10Z</time>
      </trkpt>
      <trkpt lat="43.42834" lon="6.66116">
        <ele>20.2</ele>
        <time>2025-01-19T13:46:11Z</time>
      </trkpt>
      <trkpt lat="43.42836" lon="6.66116">
        <ele>20.2</ele>
        <time>2025-01-19T13:46:12Z</time>
      </trkpt>
      <trkpt lat="43.42836" lon="6.66115">
        <ele>20.2</ele>
        <time>2025-01-19T13:46:13Z</time>
      </trkpt>
      <trkpt lat="43.42837" lon="6.66114">
        <ele>20.1</ele>
        <time>2025-01-19T13:46:14Z</time>
      </trkpt>
      <trkpt lat="43.42839" lon="6.66113">
        <ele>20.1</ele>
        <time>2025-01-19T13:46:15Z</time>
      </trkpt>
      <trkpt lat="43.42839" lon="6.66113">
        <ele>20.1</ele>
        <time>2025-01-19T13:46:16Z</time>
      </trkpt>
      <trkpt lat="43.42841" lon="6.66113">
        <ele>20.1</ele>
        <time>2025-01-19T13:46:17Z</time>
      </trkpt>
      <trkpt lat="43.42842" lon="6.66112">
        <ele>20.1</ele>
        <time>2025-01-19T13:46:18Z</time>
      </trkpt>
      <trkpt lat="43.42843" lon="6.66111">
        <ele>20.1</ele>
        <time>2025-01-19T13:46:19Z</time>
      </trkpt>
      <trkpt lat="43.42844" lon="6.66111">
        <ele>20.1</ele>
        <time>2025-01-19T13:46:20Z</time>
      </trkpt>
      <trkpt lat="43.42845" lon="6.6611">
        <ele>20.1</ele>
        <time>2025-01-19T13:46:21Z</time>
      </trkpt>
      <trkpt lat="43.42847" lon="6.66109">
        <ele>20.2</ele>
        <time>2025-01-19T13:46:22Z</time>
      </trkpt>
      <trkpt lat="43.42848" lon="6.66109">
        <ele>20.2</ele>
        <time>2025-01-19T13:46:23Z</time>
      </trkpt>
      <trkpt lat="43.42849" lon="6.66108">
        <ele>20.2</ele>
        <time>2025-01-19T13:46:24Z</time>
      </trkpt>
      <trkpt lat="43.4285" lon="6.66108">
        <ele>20.2</ele>
        <time>2025-01-19T13:46:25Z</time>
      </trkpt>
      <trkpt lat="43.42852" lon="6.66107">
        <ele>20.2</ele>
        <time>2025-01-19T13:46:26Z</time>
      </trkpt>
      <trkpt lat="43.42854" lon="6.66106">
        <ele>20.1</ele>
        <time>2025-01-19T13:46:27Z</time>
      </trkpt>
      <trkpt lat="43.42855" lon="6.66106">
        <ele>20.1</ele>
        <time>2025-01-19T13:46:28Z</time>
      </trkpt>
      <trkpt lat="43.42856" lon="6.66106">
        <ele>20.1</ele>
        <time>2025-01-19T13:46:29Z</time>
      </trkpt>
      <trkpt lat="43.42857" lon="6.66106">
        <ele>20.2</ele>
        <time>2025-01-19T13:46:30Z</time>
      </trkpt>
      <trkpt lat="43.42858" lon="6.66105">
        <ele>20.2</ele>
        <time>2025-01-19T13:46:31Z</time>
      </trkpt>
      <trkpt lat="43.4286" lon="6.66105">
        <ele>20.2</ele>
        <time>2025-01-19T13:46:32Z</time>
      </trkpt>
      <trkpt lat="43.42861" lon="6.66104">
        <ele>20.1</ele>
        <time>2025-01-19T13:46:33Z</time>
      </trkpt>
      <trkpt lat="43.42862" lon="6.66103">
        <ele>20.1</ele>
        <time>2025-01-19T13:46:34Z</time>
      </trkpt>
      <trkpt lat="43.42862" lon="6.66102">
        <ele>20.1</ele>
        <time>2025-01-19T13:46:35Z</time>
      </trkpt>
      <trkpt lat="43.42864" lon="6.66102">
        <ele>20</ele>
        <time>2025-01-19T13:46:36Z</time>
      </trkpt>
      <trkpt lat="43.42864" lon="6.66101">
        <ele>20</ele>
        <time>2025-01-19T13:46:37Z</time>
      </trkpt>
      <trkpt lat="43.42866" lon="6.661">
        <ele>19.9</ele>
        <time>2025-01-19T13:46:38Z</time>
      </trkpt>
      <trkpt lat="43.42867" lon="6.66099">
        <ele>20</ele>
        <time>2025-01-19T13:46:39Z</time>
      </trkpt>
      <trkpt lat="43.42868" lon="6.66098">
        <ele>20.1</ele>
        <time>2025-01-19T13:46:40Z</time>
      </trkpt>
      <trkpt lat="43.42869" lon="6.66098">
        <ele>20.2</ele>
        <time>2025-01-19T13:46:41Z</time>
      </trkpt>
      <trkpt lat="43.42871" lon="6.66097">
        <ele>20.2</ele>
        <time>2025-01-19T13:46:42Z</time>
      </trkpt>
      <trkpt lat="43.42872" lon="6.66097">
        <ele>20.2</ele>
        <time>2025-01-19T13:46:43Z</time>
      </trkpt>
      <trkpt lat="43.42873" lon="6.66096">
        <ele>20.3</ele>
        <time>2025-01-19T13:46:44Z</time>
      </trkpt>
      <trkpt lat="43.42875" lon="6.66096">
        <ele>20.3</ele>
        <time>2025-01-19T13:46:45Z</time>
      </trkpt>
      <trkpt lat="43.42876" lon="6.66095">
        <ele>20.4</ele>
        <time>2025-01-19T13:46:46Z</time>
      </trkpt>
      <trkpt lat="43.42876" lon="6.66095">
        <ele>20.4</ele>
        <time>2025-01-19T13:46:47Z</time>
      </trkpt>
      <trkpt lat="43.42878" lon="6.66095">
        <ele>20.4</ele>
        <time>2025-01-19T13:46:48Z</time>
      </trkpt>
      <trkpt lat="43.4288" lon="6.66095">
        <ele>20.4</ele>
        <time>2025-01-19T13:46:49Z</time>
      </trkpt>
      <trkpt lat="43.42881" lon="6.66095">
        <ele>20.4</ele>
        <time>2025-01-19T13:46:50Z</time>
      </trkpt>
      <trkpt lat="43.42882" lon="6.66094">
        <ele>20.4</ele>
        <time>2025-01-19T13:46:51Z</time>
      </trkpt>
      <trkpt lat="43.42883" lon="6.66093">
        <ele>20.4</ele>
        <time>2025-01-19T13:46:52Z</time>
      </trkpt>
      <trkpt lat="43.42884" lon="6.66093">
        <ele>20.5</ele>
        <time>2025-01-19T13:46:53Z</time>
      </trkpt>
      <trkpt lat="43.42886" lon="6.66093">
        <ele>20.5</ele>
        <time>2025-01-19T13:46:54Z</time>
      </trkpt>
      <trkpt lat="43.42887" lon="6.66093">
        <ele>20.5</ele>
        <time>2025-01-19T13:46:55Z</time>
      </trkpt>
      <trkpt lat="43.42888" lon="6.66092">
        <ele>20.6</ele>
        <time>2025-01-19T13:46:56Z</time>
      </trkpt>
      <trkpt lat="43.42889" lon="6.66091">
        <ele>20.6</ele>
        <time>2025-01-19T13:46:57Z</time>
      </trkpt>
      <trkpt lat="43.42889" lon="6.66091">
        <ele>20.7</ele>
        <time>2025-01-19T13:46:58Z</time>
      </trkpt>
      <trkpt lat="43.42891" lon="6.66091">
        <ele>20.6</ele>
        <time>2025-01-19T13:46:59Z</time>
      </trkpt>
      <trkpt lat="43.42892" lon="6.66089">
        <ele>20.6</ele>
        <time>2025-01-19T13:47:00Z</time>
      </trkpt>
      <trkpt lat="43.42893" lon="6.66089">
        <ele>20.6</ele>
        <time>2025-01-19T13:47:01Z</time>
      </trkpt>
      <trkpt lat="43.42893" lon="6.66089">
        <ele>20.6</ele>
        <time>2025-01-19T13:47:02Z</time>
      </trkpt>
      <trkpt lat="43.42894" lon="6.66089">
        <ele>20.6</ele>
        <time>2025-01-19T13:47:03Z</time>
      </trkpt>
      <trkpt lat="43.42895" lon="6.66089">
        <ele>20.5</ele>
        <time>2025-01-19T13:47:04Z</time>
      </trkpt>
      <trkpt lat="43.42896" lon="6.66089">
        <ele>20.5</ele>
        <time>2025-01-19T13:47:05Z</time>
      </trkpt>
      <trkpt lat="43.42898" lon="6.66088">
        <ele>20.5</ele>
        <time>2025-01-19T13:47:06Z</time>
      </trkpt>
      <trkpt lat="43.429" lon="6.66088">
        <ele>20.6</ele>
        <time>2025-01-19T13:47:07Z</time>
      </trkpt>
      <trkpt lat="43.42901" lon="6.66088">
        <ele>20.7</ele>
        <time>2025-01-19T13:47:08Z</time>
      </trkpt>
      <trkpt lat="43.42903" lon="6.66087">
        <ele>20.8</ele>
        <time>2025-01-19T13:47:09Z</time>
      </trkpt>
      <trkpt lat="43.42904" lon="6.66087">
        <ele>20.9</ele>
        <time>2025-01-19T13:47:10Z</time>
      </trkpt>
      <trkpt lat="43.42906" lon="6.66088">
        <ele>20.9</ele>
        <time>2025-01-19T13:47:11Z</time>
      </trkpt>
      <trkpt lat="43.42907" lon="6.66088">
        <ele>21</ele>
        <time>2025-01-19T13:47:12Z</time>
      </trkpt>
      <trkpt lat="43.42909" lon="6.66088">
        <ele>21.1</ele>
        <time>2025-01-19T13:47:13Z</time>
      </trkpt>
      <trkpt lat="43.42911" lon="6.66089">
        <ele>21.1</ele>
        <time>2025-01-19T13:47:14Z</time>
      </trkpt>
      <trkpt lat="43.42911" lon="6.66089">
        <ele>21.2</ele>
        <time>2025-01-19T13:47:15Z</time>
      </trkpt>
      <trkpt lat="43.42912" lon="6.66089">
        <ele>21.2</ele>
        <time>2025-01-19T13:47:16Z</time>
      </trkpt>
      <trkpt lat="43.42914" lon="6.66088">
        <ele>21.2</ele>
        <time>2025-01-19T13:47:17Z</time>
      </trkpt>
      <trkpt lat="43.42914" lon="6.66088">
        <ele>21.2</ele>
        <time>2025-01-19T13:47:18Z</time>
      </trkpt>
      <trkpt lat="43.42916" lon="6.66088">
        <ele>21.2</ele>
        <time>2025-01-19T13:47:19Z</time>
      </trkpt>
      <trkpt lat="43.42918" lon="6.66087">
        <ele>21.2</ele>
        <time>2025-01-19T13:47:20Z</time>
      </trkpt>
      <trkpt lat="43.42922" lon="6.66088">
        <ele>21.2</ele>
        <time>2025-01-19T13:47:21Z</time>
      </trkpt>
      <trkpt lat="43.42921" lon="6.66088">
        <ele>21.1</ele>
        <time>2025-01-19T13:47:22Z</time>
      </trkpt>
      <trkpt lat="43.42922" lon="6.66088">
        <ele>21.1</ele>
        <time>2025-01-19T13:47:23Z</time>
      </trkpt>
      <trkpt lat="43.42921" lon="6.66087">
        <ele>21.2</ele>
        <time>2025-01-19T13:47:24Z</time>
      </trkpt>
      <trkpt lat="43.4292" lon="6.66087">
        <ele>21.2</ele>
        <time>2025-01-19T13:47:25Z</time>
      </trkpt>
      <trkpt lat="43.4292" lon="6.66087">
        <ele>21.3</ele>
        <time>2025-01-19T13:47:26Z</time>
      </trkpt>
      <trkpt lat="43.4292" lon="6.66087">
        <ele>21.3</ele>
        <time>2025-01-19T13:47:27Z</time>
      </trkpt>
      <trkpt lat="43.4292" lon="6.66087">
        <ele>21.4</ele>
        <time>2025-01-19T13:47:28Z</time>
      </trkpt>
      <trkpt lat="43.4292" lon="6.66088">
        <ele>21.5</ele>
        <time>2025-01-19T13:47:29Z</time>
      </trkpt>
      <trkpt lat="43.42921" lon="6.66088">
        <ele>21.5</ele>
        <time>2025-01-19T13:47:30Z</time>
      </trkpt>
      <trkpt lat="43.42921" lon="6.66089">
        <ele>21.5</ele>
        <time>2025-01-19T13:47:31Z</time>
      </trkpt>
      <trkpt lat="43.42922" lon="6.66089">
        <ele>21.6</ele>
        <time>2025-01-19T13:47:32Z</time>
      </trkpt>
      <trkpt lat="43.42923" lon="6.6609">
        <ele>21.7</ele>
        <time>2025-01-19T13:47:33Z</time>
      </trkpt>
      <trkpt lat="43.42923" lon="6.6609">
        <ele>21.7</ele>
        <time>2025-01-19T13:47:34Z</time>
      </trkpt>
      <trkpt lat="43.42922" lon="6.66089">
        <ele>21.7</ele>
        <time>2025-01-19T13:47:35Z</time>
      </trkpt>
      <trkpt lat="43.42921" lon="6.66089">
        <ele>21.7</ele>
        <time>2025-01-19T13:47:36Z</time>
      </trkpt>
      <trkpt lat="43.42922" lon="6.66089">
        <ele>21.7</ele>
        <time>2025-01-19T13:47:37Z</time>
      </trkpt>
      <trkpt lat="43.42923" lon="6.66088">
        <ele>21.8</ele>
        <time>2025-01-19T13:47:38Z</time>
      </trkpt>
      <trkpt lat="43.42923" lon="6.66089">
        <ele>21.8</ele>
        <time>2025-01-19T13:47:39Z</time>
      </trkpt>
      <trkpt lat="43.42923" lon="6.66088">
        <ele>21.8</ele>
        <time>2025-01-19T13:47:40Z</time>
      </trkpt>
      <trkpt lat="43.42924" lon="6.66088">
        <ele>21.7</ele>
        <time>2025-01-19T13:47:41Z</time>
      </trkpt>
      <trkpt lat="43.42926" lon="6.66087">
        <ele>21.7</ele>
        <time>2025-01-19T13:47:42Z</time>
      </trkpt>
      <trkpt lat="43.42928" lon="6.66086">
        <ele>21.7</ele>
        <time>2025-01-19T13:47:43Z</time>
      </trkpt>
      <trkpt lat="43.42928" lon="6.66085">
        <ele>21.7</ele>
        <time>2025-01-19T13:47:44Z</time>
      </trkpt>
      <trkpt lat="43.4293" lon="6.66084">
        <ele>21.7</ele>
        <time>2025-01-19T13:47:45Z</time>
      </trkpt>
      <trkpt lat="43.42932" lon="6.66084">
        <ele>21.8</ele>
        <time>2025-01-19T13:47:46Z</time>
      </trkpt>
      <trkpt lat="43.42933" lon="6.66084">
        <ele>21.8</ele>
        <time>2025-01-19T13:47:47Z</time>
      </trkpt>
      <trkpt lat="43.42935" lon="6.66084">
        <ele>21.9</ele>
        <time>2025-01-19T13:47:48Z</time>
      </trkpt>
      <trkpt lat="43.42936" lon="6.66083">
        <ele>21.9</ele>
        <time>2025-01-19T13:47:49Z</time>
      </trkpt>
      <trkpt lat="43.42938" lon="6.66084">
        <ele>22</ele>
        <time>2025-01-19T13:47:50Z</time>
      </trkpt>
      <trkpt lat="43.42939" lon="6.66081">
        <ele>22.1</ele>
        <time>2025-01-19T13:47:51Z</time>
      </trkpt>
      <trkpt lat="43.42941" lon="6.66081">
        <ele>22.1</ele>
        <time>2025-01-19T13:47:52Z</time>
      </trkpt>
      <trkpt lat="43.42942" lon="6.6608">
        <ele>22.2</ele>
        <time>2025-01-19T13:47:53Z</time>
      </trkpt>
      <trkpt lat="43.42941" lon="6.6608">
        <ele>22.3</ele>
        <time>2025-01-19T13:47:54Z</time>
      </trkpt>
      <trkpt lat="43.42942" lon="6.66079">
        <ele>22.3</ele>
        <time>2025-01-19T13:47:55Z</time>
      </trkpt>
      <trkpt lat="43.42942" lon="6.66078">
        <ele>22.3</ele>
        <time>2025-01-19T13:47:56Z</time>
      </trkpt>
      <trkpt lat="43.42942" lon="6.66077">
        <ele>22.3</ele>
        <time>2025-01-19T13:47:57Z</time>
      </trkpt>
      <trkpt lat="43.42943" lon="6.66076">
        <ele>22.3</ele>
        <time>2025-01-19T13:47:58Z</time>
      </trkpt>
      <trkpt lat="43.42943" lon="6.66074">
        <ele>22.4</ele>
        <time>2025-01-19T13:47:59Z</time>
      </trkpt>
      <trkpt lat="43.42944" lon="6.66073">
        <ele>22.4</ele>
        <time>2025-01-19T13:48:00Z</time>
      </trkpt>
      <trkpt lat="43.42946" lon="6.66071">
        <ele>22.5</ele>
        <time>2025-01-19T13:48:01Z</time>
      </trkpt>
      <trkpt lat="43.42946" lon="6.66069">
        <ele>22.5</ele>
        <time>2025-01-19T13:48:02Z</time>
      </trkpt>
      <trkpt lat="43.42946" lon="6.66067">
        <ele>22.5</ele>
        <time>2025-01-19T13:48:03Z</time>
      </trkpt>
      <trkpt lat="43.42946" lon="6.66065">
        <ele>22.6</ele>
        <time>2025-01-19T13:48:04Z</time>
      </trkpt>
      <trkpt lat="43.42947" lon="6.66063">
        <ele>22.7</ele>
        <time>2025-01-19T13:48:05Z</time>
      </trkpt>
      <trkpt lat="43.42949" lon="6.66061">
        <ele>22.7</ele>
        <time>2025-01-19T13:48:06Z</time>
      </trkpt>
      <trkpt lat="43.4295" lon="6.66059">
        <ele>22.8</ele>
        <time>2025-01-19T13:48:07Z</time>
      </trkpt>
      <trkpt lat="43.42952" lon="6.66058">
        <ele>22.9</ele>
        <time>2025-01-19T13:48:08Z</time>
      </trkpt>
      <trkpt lat="43.42953" lon="6.66057">
        <ele>22.9</ele>
        <time>2025-01-19T13:48:09Z</time>
      </trkpt>
      <trkpt lat="43.42954" lon="6.66055">
        <ele>23</ele>
        <time>2025-01-19T13:48:10Z</time>
      </trkpt>
      <trkpt lat="43.42954" lon="6.66054">
        <ele>23</ele>
        <time>2025-01-19T13:48:11Z</time>
      </trkpt>
      <trkpt lat="43.42956" lon="6.66053">
        <ele>23.1</ele>
        <time>2025-01-19T13:48:12Z</time>
      </trkpt>
      <trkpt lat="43.42956" lon="6.66051">
        <ele>23.2</ele>
        <time>2025-01-19T13:48:13Z</time>
      </trkpt>
      <trkpt lat="43.42957" lon="6.6605">
        <ele>23.2</ele>
        <time>2025-01-19T13:48:14Z</time>
      </trkpt>
      <trkpt lat="43.42958" lon="6.66049">
        <ele>23.3</ele>
        <time>2025-01-19T13:48:15Z</time>
      </trkpt>
      <trkpt lat="43.42959" lon="6.66048">
        <ele>23.3</ele>
        <time>2025-01-19T13:48:16Z</time>
      </trkpt>
      <trkpt lat="43.4296" lon="6.66047">
        <ele>23.4</ele>
        <time>2025-01-19T13:48:17Z</time>
      </trkpt>
      <trkpt lat="43.42961" lon="6.66046">
        <ele>23.4</ele>
        <time>2025-01-19T13:48:18Z</time>
      </trkpt>
      <trkpt lat="43.42962" lon="6.66044">
        <ele>23.5</ele>
        <time>2025-01-19T13:48:19Z</time>
      </trkpt>
      <trkpt lat="43.42963" lon="6.66043">
        <ele>23.6</ele>
        <time>2025-01-19T13:48:20Z</time>
      </trkpt>
      <trkpt lat="43.42965" lon="6.66041">
        <ele>23.7</ele>
        <time>2025-01-19T13:48:21Z</time>
      </trkpt>
      <trkpt lat="43.42966" lon="6.66039">
        <ele>23.8</ele>
        <time>2025-01-19T13:48:22Z</time>
      </trkpt>
      <trkpt lat="43.42968" lon="6.66037">
        <ele>23.9</ele>
        <time>2025-01-19T13:48:23Z</time>
      </trkpt>
      <trkpt lat="43.42969" lon="6.66035">
        <ele>24</ele>
        <time>2025-01-19T13:48:24Z</time>
      </trkpt>
      <trkpt lat="43.42969" lon="6.66033">
        <ele>24.1</ele>
        <time>2025-01-19T13:48:25Z</time>
      </trkpt>
      <trkpt lat="43.4297" lon="6.66033">
        <ele>24.2</ele>
        <time>2025-01-19T13:48:26Z</time>
      </trkpt>
      <trkpt lat="43.4297" lon="6.66032">
        <ele>24.3</ele>
        <time>2025-01-19T13:48:27Z</time>
      </trkpt>
      <trkpt lat="43.4297" lon="6.6603">
        <ele>24.4</ele>
        <time>2025-01-19T13:48:28Z</time>
      </trkpt>
      <trkpt lat="43.4297" lon="6.66029">
        <ele>24.5</ele>
        <time>2025-01-19T13:48:29Z</time>
      </trkpt>
      <trkpt lat="43.42969" lon="6.66028">
        <ele>24.6</ele>
        <time>2025-01-19T13:48:30Z</time>
      </trkpt>
      <trkpt lat="43.42969" lon="6.66027">
        <ele>24.7</ele>
        <time>2025-01-19T13:48:31Z</time>
      </trkpt>
      <trkpt lat="43.42969" lon="6.66026">
        <ele>24.7</ele>
        <time>2025-01-19T13:48:32Z</time>
      </trkpt>
      <trkpt lat="43.42969" lon="6.66025">
        <ele>24.7</ele>
        <time>2025-01-19T13:48:33Z</time>
      </trkpt>
      <trkpt lat="43.42968" lon="6.66024">
        <ele>24.6</ele>
        <time>2025-01-19T13:48:34Z</time>
      </trkpt>
      <trkpt lat="43.42968" lon="6.66024">
        <ele>24.6</ele>
        <time>2025-01-19T13:48:35Z</time>
      </trkpt>
      <trkpt lat="43.42968" lon="6.66023">
        <ele>24.6</ele>
        <time>2025-01-19T13:48:36Z</time>
      </trkpt>
      <trkpt lat="43.42968" lon="6.66022">
        <ele>24.5</ele>
        <time>2025-01-19T13:48:37Z</time>
      </trkpt>
      <trkpt lat="43.42968" lon="6.66022">
        <ele>24.5</ele>
        <time>2025-01-19T13:48:38Z</time>
      </trkpt>
      <trkpt lat="43.42968" lon="6.66021">
        <ele>24.4</ele>
        <time>2025-01-19T13:48:39Z</time>
      </trkpt>
      <trkpt lat="43.42968" lon="6.66021">
        <ele>24.3</ele>
        <time>2025-01-19T13:48:40Z</time>
      </trkpt>
      <trkpt lat="43.42969" lon="6.6602">
        <ele>24.3</ele>
        <time>2025-01-19T13:48:41Z</time>
      </trkpt>
      <trkpt lat="43.42969" lon="6.6602">
        <ele>24.2</ele>
        <time>2025-01-19T13:48:42Z</time>
      </trkpt>
      <trkpt lat="43.4297" lon="6.66019">
        <ele>24.2</ele>
        <time>2025-01-19T13:48:43Z</time>
      </trkpt>
      <trkpt lat="43.4297" lon="6.66019">
        <ele>24.2</ele>
        <time>2025-01-19T13:48:44Z</time>
      </trkpt>
      <trkpt lat="43.42971" lon="6.66018">
        <ele>24.2</ele>
        <time>2025-01-19T13:48:45Z</time>
      </trkpt>
      <trkpt lat="43.42971" lon="6.66018">
        <ele>24.2</ele>
        <time>2025-01-19T13:48:46Z</time>
      </trkpt>
      <trkpt lat="43.42971" lon="6.66016">
        <ele>24.3</ele>
        <time>2025-01-19T13:48:47Z</time>
      </trkpt>
      <trkpt lat="43.42971" lon="6.66016">
        <ele>24.3</ele>
        <time>2025-01-19T13:48:48Z</time>
      </trkpt>
      <trkpt lat="43.42972" lon="6.66015">
        <ele>24.3</ele>
        <time>2025-01-19T13:48:49Z</time>
      </trkpt>
      <trkpt lat="43.42972" lon="6.66015">
        <ele>24.4</ele>
        <time>2025-01-19T13:48:50Z</time>
      </trkpt>
      <trkpt lat="43.42972" lon="6.66014">
        <ele>24.3</ele>
        <time>2025-01-19T13:48:51Z</time>
      </trkpt>
      <trkpt lat="43.42972" lon="6.66015">
        <ele>24.2</ele>
        <time>2025-01-19T13:48:52Z</time>
      </trkpt>
      <trkpt lat="43.42973" lon="6.66017">
        <ele>24.1</ele>
        <time>2025-01-19T13:48:53Z</time>
      </trkpt>
      <trkpt lat="43.42974" lon="6.66018">
        <ele>24.1</ele>
        <time>2025-01-19T13:48:54Z</time>
      </trkpt>
      <trkpt lat="43.42975" lon="6.66019">
        <ele>24.2</ele>
        <time>2025-01-19T13:48:55Z</time>
      </trkpt>
      <trkpt lat="43.42977" lon="6.66019">
        <ele>24.3</ele>
        <time>2025-01-19T13:48:56Z</time>
      </trkpt>
      <trkpt lat="43.42977" lon="6.6602">
        <ele>24.3</ele>
        <time>2025-01-19T13:48:57Z</time>
      </trkpt>
      <trkpt lat="43.42977" lon="6.6602">
        <ele>24.4</ele>
        <time>2025-01-19T13:48:58Z</time>
      </trkpt>
      <trkpt lat="43.42976" lon="6.6602">
        <ele>24.4</ele>
        <time>2025-01-19T13:48:59Z</time>
      </trkpt>
      <trkpt lat="43.42976" lon="6.6602">
        <ele>24.6</ele>
        <time>2025-01-19T13:49:00Z</time>
      </trkpt>
      <trkpt lat="43.42975" lon="6.66021">
        <ele>24.6</ele>
        <time>2025-01-19T13:49:01Z</time>
      </trkpt>
      <trkpt lat="43.42975" lon="6.66021">
        <ele>24.7</ele>
        <time>2025-01-19T13:49:02Z</time>
      </trkpt>
      <trkpt lat="43.42976" lon="6.66022">
        <ele>24.7</ele>
        <time>2025-01-19T13:49:03Z</time>
      </trkpt>
      <trkpt lat="43.42976" lon="6.66022">
        <ele>24.6</ele>
        <time>2025-01-19T13:49:04Z</time>
      </trkpt>
      <trkpt lat="43.42975" lon="6.66023">
        <ele>24.6</ele>
        <time>2025-01-19T13:49:05Z</time>
      </trkpt>
      <trkpt lat="43.42975" lon="6.66024">
        <ele>24.6</ele>
        <time>2025-01-19T13:49:06Z</time>
      </trkpt>
      <trkpt lat="43.42975" lon="6.66026">
        <ele>24.5</ele>
        <time>2025-01-19T13:49:07Z</time>
      </trkpt>
      <trkpt lat="43.42974" lon="6.66028">
        <ele>24.5</ele>
        <time>2025-01-19T13:49:08Z</time>
      </trkpt>
      <trkpt lat="43.42975" lon="6.66029">
        <ele>24.3</ele>
        <time>2025-01-19T13:49:09Z</time>
      </trkpt>
      <trkpt lat="43.42974" lon="6.66032">
        <ele>24.2</ele>
        <time>2025-01-19T13:49:10Z</time>
      </trkpt>
      <trkpt lat="43.42975" lon="6.66033">
        <ele>24.1</ele>
        <time>2025-01-19T13:49:11Z</time>
      </trkpt>
      <trkpt lat="43.42974" lon="6.66035">
        <ele>24</ele>
        <time>2025-01-19T13:49:12Z</time>
      </trkpt>
      <trkpt lat="43.42974" lon="6.66035">
        <ele>23.8</ele>
        <time>2025-01-19T13:49:13Z</time>
      </trkpt>
      <trkpt lat="43.42974" lon="6.66037">
        <ele>23.7</ele>
        <time>2025-01-19T13:49:14Z</time>
      </trkpt>
      <trkpt lat="43.42973" lon="6.66038">
        <ele>23.7</ele>
        <time>2025-01-19T13:49:15Z</time>
      </trkpt>
      <trkpt lat="43.42972" lon="6.66039">
        <ele>23.5</ele>
        <time>2025-01-19T13:49:16Z</time>
      </trkpt>
      <trkpt lat="43.42972" lon="6.66041">
        <ele>23.4</ele>
        <time>2025-01-19T13:49:17Z</time>
      </trkpt>
      <trkpt lat="43.42973" lon="6.66042">
        <ele>23.3</ele>
        <time>2025-01-19T13:49:18Z</time>
      </trkpt>
      <trkpt lat="43.42974" lon="6.66043">
        <ele>23.2</ele>
        <time>2025-01-19T13:49:19Z</time>
      </trkpt>
      <trkpt lat="43.42975" lon="6.66044">
        <ele>23.1</ele>
        <time>2025-01-19T13:49:20Z</time>
      </trkpt>
      <trkpt lat="43.42976" lon="6.66045">
        <ele>23</ele>
        <time>2025-01-19T13:49:21Z</time>
      </trkpt>
      <trkpt lat="43.42977" lon="6.66045">
        <ele>22.9</ele>
        <time>2025-01-19T13:49:22Z</time>
      </trkpt>
      <trkpt lat="43.42979" lon="6.66045">
        <ele>22.8</ele>
        <time>2025-01-19T13:49:23Z</time>
      </trkpt>
      <trkpt lat="43.4298" lon="6.66046">
        <ele>22.7</ele>
        <time>2025-01-19T13:49:24Z</time>
      </trkpt>
      <trkpt lat="43.42981" lon="6.66046">
        <ele>22.8</ele>
        <time>2025-01-19T13:49:25Z</time>
      </trkpt>
      <trkpt lat="43.4298" lon="6.66047">
        <ele>22.9</ele>
        <time>2025-01-19T13:49:26Z</time>
      </trkpt>
      <trkpt lat="43.4298" lon="6.66047">
        <ele>23</ele>
        <time>2025-01-19T13:49:27Z</time>
      </trkpt>
      <trkpt lat="43.42981" lon="6.66047">
        <ele>23</ele>
        <time>2025-01-19T13:49:28Z</time>
      </trkpt>
      <trkpt lat="43.42982" lon="6.66047">
        <ele>23.1</ele>
        <time>2025-01-19T13:49:29Z</time>
      </trkpt>
      <trkpt lat="43.42983" lon="6.66047">
        <ele>23.1</ele>
        <time>2025-01-19T13:49:30Z</time>
      </trkpt>
      <trkpt lat="43.42984" lon="6.66047">
        <ele>23.1</ele>
        <time>2025-01-19T13:49:31Z</time>
      </trkpt>
      <trkpt lat="43.42985" lon="6.66048">
        <ele>23.3</ele>
        <time>2025-01-19T13:49:32Z</time>
      </trkpt>
      <trkpt lat="43.42987" lon="6.66048">
        <ele>23.3</ele>
        <time>2025-01-19T13:49:33Z</time>
      </trkpt>
      <trkpt lat="43.42988" lon="6.66048">
        <ele>23.4</ele>
        <time>2025-01-19T13:49:34Z</time>
      </trkpt>
      <trkpt lat="43.4299" lon="6.66048">
        <ele>23.5</ele>
        <time>2025-01-19T13:49:35Z</time>
      </trkpt>
      <trkpt lat="43.42992" lon="6.66049">
        <ele>23.5</ele>
        <time>2025-01-19T13:49:36Z</time>
      </trkpt>
      <trkpt lat="43.42993" lon="6.66048">
        <ele>23.6</ele>
        <time>2025-01-19T13:49:37Z</time>
      </trkpt>
      <trkpt lat="43.42994" lon="6.66048">
        <ele>23.6</ele>
        <time>2025-01-19T13:49:38Z</time>
      </trkpt>
      <trkpt lat="43.42995" lon="6.66047">
        <ele>23.7</ele>
        <time>2025-01-19T13:49:39Z</time>
      </trkpt>
      <trkpt lat="43.42996" lon="6.66046">
        <ele>23.8</ele>
        <time>2025-01-19T13:49:40Z</time>
      </trkpt>
      <trkpt lat="43.42998" lon="6.66045">
        <ele>23.9</ele>
        <time>2025-01-19T13:49:41Z</time>
      </trkpt>
      <trkpt lat="43.42999" lon="6.66045">
        <ele>23.9</ele>
        <time>2025-01-19T13:49:42Z</time>
      </trkpt>
      <trkpt lat="43.43" lon="6.66044">
        <ele>24</ele>
        <time>2025-01-19T13:49:43Z</time>
      </trkpt>
      <trkpt lat="43.43001" lon="6.66044">
        <ele>24.1</ele>
        <time>2025-01-19T13:49:44Z</time>
      </trkpt>
      <trkpt lat="43.43002" lon="6.66043">
        <ele>24.2</ele>
        <time>2025-01-19T13:49:45Z</time>
      </trkpt>
      <trkpt lat="43.43003" lon="6.66043">
        <ele>24.3</ele>
        <time>2025-01-19T13:49:46Z</time>
      </trkpt>
      <trkpt lat="43.43004" lon="6.66042">
        <ele>24.5</ele>
        <time>2025-01-19T13:49:47Z</time>
      </trkpt>
      <trkpt lat="43.43005" lon="6.66042">
        <ele>24.6</ele>
        <time>2025-01-19T13:49:48Z</time>
      </trkpt>
      <trkpt lat="43.43006" lon="6.66042">
        <ele>24.7</ele>
        <time>2025-01-19T13:49:49Z</time>
      </trkpt>
      <trkpt lat="43.43008" lon="6.66041">
        <ele>24.7</ele>
        <time>2025-01-19T13:49:50Z</time>
      </trkpt>
      <trkpt lat="43.43009" lon="6.6604">
        <ele>24.8</ele>
        <time>2025-01-19T13:49:51Z</time>
      </trkpt>
      <trkpt lat="43.4301" lon="6.6604">
        <ele>24.9</ele>
        <time>2025-01-19T13:49:52Z</time>
      </trkpt>
      <trkpt lat="43.43012" lon="6.66039">
        <ele>25</ele>
        <time>2025-01-19T13:49:53Z</time>
      </trkpt>
      <trkpt lat="43.43013" lon="6.66039">
        <ele>25</ele>
        <time>2025-01-19T13:49:54Z</time>
      </trkpt>
      <trkpt lat="43.43015" lon="6.66037">
        <ele>25.1</ele>
        <time>2025-01-19T13:49:55Z</time>
      </trkpt>
      <trkpt lat="43.43018" lon="6.66036">
        <ele>25.1</ele>
        <time>2025-01-19T13:49:56Z</time>
      </trkpt>
      <trkpt lat="43.43019" lon="6.66035">
        <ele>25.1</ele>
        <time>2025-01-19T13:49:57Z</time>
      </trkpt>
      <trkpt lat="43.4302" lon="6.66033">
        <ele>25.1</ele>
        <time>2025-01-19T13:49:58Z</time>
      </trkpt>
      <trkpt lat="43.4302" lon="6.66032">
        <ele>25.2</ele>
        <time>2025-01-19T13:49:59Z</time>
      </trkpt>
      <trkpt lat="43.43021" lon="6.66031">
        <ele>25.2</ele>
        <time>2025-01-19T13:50:00Z</time>
      </trkpt>
      <trkpt lat="43.43021" lon="6.6603">
        <ele>25.3</ele>
        <time>2025-01-19T13:50:01Z</time>
      </trkpt>
      <trkpt lat="43.43022" lon="6.66029">
        <ele>25.3</ele>
        <time>2025-01-19T13:50:02Z</time>
      </trkpt>
      <trkpt lat="43.43024" lon="6.66029">
        <ele>25.3</ele>
        <time>2025-01-19T13:50:03Z</time>
      </trkpt>
      <trkpt lat="43.43025" lon="6.66028">
        <ele>25.2</ele>
        <time>2025-01-19T13:50:04Z</time>
      </trkpt>
      <trkpt lat="43.43027" lon="6.66028">
        <ele>25.1</ele>
        <time>2025-01-19T13:50:05Z</time>
      </trkpt>
      <trkpt lat="43.43029" lon="6.66027">
        <ele>25</ele>
        <time>2025-01-19T13:50:06Z</time>
      </trkpt>
      <trkpt lat="43.43031" lon="6.66026">
        <ele>24.8</ele>
        <time>2025-01-19T13:50:07Z</time>
      </trkpt>
      <trkpt lat="43.43032" lon="6.66025">
        <ele>24.6</ele>
        <time>2025-01-19T13:50:08Z</time>
      </trkpt>
      <trkpt lat="43.43033" lon="6.66025">
        <ele>24.7</ele>
        <time>2025-01-19T13:50:09Z</time>
      </trkpt>
      <trkpt lat="43.43035" lon="6.66024">
        <ele>24.7</ele>
        <time>2025-01-19T13:50:10Z</time>
      </trkpt>
      <trkpt lat="43.43035" lon="6.66023">
        <ele>24.5</ele>
        <time>2025-01-19T13:50:11Z</time>
      </trkpt>
      <trkpt lat="43.43035" lon="6.66022">
        <ele>24.5</ele>
        <time>2025-01-19T13:50:12Z</time>
      </trkpt>
      <trkpt lat="43.43037" lon="6.66021">
        <ele>24.4</ele>
        <time>2025-01-19T13:50:13Z</time>
      </trkpt>
      <trkpt lat="43.43038" lon="6.66019">
        <ele>24.2</ele>
        <time>2025-01-19T13:50:14Z</time>
      </trkpt>
      <trkpt lat="43.43039" lon="6.66018">
        <ele>24.1</ele>
        <time>2025-01-19T13:50:15Z</time>
      </trkpt>
      <trkpt lat="43.4304" lon="6.66017">
        <ele>24.1</ele>
        <time>2025-01-19T13:50:16Z</time>
      </trkpt>
      <trkpt lat="43.43042" lon="6.66015">
        <ele>24</ele>
        <time>2025-01-19T13:50:17Z</time>
      </trkpt>
      <trkpt lat="43.43044" lon="6.66015">
        <ele>24</ele>
        <time>2025-01-19T13:50:18Z</time>
      </trkpt>
      <trkpt lat="43.43045" lon="6.66014">
        <ele>24</ele>
        <time>2025-01-19T13:50:19Z</time>
      </trkpt>
      <trkpt lat="43.43046" lon="6.66013">
        <ele>24</ele>
        <time>2025-01-19T13:50:20Z</time>
      </trkpt>
      <trkpt lat="43.43047" lon="6.66011">
        <ele>23.9</ele>
        <time>2025-01-19T13:50:21Z</time>
      </trkpt>
      <trkpt lat="43.43048" lon="6.6601">
        <ele>23.9</ele>
        <time>2025-01-19T13:50:22Z</time>
      </trkpt>
      <trkpt lat="43.43048" lon="6.66008">
        <ele>23.8</ele>
        <time>2025-01-19T13:50:23Z</time>
      </trkpt>
      <trkpt lat="43.43049" lon="6.66007">
        <ele>23.7</ele>
        <time>2025-01-19T13:50:24Z</time>
      </trkpt>
      <trkpt lat="43.4305" lon="6.66006">
        <ele>23.6</ele>
        <time>2025-01-19T13:50:25Z</time>
      </trkpt>
      <trkpt lat="43.4305" lon="6.66005">
        <ele>23.5</ele>
        <time>2025-01-19T13:50:26Z</time>
      </trkpt>
      <trkpt lat="43.43051" lon="6.66004">
        <ele>23.4</ele>
        <time>2025-01-19T13:50:27Z</time>
      </trkpt>
      <trkpt lat="43.43053" lon="6.66003">
        <ele>23.4</ele>
        <time>2025-01-19T13:50:28Z</time>
      </trkpt>
      <trkpt lat="43.43054" lon="6.66002">
        <ele>23.4</ele>
        <time>2025-01-19T13:50:29Z</time>
      </trkpt>
      <trkpt lat="43.43056" lon="6.66">
        <ele>23.4</ele>
        <time>2025-01-19T13:50:30Z</time>
      </trkpt>
      <trkpt lat="43.43057" lon="6.65999">
        <ele>23.3</ele>
        <time>2025-01-19T13:50:31Z</time>
      </trkpt>
      <trkpt lat="43.43058" lon="6.65998">
        <ele>23.3</ele>
        <time>2025-01-19T13:50:32Z</time>
      </trkpt>
      <trkpt lat="43.43059" lon="6.65996">
        <ele>23.4</ele>
        <time>2025-01-19T13:50:33Z</time>
      </trkpt>
      <trkpt lat="43.43059" lon="6.65995">
        <ele>23.1</ele>
        <time>2025-01-19T13:50:34Z</time>
      </trkpt>
      <trkpt lat="43.4306" lon="6.65994">
        <ele>23.2</ele>
        <time>2025-01-19T13:50:35Z</time>
      </trkpt>
      <trkpt lat="43.4306" lon="6.65992">
        <ele>23.1</ele>
        <time>2025-01-19T13:50:36Z</time>
      </trkpt>
      <trkpt lat="43.43062" lon="6.65991">
        <ele>23.2</ele>
        <time>2025-01-19T13:50:37Z</time>
      </trkpt>
      <trkpt lat="43.43063" lon="6.6599">
        <ele>23.2</ele>
        <time>2025-01-19T13:50:38Z</time>
      </trkpt>
      <trkpt lat="43.43064" lon="6.65989">
        <ele>23.1</ele>
        <time>2025-01-19T13:50:39Z</time>
      </trkpt>
      <trkpt lat="43.43066" lon="6.65987">
        <ele>23.1</ele>
        <time>2025-01-19T13:50:40Z</time>
      </trkpt>
      <trkpt lat="43.43067" lon="6.65986">
        <ele>23</ele>
        <time>2025-01-19T13:50:41Z</time>
      </trkpt>
      <trkpt lat="43.43068" lon="6.65985">
        <ele>22.9</ele>
        <time>2025-01-19T13:50:42Z</time>
      </trkpt>
      <trkpt lat="43.43069" lon="6.65984">
        <ele>22.8</ele>
        <time>2025-01-19T13:50:43Z</time>
      </trkpt>
      <trkpt lat="43.4307" lon="6.65983">
        <ele>22.8</ele>
        <time>2025-01-19T13:50:44Z</time>
      </trkpt>
      <trkpt lat="43.43072" lon="6.65982">
        <ele>22.8</ele>
        <time>2025-01-19T13:50:45Z</time>
      </trkpt>
      <trkpt lat="43.43073" lon="6.65981">
        <ele>22.7</ele>
        <time>2025-01-19T13:50:46Z</time>
      </trkpt>
      <trkpt lat="43.43074" lon="6.6598">
        <ele>22.7</ele>
        <time>2025-01-19T13:50:47Z</time>
      </trkpt>
      <trkpt lat="43.43075" lon="6.65979">
        <ele>22.6</ele>
        <time>2025-01-19T13:50:48Z</time>
      </trkpt>
      <trkpt lat="43.43076" lon="6.65978">
        <ele>22.5</ele>
        <time>2025-01-19T13:50:49Z</time>
      </trkpt>
      <trkpt lat="43.43077" lon="6.65977">
        <ele>22.5</ele>
        <time>2025-01-19T13:50:50Z</time>
      </trkpt>
      <trkpt lat="43.43078" lon="6.65977">
        <ele>22.4</ele>
        <time>2025-01-19T13:50:51Z</time>
      </trkpt>
      <trkpt lat="43.43079" lon="6.65976">
        <ele>22.4</ele>
        <time>2025-01-19T13:50:52Z</time>
      </trkpt>
      <trkpt lat="43.4308" lon="6.65975">
        <ele>22.3</ele>
        <time>2025-01-19T13:50:53Z</time>
      </trkpt>
      <trkpt lat="43.43082" lon="6.65974">
        <ele>22.3</ele>
        <time>2025-01-19T13:50:54Z</time>
      </trkpt>
      <trkpt lat="43.43083" lon="6.65973">
        <ele>22.3</ele>
        <time>2025-01-19T13:50:55Z</time>
      </trkpt>
      <trkpt lat="43.43084" lon="6.65973">
        <ele>22.2</ele>
        <time>2025-01-19T13:50:56Z</time>
      </trkpt>
      <trkpt lat="43.43086" lon="6.65972">
        <ele>22.2</ele>
        <time>2025-01-19T13:50:57Z</time>
      </trkpt>
      <trkpt lat="43.43087" lon="6.65971">
        <ele>22.1</ele>
        <time>2025-01-19T13:50:58Z</time>
      </trkpt>
      <trkpt lat="43.43088" lon="6.65971">
        <ele>21.9</ele>
        <time>2025-01-19T13:50:59Z</time>
      </trkpt>
      <trkpt lat="43.4309" lon="6.6597">
        <ele>21.8</ele>
        <time>2025-01-19T13:51:00Z</time>
      </trkpt>
      <trkpt lat="43.43092" lon="6.65969">
        <ele>21.7</ele>
        <time>2025-01-19T13:51:01Z</time>
      </trkpt>
      <trkpt lat="43.43093" lon="6.65968">
        <ele>21.7</ele>
        <time>2025-01-19T13:51:02Z</time>
      </trkpt>
      <trkpt lat="43.43095" lon="6.65967">
        <ele>21.6</ele>
        <time>2025-01-19T13:51:03Z</time>
      </trkpt>
      <trkpt lat="43.43096" lon="6.65967">
        <ele>21.6</ele>
        <time>2025-01-19T13:51:04Z</time>
      </trkpt>
      <trkpt lat="43.43097" lon="6.65966">
        <ele>21.7</ele>
        <time>2025-01-19T13:51:05Z</time>
      </trkpt>
      <trkpt lat="43.43099" lon="6.65965">
        <ele>21.7</ele>
        <time>2025-01-19T13:51:06Z</time>
      </trkpt>
      <trkpt lat="43.431" lon="6.65965">
        <ele>21.7</ele>
        <time>2025-01-19T13:51:07Z</time>
      </trkpt>
      <trkpt lat="43.43102" lon="6.65964">
        <ele>21.7</ele>
        <time>2025-01-19T13:51:08Z</time>
      </trkpt>
      <trkpt lat="43.43103" lon="6.65963">
        <ele>21.7</ele>
        <time>2025-01-19T13:51:09Z</time>
      </trkpt>
      <trkpt lat="43.43104" lon="6.65962">
        <ele>21.8</ele>
        <time>2025-01-19T13:51:10Z</time>
      </trkpt>
      <trkpt lat="43.43105" lon="6.65962">
        <ele>21.8</ele>
        <time>2025-01-19T13:51:11Z</time>
      </trkpt>
      <trkpt lat="43.43107" lon="6.65961">
        <ele>21.8</ele>
        <time>2025-01-19T13:51:12Z</time>
      </trkpt>
      <trkpt lat="43.43108" lon="6.6596">
        <ele>21.8</ele>
        <time>2025-01-19T13:51:13Z</time>
      </trkpt>
      <trkpt lat="43.43109" lon="6.65959">
        <ele>21.7</ele>
        <time>2025-01-19T13:51:14Z</time>
      </trkpt>
      <trkpt lat="43.4311" lon="6.65958">
        <ele>21.6</ele>
        <time>2025-01-19T13:51:15Z</time>
      </trkpt>
      <trkpt lat="43.43112" lon="6.65958">
        <ele>21.6</ele>
        <time>2025-01-19T13:51:16Z</time>
      </trkpt>
      <trkpt lat="43.43113" lon="6.65957">
        <ele>21.6</ele>
        <time>2025-01-19T13:51:17Z</time>
      </trkpt>
      <trkpt lat="43.43114" lon="6.65957">
        <ele>21.6</ele>
        <time>2025-01-19T13:51:18Z</time>
      </trkpt>
      <trkpt lat="43.43116" lon="6.65956">
        <ele>21.6</ele>
        <time>2025-01-19T13:51:19Z</time>
      </trkpt>
      <trkpt lat="43.43117" lon="6.65956">
        <ele>21.6</ele>
        <time>2025-01-19T13:51:20Z</time>
      </trkpt>
      <trkpt lat="43.43118" lon="6.65955">
        <ele>21.6</ele>
        <time>2025-01-19T13:51:21Z</time>
      </trkpt>
      <trkpt lat="43.43119" lon="6.65954">
        <ele>21.5</ele>
        <time>2025-01-19T13:51:22Z</time>
      </trkpt>
      <trkpt lat="43.4312" lon="6.65954">
        <ele>21.4</ele>
        <time>2025-01-19T13:51:23Z</time>
      </trkpt>
      <trkpt lat="43.43121" lon="6.65953">
        <ele>21.3</ele>
        <time>2025-01-19T13:51:24Z</time>
      </trkpt>
      <trkpt lat="43.43123" lon="6.65953">
        <ele>21.3</ele>
        <time>2025-01-19T13:51:25Z</time>
      </trkpt>
      <trkpt lat="43.43124" lon="6.65952">
        <ele>21.3</ele>
        <time>2025-01-19T13:51:26Z</time>
      </trkpt>
      <trkpt lat="43.43125" lon="6.65952">
        <ele>21.3</ele>
        <time>2025-01-19T13:51:27Z</time>
      </trkpt>
      <trkpt lat="43.43126" lon="6.6595">
        <ele>21.3</ele>
        <time>2025-01-19T13:51:28Z</time>
      </trkpt>
      <trkpt lat="43.43127" lon="6.65949">
        <ele>21.2</ele>
        <time>2025-01-19T13:51:29Z</time>
      </trkpt>
      <trkpt lat="43.43128" lon="6.65948">
        <ele>21.3</ele>
        <time>2025-01-19T13:51:30Z</time>
      </trkpt>
      <trkpt lat="43.43129" lon="6.65948">
        <ele>21.4</ele>
        <time>2025-01-19T13:51:31Z</time>
      </trkpt>
      <trkpt lat="43.4313" lon="6.65947">
        <ele>21.4</ele>
        <time>2025-01-19T13:51:32Z</time>
      </trkpt>
      <trkpt lat="43.43131" lon="6.65947">
        <ele>21.4</ele>
        <time>2025-01-19T13:51:33Z</time>
      </trkpt>
      <trkpt lat="43.43133" lon="6.65946">
        <ele>21.5</ele>
        <time>2025-01-19T13:51:34Z</time>
      </trkpt>
      <trkpt lat="43.43134" lon="6.65946">
        <ele>21.4</ele>
        <time>2025-01-19T13:51:35Z</time>
      </trkpt>
      <trkpt lat="43.43135" lon="6.65945">
        <ele>21.3</ele>
        <time>2025-01-19T13:51:36Z</time>
      </trkpt>
      <trkpt lat="43.43136" lon="6.65944">
        <ele>21.3</ele>
        <time>2025-01-19T13:51:37Z</time>
      </trkpt>
      <trkpt lat="43.43138" lon="6.65943">
        <ele>21.3</ele>
        <time>2025-01-19T13:51:38Z</time>
      </trkpt>
      <trkpt lat="43.43139" lon="6.65943">
        <ele>21.2</ele>
        <time>2025-01-19T13:51:39Z</time>
      </trkpt>
      <trkpt lat="43.43141" lon="6.65943">
        <ele>21.2</ele>
        <time>2025-01-19T13:51:40Z</time>
      </trkpt>
      <trkpt lat="43.43142" lon="6.65942">
        <ele>21.2</ele>
        <time>2025-01-19T13:51:41Z</time>
      </trkpt>
      <trkpt lat="43.43144" lon="6.65941">
        <ele>21.2</ele>
        <time>2025-01-19T13:51:42Z</time>
      </trkpt>
      <trkpt lat="43.43145" lon="6.65941">
        <ele>21.2</ele>
        <time>2025-01-19T13:51:43Z</time>
      </trkpt>
      <trkpt lat="43.43146" lon="6.65941">
        <ele>21.2</ele>
        <time>2025-01-19T13:51:44Z</time>
      </trkpt>
      <trkpt lat="43.43148" lon="6.65941">
        <ele>21.2</ele>
        <time>2025-01-19T13:51:45Z</time>
      </trkpt>
      <trkpt lat="43.43149" lon="6.65941">
        <ele>21.1</ele>
        <time>2025-01-19T13:51:46Z</time>
      </trkpt>
      <trkpt lat="43.43151" lon="6.65941">
        <ele>21.1</ele>
        <time>2025-01-19T13:51:47Z</time>
      </trkpt>
      <trkpt lat="43.43152" lon="6.65941">
        <ele>21</ele>
        <time>2025-01-19T13:51:48Z</time>
      </trkpt>
      <trkpt lat="43.43154" lon="6.65941">
        <ele>21</ele>
        <time>2025-01-19T13:51:49Z</time>
      </trkpt>
      <trkpt lat="43.43155" lon="6.65941">
        <ele>21</ele>
        <time>2025-01-19T13:51:50Z</time>
      </trkpt>
      <trkpt lat="43.43157" lon="6.6594">
        <ele>21</ele>
        <time>2025-01-19T13:51:51Z</time>
      </trkpt>
      <trkpt lat="43.43158" lon="6.6594">
        <ele>21</ele>
        <time>2025-01-19T13:51:52Z</time>
      </trkpt>
      <trkpt lat="43.4316" lon="6.65941">
        <ele>20.9</ele>
        <time>2025-01-19T13:51:53Z</time>
      </trkpt>
      <trkpt lat="43.43161" lon="6.65942">
        <ele>21.1</ele>
        <time>2025-01-19T13:51:54Z</time>
      </trkpt>
      <trkpt lat="43.43163" lon="6.65942">
        <ele>21.2</ele>
        <time>2025-01-19T13:51:55Z</time>
      </trkpt>
      <trkpt lat="43.43164" lon="6.65942">
        <ele>21.2</ele>
        <time>2025-01-19T13:51:56Z</time>
      </trkpt>
      <trkpt lat="43.43165" lon="6.65942">
        <ele>21.2</ele>
        <time>2025-01-19T13:51:57Z</time>
      </trkpt>
      <trkpt lat="43.43166" lon="6.65942">
        <ele>21.2</ele>
        <time>2025-01-19T13:51:58Z</time>
      </trkpt>
      <trkpt lat="43.43167" lon="6.65943">
        <ele>21.2</ele>
        <time>2025-01-19T13:51:59Z</time>
      </trkpt>
      <trkpt lat="43.43168" lon="6.65943">
        <ele>21.2</ele>
        <time>2025-01-19T13:52:00Z</time>
      </trkpt>
      <trkpt lat="43.4317" lon="6.65944">
        <ele>21.2</ele>
        <time>2025-01-19T13:52:01Z</time>
      </trkpt>
      <trkpt lat="43.43171" lon="6.65944">
        <ele>21.2</ele>
        <time>2025-01-19T13:52:02Z</time>
      </trkpt>
      <trkpt lat="43.43172" lon="6.65944">
        <ele>21.2</ele>
        <time>2025-01-19T13:52:03Z</time>
      </trkpt>
      <trkpt lat="43.43174" lon="6.65944">
        <ele>21.2</ele>
        <time>2025-01-19T13:52:04Z</time>
      </trkpt>
      <trkpt lat="43.43175" lon="6.65945">
        <ele>21.3</ele>
        <time>2025-01-19T13:52:05Z</time>
      </trkpt>
      <trkpt lat="43.43176" lon="6.65944">
        <ele>21.4</ele>
        <time>2025-01-19T13:52:06Z</time>
      </trkpt>
      <trkpt lat="43.43178" lon="6.65944">
        <ele>21.4</ele>
        <time>2025-01-19T13:52:07Z</time>
      </trkpt>
      <trkpt lat="43.43179" lon="6.65945">
        <ele>21.4</ele>
        <time>2025-01-19T13:52:08Z</time>
      </trkpt>
      <trkpt lat="43.4318" lon="6.65945">
        <ele>21.3</ele>
        <time>2025-01-19T13:52:09Z</time>
      </trkpt>
      <trkpt lat="43.43182" lon="6.65944">
        <ele>21.4</ele>
        <time>2025-01-19T13:52:10Z</time>
      </trkpt>
      <trkpt lat="43.43183" lon="6.65944">
        <ele>21.4</ele>
        <time>2025-01-19T13:52:11Z</time>
      </trkpt>
      <trkpt lat="43.43184" lon="6.65945">
        <ele>21.4</ele>
        <time>2025-01-19T13:52:12Z</time>
      </trkpt>
      <trkpt lat="43.43186" lon="6.65946">
        <ele>21.5</ele>
        <time>2025-01-19T13:52:13Z</time>
      </trkpt>
      <trkpt lat="43.43187" lon="6.65946">
        <ele>21.5</ele>
        <time>2025-01-19T13:52:14Z</time>
      </trkpt>
      <trkpt lat="43.43189" lon="6.65946">
        <ele>21.5</ele>
        <time>2025-01-19T13:52:15Z</time>
      </trkpt>
      <trkpt lat="43.4319" lon="6.65947">
        <ele>21.5</ele>
        <time>2025-01-19T13:52:16Z</time>
      </trkpt>
      <trkpt lat="43.43191" lon="6.65948">
        <ele>21.5</ele>
        <time>2025-01-19T13:52:17Z</time>
      </trkpt>
      <trkpt lat="43.43192" lon="6.65948">
        <ele>21.5</ele>
        <time>2025-01-19T13:52:18Z</time>
      </trkpt>
      <trkpt lat="43.43193" lon="6.65949">
        <ele>21.5</ele>
        <time>2025-01-19T13:52:19Z</time>
      </trkpt>
      <trkpt lat="43.43195" lon="6.65949">
        <ele>21.6</ele>
        <time>2025-01-19T13:52:20Z</time>
      </trkpt>
      <trkpt lat="43.43196" lon="6.6595">
        <ele>21.5</ele>
        <time>2025-01-19T13:52:21Z</time>
      </trkpt>
      <trkpt lat="43.43198" lon="6.6595">
        <ele>21.6</ele>
        <time>2025-01-19T13:52:22Z</time>
      </trkpt>
      <trkpt lat="43.43199" lon="6.65951">
        <ele>21.6</ele>
        <time>2025-01-19T13:52:23Z</time>
      </trkpt>
      <trkpt lat="43.43201" lon="6.65952">
        <ele>21.6</ele>
        <time>2025-01-19T13:52:24Z</time>
      </trkpt>
      <trkpt lat="43.43203" lon="6.65953">
        <ele>21.6</ele>
        <time>2025-01-19T13:52:25Z</time>
      </trkpt>
      <trkpt lat="43.43204" lon="6.65953">
        <ele>21.6</ele>
        <time>2025-01-19T13:52:26Z</time>
      </trkpt>
      <trkpt lat="43.43205" lon="6.65954">
        <ele>21.7</ele>
        <time>2025-01-19T13:52:27Z</time>
      </trkpt>
      <trkpt lat="43.43207" lon="6.65954">
        <ele>21.7</ele>
        <time>2025-01-19T13:52:28Z</time>
      </trkpt>
      <trkpt lat="43.43208" lon="6.65955">
        <ele>21.7</ele>
        <time>2025-01-19T13:52:29Z</time>
      </trkpt>
      <trkpt lat="43.4321" lon="6.65955">
        <ele>21.8</ele>
        <time>2025-01-19T13:52:30Z</time>
      </trkpt>
      <trkpt lat="43.43211" lon="6.65956">
        <ele>21.8</ele>
        <time>2025-01-19T13:52:31Z</time>
      </trkpt>
      <trkpt lat="43.43213" lon="6.65956">
        <ele>21.8</ele>
        <time>2025-01-19T13:52:32Z</time>
      </trkpt>
      <trkpt lat="43.43214" lon="6.65957">
        <ele>21.8</ele>
        <time>2025-01-19T13:52:33Z</time>
      </trkpt>
      <trkpt lat="43.43216" lon="6.65958">
        <ele>21.9</ele>
        <time>2025-01-19T13:52:34Z</time>
      </trkpt>
      <trkpt lat="43.43217" lon="6.65958">
        <ele>22</ele>
        <time>2025-01-19T13:52:35Z</time>
      </trkpt>
      <trkpt lat="43.43219" lon="6.65959">
        <ele>22.1</ele>
        <time>2025-01-19T13:52:36Z</time>
      </trkpt>
      <trkpt lat="43.43221" lon="6.6596">
        <ele>22.2</ele>
        <time>2025-01-19T13:52:37Z</time>
      </trkpt>
      <trkpt lat="43.43223" lon="6.65961">
        <ele>22.3</ele>
        <time>2025-01-19T13:52:38Z</time>
      </trkpt>
      <trkpt lat="43.43224" lon="6.65962">
        <ele>22.3</ele>
        <time>2025-01-19T13:52:39Z</time>
      </trkpt>
      <trkpt lat="43.43226" lon="6.65962">
        <ele>22.3</ele>
        <time>2025-01-19T13:52:40Z</time>
      </trkpt>
      <trkpt lat="43.43227" lon="6.65964">
        <ele>22.3</ele>
        <time>2025-01-19T13:52:41Z</time>
      </trkpt>
      <trkpt lat="43.43229" lon="6.65964">
        <ele>22.3</ele>
        <time>2025-01-19T13:52:42Z</time>
      </trkpt>
      <trkpt lat="43.4323" lon="6.65964">
        <ele>22.3</ele>
        <time>2025-01-19T13:52:43Z</time>
      </trkpt>
      <trkpt lat="43.43232" lon="6.65964">
        <ele>22.3</ele>
        <time>2025-01-19T13:52:44Z</time>
      </trkpt>
      <trkpt lat="43.43233" lon="6.65965">
        <ele>22.4</ele>
        <time>2025-01-19T13:52:45Z</time>
      </trkpt>
      <trkpt lat="43.43235" lon="6.65967">
        <ele>22.4</ele>
        <time>2025-01-19T13:52:46Z</time>
      </trkpt>
      <trkpt lat="43.43237" lon="6.65967">
        <ele>22.4</ele>
        <time>2025-01-19T13:52:47Z</time>
      </trkpt>
      <trkpt lat="43.43238" lon="6.65968">
        <ele>22.4</ele>
        <time>2025-01-19T13:52:48Z</time>
      </trkpt>
      <trkpt lat="43.43239" lon="6.65968">
        <ele>22.4</ele>
        <time>2025-01-19T13:52:49Z</time>
      </trkpt>
      <trkpt lat="43.43241" lon="6.65969">
        <ele>22.5</ele>
        <time>2025-01-19T13:52:50Z</time>
      </trkpt>
      <trkpt lat="43.43243" lon="6.65969">
        <ele>22.5</ele>
        <time>2025-01-19T13:52:51Z</time>
      </trkpt>
      <trkpt lat="43.43244" lon="6.65969">
        <ele>22.5</ele>
        <time>2025-01-19T13:52:52Z</time>
      </trkpt>
      <trkpt lat="43.43245" lon="6.6597">
        <ele>22.5</ele>
        <time>2025-01-19T13:52:53Z</time>
      </trkpt>
      <trkpt lat="43.43246" lon="6.65971">
        <ele>22.5</ele>
        <time>2025-01-19T13:52:54Z</time>
      </trkpt>
      <trkpt lat="43.43247" lon="6.65972">
        <ele>22.6</ele>
        <time>2025-01-19T13:52:55Z</time>
      </trkpt>
      <trkpt lat="43.43248" lon="6.65972">
        <ele>22.6</ele>
        <time>2025-01-19T13:52:56Z</time>
      </trkpt>
      <trkpt lat="43.4325" lon="6.65971">
        <ele>22.7</ele>
        <time>2025-01-19T13:52:57Z</time>
      </trkpt>
      <trkpt lat="43.43251" lon="6.65971">
        <ele>22.8</ele>
        <time>2025-01-19T13:52:58Z</time>
      </trkpt>
      <trkpt lat="43.43252" lon="6.65972">
        <ele>22.9</ele>
        <time>2025-01-19T13:52:59Z</time>
      </trkpt>
      <trkpt lat="43.43254" lon="6.65972">
        <ele>22.9</ele>
        <time>2025-01-19T13:53:00Z</time>
      </trkpt>
      <trkpt lat="43.43255" lon="6.65972">
        <ele>23</ele>
        <time>2025-01-19T13:53:01Z</time>
      </trkpt>
      <trkpt lat="43.43256" lon="6.65972">
        <ele>23.1</ele>
        <time>2025-01-19T13:53:02Z</time>
      </trkpt>
      <trkpt lat="43.43258" lon="6.65972">
        <ele>23.2</ele>
        <time>2025-01-19T13:53:03Z</time>
      </trkpt>
      <trkpt lat="43.43259" lon="6.65972">
        <ele>23.3</ele>
        <time>2025-01-19T13:53:04Z</time>
      </trkpt>
      <trkpt lat="43.43259" lon="6.65972">
        <ele>23.3</ele>
        <time>2025-01-19T13:53:05Z</time>
      </trkpt>
      <trkpt lat="43.43261" lon="6.65972">
        <ele>23.4</ele>
        <time>2025-01-19T13:53:06Z</time>
      </trkpt>
      <trkpt lat="43.43262" lon="6.65972">
        <ele>23.5</ele>
        <time>2025-01-19T13:53:07Z</time>
      </trkpt>
      <trkpt lat="43.43264" lon="6.65972">
        <ele>23.5</ele>
        <time>2025-01-19T13:53:08Z</time>
      </trkpt>
      <trkpt lat="43.43265" lon="6.65972">
        <ele>23.6</ele>
        <time>2025-01-19T13:53:09Z</time>
      </trkpt>
      <trkpt lat="43.43267" lon="6.65972">
        <ele>23.7</ele>
        <time>2025-01-19T13:53:10Z</time>
      </trkpt>
      <trkpt lat="43.43268" lon="6.65972">
        <ele>23.7</ele>
        <time>2025-01-19T13:53:11Z</time>
      </trkpt>
      <trkpt lat="43.43269" lon="6.65971">
        <ele>23.7</ele>
        <time>2025-01-19T13:53:12Z</time>
      </trkpt>
      <trkpt lat="43.4327" lon="6.65971">
        <ele>23.8</ele>
        <time>2025-01-19T13:53:13Z</time>
      </trkpt>
      <trkpt lat="43.43272" lon="6.65971">
        <ele>23.8</ele>
        <time>2025-01-19T13:53:14Z</time>
      </trkpt>
      <trkpt lat="43.43274" lon="6.65972">
        <ele>23.8</ele>
        <time>2025-01-19T13:53:15Z</time>
      </trkpt>
      <trkpt lat="43.43277" lon="6.65972">
        <ele>23.9</ele>
        <time>2025-01-19T13:53:16Z</time>
      </trkpt>
      <trkpt lat="43.43279" lon="6.65971">
        <ele>23.9</ele>
        <time>2025-01-19T13:53:17Z</time>
      </trkpt>
      <trkpt lat="43.43281" lon="6.65972">
        <ele>23.9</ele>
        <time>2025-01-19T13:53:18Z</time>
      </trkpt>
      <trkpt lat="43.43283" lon="6.65973">
        <ele>24</ele>
        <time>2025-01-19T13:53:19Z</time>
      </trkpt>
      <trkpt lat="43.43284" lon="6.65973">
        <ele>24</ele>
        <time>2025-01-19T13:53:20Z</time>
      </trkpt>
      <trkpt lat="43.43286" lon="6.65974">
        <ele>24</ele>
        <time>2025-01-19T13:53:21Z</time>
      </trkpt>
      <trkpt lat="43.43287" lon="6.65973">
        <ele>24.1</ele>
        <time>2025-01-19T13:53:22Z</time>
      </trkpt>
      <trkpt lat="43.43288" lon="6.65973">
        <ele>24.2</ele>
        <time>2025-01-19T13:53:23Z</time>
      </trkpt>
      <trkpt lat="43.43289" lon="6.65974">
        <ele>24.4</ele>
        <time>2025-01-19T13:53:24Z</time>
      </trkpt>
      <trkpt lat="43.4329" lon="6.65973">
        <ele>24.5</ele>
        <time>2025-01-19T13:53:25Z</time>
      </trkpt>
      <trkpt lat="43.4329" lon="6.65973">
        <ele>24.6</ele>
        <time>2025-01-19T13:53:26Z</time>
      </trkpt>
      <trkpt lat="43.43292" lon="6.65972">
        <ele>24.7</ele>
        <time>2025-01-19T13:53:27Z</time>
      </trkpt>
      <trkpt lat="43.43292" lon="6.65973">
        <ele>24.7</ele>
        <time>2025-01-19T13:53:28Z</time>
      </trkpt>
      <trkpt lat="43.43292" lon="6.65972">
        <ele>24.7</ele>
        <time>2025-01-19T13:53:29Z</time>
      </trkpt>
      <trkpt lat="43.43294" lon="6.65971">
        <ele>24.7</ele>
        <time>2025-01-19T13:53:30Z</time>
      </trkpt>
      <trkpt lat="43.43295" lon="6.65971">
        <ele>24.7</ele>
        <time>2025-01-19T13:53:31Z</time>
      </trkpt>
      <trkpt lat="43.43296" lon="6.65971">
        <ele>24.8</ele>
        <time>2025-01-19T13:53:32Z</time>
      </trkpt>
      <trkpt lat="43.43297" lon="6.65971">
        <ele>24.9</ele>
        <time>2025-01-19T13:53:33Z</time>
      </trkpt>
      <trkpt lat="43.43298" lon="6.65971">
        <ele>25</ele>
        <time>2025-01-19T13:53:34Z</time>
      </trkpt>
      <trkpt lat="43.43299" lon="6.6597">
        <ele>25.1</ele>
        <time>2025-01-19T13:53:35Z</time>
      </trkpt>
      <trkpt lat="43.433" lon="6.6597">
        <ele>25.2</ele>
        <time>2025-01-19T13:53:36Z</time>
      </trkpt>
      <trkpt lat="43.43301" lon="6.65969">
        <ele>25.2</ele>
        <time>2025-01-19T13:53:37Z</time>
      </trkpt>
      <trkpt lat="43.43302" lon="6.65969">
        <ele>25.2</ele>
        <time>2025-01-19T13:53:38Z</time>
      </trkpt>
      <trkpt lat="43.43303" lon="6.65969">
        <ele>25.3</ele>
        <time>2025-01-19T13:53:39Z</time>
      </trkpt>
      <trkpt lat="43.43304" lon="6.65969">
        <ele>25.3</ele>
        <time>2025-01-19T13:53:40Z</time>
      </trkpt>
      <trkpt lat="43.43305" lon="6.65969">
        <ele>25.4</ele>
        <time>2025-01-19T13:53:41Z</time>
      </trkpt>
      <trkpt lat="43.43306" lon="6.6597">
        <ele>25.4</ele>
        <time>2025-01-19T13:53:42Z</time>
      </trkpt>
      <trkpt lat="43.43307" lon="6.65971">
        <ele>25.6</ele>
        <time>2025-01-19T13:53:43Z</time>
      </trkpt>
      <trkpt lat="43.43308" lon="6.65971">
        <ele>25.6</ele>
        <time>2025-01-19T13:53:44Z</time>
      </trkpt>
      <trkpt lat="43.43309" lon="6.65971">
        <ele>25.6</ele>
        <time>2025-01-19T13:53:45Z</time>
      </trkpt>
      <trkpt lat="43.4331" lon="6.65971">
        <ele>25.7</ele>
        <time>2025-01-19T13:53:46Z</time>
      </trkpt>
      <trkpt lat="43.43312" lon="6.65972">
        <ele>25.8</ele>
        <time>2025-01-19T13:53:47Z</time>
      </trkpt>
      <trkpt lat="43.43313" lon="6.65972">
        <ele>26</ele>
        <time>2025-01-19T13:53:48Z</time>
      </trkpt>
      <trkpt lat="43.43315" lon="6.65971">
        <ele>26.1</ele>
        <time>2025-01-19T13:53:49Z</time>
      </trkpt>
      <trkpt lat="43.43316" lon="6.65972">
        <ele>26.2</ele>
        <time>2025-01-19T13:53:50Z</time>
      </trkpt>
      <trkpt lat="43.43316" lon="6.65972">
        <ele>26.3</ele>
        <time>2025-01-19T13:53:51Z</time>
      </trkpt>
      <trkpt lat="43.43317" lon="6.65972">
        <ele>26.4</ele>
        <time>2025-01-19T13:53:52Z</time>
      </trkpt>
      <trkpt lat="43.43317" lon="6.65972">
        <ele>26.5</ele>
        <time>2025-01-19T13:53:53Z</time>
      </trkpt>
      <trkpt lat="43.43318" lon="6.65973">
        <ele>26.5</ele>
        <time>2025-01-19T13:53:54Z</time>
      </trkpt>
      <trkpt lat="43.4332" lon="6.65972">
        <ele>26.6</ele>
        <time>2025-01-19T13:53:55Z</time>
      </trkpt>
      <trkpt lat="43.43321" lon="6.65971">
        <ele>26.7</ele>
        <time>2025-01-19T13:53:56Z</time>
      </trkpt>
      <trkpt lat="43.43321" lon="6.65971">
        <ele>26.7</ele>
        <time>2025-01-19T13:53:57Z</time>
      </trkpt>
      <trkpt lat="43.43321" lon="6.65972">
        <ele>26.9</ele>
        <time>2025-01-19T13:53:58Z</time>
      </trkpt>
      <trkpt lat="43.43322" lon="6.65972">
        <ele>27</ele>
        <time>2025-01-19T13:53:59Z</time>
      </trkpt>
      <trkpt lat="43.43322" lon="6.65972">
        <ele>27.1</ele>
        <time>2025-01-19T13:54:00Z</time>
      </trkpt>
      <trkpt lat="43.43323" lon="6.65971">
        <ele>27.1</ele>
        <time>2025-01-19T13:54:01Z</time>
      </trkpt>
      <trkpt lat="43.43324" lon="6.65971">
        <ele>27.2</ele>
        <time>2025-01-19T13:54:02Z</time>
      </trkpt>
      <trkpt lat="43.43325" lon="6.65971">
        <ele>27.3</ele>
        <time>2025-01-19T13:54:03Z</time>
      </trkpt>
      <trkpt lat="43.43327" lon="6.65971">
        <ele>27.4</ele>
        <time>2025-01-19T13:54:04Z</time>
      </trkpt>
      <trkpt lat="43.43328" lon="6.65971">
        <ele>27.6</ele>
        <time>2025-01-19T13:54:05Z</time>
      </trkpt>
      <trkpt lat="43.43329" lon="6.65971">
        <ele>27.7</ele>
        <time>2025-01-19T13:54:06Z</time>
      </trkpt>
      <trkpt lat="43.43329" lon="6.65971">
        <ele>27.8</ele>
        <time>2025-01-19T13:54:07Z</time>
      </trkpt>
      <trkpt lat="43.4333" lon="6.65971">
        <ele>27.8</ele>
        <time>2025-01-19T13:54:08Z</time>
      </trkpt>
      <trkpt lat="43.43332" lon="6.65971">
        <ele>27.9</ele>
        <time>2025-01-19T13:54:09Z</time>
      </trkpt>
      <trkpt lat="43.43333" lon="6.65971">
        <ele>27.9</ele>
        <time>2025-01-19T13:54:10Z</time>
      </trkpt>
      <trkpt lat="43.43334" lon="6.65971">
        <ele>28</ele>
        <time>2025-01-19T13:54:11Z</time>
      </trkpt>
      <trkpt lat="43.43335" lon="6.65971">
        <ele>28</ele>
        <time>2025-01-19T13:54:12Z</time>
      </trkpt>
      <trkpt lat="43.43337" lon="6.65971">
        <ele>28.1</ele>
        <time>2025-01-19T13:54:13Z</time>
      </trkpt>
      <trkpt lat="43.43338" lon="6.65971">
        <ele>28.2</ele>
        <time>2025-01-19T13:54:14Z</time>
      </trkpt>
      <trkpt lat="43.43339" lon="6.65971">
        <ele>28.2</ele>
        <time>2025-01-19T13:54:15Z</time>
      </trkpt>
      <trkpt lat="43.43341" lon="6.6597">
        <ele>28.3</ele>
        <time>2025-01-19T13:54:16Z</time>
      </trkpt>
      <trkpt lat="43.43342" lon="6.6597">
        <ele>28.3</ele>
        <time>2025-01-19T13:54:17Z</time>
      </trkpt>
      <trkpt lat="43.43343" lon="6.6597">
        <ele>28.3</ele>
        <time>2025-01-19T13:54:18Z</time>
      </trkpt>
      <trkpt lat="43.43344" lon="6.6597">
        <ele>28.4</ele>
        <time>2025-01-19T13:54:19Z</time>
      </trkpt>
      <trkpt lat="43.43346" lon="6.6597">
        <ele>28.4</ele>
        <time>2025-01-19T13:54:20Z</time>
      </trkpt>
      <trkpt lat="43.43347" lon="6.65969">
        <ele>28.4</ele>
        <time>2025-01-19T13:54:21Z</time>
      </trkpt>
      <trkpt lat="43.43348" lon="6.65969">
        <ele>28.4</ele>
        <time>2025-01-19T13:54:22Z</time>
      </trkpt>
      <trkpt lat="43.43349" lon="6.6597">
        <ele>28.3</ele>
        <time>2025-01-19T13:54:23Z</time>
      </trkpt>
      <trkpt lat="43.43351" lon="6.65969">
        <ele>28.3</ele>
        <time>2025-01-19T13:54:24Z</time>
      </trkpt>
      <trkpt lat="43.43352" lon="6.65969">
        <ele>28.2</ele>
        <time>2025-01-19T13:54:25Z</time>
      </trkpt>
      <trkpt lat="43.43353" lon="6.65969">
        <ele>28.1</ele>
        <time>2025-01-19T13:54:26Z</time>
      </trkpt>
      <trkpt lat="43.43355" lon="6.65968">
        <ele>28</ele>
        <time>2025-01-19T13:54:27Z</time>
      </trkpt>
      <trkpt lat="43.43356" lon="6.65968">
        <ele>27.9</ele>
        <time>2025-01-19T13:54:28Z</time>
      </trkpt>
      <trkpt lat="43.43357" lon="6.65968">
        <ele>27.9</ele>
        <time>2025-01-19T13:54:29Z</time>
      </trkpt>
      <trkpt lat="43.43359" lon="6.65967">
        <ele>27.8</ele>
        <time>2025-01-19T13:54:30Z</time>
      </trkpt>
      <trkpt lat="43.4336" lon="6.65967">
        <ele>27.7</ele>
        <time>2025-01-19T13:54:31Z</time>
      </trkpt>
      <trkpt lat="43.43361" lon="6.65967">
        <ele>27.7</ele>
        <time>2025-01-19T13:54:32Z</time>
      </trkpt>
      <trkpt lat="43.43363" lon="6.65966">
        <ele>27.6</ele>
        <time>2025-01-19T13:54:33Z</time>
      </trkpt>
      <trkpt lat="43.43364" lon="6.65966">
        <ele>27.5</ele>
        <time>2025-01-19T13:54:34Z</time>
      </trkpt>
      <trkpt lat="43.43366" lon="6.65966">
        <ele>27.5</ele>
        <time>2025-01-19T13:54:35Z</time>
      </trkpt>
      <trkpt lat="43.43367" lon="6.65966">
        <ele>27.6</ele>
        <time>2025-01-19T13:54:36Z</time>
      </trkpt>
      <trkpt lat="43.43368" lon="6.65965">
        <ele>27.5</ele>
        <time>2025-01-19T13:54:37Z</time>
      </trkpt>
      <trkpt lat="43.43369" lon="6.65965">
        <ele>27.5</ele>
        <time>2025-01-19T13:54:38Z</time>
      </trkpt>
      <trkpt lat="43.43371" lon="6.65965">
        <ele>27.5</ele>
        <time>2025-01-19T13:54:39Z</time>
      </trkpt>
      <trkpt lat="43.43372" lon="6.65965">
        <ele>27.4</ele>
        <time>2025-01-19T13:54:40Z</time>
      </trkpt>
      <trkpt lat="43.43373" lon="6.65965">
        <ele>27.3</ele>
        <time>2025-01-19T13:54:41Z</time>
      </trkpt>
      <trkpt lat="43.43374" lon="6.65964">
        <ele>27.2</ele>
        <time>2025-01-19T13:54:42Z</time>
      </trkpt>
      <trkpt lat="43.43374" lon="6.65964">
        <ele>27.1</ele>
        <time>2025-01-19T13:54:43Z</time>
      </trkpt>
      <trkpt lat="43.43375" lon="6.65964">
        <ele>27</ele>
        <time>2025-01-19T13:54:44Z</time>
      </trkpt>
      <trkpt lat="43.43376" lon="6.65963">
        <ele>27</ele>
        <time>2025-01-19T13:54:45Z</time>
      </trkpt>
      <trkpt lat="43.43377" lon="6.65962">
        <ele>27</ele>
        <time>2025-01-19T13:54:46Z</time>
      </trkpt>
      <trkpt lat="43.43378" lon="6.65962">
        <ele>27</ele>
        <time>2025-01-19T13:54:47Z</time>
      </trkpt>
      <trkpt lat="43.4338" lon="6.65962">
        <ele>27</ele>
        <time>2025-01-19T13:54:48Z</time>
      </trkpt>
      <trkpt lat="43.43381" lon="6.65961">
        <ele>26.9</ele>
        <time>2025-01-19T13:54:49Z</time>
      </trkpt>
      <trkpt lat="43.43382" lon="6.6596">
        <ele>26.9</ele>
        <time>2025-01-19T13:54:50Z</time>
      </trkpt>
      <trkpt lat="43.43384" lon="6.65959">
        <ele>26.8</ele>
        <time>2025-01-19T13:54:51Z</time>
      </trkpt>
      <trkpt lat="43.43385" lon="6.65958">
        <ele>26.7</ele>
        <time>2025-01-19T13:54:52Z</time>
      </trkpt>
      <trkpt lat="43.43386" lon="6.65957">
        <ele>26.7</ele>
        <time>2025-01-19T13:54:53Z</time>
      </trkpt>
      <trkpt lat="43.43388" lon="6.65956">
        <ele>26.7</ele>
        <time>2025-01-19T13:54:54Z</time>
      </trkpt>
      <trkpt lat="43.43389" lon="6.65956">
        <ele>26.7</ele>
        <time>2025-01-19T13:54:55Z</time>
      </trkpt>
      <trkpt lat="43.4339" lon="6.65955">
        <ele>26.7</ele>
        <time>2025-01-19T13:54:56Z</time>
      </trkpt>
      <trkpt lat="43.43392" lon="6.65955">
        <ele>26.7</ele>
        <time>2025-01-19T13:54:57Z</time>
      </trkpt>
      <trkpt lat="43.43393" lon="6.65953">
        <ele>26.6</ele>
        <time>2025-01-19T13:54:58Z</time>
      </trkpt>
      <trkpt lat="43.43394" lon="6.65951">
        <ele>26.7</ele>
        <time>2025-01-19T13:54:59Z</time>
      </trkpt>
      <trkpt lat="43.43396" lon="6.6595">
        <ele>26.7</ele>
        <time>2025-01-19T13:55:00Z</time>
      </trkpt>
      <trkpt lat="43.43397" lon="6.65949">
        <ele>26.8</ele>
        <time>2025-01-19T13:55:01Z</time>
      </trkpt>
      <trkpt lat="43.43398" lon="6.65948">
        <ele>26.9</ele>
        <time>2025-01-19T13:55:02Z</time>
      </trkpt>
      <trkpt lat="43.43398" lon="6.65947">
        <ele>27</ele>
        <time>2025-01-19T13:55:03Z</time>
      </trkpt>
      <trkpt lat="43.434" lon="6.65947">
        <ele>27</ele>
        <time>2025-01-19T13:55:04Z</time>
      </trkpt>
      <trkpt lat="43.43401" lon="6.65946">
        <ele>27.2</ele>
        <time>2025-01-19T13:55:05Z</time>
      </trkpt>
      <trkpt lat="43.43402" lon="6.65945">
        <ele>27.3</ele>
        <time>2025-01-19T13:55:06Z</time>
      </trkpt>
      <trkpt lat="43.43403" lon="6.65945">
        <ele>27.4</ele>
        <time>2025-01-19T13:55:07Z</time>
      </trkpt>
      <trkpt lat="43.43404" lon="6.65944">
        <ele>27.5</ele>
        <time>2025-01-19T13:55:08Z</time>
      </trkpt>
      <trkpt lat="43.43405" lon="6.65943">
        <ele>27.6</ele>
        <time>2025-01-19T13:55:09Z</time>
      </trkpt>
      <trkpt lat="43.43407" lon="6.65942">
        <ele>27.5</ele>
        <time>2025-01-19T13:55:10Z</time>
      </trkpt>
      <trkpt lat="43.43408" lon="6.65942">
        <ele>27.5</ele>
        <time>2025-01-19T13:55:11Z</time>
      </trkpt>
      <trkpt lat="43.43408" lon="6.65941">
        <ele>27.5</ele>
        <time>2025-01-19T13:55:12Z</time>
      </trkpt>
      <trkpt lat="43.4341" lon="6.6594">
        <ele>27.5</ele>
        <time>2025-01-19T13:55:13Z</time>
      </trkpt>
      <trkpt lat="43.43411" lon="6.6594">
        <ele>27.6</ele>
        <time>2025-01-19T13:55:14Z</time>
      </trkpt>
      <trkpt lat="43.43411" lon="6.6594">
        <ele>27.6</ele>
        <time>2025-01-19T13:55:15Z</time>
      </trkpt>
      <trkpt lat="43.43414" lon="6.65941">
        <ele>27.6</ele>
        <time>2025-01-19T13:55:16Z</time>
      </trkpt>
      <trkpt lat="43.43416" lon="6.65941">
        <ele>27.6</ele>
        <time>2025-01-19T13:55:17Z</time>
      </trkpt>
      <trkpt lat="43.43418" lon="6.6594">
        <ele>27.5</ele>
        <time>2025-01-19T13:55:18Z</time>
      </trkpt>
      <trkpt lat="43.4342" lon="6.6594">
        <ele>27.6</ele>
        <time>2025-01-19T13:55:19Z</time>
      </trkpt>
      <trkpt lat="43.43421" lon="6.65938">
        <ele>27.7</ele>
        <time>2025-01-19T13:55:20Z</time>
      </trkpt>
      <trkpt lat="43.43421" lon="6.65937">
        <ele>27.8</ele>
        <time>2025-01-19T13:55:21Z</time>
      </trkpt>
      <trkpt lat="43.43421" lon="6.65937">
        <ele>27.8</ele>
        <time>2025-01-19T13:55:22Z</time>
      </trkpt>
      <trkpt lat="43.43422" lon="6.65936">
        <ele>27.8</ele>
        <time>2025-01-19T13:55:23Z</time>
      </trkpt>
      <trkpt lat="43.43424" lon="6.65935">
        <ele>27.8</ele>
        <time>2025-01-19T13:55:24Z</time>
      </trkpt>
      <trkpt lat="43.43426" lon="6.65934">
        <ele>27.8</ele>
        <time>2025-01-19T13:55:25Z</time>
      </trkpt>
      <trkpt lat="43.43427" lon="6.65934">
        <ele>27.8</ele>
        <time>2025-01-19T13:55:26Z</time>
      </trkpt>
      <trkpt lat="43.43428" lon="6.65934">
        <ele>27.7</ele>
        <time>2025-01-19T13:55:27Z</time>
      </trkpt>
      <trkpt lat="43.4343" lon="6.65933">
        <ele>27.7</ele>
        <time>2025-01-19T13:55:28Z</time>
      </trkpt>
      <trkpt lat="43.4343" lon="6.65933">
        <ele>27.7</ele>
        <time>2025-01-19T13:55:29Z</time>
      </trkpt>
      <trkpt lat="43.43432" lon="6.65931">
        <ele>27.7</ele>
        <time>2025-01-19T13:55:30Z</time>
      </trkpt>
      <trkpt lat="43.43433" lon="6.6593">
        <ele>27.6</ele>
        <time>2025-01-19T13:55:31Z</time>
      </trkpt>
      <trkpt lat="43.43434" lon="6.6593">
        <ele>27.7</ele>
        <time>2025-01-19T13:55:32Z</time>
      </trkpt>
      <trkpt lat="43.43435" lon="6.65929">
        <ele>27.7</ele>
        <time>2025-01-19T13:55:33Z</time>
      </trkpt>
      <trkpt lat="43.43435" lon="6.65928">
        <ele>27.7</ele>
        <time>2025-01-19T13:55:34Z</time>
      </trkpt>
      <trkpt lat="43.43437" lon="6.65927">
        <ele>27.7</ele>
        <time>2025-01-19T13:55:35Z</time>
      </trkpt>
      <trkpt lat="43.43438" lon="6.65926">
        <ele>27.7</ele>
        <time>2025-01-19T13:55:36Z</time>
      </trkpt>
      <trkpt lat="43.43438" lon="6.65926">
        <ele>27.6</ele>
        <time>2025-01-19T13:55:37Z</time>
      </trkpt>
      <trkpt lat="43.4344" lon="6.65925">
        <ele>27.5</ele>
        <time>2025-01-19T13:55:38Z</time>
      </trkpt>
      <trkpt lat="43.43441" lon="6.65924">
        <ele>27.4</ele>
        <time>2025-01-19T13:55:39Z</time>
      </trkpt>
      <trkpt lat="43.43442" lon="6.65923">
        <ele>27.4</ele>
        <time>2025-01-19T13:55:40Z</time>
      </trkpt>
      <trkpt lat="43.43443" lon="6.65922">
        <ele>27.4</ele>
        <time>2025-01-19T13:55:41Z</time>
      </trkpt>
      <trkpt lat="43.43444" lon="6.6592">
        <ele>27.4</ele>
        <time>2025-01-19T13:55:42Z</time>
      </trkpt>
      <trkpt lat="43.43446" lon="6.65919">
        <ele>27.2</ele>
        <time>2025-01-19T13:55:43Z</time>
      </trkpt>
      <trkpt lat="43.43448" lon="6.65917">
        <ele>27.1</ele>
        <time>2025-01-19T13:55:44Z</time>
      </trkpt>
      <trkpt lat="43.43449" lon="6.65917">
        <ele>27</ele>
        <time>2025-01-19T13:55:45Z</time>
      </trkpt>
      <trkpt lat="43.43451" lon="6.65916">
        <ele>27</ele>
        <time>2025-01-19T13:55:46Z</time>
      </trkpt>
      <trkpt lat="43.43452" lon="6.65915">
        <ele>26.9</ele>
        <time>2025-01-19T13:55:47Z</time>
      </trkpt>
      <trkpt lat="43.43454" lon="6.65914">
        <ele>26.9</ele>
        <time>2025-01-19T13:55:48Z</time>
      </trkpt>
      <trkpt lat="43.43454" lon="6.65913">
        <ele>26.8</ele>
        <time>2025-01-19T13:55:49Z</time>
      </trkpt>
      <trkpt lat="43.43454" lon="6.65912">
        <ele>26.7</ele>
        <time>2025-01-19T13:55:50Z</time>
      </trkpt>
      <trkpt lat="43.43455" lon="6.6591">
        <ele>26.7</ele>
        <time>2025-01-19T13:55:51Z</time>
      </trkpt>
      <trkpt lat="43.43455" lon="6.65909">
        <ele>26.7</ele>
        <time>2025-01-19T13:55:52Z</time>
      </trkpt>
      <trkpt lat="43.43456" lon="6.65907">
        <ele>26.8</ele>
        <time>2025-01-19T13:55:53Z</time>
      </trkpt>
      <trkpt lat="43.43456" lon="6.65906">
        <ele>26.8</ele>
        <time>2025-01-19T13:55:54Z</time>
      </trkpt>
      <trkpt lat="43.43456" lon="6.65906">
        <ele>26.8</ele>
        <time>2025-01-19T13:55:55Z</time>
      </trkpt>
      <trkpt lat="43.43457" lon="6.65905">
        <ele>26.8</ele>
        <time>2025-01-19T13:55:56Z</time>
      </trkpt>
      <trkpt lat="43.43458" lon="6.65904">
        <ele>26.8</ele>
        <time>2025-01-19T13:55:57Z</time>
      </trkpt>
      <trkpt lat="43.43459" lon="6.65903">
        <ele>26.8</ele>
        <time>2025-01-19T13:55:58Z</time>
      </trkpt>
      <trkpt lat="43.4346" lon="6.65902">
        <ele>26.7</ele>
        <time>2025-01-19T13:55:59Z</time>
      </trkpt>
      <trkpt lat="43.43461" lon="6.65902">
        <ele>26.7</ele>
        <time>2025-01-19T13:56:00Z</time>
      </trkpt>
      <trkpt lat="43.43463" lon="6.659">
        <ele>26.7</ele>
        <time>2025-01-19T13:56:01Z</time>
      </trkpt>
      <trkpt lat="43.43464" lon="6.65899">
        <ele>26.6</ele>
        <time>2025-01-19T13:56:02Z</time>
      </trkpt>
      <trkpt lat="43.43466" lon="6.65898">
        <ele>26.6</ele>
        <time>2025-01-19T13:56:03Z</time>
      </trkpt>
      <trkpt lat="43.43466" lon="6.65897">
        <ele>26.7</ele>
        <time>2025-01-19T13:56:04Z</time>
      </trkpt>
      <trkpt lat="43.43467" lon="6.65895">
        <ele>26.6</ele>
        <time>2025-01-19T13:56:05Z</time>
      </trkpt>
      <trkpt lat="43.43468" lon="6.65894">
        <ele>26.6</ele>
        <time>2025-01-19T13:56:06Z</time>
      </trkpt>
      <trkpt lat="43.43469" lon="6.65893">
        <ele>26.6</ele>
        <time>2025-01-19T13:56:07Z</time>
      </trkpt>
      <trkpt lat="43.4347" lon="6.65892">
        <ele>26.5</ele>
        <time>2025-01-19T13:56:08Z</time>
      </trkpt>
      <trkpt lat="43.43472" lon="6.65891">
        <ele>26.4</ele>
        <time>2025-01-19T13:56:09Z</time>
      </trkpt>
      <trkpt lat="43.43473" lon="6.6589">
        <ele>26.3</ele>
        <time>2025-01-19T13:56:10Z</time>
      </trkpt>
      <trkpt lat="43.43474" lon="6.65889">
        <ele>26.3</ele>
        <time>2025-01-19T13:56:11Z</time>
      </trkpt>
      <trkpt lat="43.43476" lon="6.65888">
        <ele>26.3</ele>
        <time>2025-01-19T13:56:12Z</time>
      </trkpt>
      <trkpt lat="43.43477" lon="6.65887">
        <ele>26.4</ele>
        <time>2025-01-19T13:56:13Z</time>
      </trkpt>
      <trkpt lat="43.43478" lon="6.65886">
        <ele>26.4</ele>
        <time>2025-01-19T13:56:14Z</time>
      </trkpt>
      <trkpt lat="43.43479" lon="6.65885">
        <ele>26.4</ele>
        <time>2025-01-19T13:56:15Z</time>
      </trkpt>
      <trkpt lat="43.43481" lon="6.65884">
        <ele>26.4</ele>
        <time>2025-01-19T13:56:16Z</time>
      </trkpt>
      <trkpt lat="43.43481" lon="6.65883">
        <ele>26.4</ele>
        <time>2025-01-19T13:56:17Z</time>
      </trkpt>
      <trkpt lat="43.43482" lon="6.65883">
        <ele>26.4</ele>
        <time>2025-01-19T13:56:18Z</time>
      </trkpt>
      <trkpt lat="43.43484" lon="6.65881">
        <ele>26.5</ele>
        <time>2025-01-19T13:56:19Z</time>
      </trkpt>
      <trkpt lat="43.43485" lon="6.6588">
        <ele>26.6</ele>
        <time>2025-01-19T13:56:20Z</time>
      </trkpt>
      <trkpt lat="43.43486" lon="6.65878">
        <ele>26.6</ele>
        <time>2025-01-19T13:56:21Z</time>
      </trkpt>
      <trkpt lat="43.43487" lon="6.65877">
        <ele>26.5</ele>
        <time>2025-01-19T13:56:22Z</time>
      </trkpt>
      <trkpt lat="43.43488" lon="6.65876">
        <ele>26.6</ele>
        <time>2025-01-19T13:56:23Z</time>
      </trkpt>
      <trkpt lat="43.43489" lon="6.65875">
        <ele>26.6</ele>
        <time>2025-01-19T13:56:24Z</time>
      </trkpt>
      <trkpt lat="43.4349" lon="6.65874">
        <ele>26.7</ele>
        <time>2025-01-19T13:56:25Z</time>
      </trkpt>
      <trkpt lat="43.43491" lon="6.65873">
        <ele>26.8</ele>
        <time>2025-01-19T13:56:26Z</time>
      </trkpt>
      <trkpt lat="43.43493" lon="6.65872">
        <ele>26.9</ele>
        <time>2025-01-19T13:56:27Z</time>
      </trkpt>
      <trkpt lat="43.43493" lon="6.65871">
        <ele>26.9</ele>
        <time>2025-01-19T13:56:28Z</time>
      </trkpt>
      <trkpt lat="43.43494" lon="6.6587">
        <ele>27</ele>
        <time>2025-01-19T13:56:29Z</time>
      </trkpt>
      <trkpt lat="43.43495" lon="6.65868">
        <ele>27</ele>
        <time>2025-01-19T13:56:30Z</time>
      </trkpt>
      <trkpt lat="43.43495" lon="6.65868">
        <ele>27</ele>
        <time>2025-01-19T13:56:31Z</time>
      </trkpt>
      <trkpt lat="43.43497" lon="6.65866">
        <ele>27</ele>
        <time>2025-01-19T13:56:32Z</time>
      </trkpt>
      <trkpt lat="43.43499" lon="6.65865">
        <ele>27</ele>
        <time>2025-01-19T13:56:33Z</time>
      </trkpt>
      <trkpt lat="43.435" lon="6.65864">
        <ele>27.1</ele>
        <time>2025-01-19T13:56:34Z</time>
      </trkpt>
      <trkpt lat="43.43501" lon="6.65863">
        <ele>27.3</ele>
        <time>2025-01-19T13:56:35Z</time>
      </trkpt>
      <trkpt lat="43.43502" lon="6.65862">
        <ele>27.4</ele>
        <time>2025-01-19T13:56:36Z</time>
      </trkpt>
      <trkpt lat="43.43503" lon="6.6586">
        <ele>27.4</ele>
        <time>2025-01-19T13:56:37Z</time>
      </trkpt>
      <trkpt lat="43.43504" lon="6.65859">
        <ele>27.4</ele>
        <time>2025-01-19T13:56:38Z</time>
      </trkpt>
      <trkpt lat="43.43505" lon="6.65858">
        <ele>27.3</ele>
        <time>2025-01-19T13:56:39Z</time>
      </trkpt>
      <trkpt lat="43.43506" lon="6.65857">
        <ele>27.3</ele>
        <time>2025-01-19T13:56:40Z</time>
      </trkpt>
      <trkpt lat="43.43507" lon="6.65856">
        <ele>27.1</ele>
        <time>2025-01-19T13:56:41Z</time>
      </trkpt>
      <trkpt lat="43.43508" lon="6.65855">
        <ele>27</ele>
        <time>2025-01-19T13:56:42Z</time>
      </trkpt>
      <trkpt lat="43.43509" lon="6.65854">
        <ele>26.8</ele>
        <time>2025-01-19T13:56:43Z</time>
      </trkpt>
      <trkpt lat="43.4351" lon="6.65853">
        <ele>26.7</ele>
        <time>2025-01-19T13:56:44Z</time>
      </trkpt>
      <trkpt lat="43.4351" lon="6.65852">
        <ele>26.6</ele>
        <time>2025-01-19T13:56:45Z</time>
      </trkpt>
      <trkpt lat="43.4351" lon="6.65851">
        <ele>26.5</ele>
        <time>2025-01-19T13:56:46Z</time>
      </trkpt>
      <trkpt lat="43.43512" lon="6.6585">
        <ele>26.3</ele>
        <time>2025-01-19T13:56:47Z</time>
      </trkpt>
      <trkpt lat="43.43513" lon="6.65849">
        <ele>26.1</ele>
        <time>2025-01-19T13:56:48Z</time>
      </trkpt>
      <trkpt lat="43.43514" lon="6.65848">
        <ele>26</ele>
        <time>2025-01-19T13:56:49Z</time>
      </trkpt>
      <trkpt lat="43.43514" lon="6.65846">
        <ele>25.8</ele>
        <time>2025-01-19T13:56:50Z</time>
      </trkpt>
      <trkpt lat="43.43515" lon="6.65845">
        <ele>25.8</ele>
        <time>2025-01-19T13:56:51Z</time>
      </trkpt>
      <trkpt lat="43.43516" lon="6.65843">
        <ele>25.6</ele>
        <time>2025-01-19T13:56:52Z</time>
      </trkpt>
      <trkpt lat="43.43518" lon="6.65842">
        <ele>25.5</ele>
        <time>2025-01-19T13:56:53Z</time>
      </trkpt>
      <trkpt lat="43.43518" lon="6.65841">
        <ele>25.4</ele>
        <time>2025-01-19T13:56:54Z</time>
      </trkpt>
      <trkpt lat="43.43519" lon="6.65841">
        <ele>25.1</ele>
        <time>2025-01-19T13:56:55Z</time>
      </trkpt>
      <trkpt lat="43.4352" lon="6.6584">
        <ele>24.9</ele>
        <time>2025-01-19T13:56:56Z</time>
      </trkpt>
      <trkpt lat="43.43521" lon="6.65839">
        <ele>24.8</ele>
        <time>2025-01-19T13:56:57Z</time>
      </trkpt>
      <trkpt lat="43.43522" lon="6.65838">
        <ele>24.6</ele>
        <time>2025-01-19T13:56:58Z</time>
      </trkpt>
      <trkpt lat="43.43523" lon="6.65837">
        <ele>24.5</ele>
        <time>2025-01-19T13:56:59Z</time>
      </trkpt>
      <trkpt lat="43.43524" lon="6.65836">
        <ele>24.4</ele>
        <time>2025-01-19T13:57:00Z</time>
      </trkpt>
      <trkpt lat="43.43525" lon="6.65835">
        <ele>24.4</ele>
        <time>2025-01-19T13:57:01Z</time>
      </trkpt>
      <trkpt lat="43.43526" lon="6.65834">
        <ele>24.3</ele>
        <time>2025-01-19T13:57:02Z</time>
      </trkpt>
      <trkpt lat="43.43527" lon="6.65834">
        <ele>24.2</ele>
        <time>2025-01-19T13:57:03Z</time>
      </trkpt>
      <trkpt lat="43.43528" lon="6.65833">
        <ele>24.1</ele>
        <time>2025-01-19T13:57:04Z</time>
      </trkpt>
      <trkpt lat="43.43529" lon="6.65831">
        <ele>23.9</ele>
        <time>2025-01-19T13:57:05Z</time>
      </trkpt>
      <trkpt lat="43.4353" lon="6.65831">
        <ele>23.8</ele>
        <time>2025-01-19T13:57:06Z</time>
      </trkpt>
      <trkpt lat="43.43531" lon="6.6583">
        <ele>23.7</ele>
        <time>2025-01-19T13:57:07Z</time>
      </trkpt>
      <trkpt lat="43.43531" lon="6.6583">
        <ele>23.5</ele>
        <time>2025-01-19T13:57:08Z</time>
      </trkpt>
      <trkpt lat="43.43531" lon="6.65829">
        <ele>23.4</ele>
        <time>2025-01-19T13:57:09Z</time>
      </trkpt>
      <trkpt lat="43.43532" lon="6.65828">
        <ele>23.3</ele>
        <time>2025-01-19T13:57:10Z</time>
      </trkpt>
      <trkpt lat="43.43533" lon="6.65827">
        <ele>23.2</ele>
        <time>2025-01-19T13:57:11Z</time>
      </trkpt>
      <trkpt lat="43.43534" lon="6.65826">
        <ele>23</ele>
        <time>2025-01-19T13:57:12Z</time>
      </trkpt>
      <trkpt lat="43.43535" lon="6.65826">
        <ele>22.7</ele>
        <time>2025-01-19T13:57:13Z</time>
      </trkpt>
      <trkpt lat="43.43537" lon="6.65825">
        <ele>22.6</ele>
        <time>2025-01-19T13:57:14Z</time>
      </trkpt>
      <trkpt lat="43.43538" lon="6.65824">
        <ele>22.3</ele>
        <time>2025-01-19T13:57:15Z</time>
      </trkpt>
      <trkpt lat="43.43539" lon="6.65823">
        <ele>22.3</ele>
        <time>2025-01-19T13:57:16Z</time>
      </trkpt>
      <trkpt lat="43.43541" lon="6.65823">
        <ele>22.1</ele>
        <time>2025-01-19T13:57:17Z</time>
      </trkpt>
      <trkpt lat="43.43542" lon="6.65823">
        <ele>22</ele>
        <time>2025-01-19T13:57:18Z</time>
      </trkpt>
      <trkpt lat="43.43541" lon="6.65822">
        <ele>21.9</ele>
        <time>2025-01-19T13:57:19Z</time>
      </trkpt>
      <trkpt lat="43.43541" lon="6.65821">
        <ele>21.8</ele>
        <time>2025-01-19T13:57:20Z</time>
      </trkpt>
      <trkpt lat="43.43542" lon="6.6582">
        <ele>21.7</ele>
        <time>2025-01-19T13:57:21Z</time>
      </trkpt>
      <trkpt lat="43.43543" lon="6.6582">
        <ele>21.6</ele>
        <time>2025-01-19T13:57:22Z</time>
      </trkpt>
      <trkpt lat="43.43545" lon="6.65819">
        <ele>21.5</ele>
        <time>2025-01-19T13:57:23Z</time>
      </trkpt>
      <trkpt lat="43.43546" lon="6.65818">
        <ele>21.5</ele>
        <time>2025-01-19T13:57:24Z</time>
      </trkpt>
      <trkpt lat="43.43548" lon="6.65817">
        <ele>21.4</ele>
        <time>2025-01-19T13:57:25Z</time>
      </trkpt>
      <trkpt lat="43.4355" lon="6.65816">
        <ele>21.3</ele>
        <time>2025-01-19T13:57:26Z</time>
      </trkpt>
      <trkpt lat="43.43552" lon="6.65815">
        <ele>21.3</ele>
        <time>2025-01-19T13:57:27Z</time>
      </trkpt>
      <trkpt lat="43.43554" lon="6.65814">
        <ele>21.1</ele>
        <time>2025-01-19T13:57:28Z</time>
      </trkpt>
      <trkpt lat="43.43555" lon="6.65813">
        <ele>21</ele>
        <time>2025-01-19T13:57:29Z</time>
      </trkpt>
      <trkpt lat="43.43556" lon="6.65812">
        <ele>20.9</ele>
        <time>2025-01-19T13:57:30Z</time>
      </trkpt>
      <trkpt lat="43.43557" lon="6.65811">
        <ele>20.9</ele>
        <time>2025-01-19T13:57:31Z</time>
      </trkpt>
      <trkpt lat="43.43558" lon="6.65809">
        <ele>20.8</ele>
        <time>2025-01-19T13:57:32Z</time>
      </trkpt>
      <trkpt lat="43.4356" lon="6.65808">
        <ele>20.8</ele>
        <time>2025-01-19T13:57:33Z</time>
      </trkpt>
      <trkpt lat="43.43561" lon="6.65806">
        <ele>20.7</ele>
        <time>2025-01-19T13:57:34Z</time>
      </trkpt>
      <trkpt lat="43.43561" lon="6.65805">
        <ele>20.6</ele>
        <time>2025-01-19T13:57:35Z</time>
      </trkpt>
      <trkpt lat="43.43562" lon="6.65804">
        <ele>20.5</ele>
        <time>2025-01-19T13:57:36Z</time>
      </trkpt>
      <trkpt lat="43.43564" lon="6.65803">
        <ele>20.5</ele>
        <time>2025-01-19T13:57:37Z</time>
      </trkpt>
      <trkpt lat="43.43565" lon="6.65802">
        <ele>20.4</ele>
        <time>2025-01-19T13:57:38Z</time>
      </trkpt>
      <trkpt lat="43.43566" lon="6.658">
        <ele>20.4</ele>
        <time>2025-01-19T13:57:39Z</time>
      </trkpt>
      <trkpt lat="43.43566" lon="6.65799">
        <ele>20.4</ele>
        <time>2025-01-19T13:57:40Z</time>
      </trkpt>
      <trkpt lat="43.43567" lon="6.65798">
        <ele>20.2</ele>
        <time>2025-01-19T13:57:41Z</time>
      </trkpt>
      <trkpt lat="43.43568" lon="6.65797">
        <ele>20.1</ele>
        <time>2025-01-19T13:57:42Z</time>
      </trkpt>
      <trkpt lat="43.43569" lon="6.65796">
        <ele>20</ele>
        <time>2025-01-19T13:57:43Z</time>
      </trkpt>
      <trkpt lat="43.43569" lon="6.65795">
        <ele>20</ele>
        <time>2025-01-19T13:57:44Z</time>
      </trkpt>
      <trkpt lat="43.4357" lon="6.65793">
        <ele>19.8</ele>
        <time>2025-01-19T13:57:45Z</time>
      </trkpt>
      <trkpt lat="43.43571" lon="6.65792">
        <ele>19.7</ele>
        <time>2025-01-19T13:57:46Z</time>
      </trkpt>
      <trkpt lat="43.43573" lon="6.65791">
        <ele>19.7</ele>
        <time>2025-01-19T13:57:47Z</time>
      </trkpt>
      <trkpt lat="43.43574" lon="6.6579">
        <ele>19.7</ele>
        <time>2025-01-19T13:57:48Z</time>
      </trkpt>
      <trkpt lat="43.43577" lon="6.65789">
        <ele>19.7</ele>
        <time>2025-01-19T13:57:49Z</time>
      </trkpt>
      <trkpt lat="43.43578" lon="6.65788">
        <ele>19.8</ele>
        <time>2025-01-19T13:57:50Z</time>
      </trkpt>
      <trkpt lat="43.4358" lon="6.65787">
        <ele>19.8</ele>
        <time>2025-01-19T13:57:51Z</time>
      </trkpt>
      <trkpt lat="43.43583" lon="6.65786">
        <ele>19.7</ele>
        <time>2025-01-19T13:57:52Z</time>
      </trkpt>
      <trkpt lat="43.43583" lon="6.65785">
        <ele>19.8</ele>
        <time>2025-01-19T13:57:53Z</time>
      </trkpt>
      <trkpt lat="43.43584" lon="6.65784">
        <ele>19.9</ele>
        <time>2025-01-19T13:57:54Z</time>
      </trkpt>
      <trkpt lat="43.43584" lon="6.65782">
        <ele>19.9</ele>
        <time>2025-01-19T13:57:55Z</time>
      </trkpt>
      <trkpt lat="43.43584" lon="6.6578">
        <ele>20</ele>
        <time>2025-01-19T13:57:56Z</time>
      </trkpt>
      <trkpt lat="43.43585" lon="6.65779">
        <ele>20</ele>
        <time>2025-01-19T13:57:57Z</time>
      </trkpt>
      <trkpt lat="43.43586" lon="6.65778">
        <ele>20.1</ele>
        <time>2025-01-19T13:57:58Z</time>
      </trkpt>
      <trkpt lat="43.43587" lon="6.65776">
        <ele>20.1</ele>
        <time>2025-01-19T13:57:59Z</time>
      </trkpt>
      <trkpt lat="43.43588" lon="6.65775">
        <ele>20.1</ele>
        <time>2025-01-19T13:58:00Z</time>
      </trkpt>
      <trkpt lat="43.43589" lon="6.65773">
        <ele>20.2</ele>
        <time>2025-01-19T13:58:01Z</time>
      </trkpt>
      <trkpt lat="43.43589" lon="6.65771">
        <ele>20.3</ele>
        <time>2025-01-19T13:58:02Z</time>
      </trkpt>
      <trkpt lat="43.4359" lon="6.65771">
        <ele>20.4</ele>
        <time>2025-01-19T13:58:03Z</time>
      </trkpt>
      <trkpt lat="43.43591" lon="6.65769">
        <ele>20.5</ele>
        <time>2025-01-19T13:58:04Z</time>
      </trkpt>
      <trkpt lat="43.43591" lon="6.65768">
        <ele>20.7</ele>
        <time>2025-01-19T13:58:05Z</time>
      </trkpt>
      <trkpt lat="43.43592" lon="6.65766">
        <ele>20.8</ele>
        <time>2025-01-19T13:58:06Z</time>
      </trkpt>
      <trkpt lat="43.43594" lon="6.65765">
        <ele>20.8</ele>
        <time>2025-01-19T13:58:07Z</time>
      </trkpt>
      <trkpt lat="43.43595" lon="6.65764">
        <ele>20.9</ele>
        <time>2025-01-19T13:58:08Z</time>
      </trkpt>
      <trkpt lat="43.43595" lon="6.65763">
        <ele>20.9</ele>
        <time>2025-01-19T13:58:09Z</time>
      </trkpt>
      <trkpt lat="43.43597" lon="6.65762">
        <ele>21</ele>
        <time>2025-01-19T13:58:10Z</time>
      </trkpt>
      <trkpt lat="43.43598" lon="6.65762">
        <ele>21</ele>
        <time>2025-01-19T13:58:11Z</time>
      </trkpt>
      <trkpt lat="43.43599" lon="6.65761">
        <ele>21.1</ele>
        <time>2025-01-19T13:58:12Z</time>
      </trkpt>
      <trkpt lat="43.43599" lon="6.6576">
        <ele>21.2</ele>
        <time>2025-01-19T13:58:13Z</time>
      </trkpt>
      <trkpt lat="43.436" lon="6.65758">
        <ele>21.3</ele>
        <time>2025-01-19T13:58:14Z</time>
      </trkpt>
      <trkpt lat="43.43601" lon="6.65758">
        <ele>21.4</ele>
        <time>2025-01-19T13:58:15Z</time>
      </trkpt>
      <trkpt lat="43.43602" lon="6.65757">
        <ele>21.5</ele>
        <time>2025-01-19T13:58:16Z</time>
      </trkpt>
      <trkpt lat="43.43602" lon="6.65755">
        <ele>21.6</ele>
        <time>2025-01-19T13:58:17Z</time>
      </trkpt>
      <trkpt lat="43.43603" lon="6.65754">
        <ele>21.7</ele>
        <time>2025-01-19T13:58:18Z</time>
      </trkpt>
      <trkpt lat="43.43604" lon="6.65753">
        <ele>21.8</ele>
        <time>2025-01-19T13:58:19Z</time>
      </trkpt>
      <trkpt lat="43.43604" lon="6.65752">
        <ele>21.9</ele>
        <time>2025-01-19T13:58:20Z</time>
      </trkpt>
      <trkpt lat="43.43605" lon="6.65751">
        <ele>21.9</ele>
        <time>2025-01-19T13:58:21Z</time>
      </trkpt>
      <trkpt lat="43.43606" lon="6.6575">
        <ele>22</ele>
        <time>2025-01-19T13:58:22Z</time>
      </trkpt>
      <trkpt lat="43.43606" lon="6.65748">
        <ele>22.2</ele>
        <time>2025-01-19T13:58:23Z</time>
      </trkpt>
      <trkpt lat="43.43607" lon="6.65747">
        <ele>22.4</ele>
        <time>2025-01-19T13:58:24Z</time>
      </trkpt>
      <trkpt lat="43.43608" lon="6.65746">
        <ele>22.5</ele>
        <time>2025-01-19T13:58:25Z</time>
      </trkpt>
      <trkpt lat="43.43609" lon="6.65745">
        <ele>22.6</ele>
        <time>2025-01-19T13:58:26Z</time>
      </trkpt>
      <trkpt lat="43.4361" lon="6.65744">
        <ele>22.7</ele>
        <time>2025-01-19T13:58:27Z</time>
      </trkpt>
      <trkpt lat="43.4361" lon="6.65742">
        <ele>22.7</ele>
        <time>2025-01-19T13:58:28Z</time>
      </trkpt>
      <trkpt lat="43.4361" lon="6.65741">
        <ele>22.7</ele>
        <time>2025-01-19T13:58:29Z</time>
      </trkpt>
      <trkpt lat="43.4361" lon="6.65739">
        <ele>22.8</ele>
        <time>2025-01-19T13:58:30Z</time>
      </trkpt>
      <trkpt lat="43.43611" lon="6.65738">
        <ele>22.8</ele>
        <time>2025-01-19T13:58:31Z</time>
      </trkpt>
      <trkpt lat="43.43612" lon="6.65737">
        <ele>22.8</ele>
        <time>2025-01-19T13:58:32Z</time>
      </trkpt>
      <trkpt lat="43.43612" lon="6.65736">
        <ele>22.9</ele>
        <time>2025-01-19T13:58:33Z</time>
      </trkpt>
      <trkpt lat="43.43611" lon="6.65735">
        <ele>23</ele>
        <time>2025-01-19T13:58:34Z</time>
      </trkpt>
      <trkpt lat="43.43612" lon="6.65734">
        <ele>23</ele>
        <time>2025-01-19T13:58:35Z</time>
      </trkpt>
      <trkpt lat="43.43614" lon="6.65733">
        <ele>23.1</ele>
        <time>2025-01-19T13:58:36Z</time>
      </trkpt>
      <trkpt lat="43.43615" lon="6.65732">
        <ele>23.1</ele>
        <time>2025-01-19T13:58:37Z</time>
      </trkpt>
      <trkpt lat="43.43615" lon="6.65731">
        <ele>23.2</ele>
        <time>2025-01-19T13:58:38Z</time>
      </trkpt>
      <trkpt lat="43.43616" lon="6.6573">
        <ele>23.2</ele>
        <time>2025-01-19T13:58:39Z</time>
      </trkpt>
      <trkpt lat="43.43616" lon="6.65729">
        <ele>23.2</ele>
        <time>2025-01-19T13:58:40Z</time>
      </trkpt>
      <trkpt lat="43.43617" lon="6.65729">
        <ele>23.3</ele>
        <time>2025-01-19T13:58:41Z</time>
      </trkpt>
      <trkpt lat="43.43617" lon="6.65728">
        <ele>23.3</ele>
        <time>2025-01-19T13:58:42Z</time>
      </trkpt>
      <trkpt lat="43.43618" lon="6.65728">
        <ele>23.3</ele>
        <time>2025-01-19T13:58:43Z</time>
      </trkpt>
      <trkpt lat="43.43618" lon="6.65728">
        <ele>23.4</ele>
        <time>2025-01-19T13:58:44Z</time>
      </trkpt>
      <trkpt lat="43.4362" lon="6.65728">
        <ele>23.5</ele>
        <time>2025-01-19T13:58:45Z</time>
      </trkpt>
      <trkpt lat="43.43621" lon="6.65729">
        <ele>23.4</ele>
        <time>2025-01-19T13:58:46Z</time>
      </trkpt>
      <trkpt lat="43.43622" lon="6.65729">
        <ele>23.3</ele>
        <time>2025-01-19T13:58:47Z</time>
      </trkpt>
      <trkpt lat="43.43623" lon="6.65729">
        <ele>23.3</ele>
        <time>2025-01-19T13:58:48Z</time>
      </trkpt>
      <trkpt lat="43.43623" lon="6.65729">
        <ele>23.3</ele>
        <time>2025-01-19T13:58:49Z</time>
      </trkpt>
      <trkpt lat="43.43623" lon="6.65729">
        <ele>23.3</ele>
        <time>2025-01-19T13:58:50Z</time>
      </trkpt>
      <trkpt lat="43.43623" lon="6.65729">
        <ele>23.2</ele>
        <time>2025-01-19T13:58:51Z</time>
      </trkpt>
      <trkpt lat="43.43623" lon="6.65729">
        <ele>23.1</ele>
        <time>2025-01-19T13:58:52Z</time>
      </trkpt>
      <trkpt lat="43.43624" lon="6.65729">
        <ele>23.1</ele>
        <time>2025-01-19T13:58:53Z</time>
      </trkpt>
      <trkpt lat="43.43624" lon="6.6573">
        <ele>23.1</ele>
        <time>2025-01-19T13:58:54Z</time>
      </trkpt>
      <trkpt lat="43.43624" lon="6.6573">
        <ele>23</ele>
        <time>2025-01-19T13:58:55Z</time>
      </trkpt>
      <trkpt lat="43.43625" lon="6.65731">
        <ele>23</ele>
        <time>2025-01-19T13:58:56Z</time>
      </trkpt>
      <trkpt lat="43.43626" lon="6.65731">
        <ele>22.9</ele>
        <time>2025-01-19T13:58:57Z</time>
      </trkpt>
      <trkpt lat="43.43626" lon="6.65732">
        <ele>22.9</ele>
        <time>2025-01-19T13:58:58Z</time>
      </trkpt>
      <trkpt lat="43.43626" lon="6.65732">
        <ele>22.9</ele>
        <time>2025-01-19T13:58:59Z</time>
      </trkpt>
      <trkpt lat="43.43626" lon="6.65732">
        <ele>22.7</ele>
        <time>2025-01-19T13:58:59Z</time>
      </trkpt>
      <trkpt lat="43.43626" lon="6.65732">
        <ele>22.7</ele>
        <time>2025-01-19T13:58:59Z</time>
      </trkpt>
    </trkseg>
  </trk>
</gpx>